<?xml version="1.0" encoding="UTF-8" standalone="no" ?>
<gpx xmlns="http://www.topografix.com/GPX/1/1" xmlns:xsi="http://www.w3.org/2001/XMLSchema-instance" xsi:schemaLocation="http://www.topografix.com/GPX/1/1 http://www.topografix.com/GPX/1/1/gpx.xsd" version="1.1" creator="VisuGPX - https://www.visugpx.com">
  <metadata>
    <name>Sospel Col de Brouis Olivetta</name>
    <desc><![CDATA[Belle sortie en VAE avec alternance de grosses montée et de belles descentes avec des parties techniques. D+1500m avec 1 batterie de 500Wh]]></desc>
  </metadata>
  <trk>
    <name><![CDATA[Sospel Cyclisme]]></name>
    <trkseg>
      <trkpt lat="43.87796" lon="7.44793">
        <ele>378.39999389648</ele>
        <time>2021-02-20T09:52:16.000Z</time>
      </trkpt>
      <trkpt lat="43.87795" lon="7.44774">
        <ele>378.60000610352</ele>
        <time>2021-02-20T09:52:21.000Z</time>
      </trkpt>
      <trkpt lat="43.87798" lon="7.44755">
        <ele>378.39999389648</ele>
        <time>2021-02-20T09:52:26.000Z</time>
      </trkpt>
      <trkpt lat="43.878" lon="7.44746">
        <ele>378.39999389648</ele>
        <time>2021-02-20T09:52:30.000Z</time>
      </trkpt>
      <trkpt lat="43.87802" lon="7.44744">
        <ele>378.39999389648</ele>
        <time>2021-02-20T09:52:31.000Z</time>
      </trkpt>
      <trkpt lat="43.87818" lon="7.44741">
        <ele>378.39999389648</ele>
        <time>2021-02-20T09:52:36.000Z</time>
      </trkpt>
      <trkpt lat="43.87845" lon="7.44746">
        <ele>377.39999389648</ele>
        <time>2021-02-20T09:52:43.000Z</time>
      </trkpt>
      <trkpt lat="43.87849" lon="7.44746">
        <ele>377.39999389648</ele>
        <time>2021-02-20T09:52:44.000Z</time>
      </trkpt>
      <trkpt lat="43.87852" lon="7.44745">
        <ele>377.20001220703</ele>
        <time>2021-02-20T09:52:45.000Z</time>
      </trkpt>
      <trkpt lat="43.87855" lon="7.44737">
        <ele>377.20001220703</ele>
        <time>2021-02-20T09:52:47.000Z</time>
      </trkpt>
      <trkpt lat="43.87863" lon="7.44704">
        <ele>377.20001220703</ele>
        <time>2021-02-20T09:52:54.000Z</time>
      </trkpt>
      <trkpt lat="43.87872" lon="7.44687">
        <ele>377.60000610352</ele>
        <time>2021-02-20T09:52:59.000Z</time>
      </trkpt>
      <trkpt lat="43.87891" lon="7.44664">
        <ele>378</ele>
        <time>2021-02-20T09:53:06.000Z</time>
      </trkpt>
      <trkpt lat="43.87909" lon="7.44648">
        <ele>378.60000610352</ele>
        <time>2021-02-20T09:53:12.000Z</time>
      </trkpt>
      <trkpt lat="43.87914" lon="7.44645">
        <ele>379.20001220703</ele>
        <time>2021-02-20T09:53:14.000Z</time>
      </trkpt>
      <trkpt lat="43.87921" lon="7.44642">
        <ele>379.79998779297</ele>
        <time>2021-02-20T09:53:16.000Z</time>
      </trkpt>
      <trkpt lat="43.87933" lon="7.44631">
        <ele>381</ele>
        <time>2021-02-20T09:53:20.000Z</time>
      </trkpt>
      <trkpt lat="43.87943" lon="7.44622">
        <ele>382.39999389648</ele>
        <time>2021-02-20T09:53:23.000Z</time>
      </trkpt>
      <trkpt lat="43.87951" lon="7.44613">
        <ele>383.60000610352</ele>
        <time>2021-02-20T09:53:26.000Z</time>
      </trkpt>
      <trkpt lat="43.87954" lon="7.44612">
        <ele>384</ele>
        <time>2021-02-20T09:53:27.000Z</time>
      </trkpt>
      <trkpt lat="43.87957" lon="7.44614">
        <ele>384.60000610352</ele>
        <time>2021-02-20T09:53:28.000Z</time>
      </trkpt>
      <trkpt lat="43.87958" lon="7.44621">
        <ele>385.60000610352</ele>
        <time>2021-02-20T09:53:30.000Z</time>
      </trkpt>
      <trkpt lat="43.8795" lon="7.44625">
        <ele>386.79998779297</ele>
        <time>2021-02-20T09:53:33.000Z</time>
      </trkpt>
      <trkpt lat="43.87942" lon="7.44636">
        <ele>388</ele>
        <time>2021-02-20T09:53:37.000Z</time>
      </trkpt>
      <trkpt lat="43.87941" lon="7.44638">
        <ele>388.39999389648</ele>
        <time>2021-02-20T09:53:38.000Z</time>
      </trkpt>
      <trkpt lat="43.8794" lon="7.44641">
        <ele>388.60000610352</ele>
        <time>2021-02-20T09:53:39.000Z</time>
      </trkpt>
      <trkpt lat="43.87936" lon="7.44645">
        <ele>389.20001220703</ele>
        <time>2021-02-20T09:53:41.000Z</time>
      </trkpt>
      <trkpt lat="43.87931" lon="7.44649">
        <ele>389.79998779297</ele>
        <time>2021-02-20T09:53:43.000Z</time>
      </trkpt>
      <trkpt lat="43.87929" lon="7.44653">
        <ele>390.39999389648</ele>
        <time>2021-02-20T09:53:45.000Z</time>
      </trkpt>
      <trkpt lat="43.87925" lon="7.44665">
        <ele>391.60000610352</ele>
        <time>2021-02-20T09:53:49.000Z</time>
      </trkpt>
      <trkpt lat="43.87923" lon="7.44679">
        <ele>392.79998779297</ele>
        <time>2021-02-20T09:53:54.000Z</time>
      </trkpt>
      <trkpt lat="43.87923" lon="7.44682">
        <ele>393.20001220703</ele>
        <time>2021-02-20T09:53:55.000Z</time>
      </trkpt>
      <trkpt lat="43.87922" lon="7.44695">
        <ele>393.79998779297</ele>
        <time>2021-02-20T09:53:59.000Z</time>
      </trkpt>
      <trkpt lat="43.87921" lon="7.44705">
        <ele>394.39999389648</ele>
        <time>2021-02-20T09:54:02.000Z</time>
      </trkpt>
      <trkpt lat="43.87921" lon="7.44712">
        <ele>395</ele>
        <time>2021-02-20T09:54:04.000Z</time>
      </trkpt>
      <trkpt lat="43.87922" lon="7.44726">
        <ele>395.60000610352</ele>
        <time>2021-02-20T09:54:08.000Z</time>
      </trkpt>
      <trkpt lat="43.87922" lon="7.44733">
        <ele>396</ele>
        <time>2021-02-20T09:54:10.000Z</time>
      </trkpt>
      <trkpt lat="43.87919" lon="7.4475">
        <ele>396.79998779297</ele>
        <time>2021-02-20T09:54:15.000Z</time>
      </trkpt>
      <trkpt lat="43.87918" lon="7.44756">
        <ele>397</ele>
        <time>2021-02-20T09:54:17.000Z</time>
      </trkpt>
      <trkpt lat="43.87918" lon="7.44761">
        <ele>397.20001220703</ele>
        <time>2021-02-20T09:54:19.000Z</time>
      </trkpt>
      <trkpt lat="43.87918" lon="7.44763">
        <ele>397.20001220703</ele>
        <time>2021-02-20T09:54:20.000Z</time>
      </trkpt>
      <trkpt lat="43.87921" lon="7.44769">
        <ele>398</ele>
        <time>2021-02-20T09:54:24.000Z</time>
      </trkpt>
      <trkpt lat="43.87922" lon="7.4477">
        <ele>398.20001220703</ele>
        <time>2021-02-20T09:54:25.000Z</time>
      </trkpt>
      <trkpt lat="43.87923" lon="7.44771">
        <ele>398.79998779297</ele>
        <time>2021-02-20T09:54:31.000Z</time>
      </trkpt>
      <trkpt lat="43.87925" lon="7.44772">
        <ele>398.79998779297</ele>
        <time>2021-02-20T09:54:37.000Z</time>
      </trkpt>
      <trkpt lat="43.87927" lon="7.44772">
        <ele>398.79998779297</ele>
        <time>2021-02-20T09:54:38.000Z</time>
      </trkpt>
      <trkpt lat="43.87935" lon="7.44767">
        <ele>398.60000610352</ele>
        <time>2021-02-20T09:54:42.000Z</time>
      </trkpt>
      <trkpt lat="43.87939" lon="7.44764">
        <ele>398.79998779297</ele>
        <time>2021-02-20T09:54:44.000Z</time>
      </trkpt>
      <trkpt lat="43.87943" lon="7.44761">
        <ele>399.20001220703</ele>
        <time>2021-02-20T09:54:46.000Z</time>
      </trkpt>
      <trkpt lat="43.87948" lon="7.44754">
        <ele>400.20001220703</ele>
        <time>2021-02-20T09:54:49.000Z</time>
      </trkpt>
      <trkpt lat="43.87953" lon="7.44748">
        <ele>401.39999389648</ele>
        <time>2021-02-20T09:54:52.000Z</time>
      </trkpt>
      <trkpt lat="43.87955" lon="7.44746">
        <ele>401.60000610352</ele>
        <time>2021-02-20T09:54:53.000Z</time>
      </trkpt>
      <trkpt lat="43.87961" lon="7.44743">
        <ele>402.60000610352</ele>
        <time>2021-02-20T09:54:56.000Z</time>
      </trkpt>
      <trkpt lat="43.87965" lon="7.44737">
        <ele>404</ele>
        <time>2021-02-20T09:54:59.000Z</time>
      </trkpt>
      <trkpt lat="43.8797" lon="7.44732">
        <ele>405.20001220703</ele>
        <time>2021-02-20T09:55:02.000Z</time>
      </trkpt>
      <trkpt lat="43.87978" lon="7.44727">
        <ele>406.39999389648</ele>
        <time>2021-02-20T09:55:06.000Z</time>
      </trkpt>
      <trkpt lat="43.87983" lon="7.44722">
        <ele>407.60000610352</ele>
        <time>2021-02-20T09:55:09.000Z</time>
      </trkpt>
      <trkpt lat="43.87988" lon="7.44717">
        <ele>408.60000610352</ele>
        <time>2021-02-20T09:55:12.000Z</time>
      </trkpt>
      <trkpt lat="43.8799" lon="7.44715">
        <ele>409</ele>
        <time>2021-02-20T09:55:13.000Z</time>
      </trkpt>
      <trkpt lat="43.87993" lon="7.44712">
        <ele>409.79998779297</ele>
        <time>2021-02-20T09:55:15.000Z</time>
      </trkpt>
      <trkpt lat="43.87998" lon="7.44707">
        <ele>411</ele>
        <time>2021-02-20T09:55:18.000Z</time>
      </trkpt>
      <trkpt lat="43.88005" lon="7.447">
        <ele>412.20001220703</ele>
        <time>2021-02-20T09:55:22.000Z</time>
      </trkpt>
      <trkpt lat="43.88011" lon="7.44694">
        <ele>413.20001220703</ele>
        <time>2021-02-20T09:55:26.000Z</time>
      </trkpt>
      <trkpt lat="43.88018" lon="7.44688">
        <ele>414.20001220703</ele>
        <time>2021-02-20T09:55:30.000Z</time>
      </trkpt>
      <trkpt lat="43.88025" lon="7.44681">
        <ele>415.60000610352</ele>
        <time>2021-02-20T09:55:34.000Z</time>
      </trkpt>
      <trkpt lat="43.88033" lon="7.44676">
        <ele>416.60000610352</ele>
        <time>2021-02-20T09:55:38.000Z</time>
      </trkpt>
      <trkpt lat="43.88037" lon="7.44673">
        <ele>417.20001220703</ele>
        <time>2021-02-20T09:55:40.000Z</time>
      </trkpt>
      <trkpt lat="43.88041" lon="7.44671">
        <ele>417.60000610352</ele>
        <time>2021-02-20T09:55:42.000Z</time>
      </trkpt>
      <trkpt lat="43.88049" lon="7.44664">
        <ele>418.60000610352</ele>
        <time>2021-02-20T09:55:47.000Z</time>
      </trkpt>
      <trkpt lat="43.88051" lon="7.44663">
        <ele>418.79998779297</ele>
        <time>2021-02-20T09:55:48.000Z</time>
      </trkpt>
      <trkpt lat="43.88057" lon="7.44656">
        <ele>419.79998779297</ele>
        <time>2021-02-20T09:55:52.000Z</time>
      </trkpt>
      <trkpt lat="43.88063" lon="7.44648">
        <ele>420.79998779297</ele>
        <time>2021-02-20T09:55:56.000Z</time>
      </trkpt>
      <trkpt lat="43.88071" lon="7.4464">
        <ele>422</ele>
        <time>2021-02-20T09:56:01.000Z</time>
      </trkpt>
      <trkpt lat="43.88075" lon="7.44634">
        <ele>422.60000610352</ele>
        <time>2021-02-20T09:56:04.000Z</time>
      </trkpt>
      <trkpt lat="43.88078" lon="7.4463">
        <ele>423.39999389648</ele>
        <time>2021-02-20T09:56:06.000Z</time>
      </trkpt>
      <trkpt lat="43.88081" lon="7.44623">
        <ele>424.39999389648</ele>
        <time>2021-02-20T09:56:09.000Z</time>
      </trkpt>
      <trkpt lat="43.88083" lon="7.44618">
        <ele>425</ele>
        <time>2021-02-20T09:56:11.000Z</time>
      </trkpt>
      <trkpt lat="43.88085" lon="7.44613">
        <ele>425.60000610352</ele>
        <time>2021-02-20T09:56:13.000Z</time>
      </trkpt>
      <trkpt lat="43.88089" lon="7.44603">
        <ele>426.79998779297</ele>
        <time>2021-02-20T09:56:17.000Z</time>
      </trkpt>
      <trkpt lat="43.88091" lon="7.44601">
        <ele>427.39999389648</ele>
        <time>2021-02-20T09:56:18.000Z</time>
      </trkpt>
      <trkpt lat="43.88093" lon="7.44597">
        <ele>428</ele>
        <time>2021-02-20T09:56:20.000Z</time>
      </trkpt>
      <trkpt lat="43.88102" lon="7.44587">
        <ele>429</ele>
        <time>2021-02-20T09:56:25.000Z</time>
      </trkpt>
      <trkpt lat="43.88105" lon="7.44582">
        <ele>429.60000610352</ele>
        <time>2021-02-20T09:56:27.000Z</time>
      </trkpt>
      <trkpt lat="43.88109" lon="7.44578">
        <ele>430.20001220703</ele>
        <time>2021-02-20T09:56:29.000Z</time>
      </trkpt>
      <trkpt lat="43.8812" lon="7.44567">
        <ele>431.20001220703</ele>
        <time>2021-02-20T09:56:35.000Z</time>
      </trkpt>
      <trkpt lat="43.88123" lon="7.44562">
        <ele>431.60000610352</ele>
        <time>2021-02-20T09:56:37.000Z</time>
      </trkpt>
      <trkpt lat="43.88129" lon="7.44553">
        <ele>432.20001220703</ele>
        <time>2021-02-20T09:56:41.000Z</time>
      </trkpt>
      <trkpt lat="43.88132" lon="7.44549">
        <ele>432.79998779297</ele>
        <time>2021-02-20T09:56:44.000Z</time>
      </trkpt>
      <trkpt lat="43.88131" lon="7.44548">
        <ele>433.20001220703</ele>
        <time>2021-02-20T09:56:46.000Z</time>
      </trkpt>
      <trkpt lat="43.88131" lon="7.44548">
        <ele>433.60000610352</ele>
        <time>2021-02-20T09:56:48.000Z</time>
      </trkpt>
      <trkpt lat="43.88132" lon="7.44547">
        <ele>433.60000610352</ele>
        <time>2021-02-20T09:56:54.000Z</time>
      </trkpt>
      <trkpt lat="43.88134" lon="7.44545">
        <ele>433.60000610352</ele>
        <time>2021-02-20T09:57:02.000Z</time>
      </trkpt>
      <trkpt lat="43.88135" lon="7.44544">
        <ele>433.60000610352</ele>
        <time>2021-02-20T09:57:03.000Z</time>
      </trkpt>
      <trkpt lat="43.88141" lon="7.44538">
        <ele>433.60000610352</ele>
        <time>2021-02-20T09:57:07.000Z</time>
      </trkpt>
      <trkpt lat="43.88143" lon="7.44537">
        <ele>433.79998779297</ele>
        <time>2021-02-20T09:57:08.000Z</time>
      </trkpt>
      <trkpt lat="43.88151" lon="7.44533">
        <ele>434.39999389648</ele>
        <time>2021-02-20T09:57:12.000Z</time>
      </trkpt>
      <trkpt lat="43.88159" lon="7.4453">
        <ele>434.79998779297</ele>
        <time>2021-02-20T09:57:16.000Z</time>
      </trkpt>
      <trkpt lat="43.88166" lon="7.44529">
        <ele>435.39999389648</ele>
        <time>2021-02-20T09:57:19.000Z</time>
      </trkpt>
      <trkpt lat="43.88177" lon="7.44528">
        <ele>436.39999389648</ele>
        <time>2021-02-20T09:57:24.000Z</time>
      </trkpt>
      <trkpt lat="43.88183" lon="7.44527">
        <ele>437</ele>
        <time>2021-02-20T09:57:27.000Z</time>
      </trkpt>
      <trkpt lat="43.88186" lon="7.44526">
        <ele>437.60000610352</ele>
        <time>2021-02-20T09:57:29.000Z</time>
      </trkpt>
      <trkpt lat="43.88196" lon="7.44523">
        <ele>438.60000610352</ele>
        <time>2021-02-20T09:57:34.000Z</time>
      </trkpt>
      <trkpt lat="43.88198" lon="7.44522">
        <ele>438.79998779297</ele>
        <time>2021-02-20T09:57:35.000Z</time>
      </trkpt>
      <trkpt lat="43.88207" lon="7.44517">
        <ele>440</ele>
        <time>2021-02-20T09:57:40.000Z</time>
      </trkpt>
      <trkpt lat="43.8821" lon="7.44516">
        <ele>440.39999389648</ele>
        <time>2021-02-20T09:57:42.000Z</time>
      </trkpt>
      <trkpt lat="43.88216" lon="7.44513">
        <ele>441.20001220703</ele>
        <time>2021-02-20T09:57:45.000Z</time>
      </trkpt>
      <trkpt lat="43.88224" lon="7.44508">
        <ele>442.20001220703</ele>
        <time>2021-02-20T09:57:50.000Z</time>
      </trkpt>
      <trkpt lat="43.88231" lon="7.44502">
        <ele>443.20001220703</ele>
        <time>2021-02-20T09:57:55.000Z</time>
      </trkpt>
      <trkpt lat="43.88235" lon="7.44501">
        <ele>443.60000610352</ele>
        <time>2021-02-20T09:57:57.000Z</time>
      </trkpt>
      <trkpt lat="43.88243" lon="7.44505">
        <ele>444.20001220703</ele>
        <time>2021-02-20T09:58:01.000Z</time>
      </trkpt>
      <trkpt lat="43.88245" lon="7.44506">
        <ele>444.39999389648</ele>
        <time>2021-02-20T09:58:02.000Z</time>
      </trkpt>
      <trkpt lat="43.88254" lon="7.44508">
        <ele>445.39999389648</ele>
        <time>2021-02-20T09:58:07.000Z</time>
      </trkpt>
      <trkpt lat="43.88256" lon="7.44508">
        <ele>445.60000610352</ele>
        <time>2021-02-20T09:58:08.000Z</time>
      </trkpt>
      <trkpt lat="43.88261" lon="7.44509">
        <ele>446.39999389648</ele>
        <time>2021-02-20T09:58:11.000Z</time>
      </trkpt>
      <trkpt lat="43.88265" lon="7.44511">
        <ele>447.39999389648</ele>
        <time>2021-02-20T09:58:14.000Z</time>
      </trkpt>
      <trkpt lat="43.88267" lon="7.44511">
        <ele>447.60000610352</ele>
        <time>2021-02-20T09:58:15.000Z</time>
      </trkpt>
      <trkpt lat="43.88275" lon="7.44514">
        <ele>448.60000610352</ele>
        <time>2021-02-20T09:58:20.000Z</time>
      </trkpt>
      <trkpt lat="43.88277" lon="7.44515">
        <ele>448.79998779297</ele>
        <time>2021-02-20T09:58:21.000Z</time>
      </trkpt>
      <trkpt lat="43.88288" lon="7.44519">
        <ele>449.79998779297</ele>
        <time>2021-02-20T09:58:27.000Z</time>
      </trkpt>
      <trkpt lat="43.8829" lon="7.4452">
        <ele>449.79998779297</ele>
        <time>2021-02-20T09:58:28.000Z</time>
      </trkpt>
      <trkpt lat="43.88302" lon="7.44526">
        <ele>450.39999389648</ele>
        <time>2021-02-20T09:58:34.000Z</time>
      </trkpt>
      <trkpt lat="43.88306" lon="7.44527">
        <ele>450.79998779297</ele>
        <time>2021-02-20T09:58:36.000Z</time>
      </trkpt>
      <trkpt lat="43.88318" lon="7.44531">
        <ele>451.20001220703</ele>
        <time>2021-02-20T09:58:41.000Z</time>
      </trkpt>
      <trkpt lat="43.88331" lon="7.44535">
        <ele>451.79998779297</ele>
        <time>2021-02-20T09:58:47.000Z</time>
      </trkpt>
      <trkpt lat="43.88333" lon="7.44535">
        <ele>452</ele>
        <time>2021-02-20T09:58:48.000Z</time>
      </trkpt>
      <trkpt lat="43.88344" lon="7.44537">
        <ele>453.20001220703</ele>
        <time>2021-02-20T09:58:53.000Z</time>
      </trkpt>
      <trkpt lat="43.88351" lon="7.44539">
        <ele>453.39999389648</ele>
        <time>2021-02-20T09:58:56.000Z</time>
      </trkpt>
      <trkpt lat="43.8836" lon="7.44544">
        <ele>454.20001220703</ele>
        <time>2021-02-20T09:59:01.000Z</time>
      </trkpt>
      <trkpt lat="43.88362" lon="7.44545">
        <ele>454.39999389648</ele>
        <time>2021-02-20T09:59:02.000Z</time>
      </trkpt>
      <trkpt lat="43.88366" lon="7.44548">
        <ele>455.20001220703</ele>
        <time>2021-02-20T09:59:05.000Z</time>
      </trkpt>
      <trkpt lat="43.88371" lon="7.44551">
        <ele>456</ele>
        <time>2021-02-20T09:59:08.000Z</time>
      </trkpt>
      <trkpt lat="43.88373" lon="7.44551">
        <ele>456.39999389648</ele>
        <time>2021-02-20T09:59:09.000Z</time>
      </trkpt>
      <trkpt lat="43.88379" lon="7.44554">
        <ele>457.60000610352</ele>
        <time>2021-02-20T09:59:13.000Z</time>
      </trkpt>
      <trkpt lat="43.88382" lon="7.44555">
        <ele>458</ele>
        <time>2021-02-20T09:59:15.000Z</time>
      </trkpt>
      <trkpt lat="43.88384" lon="7.44555">
        <ele>458.39999389648</ele>
        <time>2021-02-20T09:59:16.000Z</time>
      </trkpt>
      <trkpt lat="43.88386" lon="7.44555">
        <ele>458.79998779297</ele>
        <time>2021-02-20T09:59:17.000Z</time>
      </trkpt>
      <trkpt lat="43.88388" lon="7.44552">
        <ele>459.20001220703</ele>
        <time>2021-02-20T09:59:19.000Z</time>
      </trkpt>
      <trkpt lat="43.88391" lon="7.44548">
        <ele>459.79998779297</ele>
        <time>2021-02-20T09:59:21.000Z</time>
      </trkpt>
      <trkpt lat="43.88391" lon="7.44544">
        <ele>460.39999389648</ele>
        <time>2021-02-20T09:59:23.000Z</time>
      </trkpt>
      <trkpt lat="43.88392" lon="7.44539">
        <ele>461</ele>
        <time>2021-02-20T09:59:25.000Z</time>
      </trkpt>
      <trkpt lat="43.88395" lon="7.44529">
        <ele>462.20001220703</ele>
        <time>2021-02-20T09:59:29.000Z</time>
      </trkpt>
      <trkpt lat="43.88397" lon="7.44521">
        <ele>462.79998779297</ele>
        <time>2021-02-20T09:59:32.000Z</time>
      </trkpt>
      <trkpt lat="43.88397" lon="7.44515">
        <ele>463.39999389648</ele>
        <time>2021-02-20T09:59:34.000Z</time>
      </trkpt>
      <trkpt lat="43.88398" lon="7.44501">
        <ele>464.39999389648</ele>
        <time>2021-02-20T09:59:39.000Z</time>
      </trkpt>
      <trkpt lat="43.88398" lon="7.44493">
        <ele>465.60000610352</ele>
        <time>2021-02-20T09:59:42.000Z</time>
      </trkpt>
      <trkpt lat="43.88397" lon="7.44486">
        <ele>466.60000610352</ele>
        <time>2021-02-20T09:59:45.000Z</time>
      </trkpt>
      <trkpt lat="43.88398" lon="7.44483">
        <ele>466.79998779297</ele>
        <time>2021-02-20T09:59:46.000Z</time>
      </trkpt>
      <trkpt lat="43.88398" lon="7.44471">
        <ele>467.79998779297</ele>
        <time>2021-02-20T09:59:50.000Z</time>
      </trkpt>
      <trkpt lat="43.88399" lon="7.44466">
        <ele>468.60000610352</ele>
        <time>2021-02-20T09:59:52.000Z</time>
      </trkpt>
      <trkpt lat="43.88399" lon="7.44463">
        <ele>468.79998779297</ele>
        <time>2021-02-20T09:59:53.000Z</time>
      </trkpt>
      <trkpt lat="43.88399" lon="7.4446">
        <ele>469.20001220703</ele>
        <time>2021-02-20T09:59:54.000Z</time>
      </trkpt>
      <trkpt lat="43.88397" lon="7.44456">
        <ele>469.60000610352</ele>
        <time>2021-02-20T09:59:56.000Z</time>
      </trkpt>
      <trkpt lat="43.88396" lon="7.44453">
        <ele>469.60000610352</ele>
        <time>2021-02-20T09:59:57.000Z</time>
      </trkpt>
      <trkpt lat="43.88395" lon="7.44448">
        <ele>470.20001220703</ele>
        <time>2021-02-20T09:59:59.000Z</time>
      </trkpt>
      <trkpt lat="43.88392" lon="7.44441">
        <ele>471.39999389648</ele>
        <time>2021-02-20T10:00:02.000Z</time>
      </trkpt>
      <trkpt lat="43.88391" lon="7.44436">
        <ele>472</ele>
        <time>2021-02-20T10:00:04.000Z</time>
      </trkpt>
      <trkpt lat="43.8839" lon="7.44435">
        <ele>472.39999389648</ele>
        <time>2021-02-20T10:00:05.000Z</time>
      </trkpt>
      <trkpt lat="43.88386" lon="7.44425">
        <ele>473.60000610352</ele>
        <time>2021-02-20T10:00:09.000Z</time>
      </trkpt>
      <trkpt lat="43.88386" lon="7.44419">
        <ele>473.79998779297</ele>
        <time>2021-02-20T10:00:11.000Z</time>
      </trkpt>
      <trkpt lat="43.8839" lon="7.4441">
        <ele>474.79998779297</ele>
        <time>2021-02-20T10:00:15.000Z</time>
      </trkpt>
      <trkpt lat="43.88392" lon="7.44408">
        <ele>475</ele>
        <time>2021-02-20T10:00:16.000Z</time>
      </trkpt>
      <trkpt lat="43.88398" lon="7.44402">
        <ele>475.79998779297</ele>
        <time>2021-02-20T10:00:20.000Z</time>
      </trkpt>
      <trkpt lat="43.88405" lon="7.44397">
        <ele>477</ele>
        <time>2021-02-20T10:00:24.000Z</time>
      </trkpt>
      <trkpt lat="43.88417" lon="7.44396">
        <ele>478.20001220703</ele>
        <time>2021-02-20T10:00:30.000Z</time>
      </trkpt>
      <trkpt lat="43.88419" lon="7.44396">
        <ele>478.39999389648</ele>
        <time>2021-02-20T10:00:31.000Z</time>
      </trkpt>
      <trkpt lat="43.88425" lon="7.44395">
        <ele>479.39999389648</ele>
        <time>2021-02-20T10:00:34.000Z</time>
      </trkpt>
      <trkpt lat="43.88436" lon="7.44395">
        <ele>480.39999389648</ele>
        <time>2021-02-20T10:00:39.000Z</time>
      </trkpt>
      <trkpt lat="43.88438" lon="7.44395">
        <ele>480.60000610352</ele>
        <time>2021-02-20T10:00:40.000Z</time>
      </trkpt>
      <trkpt lat="43.88448" lon="7.44395">
        <ele>481.79998779297</ele>
        <time>2021-02-20T10:00:45.000Z</time>
      </trkpt>
      <trkpt lat="43.88457" lon="7.44393">
        <ele>483</ele>
        <time>2021-02-20T10:00:50.000Z</time>
      </trkpt>
      <trkpt lat="43.88459" lon="7.44393">
        <ele>483.20001220703</ele>
        <time>2021-02-20T10:00:51.000Z</time>
      </trkpt>
      <trkpt lat="43.88468" lon="7.44388">
        <ele>484</ele>
        <time>2021-02-20T10:00:55.000Z</time>
      </trkpt>
      <trkpt lat="43.88475" lon="7.44386">
        <ele>484.60000610352</ele>
        <time>2021-02-20T10:00:58.000Z</time>
      </trkpt>
      <trkpt lat="43.88481" lon="7.44385">
        <ele>485.20001220703</ele>
        <time>2021-02-20T10:01:01.000Z</time>
      </trkpt>
      <trkpt lat="43.88489" lon="7.44384">
        <ele>486.20001220703</ele>
        <time>2021-02-20T10:01:05.000Z</time>
      </trkpt>
      <trkpt lat="43.88491" lon="7.44384">
        <ele>486.20001220703</ele>
        <time>2021-02-20T10:01:06.000Z</time>
      </trkpt>
      <trkpt lat="43.88498" lon="7.44383">
        <ele>487.20001220703</ele>
        <time>2021-02-20T10:01:09.000Z</time>
      </trkpt>
      <trkpt lat="43.88504" lon="7.44381">
        <ele>488.39999389648</ele>
        <time>2021-02-20T10:01:12.000Z</time>
      </trkpt>
      <trkpt lat="43.88514" lon="7.44379">
        <ele>489.60000610352</ele>
        <time>2021-02-20T10:01:17.000Z</time>
      </trkpt>
      <trkpt lat="43.88523" lon="7.44379">
        <ele>490.60000610352</ele>
        <time>2021-02-20T10:01:21.000Z</time>
      </trkpt>
      <trkpt lat="43.88525" lon="7.4438">
        <ele>490.79998779297</ele>
        <time>2021-02-20T10:01:22.000Z</time>
      </trkpt>
      <trkpt lat="43.88536" lon="7.4438">
        <ele>491.79998779297</ele>
        <time>2021-02-20T10:01:27.000Z</time>
      </trkpt>
      <trkpt lat="43.88539" lon="7.4438">
        <ele>492</ele>
        <time>2021-02-20T10:01:29.000Z</time>
      </trkpt>
      <trkpt lat="43.88546" lon="7.44381">
        <ele>493</ele>
        <time>2021-02-20T10:01:32.000Z</time>
      </trkpt>
      <trkpt lat="43.88554" lon="7.44381">
        <ele>494</ele>
        <time>2021-02-20T10:01:36.000Z</time>
      </trkpt>
      <trkpt lat="43.88559" lon="7.44382">
        <ele>494.60000610352</ele>
        <time>2021-02-20T10:01:39.000Z</time>
      </trkpt>
      <trkpt lat="43.88561" lon="7.44385">
        <ele>495</ele>
        <time>2021-02-20T10:01:41.000Z</time>
      </trkpt>
      <trkpt lat="43.88569" lon="7.44392">
        <ele>496.20001220703</ele>
        <time>2021-02-20T10:01:46.000Z</time>
      </trkpt>
      <trkpt lat="43.88583" lon="7.44394">
        <ele>497.20001220703</ele>
        <time>2021-02-20T10:01:52.000Z</time>
      </trkpt>
      <trkpt lat="43.88592" lon="7.44397">
        <ele>498.20001220703</ele>
        <time>2021-02-20T10:01:57.000Z</time>
      </trkpt>
      <trkpt lat="43.88594" lon="7.44397">
        <ele>498.39999389648</ele>
        <time>2021-02-20T10:01:58.000Z</time>
      </trkpt>
      <trkpt lat="43.886" lon="7.44397">
        <ele>499.20001220703</ele>
        <time>2021-02-20T10:02:01.000Z</time>
      </trkpt>
      <trkpt lat="43.88606" lon="7.44398">
        <ele>500</ele>
        <time>2021-02-20T10:02:04.000Z</time>
      </trkpt>
      <trkpt lat="43.88609" lon="7.444">
        <ele>500.39999389648</ele>
        <time>2021-02-20T10:02:06.000Z</time>
      </trkpt>
      <trkpt lat="43.88611" lon="7.44402">
        <ele>500.60000610352</ele>
        <time>2021-02-20T10:02:07.000Z</time>
      </trkpt>
      <trkpt lat="43.88615" lon="7.44404">
        <ele>501.39999389648</ele>
        <time>2021-02-20T10:02:10.000Z</time>
      </trkpt>
      <trkpt lat="43.88616" lon="7.44404">
        <ele>501.39999389648</ele>
        <time>2021-02-20T10:02:11.000Z</time>
      </trkpt>
      <trkpt lat="43.8862" lon="7.44405">
        <ele>502</ele>
        <time>2021-02-20T10:02:14.000Z</time>
      </trkpt>
      <trkpt lat="43.88623" lon="7.44406">
        <ele>502.60000610352</ele>
        <time>2021-02-20T10:02:16.000Z</time>
      </trkpt>
      <trkpt lat="43.88632" lon="7.44408">
        <ele>503.39999389648</ele>
        <time>2021-02-20T10:02:21.000Z</time>
      </trkpt>
      <trkpt lat="43.88638" lon="7.4441">
        <ele>503.79998779297</ele>
        <time>2021-02-20T10:02:25.000Z</time>
      </trkpt>
      <trkpt lat="43.88644" lon="7.44412">
        <ele>504.79998779297</ele>
        <time>2021-02-20T10:02:28.000Z</time>
      </trkpt>
      <trkpt lat="43.88644" lon="7.44412">
        <ele>505</ele>
        <time>2021-02-20T10:02:29.000Z</time>
      </trkpt>
      <trkpt lat="43.88654" lon="7.44414">
        <ele>506</ele>
        <time>2021-02-20T10:02:33.000Z</time>
      </trkpt>
      <trkpt lat="43.88656" lon="7.44414">
        <ele>506.20001220703</ele>
        <time>2021-02-20T10:02:34.000Z</time>
      </trkpt>
      <trkpt lat="43.88664" lon="7.44413">
        <ele>507.20001220703</ele>
        <time>2021-02-20T10:02:38.000Z</time>
      </trkpt>
      <trkpt lat="43.88665" lon="7.44413">
        <ele>507.39999389648</ele>
        <time>2021-02-20T10:02:39.000Z</time>
      </trkpt>
      <trkpt lat="43.88671" lon="7.44412">
        <ele>508.39999389648</ele>
        <time>2021-02-20T10:02:43.000Z</time>
      </trkpt>
      <trkpt lat="43.88671" lon="7.44412">
        <ele>509</ele>
        <time>2021-02-20T10:02:44.000Z</time>
      </trkpt>
      <trkpt lat="43.88673" lon="7.44412">
        <ele>509.39999389648</ele>
        <time>2021-02-20T10:02:46.000Z</time>
      </trkpt>
      <trkpt lat="43.88676" lon="7.44411">
        <ele>510</ele>
        <time>2021-02-20T10:02:48.000Z</time>
      </trkpt>
      <trkpt lat="43.88684" lon="7.44405">
        <ele>510.20001220703</ele>
        <time>2021-02-20T10:02:53.000Z</time>
      </trkpt>
      <trkpt lat="43.88687" lon="7.44405">
        <ele>510.39999389648</ele>
        <time>2021-02-20T10:02:54.000Z</time>
      </trkpt>
      <trkpt lat="43.88693" lon="7.44402">
        <ele>511.60000610352</ele>
        <time>2021-02-20T10:02:58.000Z</time>
      </trkpt>
      <trkpt lat="43.88695" lon="7.44401">
        <ele>512</ele>
        <time>2021-02-20T10:02:59.000Z</time>
      </trkpt>
      <trkpt lat="43.88699" lon="7.44399">
        <ele>512.59997558594</ele>
        <time>2021-02-20T10:03:01.000Z</time>
      </trkpt>
      <trkpt lat="43.88705" lon="7.444">
        <ele>513.40002441406</ele>
        <time>2021-02-20T10:03:04.000Z</time>
      </trkpt>
      <trkpt lat="43.88703" lon="7.444">
        <ele>513.79998779297</ele>
        <time>2021-02-20T10:03:05.000Z</time>
      </trkpt>
      <trkpt lat="43.88705" lon="7.444">
        <ele>514.40002441406</ele>
        <time>2021-02-20T10:03:07.000Z</time>
      </trkpt>
      <trkpt lat="43.88705" lon="7.444">
        <ele>514.79998779297</ele>
        <time>2021-02-20T10:03:09.000Z</time>
      </trkpt>
      <trkpt lat="43.88708" lon="7.44401">
        <ele>514.79998779297</ele>
        <time>2021-02-20T10:03:13.000Z</time>
      </trkpt>
      <trkpt lat="43.88716" lon="7.44403">
        <ele>515.40002441406</ele>
        <time>2021-02-20T10:03:19.000Z</time>
      </trkpt>
      <trkpt lat="43.8872" lon="7.44403">
        <ele>516</ele>
        <time>2021-02-20T10:03:22.000Z</time>
      </trkpt>
      <trkpt lat="43.88725" lon="7.44404">
        <ele>516.79998779297</ele>
        <time>2021-02-20T10:03:25.000Z</time>
      </trkpt>
      <trkpt lat="43.88726" lon="7.44406">
        <ele>517</ele>
        <time>2021-02-20T10:03:26.000Z</time>
      </trkpt>
      <trkpt lat="43.88726" lon="7.44409">
        <ele>517.40002441406</ele>
        <time>2021-02-20T10:03:27.000Z</time>
      </trkpt>
      <trkpt lat="43.88723" lon="7.4441">
        <ele>517.59997558594</ele>
        <time>2021-02-20T10:03:28.000Z</time>
      </trkpt>
      <trkpt lat="43.88718" lon="7.4441">
        <ele>518.20001220703</ele>
        <time>2021-02-20T10:03:31.000Z</time>
      </trkpt>
      <trkpt lat="43.88717" lon="7.44409">
        <ele>518.40002441406</ele>
        <time>2021-02-20T10:03:32.000Z</time>
      </trkpt>
      <trkpt lat="43.88712" lon="7.44411">
        <ele>519.40002441406</ele>
        <time>2021-02-20T10:03:38.000Z</time>
      </trkpt>
      <trkpt lat="43.88711" lon="7.44412">
        <ele>519.59997558594</ele>
        <time>2021-02-20T10:03:39.000Z</time>
      </trkpt>
      <trkpt lat="43.88705" lon="7.44414">
        <ele>520.59997558594</ele>
        <time>2021-02-20T10:03:44.000Z</time>
      </trkpt>
      <trkpt lat="43.88704" lon="7.44415">
        <ele>520.59997558594</ele>
        <time>2021-02-20T10:03:45.000Z</time>
      </trkpt>
      <trkpt lat="43.88695" lon="7.44417">
        <ele>521.79998779297</ele>
        <time>2021-02-20T10:03:50.000Z</time>
      </trkpt>
      <trkpt lat="43.88693" lon="7.44419">
        <ele>522.40002441406</ele>
        <time>2021-02-20T10:03:52.000Z</time>
      </trkpt>
      <trkpt lat="43.88696" lon="7.44422">
        <ele>522.79998779297</ele>
        <time>2021-02-20T10:03:55.000Z</time>
      </trkpt>
      <trkpt lat="43.88698" lon="7.44423">
        <ele>523</ele>
        <time>2021-02-20T10:03:56.000Z</time>
      </trkpt>
      <trkpt lat="43.88704" lon="7.44419">
        <ele>523.59997558594</ele>
        <time>2021-02-20T10:04:00.000Z</time>
      </trkpt>
      <trkpt lat="43.88707" lon="7.44421">
        <ele>524</ele>
        <time>2021-02-20T10:04:02.000Z</time>
      </trkpt>
      <trkpt lat="43.88709" lon="7.44421">
        <ele>524.40002441406</ele>
        <time>2021-02-20T10:04:04.000Z</time>
      </trkpt>
      <trkpt lat="43.8871" lon="7.44421">
        <ele>524.59997558594</ele>
        <time>2021-02-20T10:04:06.000Z</time>
      </trkpt>
      <trkpt lat="43.88711" lon="7.44421">
        <ele>525</ele>
        <time>2021-02-20T10:04:09.000Z</time>
      </trkpt>
      <trkpt lat="43.88712" lon="7.44422">
        <ele>525.40002441406</ele>
        <time>2021-02-20T10:04:12.000Z</time>
      </trkpt>
      <trkpt lat="43.88714" lon="7.44422">
        <ele>525.59997558594</ele>
        <time>2021-02-20T10:04:17.000Z</time>
      </trkpt>
      <trkpt lat="43.88721" lon="7.44426">
        <ele>525.59997558594</ele>
        <time>2021-02-20T10:04:22.000Z</time>
      </trkpt>
      <trkpt lat="43.88724" lon="7.44426">
        <ele>526</ele>
        <time>2021-02-20T10:04:24.000Z</time>
      </trkpt>
      <trkpt lat="43.88727" lon="7.44427">
        <ele>526.20001220703</ele>
        <time>2021-02-20T10:04:25.000Z</time>
      </trkpt>
      <trkpt lat="43.88728" lon="7.44428">
        <ele>526.59997558594</ele>
        <time>2021-02-20T10:04:26.000Z</time>
      </trkpt>
      <trkpt lat="43.88731" lon="7.4443">
        <ele>527.40002441406</ele>
        <time>2021-02-20T10:04:28.000Z</time>
      </trkpt>
      <trkpt lat="43.88736" lon="7.44435">
        <ele>528.20001220703</ele>
        <time>2021-02-20T10:04:32.000Z</time>
      </trkpt>
      <trkpt lat="43.8874" lon="7.44438">
        <ele>528.40002441406</ele>
        <time>2021-02-20T10:04:34.000Z</time>
      </trkpt>
      <trkpt lat="43.88745" lon="7.44444">
        <ele>529.20001220703</ele>
        <time>2021-02-20T10:04:38.000Z</time>
      </trkpt>
      <trkpt lat="43.88747" lon="7.44446">
        <ele>529.59997558594</ele>
        <time>2021-02-20T10:04:39.000Z</time>
      </trkpt>
      <trkpt lat="43.88756" lon="7.44452">
        <ele>530.59997558594</ele>
        <time>2021-02-20T10:04:44.000Z</time>
      </trkpt>
      <trkpt lat="43.88764" lon="7.44459">
        <ele>531.79998779297</ele>
        <time>2021-02-20T10:04:48.000Z</time>
      </trkpt>
      <trkpt lat="43.88767" lon="7.4446">
        <ele>532.20001220703</ele>
        <time>2021-02-20T10:04:50.000Z</time>
      </trkpt>
      <trkpt lat="43.88783" lon="7.44461">
        <ele>532.79998779297</ele>
        <time>2021-02-20T10:04:56.000Z</time>
      </trkpt>
      <trkpt lat="43.88803" lon="7.44465">
        <ele>533.20001220703</ele>
        <time>2021-02-20T10:05:03.000Z</time>
      </trkpt>
      <trkpt lat="43.88823" lon="7.44475">
        <ele>533.79998779297</ele>
        <time>2021-02-20T10:05:10.000Z</time>
      </trkpt>
      <trkpt lat="43.88838" lon="7.44481">
        <ele>534.79998779297</ele>
        <time>2021-02-20T10:05:16.000Z</time>
      </trkpt>
      <trkpt lat="43.88841" lon="7.44483">
        <ele>535</ele>
        <time>2021-02-20T10:05:17.000Z</time>
      </trkpt>
      <trkpt lat="43.88851" lon="7.44483">
        <ele>535.40002441406</ele>
        <time>2021-02-20T10:05:21.000Z</time>
      </trkpt>
      <trkpt lat="43.88859" lon="7.44483">
        <ele>536</ele>
        <time>2021-02-20T10:05:24.000Z</time>
      </trkpt>
      <trkpt lat="43.88871" lon="7.44486">
        <ele>537</ele>
        <time>2021-02-20T10:05:29.000Z</time>
      </trkpt>
      <trkpt lat="43.88884" lon="7.44492">
        <ele>537.79998779297</ele>
        <time>2021-02-20T10:05:34.000Z</time>
      </trkpt>
      <trkpt lat="43.88886" lon="7.44494">
        <ele>538</ele>
        <time>2021-02-20T10:05:35.000Z</time>
      </trkpt>
      <trkpt lat="43.88898" lon="7.44504">
        <ele>539.20001220703</ele>
        <time>2021-02-20T10:05:40.000Z</time>
      </trkpt>
      <trkpt lat="43.88906" lon="7.44514">
        <ele>540.40002441406</ele>
        <time>2021-02-20T10:05:44.000Z</time>
      </trkpt>
      <trkpt lat="43.88907" lon="7.44516">
        <ele>540.59997558594</ele>
        <time>2021-02-20T10:05:45.000Z</time>
      </trkpt>
      <trkpt lat="43.8891" lon="7.4452">
        <ele>541.40002441406</ele>
        <time>2021-02-20T10:05:47.000Z</time>
      </trkpt>
      <trkpt lat="43.88913" lon="7.44521">
        <ele>541.79998779297</ele>
        <time>2021-02-20T10:05:48.000Z</time>
      </trkpt>
      <trkpt lat="43.88917" lon="7.44518">
        <ele>542</ele>
        <time>2021-02-20T10:05:50.000Z</time>
      </trkpt>
      <trkpt lat="43.8892" lon="7.44512">
        <ele>542.59997558594</ele>
        <time>2021-02-20T10:05:52.000Z</time>
      </trkpt>
      <trkpt lat="43.88924" lon="7.44503">
        <ele>543.40002441406</ele>
        <time>2021-02-20T10:05:55.000Z</time>
      </trkpt>
      <trkpt lat="43.88925" lon="7.44496">
        <ele>543.79998779297</ele>
        <time>2021-02-20T10:05:57.000Z</time>
      </trkpt>
      <trkpt lat="43.88926" lon="7.44493">
        <ele>544.20001220703</ele>
        <time>2021-02-20T10:05:58.000Z</time>
      </trkpt>
      <trkpt lat="43.88929" lon="7.44489">
        <ele>544.59997558594</ele>
        <time>2021-02-20T10:06:00.000Z</time>
      </trkpt>
      <trkpt lat="43.88932" lon="7.44489">
        <ele>545</ele>
        <time>2021-02-20T10:06:01.000Z</time>
      </trkpt>
      <trkpt lat="43.88932" lon="7.44495">
        <ele>545.40002441406</ele>
        <time>2021-02-20T10:06:03.000Z</time>
      </trkpt>
      <trkpt lat="43.8893" lon="7.445">
        <ele>545.79998779297</ele>
        <time>2021-02-20T10:06:05.000Z</time>
      </trkpt>
      <trkpt lat="43.88929" lon="7.44503">
        <ele>546</ele>
        <time>2021-02-20T10:06:06.000Z</time>
      </trkpt>
      <trkpt lat="43.8893" lon="7.44504">
        <ele>546.20001220703</ele>
        <time>2021-02-20T10:06:07.000Z</time>
      </trkpt>
      <trkpt lat="43.88935" lon="7.44515">
        <ele>547.20001220703</ele>
        <time>2021-02-20T10:06:11.000Z</time>
      </trkpt>
      <trkpt lat="43.88939" lon="7.44524">
        <ele>548</ele>
        <time>2021-02-20T10:06:14.000Z</time>
      </trkpt>
      <trkpt lat="43.88939" lon="7.44528">
        <ele>548.40002441406</ele>
        <time>2021-02-20T10:06:15.000Z</time>
      </trkpt>
      <trkpt lat="43.88939" lon="7.44532">
        <ele>548.79998779297</ele>
        <time>2021-02-20T10:06:16.000Z</time>
      </trkpt>
      <trkpt lat="43.88939" lon="7.44542">
        <ele>549.79998779297</ele>
        <time>2021-02-20T10:06:19.000Z</time>
      </trkpt>
      <trkpt lat="43.8894" lon="7.44551">
        <ele>550.79998779297</ele>
        <time>2021-02-20T10:06:22.000Z</time>
      </trkpt>
      <trkpt lat="43.8894" lon="7.44559">
        <ele>552</ele>
        <time>2021-02-20T10:06:25.000Z</time>
      </trkpt>
      <trkpt lat="43.8894" lon="7.44569">
        <ele>553</ele>
        <time>2021-02-20T10:06:28.000Z</time>
      </trkpt>
      <trkpt lat="43.88939" lon="7.44571">
        <ele>553.20001220703</ele>
        <time>2021-02-20T10:06:29.000Z</time>
      </trkpt>
      <trkpt lat="43.88941" lon="7.44576">
        <ele>553.79998779297</ele>
        <time>2021-02-20T10:06:31.000Z</time>
      </trkpt>
      <trkpt lat="43.88944" lon="7.44573">
        <ele>554.40002441406</ele>
        <time>2021-02-20T10:06:33.000Z</time>
      </trkpt>
      <trkpt lat="43.88945" lon="7.44561">
        <ele>555.59997558594</ele>
        <time>2021-02-20T10:06:37.000Z</time>
      </trkpt>
      <trkpt lat="43.88948" lon="7.44549">
        <ele>556.79998779297</ele>
        <time>2021-02-20T10:06:41.000Z</time>
      </trkpt>
      <trkpt lat="43.88949" lon="7.44547">
        <ele>557.20001220703</ele>
        <time>2021-02-20T10:06:42.000Z</time>
      </trkpt>
      <trkpt lat="43.8895" lon="7.4454">
        <ele>557.79998779297</ele>
        <time>2021-02-20T10:06:44.000Z</time>
      </trkpt>
      <trkpt lat="43.88953" lon="7.44527">
        <ele>558.40002441406</ele>
        <time>2021-02-20T10:06:48.000Z</time>
      </trkpt>
      <trkpt lat="43.88954" lon="7.44522">
        <ele>559</ele>
        <time>2021-02-20T10:06:50.000Z</time>
      </trkpt>
      <trkpt lat="43.88955" lon="7.4452">
        <ele>559.40002441406</ele>
        <time>2021-02-20T10:06:51.000Z</time>
      </trkpt>
      <trkpt lat="43.88959" lon="7.44523">
        <ele>560.40002441406</ele>
        <time>2021-02-20T10:06:53.000Z</time>
      </trkpt>
      <trkpt lat="43.88956" lon="7.44534">
        <ele>561.20001220703</ele>
        <time>2021-02-20T10:06:56.000Z</time>
      </trkpt>
      <trkpt lat="43.88956" lon="7.44538">
        <ele>561.59997558594</ele>
        <time>2021-02-20T10:06:57.000Z</time>
      </trkpt>
      <trkpt lat="43.88957" lon="7.44548">
        <ele>562.59997558594</ele>
        <time>2021-02-20T10:07:00.000Z</time>
      </trkpt>
      <trkpt lat="43.88957" lon="7.44559">
        <ele>563.79998779297</ele>
        <time>2021-02-20T10:07:03.000Z</time>
      </trkpt>
      <trkpt lat="43.88959" lon="7.44575">
        <ele>565</ele>
        <time>2021-02-20T10:07:08.000Z</time>
      </trkpt>
      <trkpt lat="43.88961" lon="7.44579">
        <ele>565.59997558594</ele>
        <time>2021-02-20T10:07:10.000Z</time>
      </trkpt>
      <trkpt lat="43.88962" lon="7.44578">
        <ele>566</ele>
        <time>2021-02-20T10:07:11.000Z</time>
      </trkpt>
      <trkpt lat="43.88964" lon="7.44576">
        <ele>566.40002441406</ele>
        <time>2021-02-20T10:07:12.000Z</time>
      </trkpt>
      <trkpt lat="43.88963" lon="7.44569">
        <ele>567.20001220703</ele>
        <time>2021-02-20T10:07:14.000Z</time>
      </trkpt>
      <trkpt lat="43.88963" lon="7.44565">
        <ele>567.40002441406</ele>
        <time>2021-02-20T10:07:15.000Z</time>
      </trkpt>
      <trkpt lat="43.88965" lon="7.44555">
        <ele>568.20001220703</ele>
        <time>2021-02-20T10:07:18.000Z</time>
      </trkpt>
      <trkpt lat="43.88968" lon="7.44546">
        <ele>569</ele>
        <time>2021-02-20T10:07:21.000Z</time>
      </trkpt>
      <trkpt lat="43.8897" lon="7.44542">
        <ele>569.40002441406</ele>
        <time>2021-02-20T10:07:23.000Z</time>
      </trkpt>
      <trkpt lat="43.88973" lon="7.44537">
        <ele>570.20001220703</ele>
        <time>2021-02-20T10:07:25.000Z</time>
      </trkpt>
      <trkpt lat="43.88977" lon="7.44539">
        <ele>570.59997558594</ele>
        <time>2021-02-20T10:07:27.000Z</time>
      </trkpt>
      <trkpt lat="43.88975" lon="7.44547">
        <ele>571.59997558594</ele>
        <time>2021-02-20T10:07:30.000Z</time>
      </trkpt>
      <trkpt lat="43.88974" lon="7.44556">
        <ele>573</ele>
        <time>2021-02-20T10:07:33.000Z</time>
      </trkpt>
      <trkpt lat="43.88973" lon="7.44565">
        <ele>574</ele>
        <time>2021-02-20T10:07:36.000Z</time>
      </trkpt>
      <trkpt lat="43.88978" lon="7.44576">
        <ele>575.20001220703</ele>
        <time>2021-02-20T10:07:40.000Z</time>
      </trkpt>
      <trkpt lat="43.88979" lon="7.44578">
        <ele>575.40002441406</ele>
        <time>2021-02-20T10:07:41.000Z</time>
      </trkpt>
      <trkpt lat="43.88984" lon="7.44586">
        <ele>576.20001220703</ele>
        <time>2021-02-20T10:07:44.000Z</time>
      </trkpt>
      <trkpt lat="43.88987" lon="7.4459">
        <ele>576.79998779297</ele>
        <time>2021-02-20T10:07:46.000Z</time>
      </trkpt>
      <trkpt lat="43.88988" lon="7.44592">
        <ele>577</ele>
        <time>2021-02-20T10:07:47.000Z</time>
      </trkpt>
      <trkpt lat="43.8899" lon="7.44595">
        <ele>577.40002441406</ele>
        <time>2021-02-20T10:07:48.000Z</time>
      </trkpt>
      <trkpt lat="43.88993" lon="7.44598">
        <ele>578.40002441406</ele>
        <time>2021-02-20T10:07:51.000Z</time>
      </trkpt>
      <trkpt lat="43.88994" lon="7.44596">
        <ele>579</ele>
        <time>2021-02-20T10:07:52.000Z</time>
      </trkpt>
      <trkpt lat="43.88992" lon="7.44591">
        <ele>579.40002441406</ele>
        <time>2021-02-20T10:07:54.000Z</time>
      </trkpt>
      <trkpt lat="43.8899" lon="7.44589">
        <ele>579.79998779297</ele>
        <time>2021-02-20T10:07:55.000Z</time>
      </trkpt>
      <trkpt lat="43.88986" lon="7.44573">
        <ele>580.40002441406</ele>
        <time>2021-02-20T10:08:00.000Z</time>
      </trkpt>
      <trkpt lat="43.88987" lon="7.44569">
        <ele>580.59997558594</ele>
        <time>2021-02-20T10:08:01.000Z</time>
      </trkpt>
      <trkpt lat="43.88992" lon="7.44561">
        <ele>582</ele>
        <time>2021-02-20T10:08:05.000Z</time>
      </trkpt>
      <trkpt lat="43.88993" lon="7.4457">
        <ele>583.40002441406</ele>
        <time>2021-02-20T10:08:08.000Z</time>
      </trkpt>
      <trkpt lat="43.88994" lon="7.4458">
        <ele>584.40002441406</ele>
        <time>2021-02-20T10:08:12.000Z</time>
      </trkpt>
      <trkpt lat="43.88995" lon="7.44581">
        <ele>584.59997558594</ele>
        <time>2021-02-20T10:08:13.000Z</time>
      </trkpt>
      <trkpt lat="43.89001" lon="7.4459">
        <ele>585.79998779297</ele>
        <time>2021-02-20T10:08:17.000Z</time>
      </trkpt>
      <trkpt lat="43.89005" lon="7.44595">
        <ele>586.59997558594</ele>
        <time>2021-02-20T10:08:20.000Z</time>
      </trkpt>
      <trkpt lat="43.89006" lon="7.44594">
        <ele>587</ele>
        <time>2021-02-20T10:08:21.000Z</time>
      </trkpt>
      <trkpt lat="43.89006" lon="7.44592">
        <ele>587.20001220703</ele>
        <time>2021-02-20T10:08:22.000Z</time>
      </trkpt>
      <trkpt lat="43.89002" lon="7.44581">
        <ele>588.20001220703</ele>
        <time>2021-02-20T10:08:26.000Z</time>
      </trkpt>
      <trkpt lat="43.89006" lon="7.44573">
        <ele>589.20001220703</ele>
        <time>2021-02-20T10:08:29.000Z</time>
      </trkpt>
      <trkpt lat="43.89013" lon="7.4457">
        <ele>590.40002441406</ele>
        <time>2021-02-20T10:08:32.000Z</time>
      </trkpt>
      <trkpt lat="43.89015" lon="7.44574">
        <ele>590.79998779297</ele>
        <time>2021-02-20T10:08:34.000Z</time>
      </trkpt>
      <trkpt lat="43.89013" lon="7.44579">
        <ele>591.40002441406</ele>
        <time>2021-02-20T10:08:36.000Z</time>
      </trkpt>
      <trkpt lat="43.89011" lon="7.44581">
        <ele>591.59997558594</ele>
        <time>2021-02-20T10:08:37.000Z</time>
      </trkpt>
      <trkpt lat="43.89012" lon="7.44589">
        <ele>592.59997558594</ele>
        <time>2021-02-20T10:08:40.000Z</time>
      </trkpt>
      <trkpt lat="43.89013" lon="7.44591">
        <ele>592.79998779297</ele>
        <time>2021-02-20T10:08:41.000Z</time>
      </trkpt>
      <trkpt lat="43.89016" lon="7.44596">
        <ele>593.59997558594</ele>
        <time>2021-02-20T10:08:43.000Z</time>
      </trkpt>
      <trkpt lat="43.89018" lon="7.44599">
        <ele>593.79998779297</ele>
        <time>2021-02-20T10:08:44.000Z</time>
      </trkpt>
      <trkpt lat="43.89022" lon="7.44604">
        <ele>594.59997558594</ele>
        <time>2021-02-20T10:08:47.000Z</time>
      </trkpt>
      <trkpt lat="43.89024" lon="7.44607">
        <ele>594.79998779297</ele>
        <time>2021-02-20T10:08:48.000Z</time>
      </trkpt>
      <trkpt lat="43.89025" lon="7.44617">
        <ele>595.40002441406</ele>
        <time>2021-02-20T10:08:51.000Z</time>
      </trkpt>
      <trkpt lat="43.89023" lon="7.44622">
        <ele>596</ele>
        <time>2021-02-20T10:08:53.000Z</time>
      </trkpt>
      <trkpt lat="43.89019" lon="7.44628">
        <ele>596.59997558594</ele>
        <time>2021-02-20T10:08:56.000Z</time>
      </trkpt>
      <trkpt lat="43.89019" lon="7.4463">
        <ele>596.79998779297</ele>
        <time>2021-02-20T10:08:57.000Z</time>
      </trkpt>
      <trkpt lat="43.8902" lon="7.44631">
        <ele>597.20001220703</ele>
        <time>2021-02-20T10:08:58.000Z</time>
      </trkpt>
      <trkpt lat="43.89022" lon="7.44631">
        <ele>597.59997558594</ele>
        <time>2021-02-20T10:08:59.000Z</time>
      </trkpt>
      <trkpt lat="43.89025" lon="7.44628">
        <ele>598.20001220703</ele>
        <time>2021-02-20T10:09:01.000Z</time>
      </trkpt>
      <trkpt lat="43.89029" lon="7.44623">
        <ele>598.79998779297</ele>
        <time>2021-02-20T10:09:03.000Z</time>
      </trkpt>
      <trkpt lat="43.8903" lon="7.44621">
        <ele>599</ele>
        <time>2021-02-20T10:09:04.000Z</time>
      </trkpt>
      <trkpt lat="43.89033" lon="7.44613">
        <ele>599.59997558594</ele>
        <time>2021-02-20T10:09:07.000Z</time>
      </trkpt>
      <trkpt lat="43.89033" lon="7.4461">
        <ele>600</ele>
        <time>2021-02-20T10:09:08.000Z</time>
      </trkpt>
      <trkpt lat="43.89031" lon="7.44602">
        <ele>600.59997558594</ele>
        <time>2021-02-20T10:09:11.000Z</time>
      </trkpt>
      <trkpt lat="43.89028" lon="7.44596">
        <ele>600.79998779297</ele>
        <time>2021-02-20T10:09:13.000Z</time>
      </trkpt>
      <trkpt lat="43.8903" lon="7.44583">
        <ele>601.79998779297</ele>
        <time>2021-02-20T10:09:17.000Z</time>
      </trkpt>
      <trkpt lat="43.89035" lon="7.44582">
        <ele>603</ele>
        <time>2021-02-20T10:09:20.000Z</time>
      </trkpt>
      <trkpt lat="43.89037" lon="7.44585">
        <ele>603.20001220703</ele>
        <time>2021-02-20T10:09:21.000Z</time>
      </trkpt>
      <trkpt lat="43.89036" lon="7.44594">
        <ele>603.59997558594</ele>
        <time>2021-02-20T10:09:24.000Z</time>
      </trkpt>
      <trkpt lat="43.89036" lon="7.44597">
        <ele>603.59997558594</ele>
        <time>2021-02-20T10:09:25.000Z</time>
      </trkpt>
      <trkpt lat="43.89038" lon="7.44603">
        <ele>604.20001220703</ele>
        <time>2021-02-20T10:09:27.000Z</time>
      </trkpt>
      <trkpt lat="43.89042" lon="7.4461">
        <ele>605.20001220703</ele>
        <time>2021-02-20T10:09:30.000Z</time>
      </trkpt>
      <trkpt lat="43.89042" lon="7.44614">
        <ele>605.40002441406</ele>
        <time>2021-02-20T10:09:31.000Z</time>
      </trkpt>
      <trkpt lat="43.89043" lon="7.4462">
        <ele>606.20001220703</ele>
        <time>2021-02-20T10:09:33.000Z</time>
      </trkpt>
      <trkpt lat="43.89043" lon="7.44624">
        <ele>606.59997558594</ele>
        <time>2021-02-20T10:09:34.000Z</time>
      </trkpt>
      <trkpt lat="43.89043" lon="7.44627">
        <ele>607</ele>
        <time>2021-02-20T10:09:35.000Z</time>
      </trkpt>
      <trkpt lat="43.89043" lon="7.44633">
        <ele>607.59997558594</ele>
        <time>2021-02-20T10:09:37.000Z</time>
      </trkpt>
      <trkpt lat="43.89045" lon="7.44645">
        <ele>608.59997558594</ele>
        <time>2021-02-20T10:09:41.000Z</time>
      </trkpt>
      <trkpt lat="43.89047" lon="7.44646">
        <ele>609</ele>
        <time>2021-02-20T10:09:42.000Z</time>
      </trkpt>
      <trkpt lat="43.89049" lon="7.44642">
        <ele>609.40002441406</ele>
        <time>2021-02-20T10:09:44.000Z</time>
      </trkpt>
      <trkpt lat="43.89048" lon="7.44636">
        <ele>609.79998779297</ele>
        <time>2021-02-20T10:09:46.000Z</time>
      </trkpt>
      <trkpt lat="43.89047" lon="7.44633">
        <ele>609.79998779297</ele>
        <time>2021-02-20T10:09:47.000Z</time>
      </trkpt>
      <trkpt lat="43.89047" lon="7.4463">
        <ele>610</ele>
        <time>2021-02-20T10:09:48.000Z</time>
      </trkpt>
      <trkpt lat="43.8905" lon="7.44618">
        <ele>611</ele>
        <time>2021-02-20T10:09:52.000Z</time>
      </trkpt>
      <trkpt lat="43.89051" lon="7.44615">
        <ele>611</ele>
        <time>2021-02-20T10:09:53.000Z</time>
      </trkpt>
      <trkpt lat="43.8905" lon="7.44611">
        <ele>611.59997558594</ele>
        <time>2021-02-20T10:09:54.000Z</time>
      </trkpt>
      <trkpt lat="43.89053" lon="7.44602">
        <ele>612.20001220703</ele>
        <time>2021-02-20T10:09:57.000Z</time>
      </trkpt>
      <trkpt lat="43.89054" lon="7.446">
        <ele>612.40002441406</ele>
        <time>2021-02-20T10:09:58.000Z</time>
      </trkpt>
      <trkpt lat="43.8906" lon="7.44595">
        <ele>613.40002441406</ele>
        <time>2021-02-20T10:10:01.000Z</time>
      </trkpt>
      <trkpt lat="43.89066" lon="7.44593">
        <ele>614</ele>
        <time>2021-02-20T10:10:04.000Z</time>
      </trkpt>
      <trkpt lat="43.89074" lon="7.44593">
        <ele>614.59997558594</ele>
        <time>2021-02-20T10:10:07.000Z</time>
      </trkpt>
      <trkpt lat="43.89078" lon="7.44593">
        <ele>615.40002441406</ele>
        <time>2021-02-20T10:10:09.000Z</time>
      </trkpt>
      <trkpt lat="43.89079" lon="7.44592">
        <ele>615.59997558594</ele>
        <time>2021-02-20T10:10:10.000Z</time>
      </trkpt>
      <trkpt lat="43.8908" lon="7.44592">
        <ele>616.79998779297</ele>
        <time>2021-02-20T10:10:13.000Z</time>
      </trkpt>
      <trkpt lat="43.8908" lon="7.44591">
        <ele>617.20001220703</ele>
        <time>2021-02-20T10:10:18.000Z</time>
      </trkpt>
      <trkpt lat="43.8908" lon="7.44589">
        <ele>616.59997558594</ele>
        <time>2021-02-20T10:10:23.000Z</time>
      </trkpt>
      <trkpt lat="43.8908" lon="7.44587">
        <ele>616.40002441406</ele>
        <time>2021-02-20T10:10:32.000Z</time>
      </trkpt>
      <trkpt lat="43.8908" lon="7.44585">
        <ele>616</ele>
        <time>2021-02-20T10:10:48.000Z</time>
      </trkpt>
      <trkpt lat="43.8908" lon="7.44584">
        <ele>616.20001220703</ele>
        <time>2021-02-20T10:11:00.000Z</time>
      </trkpt>
      <trkpt lat="43.89081" lon="7.44585">
        <ele>615.79998779297</ele>
        <time>2021-02-20T10:11:05.000Z</time>
      </trkpt>
      <trkpt lat="43.89081" lon="7.44585">
        <ele>615.79998779297</ele>
        <time>2021-02-20T10:11:06.000Z</time>
      </trkpt>
      <trkpt lat="43.89086" lon="7.44588">
        <ele>616</ele>
        <time>2021-02-20T10:11:11.000Z</time>
      </trkpt>
      <trkpt lat="43.89087" lon="7.44591">
        <ele>616</ele>
        <time>2021-02-20T10:11:12.000Z</time>
      </trkpt>
      <trkpt lat="43.89085" lon="7.44596">
        <ele>616.20001220703</ele>
        <time>2021-02-20T10:11:14.000Z</time>
      </trkpt>
      <trkpt lat="43.89079" lon="7.44597">
        <ele>616.79998779297</ele>
        <time>2021-02-20T10:11:17.000Z</time>
      </trkpt>
      <trkpt lat="43.89076" lon="7.44598">
        <ele>617</ele>
        <time>2021-02-20T10:11:18.000Z</time>
      </trkpt>
      <trkpt lat="43.89069" lon="7.44605">
        <ele>618</ele>
        <time>2021-02-20T10:11:21.000Z</time>
      </trkpt>
      <trkpt lat="43.89067" lon="7.44612">
        <ele>619</ele>
        <time>2021-02-20T10:11:23.000Z</time>
      </trkpt>
      <trkpt lat="43.89067" lon="7.44616">
        <ele>619.40002441406</ele>
        <time>2021-02-20T10:11:24.000Z</time>
      </trkpt>
      <trkpt lat="43.8907" lon="7.44622">
        <ele>620.40002441406</ele>
        <time>2021-02-20T10:11:26.000Z</time>
      </trkpt>
      <trkpt lat="43.89077" lon="7.44625">
        <ele>621.40002441406</ele>
        <time>2021-02-20T10:11:29.000Z</time>
      </trkpt>
      <trkpt lat="43.8908" lon="7.44628">
        <ele>621.79998779297</ele>
        <time>2021-02-20T10:11:30.000Z</time>
      </trkpt>
      <trkpt lat="43.89085" lon="7.44631">
        <ele>622.59997558594</ele>
        <time>2021-02-20T10:11:32.000Z</time>
      </trkpt>
      <trkpt lat="43.89092" lon="7.44635">
        <ele>623.79998779297</ele>
        <time>2021-02-20T10:11:35.000Z</time>
      </trkpt>
      <trkpt lat="43.89098" lon="7.44638">
        <ele>625</ele>
        <time>2021-02-20T10:11:38.000Z</time>
      </trkpt>
      <trkpt lat="43.89102" lon="7.4464">
        <ele>625.79998779297</ele>
        <time>2021-02-20T10:11:40.000Z</time>
      </trkpt>
      <trkpt lat="43.89104" lon="7.44641">
        <ele>626.20001220703</ele>
        <time>2021-02-20T10:11:41.000Z</time>
      </trkpt>
      <trkpt lat="43.89111" lon="7.44647">
        <ele>627.40002441406</ele>
        <time>2021-02-20T10:11:45.000Z</time>
      </trkpt>
      <trkpt lat="43.89115" lon="7.4465">
        <ele>628</ele>
        <time>2021-02-20T10:11:47.000Z</time>
      </trkpt>
      <trkpt lat="43.89118" lon="7.44655">
        <ele>628.40002441406</ele>
        <time>2021-02-20T10:11:49.000Z</time>
      </trkpt>
      <trkpt lat="43.89123" lon="7.4466">
        <ele>629</ele>
        <time>2021-02-20T10:11:52.000Z</time>
      </trkpt>
      <trkpt lat="43.89129" lon="7.44666">
        <ele>629.79998779297</ele>
        <time>2021-02-20T10:11:55.000Z</time>
      </trkpt>
      <trkpt lat="43.89134" lon="7.44674">
        <ele>630.59997558594</ele>
        <time>2021-02-20T10:11:58.000Z</time>
      </trkpt>
      <trkpt lat="43.89135" lon="7.44677">
        <ele>631</ele>
        <time>2021-02-20T10:11:59.000Z</time>
      </trkpt>
      <trkpt lat="43.8914" lon="7.44686">
        <ele>632.20001220703</ele>
        <time>2021-02-20T10:12:03.000Z</time>
      </trkpt>
      <trkpt lat="43.89142" lon="7.44687">
        <ele>632.40002441406</ele>
        <time>2021-02-20T10:12:04.000Z</time>
      </trkpt>
      <trkpt lat="43.89143" lon="7.44682">
        <ele>633.40002441406</ele>
        <time>2021-02-20T10:12:07.000Z</time>
      </trkpt>
      <trkpt lat="43.89137" lon="7.44673">
        <ele>634.59997558594</ele>
        <time>2021-02-20T10:12:11.000Z</time>
      </trkpt>
      <trkpt lat="43.89134" lon="7.44663">
        <ele>635.59997558594</ele>
        <time>2021-02-20T10:12:15.000Z</time>
      </trkpt>
      <trkpt lat="43.89132" lon="7.4466">
        <ele>636</ele>
        <time>2021-02-20T10:12:16.000Z</time>
      </trkpt>
      <trkpt lat="43.89131" lon="7.44655">
        <ele>637</ele>
        <time>2021-02-20T10:12:18.000Z</time>
      </trkpt>
      <trkpt lat="43.89128" lon="7.44648">
        <ele>637.79998779297</ele>
        <time>2021-02-20T10:12:21.000Z</time>
      </trkpt>
      <trkpt lat="43.89127" lon="7.44645">
        <ele>638</ele>
        <time>2021-02-20T10:12:22.000Z</time>
      </trkpt>
      <trkpt lat="43.89124" lon="7.44634">
        <ele>639</ele>
        <time>2021-02-20T10:12:26.000Z</time>
      </trkpt>
      <trkpt lat="43.89124" lon="7.44631">
        <ele>639.20001220703</ele>
        <time>2021-02-20T10:12:27.000Z</time>
      </trkpt>
      <trkpt lat="43.89125" lon="7.44628">
        <ele>639.59997558594</ele>
        <time>2021-02-20T10:12:28.000Z</time>
      </trkpt>
      <trkpt lat="43.89129" lon="7.44626">
        <ele>640.20001220703</ele>
        <time>2021-02-20T10:12:30.000Z</time>
      </trkpt>
      <trkpt lat="43.89133" lon="7.44622">
        <ele>641.20001220703</ele>
        <time>2021-02-20T10:12:32.000Z</time>
      </trkpt>
      <trkpt lat="43.89138" lon="7.44618">
        <ele>642.59997558594</ele>
        <time>2021-02-20T10:12:35.000Z</time>
      </trkpt>
      <trkpt lat="43.89147" lon="7.44612">
        <ele>643.40002441406</ele>
        <time>2021-02-20T10:12:40.000Z</time>
      </trkpt>
      <trkpt lat="43.89149" lon="7.44611">
        <ele>643.79998779297</ele>
        <time>2021-02-20T10:12:41.000Z</time>
      </trkpt>
      <trkpt lat="43.89157" lon="7.44606">
        <ele>644.79998779297</ele>
        <time>2021-02-20T10:12:45.000Z</time>
      </trkpt>
      <trkpt lat="43.89158" lon="7.44604">
        <ele>645</ele>
        <time>2021-02-20T10:12:46.000Z</time>
      </trkpt>
      <trkpt lat="43.89164" lon="7.44596">
        <ele>646.40002441406</ele>
        <time>2021-02-20T10:12:50.000Z</time>
      </trkpt>
      <trkpt lat="43.89166" lon="7.44594">
        <ele>647</ele>
        <time>2021-02-20T10:12:51.000Z</time>
      </trkpt>
      <trkpt lat="43.89169" lon="7.44586">
        <ele>647.79998779297</ele>
        <time>2021-02-20T10:12:54.000Z</time>
      </trkpt>
      <trkpt lat="43.89171" lon="7.44578">
        <ele>648.59997558594</ele>
        <time>2021-02-20T10:12:57.000Z</time>
      </trkpt>
      <trkpt lat="43.89172" lon="7.44575">
        <ele>649</ele>
        <time>2021-02-20T10:12:58.000Z</time>
      </trkpt>
      <trkpt lat="43.89174" lon="7.44562">
        <ele>650.20001220703</ele>
        <time>2021-02-20T10:13:02.000Z</time>
      </trkpt>
      <trkpt lat="43.89174" lon="7.44559">
        <ele>650.40002441406</ele>
        <time>2021-02-20T10:13:03.000Z</time>
      </trkpt>
      <trkpt lat="43.89175" lon="7.44551">
        <ele>651.40002441406</ele>
        <time>2021-02-20T10:13:06.000Z</time>
      </trkpt>
      <trkpt lat="43.89174" lon="7.44541">
        <ele>652.40002441406</ele>
        <time>2021-02-20T10:13:09.000Z</time>
      </trkpt>
      <trkpt lat="43.89175" lon="7.44539">
        <ele>652.59997558594</ele>
        <time>2021-02-20T10:13:10.000Z</time>
      </trkpt>
      <trkpt lat="43.89178" lon="7.44541">
        <ele>653.20001220703</ele>
        <time>2021-02-20T10:13:12.000Z</time>
      </trkpt>
      <trkpt lat="43.89178" lon="7.44547">
        <ele>653.79998779297</ele>
        <time>2021-02-20T10:13:14.000Z</time>
      </trkpt>
      <trkpt lat="43.89178" lon="7.44552">
        <ele>654.40002441406</ele>
        <time>2021-02-20T10:13:16.000Z</time>
      </trkpt>
      <trkpt lat="43.89178" lon="7.44555">
        <ele>654.59997558594</ele>
        <time>2021-02-20T10:13:17.000Z</time>
      </trkpt>
      <trkpt lat="43.89178" lon="7.44561">
        <ele>655</ele>
        <time>2021-02-20T10:13:19.000Z</time>
      </trkpt>
      <trkpt lat="43.89178" lon="7.44569">
        <ele>655.59997558594</ele>
        <time>2021-02-20T10:13:22.000Z</time>
      </trkpt>
      <trkpt lat="43.89179" lon="7.44573">
        <ele>656</ele>
        <time>2021-02-20T10:13:24.000Z</time>
      </trkpt>
      <trkpt lat="43.89178" lon="7.44585">
        <ele>657.20001220703</ele>
        <time>2021-02-20T10:13:28.000Z</time>
      </trkpt>
      <trkpt lat="43.89177" lon="7.44593">
        <ele>658.40002441406</ele>
        <time>2021-02-20T10:13:31.000Z</time>
      </trkpt>
      <trkpt lat="43.89176" lon="7.44595">
        <ele>658.59997558594</ele>
        <time>2021-02-20T10:13:32.000Z</time>
      </trkpt>
      <trkpt lat="43.89175" lon="7.44598">
        <ele>659</ele>
        <time>2021-02-20T10:13:34.000Z</time>
      </trkpt>
      <trkpt lat="43.89178" lon="7.44599">
        <ele>659.59997558594</ele>
        <time>2021-02-20T10:13:36.000Z</time>
      </trkpt>
      <trkpt lat="43.89179" lon="7.44594">
        <ele>659.59997558594</ele>
        <time>2021-02-20T10:13:38.000Z</time>
      </trkpt>
      <trkpt lat="43.89179" lon="7.44591">
        <ele>659.79998779297</ele>
        <time>2021-02-20T10:13:39.000Z</time>
      </trkpt>
      <trkpt lat="43.89181" lon="7.44582">
        <ele>660.59997558594</ele>
        <time>2021-02-20T10:13:42.000Z</time>
      </trkpt>
      <trkpt lat="43.89183" lon="7.44577">
        <ele>661</ele>
        <time>2021-02-20T10:13:44.000Z</time>
      </trkpt>
      <trkpt lat="43.89185" lon="7.44568">
        <ele>661.79998779297</ele>
        <time>2021-02-20T10:13:47.000Z</time>
      </trkpt>
      <trkpt lat="43.89188" lon="7.4456">
        <ele>662.79998779297</ele>
        <time>2021-02-20T10:13:50.000Z</time>
      </trkpt>
      <trkpt lat="43.8919" lon="7.44547">
        <ele>664</ele>
        <time>2021-02-20T10:13:54.000Z</time>
      </trkpt>
      <trkpt lat="43.89191" lon="7.44545">
        <ele>664.20001220703</ele>
        <time>2021-02-20T10:13:55.000Z</time>
      </trkpt>
      <trkpt lat="43.89194" lon="7.44532">
        <ele>665.20001220703</ele>
        <time>2021-02-20T10:13:59.000Z</time>
      </trkpt>
      <trkpt lat="43.892" lon="7.44521">
        <ele>666.40002441406</ele>
        <time>2021-02-20T10:14:03.000Z</time>
      </trkpt>
      <trkpt lat="43.89204" lon="7.4452">
        <ele>667</ele>
        <time>2021-02-20T10:14:05.000Z</time>
      </trkpt>
      <trkpt lat="43.89208" lon="7.4452">
        <ele>667.79998779297</ele>
        <time>2021-02-20T10:14:07.000Z</time>
      </trkpt>
      <trkpt lat="43.8921" lon="7.4452">
        <ele>668.20001220703</ele>
        <time>2021-02-20T10:14:08.000Z</time>
      </trkpt>
      <trkpt lat="43.89218" lon="7.44524">
        <ele>669</ele>
        <time>2021-02-20T10:14:12.000Z</time>
      </trkpt>
      <trkpt lat="43.89221" lon="7.44527">
        <ele>669.40002441406</ele>
        <time>2021-02-20T10:14:14.000Z</time>
      </trkpt>
      <trkpt lat="43.89221" lon="7.44529">
        <ele>670</ele>
        <time>2021-02-20T10:14:17.000Z</time>
      </trkpt>
      <trkpt lat="43.89222" lon="7.44529">
        <ele>670.40002441406</ele>
        <time>2021-02-20T10:14:18.000Z</time>
      </trkpt>
      <trkpt lat="43.89225" lon="7.44529">
        <ele>670.40002441406</ele>
        <time>2021-02-20T10:14:33.000Z</time>
      </trkpt>
      <trkpt lat="43.8923" lon="7.4453">
        <ele>669.79998779297</ele>
        <time>2021-02-20T10:14:56.000Z</time>
      </trkpt>
      <trkpt lat="43.8924" lon="7.44545">
        <ele>669.20001220703</ele>
        <time>2021-02-20T10:15:02.000Z</time>
      </trkpt>
      <trkpt lat="43.89242" lon="7.44549">
        <ele>669.20001220703</ele>
        <time>2021-02-20T10:15:06.000Z</time>
      </trkpt>
      <trkpt lat="43.89243" lon="7.4455">
        <ele>669.59997558594</ele>
        <time>2021-02-20T10:15:18.000Z</time>
      </trkpt>
      <trkpt lat="43.89245" lon="7.4455">
        <ele>669.79998779297</ele>
        <time>2021-02-20T10:15:29.000Z</time>
      </trkpt>
      <trkpt lat="43.89245" lon="7.44551">
        <ele>669.40002441406</ele>
        <time>2021-02-20T10:15:37.000Z</time>
      </trkpt>
      <trkpt lat="43.89247" lon="7.44552">
        <ele>669.40002441406</ele>
        <time>2021-02-20T10:15:42.000Z</time>
      </trkpt>
      <trkpt lat="43.89248" lon="7.44554">
        <ele>669.40002441406</ele>
        <time>2021-02-20T10:15:44.000Z</time>
      </trkpt>
      <trkpt lat="43.89254" lon="7.44561">
        <ele>669.20001220703</ele>
        <time>2021-02-20T10:15:47.000Z</time>
      </trkpt>
      <trkpt lat="43.89254" lon="7.44565">
        <ele>669</ele>
        <time>2021-02-20T10:15:48.000Z</time>
      </trkpt>
      <trkpt lat="43.89255" lon="7.44567">
        <ele>668.79998779297</ele>
        <time>2021-02-20T10:15:49.000Z</time>
      </trkpt>
      <trkpt lat="43.89255" lon="7.44569">
        <ele>668.79998779297</ele>
        <time>2021-02-20T10:15:50.000Z</time>
      </trkpt>
      <trkpt lat="43.89257" lon="7.44571">
        <ele>669</ele>
        <time>2021-02-20T10:15:51.000Z</time>
      </trkpt>
      <trkpt lat="43.89263" lon="7.44575">
        <ele>669.79998779297</ele>
        <time>2021-02-20T10:15:55.000Z</time>
      </trkpt>
      <trkpt lat="43.89268" lon="7.44579">
        <ele>670</ele>
        <time>2021-02-20T10:15:57.000Z</time>
      </trkpt>
      <trkpt lat="43.89274" lon="7.44588">
        <ele>670.40002441406</ele>
        <time>2021-02-20T10:16:01.000Z</time>
      </trkpt>
      <trkpt lat="43.89276" lon="7.44594">
        <ele>671.20001220703</ele>
        <time>2021-02-20T10:16:04.000Z</time>
      </trkpt>
      <trkpt lat="43.89278" lon="7.44598">
        <ele>672</ele>
        <time>2021-02-20T10:16:06.000Z</time>
      </trkpt>
      <trkpt lat="43.89279" lon="7.44599">
        <ele>672.59997558594</ele>
        <time>2021-02-20T10:16:07.000Z</time>
      </trkpt>
      <trkpt lat="43.89281" lon="7.446">
        <ele>672.79998779297</ele>
        <time>2021-02-20T10:16:08.000Z</time>
      </trkpt>
      <trkpt lat="43.89285" lon="7.44601">
        <ele>673.79998779297</ele>
        <time>2021-02-20T10:16:10.000Z</time>
      </trkpt>
      <trkpt lat="43.89287" lon="7.446">
        <ele>674</ele>
        <time>2021-02-20T10:16:11.000Z</time>
      </trkpt>
      <trkpt lat="43.89293" lon="7.44596">
        <ele>674.79998779297</ele>
        <time>2021-02-20T10:16:15.000Z</time>
      </trkpt>
      <trkpt lat="43.89295" lon="7.44596">
        <ele>675</ele>
        <time>2021-02-20T10:16:16.000Z</time>
      </trkpt>
      <trkpt lat="43.89298" lon="7.44594">
        <ele>675.40002441406</ele>
        <time>2021-02-20T10:16:19.000Z</time>
      </trkpt>
      <trkpt lat="43.89299" lon="7.44594">
        <ele>676.40002441406</ele>
        <time>2021-02-20T10:16:21.000Z</time>
      </trkpt>
      <trkpt lat="43.89299" lon="7.44594">
        <ele>677.59997558594</ele>
        <time>2021-02-20T10:16:23.000Z</time>
      </trkpt>
      <trkpt lat="43.89299" lon="7.44594">
        <ele>678.20001220703</ele>
        <time>2021-02-20T10:16:24.000Z</time>
      </trkpt>
      <trkpt lat="43.89301" lon="7.44592">
        <ele>678.79998779297</ele>
        <time>2021-02-20T10:16:29.000Z</time>
      </trkpt>
      <trkpt lat="43.89302" lon="7.44592">
        <ele>679.40002441406</ele>
        <time>2021-02-20T10:16:33.000Z</time>
      </trkpt>
      <trkpt lat="43.89303" lon="7.44591">
        <ele>679.79998779297</ele>
        <time>2021-02-20T10:16:35.000Z</time>
      </trkpt>
      <trkpt lat="43.89304" lon="7.44591">
        <ele>680</ele>
        <time>2021-02-20T10:16:36.000Z</time>
      </trkpt>
      <trkpt lat="43.89306" lon="7.44592">
        <ele>680.20001220703</ele>
        <time>2021-02-20T10:16:38.000Z</time>
      </trkpt>
      <trkpt lat="43.89305" lon="7.44597">
        <ele>680.40002441406</ele>
        <time>2021-02-20T10:16:41.000Z</time>
      </trkpt>
      <trkpt lat="43.89305" lon="7.44598">
        <ele>680.40002441406</ele>
        <time>2021-02-20T10:16:42.000Z</time>
      </trkpt>
      <trkpt lat="43.89305" lon="7.446">
        <ele>680.59997558594</ele>
        <time>2021-02-20T10:16:48.000Z</time>
      </trkpt>
      <trkpt lat="43.89305" lon="7.446">
        <ele>680</ele>
        <time>2021-02-20T10:16:56.000Z</time>
      </trkpt>
      <trkpt lat="43.89307" lon="7.44601">
        <ele>680.20001220703</ele>
        <time>2021-02-20T10:17:18.000Z</time>
      </trkpt>
      <trkpt lat="43.89308" lon="7.44601">
        <ele>680</ele>
        <time>2021-02-20T10:17:43.000Z</time>
      </trkpt>
      <trkpt lat="43.89309" lon="7.44602">
        <ele>679.79998779297</ele>
        <time>2021-02-20T10:17:58.000Z</time>
      </trkpt>
      <trkpt lat="43.8931" lon="7.44601">
        <ele>679.79998779297</ele>
        <time>2021-02-20T10:18:14.000Z</time>
      </trkpt>
      <trkpt lat="43.89309" lon="7.44602">
        <ele>679.59997558594</ele>
        <time>2021-02-20T10:18:27.000Z</time>
      </trkpt>
      <trkpt lat="43.89308" lon="7.44602">
        <ele>679.59997558594</ele>
        <time>2021-02-20T10:18:45.000Z</time>
      </trkpt>
      <trkpt lat="43.8931" lon="7.44603">
        <ele>679.59997558594</ele>
        <time>2021-02-20T10:19:13.000Z</time>
      </trkpt>
      <trkpt lat="43.89311" lon="7.44602">
        <ele>679.40002441406</ele>
        <time>2021-02-20T10:19:33.000Z</time>
      </trkpt>
      <trkpt lat="43.89311" lon="7.446">
        <ele>679.40002441406</ele>
        <time>2021-02-20T10:19:47.000Z</time>
      </trkpt>
      <trkpt lat="43.89312" lon="7.446">
        <ele>679.40002441406</ele>
        <time>2021-02-20T10:20:01.000Z</time>
      </trkpt>
      <trkpt lat="43.89313" lon="7.44601">
        <ele>679.40002441406</ele>
        <time>2021-02-20T10:20:05.000Z</time>
      </trkpt>
      <trkpt lat="43.89312" lon="7.44602">
        <ele>679.40002441406</ele>
        <time>2021-02-20T10:20:08.000Z</time>
      </trkpt>
      <trkpt lat="43.89312" lon="7.44603">
        <ele>679</ele>
        <time>2021-02-20T10:20:17.000Z</time>
      </trkpt>
      <trkpt lat="43.89312" lon="7.44603">
        <ele>679</ele>
        <time>2021-02-20T10:20:27.000Z</time>
      </trkpt>
      <trkpt lat="43.89312" lon="7.44604">
        <ele>679.20001220703</ele>
        <time>2021-02-20T10:20:34.000Z</time>
      </trkpt>
      <trkpt lat="43.89313" lon="7.44604">
        <ele>679.20001220703</ele>
        <time>2021-02-20T10:20:46.000Z</time>
      </trkpt>
      <trkpt lat="43.89316" lon="7.44604">
        <ele>679.20001220703</ele>
        <time>2021-02-20T10:21:04.000Z</time>
      </trkpt>
      <trkpt lat="43.89316" lon="7.44604">
        <ele>679.20001220703</ele>
        <time>2021-02-20T10:21:22.000Z</time>
      </trkpt>
      <trkpt lat="43.89315" lon="7.44605">
        <ele>679.20001220703</ele>
        <time>2021-02-20T10:21:32.000Z</time>
      </trkpt>
      <trkpt lat="43.89317" lon="7.44605">
        <ele>679</ele>
        <time>2021-02-20T10:21:39.000Z</time>
      </trkpt>
      <trkpt lat="43.89324" lon="7.44601">
        <ele>679</ele>
        <time>2021-02-20T10:21:43.000Z</time>
      </trkpt>
      <trkpt lat="43.89335" lon="7.44604">
        <ele>678.79998779297</ele>
        <time>2021-02-20T10:21:48.000Z</time>
      </trkpt>
      <trkpt lat="43.89348" lon="7.4462">
        <ele>679</ele>
        <time>2021-02-20T10:21:54.000Z</time>
      </trkpt>
      <trkpt lat="43.8935" lon="7.44624">
        <ele>679.20001220703</ele>
        <time>2021-02-20T10:21:55.000Z</time>
      </trkpt>
      <trkpt lat="43.89356" lon="7.44643">
        <ele>680</ele>
        <time>2021-02-20T10:22:00.000Z</time>
      </trkpt>
      <trkpt lat="43.89358" lon="7.44655">
        <ele>681</ele>
        <time>2021-02-20T10:22:03.000Z</time>
      </trkpt>
      <trkpt lat="43.89359" lon="7.44667">
        <ele>681.79998779297</ele>
        <time>2021-02-20T10:22:06.000Z</time>
      </trkpt>
      <trkpt lat="43.8936" lon="7.4467">
        <ele>682.20001220703</ele>
        <time>2021-02-20T10:22:07.000Z</time>
      </trkpt>
      <trkpt lat="43.89365" lon="7.44681">
        <ele>683.40002441406</ele>
        <time>2021-02-20T10:22:11.000Z</time>
      </trkpt>
      <trkpt lat="43.89367" lon="7.44682">
        <ele>683.79998779297</ele>
        <time>2021-02-20T10:22:12.000Z</time>
      </trkpt>
      <trkpt lat="43.89377" lon="7.44681">
        <ele>684.59997558594</ele>
        <time>2021-02-20T10:22:16.000Z</time>
      </trkpt>
      <trkpt lat="43.89379" lon="7.4468">
        <ele>684.79998779297</ele>
        <time>2021-02-20T10:22:17.000Z</time>
      </trkpt>
      <trkpt lat="43.89387" lon="7.44678">
        <ele>685.79998779297</ele>
        <time>2021-02-20T10:22:20.000Z</time>
      </trkpt>
      <trkpt lat="43.89394" lon="7.44679">
        <ele>686.59997558594</ele>
        <time>2021-02-20T10:22:23.000Z</time>
      </trkpt>
      <trkpt lat="43.89397" lon="7.44681">
        <ele>687</ele>
        <time>2021-02-20T10:22:24.000Z</time>
      </trkpt>
      <trkpt lat="43.89406" lon="7.44688">
        <ele>688</ele>
        <time>2021-02-20T10:22:29.000Z</time>
      </trkpt>
      <trkpt lat="43.89415" lon="7.44684">
        <ele>688.79998779297</ele>
        <time>2021-02-20T10:22:33.000Z</time>
      </trkpt>
      <trkpt lat="43.89419" lon="7.44682">
        <ele>689.20001220703</ele>
        <time>2021-02-20T10:22:35.000Z</time>
      </trkpt>
      <trkpt lat="43.89429" lon="7.4467">
        <ele>690.40002441406</ele>
        <time>2021-02-20T10:22:40.000Z</time>
      </trkpt>
      <trkpt lat="43.89437" lon="7.44657">
        <ele>691.79998779297</ele>
        <time>2021-02-20T10:22:45.000Z</time>
      </trkpt>
      <trkpt lat="43.89439" lon="7.44652">
        <ele>692.20001220703</ele>
        <time>2021-02-20T10:22:47.000Z</time>
      </trkpt>
      <trkpt lat="43.89441" lon="7.44652">
        <ele>692.20001220703</ele>
        <time>2021-02-20T10:22:48.000Z</time>
      </trkpt>
      <trkpt lat="43.89443" lon="7.44657">
        <ele>692.40002441406</ele>
        <time>2021-02-20T10:22:50.000Z</time>
      </trkpt>
      <trkpt lat="43.89441" lon="7.44664">
        <ele>692.79998779297</ele>
        <time>2021-02-20T10:22:53.000Z</time>
      </trkpt>
      <trkpt lat="43.89441" lon="7.44665">
        <ele>693</ele>
        <time>2021-02-20T10:22:54.000Z</time>
      </trkpt>
      <trkpt lat="43.89439" lon="7.44667">
        <ele>693.79998779297</ele>
        <time>2021-02-20T10:22:58.000Z</time>
      </trkpt>
      <trkpt lat="43.89439" lon="7.44667">
        <ele>694.20001220703</ele>
        <time>2021-02-20T10:23:00.000Z</time>
      </trkpt>
      <trkpt lat="43.89437" lon="7.44667">
        <ele>694.59997558594</ele>
        <time>2021-02-20T10:23:07.000Z</time>
      </trkpt>
      <trkpt lat="43.89437" lon="7.44668">
        <ele>695</ele>
        <time>2021-02-20T10:23:13.000Z</time>
      </trkpt>
      <trkpt lat="43.89434" lon="7.44667">
        <ele>695.20001220703</ele>
        <time>2021-02-20T10:23:18.000Z</time>
      </trkpt>
      <trkpt lat="43.89432" lon="7.44669">
        <ele>695.59997558594</ele>
        <time>2021-02-20T10:23:24.000Z</time>
      </trkpt>
      <trkpt lat="43.89429" lon="7.44672">
        <ele>696.20001220703</ele>
        <time>2021-02-20T10:23:30.000Z</time>
      </trkpt>
      <trkpt lat="43.89429" lon="7.44673">
        <ele>696.59997558594</ele>
        <time>2021-02-20T10:23:31.000Z</time>
      </trkpt>
      <trkpt lat="43.89428" lon="7.44675">
        <ele>697.40002441406</ele>
        <time>2021-02-20T10:23:34.000Z</time>
      </trkpt>
      <trkpt lat="43.89428" lon="7.44676">
        <ele>697.79998779297</ele>
        <time>2021-02-20T10:23:38.000Z</time>
      </trkpt>
      <trkpt lat="43.89425" lon="7.44681">
        <ele>697.79998779297</ele>
        <time>2021-02-20T10:23:44.000Z</time>
      </trkpt>
      <trkpt lat="43.89417" lon="7.44694">
        <ele>698.40002441406</ele>
        <time>2021-02-20T10:23:50.000Z</time>
      </trkpt>
      <trkpt lat="43.89417" lon="7.44696">
        <ele>698.59997558594</ele>
        <time>2021-02-20T10:23:51.000Z</time>
      </trkpt>
      <trkpt lat="43.89422" lon="7.44695">
        <ele>699.20001220703</ele>
        <time>2021-02-20T10:23:54.000Z</time>
      </trkpt>
      <trkpt lat="43.89427" lon="7.44689">
        <ele>699.59997558594</ele>
        <time>2021-02-20T10:23:57.000Z</time>
      </trkpt>
      <trkpt lat="43.89431" lon="7.44683">
        <ele>700.20001220703</ele>
        <time>2021-02-20T10:23:59.000Z</time>
      </trkpt>
      <trkpt lat="43.89435" lon="7.4468">
        <ele>700.79998779297</ele>
        <time>2021-02-20T10:24:01.000Z</time>
      </trkpt>
      <trkpt lat="43.89439" lon="7.44679">
        <ele>701.40002441406</ele>
        <time>2021-02-20T10:24:03.000Z</time>
      </trkpt>
      <trkpt lat="43.89441" lon="7.44678">
        <ele>702</ele>
        <time>2021-02-20T10:24:04.000Z</time>
      </trkpt>
      <trkpt lat="43.89445" lon="7.44674">
        <ele>703</ele>
        <time>2021-02-20T10:24:06.000Z</time>
      </trkpt>
      <trkpt lat="43.89448" lon="7.4467">
        <ele>704.20001220703</ele>
        <time>2021-02-20T10:24:08.000Z</time>
      </trkpt>
      <trkpt lat="43.8945" lon="7.44664">
        <ele>705.59997558594</ele>
        <time>2021-02-20T10:24:12.000Z</time>
      </trkpt>
      <trkpt lat="43.89454" lon="7.44658">
        <ele>706.40002441406</ele>
        <time>2021-02-20T10:24:15.000Z</time>
      </trkpt>
      <trkpt lat="43.89455" lon="7.44655">
        <ele>706.59997558594</ele>
        <time>2021-02-20T10:24:16.000Z</time>
      </trkpt>
      <trkpt lat="43.89463" lon="7.44641">
        <ele>707</ele>
        <time>2021-02-20T10:24:21.000Z</time>
      </trkpt>
      <trkpt lat="43.89465" lon="7.44634">
        <ele>708</ele>
        <time>2021-02-20T10:24:23.000Z</time>
      </trkpt>
      <trkpt lat="43.89467" lon="7.4463">
        <ele>709</ele>
        <time>2021-02-20T10:24:25.000Z</time>
      </trkpt>
      <trkpt lat="43.89468" lon="7.44628">
        <ele>709.40002441406</ele>
        <time>2021-02-20T10:24:26.000Z</time>
      </trkpt>
      <trkpt lat="43.89471" lon="7.44622">
        <ele>710</ele>
        <time>2021-02-20T10:24:28.000Z</time>
      </trkpt>
      <trkpt lat="43.89475" lon="7.44614">
        <ele>710.79998779297</ele>
        <time>2021-02-20T10:24:31.000Z</time>
      </trkpt>
      <trkpt lat="43.89477" lon="7.44612">
        <ele>711</ele>
        <time>2021-02-20T10:24:32.000Z</time>
      </trkpt>
      <trkpt lat="43.89484" lon="7.44605">
        <ele>711.79998779297</ele>
        <time>2021-02-20T10:24:36.000Z</time>
      </trkpt>
      <trkpt lat="43.89487" lon="7.44605">
        <ele>712.40002441406</ele>
        <time>2021-02-20T10:24:37.000Z</time>
      </trkpt>
      <trkpt lat="43.89493" lon="7.44605">
        <ele>713.40002441406</ele>
        <time>2021-02-20T10:24:40.000Z</time>
      </trkpt>
      <trkpt lat="43.89495" lon="7.44605">
        <ele>713.79998779297</ele>
        <time>2021-02-20T10:24:41.000Z</time>
      </trkpt>
      <trkpt lat="43.89499" lon="7.44606">
        <ele>714.59997558594</ele>
        <time>2021-02-20T10:24:43.000Z</time>
      </trkpt>
      <trkpt lat="43.89506" lon="7.44603">
        <ele>715.59997558594</ele>
        <time>2021-02-20T10:24:46.000Z</time>
      </trkpt>
      <trkpt lat="43.89508" lon="7.44604">
        <ele>715.79998779297</ele>
        <time>2021-02-20T10:24:47.000Z</time>
      </trkpt>
      <trkpt lat="43.89514" lon="7.44599">
        <ele>716.79998779297</ele>
        <time>2021-02-20T10:24:50.000Z</time>
      </trkpt>
      <trkpt lat="43.89518" lon="7.44597">
        <ele>717.59997558594</ele>
        <time>2021-02-20T10:24:52.000Z</time>
      </trkpt>
      <trkpt lat="43.89523" lon="7.44595">
        <ele>718</ele>
        <time>2021-02-20T10:24:54.000Z</time>
      </trkpt>
      <trkpt lat="43.89529" lon="7.44594">
        <ele>718.79998779297</ele>
        <time>2021-02-20T10:24:57.000Z</time>
      </trkpt>
      <trkpt lat="43.89532" lon="7.44596">
        <ele>719.20001220703</ele>
        <time>2021-02-20T10:24:58.000Z</time>
      </trkpt>
      <trkpt lat="43.89536" lon="7.44599">
        <ele>720.40002441406</ele>
        <time>2021-02-20T10:25:01.000Z</time>
      </trkpt>
      <trkpt lat="43.89539" lon="7.446">
        <ele>721.20001220703</ele>
        <time>2021-02-20T10:25:03.000Z</time>
      </trkpt>
      <trkpt lat="43.8954" lon="7.446">
        <ele>721.40002441406</ele>
        <time>2021-02-20T10:25:04.000Z</time>
      </trkpt>
      <trkpt lat="43.8954" lon="7.446">
        <ele>722</ele>
        <time>2021-02-20T10:25:07.000Z</time>
      </trkpt>
      <trkpt lat="43.8954" lon="7.44599">
        <ele>722.40002441406</ele>
        <time>2021-02-20T10:25:18.000Z</time>
      </trkpt>
      <trkpt lat="43.89541" lon="7.44598">
        <ele>722.20001220703</ele>
        <time>2021-02-20T10:25:25.000Z</time>
      </trkpt>
      <trkpt lat="43.89539" lon="7.44594">
        <ele>722.20001220703</ele>
        <time>2021-02-20T10:25:35.000Z</time>
      </trkpt>
      <trkpt lat="43.8954" lon="7.44593">
        <ele>722</ele>
        <time>2021-02-20T10:25:47.000Z</time>
      </trkpt>
      <trkpt lat="43.89543" lon="7.44595">
        <ele>722</ele>
        <time>2021-02-20T10:25:52.000Z</time>
      </trkpt>
      <trkpt lat="43.8955" lon="7.44602">
        <ele>722</ele>
        <time>2021-02-20T10:25:58.000Z</time>
      </trkpt>
      <trkpt lat="43.8955" lon="7.44602">
        <ele>722</ele>
        <time>2021-02-20T10:26:05.000Z</time>
      </trkpt>
      <trkpt lat="43.89555" lon="7.44604">
        <ele>722</ele>
        <time>2021-02-20T10:26:15.000Z</time>
      </trkpt>
      <trkpt lat="43.89549" lon="7.44599">
        <ele>721.79998779297</ele>
        <time>2021-02-20T10:26:22.000Z</time>
      </trkpt>
      <trkpt lat="43.89547" lon="7.44592">
        <ele>721.79998779297</ele>
        <time>2021-02-20T10:26:26.000Z</time>
      </trkpt>
      <trkpt lat="43.89548" lon="7.44592">
        <ele>721.79998779297</ele>
        <time>2021-02-20T10:26:34.000Z</time>
      </trkpt>
      <trkpt lat="43.89552" lon="7.44597">
        <ele>721.59997558594</ele>
        <time>2021-02-20T10:26:40.000Z</time>
      </trkpt>
      <trkpt lat="43.89546" lon="7.44591">
        <ele>721.79998779297</ele>
        <time>2021-02-20T10:26:47.000Z</time>
      </trkpt>
      <trkpt lat="43.89546" lon="7.44592">
        <ele>721.40002441406</ele>
        <time>2021-02-20T10:27:01.000Z</time>
      </trkpt>
      <trkpt lat="43.89546" lon="7.44592">
        <ele>721.40002441406</ele>
        <time>2021-02-20T10:27:02.000Z</time>
      </trkpt>
      <trkpt lat="43.89546" lon="7.44588">
        <ele>721.20001220703</ele>
        <time>2021-02-20T10:27:19.000Z</time>
      </trkpt>
      <trkpt lat="43.89546" lon="7.44586">
        <ele>721.40002441406</ele>
        <time>2021-02-20T10:27:26.000Z</time>
      </trkpt>
      <trkpt lat="43.89545" lon="7.44586">
        <ele>721.20001220703</ele>
        <time>2021-02-20T10:27:42.000Z</time>
      </trkpt>
      <trkpt lat="43.89545" lon="7.44587">
        <ele>721.20001220703</ele>
        <time>2021-02-20T10:27:56.000Z</time>
      </trkpt>
      <trkpt lat="43.89545" lon="7.44587">
        <ele>721</ele>
        <time>2021-02-20T10:28:09.000Z</time>
      </trkpt>
      <trkpt lat="43.89544" lon="7.44587">
        <ele>721</ele>
        <time>2021-02-20T10:28:26.000Z</time>
      </trkpt>
      <trkpt lat="43.89543" lon="7.44586">
        <ele>721</ele>
        <time>2021-02-20T10:28:37.000Z</time>
      </trkpt>
      <trkpt lat="43.89545" lon="7.44588">
        <ele>721</ele>
        <time>2021-02-20T10:28:54.000Z</time>
      </trkpt>
      <trkpt lat="43.89548" lon="7.44591">
        <ele>721.40002441406</ele>
        <time>2021-02-20T10:29:06.000Z</time>
      </trkpt>
      <trkpt lat="43.89549" lon="7.44591">
        <ele>721.20001220703</ele>
        <time>2021-02-20T10:29:16.000Z</time>
      </trkpt>
      <trkpt lat="43.89548" lon="7.44586">
        <ele>721.20001220703</ele>
        <time>2021-02-20T10:29:27.000Z</time>
      </trkpt>
      <trkpt lat="43.89549" lon="7.44585">
        <ele>721.20001220703</ele>
        <time>2021-02-20T10:29:40.000Z</time>
      </trkpt>
      <trkpt lat="43.89549" lon="7.44585">
        <ele>721.40002441406</ele>
        <time>2021-02-20T10:29:51.000Z</time>
      </trkpt>
      <trkpt lat="43.89549" lon="7.44587">
        <ele>721.40002441406</ele>
        <time>2021-02-20T10:30:01.000Z</time>
      </trkpt>
      <trkpt lat="43.89549" lon="7.44588">
        <ele>721.20001220703</ele>
        <time>2021-02-20T10:30:10.000Z</time>
      </trkpt>
      <trkpt lat="43.89546" lon="7.44589">
        <ele>721.20001220703</ele>
        <time>2021-02-20T10:30:22.000Z</time>
      </trkpt>
      <trkpt lat="43.89546" lon="7.4459">
        <ele>720.79998779297</ele>
        <time>2021-02-20T10:30:32.000Z</time>
      </trkpt>
      <trkpt lat="43.89547" lon="7.44592">
        <ele>721.20001220703</ele>
        <time>2021-02-20T10:30:42.000Z</time>
      </trkpt>
      <trkpt lat="43.89547" lon="7.44592">
        <ele>721.20001220703</ele>
        <time>2021-02-20T10:30:51.000Z</time>
      </trkpt>
      <trkpt lat="43.89546" lon="7.44591">
        <ele>721.20001220703</ele>
        <time>2021-02-20T10:30:58.000Z</time>
      </trkpt>
      <trkpt lat="43.89547" lon="7.44594">
        <ele>721.20001220703</ele>
        <time>2021-02-20T10:31:05.000Z</time>
      </trkpt>
      <trkpt lat="43.89549" lon="7.44597">
        <ele>721.20001220703</ele>
        <time>2021-02-20T10:31:15.000Z</time>
      </trkpt>
      <trkpt lat="43.89549" lon="7.44596">
        <ele>721.20001220703</ele>
        <time>2021-02-20T10:31:23.000Z</time>
      </trkpt>
      <trkpt lat="43.89549" lon="7.44597">
        <ele>721.40002441406</ele>
        <time>2021-02-20T10:31:33.000Z</time>
      </trkpt>
      <trkpt lat="43.89548" lon="7.44595">
        <ele>721.20001220703</ele>
        <time>2021-02-20T10:31:39.000Z</time>
      </trkpt>
      <trkpt lat="43.89548" lon="7.44592">
        <ele>721.59997558594</ele>
        <time>2021-02-20T10:31:50.000Z</time>
      </trkpt>
      <trkpt lat="43.89548" lon="7.4459">
        <ele>721.40002441406</ele>
        <time>2021-02-20T10:31:58.000Z</time>
      </trkpt>
      <trkpt lat="43.89545" lon="7.44584">
        <ele>721.40002441406</ele>
        <time>2021-02-20T10:32:04.000Z</time>
      </trkpt>
      <trkpt lat="43.89548" lon="7.44586">
        <ele>721.40002441406</ele>
        <time>2021-02-20T10:32:06.000Z</time>
      </trkpt>
      <trkpt lat="43.89548" lon="7.44587">
        <ele>721.40002441406</ele>
        <time>2021-02-20T10:32:09.000Z</time>
      </trkpt>
      <trkpt lat="43.89549" lon="7.44591">
        <ele>721.40002441406</ele>
        <time>2021-02-20T10:32:15.000Z</time>
      </trkpt>
      <trkpt lat="43.89549" lon="7.44593">
        <ele>721.40002441406</ele>
        <time>2021-02-20T10:32:24.000Z</time>
      </trkpt>
      <trkpt lat="43.89548" lon="7.44591">
        <ele>721.40002441406</ele>
        <time>2021-02-20T10:32:32.000Z</time>
      </trkpt>
      <trkpt lat="43.89548" lon="7.44591">
        <ele>721.20001220703</ele>
        <time>2021-02-20T10:32:40.000Z</time>
      </trkpt>
      <trkpt lat="43.89548" lon="7.44594">
        <ele>721.59997558594</ele>
        <time>2021-02-20T10:32:47.000Z</time>
      </trkpt>
      <trkpt lat="43.89549" lon="7.44593">
        <ele>721.79998779297</ele>
        <time>2021-02-20T10:32:58.000Z</time>
      </trkpt>
      <trkpt lat="43.89558" lon="7.44591">
        <ele>722.20001220703</ele>
        <time>2021-02-20T10:33:03.000Z</time>
      </trkpt>
      <trkpt lat="43.89559" lon="7.4459">
        <ele>722.59997558594</ele>
        <time>2021-02-20T10:33:04.000Z</time>
      </trkpt>
      <trkpt lat="43.89563" lon="7.44589">
        <ele>722.79998779297</ele>
        <time>2021-02-20T10:33:06.000Z</time>
      </trkpt>
      <trkpt lat="43.89569" lon="7.44586">
        <ele>723.59997558594</ele>
        <time>2021-02-20T10:33:09.000Z</time>
      </trkpt>
      <trkpt lat="43.89571" lon="7.44585">
        <ele>724.59997558594</ele>
        <time>2021-02-20T10:33:11.000Z</time>
      </trkpt>
      <trkpt lat="43.89571" lon="7.44584">
        <ele>724.79998779297</ele>
        <time>2021-02-20T10:33:12.000Z</time>
      </trkpt>
      <trkpt lat="43.89575" lon="7.44581">
        <ele>726.20001220703</ele>
        <time>2021-02-20T10:33:15.000Z</time>
      </trkpt>
      <trkpt lat="43.89577" lon="7.44579">
        <ele>726.59997558594</ele>
        <time>2021-02-20T10:33:16.000Z</time>
      </trkpt>
      <trkpt lat="43.89584" lon="7.4457">
        <ele>727.20001220703</ele>
        <time>2021-02-20T10:33:20.000Z</time>
      </trkpt>
      <trkpt lat="43.89587" lon="7.44566">
        <ele>727.59997558594</ele>
        <time>2021-02-20T10:33:22.000Z</time>
      </trkpt>
      <trkpt lat="43.89592" lon="7.44554">
        <ele>728.59997558594</ele>
        <time>2021-02-20T10:33:26.000Z</time>
      </trkpt>
      <trkpt lat="43.89594" lon="7.44548">
        <ele>728.79998779297</ele>
        <time>2021-02-20T10:33:28.000Z</time>
      </trkpt>
      <trkpt lat="43.896" lon="7.44538">
        <ele>729.79998779297</ele>
        <time>2021-02-20T10:33:32.000Z</time>
      </trkpt>
      <trkpt lat="43.89602" lon="7.44532">
        <ele>730.79998779297</ele>
        <time>2021-02-20T10:33:34.000Z</time>
      </trkpt>
      <trkpt lat="43.89603" lon="7.4453">
        <ele>731.20001220703</ele>
        <time>2021-02-20T10:33:35.000Z</time>
      </trkpt>
      <trkpt lat="43.89607" lon="7.44522">
        <ele>732.20001220703</ele>
        <time>2021-02-20T10:33:38.000Z</time>
      </trkpt>
      <trkpt lat="43.8961" lon="7.44517">
        <ele>732.79998779297</ele>
        <time>2021-02-20T10:33:40.000Z</time>
      </trkpt>
      <trkpt lat="43.89614" lon="7.44513">
        <ele>733.40002441406</ele>
        <time>2021-02-20T10:33:42.000Z</time>
      </trkpt>
      <trkpt lat="43.89619" lon="7.44503">
        <ele>734.59997558594</ele>
        <time>2021-02-20T10:33:46.000Z</time>
      </trkpt>
      <trkpt lat="43.89621" lon="7.44509">
        <ele>735.40002441406</ele>
        <time>2021-02-20T10:33:49.000Z</time>
      </trkpt>
      <trkpt lat="43.8962" lon="7.44511">
        <ele>736</ele>
        <time>2021-02-20T10:33:50.000Z</time>
      </trkpt>
      <trkpt lat="43.89617" lon="7.4452">
        <ele>736.79998779297</ele>
        <time>2021-02-20T10:33:53.000Z</time>
      </trkpt>
      <trkpt lat="43.89616" lon="7.44522">
        <ele>737</ele>
        <time>2021-02-20T10:33:54.000Z</time>
      </trkpt>
      <trkpt lat="43.89615" lon="7.44525">
        <ele>737.40002441406</ele>
        <time>2021-02-20T10:33:55.000Z</time>
      </trkpt>
      <trkpt lat="43.89614" lon="7.44532">
        <ele>738.20001220703</ele>
        <time>2021-02-20T10:33:58.000Z</time>
      </trkpt>
      <trkpt lat="43.89613" lon="7.44536">
        <ele>738.59997558594</ele>
        <time>2021-02-20T10:33:59.000Z</time>
      </trkpt>
      <trkpt lat="43.89611" lon="7.44545">
        <ele>739.40002441406</ele>
        <time>2021-02-20T10:34:02.000Z</time>
      </trkpt>
      <trkpt lat="43.89609" lon="7.44554">
        <ele>740.20001220703</ele>
        <time>2021-02-20T10:34:05.000Z</time>
      </trkpt>
      <trkpt lat="43.89609" lon="7.44557">
        <ele>740.59997558594</ele>
        <time>2021-02-20T10:34:06.000Z</time>
      </trkpt>
      <trkpt lat="43.89607" lon="7.44566">
        <ele>741.59997558594</ele>
        <time>2021-02-20T10:34:09.000Z</time>
      </trkpt>
      <trkpt lat="43.89606" lon="7.44569">
        <ele>742.20001220703</ele>
        <time>2021-02-20T10:34:10.000Z</time>
      </trkpt>
      <trkpt lat="43.89604" lon="7.44575">
        <ele>742.79998779297</ele>
        <time>2021-02-20T10:34:12.000Z</time>
      </trkpt>
      <trkpt lat="43.89601" lon="7.44583">
        <ele>744</ele>
        <time>2021-02-20T10:34:15.000Z</time>
      </trkpt>
      <trkpt lat="43.89599" lon="7.44585">
        <ele>744.40002441406</ele>
        <time>2021-02-20T10:34:16.000Z</time>
      </trkpt>
      <trkpt lat="43.89596" lon="7.44593">
        <ele>745.40002441406</ele>
        <time>2021-02-20T10:34:19.000Z</time>
      </trkpt>
      <trkpt lat="43.89592" lon="7.44598">
        <ele>745.59997558594</ele>
        <time>2021-02-20T10:34:22.000Z</time>
      </trkpt>
      <trkpt lat="43.89591" lon="7.446">
        <ele>746</ele>
        <time>2021-02-20T10:34:23.000Z</time>
      </trkpt>
      <trkpt lat="43.89592" lon="7.44602">
        <ele>746.40002441406</ele>
        <time>2021-02-20T10:34:25.000Z</time>
      </trkpt>
      <trkpt lat="43.89593" lon="7.44601">
        <ele>746.79998779297</ele>
        <time>2021-02-20T10:34:26.000Z</time>
      </trkpt>
      <trkpt lat="43.89596" lon="7.44597">
        <ele>747.59997558594</ele>
        <time>2021-02-20T10:34:28.000Z</time>
      </trkpt>
      <trkpt lat="43.89601" lon="7.44592">
        <ele>747.79998779297</ele>
        <time>2021-02-20T10:34:31.000Z</time>
      </trkpt>
      <trkpt lat="43.89605" lon="7.44588">
        <ele>749</ele>
        <time>2021-02-20T10:34:34.000Z</time>
      </trkpt>
      <trkpt lat="43.89608" lon="7.44582">
        <ele>750</ele>
        <time>2021-02-20T10:34:37.000Z</time>
      </trkpt>
      <trkpt lat="43.89615" lon="7.4457">
        <ele>751</ele>
        <time>2021-02-20T10:34:43.000Z</time>
      </trkpt>
      <trkpt lat="43.89618" lon="7.4456">
        <ele>752.59997558594</ele>
        <time>2021-02-20T10:34:47.000Z</time>
      </trkpt>
      <trkpt lat="43.8962" lon="7.44556">
        <ele>753.20001220703</ele>
        <time>2021-02-20T10:34:49.000Z</time>
      </trkpt>
      <trkpt lat="43.89623" lon="7.44552">
        <ele>753.79998779297</ele>
        <time>2021-02-20T10:34:51.000Z</time>
      </trkpt>
      <trkpt lat="43.89629" lon="7.44543">
        <ele>755</ele>
        <time>2021-02-20T10:34:56.000Z</time>
      </trkpt>
      <trkpt lat="43.8963" lon="7.44541">
        <ele>755</ele>
        <time>2021-02-20T10:34:57.000Z</time>
      </trkpt>
      <trkpt lat="43.89635" lon="7.44534">
        <ele>756</ele>
        <time>2021-02-20T10:35:01.000Z</time>
      </trkpt>
      <trkpt lat="43.89639" lon="7.44529">
        <ele>756.79998779297</ele>
        <time>2021-02-20T10:35:04.000Z</time>
      </trkpt>
      <trkpt lat="43.8964" lon="7.44528">
        <ele>757.20001220703</ele>
        <time>2021-02-20T10:35:05.000Z</time>
      </trkpt>
      <trkpt lat="43.89645" lon="7.44522">
        <ele>758.40002441406</ele>
        <time>2021-02-20T10:35:09.000Z</time>
      </trkpt>
      <trkpt lat="43.89649" lon="7.44517">
        <ele>759.40002441406</ele>
        <time>2021-02-20T10:35:12.000Z</time>
      </trkpt>
      <trkpt lat="43.89656" lon="7.44509">
        <ele>760.59997558594</ele>
        <time>2021-02-20T10:35:17.000Z</time>
      </trkpt>
      <trkpt lat="43.89659" lon="7.44503">
        <ele>761.20001220703</ele>
        <time>2021-02-20T10:35:20.000Z</time>
      </trkpt>
      <trkpt lat="43.89661" lon="7.44502">
        <ele>761.59997558594</ele>
        <time>2021-02-20T10:35:21.000Z</time>
      </trkpt>
      <trkpt lat="43.89668" lon="7.44494">
        <ele>762.79998779297</ele>
        <time>2021-02-20T10:35:26.000Z</time>
      </trkpt>
      <trkpt lat="43.89678" lon="7.44486">
        <ele>764</ele>
        <time>2021-02-20T10:35:32.000Z</time>
      </trkpt>
      <trkpt lat="43.89679" lon="7.44485">
        <ele>764.20001220703</ele>
        <time>2021-02-20T10:35:33.000Z</time>
      </trkpt>
      <trkpt lat="43.89686" lon="7.44479">
        <ele>765.20001220703</ele>
        <time>2021-02-20T10:35:37.000Z</time>
      </trkpt>
      <trkpt lat="43.89691" lon="7.44475">
        <ele>766</ele>
        <time>2021-02-20T10:35:41.000Z</time>
      </trkpt>
      <trkpt lat="43.89693" lon="7.44474">
        <ele>766.40002441406</ele>
        <time>2021-02-20T10:35:42.000Z</time>
      </trkpt>
      <trkpt lat="43.897" lon="7.44469">
        <ele>767.20001220703</ele>
        <time>2021-02-20T10:35:46.000Z</time>
      </trkpt>
      <trkpt lat="43.89701" lon="7.44468">
        <ele>767.40002441406</ele>
        <time>2021-02-20T10:35:47.000Z</time>
      </trkpt>
      <trkpt lat="43.8971" lon="7.44464">
        <ele>768.59997558594</ele>
        <time>2021-02-20T10:35:52.000Z</time>
      </trkpt>
      <trkpt lat="43.89712" lon="7.44463">
        <ele>768.79998779297</ele>
        <time>2021-02-20T10:35:53.000Z</time>
      </trkpt>
      <trkpt lat="43.89716" lon="7.44462">
        <ele>769.40002441406</ele>
        <time>2021-02-20T10:35:55.000Z</time>
      </trkpt>
      <trkpt lat="43.89718" lon="7.44462">
        <ele>769.79998779297</ele>
        <time>2021-02-20T10:35:56.000Z</time>
      </trkpt>
      <trkpt lat="43.89721" lon="7.4446">
        <ele>770.59997558594</ele>
        <time>2021-02-20T10:35:58.000Z</time>
      </trkpt>
      <trkpt lat="43.89725" lon="7.44457">
        <ele>771</ele>
        <time>2021-02-20T10:36:00.000Z</time>
      </trkpt>
      <trkpt lat="43.89732" lon="7.44452">
        <ele>772.20001220703</ele>
        <time>2021-02-20T10:36:04.000Z</time>
      </trkpt>
      <trkpt lat="43.89736" lon="7.4445">
        <ele>772.40002441406</ele>
        <time>2021-02-20T10:36:06.000Z</time>
      </trkpt>
      <trkpt lat="43.89741" lon="7.44448">
        <ele>773.20001220703</ele>
        <time>2021-02-20T10:36:09.000Z</time>
      </trkpt>
      <trkpt lat="43.89747" lon="7.44447">
        <ele>774.20001220703</ele>
        <time>2021-02-20T10:36:13.000Z</time>
      </trkpt>
      <trkpt lat="43.89753" lon="7.44443">
        <ele>775.40002441406</ele>
        <time>2021-02-20T10:36:17.000Z</time>
      </trkpt>
      <trkpt lat="43.89756" lon="7.44441">
        <ele>775.79998779297</ele>
        <time>2021-02-20T10:36:19.000Z</time>
      </trkpt>
      <trkpt lat="43.89763" lon="7.44441">
        <ele>776.59997558594</ele>
        <time>2021-02-20T10:36:23.000Z</time>
      </trkpt>
      <trkpt lat="43.89769" lon="7.44435">
        <ele>778</ele>
        <time>2021-02-20T10:36:28.000Z</time>
      </trkpt>
      <trkpt lat="43.8977" lon="7.44435">
        <ele>778.20001220703</ele>
        <time>2021-02-20T10:36:29.000Z</time>
      </trkpt>
      <trkpt lat="43.89771" lon="7.44434">
        <ele>778.59997558594</ele>
        <time>2021-02-20T10:36:30.000Z</time>
      </trkpt>
      <trkpt lat="43.89773" lon="7.44434">
        <ele>779.20001220703</ele>
        <time>2021-02-20T10:36:32.000Z</time>
      </trkpt>
      <trkpt lat="43.89775" lon="7.44431">
        <ele>779.20001220703</ele>
        <time>2021-02-20T10:36:37.000Z</time>
      </trkpt>
      <trkpt lat="43.89776" lon="7.4443">
        <ele>779.20001220703</ele>
        <time>2021-02-20T10:36:43.000Z</time>
      </trkpt>
      <trkpt lat="43.89775" lon="7.44431">
        <ele>779.20001220703</ele>
        <time>2021-02-20T10:36:49.000Z</time>
      </trkpt>
      <trkpt lat="43.89775" lon="7.44431">
        <ele>779</ele>
        <time>2021-02-20T10:37:01.000Z</time>
      </trkpt>
      <trkpt lat="43.89776" lon="7.44431">
        <ele>778.79998779297</ele>
        <time>2021-02-20T10:37:20.000Z</time>
      </trkpt>
      <trkpt lat="43.89776" lon="7.44431">
        <ele>779</ele>
        <time>2021-02-20T10:37:27.000Z</time>
      </trkpt>
      <trkpt lat="43.89776" lon="7.4443">
        <ele>778.59997558594</ele>
        <time>2021-02-20T10:37:33.000Z</time>
      </trkpt>
      <trkpt lat="43.89778" lon="7.4443">
        <ele>778.59997558594</ele>
        <time>2021-02-20T10:37:46.000Z</time>
      </trkpt>
      <trkpt lat="43.89781" lon="7.4443">
        <ele>778.40002441406</ele>
        <time>2021-02-20T10:37:49.000Z</time>
      </trkpt>
      <trkpt lat="43.89785" lon="7.44429">
        <ele>778.40002441406</ele>
        <time>2021-02-20T10:37:52.000Z</time>
      </trkpt>
      <trkpt lat="43.89793" lon="7.44429">
        <ele>778.20001220703</ele>
        <time>2021-02-20T10:37:58.000Z</time>
      </trkpt>
      <trkpt lat="43.89801" lon="7.44426">
        <ele>778</ele>
        <time>2021-02-20T10:38:04.000Z</time>
      </trkpt>
      <trkpt lat="43.89808" lon="7.44425">
        <ele>778</ele>
        <time>2021-02-20T10:38:11.000Z</time>
      </trkpt>
      <trkpt lat="43.89814" lon="7.44425">
        <ele>778</ele>
        <time>2021-02-20T10:38:17.000Z</time>
      </trkpt>
      <trkpt lat="43.89821" lon="7.44422">
        <ele>778</ele>
        <time>2021-02-20T10:38:24.000Z</time>
      </trkpt>
      <trkpt lat="43.8983" lon="7.4442">
        <ele>777.79998779297</ele>
        <time>2021-02-20T10:38:30.000Z</time>
      </trkpt>
      <trkpt lat="43.89842" lon="7.44414">
        <ele>777.79998779297</ele>
        <time>2021-02-20T10:38:37.000Z</time>
      </trkpt>
      <trkpt lat="43.89853" lon="7.4441">
        <ele>777.79998779297</ele>
        <time>2021-02-20T10:38:43.000Z</time>
      </trkpt>
      <trkpt lat="43.89862" lon="7.44406">
        <ele>777.79998779297</ele>
        <time>2021-02-20T10:38:48.000Z</time>
      </trkpt>
      <trkpt lat="43.89871" lon="7.44404">
        <ele>777.59997558594</ele>
        <time>2021-02-20T10:38:53.000Z</time>
      </trkpt>
      <trkpt lat="43.89884" lon="7.44404">
        <ele>777.20001220703</ele>
        <time>2021-02-20T10:38:59.000Z</time>
      </trkpt>
      <trkpt lat="43.89902" lon="7.44402">
        <ele>777.20001220703</ele>
        <time>2021-02-20T10:39:06.000Z</time>
      </trkpt>
      <trkpt lat="43.89904" lon="7.44402">
        <ele>777</ele>
        <time>2021-02-20T10:39:07.000Z</time>
      </trkpt>
      <trkpt lat="43.89922" lon="7.44407">
        <ele>776.79998779297</ele>
        <time>2021-02-20T10:39:14.000Z</time>
      </trkpt>
      <trkpt lat="43.89941" lon="7.44416">
        <ele>776.40002441406</ele>
        <time>2021-02-20T10:39:21.000Z</time>
      </trkpt>
      <trkpt lat="43.89962" lon="7.44427">
        <ele>776.20001220703</ele>
        <time>2021-02-20T10:39:29.000Z</time>
      </trkpt>
      <trkpt lat="43.89965" lon="7.44428">
        <ele>776</ele>
        <time>2021-02-20T10:39:30.000Z</time>
      </trkpt>
      <trkpt lat="43.89992" lon="7.44431">
        <ele>775.59997558594</ele>
        <time>2021-02-20T10:39:38.000Z</time>
      </trkpt>
      <trkpt lat="43.90007" lon="7.4443">
        <ele>775.40002441406</ele>
        <time>2021-02-20T10:39:43.000Z</time>
      </trkpt>
      <trkpt lat="43.90026" lon="7.4443">
        <ele>775</ele>
        <time>2021-02-20T10:39:50.000Z</time>
      </trkpt>
      <trkpt lat="43.90029" lon="7.4443">
        <ele>775</ele>
        <time>2021-02-20T10:39:51.000Z</time>
      </trkpt>
      <trkpt lat="43.90048" lon="7.44427">
        <ele>774.59997558594</ele>
        <time>2021-02-20T10:39:58.000Z</time>
      </trkpt>
      <trkpt lat="43.90059" lon="7.44421">
        <ele>774.40002441406</ele>
        <time>2021-02-20T10:40:03.000Z</time>
      </trkpt>
      <trkpt lat="43.90081" lon="7.4441">
        <ele>774.20001220703</ele>
        <time>2021-02-20T10:40:11.000Z</time>
      </trkpt>
      <trkpt lat="43.90097" lon="7.444">
        <ele>774</ele>
        <time>2021-02-20T10:40:17.000Z</time>
      </trkpt>
      <trkpt lat="43.90116" lon="7.44392">
        <ele>774.20001220703</ele>
        <time>2021-02-20T10:40:24.000Z</time>
      </trkpt>
      <trkpt lat="43.90132" lon="7.44386">
        <ele>773.79998779297</ele>
        <time>2021-02-20T10:40:30.000Z</time>
      </trkpt>
      <trkpt lat="43.90151" lon="7.44385">
        <ele>773.40002441406</ele>
        <time>2021-02-20T10:40:36.000Z</time>
      </trkpt>
      <trkpt lat="43.90174" lon="7.44384">
        <ele>773.20001220703</ele>
        <time>2021-02-20T10:40:44.000Z</time>
      </trkpt>
      <trkpt lat="43.90196" lon="7.4438">
        <ele>773</ele>
        <time>2021-02-20T10:40:51.000Z</time>
      </trkpt>
      <trkpt lat="43.90202" lon="7.44379">
        <ele>772.79998779297</ele>
        <time>2021-02-20T10:40:53.000Z</time>
      </trkpt>
      <trkpt lat="43.90219" lon="7.44382">
        <ele>772.59997558594</ele>
        <time>2021-02-20T10:40:58.000Z</time>
      </trkpt>
      <trkpt lat="43.90245" lon="7.44391">
        <ele>772.40002441406</ele>
        <time>2021-02-20T10:41:06.000Z</time>
      </trkpt>
      <trkpt lat="43.90262" lon="7.44398">
        <ele>771.79998779297</ele>
        <time>2021-02-20T10:41:11.000Z</time>
      </trkpt>
      <trkpt lat="43.90274" lon="7.44403">
        <ele>771.59997558594</ele>
        <time>2021-02-20T10:41:15.000Z</time>
      </trkpt>
      <trkpt lat="43.90303" lon="7.44419">
        <ele>771.79998779297</ele>
        <time>2021-02-20T10:41:24.000Z</time>
      </trkpt>
      <trkpt lat="43.90326" lon="7.44428">
        <ele>772.40002441406</ele>
        <time>2021-02-20T10:41:32.000Z</time>
      </trkpt>
      <trkpt lat="43.90337" lon="7.44431">
        <ele>772.79998779297</ele>
        <time>2021-02-20T10:41:36.000Z</time>
      </trkpt>
      <trkpt lat="43.90356" lon="7.44434">
        <ele>773.79998779297</ele>
        <time>2021-02-20T10:41:43.000Z</time>
      </trkpt>
      <trkpt lat="43.90361" lon="7.44434">
        <ele>774</ele>
        <time>2021-02-20T10:41:45.000Z</time>
      </trkpt>
      <trkpt lat="43.9037" lon="7.44435">
        <ele>774.79998779297</ele>
        <time>2021-02-20T10:41:49.000Z</time>
      </trkpt>
      <trkpt lat="43.90375" lon="7.44435">
        <ele>775.20001220703</ele>
        <time>2021-02-20T10:41:51.000Z</time>
      </trkpt>
      <trkpt lat="43.90384" lon="7.44438">
        <ele>775.59997558594</ele>
        <time>2021-02-20T10:41:55.000Z</time>
      </trkpt>
      <trkpt lat="43.90392" lon="7.4444">
        <ele>776.20001220703</ele>
        <time>2021-02-20T10:41:58.000Z</time>
      </trkpt>
      <trkpt lat="43.90401" lon="7.44443">
        <ele>776.59997558594</ele>
        <time>2021-02-20T10:42:02.000Z</time>
      </trkpt>
      <trkpt lat="43.90411" lon="7.44447">
        <ele>777.20001220703</ele>
        <time>2021-02-20T10:42:06.000Z</time>
      </trkpt>
      <trkpt lat="43.90422" lon="7.44453">
        <ele>778</ele>
        <time>2021-02-20T10:42:11.000Z</time>
      </trkpt>
      <trkpt lat="43.90425" lon="7.44455">
        <ele>778.20001220703</ele>
        <time>2021-02-20T10:42:12.000Z</time>
      </trkpt>
      <trkpt lat="43.9044" lon="7.44466">
        <ele>779.20001220703</ele>
        <time>2021-02-20T10:42:19.000Z</time>
      </trkpt>
      <trkpt lat="43.90442" lon="7.44468">
        <ele>779.20001220703</ele>
        <time>2021-02-20T10:42:20.000Z</time>
      </trkpt>
      <trkpt lat="43.90456" lon="7.44481">
        <ele>780.20001220703</ele>
        <time>2021-02-20T10:42:26.000Z</time>
      </trkpt>
      <trkpt lat="43.90458" lon="7.44483">
        <ele>780.40002441406</ele>
        <time>2021-02-20T10:42:27.000Z</time>
      </trkpt>
      <trkpt lat="43.9047" lon="7.44495">
        <ele>781.40002441406</ele>
        <time>2021-02-20T10:42:33.000Z</time>
      </trkpt>
      <trkpt lat="43.90478" lon="7.44503">
        <ele>782.20001220703</ele>
        <time>2021-02-20T10:42:37.000Z</time>
      </trkpt>
      <trkpt lat="43.90483" lon="7.44507">
        <ele>782.59997558594</ele>
        <time>2021-02-20T10:42:39.000Z</time>
      </trkpt>
      <trkpt lat="43.90496" lon="7.44519">
        <ele>783.59997558594</ele>
        <time>2021-02-20T10:42:45.000Z</time>
      </trkpt>
      <trkpt lat="43.905" lon="7.44523">
        <ele>784</ele>
        <time>2021-02-20T10:42:47.000Z</time>
      </trkpt>
      <trkpt lat="43.90512" lon="7.44533">
        <ele>784.59997558594</ele>
        <time>2021-02-20T10:42:52.000Z</time>
      </trkpt>
      <trkpt lat="43.9052" lon="7.4454">
        <ele>785.20001220703</ele>
        <time>2021-02-20T10:42:56.000Z</time>
      </trkpt>
      <trkpt lat="43.90526" lon="7.44546">
        <ele>785.79998779297</ele>
        <time>2021-02-20T10:42:59.000Z</time>
      </trkpt>
      <trkpt lat="43.90537" lon="7.44553">
        <ele>787</ele>
        <time>2021-02-20T10:43:04.000Z</time>
      </trkpt>
      <trkpt lat="43.90539" lon="7.44554">
        <ele>787.20001220703</ele>
        <time>2021-02-20T10:43:05.000Z</time>
      </trkpt>
      <trkpt lat="43.90549" lon="7.4456">
        <ele>788</ele>
        <time>2021-02-20T10:43:10.000Z</time>
      </trkpt>
      <trkpt lat="43.90558" lon="7.4456">
        <ele>788.79998779297</ele>
        <time>2021-02-20T10:43:14.000Z</time>
      </trkpt>
      <trkpt lat="43.90562" lon="7.44557">
        <ele>789.20001220703</ele>
        <time>2021-02-20T10:43:16.000Z</time>
      </trkpt>
      <trkpt lat="43.90569" lon="7.44549">
        <ele>789.79998779297</ele>
        <time>2021-02-20T10:43:20.000Z</time>
      </trkpt>
      <trkpt lat="43.90573" lon="7.44542">
        <ele>790.20001220703</ele>
        <time>2021-02-20T10:43:23.000Z</time>
      </trkpt>
      <trkpt lat="43.90577" lon="7.44535">
        <ele>790.59997558594</ele>
        <time>2021-02-20T10:43:26.000Z</time>
      </trkpt>
      <trkpt lat="43.90586" lon="7.44526">
        <ele>791.40002441406</ele>
        <time>2021-02-20T10:43:31.000Z</time>
      </trkpt>
      <trkpt lat="43.90586" lon="7.44524">
        <ele>791.40002441406</ele>
        <time>2021-02-20T10:43:32.000Z</time>
      </trkpt>
      <trkpt lat="43.9059" lon="7.4452">
        <ele>791.79998779297</ele>
        <time>2021-02-20T10:43:34.000Z</time>
      </trkpt>
      <trkpt lat="43.90595" lon="7.44513">
        <ele>792.40002441406</ele>
        <time>2021-02-20T10:43:37.000Z</time>
      </trkpt>
      <trkpt lat="43.90599" lon="7.4451">
        <ele>792.79998779297</ele>
        <time>2021-02-20T10:43:39.000Z</time>
      </trkpt>
      <trkpt lat="43.9061" lon="7.44497">
        <ele>793.20001220703</ele>
        <time>2021-02-20T10:43:45.000Z</time>
      </trkpt>
      <trkpt lat="43.90615" lon="7.4449">
        <ele>793.59997558594</ele>
        <time>2021-02-20T10:43:48.000Z</time>
      </trkpt>
      <trkpt lat="43.90623" lon="7.4448">
        <ele>794.40002441406</ele>
        <time>2021-02-20T10:43:53.000Z</time>
      </trkpt>
      <trkpt lat="43.90625" lon="7.44478">
        <ele>794.59997558594</ele>
        <time>2021-02-20T10:43:54.000Z</time>
      </trkpt>
      <trkpt lat="43.90637" lon="7.44461">
        <ele>795.40002441406</ele>
        <time>2021-02-20T10:44:01.000Z</time>
      </trkpt>
      <trkpt lat="43.9064" lon="7.44456">
        <ele>795.79998779297</ele>
        <time>2021-02-20T10:44:03.000Z</time>
      </trkpt>
      <trkpt lat="43.90648" lon="7.44442">
        <ele>796.59997558594</ele>
        <time>2021-02-20T10:44:09.000Z</time>
      </trkpt>
      <trkpt lat="43.90653" lon="7.44433">
        <ele>796.79998779297</ele>
        <time>2021-02-20T10:44:12.000Z</time>
      </trkpt>
      <trkpt lat="43.90656" lon="7.44428">
        <ele>797</ele>
        <time>2021-02-20T10:44:14.000Z</time>
      </trkpt>
      <trkpt lat="43.90655" lon="7.44424">
        <ele>797.20001220703</ele>
        <time>2021-02-20T10:44:15.000Z</time>
      </trkpt>
      <trkpt lat="43.90657" lon="7.44411">
        <ele>797.59997558594</ele>
        <time>2021-02-20T10:44:19.000Z</time>
      </trkpt>
      <trkpt lat="43.90658" lon="7.44408">
        <ele>797.79998779297</ele>
        <time>2021-02-20T10:44:20.000Z</time>
      </trkpt>
      <trkpt lat="43.9066" lon="7.44396">
        <ele>798.40002441406</ele>
        <time>2021-02-20T10:44:25.000Z</time>
      </trkpt>
      <trkpt lat="43.90663" lon="7.44385">
        <ele>798.79998779297</ele>
        <time>2021-02-20T10:44:29.000Z</time>
      </trkpt>
      <trkpt lat="43.90665" lon="7.44381">
        <ele>799.20001220703</ele>
        <time>2021-02-20T10:44:31.000Z</time>
      </trkpt>
      <trkpt lat="43.90663" lon="7.44374">
        <ele>799.40002441406</ele>
        <time>2021-02-20T10:44:33.000Z</time>
      </trkpt>
      <trkpt lat="43.90662" lon="7.44367">
        <ele>799.59997558594</ele>
        <time>2021-02-20T10:44:35.000Z</time>
      </trkpt>
      <trkpt lat="43.90661" lon="7.4436">
        <ele>800</ele>
        <time>2021-02-20T10:44:37.000Z</time>
      </trkpt>
      <trkpt lat="43.9066" lon="7.44352">
        <ele>800.40002441406</ele>
        <time>2021-02-20T10:44:40.000Z</time>
      </trkpt>
      <trkpt lat="43.90657" lon="7.44334">
        <ele>800.59997558594</ele>
        <time>2021-02-20T10:44:45.000Z</time>
      </trkpt>
      <trkpt lat="43.90654" lon="7.44321">
        <ele>801.20001220703</ele>
        <time>2021-02-20T10:44:49.000Z</time>
      </trkpt>
      <trkpt lat="43.90653" lon="7.44315">
        <ele>801.40002441406</ele>
        <time>2021-02-20T10:44:51.000Z</time>
      </trkpt>
      <trkpt lat="43.90649" lon="7.44297">
        <ele>802</ele>
        <time>2021-02-20T10:44:57.000Z</time>
      </trkpt>
      <trkpt lat="43.90651" lon="7.44291">
        <ele>802.20001220703</ele>
        <time>2021-02-20T10:44:59.000Z</time>
      </trkpt>
      <trkpt lat="43.90657" lon="7.44283">
        <ele>802.40002441406</ele>
        <time>2021-02-20T10:45:02.000Z</time>
      </trkpt>
      <trkpt lat="43.90668" lon="7.44276">
        <ele>803.40002441406</ele>
        <time>2021-02-20T10:45:07.000Z</time>
      </trkpt>
      <trkpt lat="43.9067" lon="7.44274">
        <ele>803.40002441406</ele>
        <time>2021-02-20T10:45:08.000Z</time>
      </trkpt>
      <trkpt lat="43.90678" lon="7.44261">
        <ele>803.79998779297</ele>
        <time>2021-02-20T10:45:13.000Z</time>
      </trkpt>
      <trkpt lat="43.9068" lon="7.44255">
        <ele>803.79998779297</ele>
        <time>2021-02-20T10:45:15.000Z</time>
      </trkpt>
      <trkpt lat="43.90678" lon="7.44247">
        <ele>803.79998779297</ele>
        <time>2021-02-20T10:45:17.000Z</time>
      </trkpt>
      <trkpt lat="43.90678" lon="7.44233">
        <ele>804</ele>
        <time>2021-02-20T10:45:21.000Z</time>
      </trkpt>
      <trkpt lat="43.9068" lon="7.4423">
        <ele>804</ele>
        <time>2021-02-20T10:45:22.000Z</time>
      </trkpt>
      <trkpt lat="43.90686" lon="7.44224">
        <ele>804.20001220703</ele>
        <time>2021-02-20T10:45:25.000Z</time>
      </trkpt>
      <trkpt lat="43.90689" lon="7.44224">
        <ele>804.40002441406</ele>
        <time>2021-02-20T10:45:26.000Z</time>
      </trkpt>
      <trkpt lat="43.90698" lon="7.44226">
        <ele>805</ele>
        <time>2021-02-20T10:45:30.000Z</time>
      </trkpt>
      <trkpt lat="43.90707" lon="7.44229">
        <ele>805.40002441406</ele>
        <time>2021-02-20T10:45:34.000Z</time>
      </trkpt>
      <trkpt lat="43.90716" lon="7.44227">
        <ele>805.79998779297</ele>
        <time>2021-02-20T10:45:38.000Z</time>
      </trkpt>
      <trkpt lat="43.90722" lon="7.44224">
        <ele>806.40002441406</ele>
        <time>2021-02-20T10:45:41.000Z</time>
      </trkpt>
      <trkpt lat="43.90732" lon="7.44225">
        <ele>807</ele>
        <time>2021-02-20T10:45:45.000Z</time>
      </trkpt>
      <trkpt lat="43.90743" lon="7.44229">
        <ele>807.59997558594</ele>
        <time>2021-02-20T10:45:50.000Z</time>
      </trkpt>
      <trkpt lat="43.90748" lon="7.44229">
        <ele>808</ele>
        <time>2021-02-20T10:45:52.000Z</time>
      </trkpt>
      <trkpt lat="43.90757" lon="7.44235">
        <ele>808.59997558594</ele>
        <time>2021-02-20T10:45:57.000Z</time>
      </trkpt>
      <trkpt lat="43.90759" lon="7.44238">
        <ele>808.59997558594</ele>
        <time>2021-02-20T10:45:58.000Z</time>
      </trkpt>
      <trkpt lat="43.90768" lon="7.44253">
        <ele>809.59997558594</ele>
        <time>2021-02-20T10:46:04.000Z</time>
      </trkpt>
      <trkpt lat="43.90781" lon="7.4427">
        <ele>810.40002441406</ele>
        <time>2021-02-20T10:46:12.000Z</time>
      </trkpt>
      <trkpt lat="43.90784" lon="7.44275">
        <ele>810.59997558594</ele>
        <time>2021-02-20T10:46:14.000Z</time>
      </trkpt>
      <trkpt lat="43.90793" lon="7.4429">
        <ele>811.40002441406</ele>
        <time>2021-02-20T10:46:20.000Z</time>
      </trkpt>
      <trkpt lat="43.90799" lon="7.44295">
        <ele>811.79998779297</ele>
        <time>2021-02-20T10:46:23.000Z</time>
      </trkpt>
      <trkpt lat="43.90807" lon="7.443">
        <ele>812.20001220703</ele>
        <time>2021-02-20T10:46:27.000Z</time>
      </trkpt>
      <trkpt lat="43.90816" lon="7.44304">
        <ele>812.79998779297</ele>
        <time>2021-02-20T10:46:31.000Z</time>
      </trkpt>
      <trkpt lat="43.90823" lon="7.44308">
        <ele>813.20001220703</ele>
        <time>2021-02-20T10:46:34.000Z</time>
      </trkpt>
      <trkpt lat="43.90841" lon="7.44316">
        <ele>813.79998779297</ele>
        <time>2021-02-20T10:46:42.000Z</time>
      </trkpt>
      <trkpt lat="43.90843" lon="7.44316">
        <ele>814</ele>
        <time>2021-02-20T10:46:43.000Z</time>
      </trkpt>
      <trkpt lat="43.90853" lon="7.44313">
        <ele>814.40002441406</ele>
        <time>2021-02-20T10:46:48.000Z</time>
      </trkpt>
      <trkpt lat="43.90863" lon="7.44301">
        <ele>815</ele>
        <time>2021-02-20T10:46:53.000Z</time>
      </trkpt>
      <trkpt lat="43.90874" lon="7.4428">
        <ele>815.59997558594</ele>
        <time>2021-02-20T10:47:00.000Z</time>
      </trkpt>
      <trkpt lat="43.90887" lon="7.44267">
        <ele>816</ele>
        <time>2021-02-20T10:47:06.000Z</time>
      </trkpt>
      <trkpt lat="43.90892" lon="7.44264">
        <ele>816.20001220703</ele>
        <time>2021-02-20T10:47:08.000Z</time>
      </trkpt>
      <trkpt lat="43.90904" lon="7.44256">
        <ele>816.79998779297</ele>
        <time>2021-02-20T10:47:13.000Z</time>
      </trkpt>
      <trkpt lat="43.90918" lon="7.4426">
        <ele>817</ele>
        <time>2021-02-20T10:47:18.000Z</time>
      </trkpt>
      <trkpt lat="43.90925" lon="7.44265">
        <ele>817.20001220703</ele>
        <time>2021-02-20T10:47:21.000Z</time>
      </trkpt>
      <trkpt lat="43.90941" lon="7.44269">
        <ele>817.79998779297</ele>
        <time>2021-02-20T10:47:27.000Z</time>
      </trkpt>
      <trkpt lat="43.90953" lon="7.44259">
        <ele>817.79998779297</ele>
        <time>2021-02-20T10:47:32.000Z</time>
      </trkpt>
      <trkpt lat="43.90964" lon="7.44245">
        <ele>818</ele>
        <time>2021-02-20T10:47:37.000Z</time>
      </trkpt>
      <trkpt lat="43.90978" lon="7.44242">
        <ele>818.20001220703</ele>
        <time>2021-02-20T10:47:42.000Z</time>
      </trkpt>
      <trkpt lat="43.90985" lon="7.44238">
        <ele>818.40002441406</ele>
        <time>2021-02-20T10:47:45.000Z</time>
      </trkpt>
      <trkpt lat="43.90998" lon="7.44232">
        <ele>818.79998779297</ele>
        <time>2021-02-20T10:47:50.000Z</time>
      </trkpt>
      <trkpt lat="43.91009" lon="7.44233">
        <ele>819.40002441406</ele>
        <time>2021-02-20T10:47:54.000Z</time>
      </trkpt>
      <trkpt lat="43.91012" lon="7.44233">
        <ele>819.40002441406</ele>
        <time>2021-02-20T10:47:55.000Z</time>
      </trkpt>
      <trkpt lat="43.91032" lon="7.44245">
        <ele>819.79998779297</ele>
        <time>2021-02-20T10:48:03.000Z</time>
      </trkpt>
      <trkpt lat="43.91053" lon="7.44254">
        <ele>820.40002441406</ele>
        <time>2021-02-20T10:48:11.000Z</time>
      </trkpt>
      <trkpt lat="43.91056" lon="7.44254">
        <ele>820.40002441406</ele>
        <time>2021-02-20T10:48:12.000Z</time>
      </trkpt>
      <trkpt lat="43.91077" lon="7.44254">
        <ele>820.79998779297</ele>
        <time>2021-02-20T10:48:19.000Z</time>
      </trkpt>
      <trkpt lat="43.91092" lon="7.44244">
        <ele>821.20001220703</ele>
        <time>2021-02-20T10:48:25.000Z</time>
      </trkpt>
      <trkpt lat="43.91097" lon="7.44239">
        <ele>821.40002441406</ele>
        <time>2021-02-20T10:48:27.000Z</time>
      </trkpt>
      <trkpt lat="43.91108" lon="7.44235">
        <ele>821.79998779297</ele>
        <time>2021-02-20T10:48:31.000Z</time>
      </trkpt>
      <trkpt lat="43.9112" lon="7.44242">
        <ele>822.20001220703</ele>
        <time>2021-02-20T10:48:36.000Z</time>
      </trkpt>
      <trkpt lat="43.91127" lon="7.44246">
        <ele>822.40002441406</ele>
        <time>2021-02-20T10:48:39.000Z</time>
      </trkpt>
      <trkpt lat="43.91142" lon="7.4425">
        <ele>823</ele>
        <time>2021-02-20T10:48:45.000Z</time>
      </trkpt>
      <trkpt lat="43.91158" lon="7.44254">
        <ele>823.40002441406</ele>
        <time>2021-02-20T10:48:51.000Z</time>
      </trkpt>
      <trkpt lat="43.91179" lon="7.44251">
        <ele>824.40002441406</ele>
        <time>2021-02-20T10:48:59.000Z</time>
      </trkpt>
      <trkpt lat="43.91184" lon="7.44248">
        <ele>824.59997558594</ele>
        <time>2021-02-20T10:49:01.000Z</time>
      </trkpt>
      <trkpt lat="43.91195" lon="7.44248">
        <ele>825.40002441406</ele>
        <time>2021-02-20T10:49:05.000Z</time>
      </trkpt>
      <trkpt lat="43.9121" lon="7.44261">
        <ele>825.40002441406</ele>
        <time>2021-02-20T10:49:11.000Z</time>
      </trkpt>
      <trkpt lat="43.91216" lon="7.44269">
        <ele>825.59997558594</ele>
        <time>2021-02-20T10:49:14.000Z</time>
      </trkpt>
      <trkpt lat="43.9123" lon="7.44279">
        <ele>825.79998779297</ele>
        <time>2021-02-20T10:49:19.000Z</time>
      </trkpt>
      <trkpt lat="43.91251" lon="7.44291">
        <ele>826.59997558594</ele>
        <time>2021-02-20T10:49:27.000Z</time>
      </trkpt>
      <trkpt lat="43.91253" lon="7.44292">
        <ele>826.79998779297</ele>
        <time>2021-02-20T10:49:28.000Z</time>
      </trkpt>
      <trkpt lat="43.91273" lon="7.44307">
        <ele>827.40002441406</ele>
        <time>2021-02-20T10:49:36.000Z</time>
      </trkpt>
      <trkpt lat="43.91284" lon="7.44311">
        <ele>827.79998779297</ele>
        <time>2021-02-20T10:49:40.000Z</time>
      </trkpt>
      <trkpt lat="43.91293" lon="7.44311">
        <ele>828</ele>
        <time>2021-02-20T10:49:43.000Z</time>
      </trkpt>
      <trkpt lat="43.91312" lon="7.4432">
        <ele>828.59997558594</ele>
        <time>2021-02-20T10:49:50.000Z</time>
      </trkpt>
      <trkpt lat="43.91315" lon="7.44335">
        <ele>828.59997558594</ele>
        <time>2021-02-20T10:49:54.000Z</time>
      </trkpt>
      <trkpt lat="43.91315" lon="7.44343">
        <ele>828.79998779297</ele>
        <time>2021-02-20T10:49:56.000Z</time>
      </trkpt>
      <trkpt lat="43.91317" lon="7.44362">
        <ele>829.59997558594</ele>
        <time>2021-02-20T10:50:01.000Z</time>
      </trkpt>
      <trkpt lat="43.91319" lon="7.44365">
        <ele>829.79998779297</ele>
        <time>2021-02-20T10:50:02.000Z</time>
      </trkpt>
      <trkpt lat="43.91329" lon="7.44373">
        <ele>830.79998779297</ele>
        <time>2021-02-20T10:50:06.000Z</time>
      </trkpt>
      <trkpt lat="43.91331" lon="7.44375">
        <ele>831</ele>
        <time>2021-02-20T10:50:07.000Z</time>
      </trkpt>
      <trkpt lat="43.91341" lon="7.44379">
        <ele>832.20001220703</ele>
        <time>2021-02-20T10:50:11.000Z</time>
      </trkpt>
      <trkpt lat="43.91346" lon="7.44381">
        <ele>832.59997558594</ele>
        <time>2021-02-20T10:50:13.000Z</time>
      </trkpt>
      <trkpt lat="43.91354" lon="7.44386">
        <ele>833.20001220703</ele>
        <time>2021-02-20T10:50:17.000Z</time>
      </trkpt>
      <trkpt lat="43.91359" lon="7.4439">
        <ele>833.40002441406</ele>
        <time>2021-02-20T10:50:19.000Z</time>
      </trkpt>
      <trkpt lat="43.91367" lon="7.44398">
        <ele>834.20001220703</ele>
        <time>2021-02-20T10:50:23.000Z</time>
      </trkpt>
      <trkpt lat="43.91369" lon="7.44399">
        <ele>834.40002441406</ele>
        <time>2021-02-20T10:50:24.000Z</time>
      </trkpt>
      <trkpt lat="43.91382" lon="7.44411">
        <ele>835.40002441406</ele>
        <time>2021-02-20T10:50:30.000Z</time>
      </trkpt>
      <trkpt lat="43.91387" lon="7.44414">
        <ele>836</ele>
        <time>2021-02-20T10:50:32.000Z</time>
      </trkpt>
      <trkpt lat="43.91393" lon="7.44425">
        <ele>836.59997558594</ele>
        <time>2021-02-20T10:50:36.000Z</time>
      </trkpt>
      <trkpt lat="43.91394" lon="7.44429">
        <ele>836.59997558594</ele>
        <time>2021-02-20T10:50:37.000Z</time>
      </trkpt>
      <trkpt lat="43.91403" lon="7.44454">
        <ele>837.40002441406</ele>
        <time>2021-02-20T10:50:45.000Z</time>
      </trkpt>
      <trkpt lat="43.91404" lon="7.44457">
        <ele>837.59997558594</ele>
        <time>2021-02-20T10:50:46.000Z</time>
      </trkpt>
      <trkpt lat="43.91413" lon="7.44479">
        <ele>838.59997558594</ele>
        <time>2021-02-20T10:50:53.000Z</time>
      </trkpt>
      <trkpt lat="43.91424" lon="7.44499">
        <ele>839.59997558594</ele>
        <time>2021-02-20T10:51:00.000Z</time>
      </trkpt>
      <trkpt lat="43.91426" lon="7.44501">
        <ele>839.79998779297</ele>
        <time>2021-02-20T10:51:01.000Z</time>
      </trkpt>
      <trkpt lat="43.91438" lon="7.44506">
        <ele>840.40002441406</ele>
        <time>2021-02-20T10:51:06.000Z</time>
      </trkpt>
      <trkpt lat="43.91445" lon="7.44506">
        <ele>841</ele>
        <time>2021-02-20T10:51:09.000Z</time>
      </trkpt>
      <trkpt lat="43.9145" lon="7.44506">
        <ele>841.40002441406</ele>
        <time>2021-02-20T10:51:11.000Z</time>
      </trkpt>
      <trkpt lat="43.91453" lon="7.44501">
        <ele>841.59997558594</ele>
        <time>2021-02-20T10:51:13.000Z</time>
      </trkpt>
      <trkpt lat="43.91458" lon="7.44498">
        <ele>841.79998779297</ele>
        <time>2021-02-20T10:51:15.000Z</time>
      </trkpt>
      <trkpt lat="43.91463" lon="7.4449">
        <ele>842</ele>
        <time>2021-02-20T10:51:18.000Z</time>
      </trkpt>
      <trkpt lat="43.91466" lon="7.44489">
        <ele>842</ele>
        <time>2021-02-20T10:51:19.000Z</time>
      </trkpt>
      <trkpt lat="43.91479" lon="7.44493">
        <ele>842.20001220703</ele>
        <time>2021-02-20T10:51:22.000Z</time>
      </trkpt>
      <trkpt lat="43.91482" lon="7.44494">
        <ele>842.20001220703</ele>
        <time>2021-02-20T10:51:23.000Z</time>
      </trkpt>
      <trkpt lat="43.91491" lon="7.44501">
        <ele>842.20001220703</ele>
        <time>2021-02-20T10:51:26.000Z</time>
      </trkpt>
      <trkpt lat="43.91493" lon="7.44505">
        <ele>842.20001220703</ele>
        <time>2021-02-20T10:51:27.000Z</time>
      </trkpt>
      <trkpt lat="43.91497" lon="7.44517">
        <ele>842</ele>
        <time>2021-02-20T10:51:30.000Z</time>
      </trkpt>
      <trkpt lat="43.91495" lon="7.44526">
        <ele>842</ele>
        <time>2021-02-20T10:51:33.000Z</time>
      </trkpt>
      <trkpt lat="43.91493" lon="7.44529">
        <ele>842</ele>
        <time>2021-02-20T10:51:34.000Z</time>
      </trkpt>
      <trkpt lat="43.91477" lon="7.44551">
        <ele>842.59997558594</ele>
        <time>2021-02-20T10:51:43.000Z</time>
      </trkpt>
      <trkpt lat="43.91463" lon="7.44566">
        <ele>843</ele>
        <time>2021-02-20T10:51:50.000Z</time>
      </trkpt>
      <trkpt lat="43.9146" lon="7.44567">
        <ele>843</ele>
        <time>2021-02-20T10:51:51.000Z</time>
      </trkpt>
      <trkpt lat="43.91452" lon="7.44576">
        <ele>843.79998779297</ele>
        <time>2021-02-20T10:51:56.000Z</time>
      </trkpt>
      <trkpt lat="43.91447" lon="7.4458">
        <ele>844</ele>
        <time>2021-02-20T10:51:58.000Z</time>
      </trkpt>
      <trkpt lat="43.9144" lon="7.44584">
        <ele>844.40002441406</ele>
        <time>2021-02-20T10:52:02.000Z</time>
      </trkpt>
      <trkpt lat="43.91432" lon="7.44587">
        <ele>845.20001220703</ele>
        <time>2021-02-20T10:52:06.000Z</time>
      </trkpt>
      <trkpt lat="43.91429" lon="7.44588">
        <ele>845.40002441406</ele>
        <time>2021-02-20T10:52:07.000Z</time>
      </trkpt>
      <trkpt lat="43.91418" lon="7.4459">
        <ele>846.20001220703</ele>
        <time>2021-02-20T10:52:12.000Z</time>
      </trkpt>
      <trkpt lat="43.91406" lon="7.44589">
        <ele>847.20001220703</ele>
        <time>2021-02-20T10:52:17.000Z</time>
      </trkpt>
      <trkpt lat="43.91399" lon="7.44587">
        <ele>848.20001220703</ele>
        <time>2021-02-20T10:52:20.000Z</time>
      </trkpt>
      <trkpt lat="43.91397" lon="7.44586">
        <ele>848.40002441406</ele>
        <time>2021-02-20T10:52:21.000Z</time>
      </trkpt>
      <trkpt lat="43.91388" lon="7.4458">
        <ele>849.40002441406</ele>
        <time>2021-02-20T10:52:25.000Z</time>
      </trkpt>
      <trkpt lat="43.91384" lon="7.44577">
        <ele>850</ele>
        <time>2021-02-20T10:52:27.000Z</time>
      </trkpt>
      <trkpt lat="43.91376" lon="7.4457">
        <ele>850.59997558594</ele>
        <time>2021-02-20T10:52:31.000Z</time>
      </trkpt>
      <trkpt lat="43.91366" lon="7.44566">
        <ele>851.40002441406</ele>
        <time>2021-02-20T10:52:35.000Z</time>
      </trkpt>
      <trkpt lat="43.91361" lon="7.44563">
        <ele>851.79998779297</ele>
        <time>2021-02-20T10:52:37.000Z</time>
      </trkpt>
      <trkpt lat="43.91349" lon="7.44558">
        <ele>853</ele>
        <time>2021-02-20T10:52:42.000Z</time>
      </trkpt>
      <trkpt lat="43.91338" lon="7.44553">
        <ele>854</ele>
        <time>2021-02-20T10:52:47.000Z</time>
      </trkpt>
      <trkpt lat="43.91334" lon="7.44552">
        <ele>854.40002441406</ele>
        <time>2021-02-20T10:52:49.000Z</time>
      </trkpt>
      <trkpt lat="43.91324" lon="7.44548">
        <ele>855.20001220703</ele>
        <time>2021-02-20T10:52:53.000Z</time>
      </trkpt>
      <trkpt lat="43.91322" lon="7.44547">
        <ele>855.40002441406</ele>
        <time>2021-02-20T10:52:54.000Z</time>
      </trkpt>
      <trkpt lat="43.91311" lon="7.44543">
        <ele>856.20001220703</ele>
        <time>2021-02-20T10:52:58.000Z</time>
      </trkpt>
      <trkpt lat="43.91306" lon="7.4454">
        <ele>856.40002441406</ele>
        <time>2021-02-20T10:53:00.000Z</time>
      </trkpt>
      <trkpt lat="43.91294" lon="7.44534">
        <ele>857.20001220703</ele>
        <time>2021-02-20T10:53:05.000Z</time>
      </trkpt>
      <trkpt lat="43.91282" lon="7.44526">
        <ele>858.40002441406</ele>
        <time>2021-02-20T10:53:10.000Z</time>
      </trkpt>
      <trkpt lat="43.91266" lon="7.44517">
        <ele>859.40002441406</ele>
        <time>2021-02-20T10:53:17.000Z</time>
      </trkpt>
      <trkpt lat="43.91253" lon="7.44514">
        <ele>860.59997558594</ele>
        <time>2021-02-20T10:53:22.000Z</time>
      </trkpt>
      <trkpt lat="43.9125" lon="7.44513">
        <ele>860.79998779297</ele>
        <time>2021-02-20T10:53:23.000Z</time>
      </trkpt>
      <trkpt lat="43.91243" lon="7.44515">
        <ele>861.59997558594</ele>
        <time>2021-02-20T10:53:26.000Z</time>
      </trkpt>
      <trkpt lat="43.91236" lon="7.44518">
        <ele>862.59997558594</ele>
        <time>2021-02-20T10:53:29.000Z</time>
      </trkpt>
      <trkpt lat="43.91234" lon="7.4452">
        <ele>862.79998779297</ele>
        <time>2021-02-20T10:53:30.000Z</time>
      </trkpt>
      <trkpt lat="43.91219" lon="7.44529">
        <ele>863.79998779297</ele>
        <time>2021-02-20T10:53:35.000Z</time>
      </trkpt>
      <trkpt lat="43.91208" lon="7.44537">
        <ele>865</ele>
        <time>2021-02-20T10:53:39.000Z</time>
      </trkpt>
      <trkpt lat="43.91201" lon="7.44546">
        <ele>865.79998779297</ele>
        <time>2021-02-20T10:53:42.000Z</time>
      </trkpt>
      <trkpt lat="43.91199" lon="7.4455">
        <ele>866.20001220703</ele>
        <time>2021-02-20T10:53:43.000Z</time>
      </trkpt>
      <trkpt lat="43.91191" lon="7.44563">
        <ele>867.40002441406</ele>
        <time>2021-02-20T10:53:47.000Z</time>
      </trkpt>
      <trkpt lat="43.91184" lon="7.44572">
        <ele>868.20001220703</ele>
        <time>2021-02-20T10:53:50.000Z</time>
      </trkpt>
      <trkpt lat="43.91182" lon="7.44575">
        <ele>868.40002441406</ele>
        <time>2021-02-20T10:53:51.000Z</time>
      </trkpt>
      <trkpt lat="43.91174" lon="7.44588">
        <ele>869.59997558594</ele>
        <time>2021-02-20T10:53:55.000Z</time>
      </trkpt>
      <trkpt lat="43.91167" lon="7.44601">
        <ele>870.40002441406</ele>
        <time>2021-02-20T10:53:59.000Z</time>
      </trkpt>
      <trkpt lat="43.91165" lon="7.44605">
        <ele>870.59997558594</ele>
        <time>2021-02-20T10:54:00.000Z</time>
      </trkpt>
      <trkpt lat="43.91156" lon="7.44622">
        <ele>872</ele>
        <time>2021-02-20T10:54:05.000Z</time>
      </trkpt>
      <trkpt lat="43.91154" lon="7.44625">
        <ele>872.40002441406</ele>
        <time>2021-02-20T10:54:06.000Z</time>
      </trkpt>
      <trkpt lat="43.91149" lon="7.44636">
        <ele>873.20001220703</ele>
        <time>2021-02-20T10:54:09.000Z</time>
      </trkpt>
      <trkpt lat="43.91142" lon="7.4465">
        <ele>874.40002441406</ele>
        <time>2021-02-20T10:54:13.000Z</time>
      </trkpt>
      <trkpt lat="43.91133" lon="7.44667">
        <ele>875.59997558594</ele>
        <time>2021-02-20T10:54:18.000Z</time>
      </trkpt>
      <trkpt lat="43.91127" lon="7.44676">
        <ele>876.40002441406</ele>
        <time>2021-02-20T10:54:21.000Z</time>
      </trkpt>
      <trkpt lat="43.91125" lon="7.44679">
        <ele>876.59997558594</ele>
        <time>2021-02-20T10:54:22.000Z</time>
      </trkpt>
      <trkpt lat="43.91115" lon="7.44695">
        <ele>877.79998779297</ele>
        <time>2021-02-20T10:54:27.000Z</time>
      </trkpt>
      <trkpt lat="43.91107" lon="7.44706">
        <ele>878.79998779297</ele>
        <time>2021-02-20T10:54:31.000Z</time>
      </trkpt>
      <trkpt lat="43.91105" lon="7.44709">
        <ele>879</ele>
        <time>2021-02-20T10:54:32.000Z</time>
      </trkpt>
      <trkpt lat="43.91096" lon="7.4472">
        <ele>880</ele>
        <time>2021-02-20T10:54:36.000Z</time>
      </trkpt>
      <trkpt lat="43.91087" lon="7.44729">
        <ele>881</ele>
        <time>2021-02-20T10:54:40.000Z</time>
      </trkpt>
      <trkpt lat="43.91074" lon="7.4474">
        <ele>882.20001220703</ele>
        <time>2021-02-20T10:54:45.000Z</time>
      </trkpt>
      <trkpt lat="43.91065" lon="7.44749">
        <ele>883</ele>
        <time>2021-02-20T10:54:49.000Z</time>
      </trkpt>
      <trkpt lat="43.91063" lon="7.44751">
        <ele>883.20001220703</ele>
        <time>2021-02-20T10:54:50.000Z</time>
      </trkpt>
      <trkpt lat="43.91056" lon="7.44763">
        <ele>884.20001220703</ele>
        <time>2021-02-20T10:54:54.000Z</time>
      </trkpt>
      <trkpt lat="43.91056" lon="7.44766">
        <ele>884.59997558594</ele>
        <time>2021-02-20T10:54:55.000Z</time>
      </trkpt>
      <trkpt lat="43.91056" lon="7.44777">
        <ele>885.40002441406</ele>
        <time>2021-02-20T10:54:58.000Z</time>
      </trkpt>
      <trkpt lat="43.91057" lon="7.44783">
        <ele>886</ele>
        <time>2021-02-20T10:55:00.000Z</time>
      </trkpt>
      <trkpt lat="43.9106" lon="7.4479">
        <ele>886.59997558594</ele>
        <time>2021-02-20T10:55:02.000Z</time>
      </trkpt>
      <trkpt lat="43.91068" lon="7.44808">
        <ele>887.79998779297</ele>
        <time>2021-02-20T10:55:07.000Z</time>
      </trkpt>
      <trkpt lat="43.91077" lon="7.44824">
        <ele>889</ele>
        <time>2021-02-20T10:55:12.000Z</time>
      </trkpt>
      <trkpt lat="43.91081" lon="7.44831">
        <ele>889.59997558594</ele>
        <time>2021-02-20T10:55:14.000Z</time>
      </trkpt>
      <trkpt lat="43.91084" lon="7.44838">
        <ele>890.20001220703</ele>
        <time>2021-02-20T10:55:16.000Z</time>
      </trkpt>
      <trkpt lat="43.91092" lon="7.44851">
        <ele>891.20001220703</ele>
        <time>2021-02-20T10:55:20.000Z</time>
      </trkpt>
      <trkpt lat="43.91099" lon="7.44866">
        <ele>892.20001220703</ele>
        <time>2021-02-20T10:55:24.000Z</time>
      </trkpt>
      <trkpt lat="43.91103" lon="7.4488">
        <ele>893.40002441406</ele>
        <time>2021-02-20T10:55:28.000Z</time>
      </trkpt>
      <trkpt lat="43.91105" lon="7.44891">
        <ele>894.20001220703</ele>
        <time>2021-02-20T10:55:31.000Z</time>
      </trkpt>
      <trkpt lat="43.91106" lon="7.44899">
        <ele>894.40002441406</ele>
        <time>2021-02-20T10:55:33.000Z</time>
      </trkpt>
      <trkpt lat="43.91105" lon="7.44919">
        <ele>895.40002441406</ele>
        <time>2021-02-20T10:55:38.000Z</time>
      </trkpt>
      <trkpt lat="43.91105" lon="7.44923">
        <ele>895.59997558594</ele>
        <time>2021-02-20T10:55:39.000Z</time>
      </trkpt>
      <trkpt lat="43.91101" lon="7.44938">
        <ele>896.40002441406</ele>
        <time>2021-02-20T10:55:43.000Z</time>
      </trkpt>
      <trkpt lat="43.91099" lon="7.44946">
        <ele>897</ele>
        <time>2021-02-20T10:55:45.000Z</time>
      </trkpt>
      <trkpt lat="43.91098" lon="7.44959">
        <ele>897.79998779297</ele>
        <time>2021-02-20T10:55:48.000Z</time>
      </trkpt>
      <trkpt lat="43.91098" lon="7.44976">
        <ele>898.59997558594</ele>
        <time>2021-02-20T10:55:52.000Z</time>
      </trkpt>
      <trkpt lat="43.91098" lon="7.4498">
        <ele>898.79998779297</ele>
        <time>2021-02-20T10:55:53.000Z</time>
      </trkpt>
      <trkpt lat="43.91096" lon="7.44998">
        <ele>899.79998779297</ele>
        <time>2021-02-20T10:55:57.000Z</time>
      </trkpt>
      <trkpt lat="43.91094" lon="7.4501">
        <ele>900.59997558594</ele>
        <time>2021-02-20T10:56:00.000Z</time>
      </trkpt>
      <trkpt lat="43.91094" lon="7.45018">
        <ele>901.20001220703</ele>
        <time>2021-02-20T10:56:02.000Z</time>
      </trkpt>
      <trkpt lat="43.91096" lon="7.4503">
        <ele>901.79998779297</ele>
        <time>2021-02-20T10:56:05.000Z</time>
      </trkpt>
      <trkpt lat="43.91096" lon="7.45034">
        <ele>902.20001220703</ele>
        <time>2021-02-20T10:56:06.000Z</time>
      </trkpt>
      <trkpt lat="43.911" lon="7.45043">
        <ele>903.20001220703</ele>
        <time>2021-02-20T10:56:09.000Z</time>
      </trkpt>
      <trkpt lat="43.91104" lon="7.45047">
        <ele>904</ele>
        <time>2021-02-20T10:56:11.000Z</time>
      </trkpt>
      <trkpt lat="43.91108" lon="7.45052">
        <ele>904.59997558594</ele>
        <time>2021-02-20T10:56:13.000Z</time>
      </trkpt>
      <trkpt lat="43.91113" lon="7.45064">
        <ele>905.59997558594</ele>
        <time>2021-02-20T10:56:17.000Z</time>
      </trkpt>
      <trkpt lat="43.91115" lon="7.4507">
        <ele>906</ele>
        <time>2021-02-20T10:56:19.000Z</time>
      </trkpt>
      <trkpt lat="43.91117" lon="7.45082">
        <ele>906.79998779297</ele>
        <time>2021-02-20T10:56:22.000Z</time>
      </trkpt>
      <trkpt lat="43.91118" lon="7.45093">
        <ele>907.40002441406</ele>
        <time>2021-02-20T10:56:25.000Z</time>
      </trkpt>
      <trkpt lat="43.9112" lon="7.451">
        <ele>908</ele>
        <time>2021-02-20T10:56:27.000Z</time>
      </trkpt>
      <trkpt lat="43.91122" lon="7.45112">
        <ele>909</ele>
        <time>2021-02-20T10:56:30.000Z</time>
      </trkpt>
      <trkpt lat="43.91124" lon="7.45123">
        <ele>909.59997558594</ele>
        <time>2021-02-20T10:56:33.000Z</time>
      </trkpt>
      <trkpt lat="43.91125" lon="7.4513">
        <ele>910</ele>
        <time>2021-02-20T10:56:35.000Z</time>
      </trkpt>
      <trkpt lat="43.91123" lon="7.4514">
        <ele>911</ele>
        <time>2021-02-20T10:56:38.000Z</time>
      </trkpt>
      <trkpt lat="43.91124" lon="7.45144">
        <ele>911.20001220703</ele>
        <time>2021-02-20T10:56:39.000Z</time>
      </trkpt>
      <trkpt lat="43.91126" lon="7.45165">
        <ele>912.59997558594</ele>
        <time>2021-02-20T10:56:44.000Z</time>
      </trkpt>
      <trkpt lat="43.91127" lon="7.45179">
        <ele>913.79998779297</ele>
        <time>2021-02-20T10:56:48.000Z</time>
      </trkpt>
      <trkpt lat="43.91128" lon="7.45189">
        <ele>914.40002441406</ele>
        <time>2021-02-20T10:56:51.000Z</time>
      </trkpt>
      <trkpt lat="43.91129" lon="7.45191">
        <ele>914.79998779297</ele>
        <time>2021-02-20T10:56:52.000Z</time>
      </trkpt>
      <trkpt lat="43.91131" lon="7.45198">
        <ele>915.79998779297</ele>
        <time>2021-02-20T10:56:57.000Z</time>
      </trkpt>
      <trkpt lat="43.91131" lon="7.452">
        <ele>916</ele>
        <time>2021-02-20T10:56:58.000Z</time>
      </trkpt>
      <trkpt lat="43.91131" lon="7.452">
        <ele>916.20001220703</ele>
        <time>2021-02-20T10:57:01.000Z</time>
      </trkpt>
      <trkpt lat="43.91131" lon="7.45202">
        <ele>916.20001220703</ele>
        <time>2021-02-20T10:57:09.000Z</time>
      </trkpt>
      <trkpt lat="43.91131" lon="7.45203">
        <ele>916</ele>
        <time>2021-02-20T10:57:18.000Z</time>
      </trkpt>
      <trkpt lat="43.91131" lon="7.45202">
        <ele>916.20001220703</ele>
        <time>2021-02-20T10:57:28.000Z</time>
      </trkpt>
      <trkpt lat="43.91132" lon="7.45203">
        <ele>916.40002441406</ele>
        <time>2021-02-20T10:57:33.000Z</time>
      </trkpt>
      <trkpt lat="43.91132" lon="7.45203">
        <ele>916.40002441406</ele>
        <time>2021-02-20T10:57:38.000Z</time>
      </trkpt>
      <trkpt lat="43.91132" lon="7.45203">
        <ele>916.59997558594</ele>
        <time>2021-02-20T10:57:50.000Z</time>
      </trkpt>
      <trkpt lat="43.91132" lon="7.45203">
        <ele>916.20001220703</ele>
        <time>2021-02-20T10:57:58.000Z</time>
      </trkpt>
      <trkpt lat="43.91132" lon="7.45203">
        <ele>916</ele>
        <time>2021-02-20T10:58:09.000Z</time>
      </trkpt>
      <trkpt lat="43.91133" lon="7.45202">
        <ele>916</ele>
        <time>2021-02-20T10:58:22.000Z</time>
      </trkpt>
      <trkpt lat="43.91133" lon="7.45201">
        <ele>916.40002441406</ele>
        <time>2021-02-20T10:58:30.000Z</time>
      </trkpt>
      <trkpt lat="43.91133" lon="7.45201">
        <ele>916.40002441406</ele>
        <time>2021-02-20T10:58:36.000Z</time>
      </trkpt>
      <trkpt lat="43.91134" lon="7.45201">
        <ele>916.20001220703</ele>
        <time>2021-02-20T10:58:43.000Z</time>
      </trkpt>
      <trkpt lat="43.91135" lon="7.452">
        <ele>916</ele>
        <time>2021-02-20T10:58:51.000Z</time>
      </trkpt>
      <trkpt lat="43.91135" lon="7.452">
        <ele>915.79998779297</ele>
        <time>2021-02-20T10:59:04.000Z</time>
      </trkpt>
      <trkpt lat="43.91137" lon="7.45201">
        <ele>915.79998779297</ele>
        <time>2021-02-20T10:59:09.000Z</time>
      </trkpt>
      <trkpt lat="43.91138" lon="7.45202">
        <ele>915.79998779297</ele>
        <time>2021-02-20T10:59:10.000Z</time>
      </trkpt>
      <trkpt lat="43.91148" lon="7.4521">
        <ele>916.20001220703</ele>
        <time>2021-02-20T10:59:14.000Z</time>
      </trkpt>
      <trkpt lat="43.91161" lon="7.45224">
        <ele>916.79998779297</ele>
        <time>2021-02-20T10:59:19.000Z</time>
      </trkpt>
      <trkpt lat="43.91182" lon="7.45247">
        <ele>918.59997558594</ele>
        <time>2021-02-20T10:59:27.000Z</time>
      </trkpt>
      <trkpt lat="43.9119" lon="7.45255">
        <ele>919</ele>
        <time>2021-02-20T10:59:29.000Z</time>
      </trkpt>
      <trkpt lat="43.91197" lon="7.45266">
        <ele>920</ele>
        <time>2021-02-20T10:59:32.000Z</time>
      </trkpt>
      <trkpt lat="43.91204" lon="7.45272">
        <ele>920.20001220703</ele>
        <time>2021-02-20T10:59:34.000Z</time>
      </trkpt>
      <trkpt lat="43.91214" lon="7.45276">
        <ele>921</ele>
        <time>2021-02-20T10:59:37.000Z</time>
      </trkpt>
      <trkpt lat="43.91221" lon="7.45275">
        <ele>921.40002441406</ele>
        <time>2021-02-20T10:59:39.000Z</time>
      </trkpt>
      <trkpt lat="43.91236" lon="7.45276">
        <ele>922.59997558594</ele>
        <time>2021-02-20T10:59:43.000Z</time>
      </trkpt>
      <trkpt lat="43.9125" lon="7.45283">
        <ele>923.79998779297</ele>
        <time>2021-02-20T10:59:47.000Z</time>
      </trkpt>
      <trkpt lat="43.91257" lon="7.45289">
        <ele>924.40002441406</ele>
        <time>2021-02-20T10:59:49.000Z</time>
      </trkpt>
      <trkpt lat="43.91264" lon="7.45302">
        <ele>925</ele>
        <time>2021-02-20T10:59:52.000Z</time>
      </trkpt>
      <trkpt lat="43.91266" lon="7.45307">
        <ele>925</ele>
        <time>2021-02-20T10:59:53.000Z</time>
      </trkpt>
      <trkpt lat="43.91273" lon="7.45318">
        <ele>926</ele>
        <time>2021-02-20T10:59:56.000Z</time>
      </trkpt>
      <trkpt lat="43.91277" lon="7.45321">
        <ele>926.20001220703</ele>
        <time>2021-02-20T10:59:57.000Z</time>
      </trkpt>
      <trkpt lat="43.91287" lon="7.45326">
        <ele>927.20001220703</ele>
        <time>2021-02-20T11:00:00.000Z</time>
      </trkpt>
      <trkpt lat="43.91297" lon="7.45332">
        <ele>928.40002441406</ele>
        <time>2021-02-20T11:00:03.000Z</time>
      </trkpt>
      <trkpt lat="43.9131" lon="7.45337">
        <ele>929.40002441406</ele>
        <time>2021-02-20T11:00:07.000Z</time>
      </trkpt>
      <trkpt lat="43.91319" lon="7.45337">
        <ele>929.79998779297</ele>
        <time>2021-02-20T11:00:10.000Z</time>
      </trkpt>
      <trkpt lat="43.91327" lon="7.45339">
        <ele>930.40002441406</ele>
        <time>2021-02-20T11:00:13.000Z</time>
      </trkpt>
      <trkpt lat="43.91332" lon="7.45341">
        <ele>930.79998779297</ele>
        <time>2021-02-20T11:00:15.000Z</time>
      </trkpt>
      <trkpt lat="43.91339" lon="7.45347">
        <ele>931.40002441406</ele>
        <time>2021-02-20T11:00:18.000Z</time>
      </trkpt>
      <trkpt lat="43.91349" lon="7.45355">
        <ele>932.20001220703</ele>
        <time>2021-02-20T11:00:23.000Z</time>
      </trkpt>
      <trkpt lat="43.91353" lon="7.45359">
        <ele>932.59997558594</ele>
        <time>2021-02-20T11:00:25.000Z</time>
      </trkpt>
      <trkpt lat="43.91364" lon="7.45364">
        <ele>933.40002441406</ele>
        <time>2021-02-20T11:00:30.000Z</time>
      </trkpt>
      <trkpt lat="43.91369" lon="7.45365">
        <ele>933.59997558594</ele>
        <time>2021-02-20T11:00:32.000Z</time>
      </trkpt>
      <trkpt lat="43.91379" lon="7.45366">
        <ele>934.20001220703</ele>
        <time>2021-02-20T11:00:36.000Z</time>
      </trkpt>
      <trkpt lat="43.91389" lon="7.45368">
        <ele>934.79998779297</ele>
        <time>2021-02-20T11:00:40.000Z</time>
      </trkpt>
      <trkpt lat="43.91393" lon="7.4537">
        <ele>935</ele>
        <time>2021-02-20T11:00:42.000Z</time>
      </trkpt>
      <trkpt lat="43.9141" lon="7.45372">
        <ele>935.79998779297</ele>
        <time>2021-02-20T11:00:50.000Z</time>
      </trkpt>
      <trkpt lat="43.91415" lon="7.45373">
        <ele>936</ele>
        <time>2021-02-20T11:00:52.000Z</time>
      </trkpt>
      <trkpt lat="43.9143" lon="7.45376">
        <ele>936.79998779297</ele>
        <time>2021-02-20T11:00:59.000Z</time>
      </trkpt>
      <trkpt lat="43.91435" lon="7.45377">
        <ele>937</ele>
        <time>2021-02-20T11:01:01.000Z</time>
      </trkpt>
      <trkpt lat="43.9145" lon="7.45381">
        <ele>937.40002441406</ele>
        <time>2021-02-20T11:01:07.000Z</time>
      </trkpt>
      <trkpt lat="43.91462" lon="7.45383">
        <ele>937.59997558594</ele>
        <time>2021-02-20T11:01:12.000Z</time>
      </trkpt>
      <trkpt lat="43.91476" lon="7.45385">
        <ele>938</ele>
        <time>2021-02-20T11:01:17.000Z</time>
      </trkpt>
      <trkpt lat="43.91481" lon="7.45389">
        <ele>938</ele>
        <time>2021-02-20T11:01:19.000Z</time>
      </trkpt>
      <trkpt lat="43.91487" lon="7.45397">
        <ele>938.20001220703</ele>
        <time>2021-02-20T11:01:22.000Z</time>
      </trkpt>
      <trkpt lat="43.91489" lon="7.45412">
        <ele>938.59997558594</ele>
        <time>2021-02-20T11:01:26.000Z</time>
      </trkpt>
      <trkpt lat="43.91487" lon="7.45416">
        <ele>938.59997558594</ele>
        <time>2021-02-20T11:01:27.000Z</time>
      </trkpt>
      <trkpt lat="43.91483" lon="7.45422">
        <ele>938.79998779297</ele>
        <time>2021-02-20T11:01:29.000Z</time>
      </trkpt>
      <trkpt lat="43.91465" lon="7.45449">
        <ele>939</ele>
        <time>2021-02-20T11:01:38.000Z</time>
      </trkpt>
      <trkpt lat="43.91464" lon="7.45452">
        <ele>939</ele>
        <time>2021-02-20T11:01:39.000Z</time>
      </trkpt>
      <trkpt lat="43.91463" lon="7.45457">
        <ele>939.20001220703</ele>
        <time>2021-02-20T11:01:41.000Z</time>
      </trkpt>
      <trkpt lat="43.91469" lon="7.45491">
        <ele>939.79998779297</ele>
        <time>2021-02-20T11:01:49.000Z</time>
      </trkpt>
      <trkpt lat="43.91474" lon="7.45505">
        <ele>940.20001220703</ele>
        <time>2021-02-20T11:01:52.000Z</time>
      </trkpt>
      <trkpt lat="43.91477" lon="7.45514">
        <ele>940.20001220703</ele>
        <time>2021-02-20T11:01:54.000Z</time>
      </trkpt>
      <trkpt lat="43.91482" lon="7.45539">
        <ele>940.59997558594</ele>
        <time>2021-02-20T11:02:00.000Z</time>
      </trkpt>
      <trkpt lat="43.91485" lon="7.4555">
        <ele>941.20001220703</ele>
        <time>2021-02-20T11:02:03.000Z</time>
      </trkpt>
      <trkpt lat="43.9149" lon="7.45556">
        <ele>941.79998779297</ele>
        <time>2021-02-20T11:02:06.000Z</time>
      </trkpt>
      <trkpt lat="43.91494" lon="7.4556">
        <ele>942.20001220703</ele>
        <time>2021-02-20T11:02:08.000Z</time>
      </trkpt>
      <trkpt lat="43.91504" lon="7.4557">
        <ele>943.40002441406</ele>
        <time>2021-02-20T11:02:13.000Z</time>
      </trkpt>
      <trkpt lat="43.91506" lon="7.45572">
        <ele>943.59997558594</ele>
        <time>2021-02-20T11:02:14.000Z</time>
      </trkpt>
      <trkpt lat="43.9151" lon="7.45577">
        <ele>944.40002441406</ele>
        <time>2021-02-20T11:02:17.000Z</time>
      </trkpt>
      <trkpt lat="43.91515" lon="7.45583">
        <ele>945</ele>
        <time>2021-02-20T11:02:20.000Z</time>
      </trkpt>
      <trkpt lat="43.9152" lon="7.45588">
        <ele>945.59997558594</ele>
        <time>2021-02-20T11:02:23.000Z</time>
      </trkpt>
      <trkpt lat="43.91527" lon="7.45594">
        <ele>946.20001220703</ele>
        <time>2021-02-20T11:02:27.000Z</time>
      </trkpt>
      <trkpt lat="43.91531" lon="7.45596">
        <ele>946.79998779297</ele>
        <time>2021-02-20T11:02:29.000Z</time>
      </trkpt>
      <trkpt lat="43.91538" lon="7.45599">
        <ele>947.59997558594</ele>
        <time>2021-02-20T11:02:34.000Z</time>
      </trkpt>
      <trkpt lat="43.9154" lon="7.456">
        <ele>947.79998779297</ele>
        <time>2021-02-20T11:02:35.000Z</time>
      </trkpt>
      <trkpt lat="43.91551" lon="7.45611">
        <ele>949</ele>
        <time>2021-02-20T11:02:41.000Z</time>
      </trkpt>
      <trkpt lat="43.91559" lon="7.45626">
        <ele>950.20001220703</ele>
        <time>2021-02-20T11:02:47.000Z</time>
      </trkpt>
      <trkpt lat="43.9156" lon="7.45628">
        <ele>950.40002441406</ele>
        <time>2021-02-20T11:02:48.000Z</time>
      </trkpt>
      <trkpt lat="43.9157" lon="7.45641">
        <ele>951.20001220703</ele>
        <time>2021-02-20T11:02:54.000Z</time>
      </trkpt>
      <trkpt lat="43.91579" lon="7.4565">
        <ele>952.40002441406</ele>
        <time>2021-02-20T11:02:59.000Z</time>
      </trkpt>
      <trkpt lat="43.91581" lon="7.45652">
        <ele>952.59997558594</ele>
        <time>2021-02-20T11:03:00.000Z</time>
      </trkpt>
      <trkpt lat="43.9159" lon="7.4566">
        <ele>953.40002441406</ele>
        <time>2021-02-20T11:03:05.000Z</time>
      </trkpt>
      <trkpt lat="43.91593" lon="7.45663">
        <ele>953.79998779297</ele>
        <time>2021-02-20T11:03:07.000Z</time>
      </trkpt>
      <trkpt lat="43.916" lon="7.45668">
        <ele>954.40002441406</ele>
        <time>2021-02-20T11:03:11.000Z</time>
      </trkpt>
      <trkpt lat="43.91606" lon="7.45673">
        <ele>955.40002441406</ele>
        <time>2021-02-20T11:03:15.000Z</time>
      </trkpt>
      <trkpt lat="43.91607" lon="7.45674">
        <ele>955.59997558594</ele>
        <time>2021-02-20T11:03:16.000Z</time>
      </trkpt>
      <trkpt lat="43.91608" lon="7.45674">
        <ele>955.79998779297</ele>
        <time>2021-02-20T11:03:17.000Z</time>
      </trkpt>
      <trkpt lat="43.91612" lon="7.45674">
        <ele>956.20001220703</ele>
        <time>2021-02-20T11:03:19.000Z</time>
      </trkpt>
      <trkpt lat="43.91618" lon="7.45674">
        <ele>956.59997558594</ele>
        <time>2021-02-20T11:03:23.000Z</time>
      </trkpt>
      <trkpt lat="43.9162" lon="7.45674">
        <ele>956.79998779297</ele>
        <time>2021-02-20T11:03:24.000Z</time>
      </trkpt>
      <trkpt lat="43.91628" lon="7.45674">
        <ele>957.59997558594</ele>
        <time>2021-02-20T11:03:29.000Z</time>
      </trkpt>
      <trkpt lat="43.91632" lon="7.45674">
        <ele>958</ele>
        <time>2021-02-20T11:03:31.000Z</time>
      </trkpt>
      <trkpt lat="43.91638" lon="7.45676">
        <ele>958.40002441406</ele>
        <time>2021-02-20T11:03:34.000Z</time>
      </trkpt>
      <trkpt lat="43.91642" lon="7.4568">
        <ele>958.59997558594</ele>
        <time>2021-02-20T11:03:36.000Z</time>
      </trkpt>
      <trkpt lat="43.91643" lon="7.45686">
        <ele>958.79998779297</ele>
        <time>2021-02-20T11:03:38.000Z</time>
      </trkpt>
      <trkpt lat="43.91643" lon="7.45692">
        <ele>959</ele>
        <time>2021-02-20T11:03:40.000Z</time>
      </trkpt>
      <trkpt lat="43.91638" lon="7.45702">
        <ele>959.40002441406</ele>
        <time>2021-02-20T11:03:44.000Z</time>
      </trkpt>
      <trkpt lat="43.91634" lon="7.45707">
        <ele>960</ele>
        <time>2021-02-20T11:03:46.000Z</time>
      </trkpt>
      <trkpt lat="43.91629" lon="7.45713">
        <ele>960</ele>
        <time>2021-02-20T11:03:49.000Z</time>
      </trkpt>
      <trkpt lat="43.91627" lon="7.45715">
        <ele>960.20001220703</ele>
        <time>2021-02-20T11:03:50.000Z</time>
      </trkpt>
      <trkpt lat="43.91621" lon="7.45728">
        <ele>961</ele>
        <time>2021-02-20T11:03:55.000Z</time>
      </trkpt>
      <trkpt lat="43.91622" lon="7.45747">
        <ele>961.59997558594</ele>
        <time>2021-02-20T11:04:00.000Z</time>
      </trkpt>
      <trkpt lat="43.91626" lon="7.45757">
        <ele>962.20001220703</ele>
        <time>2021-02-20T11:04:03.000Z</time>
      </trkpt>
      <trkpt lat="43.91631" lon="7.45769">
        <ele>963</ele>
        <time>2021-02-20T11:04:07.000Z</time>
      </trkpt>
      <trkpt lat="43.91631" lon="7.45772">
        <ele>963.20001220703</ele>
        <time>2021-02-20T11:04:08.000Z</time>
      </trkpt>
      <trkpt lat="43.91633" lon="7.45776">
        <ele>963.59997558594</ele>
        <time>2021-02-20T11:04:10.000Z</time>
      </trkpt>
      <trkpt lat="43.91638" lon="7.45788">
        <ele>964.20001220703</ele>
        <time>2021-02-20T11:04:14.000Z</time>
      </trkpt>
      <trkpt lat="43.91636" lon="7.45789">
        <ele>964.20001220703</ele>
        <time>2021-02-20T11:04:15.000Z</time>
      </trkpt>
      <trkpt lat="43.91635" lon="7.45792">
        <ele>964.20001220703</ele>
        <time>2021-02-20T11:04:16.000Z</time>
      </trkpt>
      <trkpt lat="43.91631" lon="7.45796">
        <ele>964.20001220703</ele>
        <time>2021-02-20T11:04:18.000Z</time>
      </trkpt>
      <trkpt lat="43.91627" lon="7.45798">
        <ele>964.59997558594</ele>
        <time>2021-02-20T11:04:21.000Z</time>
      </trkpt>
      <trkpt lat="43.91623" lon="7.45797">
        <ele>965.20001220703</ele>
        <time>2021-02-20T11:04:23.000Z</time>
      </trkpt>
      <trkpt lat="43.91618" lon="7.45796">
        <ele>965.40002441406</ele>
        <time>2021-02-20T11:04:25.000Z</time>
      </trkpt>
      <trkpt lat="43.91615" lon="7.45795">
        <ele>965.40002441406</ele>
        <time>2021-02-20T11:04:26.000Z</time>
      </trkpt>
      <trkpt lat="43.91608" lon="7.45791">
        <ele>965.40002441406</ele>
        <time>2021-02-20T11:04:29.000Z</time>
      </trkpt>
      <trkpt lat="43.91595" lon="7.45774">
        <ele>965.79998779297</ele>
        <time>2021-02-20T11:04:36.000Z</time>
      </trkpt>
      <trkpt lat="43.91581" lon="7.45764">
        <ele>966.40002441406</ele>
        <time>2021-02-20T11:04:42.000Z</time>
      </trkpt>
      <trkpt lat="43.91579" lon="7.45764">
        <ele>966.59997558594</ele>
        <time>2021-02-20T11:04:43.000Z</time>
      </trkpt>
      <trkpt lat="43.91568" lon="7.45765">
        <ele>967.59997558594</ele>
        <time>2021-02-20T11:04:48.000Z</time>
      </trkpt>
      <trkpt lat="43.91555" lon="7.45765">
        <ele>968.59997558594</ele>
        <time>2021-02-20T11:04:54.000Z</time>
      </trkpt>
      <trkpt lat="43.91553" lon="7.45765">
        <ele>968.79998779297</ele>
        <time>2021-02-20T11:04:55.000Z</time>
      </trkpt>
      <trkpt lat="43.91544" lon="7.45764">
        <ele>970</ele>
        <time>2021-02-20T11:04:59.000Z</time>
      </trkpt>
      <trkpt lat="43.91533" lon="7.45762">
        <ele>970.79998779297</ele>
        <time>2021-02-20T11:05:03.000Z</time>
      </trkpt>
      <trkpt lat="43.91531" lon="7.45762">
        <ele>971</ele>
        <time>2021-02-20T11:05:04.000Z</time>
      </trkpt>
      <trkpt lat="43.91528" lon="7.45761">
        <ele>972</ele>
        <time>2021-02-20T11:05:08.000Z</time>
      </trkpt>
      <trkpt lat="43.91523" lon="7.45761">
        <ele>972.79998779297</ele>
        <time>2021-02-20T11:05:14.000Z</time>
      </trkpt>
      <trkpt lat="43.91518" lon="7.4576">
        <ele>972.79998779297</ele>
        <time>2021-02-20T11:05:21.000Z</time>
      </trkpt>
      <trkpt lat="43.91514" lon="7.45759">
        <ele>973.20001220703</ele>
        <time>2021-02-20T11:05:23.000Z</time>
      </trkpt>
      <trkpt lat="43.91503" lon="7.45761">
        <ele>973.79998779297</ele>
        <time>2021-02-20T11:05:28.000Z</time>
      </trkpt>
      <trkpt lat="43.91494" lon="7.45762">
        <ele>974.20001220703</ele>
        <time>2021-02-20T11:05:32.000Z</time>
      </trkpt>
      <trkpt lat="43.91492" lon="7.45761">
        <ele>974.59997558594</ele>
        <time>2021-02-20T11:05:33.000Z</time>
      </trkpt>
      <trkpt lat="43.91482" lon="7.4576">
        <ele>975.40002441406</ele>
        <time>2021-02-20T11:05:37.000Z</time>
      </trkpt>
      <trkpt lat="43.91476" lon="7.45758">
        <ele>975.79998779297</ele>
        <time>2021-02-20T11:05:40.000Z</time>
      </trkpt>
      <trkpt lat="43.91467" lon="7.45756">
        <ele>976.59997558594</ele>
        <time>2021-02-20T11:05:44.000Z</time>
      </trkpt>
      <trkpt lat="43.91463" lon="7.45756">
        <ele>977</ele>
        <time>2021-02-20T11:05:46.000Z</time>
      </trkpt>
      <trkpt lat="43.91457" lon="7.45757">
        <ele>977.59997558594</ele>
        <time>2021-02-20T11:05:49.000Z</time>
      </trkpt>
      <trkpt lat="43.91449" lon="7.45757">
        <ele>978.40002441406</ele>
        <time>2021-02-20T11:05:53.000Z</time>
      </trkpt>
      <trkpt lat="43.91443" lon="7.45756">
        <ele>978.79998779297</ele>
        <time>2021-02-20T11:05:55.000Z</time>
      </trkpt>
      <trkpt lat="43.91431" lon="7.45756">
        <ele>980</ele>
        <time>2021-02-20T11:06:00.000Z</time>
      </trkpt>
      <trkpt lat="43.91416" lon="7.45758">
        <ele>981.20001220703</ele>
        <time>2021-02-20T11:06:06.000Z</time>
      </trkpt>
      <trkpt lat="43.91414" lon="7.45757">
        <ele>981.40002441406</ele>
        <time>2021-02-20T11:06:07.000Z</time>
      </trkpt>
      <trkpt lat="43.91404" lon="7.45758">
        <ele>982.40002441406</ele>
        <time>2021-02-20T11:06:11.000Z</time>
      </trkpt>
      <trkpt lat="43.91396" lon="7.45757">
        <ele>983</ele>
        <time>2021-02-20T11:06:14.000Z</time>
      </trkpt>
      <trkpt lat="43.91389" lon="7.45758">
        <ele>983.59997558594</ele>
        <time>2021-02-20T11:06:17.000Z</time>
      </trkpt>
      <trkpt lat="43.9138" lon="7.45763">
        <ele>984.40002441406</ele>
        <time>2021-02-20T11:06:21.000Z</time>
      </trkpt>
      <trkpt lat="43.91378" lon="7.45765">
        <ele>984.59997558594</ele>
        <time>2021-02-20T11:06:22.000Z</time>
      </trkpt>
      <trkpt lat="43.9137" lon="7.45772">
        <ele>985.59997558594</ele>
        <time>2021-02-20T11:06:26.000Z</time>
      </trkpt>
      <trkpt lat="43.91365" lon="7.45775">
        <ele>985.79998779297</ele>
        <time>2021-02-20T11:06:28.000Z</time>
      </trkpt>
      <trkpt lat="43.91357" lon="7.4578">
        <ele>986.59997558594</ele>
        <time>2021-02-20T11:06:32.000Z</time>
      </trkpt>
      <trkpt lat="43.91348" lon="7.45784">
        <ele>987.59997558594</ele>
        <time>2021-02-20T11:06:36.000Z</time>
      </trkpt>
      <trkpt lat="43.91345" lon="7.45785">
        <ele>987.79998779297</ele>
        <time>2021-02-20T11:06:37.000Z</time>
      </trkpt>
      <trkpt lat="43.91335" lon="7.45787">
        <ele>988.59997558594</ele>
        <time>2021-02-20T11:06:42.000Z</time>
      </trkpt>
      <trkpt lat="43.91332" lon="7.45788">
        <ele>988.79998779297</ele>
        <time>2021-02-20T11:06:43.000Z</time>
      </trkpt>
      <trkpt lat="43.91321" lon="7.45791">
        <ele>989.59997558594</ele>
        <time>2021-02-20T11:06:48.000Z</time>
      </trkpt>
      <trkpt lat="43.91319" lon="7.45791">
        <ele>989.79998779297</ele>
        <time>2021-02-20T11:06:49.000Z</time>
      </trkpt>
      <trkpt lat="43.91305" lon="7.45793">
        <ele>990.79998779297</ele>
        <time>2021-02-20T11:06:55.000Z</time>
      </trkpt>
      <trkpt lat="43.91291" lon="7.45799">
        <ele>992</ele>
        <time>2021-02-20T11:07:01.000Z</time>
      </trkpt>
      <trkpt lat="43.91278" lon="7.45803">
        <ele>993.20001220703</ele>
        <time>2021-02-20T11:07:07.000Z</time>
      </trkpt>
      <trkpt lat="43.91261" lon="7.45805">
        <ele>994.20001220703</ele>
        <time>2021-02-20T11:07:14.000Z</time>
      </trkpt>
      <trkpt lat="43.91249" lon="7.45807">
        <ele>995.20001220703</ele>
        <time>2021-02-20T11:07:19.000Z</time>
      </trkpt>
      <trkpt lat="43.91245" lon="7.45809">
        <ele>995.40002441406</ele>
        <time>2021-02-20T11:07:21.000Z</time>
      </trkpt>
      <trkpt lat="43.91234" lon="7.45813">
        <ele>996.40002441406</ele>
        <time>2021-02-20T11:07:26.000Z</time>
      </trkpt>
      <trkpt lat="43.91232" lon="7.45814">
        <ele>996.79998779297</ele>
        <time>2021-02-20T11:07:27.000Z</time>
      </trkpt>
      <trkpt lat="43.91219" lon="7.45816">
        <ele>997.40002441406</ele>
        <time>2021-02-20T11:07:32.000Z</time>
      </trkpt>
      <trkpt lat="43.91216" lon="7.45816">
        <ele>997.59997558594</ele>
        <time>2021-02-20T11:07:33.000Z</time>
      </trkpt>
      <trkpt lat="43.91204" lon="7.45816">
        <ele>998.59997558594</ele>
        <time>2021-02-20T11:07:38.000Z</time>
      </trkpt>
      <trkpt lat="43.91202" lon="7.45815">
        <ele>999</ele>
        <time>2021-02-20T11:07:39.000Z</time>
      </trkpt>
      <trkpt lat="43.91189" lon="7.45812">
        <ele>999.79998779297</ele>
        <time>2021-02-20T11:07:44.000Z</time>
      </trkpt>
      <trkpt lat="43.91177" lon="7.45808">
        <ele>1000.799987793</ele>
        <time>2021-02-20T11:07:49.000Z</time>
      </trkpt>
      <trkpt lat="43.91162" lon="7.45804">
        <ele>1001.799987793</ele>
        <time>2021-02-20T11:07:55.000Z</time>
      </trkpt>
      <trkpt lat="43.91154" lon="7.45805">
        <ele>1002.4000244141</ele>
        <time>2021-02-20T11:07:58.000Z</time>
      </trkpt>
      <trkpt lat="43.91149" lon="7.45805">
        <ele>1003</ele>
        <time>2021-02-20T11:08:00.000Z</time>
      </trkpt>
      <trkpt lat="43.91137" lon="7.45805">
        <ele>1004</ele>
        <time>2021-02-20T11:08:05.000Z</time>
      </trkpt>
      <trkpt lat="43.91134" lon="7.45805">
        <ele>1004.200012207</ele>
        <time>2021-02-20T11:08:06.000Z</time>
      </trkpt>
      <trkpt lat="43.91119" lon="7.45807">
        <ele>1005.4000244141</ele>
        <time>2021-02-20T11:08:12.000Z</time>
      </trkpt>
      <trkpt lat="43.91103" lon="7.45813">
        <ele>1006.4000244141</ele>
        <time>2021-02-20T11:08:19.000Z</time>
      </trkpt>
      <trkpt lat="43.91088" lon="7.45818">
        <ele>1007.4000244141</ele>
        <time>2021-02-20T11:08:25.000Z</time>
      </trkpt>
      <trkpt lat="43.91081" lon="7.45821">
        <ele>1008</ele>
        <time>2021-02-20T11:08:28.000Z</time>
      </trkpt>
      <trkpt lat="43.91075" lon="7.45821">
        <ele>1008.4000244141</ele>
        <time>2021-02-20T11:08:30.000Z</time>
      </trkpt>
      <trkpt lat="43.91063" lon="7.45821">
        <ele>1009.4000244141</ele>
        <time>2021-02-20T11:08:35.000Z</time>
      </trkpt>
      <trkpt lat="43.9106" lon="7.4582">
        <ele>1009.5999755859</ele>
        <time>2021-02-20T11:08:36.000Z</time>
      </trkpt>
      <trkpt lat="43.91045" lon="7.45819">
        <ele>1010.5999755859</ele>
        <time>2021-02-20T11:08:42.000Z</time>
      </trkpt>
      <trkpt lat="43.91043" lon="7.45819">
        <ele>1010.799987793</ele>
        <time>2021-02-20T11:08:43.000Z</time>
      </trkpt>
      <trkpt lat="43.9103" lon="7.45819">
        <ele>1011.799987793</ele>
        <time>2021-02-20T11:08:48.000Z</time>
      </trkpt>
      <trkpt lat="43.91025" lon="7.4582">
        <ele>1012</ele>
        <time>2021-02-20T11:08:50.000Z</time>
      </trkpt>
      <trkpt lat="43.91019" lon="7.45821">
        <ele>1012.799987793</ele>
        <time>2021-02-20T11:08:53.000Z</time>
      </trkpt>
      <trkpt lat="43.91011" lon="7.45822">
        <ele>1013.5999755859</ele>
        <time>2021-02-20T11:08:56.000Z</time>
      </trkpt>
      <trkpt lat="43.91003" lon="7.45826">
        <ele>1014</ele>
        <time>2021-02-20T11:08:59.000Z</time>
      </trkpt>
      <trkpt lat="43.90995" lon="7.4583">
        <ele>1014.4000244141</ele>
        <time>2021-02-20T11:09:02.000Z</time>
      </trkpt>
      <trkpt lat="43.90989" lon="7.45835">
        <ele>1015</ele>
        <time>2021-02-20T11:09:05.000Z</time>
      </trkpt>
      <trkpt lat="43.90977" lon="7.45841">
        <ele>1016.200012207</ele>
        <time>2021-02-20T11:09:10.000Z</time>
      </trkpt>
      <trkpt lat="43.90965" lon="7.4584">
        <ele>1017.200012207</ele>
        <time>2021-02-20T11:09:15.000Z</time>
      </trkpt>
      <trkpt lat="43.9096" lon="7.45837">
        <ele>1018</ele>
        <time>2021-02-20T11:09:17.000Z</time>
      </trkpt>
      <trkpt lat="43.90954" lon="7.45831">
        <ele>1018.4000244141</ele>
        <time>2021-02-20T11:09:20.000Z</time>
      </trkpt>
      <trkpt lat="43.90948" lon="7.45826">
        <ele>1018.5999755859</ele>
        <time>2021-02-20T11:09:23.000Z</time>
      </trkpt>
      <trkpt lat="43.90941" lon="7.45823">
        <ele>1019.4000244141</ele>
        <time>2021-02-20T11:09:26.000Z</time>
      </trkpt>
      <trkpt lat="43.90932" lon="7.4582">
        <ele>1020.5999755859</ele>
        <time>2021-02-20T11:09:30.000Z</time>
      </trkpt>
      <trkpt lat="43.90918" lon="7.45816">
        <ele>1021.5999755859</ele>
        <time>2021-02-20T11:09:36.000Z</time>
      </trkpt>
      <trkpt lat="43.90909" lon="7.45815">
        <ele>1022.4000244141</ele>
        <time>2021-02-20T11:09:40.000Z</time>
      </trkpt>
      <trkpt lat="43.90904" lon="7.45815">
        <ele>1022.799987793</ele>
        <time>2021-02-20T11:09:42.000Z</time>
      </trkpt>
      <trkpt lat="43.9089" lon="7.45814">
        <ele>1024</ele>
        <time>2021-02-20T11:09:48.000Z</time>
      </trkpt>
      <trkpt lat="43.90879" lon="7.45813">
        <ele>1025</ele>
        <time>2021-02-20T11:09:53.000Z</time>
      </trkpt>
      <trkpt lat="43.90871" lon="7.45813">
        <ele>1025.5999755859</ele>
        <time>2021-02-20T11:09:56.000Z</time>
      </trkpt>
      <trkpt lat="43.90864" lon="7.45811">
        <ele>1026.1999511719</ele>
        <time>2021-02-20T11:09:59.000Z</time>
      </trkpt>
      <trkpt lat="43.90852" lon="7.45806">
        <ele>1027.1999511719</ele>
        <time>2021-02-20T11:10:04.000Z</time>
      </trkpt>
      <trkpt lat="43.90843" lon="7.45804">
        <ele>1028.1999511719</ele>
        <time>2021-02-20T11:10:08.000Z</time>
      </trkpt>
      <trkpt lat="43.90831" lon="7.458">
        <ele>1029.4000244141</ele>
        <time>2021-02-20T11:10:13.000Z</time>
      </trkpt>
      <trkpt lat="43.90822" lon="7.45797">
        <ele>1030.4000244141</ele>
        <time>2021-02-20T11:10:17.000Z</time>
      </trkpt>
      <trkpt lat="43.90818" lon="7.45796">
        <ele>1031</ele>
        <time>2021-02-20T11:10:19.000Z</time>
      </trkpt>
      <trkpt lat="43.90814" lon="7.45795">
        <ele>1031.4000244141</ele>
        <time>2021-02-20T11:10:21.000Z</time>
      </trkpt>
      <trkpt lat="43.90801" lon="7.4579">
        <ele>1032.1999511719</ele>
        <time>2021-02-20T11:10:26.000Z</time>
      </trkpt>
      <trkpt lat="43.90794" lon="7.45787">
        <ele>1032.5999755859</ele>
        <time>2021-02-20T11:10:29.000Z</time>
      </trkpt>
      <trkpt lat="43.90781" lon="7.45784">
        <ele>1033.5999755859</ele>
        <time>2021-02-20T11:10:34.000Z</time>
      </trkpt>
      <trkpt lat="43.90769" lon="7.45785">
        <ele>1034.8000488281</ele>
        <time>2021-02-20T11:10:39.000Z</time>
      </trkpt>
      <trkpt lat="43.90764" lon="7.45785">
        <ele>1035</ele>
        <time>2021-02-20T11:10:41.000Z</time>
      </trkpt>
      <trkpt lat="43.90757" lon="7.45785">
        <ele>1036</ele>
        <time>2021-02-20T11:10:44.000Z</time>
      </trkpt>
      <trkpt lat="43.90748" lon="7.45784">
        <ele>1036.8000488281</ele>
        <time>2021-02-20T11:10:48.000Z</time>
      </trkpt>
      <trkpt lat="43.90746" lon="7.45784">
        <ele>1037</ele>
        <time>2021-02-20T11:10:49.000Z</time>
      </trkpt>
      <trkpt lat="43.90732" lon="7.4578">
        <ele>1038.1999511719</ele>
        <time>2021-02-20T11:10:55.000Z</time>
      </trkpt>
      <trkpt lat="43.90729" lon="7.4578">
        <ele>1038.4000244141</ele>
        <time>2021-02-20T11:10:56.000Z</time>
      </trkpt>
      <trkpt lat="43.90717" lon="7.45774">
        <ele>1039.1999511719</ele>
        <time>2021-02-20T11:11:01.000Z</time>
      </trkpt>
      <trkpt lat="43.90706" lon="7.45769">
        <ele>1040.1999511719</ele>
        <time>2021-02-20T11:11:06.000Z</time>
      </trkpt>
      <trkpt lat="43.90704" lon="7.45768">
        <ele>1040.1999511719</ele>
        <time>2021-02-20T11:11:07.000Z</time>
      </trkpt>
      <trkpt lat="43.90691" lon="7.45762">
        <ele>1041.4000244141</ele>
        <time>2021-02-20T11:11:13.000Z</time>
      </trkpt>
      <trkpt lat="43.90687" lon="7.45761">
        <ele>1041.8000488281</ele>
        <time>2021-02-20T11:11:15.000Z</time>
      </trkpt>
      <trkpt lat="43.90681" lon="7.45758">
        <ele>1042.5999755859</ele>
        <time>2021-02-20T11:11:18.000Z</time>
      </trkpt>
      <trkpt lat="43.90669" lon="7.45752">
        <ele>1043.5999755859</ele>
        <time>2021-02-20T11:11:24.000Z</time>
      </trkpt>
      <trkpt lat="43.90667" lon="7.45751">
        <ele>1043.8000488281</ele>
        <time>2021-02-20T11:11:25.000Z</time>
      </trkpt>
      <trkpt lat="43.90656" lon="7.45743">
        <ele>1044.8000488281</ele>
        <time>2021-02-20T11:11:30.000Z</time>
      </trkpt>
      <trkpt lat="43.90649" lon="7.45737">
        <ele>1045.8000488281</ele>
        <time>2021-02-20T11:11:34.000Z</time>
      </trkpt>
      <trkpt lat="43.90647" lon="7.45736">
        <ele>1046</ele>
        <time>2021-02-20T11:11:35.000Z</time>
      </trkpt>
      <trkpt lat="43.90635" lon="7.45728">
        <ele>1046.8000488281</ele>
        <time>2021-02-20T11:11:41.000Z</time>
      </trkpt>
      <trkpt lat="43.90633" lon="7.45727">
        <ele>1047.1999511719</ele>
        <time>2021-02-20T11:11:42.000Z</time>
      </trkpt>
      <trkpt lat="43.9062" lon="7.4572">
        <ele>1048.1999511719</ele>
        <time>2021-02-20T11:11:48.000Z</time>
      </trkpt>
      <trkpt lat="43.90617" lon="7.45718">
        <ele>1048.4000244141</ele>
        <time>2021-02-20T11:11:50.000Z</time>
      </trkpt>
      <trkpt lat="43.90612" lon="7.45717">
        <ele>1048.8000488281</ele>
        <time>2021-02-20T11:11:55.000Z</time>
      </trkpt>
      <trkpt lat="43.90612" lon="7.45717">
        <ele>1049.1999511719</ele>
        <time>2021-02-20T11:11:59.000Z</time>
      </trkpt>
      <trkpt lat="43.90612" lon="7.45716">
        <ele>1049.4000244141</ele>
        <time>2021-02-20T11:12:04.000Z</time>
      </trkpt>
      <trkpt lat="43.90608" lon="7.45724">
        <ele>1049.4000244141</ele>
        <time>2021-02-20T11:12:13.000Z</time>
      </trkpt>
      <trkpt lat="43.90607" lon="7.45731">
        <ele>1049.5999755859</ele>
        <time>2021-02-20T11:12:16.000Z</time>
      </trkpt>
      <trkpt lat="43.90607" lon="7.45735">
        <ele>1049.8000488281</ele>
        <time>2021-02-20T11:12:18.000Z</time>
      </trkpt>
      <trkpt lat="43.90611" lon="7.45736">
        <ele>1050</ele>
        <time>2021-02-20T11:12:21.000Z</time>
      </trkpt>
      <trkpt lat="43.90613" lon="7.45737">
        <ele>1050</ele>
        <time>2021-02-20T11:12:22.000Z</time>
      </trkpt>
      <trkpt lat="43.90617" lon="7.45736">
        <ele>1050.1999511719</ele>
        <time>2021-02-20T11:12:24.000Z</time>
      </trkpt>
      <trkpt lat="43.90625" lon="7.45734">
        <ele>1050.5999755859</ele>
        <time>2021-02-20T11:12:28.000Z</time>
      </trkpt>
      <trkpt lat="43.90632" lon="7.4574">
        <ele>1051</ele>
        <time>2021-02-20T11:12:32.000Z</time>
      </trkpt>
      <trkpt lat="43.90636" lon="7.45743">
        <ele>1051.4000244141</ele>
        <time>2021-02-20T11:12:34.000Z</time>
      </trkpt>
      <trkpt lat="43.90644" lon="7.45753">
        <ele>1051.8000488281</ele>
        <time>2021-02-20T11:12:39.000Z</time>
      </trkpt>
      <trkpt lat="43.90651" lon="7.4576">
        <ele>1052.4000244141</ele>
        <time>2021-02-20T11:12:43.000Z</time>
      </trkpt>
      <trkpt lat="43.90656" lon="7.45765">
        <ele>1053.1999511719</ele>
        <time>2021-02-20T11:12:46.000Z</time>
      </trkpt>
      <trkpt lat="43.90663" lon="7.45772">
        <ele>1053.5999755859</ele>
        <time>2021-02-20T11:12:50.000Z</time>
      </trkpt>
      <trkpt lat="43.90665" lon="7.45774">
        <ele>1053.8000488281</ele>
        <time>2021-02-20T11:12:51.000Z</time>
      </trkpt>
      <trkpt lat="43.90673" lon="7.45782">
        <ele>1054.8000488281</ele>
        <time>2021-02-20T11:12:56.000Z</time>
      </trkpt>
      <trkpt lat="43.90684" lon="7.45793">
        <ele>1055.8000488281</ele>
        <time>2021-02-20T11:13:02.000Z</time>
      </trkpt>
      <trkpt lat="43.90686" lon="7.45794">
        <ele>1056</ele>
        <time>2021-02-20T11:13:03.000Z</time>
      </trkpt>
      <trkpt lat="43.90693" lon="7.45799">
        <ele>1056.8000488281</ele>
        <time>2021-02-20T11:13:07.000Z</time>
      </trkpt>
      <trkpt lat="43.90696" lon="7.45802">
        <ele>1057.4000244141</ele>
        <time>2021-02-20T11:13:09.000Z</time>
      </trkpt>
      <trkpt lat="43.90702" lon="7.45806">
        <ele>1058</ele>
        <time>2021-02-20T11:13:12.000Z</time>
      </trkpt>
      <trkpt lat="43.90713" lon="7.45813">
        <ele>1058.8000488281</ele>
        <time>2021-02-20T11:13:17.000Z</time>
      </trkpt>
      <trkpt lat="43.90715" lon="7.45814">
        <ele>1059</ele>
        <time>2021-02-20T11:13:18.000Z</time>
      </trkpt>
      <trkpt lat="43.90725" lon="7.45821">
        <ele>1060</ele>
        <time>2021-02-20T11:13:23.000Z</time>
      </trkpt>
      <trkpt lat="43.90727" lon="7.45823">
        <ele>1060.1999511719</ele>
        <time>2021-02-20T11:13:24.000Z</time>
      </trkpt>
      <trkpt lat="43.90737" lon="7.45826">
        <ele>1061.1999511719</ele>
        <time>2021-02-20T11:13:29.000Z</time>
      </trkpt>
      <trkpt lat="43.9075" lon="7.45831">
        <ele>1062</ele>
        <time>2021-02-20T11:13:35.000Z</time>
      </trkpt>
      <trkpt lat="43.90752" lon="7.45832">
        <ele>1062.1999511719</ele>
        <time>2021-02-20T11:13:36.000Z</time>
      </trkpt>
      <trkpt lat="43.90763" lon="7.45835">
        <ele>1063.4000244141</ele>
        <time>2021-02-20T11:13:41.000Z</time>
      </trkpt>
      <trkpt lat="43.90768" lon="7.45837">
        <ele>1063.8000488281</ele>
        <time>2021-02-20T11:13:43.000Z</time>
      </trkpt>
      <trkpt lat="43.90776" lon="7.45841">
        <ele>1064.5999755859</ele>
        <time>2021-02-20T11:13:47.000Z</time>
      </trkpt>
      <trkpt lat="43.90782" lon="7.45845">
        <ele>1065</ele>
        <time>2021-02-20T11:13:50.000Z</time>
      </trkpt>
      <trkpt lat="43.9079" lon="7.45849">
        <ele>1065.5999755859</ele>
        <time>2021-02-20T11:13:54.000Z</time>
      </trkpt>
      <trkpt lat="43.90792" lon="7.4585">
        <ele>1065.5999755859</ele>
        <time>2021-02-20T11:13:55.000Z</time>
      </trkpt>
      <trkpt lat="43.90801" lon="7.45855">
        <ele>1066.5999755859</ele>
        <time>2021-02-20T11:13:59.000Z</time>
      </trkpt>
      <trkpt lat="43.90812" lon="7.45861">
        <ele>1067.5999755859</ele>
        <time>2021-02-20T11:14:04.000Z</time>
      </trkpt>
      <trkpt lat="43.90814" lon="7.45862">
        <ele>1067.8000488281</ele>
        <time>2021-02-20T11:14:05.000Z</time>
      </trkpt>
      <trkpt lat="43.90826" lon="7.45869">
        <ele>1068.5999755859</ele>
        <time>2021-02-20T11:14:11.000Z</time>
      </trkpt>
      <trkpt lat="43.9083" lon="7.45872">
        <ele>1069</ele>
        <time>2021-02-20T11:14:13.000Z</time>
      </trkpt>
      <trkpt lat="43.90835" lon="7.45872">
        <ele>1069.8000488281</ele>
        <time>2021-02-20T11:14:16.000Z</time>
      </trkpt>
      <trkpt lat="43.90842" lon="7.45873">
        <ele>1070.1999511719</ele>
        <time>2021-02-20T11:14:19.000Z</time>
      </trkpt>
      <trkpt lat="43.90846" lon="7.45874">
        <ele>1070.8000488281</ele>
        <time>2021-02-20T11:14:21.000Z</time>
      </trkpt>
      <trkpt lat="43.90856" lon="7.45878">
        <ele>1071.8000488281</ele>
        <time>2021-02-20T11:14:26.000Z</time>
      </trkpt>
      <trkpt lat="43.90869" lon="7.45881">
        <ele>1073</ele>
        <time>2021-02-20T11:14:32.000Z</time>
      </trkpt>
      <trkpt lat="43.90875" lon="7.45883">
        <ele>1073.4000244141</ele>
        <time>2021-02-20T11:14:35.000Z</time>
      </trkpt>
      <trkpt lat="43.90883" lon="7.45885">
        <ele>1074.1999511719</ele>
        <time>2021-02-20T11:14:39.000Z</time>
      </trkpt>
      <trkpt lat="43.9089" lon="7.45887">
        <ele>1074.8000488281</ele>
        <time>2021-02-20T11:14:42.000Z</time>
      </trkpt>
      <trkpt lat="43.90897" lon="7.45889">
        <ele>1075.4000244141</ele>
        <time>2021-02-20T11:14:45.000Z</time>
      </trkpt>
      <trkpt lat="43.90906" lon="7.45892">
        <ele>1076</ele>
        <time>2021-02-20T11:14:49.000Z</time>
      </trkpt>
      <trkpt lat="43.90908" lon="7.45894">
        <ele>1076.4000244141</ele>
        <time>2021-02-20T11:14:51.000Z</time>
      </trkpt>
      <trkpt lat="43.90915" lon="7.459">
        <ele>1077</ele>
        <time>2021-02-20T11:14:54.000Z</time>
      </trkpt>
      <trkpt lat="43.90921" lon="7.45905">
        <ele>1077.4000244141</ele>
        <time>2021-02-20T11:14:57.000Z</time>
      </trkpt>
      <trkpt lat="43.90929" lon="7.45913">
        <ele>1078.1999511719</ele>
        <time>2021-02-20T11:15:01.000Z</time>
      </trkpt>
      <trkpt lat="43.90933" lon="7.45917">
        <ele>1078.5999755859</ele>
        <time>2021-02-20T11:15:03.000Z</time>
      </trkpt>
      <trkpt lat="43.90944" lon="7.45919">
        <ele>1079.8000488281</ele>
        <time>2021-02-20T11:15:08.000Z</time>
      </trkpt>
      <trkpt lat="43.90952" lon="7.45917">
        <ele>1081</ele>
        <time>2021-02-20T11:15:12.000Z</time>
      </trkpt>
      <trkpt lat="43.90957" lon="7.45918">
        <ele>1081.4000244141</ele>
        <time>2021-02-20T11:15:14.000Z</time>
      </trkpt>
      <trkpt lat="43.90969" lon="7.45919">
        <ele>1082</ele>
        <time>2021-02-20T11:15:19.000Z</time>
      </trkpt>
      <trkpt lat="43.90973" lon="7.4592">
        <ele>1082.5999755859</ele>
        <time>2021-02-20T11:15:21.000Z</time>
      </trkpt>
      <trkpt lat="43.90977" lon="7.45921">
        <ele>1083.1999511719</ele>
        <time>2021-02-20T11:15:23.000Z</time>
      </trkpt>
      <trkpt lat="43.90982" lon="7.45923">
        <ele>1083.5999755859</ele>
        <time>2021-02-20T11:15:25.000Z</time>
      </trkpt>
      <trkpt lat="43.90989" lon="7.45926">
        <ele>1084.4000244141</ele>
        <time>2021-02-20T11:15:28.000Z</time>
      </trkpt>
      <trkpt lat="43.90998" lon="7.45929">
        <ele>1085.1999511719</ele>
        <time>2021-02-20T11:15:32.000Z</time>
      </trkpt>
      <trkpt lat="43.91002" lon="7.45931">
        <ele>1085.4000244141</ele>
        <time>2021-02-20T11:15:34.000Z</time>
      </trkpt>
      <trkpt lat="43.91009" lon="7.45934">
        <ele>1086.1999511719</ele>
        <time>2021-02-20T11:15:38.000Z</time>
      </trkpt>
      <trkpt lat="43.91011" lon="7.45934">
        <ele>1086.5999755859</ele>
        <time>2021-02-20T11:15:39.000Z</time>
      </trkpt>
      <trkpt lat="43.91022" lon="7.45936">
        <ele>1087.5999755859</ele>
        <time>2021-02-20T11:15:44.000Z</time>
      </trkpt>
      <trkpt lat="43.91028" lon="7.45936">
        <ele>1088.1999511719</ele>
        <time>2021-02-20T11:15:47.000Z</time>
      </trkpt>
      <trkpt lat="43.91033" lon="7.45938">
        <ele>1088.5999755859</ele>
        <time>2021-02-20T11:15:50.000Z</time>
      </trkpt>
      <trkpt lat="43.91036" lon="7.45938">
        <ele>1088.5999755859</ele>
        <time>2021-02-20T11:15:51.000Z</time>
      </trkpt>
      <trkpt lat="43.91048" lon="7.45939">
        <ele>1089.5999755859</ele>
        <time>2021-02-20T11:15:56.000Z</time>
      </trkpt>
      <trkpt lat="43.91051" lon="7.4594">
        <ele>1089.8000488281</ele>
        <time>2021-02-20T11:15:57.000Z</time>
      </trkpt>
      <trkpt lat="43.91065" lon="7.45939">
        <ele>1091</ele>
        <time>2021-02-20T11:16:02.000Z</time>
      </trkpt>
      <trkpt lat="43.91071" lon="7.4594">
        <ele>1091.5999755859</ele>
        <time>2021-02-20T11:16:04.000Z</time>
      </trkpt>
      <trkpt lat="43.91076" lon="7.45939">
        <ele>1092.1999511719</ele>
        <time>2021-02-20T11:16:06.000Z</time>
      </trkpt>
      <trkpt lat="43.91091" lon="7.4594">
        <ele>1093</ele>
        <time>2021-02-20T11:16:11.000Z</time>
      </trkpt>
      <trkpt lat="43.91093" lon="7.45939">
        <ele>1093.1999511719</ele>
        <time>2021-02-20T11:16:12.000Z</time>
      </trkpt>
      <trkpt lat="43.91104" lon="7.45939">
        <ele>1094.4000244141</ele>
        <time>2021-02-20T11:16:16.000Z</time>
      </trkpt>
      <trkpt lat="43.91107" lon="7.45939">
        <ele>1094.5999755859</ele>
        <time>2021-02-20T11:16:17.000Z</time>
      </trkpt>
      <trkpt lat="43.91113" lon="7.4594">
        <ele>1095.4000244141</ele>
        <time>2021-02-20T11:16:19.000Z</time>
      </trkpt>
      <trkpt lat="43.91127" lon="7.45941">
        <ele>1096.4000244141</ele>
        <time>2021-02-20T11:16:24.000Z</time>
      </trkpt>
      <trkpt lat="43.9113" lon="7.45941">
        <ele>1096.5999755859</ele>
        <time>2021-02-20T11:16:25.000Z</time>
      </trkpt>
      <trkpt lat="43.91145" lon="7.45942">
        <ele>1097.8000488281</ele>
        <time>2021-02-20T11:16:30.000Z</time>
      </trkpt>
      <trkpt lat="43.91151" lon="7.45942">
        <ele>1098.1999511719</ele>
        <time>2021-02-20T11:16:32.000Z</time>
      </trkpt>
      <trkpt lat="43.91156" lon="7.45942">
        <ele>1098.8000488281</ele>
        <time>2021-02-20T11:16:34.000Z</time>
      </trkpt>
      <trkpt lat="43.91164" lon="7.45945">
        <ele>1100</ele>
        <time>2021-02-20T11:16:37.000Z</time>
      </trkpt>
      <trkpt lat="43.91172" lon="7.45947">
        <ele>1100.8000488281</ele>
        <time>2021-02-20T11:16:40.000Z</time>
      </trkpt>
      <trkpt lat="43.9118" lon="7.45951">
        <ele>1101.1999511719</ele>
        <time>2021-02-20T11:16:43.000Z</time>
      </trkpt>
      <trkpt lat="43.91187" lon="7.45953">
        <ele>1102.1999511719</ele>
        <time>2021-02-20T11:16:46.000Z</time>
      </trkpt>
      <trkpt lat="43.91196" lon="7.45955">
        <ele>1103.4000244141</ele>
        <time>2021-02-20T11:16:50.000Z</time>
      </trkpt>
      <trkpt lat="43.91206" lon="7.45958">
        <ele>1104.5999755859</ele>
        <time>2021-02-20T11:16:54.000Z</time>
      </trkpt>
      <trkpt lat="43.91208" lon="7.45959">
        <ele>1104.8000488281</ele>
        <time>2021-02-20T11:16:55.000Z</time>
      </trkpt>
      <trkpt lat="43.91219" lon="7.45964">
        <ele>1105.5999755859</ele>
        <time>2021-02-20T11:17:00.000Z</time>
      </trkpt>
      <trkpt lat="43.91226" lon="7.45967">
        <ele>1106.1999511719</ele>
        <time>2021-02-20T11:17:03.000Z</time>
      </trkpt>
      <trkpt lat="43.91232" lon="7.45969">
        <ele>1106.8000488281</ele>
        <time>2021-02-20T11:17:06.000Z</time>
      </trkpt>
      <trkpt lat="43.91241" lon="7.45973">
        <ele>1107.8000488281</ele>
        <time>2021-02-20T11:17:10.000Z</time>
      </trkpt>
      <trkpt lat="43.91252" lon="7.45976">
        <ele>1109</ele>
        <time>2021-02-20T11:17:15.000Z</time>
      </trkpt>
      <trkpt lat="43.91255" lon="7.45977">
        <ele>1109.1999511719</ele>
        <time>2021-02-20T11:17:17.000Z</time>
      </trkpt>
      <trkpt lat="43.91262" lon="7.4598">
        <ele>1110.1999511719</ele>
        <time>2021-02-20T11:17:20.000Z</time>
      </trkpt>
      <trkpt lat="43.91271" lon="7.45982">
        <ele>1110.8000488281</ele>
        <time>2021-02-20T11:17:24.000Z</time>
      </trkpt>
      <trkpt lat="43.91275" lon="7.45984">
        <ele>1111.1999511719</ele>
        <time>2021-02-20T11:17:26.000Z</time>
      </trkpt>
      <trkpt lat="43.91287" lon="7.45985">
        <ele>1112.1999511719</ele>
        <time>2021-02-20T11:17:31.000Z</time>
      </trkpt>
      <trkpt lat="43.91302" lon="7.45985">
        <ele>1113.4000244141</ele>
        <time>2021-02-20T11:17:37.000Z</time>
      </trkpt>
      <trkpt lat="43.91315" lon="7.45985">
        <ele>1114.5999755859</ele>
        <time>2021-02-20T11:17:42.000Z</time>
      </trkpt>
      <trkpt lat="43.91324" lon="7.45985">
        <ele>1115.1999511719</ele>
        <time>2021-02-20T11:17:45.000Z</time>
      </trkpt>
      <trkpt lat="43.91329" lon="7.45985">
        <ele>1115.5999755859</ele>
        <time>2021-02-20T11:17:47.000Z</time>
      </trkpt>
      <trkpt lat="43.91342" lon="7.45987">
        <ele>1116.5999755859</ele>
        <time>2021-02-20T11:17:52.000Z</time>
      </trkpt>
      <trkpt lat="43.91344" lon="7.45988">
        <ele>1116.8000488281</ele>
        <time>2021-02-20T11:17:53.000Z</time>
      </trkpt>
      <trkpt lat="43.9136" lon="7.45997">
        <ele>1117.8000488281</ele>
        <time>2021-02-20T11:17:59.000Z</time>
      </trkpt>
      <trkpt lat="43.9137" lon="7.46003">
        <ele>1119</ele>
        <time>2021-02-20T11:18:03.000Z</time>
      </trkpt>
      <trkpt lat="43.9138" lon="7.4601">
        <ele>1120.1999511719</ele>
        <time>2021-02-20T11:18:07.000Z</time>
      </trkpt>
      <trkpt lat="43.91388" lon="7.46018">
        <ele>1121.4000244141</ele>
        <time>2021-02-20T11:18:11.000Z</time>
      </trkpt>
      <trkpt lat="43.91392" lon="7.46022">
        <ele>1121.8000488281</ele>
        <time>2021-02-20T11:18:13.000Z</time>
      </trkpt>
      <trkpt lat="43.91405" lon="7.46032">
        <ele>1122.4000244141</ele>
        <time>2021-02-20T11:18:19.000Z</time>
      </trkpt>
      <trkpt lat="43.91413" lon="7.46039">
        <ele>1123.5999755859</ele>
        <time>2021-02-20T11:18:23.000Z</time>
      </trkpt>
      <trkpt lat="43.91415" lon="7.4604">
        <ele>1124</ele>
        <time>2021-02-20T11:18:24.000Z</time>
      </trkpt>
      <trkpt lat="43.91425" lon="7.46049">
        <ele>1124.8000488281</ele>
        <time>2021-02-20T11:18:29.000Z</time>
      </trkpt>
      <trkpt lat="43.91438" lon="7.46058">
        <ele>1125.8000488281</ele>
        <time>2021-02-20T11:18:35.000Z</time>
      </trkpt>
      <trkpt lat="43.91445" lon="7.46064">
        <ele>1126.8000488281</ele>
        <time>2021-02-20T11:18:38.000Z</time>
      </trkpt>
      <trkpt lat="43.91455" lon="7.4607">
        <ele>1127.8000488281</ele>
        <time>2021-02-20T11:18:42.000Z</time>
      </trkpt>
      <trkpt lat="43.91458" lon="7.46072">
        <ele>1128</ele>
        <time>2021-02-20T11:18:43.000Z</time>
      </trkpt>
      <trkpt lat="43.9147" lon="7.46079">
        <ele>1129.1999511719</ele>
        <time>2021-02-20T11:18:48.000Z</time>
      </trkpt>
      <trkpt lat="43.91473" lon="7.46081">
        <ele>1129.4000244141</ele>
        <time>2021-02-20T11:18:49.000Z</time>
      </trkpt>
      <trkpt lat="43.91483" lon="7.46087">
        <ele>1130.4000244141</ele>
        <time>2021-02-20T11:18:53.000Z</time>
      </trkpt>
      <trkpt lat="43.9149" lon="7.46092">
        <ele>1131.1999511719</ele>
        <time>2021-02-20T11:18:56.000Z</time>
      </trkpt>
      <trkpt lat="43.91493" lon="7.46094">
        <ele>1131.4000244141</ele>
        <time>2021-02-20T11:18:57.000Z</time>
      </trkpt>
      <trkpt lat="43.91502" lon="7.461">
        <ele>1132.4000244141</ele>
        <time>2021-02-20T11:19:01.000Z</time>
      </trkpt>
      <trkpt lat="43.91503" lon="7.46101">
        <ele>1132.8000488281</ele>
        <time>2021-02-20T11:19:02.000Z</time>
      </trkpt>
      <trkpt lat="43.9151" lon="7.46106">
        <ele>1133.5999755859</ele>
        <time>2021-02-20T11:19:05.000Z</time>
      </trkpt>
      <trkpt lat="43.91513" lon="7.46108">
        <ele>1133.8000488281</ele>
        <time>2021-02-20T11:19:06.000Z</time>
      </trkpt>
      <trkpt lat="43.91522" lon="7.46114">
        <ele>1134.8000488281</ele>
        <time>2021-02-20T11:19:10.000Z</time>
      </trkpt>
      <trkpt lat="43.91531" lon="7.46119">
        <ele>1135.5999755859</ele>
        <time>2021-02-20T11:19:14.000Z</time>
      </trkpt>
      <trkpt lat="43.91533" lon="7.46119">
        <ele>1136</ele>
        <time>2021-02-20T11:19:15.000Z</time>
      </trkpt>
      <trkpt lat="43.91544" lon="7.46122">
        <ele>1136.8000488281</ele>
        <time>2021-02-20T11:19:20.000Z</time>
      </trkpt>
      <trkpt lat="43.91547" lon="7.46123">
        <ele>1137</ele>
        <time>2021-02-20T11:19:21.000Z</time>
      </trkpt>
      <trkpt lat="43.91559" lon="7.46124">
        <ele>1138</ele>
        <time>2021-02-20T11:19:27.000Z</time>
      </trkpt>
      <trkpt lat="43.9156" lon="7.46125">
        <ele>1138.1999511719</ele>
        <time>2021-02-20T11:19:28.000Z</time>
      </trkpt>
      <trkpt lat="43.9156" lon="7.46127">
        <ele>1138.4000244141</ele>
        <time>2021-02-20T11:19:31.000Z</time>
      </trkpt>
      <trkpt lat="43.9156" lon="7.46127">
        <ele>1138.8000488281</ele>
        <time>2021-02-20T11:19:36.000Z</time>
      </trkpt>
      <trkpt lat="43.91559" lon="7.46126">
        <ele>1138.8000488281</ele>
        <time>2021-02-20T11:19:43.000Z</time>
      </trkpt>
      <trkpt lat="43.9156" lon="7.46128">
        <ele>1138.8000488281</ele>
        <time>2021-02-20T11:19:47.000Z</time>
      </trkpt>
      <trkpt lat="43.9156" lon="7.4613">
        <ele>1138.8000488281</ele>
        <time>2021-02-20T11:19:50.000Z</time>
      </trkpt>
      <trkpt lat="43.9156" lon="7.46129">
        <ele>1138.8000488281</ele>
        <time>2021-02-20T11:19:51.000Z</time>
      </trkpt>
      <trkpt lat="43.9156" lon="7.46131">
        <ele>1138.8000488281</ele>
        <time>2021-02-20T11:19:57.000Z</time>
      </trkpt>
      <trkpt lat="43.9156" lon="7.46132">
        <ele>1139</ele>
        <time>2021-02-20T11:20:03.000Z</time>
      </trkpt>
      <trkpt lat="43.9156" lon="7.46133">
        <ele>1139.1999511719</ele>
        <time>2021-02-20T11:20:10.000Z</time>
      </trkpt>
      <trkpt lat="43.9156" lon="7.46133">
        <ele>1139.4000244141</ele>
        <time>2021-02-20T11:20:12.000Z</time>
      </trkpt>
      <trkpt lat="43.9156" lon="7.46134">
        <ele>1139.1999511719</ele>
        <time>2021-02-20T11:20:18.000Z</time>
      </trkpt>
      <trkpt lat="43.91561" lon="7.46135">
        <ele>1139.1999511719</ele>
        <time>2021-02-20T11:20:23.000Z</time>
      </trkpt>
      <trkpt lat="43.91559" lon="7.46135">
        <ele>1139.1999511719</ele>
        <time>2021-02-20T11:20:30.000Z</time>
      </trkpt>
      <trkpt lat="43.91558" lon="7.46134">
        <ele>1138.4000244141</ele>
        <time>2021-02-20T11:20:37.000Z</time>
      </trkpt>
      <trkpt lat="43.91558" lon="7.46134">
        <ele>1138.8000488281</ele>
        <time>2021-02-20T11:20:50.000Z</time>
      </trkpt>
      <trkpt lat="43.91558" lon="7.46133">
        <ele>1138.5999755859</ele>
        <time>2021-02-20T11:20:59.000Z</time>
      </trkpt>
      <trkpt lat="43.91558" lon="7.46133">
        <ele>1138.8000488281</ele>
        <time>2021-02-20T11:21:10.000Z</time>
      </trkpt>
      <trkpt lat="43.91558" lon="7.46133">
        <ele>1138.5999755859</ele>
        <time>2021-02-20T11:21:23.000Z</time>
      </trkpt>
      <trkpt lat="43.91558" lon="7.46133">
        <ele>1138.5999755859</ele>
        <time>2021-02-20T11:21:36.000Z</time>
      </trkpt>
      <trkpt lat="43.91558" lon="7.46134">
        <ele>1138.5999755859</ele>
        <time>2021-02-20T11:21:55.000Z</time>
      </trkpt>
      <trkpt lat="43.91558" lon="7.46134">
        <ele>1138.5999755859</ele>
        <time>2021-02-20T11:22:05.000Z</time>
      </trkpt>
      <trkpt lat="43.91558" lon="7.46133">
        <ele>1138.1999511719</ele>
        <time>2021-02-20T11:22:14.000Z</time>
      </trkpt>
      <trkpt lat="43.91558" lon="7.46133">
        <ele>1138</ele>
        <time>2021-02-20T11:22:15.000Z</time>
      </trkpt>
      <trkpt lat="43.91558" lon="7.46132">
        <ele>1138.4000244141</ele>
        <time>2021-02-20T11:22:22.000Z</time>
      </trkpt>
      <trkpt lat="43.91558" lon="7.46131">
        <ele>1138.4000244141</ele>
        <time>2021-02-20T11:22:30.000Z</time>
      </trkpt>
      <trkpt lat="43.91559" lon="7.46131">
        <ele>1138.4000244141</ele>
        <time>2021-02-20T11:22:38.000Z</time>
      </trkpt>
      <trkpt lat="43.91558" lon="7.46128">
        <ele>1138.4000244141</ele>
        <time>2021-02-20T11:22:52.000Z</time>
      </trkpt>
      <trkpt lat="43.91559" lon="7.46128">
        <ele>1138.4000244141</ele>
        <time>2021-02-20T11:22:59.000Z</time>
      </trkpt>
      <trkpt lat="43.9156" lon="7.46129">
        <ele>1138</ele>
        <time>2021-02-20T11:23:07.000Z</time>
      </trkpt>
      <trkpt lat="43.91563" lon="7.46132">
        <ele>1138</ele>
        <time>2021-02-20T11:23:14.000Z</time>
      </trkpt>
      <trkpt lat="43.91563" lon="7.46132">
        <ele>1138.1999511719</ele>
        <time>2021-02-20T11:23:20.000Z</time>
      </trkpt>
      <trkpt lat="43.91563" lon="7.46132">
        <ele>1138.1999511719</ele>
        <time>2021-02-20T11:23:29.000Z</time>
      </trkpt>
      <trkpt lat="43.91563" lon="7.46133">
        <ele>1138.4000244141</ele>
        <time>2021-02-20T11:23:38.000Z</time>
      </trkpt>
      <trkpt lat="43.91563" lon="7.46132">
        <ele>1138.4000244141</ele>
        <time>2021-02-20T11:23:39.000Z</time>
      </trkpt>
      <trkpt lat="43.91564" lon="7.46134">
        <ele>1138.4000244141</ele>
        <time>2021-02-20T11:23:46.000Z</time>
      </trkpt>
      <trkpt lat="43.91565" lon="7.46135">
        <ele>1138.1999511719</ele>
        <time>2021-02-20T11:23:54.000Z</time>
      </trkpt>
      <trkpt lat="43.91566" lon="7.46135">
        <ele>1138.4000244141</ele>
        <time>2021-02-20T11:24:02.000Z</time>
      </trkpt>
      <trkpt lat="43.91565" lon="7.46135">
        <ele>1138.4000244141</ele>
        <time>2021-02-20T11:24:06.000Z</time>
      </trkpt>
      <trkpt lat="43.91566" lon="7.46133">
        <ele>1138.4000244141</ele>
        <time>2021-02-20T11:24:12.000Z</time>
      </trkpt>
      <trkpt lat="43.91566" lon="7.46132">
        <ele>1138.8000488281</ele>
        <time>2021-02-20T11:24:19.000Z</time>
      </trkpt>
      <trkpt lat="43.91565" lon="7.46133">
        <ele>1138.8000488281</ele>
        <time>2021-02-20T11:24:26.000Z</time>
      </trkpt>
      <trkpt lat="43.91565" lon="7.46135">
        <ele>1138.8000488281</ele>
        <time>2021-02-20T11:24:35.000Z</time>
      </trkpt>
      <trkpt lat="43.91564" lon="7.46135">
        <ele>1138.1999511719</ele>
        <time>2021-02-20T11:24:45.000Z</time>
      </trkpt>
      <trkpt lat="43.91563" lon="7.46133">
        <ele>1138.1999511719</ele>
        <time>2021-02-20T11:24:52.000Z</time>
      </trkpt>
      <trkpt lat="43.91563" lon="7.46134">
        <ele>1138.1999511719</ele>
        <time>2021-02-20T11:24:56.000Z</time>
      </trkpt>
      <trkpt lat="43.91564" lon="7.46134">
        <ele>1138.5999755859</ele>
        <time>2021-02-20T11:25:04.000Z</time>
      </trkpt>
      <trkpt lat="43.91566" lon="7.4614">
        <ele>1138.4000244141</ele>
        <time>2021-02-20T11:25:10.000Z</time>
      </trkpt>
      <trkpt lat="43.91568" lon="7.4614">
        <ele>1138.4000244141</ele>
        <time>2021-02-20T11:25:11.000Z</time>
      </trkpt>
      <trkpt lat="43.91571" lon="7.46139">
        <ele>1138.5999755859</ele>
        <time>2021-02-20T11:25:15.000Z</time>
      </trkpt>
      <trkpt lat="43.91571" lon="7.46139">
        <ele>1138.8000488281</ele>
        <time>2021-02-20T11:25:20.000Z</time>
      </trkpt>
      <trkpt lat="43.91575" lon="7.46137">
        <ele>1138.8000488281</ele>
        <time>2021-02-20T11:25:31.000Z</time>
      </trkpt>
      <trkpt lat="43.91585" lon="7.46134">
        <ele>1138.5999755859</ele>
        <time>2021-02-20T11:25:35.000Z</time>
      </trkpt>
      <trkpt lat="43.91602" lon="7.46138">
        <ele>1137.5999755859</ele>
        <time>2021-02-20T11:25:40.000Z</time>
      </trkpt>
      <trkpt lat="43.91613" lon="7.46144">
        <ele>1136.8000488281</ele>
        <time>2021-02-20T11:25:43.000Z</time>
      </trkpt>
      <trkpt lat="43.91617" lon="7.46147">
        <ele>1136</ele>
        <time>2021-02-20T11:25:44.000Z</time>
      </trkpt>
      <trkpt lat="43.91623" lon="7.4615">
        <ele>1135</ele>
        <time>2021-02-20T11:25:45.000Z</time>
      </trkpt>
      <trkpt lat="43.91635" lon="7.46153">
        <ele>1132.4000244141</ele>
        <time>2021-02-20T11:25:47.000Z</time>
      </trkpt>
      <trkpt lat="43.91641" lon="7.46153">
        <ele>1130.8000488281</ele>
        <time>2021-02-20T11:25:48.000Z</time>
      </trkpt>
      <trkpt lat="43.91646" lon="7.46151">
        <ele>1129.4000244141</ele>
        <time>2021-02-20T11:25:49.000Z</time>
      </trkpt>
      <trkpt lat="43.91651" lon="7.46148">
        <ele>1128.1999511719</ele>
        <time>2021-02-20T11:25:50.000Z</time>
      </trkpt>
      <trkpt lat="43.91657" lon="7.46143">
        <ele>1127.1999511719</ele>
        <time>2021-02-20T11:25:51.000Z</time>
      </trkpt>
      <trkpt lat="43.91661" lon="7.46139">
        <ele>1126.1999511719</ele>
        <time>2021-02-20T11:25:52.000Z</time>
      </trkpt>
      <trkpt lat="43.91666" lon="7.46136">
        <ele>1125.8000488281</ele>
        <time>2021-02-20T11:25:53.000Z</time>
      </trkpt>
      <trkpt lat="43.91676" lon="7.46128">
        <ele>1124.8000488281</ele>
        <time>2021-02-20T11:25:55.000Z</time>
      </trkpt>
      <trkpt lat="43.91683" lon="7.46125">
        <ele>1124.4000244141</ele>
        <time>2021-02-20T11:25:56.000Z</time>
      </trkpt>
      <trkpt lat="43.91697" lon="7.46116">
        <ele>1123.1999511719</ele>
        <time>2021-02-20T11:25:59.000Z</time>
      </trkpt>
      <trkpt lat="43.91701" lon="7.46115">
        <ele>1122.5999755859</ele>
        <time>2021-02-20T11:26:00.000Z</time>
      </trkpt>
      <trkpt lat="43.91703" lon="7.46115">
        <ele>1122.1999511719</ele>
        <time>2021-02-20T11:26:01.000Z</time>
      </trkpt>
      <trkpt lat="43.91704" lon="7.46116">
        <ele>1121</ele>
        <time>2021-02-20T11:26:03.000Z</time>
      </trkpt>
      <trkpt lat="43.91705" lon="7.46117">
        <ele>1121.1999511719</ele>
        <time>2021-02-20T11:26:11.000Z</time>
      </trkpt>
      <trkpt lat="43.91705" lon="7.46122">
        <ele>1120.8000488281</ele>
        <time>2021-02-20T11:26:21.000Z</time>
      </trkpt>
      <trkpt lat="43.91703" lon="7.46133">
        <ele>1120.5999755859</ele>
        <time>2021-02-20T11:26:26.000Z</time>
      </trkpt>
      <trkpt lat="43.91702" lon="7.46142">
        <ele>1119.8000488281</ele>
        <time>2021-02-20T11:26:29.000Z</time>
      </trkpt>
      <trkpt lat="43.91703" lon="7.46145">
        <ele>1119.4000244141</ele>
        <time>2021-02-20T11:26:30.000Z</time>
      </trkpt>
      <trkpt lat="43.91704" lon="7.46154">
        <ele>1117.8000488281</ele>
        <time>2021-02-20T11:26:32.000Z</time>
      </trkpt>
      <trkpt lat="43.91704" lon="7.46158">
        <ele>1116.5999755859</ele>
        <time>2021-02-20T11:26:33.000Z</time>
      </trkpt>
      <trkpt lat="43.91704" lon="7.46162">
        <ele>1115.4000244141</ele>
        <time>2021-02-20T11:26:34.000Z</time>
      </trkpt>
      <trkpt lat="43.91703" lon="7.46166">
        <ele>1114.1999511719</ele>
        <time>2021-02-20T11:26:35.000Z</time>
      </trkpt>
      <trkpt lat="43.917" lon="7.46175">
        <ele>1112.4000244141</ele>
        <time>2021-02-20T11:26:37.000Z</time>
      </trkpt>
      <trkpt lat="43.91699" lon="7.46182">
        <ele>1110.1999511719</ele>
        <time>2021-02-20T11:26:39.000Z</time>
      </trkpt>
      <trkpt lat="43.91699" lon="7.4619">
        <ele>1108.4000244141</ele>
        <time>2021-02-20T11:26:41.000Z</time>
      </trkpt>
      <trkpt lat="43.91698" lon="7.46194">
        <ele>1107</ele>
        <time>2021-02-20T11:26:42.000Z</time>
      </trkpt>
      <trkpt lat="43.91695" lon="7.462">
        <ele>1106</ele>
        <time>2021-02-20T11:26:43.000Z</time>
      </trkpt>
      <trkpt lat="43.91689" lon="7.4621">
        <ele>1103.5999755859</ele>
        <time>2021-02-20T11:26:45.000Z</time>
      </trkpt>
      <trkpt lat="43.91684" lon="7.4622">
        <ele>1102.1999511719</ele>
        <time>2021-02-20T11:26:47.000Z</time>
      </trkpt>
      <trkpt lat="43.91684" lon="7.46222">
        <ele>1100.8000488281</ele>
        <time>2021-02-20T11:26:48.000Z</time>
      </trkpt>
      <trkpt lat="43.91685" lon="7.46224">
        <ele>1099.5999755859</ele>
        <time>2021-02-20T11:26:49.000Z</time>
      </trkpt>
      <trkpt lat="43.91687" lon="7.46224">
        <ele>1098.4000244141</ele>
        <time>2021-02-20T11:26:51.000Z</time>
      </trkpt>
      <trkpt lat="43.91693" lon="7.46224">
        <ele>1097</ele>
        <time>2021-02-20T11:26:53.000Z</time>
      </trkpt>
      <trkpt lat="43.91705" lon="7.46219">
        <ele>1095</ele>
        <time>2021-02-20T11:26:56.000Z</time>
      </trkpt>
      <trkpt lat="43.91712" lon="7.46215">
        <ele>1092.8000488281</ele>
        <time>2021-02-20T11:26:58.000Z</time>
      </trkpt>
      <trkpt lat="43.91717" lon="7.46216">
        <ele>1092</ele>
        <time>2021-02-20T11:27:00.000Z</time>
      </trkpt>
      <trkpt lat="43.91718" lon="7.46219">
        <ele>1091.1999511719</ele>
        <time>2021-02-20T11:27:01.000Z</time>
      </trkpt>
      <trkpt lat="43.91715" lon="7.46227">
        <ele>1089.8000488281</ele>
        <time>2021-02-20T11:27:03.000Z</time>
      </trkpt>
      <trkpt lat="43.91712" lon="7.46236">
        <ele>1088.4000244141</ele>
        <time>2021-02-20T11:27:05.000Z</time>
      </trkpt>
      <trkpt lat="43.9171" lon="7.46243">
        <ele>1087.4000244141</ele>
        <time>2021-02-20T11:27:06.000Z</time>
      </trkpt>
      <trkpt lat="43.91708" lon="7.4625">
        <ele>1086.8000488281</ele>
        <time>2021-02-20T11:27:07.000Z</time>
      </trkpt>
      <trkpt lat="43.91704" lon="7.46255">
        <ele>1086</ele>
        <time>2021-02-20T11:27:08.000Z</time>
      </trkpt>
      <trkpt lat="43.91701" lon="7.46259">
        <ele>1085</ele>
        <time>2021-02-20T11:27:09.000Z</time>
      </trkpt>
      <trkpt lat="43.917" lon="7.46262">
        <ele>1083.8000488281</ele>
        <time>2021-02-20T11:27:10.000Z</time>
      </trkpt>
      <trkpt lat="43.91697" lon="7.46267">
        <ele>1082.8000488281</ele>
        <time>2021-02-20T11:27:11.000Z</time>
      </trkpt>
      <trkpt lat="43.91695" lon="7.46278">
        <ele>1080.4000244141</ele>
        <time>2021-02-20T11:27:13.000Z</time>
      </trkpt>
      <trkpt lat="43.91695" lon="7.46281">
        <ele>1079.8000488281</ele>
        <time>2021-02-20T11:27:14.000Z</time>
      </trkpt>
      <trkpt lat="43.91698" lon="7.46284">
        <ele>1079.5999755859</ele>
        <time>2021-02-20T11:27:15.000Z</time>
      </trkpt>
      <trkpt lat="43.917" lon="7.4629">
        <ele>1079</ele>
        <time>2021-02-20T11:27:16.000Z</time>
      </trkpt>
      <trkpt lat="43.91703" lon="7.46298">
        <ele>1078</ele>
        <time>2021-02-20T11:27:18.000Z</time>
      </trkpt>
      <trkpt lat="43.91705" lon="7.46304">
        <ele>1077.4000244141</ele>
        <time>2021-02-20T11:27:19.000Z</time>
      </trkpt>
      <trkpt lat="43.91709" lon="7.46318">
        <ele>1076</ele>
        <time>2021-02-20T11:27:21.000Z</time>
      </trkpt>
      <trkpt lat="43.91711" lon="7.46325">
        <ele>1075.4000244141</ele>
        <time>2021-02-20T11:27:22.000Z</time>
      </trkpt>
      <trkpt lat="43.91714" lon="7.4633">
        <ele>1074.8000488281</ele>
        <time>2021-02-20T11:27:23.000Z</time>
      </trkpt>
      <trkpt lat="43.91722" lon="7.46341">
        <ele>1074.1999511719</ele>
        <time>2021-02-20T11:27:26.000Z</time>
      </trkpt>
      <trkpt lat="43.91724" lon="7.46345">
        <ele>1073.5999755859</ele>
        <time>2021-02-20T11:27:27.000Z</time>
      </trkpt>
      <trkpt lat="43.91729" lon="7.46349">
        <ele>1072.1999511719</ele>
        <time>2021-02-20T11:27:29.000Z</time>
      </trkpt>
      <trkpt lat="43.91733" lon="7.46353">
        <ele>1071.4000244141</ele>
        <time>2021-02-20T11:27:30.000Z</time>
      </trkpt>
      <trkpt lat="43.91735" lon="7.46357">
        <ele>1070.1999511719</ele>
        <time>2021-02-20T11:27:31.000Z</time>
      </trkpt>
      <trkpt lat="43.91739" lon="7.46363">
        <ele>1068.1999511719</ele>
        <time>2021-02-20T11:27:33.000Z</time>
      </trkpt>
      <trkpt lat="43.91741" lon="7.46367">
        <ele>1067.1999511719</ele>
        <time>2021-02-20T11:27:34.000Z</time>
      </trkpt>
      <trkpt lat="43.91742" lon="7.46372">
        <ele>1066</ele>
        <time>2021-02-20T11:27:35.000Z</time>
      </trkpt>
      <trkpt lat="43.91747" lon="7.46381">
        <ele>1064</ele>
        <time>2021-02-20T11:27:37.000Z</time>
      </trkpt>
      <trkpt lat="43.91754" lon="7.46389">
        <ele>1062.4000244141</ele>
        <time>2021-02-20T11:27:39.000Z</time>
      </trkpt>
      <trkpt lat="43.91758" lon="7.46393">
        <ele>1061</ele>
        <time>2021-02-20T11:27:40.000Z</time>
      </trkpt>
      <trkpt lat="43.91762" lon="7.46398">
        <ele>1059.5999755859</ele>
        <time>2021-02-20T11:27:41.000Z</time>
      </trkpt>
      <trkpt lat="43.91763" lon="7.46404">
        <ele>1058</ele>
        <time>2021-02-20T11:27:42.000Z</time>
      </trkpt>
      <trkpt lat="43.91764" lon="7.46407">
        <ele>1056.4000244141</ele>
        <time>2021-02-20T11:27:43.000Z</time>
      </trkpt>
      <trkpt lat="43.91764" lon="7.4641">
        <ele>1054.5999755859</ele>
        <time>2021-02-20T11:27:44.000Z</time>
      </trkpt>
      <trkpt lat="43.91766" lon="7.46411">
        <ele>1053</ele>
        <time>2021-02-20T11:27:46.000Z</time>
      </trkpt>
      <trkpt lat="43.91774" lon="7.4642">
        <ele>1052</ele>
        <time>2021-02-20T11:27:49.000Z</time>
      </trkpt>
      <trkpt lat="43.91781" lon="7.46423">
        <ele>1050.5999755859</ele>
        <time>2021-02-20T11:27:51.000Z</time>
      </trkpt>
      <trkpt lat="43.91783" lon="7.46424">
        <ele>1049.8000488281</ele>
        <time>2021-02-20T11:27:52.000Z</time>
      </trkpt>
      <trkpt lat="43.91785" lon="7.46424">
        <ele>1048.5999755859</ele>
        <time>2021-02-20T11:27:53.000Z</time>
      </trkpt>
      <trkpt lat="43.91787" lon="7.46426">
        <ele>1047.4000244141</ele>
        <time>2021-02-20T11:27:54.000Z</time>
      </trkpt>
      <trkpt lat="43.9179" lon="7.46428">
        <ele>1045.5999755859</ele>
        <time>2021-02-20T11:27:56.000Z</time>
      </trkpt>
      <trkpt lat="43.91792" lon="7.46431">
        <ele>1044.8000488281</ele>
        <time>2021-02-20T11:27:57.000Z</time>
      </trkpt>
      <trkpt lat="43.91794" lon="7.46433">
        <ele>1044.1999511719</ele>
        <time>2021-02-20T11:27:58.000Z</time>
      </trkpt>
      <trkpt lat="43.91797" lon="7.46434">
        <ele>1043</ele>
        <time>2021-02-20T11:28:00.000Z</time>
      </trkpt>
      <trkpt lat="43.91801" lon="7.46438">
        <ele>1042</ele>
        <time>2021-02-20T11:28:02.000Z</time>
      </trkpt>
      <trkpt lat="43.91802" lon="7.46439">
        <ele>1041.4000244141</ele>
        <time>2021-02-20T11:28:03.000Z</time>
      </trkpt>
      <trkpt lat="43.91804" lon="7.46439">
        <ele>1040.8000488281</ele>
        <time>2021-02-20T11:28:04.000Z</time>
      </trkpt>
      <trkpt lat="43.91806" lon="7.46443">
        <ele>1040</ele>
        <time>2021-02-20T11:28:06.000Z</time>
      </trkpt>
      <trkpt lat="43.91809" lon="7.46447">
        <ele>1039</ele>
        <time>2021-02-20T11:28:09.000Z</time>
      </trkpt>
      <trkpt lat="43.91811" lon="7.46452">
        <ele>1037.8000488281</ele>
        <time>2021-02-20T11:28:11.000Z</time>
      </trkpt>
      <trkpt lat="43.91815" lon="7.46454">
        <ele>1036.5999755859</ele>
        <time>2021-02-20T11:28:13.000Z</time>
      </trkpt>
      <trkpt lat="43.91817" lon="7.46453">
        <ele>1035</ele>
        <time>2021-02-20T11:28:15.000Z</time>
      </trkpt>
      <trkpt lat="43.91819" lon="7.46451">
        <ele>1033.8000488281</ele>
        <time>2021-02-20T11:28:17.000Z</time>
      </trkpt>
      <trkpt lat="43.91819" lon="7.46447">
        <ele>1033</ele>
        <time>2021-02-20T11:28:19.000Z</time>
      </trkpt>
      <trkpt lat="43.91819" lon="7.46446">
        <ele>1032.8000488281</ele>
        <time>2021-02-20T11:28:20.000Z</time>
      </trkpt>
      <trkpt lat="43.91821" lon="7.46445">
        <ele>1032</ele>
        <time>2021-02-20T11:28:23.000Z</time>
      </trkpt>
      <trkpt lat="43.91824" lon="7.46443">
        <ele>1031.5999755859</ele>
        <time>2021-02-20T11:28:25.000Z</time>
      </trkpt>
      <trkpt lat="43.91826" lon="7.46446">
        <ele>1030.8000488281</ele>
        <time>2021-02-20T11:28:27.000Z</time>
      </trkpt>
      <trkpt lat="43.91828" lon="7.46446">
        <ele>1030.4000244141</ele>
        <time>2021-02-20T11:28:28.000Z</time>
      </trkpt>
      <trkpt lat="43.91831" lon="7.46451">
        <ele>1029</ele>
        <time>2021-02-20T11:28:30.000Z</time>
      </trkpt>
      <trkpt lat="43.91831" lon="7.46454">
        <ele>1028.4000244141</ele>
        <time>2021-02-20T11:28:31.000Z</time>
      </trkpt>
      <trkpt lat="43.91832" lon="7.46457">
        <ele>1027.5999755859</ele>
        <time>2021-02-20T11:28:33.000Z</time>
      </trkpt>
      <trkpt lat="43.91833" lon="7.46452">
        <ele>1026.5999755859</ele>
        <time>2021-02-20T11:28:35.000Z</time>
      </trkpt>
      <trkpt lat="43.91833" lon="7.46441">
        <ele>1025.1999511719</ele>
        <time>2021-02-20T11:28:37.000Z</time>
      </trkpt>
      <trkpt lat="43.91832" lon="7.46439">
        <ele>1024.1999511719</ele>
        <time>2021-02-20T11:28:38.000Z</time>
      </trkpt>
      <trkpt lat="43.91831" lon="7.46437">
        <ele>1023.5999755859</ele>
        <time>2021-02-20T11:28:39.000Z</time>
      </trkpt>
      <trkpt lat="43.91832" lon="7.46432">
        <ele>1022</ele>
        <time>2021-02-20T11:28:41.000Z</time>
      </trkpt>
      <trkpt lat="43.91832" lon="7.46433">
        <ele>1021.5999755859</ele>
        <time>2021-02-20T11:28:42.000Z</time>
      </trkpt>
      <trkpt lat="43.91833" lon="7.4643">
        <ele>1020.799987793</ele>
        <time>2021-02-20T11:28:44.000Z</time>
      </trkpt>
      <trkpt lat="43.91837" lon="7.46428">
        <ele>1019.799987793</ele>
        <time>2021-02-20T11:28:47.000Z</time>
      </trkpt>
      <trkpt lat="43.91841" lon="7.46425">
        <ele>1020</ele>
        <time>2021-02-20T11:28:53.000Z</time>
      </trkpt>
      <trkpt lat="43.9185" lon="7.46428">
        <ele>1020</ele>
        <time>2021-02-20T11:28:57.000Z</time>
      </trkpt>
      <trkpt lat="43.91854" lon="7.46433">
        <ele>1019.5999755859</ele>
        <time>2021-02-20T11:28:59.000Z</time>
      </trkpt>
      <trkpt lat="43.91864" lon="7.46443">
        <ele>1018.799987793</ele>
        <time>2021-02-20T11:29:02.000Z</time>
      </trkpt>
      <trkpt lat="43.91869" lon="7.46443">
        <ele>1018.5999755859</ele>
        <time>2021-02-20T11:29:03.000Z</time>
      </trkpt>
      <trkpt lat="43.91876" lon="7.4645">
        <ele>1016.799987793</ele>
        <time>2021-02-20T11:29:05.000Z</time>
      </trkpt>
      <trkpt lat="43.91882" lon="7.46453">
        <ele>1015.4000244141</ele>
        <time>2021-02-20T11:29:06.000Z</time>
      </trkpt>
      <trkpt lat="43.91888" lon="7.46456">
        <ele>1014</ele>
        <time>2021-02-20T11:29:07.000Z</time>
      </trkpt>
      <trkpt lat="43.91892" lon="7.46459">
        <ele>1012.4000244141</ele>
        <time>2021-02-20T11:29:08.000Z</time>
      </trkpt>
      <trkpt lat="43.91894" lon="7.4646">
        <ele>1011.4000244141</ele>
        <time>2021-02-20T11:29:09.000Z</time>
      </trkpt>
      <trkpt lat="43.91896" lon="7.46464">
        <ele>1010.4000244141</ele>
        <time>2021-02-20T11:29:10.000Z</time>
      </trkpt>
      <trkpt lat="43.91897" lon="7.46468">
        <ele>1009.200012207</ele>
        <time>2021-02-20T11:29:11.000Z</time>
      </trkpt>
      <trkpt lat="43.91897" lon="7.46474">
        <ele>1007.799987793</ele>
        <time>2021-02-20T11:29:13.000Z</time>
      </trkpt>
      <trkpt lat="43.91898" lon="7.46477">
        <ele>1006.799987793</ele>
        <time>2021-02-20T11:29:14.000Z</time>
      </trkpt>
      <trkpt lat="43.91901" lon="7.46477">
        <ele>1005.799987793</ele>
        <time>2021-02-20T11:29:15.000Z</time>
      </trkpt>
      <trkpt lat="43.91908" lon="7.4648">
        <ele>1004.5999755859</ele>
        <time>2021-02-20T11:29:17.000Z</time>
      </trkpt>
      <trkpt lat="43.91914" lon="7.46485">
        <ele>1003.4000244141</ele>
        <time>2021-02-20T11:29:19.000Z</time>
      </trkpt>
      <trkpt lat="43.91916" lon="7.46488">
        <ele>1003.5999755859</ele>
        <time>2021-02-20T11:29:20.000Z</time>
      </trkpt>
      <trkpt lat="43.9192" lon="7.46495">
        <ele>1001.799987793</ele>
        <time>2021-02-20T11:29:22.000Z</time>
      </trkpt>
      <trkpt lat="43.91925" lon="7.46504">
        <ele>1000.4000244141</ele>
        <time>2021-02-20T11:29:24.000Z</time>
      </trkpt>
      <trkpt lat="43.91925" lon="7.46513">
        <ele>998.79998779297</ele>
        <time>2021-02-20T11:29:26.000Z</time>
      </trkpt>
      <trkpt lat="43.91926" lon="7.46517">
        <ele>996.40002441406</ele>
        <time>2021-02-20T11:29:28.000Z</time>
      </trkpt>
      <trkpt lat="43.91931" lon="7.46521">
        <ele>994.79998779297</ele>
        <time>2021-02-20T11:29:30.000Z</time>
      </trkpt>
      <trkpt lat="43.91934" lon="7.46525">
        <ele>994</ele>
        <time>2021-02-20T11:29:32.000Z</time>
      </trkpt>
      <trkpt lat="43.91935" lon="7.46526">
        <ele>994</ele>
        <time>2021-02-20T11:29:33.000Z</time>
      </trkpt>
      <trkpt lat="43.91935" lon="7.46528">
        <ele>993.79998779297</ele>
        <time>2021-02-20T11:29:34.000Z</time>
      </trkpt>
      <trkpt lat="43.91936" lon="7.46528">
        <ele>993</ele>
        <time>2021-02-20T11:29:35.000Z</time>
      </trkpt>
      <trkpt lat="43.91937" lon="7.46529">
        <ele>992.59997558594</ele>
        <time>2021-02-20T11:29:36.000Z</time>
      </trkpt>
      <trkpt lat="43.91939" lon="7.4653">
        <ele>992</ele>
        <time>2021-02-20T11:29:37.000Z</time>
      </trkpt>
      <trkpt lat="43.91941" lon="7.46531">
        <ele>991.40002441406</ele>
        <time>2021-02-20T11:29:38.000Z</time>
      </trkpt>
      <trkpt lat="43.91942" lon="7.46532">
        <ele>990.79998779297</ele>
        <time>2021-02-20T11:29:39.000Z</time>
      </trkpt>
      <trkpt lat="43.91944" lon="7.46532">
        <ele>990.40002441406</ele>
        <time>2021-02-20T11:29:40.000Z</time>
      </trkpt>
      <trkpt lat="43.91947" lon="7.4653">
        <ele>989.20001220703</ele>
        <time>2021-02-20T11:29:43.000Z</time>
      </trkpt>
      <trkpt lat="43.91949" lon="7.46528">
        <ele>988.59997558594</ele>
        <time>2021-02-20T11:29:44.000Z</time>
      </trkpt>
      <trkpt lat="43.91949" lon="7.46528">
        <ele>988.20001220703</ele>
        <time>2021-02-20T11:29:45.000Z</time>
      </trkpt>
      <trkpt lat="43.91953" lon="7.46523">
        <ele>987</ele>
        <time>2021-02-20T11:29:47.000Z</time>
      </trkpt>
      <trkpt lat="43.91957" lon="7.46521">
        <ele>985.59997558594</ele>
        <time>2021-02-20T11:29:50.000Z</time>
      </trkpt>
      <trkpt lat="43.91958" lon="7.4652">
        <ele>985.40002441406</ele>
        <time>2021-02-20T11:29:52.000Z</time>
      </trkpt>
      <trkpt lat="43.91965" lon="7.46519">
        <ele>985.79998779297</ele>
        <time>2021-02-20T11:30:02.000Z</time>
      </trkpt>
      <trkpt lat="43.91968" lon="7.46522">
        <ele>986.20001220703</ele>
        <time>2021-02-20T11:30:05.000Z</time>
      </trkpt>
      <trkpt lat="43.91969" lon="7.46527">
        <ele>986.59997558594</ele>
        <time>2021-02-20T11:30:07.000Z</time>
      </trkpt>
      <trkpt lat="43.9197" lon="7.46531">
        <ele>986.79998779297</ele>
        <time>2021-02-20T11:30:08.000Z</time>
      </trkpt>
      <trkpt lat="43.9197" lon="7.46536">
        <ele>986.59997558594</ele>
        <time>2021-02-20T11:30:10.000Z</time>
      </trkpt>
      <trkpt lat="43.91973" lon="7.46545">
        <ele>985.59997558594</ele>
        <time>2021-02-20T11:30:13.000Z</time>
      </trkpt>
      <trkpt lat="43.91975" lon="7.46549">
        <ele>985.20001220703</ele>
        <time>2021-02-20T11:30:15.000Z</time>
      </trkpt>
      <trkpt lat="43.91977" lon="7.46557">
        <ele>986</ele>
        <time>2021-02-20T11:30:19.000Z</time>
      </trkpt>
      <trkpt lat="43.91978" lon="7.46557">
        <ele>986.59997558594</ele>
        <time>2021-02-20T11:30:21.000Z</time>
      </trkpt>
      <trkpt lat="43.9198" lon="7.46558">
        <ele>987.40002441406</ele>
        <time>2021-02-20T11:30:24.000Z</time>
      </trkpt>
      <trkpt lat="43.91981" lon="7.46559">
        <ele>987.79998779297</ele>
        <time>2021-02-20T11:30:28.000Z</time>
      </trkpt>
      <trkpt lat="43.91982" lon="7.46558">
        <ele>988</ele>
        <time>2021-02-20T11:30:31.000Z</time>
      </trkpt>
      <trkpt lat="43.91984" lon="7.46561">
        <ele>988.20001220703</ele>
        <time>2021-02-20T11:30:45.000Z</time>
      </trkpt>
      <trkpt lat="43.91984" lon="7.46562">
        <ele>988.20001220703</ele>
        <time>2021-02-20T11:30:52.000Z</time>
      </trkpt>
      <trkpt lat="43.91987" lon="7.46562">
        <ele>988.40002441406</ele>
        <time>2021-02-20T11:31:00.000Z</time>
      </trkpt>
      <trkpt lat="43.91995" lon="7.46568">
        <ele>988.40002441406</ele>
        <time>2021-02-20T11:31:05.000Z</time>
      </trkpt>
      <trkpt lat="43.92008" lon="7.46573">
        <ele>988.59997558594</ele>
        <time>2021-02-20T11:31:10.000Z</time>
      </trkpt>
      <trkpt lat="43.92017" lon="7.46577">
        <ele>988.79998779297</ele>
        <time>2021-02-20T11:31:13.000Z</time>
      </trkpt>
      <trkpt lat="43.92019" lon="7.46579">
        <ele>989</ele>
        <time>2021-02-20T11:31:14.000Z</time>
      </trkpt>
      <trkpt lat="43.92031" lon="7.46586">
        <ele>988.79998779297</ele>
        <time>2021-02-20T11:31:19.000Z</time>
      </trkpt>
      <trkpt lat="43.92035" lon="7.46587">
        <ele>988.40002441406</ele>
        <time>2021-02-20T11:31:22.000Z</time>
      </trkpt>
      <trkpt lat="43.92036" lon="7.46587">
        <ele>988.40002441406</ele>
        <time>2021-02-20T11:31:23.000Z</time>
      </trkpt>
      <trkpt lat="43.92037" lon="7.46588">
        <ele>988.40002441406</ele>
        <time>2021-02-20T11:31:25.000Z</time>
      </trkpt>
      <trkpt lat="43.92039" lon="7.4659">
        <ele>988.20001220703</ele>
        <time>2021-02-20T11:31:27.000Z</time>
      </trkpt>
      <trkpt lat="43.9204" lon="7.46591">
        <ele>988</ele>
        <time>2021-02-20T11:31:28.000Z</time>
      </trkpt>
      <trkpt lat="43.92049" lon="7.46595">
        <ele>987.79998779297</ele>
        <time>2021-02-20T11:31:31.000Z</time>
      </trkpt>
      <trkpt lat="43.92057" lon="7.46599">
        <ele>987</ele>
        <time>2021-02-20T11:31:33.000Z</time>
      </trkpt>
      <trkpt lat="43.92059" lon="7.466">
        <ele>986.59997558594</ele>
        <time>2021-02-20T11:31:34.000Z</time>
      </trkpt>
      <trkpt lat="43.92068" lon="7.46607">
        <ele>984.79998779297</ele>
        <time>2021-02-20T11:31:36.000Z</time>
      </trkpt>
      <trkpt lat="43.92071" lon="7.46611">
        <ele>983.79998779297</ele>
        <time>2021-02-20T11:31:37.000Z</time>
      </trkpt>
      <trkpt lat="43.92075" lon="7.46614">
        <ele>983.20001220703</ele>
        <time>2021-02-20T11:31:38.000Z</time>
      </trkpt>
      <trkpt lat="43.9208" lon="7.46616">
        <ele>982.20001220703</ele>
        <time>2021-02-20T11:31:39.000Z</time>
      </trkpt>
      <trkpt lat="43.92084" lon="7.46618">
        <ele>980.79998779297</ele>
        <time>2021-02-20T11:31:40.000Z</time>
      </trkpt>
      <trkpt lat="43.92093" lon="7.46623">
        <ele>979.40002441406</ele>
        <time>2021-02-20T11:31:42.000Z</time>
      </trkpt>
      <trkpt lat="43.92104" lon="7.46628">
        <ele>977.79998779297</ele>
        <time>2021-02-20T11:31:44.000Z</time>
      </trkpt>
      <trkpt lat="43.92113" lon="7.4663">
        <ele>977.20001220703</ele>
        <time>2021-02-20T11:31:46.000Z</time>
      </trkpt>
      <trkpt lat="43.92123" lon="7.46631">
        <ele>976.79998779297</ele>
        <time>2021-02-20T11:31:48.000Z</time>
      </trkpt>
      <trkpt lat="43.92127" lon="7.46632">
        <ele>976.59997558594</ele>
        <time>2021-02-20T11:31:49.000Z</time>
      </trkpt>
      <trkpt lat="43.92144" lon="7.46644">
        <ele>976.40002441406</ele>
        <time>2021-02-20T11:31:52.000Z</time>
      </trkpt>
      <trkpt lat="43.92151" lon="7.46645">
        <ele>976</ele>
        <time>2021-02-20T11:31:53.000Z</time>
      </trkpt>
      <trkpt lat="43.92157" lon="7.46648">
        <ele>975.59997558594</ele>
        <time>2021-02-20T11:31:54.000Z</time>
      </trkpt>
      <trkpt lat="43.92164" lon="7.4665">
        <ele>975.40002441406</ele>
        <time>2021-02-20T11:31:55.000Z</time>
      </trkpt>
      <trkpt lat="43.92175" lon="7.46655">
        <ele>974</ele>
        <time>2021-02-20T11:31:57.000Z</time>
      </trkpt>
      <trkpt lat="43.9218" lon="7.46655">
        <ele>973.59997558594</ele>
        <time>2021-02-20T11:31:58.000Z</time>
      </trkpt>
      <trkpt lat="43.92186" lon="7.46656">
        <ele>973</ele>
        <time>2021-02-20T11:31:59.000Z</time>
      </trkpt>
      <trkpt lat="43.92191" lon="7.46658">
        <ele>972.20001220703</ele>
        <time>2021-02-20T11:32:00.000Z</time>
      </trkpt>
      <trkpt lat="43.92201" lon="7.46659">
        <ele>971.20001220703</ele>
        <time>2021-02-20T11:32:02.000Z</time>
      </trkpt>
      <trkpt lat="43.92207" lon="7.46659">
        <ele>970.40002441406</ele>
        <time>2021-02-20T11:32:03.000Z</time>
      </trkpt>
      <trkpt lat="43.92214" lon="7.46659">
        <ele>969.79998779297</ele>
        <time>2021-02-20T11:32:04.000Z</time>
      </trkpt>
      <trkpt lat="43.92218" lon="7.46658">
        <ele>969</ele>
        <time>2021-02-20T11:32:05.000Z</time>
      </trkpt>
      <trkpt lat="43.92225" lon="7.46658">
        <ele>967.59997558594</ele>
        <time>2021-02-20T11:32:06.000Z</time>
      </trkpt>
      <trkpt lat="43.92229" lon="7.46658">
        <ele>966.59997558594</ele>
        <time>2021-02-20T11:32:07.000Z</time>
      </trkpt>
      <trkpt lat="43.92236" lon="7.46654">
        <ele>965.40002441406</ele>
        <time>2021-02-20T11:32:08.000Z</time>
      </trkpt>
      <trkpt lat="43.9224" lon="7.46654">
        <ele>964.40002441406</ele>
        <time>2021-02-20T11:32:09.000Z</time>
      </trkpt>
      <trkpt lat="43.92243" lon="7.46653">
        <ele>963</ele>
        <time>2021-02-20T11:32:10.000Z</time>
      </trkpt>
      <trkpt lat="43.92254" lon="7.46662">
        <ele>961.40002441406</ele>
        <time>2021-02-20T11:32:13.000Z</time>
      </trkpt>
      <trkpt lat="43.92269" lon="7.4667">
        <ele>961.40002441406</ele>
        <time>2021-02-20T11:32:16.000Z</time>
      </trkpt>
      <trkpt lat="43.92275" lon="7.46672">
        <ele>961.20001220703</ele>
        <time>2021-02-20T11:32:17.000Z</time>
      </trkpt>
      <trkpt lat="43.92289" lon="7.46676">
        <ele>960.79998779297</ele>
        <time>2021-02-20T11:32:20.000Z</time>
      </trkpt>
      <trkpt lat="43.92304" lon="7.46682">
        <ele>961.40002441406</ele>
        <time>2021-02-20T11:32:24.000Z</time>
      </trkpt>
      <trkpt lat="43.92314" lon="7.46685">
        <ele>962.20001220703</ele>
        <time>2021-02-20T11:32:26.000Z</time>
      </trkpt>
      <trkpt lat="43.92319" lon="7.46688">
        <ele>962.59997558594</ele>
        <time>2021-02-20T11:32:27.000Z</time>
      </trkpt>
      <trkpt lat="43.92324" lon="7.46691">
        <ele>962.59997558594</ele>
        <time>2021-02-20T11:32:28.000Z</time>
      </trkpt>
      <trkpt lat="43.92333" lon="7.46695">
        <ele>962.59997558594</ele>
        <time>2021-02-20T11:32:30.000Z</time>
      </trkpt>
      <trkpt lat="43.9234" lon="7.46704">
        <ele>962.59997558594</ele>
        <time>2021-02-20T11:32:32.000Z</time>
      </trkpt>
      <trkpt lat="43.9235" lon="7.46711">
        <ele>962.40002441406</ele>
        <time>2021-02-20T11:32:34.000Z</time>
      </trkpt>
      <trkpt lat="43.9236" lon="7.46718">
        <ele>962</ele>
        <time>2021-02-20T11:32:36.000Z</time>
      </trkpt>
      <trkpt lat="43.92365" lon="7.46721">
        <ele>961.59997558594</ele>
        <time>2021-02-20T11:32:37.000Z</time>
      </trkpt>
      <trkpt lat="43.92373" lon="7.46722">
        <ele>960.79998779297</ele>
        <time>2021-02-20T11:32:39.000Z</time>
      </trkpt>
      <trkpt lat="43.92375" lon="7.4672">
        <ele>960.40002441406</ele>
        <time>2021-02-20T11:32:40.000Z</time>
      </trkpt>
      <trkpt lat="43.92384" lon="7.4672">
        <ele>960.40002441406</ele>
        <time>2021-02-20T11:32:43.000Z</time>
      </trkpt>
      <trkpt lat="43.92385" lon="7.46719">
        <ele>960.59997558594</ele>
        <time>2021-02-20T11:32:44.000Z</time>
      </trkpt>
      <trkpt lat="43.92386" lon="7.4672">
        <ele>959.59997558594</ele>
        <time>2021-02-20T11:32:50.000Z</time>
      </trkpt>
      <trkpt lat="43.92387" lon="7.4672">
        <ele>959.40002441406</ele>
        <time>2021-02-20T11:33:00.000Z</time>
      </trkpt>
      <trkpt lat="43.92387" lon="7.4672">
        <ele>959.40002441406</ele>
        <time>2021-02-20T11:33:01.000Z</time>
      </trkpt>
      <trkpt lat="43.92385" lon="7.46721">
        <ele>959</ele>
        <time>2021-02-20T11:33:11.000Z</time>
      </trkpt>
      <trkpt lat="43.92386" lon="7.46722">
        <ele>959.40002441406</ele>
        <time>2021-02-20T11:33:19.000Z</time>
      </trkpt>
      <trkpt lat="43.92388" lon="7.46721">
        <ele>959</ele>
        <time>2021-02-20T11:33:27.000Z</time>
      </trkpt>
      <trkpt lat="43.9239" lon="7.46723">
        <ele>958.79998779297</ele>
        <time>2021-02-20T11:33:30.000Z</time>
      </trkpt>
      <trkpt lat="43.9239" lon="7.4673">
        <ele>959</ele>
        <time>2021-02-20T11:33:32.000Z</time>
      </trkpt>
      <trkpt lat="43.92392" lon="7.46739">
        <ele>958.20001220703</ele>
        <time>2021-02-20T11:33:35.000Z</time>
      </trkpt>
      <trkpt lat="43.92399" lon="7.4675">
        <ele>956.79998779297</ele>
        <time>2021-02-20T11:33:37.000Z</time>
      </trkpt>
      <trkpt lat="43.92407" lon="7.46758">
        <ele>955.40002441406</ele>
        <time>2021-02-20T11:33:39.000Z</time>
      </trkpt>
      <trkpt lat="43.92416" lon="7.46762">
        <ele>954</ele>
        <time>2021-02-20T11:33:41.000Z</time>
      </trkpt>
      <trkpt lat="43.92426" lon="7.4677">
        <ele>952.79998779297</ele>
        <time>2021-02-20T11:33:43.000Z</time>
      </trkpt>
      <trkpt lat="43.9243" lon="7.46771">
        <ele>952.40002441406</ele>
        <time>2021-02-20T11:33:44.000Z</time>
      </trkpt>
      <trkpt lat="43.92433" lon="7.4677">
        <ele>951.79998779297</ele>
        <time>2021-02-20T11:33:45.000Z</time>
      </trkpt>
      <trkpt lat="43.92438" lon="7.46767">
        <ele>951.40002441406</ele>
        <time>2021-02-20T11:33:46.000Z</time>
      </trkpt>
      <trkpt lat="43.92449" lon="7.46766">
        <ele>950.59997558594</ele>
        <time>2021-02-20T11:33:48.000Z</time>
      </trkpt>
      <trkpt lat="43.92453" lon="7.46764">
        <ele>950.20001220703</ele>
        <time>2021-02-20T11:33:49.000Z</time>
      </trkpt>
      <trkpt lat="43.92457" lon="7.46763">
        <ele>949.59997558594</ele>
        <time>2021-02-20T11:33:51.000Z</time>
      </trkpt>
      <trkpt lat="43.92457" lon="7.46763">
        <ele>949</ele>
        <time>2021-02-20T11:33:53.000Z</time>
      </trkpt>
      <trkpt lat="43.92457" lon="7.46764">
        <ele>949</ele>
        <time>2021-02-20T11:33:55.000Z</time>
      </trkpt>
      <trkpt lat="43.9246" lon="7.46766">
        <ele>949</ele>
        <time>2021-02-20T11:34:10.000Z</time>
      </trkpt>
      <trkpt lat="43.92461" lon="7.46768">
        <ele>949.20001220703</ele>
        <time>2021-02-20T11:34:16.000Z</time>
      </trkpt>
      <trkpt lat="43.92461" lon="7.46769">
        <ele>949</ele>
        <time>2021-02-20T11:34:24.000Z</time>
      </trkpt>
      <trkpt lat="43.92462" lon="7.46769">
        <ele>948.59997558594</ele>
        <time>2021-02-20T11:34:28.000Z</time>
      </trkpt>
      <trkpt lat="43.92461" lon="7.46769">
        <ele>948</ele>
        <time>2021-02-20T11:34:34.000Z</time>
      </trkpt>
      <trkpt lat="43.92461" lon="7.46769">
        <ele>948</ele>
        <time>2021-02-20T11:34:35.000Z</time>
      </trkpt>
      <trkpt lat="43.9246" lon="7.4677">
        <ele>947.40002441406</ele>
        <time>2021-02-20T11:34:41.000Z</time>
      </trkpt>
      <trkpt lat="43.92461" lon="7.4677">
        <ele>947.40002441406</ele>
        <time>2021-02-20T11:34:46.000Z</time>
      </trkpt>
      <trkpt lat="43.9246" lon="7.46774">
        <ele>946.79998779297</ele>
        <time>2021-02-20T11:34:54.000Z</time>
      </trkpt>
      <trkpt lat="43.9246" lon="7.46774">
        <ele>946.40002441406</ele>
        <time>2021-02-20T11:34:59.000Z</time>
      </trkpt>
      <trkpt lat="43.92461" lon="7.46773">
        <ele>946.59997558594</ele>
        <time>2021-02-20T11:35:06.000Z</time>
      </trkpt>
      <trkpt lat="43.92461" lon="7.46772">
        <ele>947.20001220703</ele>
        <time>2021-02-20T11:35:12.000Z</time>
      </trkpt>
      <trkpt lat="43.92461" lon="7.46772">
        <ele>947</ele>
        <time>2021-02-20T11:35:19.000Z</time>
      </trkpt>
      <trkpt lat="43.9246" lon="7.46774">
        <ele>945.79998779297</ele>
        <time>2021-02-20T11:35:28.000Z</time>
      </trkpt>
      <trkpt lat="43.92459" lon="7.46773">
        <ele>946.20001220703</ele>
        <time>2021-02-20T11:35:35.000Z</time>
      </trkpt>
      <trkpt lat="43.92459" lon="7.46772">
        <ele>946.40002441406</ele>
        <time>2021-02-20T11:35:41.000Z</time>
      </trkpt>
      <trkpt lat="43.92458" lon="7.46773">
        <ele>946.79998779297</ele>
        <time>2021-02-20T11:35:50.000Z</time>
      </trkpt>
      <trkpt lat="43.92458" lon="7.46772">
        <ele>946.40002441406</ele>
        <time>2021-02-20T11:35:56.000Z</time>
      </trkpt>
      <trkpt lat="43.92459" lon="7.46772">
        <ele>946.20001220703</ele>
        <time>2021-02-20T11:36:03.000Z</time>
      </trkpt>
      <trkpt lat="43.92459" lon="7.46773">
        <ele>946.40002441406</ele>
        <time>2021-02-20T11:36:09.000Z</time>
      </trkpt>
      <trkpt lat="43.92459" lon="7.46774">
        <ele>946.20001220703</ele>
        <time>2021-02-20T11:36:15.000Z</time>
      </trkpt>
      <trkpt lat="43.9246" lon="7.46774">
        <ele>946</ele>
        <time>2021-02-20T11:36:20.000Z</time>
      </trkpt>
      <trkpt lat="43.9246" lon="7.46772">
        <ele>945.79998779297</ele>
        <time>2021-02-20T11:36:27.000Z</time>
      </trkpt>
      <trkpt lat="43.9246" lon="7.46771">
        <ele>945.79998779297</ele>
        <time>2021-02-20T11:36:33.000Z</time>
      </trkpt>
      <trkpt lat="43.92459" lon="7.4677">
        <ele>945.40002441406</ele>
        <time>2021-02-20T11:36:44.000Z</time>
      </trkpt>
      <trkpt lat="43.92457" lon="7.46769">
        <ele>945.79998779297</ele>
        <time>2021-02-20T11:36:50.000Z</time>
      </trkpt>
      <trkpt lat="43.92456" lon="7.46769">
        <ele>945.59997558594</ele>
        <time>2021-02-20T11:36:55.000Z</time>
      </trkpt>
      <trkpt lat="43.92457" lon="7.4677">
        <ele>945.59997558594</ele>
        <time>2021-02-20T11:37:02.000Z</time>
      </trkpt>
      <trkpt lat="43.92458" lon="7.4677">
        <ele>946</ele>
        <time>2021-02-20T11:37:08.000Z</time>
      </trkpt>
      <trkpt lat="43.92458" lon="7.46769">
        <ele>945.79998779297</ele>
        <time>2021-02-20T11:37:12.000Z</time>
      </trkpt>
      <trkpt lat="43.92458" lon="7.4677">
        <ele>945</ele>
        <time>2021-02-20T11:37:20.000Z</time>
      </trkpt>
      <trkpt lat="43.92459" lon="7.4677">
        <ele>945.20001220703</ele>
        <time>2021-02-20T11:37:28.000Z</time>
      </trkpt>
      <trkpt lat="43.92459" lon="7.4677">
        <ele>944.79998779297</ele>
        <time>2021-02-20T11:37:31.000Z</time>
      </trkpt>
      <trkpt lat="43.92459" lon="7.46769">
        <ele>944.79998779297</ele>
        <time>2021-02-20T11:37:38.000Z</time>
      </trkpt>
      <trkpt lat="43.92458" lon="7.4677">
        <ele>945.20001220703</ele>
        <time>2021-02-20T11:37:43.000Z</time>
      </trkpt>
      <trkpt lat="43.92458" lon="7.4677">
        <ele>944.79998779297</ele>
        <time>2021-02-20T11:37:51.000Z</time>
      </trkpt>
      <trkpt lat="43.92459" lon="7.46771">
        <ele>945</ele>
        <time>2021-02-20T11:38:00.000Z</time>
      </trkpt>
      <trkpt lat="43.9246" lon="7.46771">
        <ele>944.79998779297</ele>
        <time>2021-02-20T11:38:09.000Z</time>
      </trkpt>
      <trkpt lat="43.92461" lon="7.4677">
        <ele>944.59997558594</ele>
        <time>2021-02-20T11:38:23.000Z</time>
      </trkpt>
      <trkpt lat="43.92463" lon="7.46769">
        <ele>944.59997558594</ele>
        <time>2021-02-20T11:38:38.000Z</time>
      </trkpt>
      <trkpt lat="43.92463" lon="7.46769">
        <ele>944.59997558594</ele>
        <time>2021-02-20T11:38:47.000Z</time>
      </trkpt>
      <trkpt lat="43.92464" lon="7.4677">
        <ele>944.59997558594</ele>
        <time>2021-02-20T11:38:54.000Z</time>
      </trkpt>
      <trkpt lat="43.92466" lon="7.46768">
        <ele>945</ele>
        <time>2021-02-20T11:39:03.000Z</time>
      </trkpt>
      <trkpt lat="43.92467" lon="7.46767">
        <ele>945.59997558594</ele>
        <time>2021-02-20T11:39:12.000Z</time>
      </trkpt>
      <trkpt lat="43.92467" lon="7.46768">
        <ele>945.79998779297</ele>
        <time>2021-02-20T11:39:14.000Z</time>
      </trkpt>
      <trkpt lat="43.92467" lon="7.46768">
        <ele>946.20001220703</ele>
        <time>2021-02-20T11:39:20.000Z</time>
      </trkpt>
      <trkpt lat="43.92467" lon="7.46768">
        <ele>946.20001220703</ele>
        <time>2021-02-20T11:39:25.000Z</time>
      </trkpt>
      <trkpt lat="43.92467" lon="7.4677">
        <ele>946.79998779297</ele>
        <time>2021-02-20T11:39:29.000Z</time>
      </trkpt>
      <trkpt lat="43.92466" lon="7.4677">
        <ele>947</ele>
        <time>2021-02-20T11:39:31.000Z</time>
      </trkpt>
      <trkpt lat="43.92466" lon="7.46773">
        <ele>947.59997558594</ele>
        <time>2021-02-20T11:39:39.000Z</time>
      </trkpt>
      <trkpt lat="43.92465" lon="7.46774">
        <ele>947.59997558594</ele>
        <time>2021-02-20T11:39:45.000Z</time>
      </trkpt>
      <trkpt lat="43.92463" lon="7.46778">
        <ele>947.79998779297</ele>
        <time>2021-02-20T11:39:52.000Z</time>
      </trkpt>
      <trkpt lat="43.9246" lon="7.46784">
        <ele>948.40002441406</ele>
        <time>2021-02-20T11:39:58.000Z</time>
      </trkpt>
      <trkpt lat="43.9246" lon="7.46783">
        <ele>948.59997558594</ele>
        <time>2021-02-20T11:40:02.000Z</time>
      </trkpt>
      <trkpt lat="43.92461" lon="7.46781">
        <ele>948.40002441406</ele>
        <time>2021-02-20T11:40:04.000Z</time>
      </trkpt>
      <trkpt lat="43.92462" lon="7.46777">
        <ele>948.20001220703</ele>
        <time>2021-02-20T11:40:07.000Z</time>
      </trkpt>
      <trkpt lat="43.92464" lon="7.46775">
        <ele>948</ele>
        <time>2021-02-20T11:40:10.000Z</time>
      </trkpt>
      <trkpt lat="43.92464" lon="7.46775">
        <ele>947.79998779297</ele>
        <time>2021-02-20T11:40:11.000Z</time>
      </trkpt>
      <trkpt lat="43.92464" lon="7.46776">
        <ele>947</ele>
        <time>2021-02-20T11:40:17.000Z</time>
      </trkpt>
      <trkpt lat="43.92463" lon="7.46773">
        <ele>946.79998779297</ele>
        <time>2021-02-20T11:40:24.000Z</time>
      </trkpt>
      <trkpt lat="43.92463" lon="7.46772">
        <ele>946.79998779297</ele>
        <time>2021-02-20T11:40:25.000Z</time>
      </trkpt>
      <trkpt lat="43.92464" lon="7.46773">
        <ele>946.59997558594</ele>
        <time>2021-02-20T11:40:28.000Z</time>
      </trkpt>
      <trkpt lat="43.92466" lon="7.46774">
        <ele>946.40002441406</ele>
        <time>2021-02-20T11:40:33.000Z</time>
      </trkpt>
      <trkpt lat="43.92466" lon="7.46774">
        <ele>946.59997558594</ele>
        <time>2021-02-20T11:40:40.000Z</time>
      </trkpt>
      <trkpt lat="43.92467" lon="7.46775">
        <ele>947.20001220703</ele>
        <time>2021-02-20T11:40:47.000Z</time>
      </trkpt>
      <trkpt lat="43.92467" lon="7.46775">
        <ele>946.79998779297</ele>
        <time>2021-02-20T11:40:54.000Z</time>
      </trkpt>
      <trkpt lat="43.92463" lon="7.46778">
        <ele>947.20001220703</ele>
        <time>2021-02-20T11:40:59.000Z</time>
      </trkpt>
      <trkpt lat="43.92461" lon="7.46784">
        <ele>947.79998779297</ele>
        <time>2021-02-20T11:41:04.000Z</time>
      </trkpt>
      <trkpt lat="43.92461" lon="7.46784">
        <ele>948</ele>
        <time>2021-02-20T11:41:05.000Z</time>
      </trkpt>
      <trkpt lat="43.92457" lon="7.4679">
        <ele>948.59997558594</ele>
        <time>2021-02-20T11:41:10.000Z</time>
      </trkpt>
      <trkpt lat="43.92449" lon="7.46806">
        <ele>948</ele>
        <time>2021-02-20T11:41:14.000Z</time>
      </trkpt>
      <trkpt lat="43.9244" lon="7.46824">
        <ele>947.40002441406</ele>
        <time>2021-02-20T11:41:20.000Z</time>
      </trkpt>
      <trkpt lat="43.92434" lon="7.46846">
        <ele>949</ele>
        <time>2021-02-20T11:41:27.000Z</time>
      </trkpt>
      <trkpt lat="43.92441" lon="7.46854">
        <ele>949.79998779297</ele>
        <time>2021-02-20T11:41:31.000Z</time>
      </trkpt>
      <trkpt lat="43.92445" lon="7.46857">
        <ele>950</ele>
        <time>2021-02-20T11:41:33.000Z</time>
      </trkpt>
      <trkpt lat="43.92452" lon="7.46864">
        <ele>951</ele>
        <time>2021-02-20T11:41:37.000Z</time>
      </trkpt>
      <trkpt lat="43.92453" lon="7.46865">
        <ele>951.20001220703</ele>
        <time>2021-02-20T11:41:38.000Z</time>
      </trkpt>
      <trkpt lat="43.92457" lon="7.46869">
        <ele>951.59997558594</ele>
        <time>2021-02-20T11:41:41.000Z</time>
      </trkpt>
      <trkpt lat="43.92457" lon="7.46871">
        <ele>952</ele>
        <time>2021-02-20T11:41:42.000Z</time>
      </trkpt>
      <trkpt lat="43.92458" lon="7.46872">
        <ele>952.40002441406</ele>
        <time>2021-02-20T11:41:44.000Z</time>
      </trkpt>
      <trkpt lat="43.92461" lon="7.46875">
        <ele>952.40002441406</ele>
        <time>2021-02-20T11:41:47.000Z</time>
      </trkpt>
      <trkpt lat="43.92467" lon="7.46881">
        <ele>952.20001220703</ele>
        <time>2021-02-20T11:41:54.000Z</time>
      </trkpt>
      <trkpt lat="43.92468" lon="7.46879">
        <ele>952</ele>
        <time>2021-02-20T11:41:59.000Z</time>
      </trkpt>
      <trkpt lat="43.9246" lon="7.4687">
        <ele>952.20001220703</ele>
        <time>2021-02-20T11:42:05.000Z</time>
      </trkpt>
      <trkpt lat="43.92459" lon="7.46868">
        <ele>952.20001220703</ele>
        <time>2021-02-20T11:42:09.000Z</time>
      </trkpt>
      <trkpt lat="43.92464" lon="7.46875">
        <ele>952.40002441406</ele>
        <time>2021-02-20T11:42:13.000Z</time>
      </trkpt>
      <trkpt lat="43.92474" lon="7.4689">
        <ele>952</ele>
        <time>2021-02-20T11:42:19.000Z</time>
      </trkpt>
      <trkpt lat="43.92483" lon="7.46905">
        <ele>951.40002441406</ele>
        <time>2021-02-20T11:42:23.000Z</time>
      </trkpt>
      <trkpt lat="43.92485" lon="7.46907">
        <ele>951.20001220703</ele>
        <time>2021-02-20T11:42:24.000Z</time>
      </trkpt>
      <trkpt lat="43.92486" lon="7.46907">
        <ele>950.40002441406</ele>
        <time>2021-02-20T11:42:28.000Z</time>
      </trkpt>
      <trkpt lat="43.92486" lon="7.46903">
        <ele>950.40002441406</ele>
        <time>2021-02-20T11:42:36.000Z</time>
      </trkpt>
      <trkpt lat="43.92485" lon="7.46901">
        <ele>950.40002441406</ele>
        <time>2021-02-20T11:42:37.000Z</time>
      </trkpt>
      <trkpt lat="43.92477" lon="7.46896">
        <ele>950.59997558594</ele>
        <time>2021-02-20T11:42:41.000Z</time>
      </trkpt>
      <trkpt lat="43.92475" lon="7.46894">
        <ele>950.59997558594</ele>
        <time>2021-02-20T11:42:42.000Z</time>
      </trkpt>
      <trkpt lat="43.92459" lon="7.46882">
        <ele>950.40002441406</ele>
        <time>2021-02-20T11:42:48.000Z</time>
      </trkpt>
      <trkpt lat="43.92441" lon="7.46864">
        <ele>950.20001220703</ele>
        <time>2021-02-20T11:42:54.000Z</time>
      </trkpt>
      <trkpt lat="43.92438" lon="7.46861">
        <ele>950.20001220703</ele>
        <time>2021-02-20T11:42:55.000Z</time>
      </trkpt>
      <trkpt lat="43.92435" lon="7.46856">
        <ele>949.79998779297</ele>
        <time>2021-02-20T11:42:56.000Z</time>
      </trkpt>
      <trkpt lat="43.92429" lon="7.46846">
        <ele>949.40002441406</ele>
        <time>2021-02-20T11:42:59.000Z</time>
      </trkpt>
      <trkpt lat="43.92427" lon="7.46845">
        <ele>949.40002441406</ele>
        <time>2021-02-20T11:43:01.000Z</time>
      </trkpt>
      <trkpt lat="43.92425" lon="7.46845">
        <ele>949.20001220703</ele>
        <time>2021-02-20T11:43:03.000Z</time>
      </trkpt>
      <trkpt lat="43.92424" lon="7.46846">
        <ele>949.20001220703</ele>
        <time>2021-02-20T11:43:04.000Z</time>
      </trkpt>
      <trkpt lat="43.92418" lon="7.46848">
        <ele>948.79998779297</ele>
        <time>2021-02-20T11:43:07.000Z</time>
      </trkpt>
      <trkpt lat="43.92416" lon="7.46852">
        <ele>947.20001220703</ele>
        <time>2021-02-20T11:43:09.000Z</time>
      </trkpt>
      <trkpt lat="43.92412" lon="7.46862">
        <ele>945.40002441406</ele>
        <time>2021-02-20T11:43:11.000Z</time>
      </trkpt>
      <trkpt lat="43.92409" lon="7.46869">
        <ele>944.40002441406</ele>
        <time>2021-02-20T11:43:12.000Z</time>
      </trkpt>
      <trkpt lat="43.92407" lon="7.46876">
        <ele>943.40002441406</ele>
        <time>2021-02-20T11:43:13.000Z</time>
      </trkpt>
      <trkpt lat="43.92407" lon="7.46884">
        <ele>942</ele>
        <time>2021-02-20T11:43:14.000Z</time>
      </trkpt>
      <trkpt lat="43.92408" lon="7.4689">
        <ele>941</ele>
        <time>2021-02-20T11:43:15.000Z</time>
      </trkpt>
      <trkpt lat="43.92413" lon="7.46904">
        <ele>939.59997558594</ele>
        <time>2021-02-20T11:43:17.000Z</time>
      </trkpt>
      <trkpt lat="43.9242" lon="7.46916">
        <ele>939</ele>
        <time>2021-02-20T11:43:19.000Z</time>
      </trkpt>
      <trkpt lat="43.92424" lon="7.46921">
        <ele>939</ele>
        <time>2021-02-20T11:43:20.000Z</time>
      </trkpt>
      <trkpt lat="43.92428" lon="7.46926">
        <ele>939</ele>
        <time>2021-02-20T11:43:21.000Z</time>
      </trkpt>
      <trkpt lat="43.92443" lon="7.46941">
        <ele>939.40002441406</ele>
        <time>2021-02-20T11:43:25.000Z</time>
      </trkpt>
      <trkpt lat="43.92451" lon="7.46952">
        <ele>939.59997558594</ele>
        <time>2021-02-20T11:43:29.000Z</time>
      </trkpt>
      <trkpt lat="43.92459" lon="7.46977">
        <ele>939.40002441406</ele>
        <time>2021-02-20T11:43:35.000Z</time>
      </trkpt>
      <trkpt lat="43.92471" lon="7.47002">
        <ele>939.59997558594</ele>
        <time>2021-02-20T11:43:42.000Z</time>
      </trkpt>
      <trkpt lat="43.92467" lon="7.47017">
        <ele>939.59997558594</ele>
        <time>2021-02-20T11:43:46.000Z</time>
      </trkpt>
      <trkpt lat="43.92456" lon="7.47023">
        <ele>939.79998779297</ele>
        <time>2021-02-20T11:43:50.000Z</time>
      </trkpt>
      <trkpt lat="43.9244" lon="7.47035">
        <ele>940.40002441406</ele>
        <time>2021-02-20T11:43:55.000Z</time>
      </trkpt>
      <trkpt lat="43.92433" lon="7.47043">
        <ele>940.20001220703</ele>
        <time>2021-02-20T11:43:57.000Z</time>
      </trkpt>
      <trkpt lat="43.92425" lon="7.47058">
        <ele>939.40002441406</ele>
        <time>2021-02-20T11:44:00.000Z</time>
      </trkpt>
      <trkpt lat="43.92411" lon="7.47077">
        <ele>939.40002441406</ele>
        <time>2021-02-20T11:44:04.000Z</time>
      </trkpt>
      <trkpt lat="43.92403" lon="7.47083">
        <ele>939.40002441406</ele>
        <time>2021-02-20T11:44:06.000Z</time>
      </trkpt>
      <trkpt lat="43.92378" lon="7.47092">
        <ele>940</ele>
        <time>2021-02-20T11:44:12.000Z</time>
      </trkpt>
      <trkpt lat="43.9236" lon="7.47092">
        <ele>940.40002441406</ele>
        <time>2021-02-20T11:44:16.000Z</time>
      </trkpt>
      <trkpt lat="43.92347" lon="7.47088">
        <ele>940.59997558594</ele>
        <time>2021-02-20T11:44:19.000Z</time>
      </trkpt>
      <trkpt lat="43.92343" lon="7.47086">
        <ele>940.59997558594</ele>
        <time>2021-02-20T11:44:20.000Z</time>
      </trkpt>
      <trkpt lat="43.9231" lon="7.47067">
        <ele>941</ele>
        <time>2021-02-20T11:44:28.000Z</time>
      </trkpt>
      <trkpt lat="43.9228" lon="7.47053">
        <ele>941.20001220703</ele>
        <time>2021-02-20T11:44:35.000Z</time>
      </trkpt>
      <trkpt lat="43.92275" lon="7.47053">
        <ele>941.20001220703</ele>
        <time>2021-02-20T11:44:36.000Z</time>
      </trkpt>
      <trkpt lat="43.92262" lon="7.47066">
        <ele>941.59997558594</ele>
        <time>2021-02-20T11:44:40.000Z</time>
      </trkpt>
      <trkpt lat="43.92257" lon="7.4709">
        <ele>941.40002441406</ele>
        <time>2021-02-20T11:44:44.000Z</time>
      </trkpt>
      <trkpt lat="43.92256" lon="7.47095">
        <ele>941.40002441406</ele>
        <time>2021-02-20T11:44:45.000Z</time>
      </trkpt>
      <trkpt lat="43.92255" lon="7.47114">
        <ele>941.79998779297</ele>
        <time>2021-02-20T11:44:48.000Z</time>
      </trkpt>
      <trkpt lat="43.92253" lon="7.47139">
        <ele>942.20001220703</ele>
        <time>2021-02-20T11:44:52.000Z</time>
      </trkpt>
      <trkpt lat="43.92254" lon="7.47176">
        <ele>942.40002441406</ele>
        <time>2021-02-20T11:44:58.000Z</time>
      </trkpt>
      <trkpt lat="43.92254" lon="7.47181">
        <ele>942.40002441406</ele>
        <time>2021-02-20T11:44:59.000Z</time>
      </trkpt>
      <trkpt lat="43.92258" lon="7.47195">
        <ele>942.40002441406</ele>
        <time>2021-02-20T11:45:01.000Z</time>
      </trkpt>
      <trkpt lat="43.92267" lon="7.47224">
        <ele>942.59997558594</ele>
        <time>2021-02-20T11:45:06.000Z</time>
      </trkpt>
      <trkpt lat="43.9227" lon="7.47236">
        <ele>942.79998779297</ele>
        <time>2021-02-20T11:45:08.000Z</time>
      </trkpt>
      <trkpt lat="43.92274" lon="7.47266">
        <ele>943.20001220703</ele>
        <time>2021-02-20T11:45:13.000Z</time>
      </trkpt>
      <trkpt lat="43.92276" lon="7.47298">
        <ele>943.59997558594</ele>
        <time>2021-02-20T11:45:18.000Z</time>
      </trkpt>
      <trkpt lat="43.92275" lon="7.47317">
        <ele>943</ele>
        <time>2021-02-20T11:45:21.000Z</time>
      </trkpt>
      <trkpt lat="43.92276" lon="7.47324">
        <ele>942.59997558594</ele>
        <time>2021-02-20T11:45:22.000Z</time>
      </trkpt>
      <trkpt lat="43.92286" lon="7.47343">
        <ele>941.20001220703</ele>
        <time>2021-02-20T11:45:25.000Z</time>
      </trkpt>
      <trkpt lat="43.92298" lon="7.47357">
        <ele>939.79998779297</ele>
        <time>2021-02-20T11:45:27.000Z</time>
      </trkpt>
      <trkpt lat="43.92305" lon="7.47363">
        <ele>939.20001220703</ele>
        <time>2021-02-20T11:45:28.000Z</time>
      </trkpt>
      <trkpt lat="43.92312" lon="7.47366">
        <ele>938.79998779297</ele>
        <time>2021-02-20T11:45:29.000Z</time>
      </trkpt>
      <trkpt lat="43.92328" lon="7.47373">
        <ele>937.20001220703</ele>
        <time>2021-02-20T11:45:31.000Z</time>
      </trkpt>
      <trkpt lat="43.92342" lon="7.47385">
        <ele>935</ele>
        <time>2021-02-20T11:45:33.000Z</time>
      </trkpt>
      <trkpt lat="43.92347" lon="7.47395">
        <ele>933.40002441406</ele>
        <time>2021-02-20T11:45:34.000Z</time>
      </trkpt>
      <trkpt lat="43.92351" lon="7.47404">
        <ele>932.20001220703</ele>
        <time>2021-02-20T11:45:35.000Z</time>
      </trkpt>
      <trkpt lat="43.92355" lon="7.47415">
        <ele>931</ele>
        <time>2021-02-20T11:45:36.000Z</time>
      </trkpt>
      <trkpt lat="43.92359" lon="7.47437">
        <ele>929.40002441406</ele>
        <time>2021-02-20T11:45:38.000Z</time>
      </trkpt>
      <trkpt lat="43.92361" lon="7.47449">
        <ele>928.20001220703</ele>
        <time>2021-02-20T11:45:39.000Z</time>
      </trkpt>
      <trkpt lat="43.92363" lon="7.47459">
        <ele>927.59997558594</ele>
        <time>2021-02-20T11:45:40.000Z</time>
      </trkpt>
      <trkpt lat="43.92366" lon="7.47469">
        <ele>927</ele>
        <time>2021-02-20T11:45:41.000Z</time>
      </trkpt>
      <trkpt lat="43.92377" lon="7.47493">
        <ele>926</ele>
        <time>2021-02-20T11:45:43.000Z</time>
      </trkpt>
      <trkpt lat="43.92387" lon="7.47509">
        <ele>925.20001220703</ele>
        <time>2021-02-20T11:45:45.000Z</time>
      </trkpt>
      <trkpt lat="43.92391" lon="7.47515">
        <ele>924.40002441406</ele>
        <time>2021-02-20T11:45:46.000Z</time>
      </trkpt>
      <trkpt lat="43.92391" lon="7.47519">
        <ele>923.79998779297</ele>
        <time>2021-02-20T11:45:47.000Z</time>
      </trkpt>
      <trkpt lat="43.92388" lon="7.47523">
        <ele>923.20001220703</ele>
        <time>2021-02-20T11:45:48.000Z</time>
      </trkpt>
      <trkpt lat="43.92379" lon="7.47519">
        <ele>922.59997558594</ele>
        <time>2021-02-20T11:45:50.000Z</time>
      </trkpt>
      <trkpt lat="43.92375" lon="7.47512">
        <ele>922.20001220703</ele>
        <time>2021-02-20T11:45:51.000Z</time>
      </trkpt>
      <trkpt lat="43.92369" lon="7.47499">
        <ele>920.79998779297</ele>
        <time>2021-02-20T11:45:53.000Z</time>
      </trkpt>
      <trkpt lat="43.92365" lon="7.47495">
        <ele>920</ele>
        <time>2021-02-20T11:45:54.000Z</time>
      </trkpt>
      <trkpt lat="43.92361" lon="7.47495">
        <ele>919.20001220703</ele>
        <time>2021-02-20T11:45:55.000Z</time>
      </trkpt>
      <trkpt lat="43.92358" lon="7.47497">
        <ele>919</ele>
        <time>2021-02-20T11:45:56.000Z</time>
      </trkpt>
      <trkpt lat="43.92357" lon="7.4751">
        <ele>918.59997558594</ele>
        <time>2021-02-20T11:45:58.000Z</time>
      </trkpt>
      <trkpt lat="43.9236" lon="7.47516">
        <ele>918.20001220703</ele>
        <time>2021-02-20T11:45:59.000Z</time>
      </trkpt>
      <trkpt lat="43.92364" lon="7.47522">
        <ele>917.79998779297</ele>
        <time>2021-02-20T11:46:00.000Z</time>
      </trkpt>
      <trkpt lat="43.92368" lon="7.47529">
        <ele>917</ele>
        <time>2021-02-20T11:46:01.000Z</time>
      </trkpt>
      <trkpt lat="43.92378" lon="7.47542">
        <ele>915.79998779297</ele>
        <time>2021-02-20T11:46:03.000Z</time>
      </trkpt>
      <trkpt lat="43.92388" lon="7.47568">
        <ele>914.79998779297</ele>
        <time>2021-02-20T11:46:06.000Z</time>
      </trkpt>
      <trkpt lat="43.92395" lon="7.47587">
        <ele>913.79998779297</ele>
        <time>2021-02-20T11:46:08.000Z</time>
      </trkpt>
      <trkpt lat="43.92399" lon="7.47594">
        <ele>913.40002441406</ele>
        <time>2021-02-20T11:46:09.000Z</time>
      </trkpt>
      <trkpt lat="43.92402" lon="7.476">
        <ele>913.20001220703</ele>
        <time>2021-02-20T11:46:10.000Z</time>
      </trkpt>
      <trkpt lat="43.92411" lon="7.47619">
        <ele>913.59997558594</ele>
        <time>2021-02-20T11:46:13.000Z</time>
      </trkpt>
      <trkpt lat="43.92413" lon="7.47625">
        <ele>914.20001220703</ele>
        <time>2021-02-20T11:46:14.000Z</time>
      </trkpt>
      <trkpt lat="43.92414" lon="7.47629">
        <ele>914.59997558594</ele>
        <time>2021-02-20T11:46:15.000Z</time>
      </trkpt>
      <trkpt lat="43.92421" lon="7.47652">
        <ele>915.79998779297</ele>
        <time>2021-02-20T11:46:19.000Z</time>
      </trkpt>
      <trkpt lat="43.92422" lon="7.47657">
        <ele>916</ele>
        <time>2021-02-20T11:46:20.000Z</time>
      </trkpt>
      <trkpt lat="43.92428" lon="7.47677">
        <ele>916.20001220703</ele>
        <time>2021-02-20T11:46:24.000Z</time>
      </trkpt>
      <trkpt lat="43.9243" lon="7.47681">
        <ele>916.40002441406</ele>
        <time>2021-02-20T11:46:25.000Z</time>
      </trkpt>
      <trkpt lat="43.92435" lon="7.47702">
        <ele>916.79998779297</ele>
        <time>2021-02-20T11:46:30.000Z</time>
      </trkpt>
      <trkpt lat="43.92435" lon="7.47711">
        <ele>916.79998779297</ele>
        <time>2021-02-20T11:46:33.000Z</time>
      </trkpt>
      <trkpt lat="43.92434" lon="7.47719">
        <ele>917.20001220703</ele>
        <time>2021-02-20T11:46:36.000Z</time>
      </trkpt>
      <trkpt lat="43.92434" lon="7.4773">
        <ele>917.79998779297</ele>
        <time>2021-02-20T11:46:40.000Z</time>
      </trkpt>
      <trkpt lat="43.92434" lon="7.47738">
        <ele>917.79998779297</ele>
        <time>2021-02-20T11:46:42.000Z</time>
      </trkpt>
      <trkpt lat="43.92434" lon="7.47767">
        <ele>918.59997558594</ele>
        <time>2021-02-20T11:46:49.000Z</time>
      </trkpt>
      <trkpt lat="43.92434" lon="7.47771">
        <ele>918.79998779297</ele>
        <time>2021-02-20T11:46:50.000Z</time>
      </trkpt>
      <trkpt lat="43.92433" lon="7.47793">
        <ele>919.79998779297</ele>
        <time>2021-02-20T11:46:55.000Z</time>
      </trkpt>
      <trkpt lat="43.92433" lon="7.47797">
        <ele>920</ele>
        <time>2021-02-20T11:46:56.000Z</time>
      </trkpt>
      <trkpt lat="43.92426" lon="7.4783">
        <ele>920.59997558594</ele>
        <time>2021-02-20T11:47:03.000Z</time>
      </trkpt>
      <trkpt lat="43.92424" lon="7.47837">
        <ele>921</ele>
        <time>2021-02-20T11:47:05.000Z</time>
      </trkpt>
      <trkpt lat="43.92421" lon="7.47852">
        <ele>921.40002441406</ele>
        <time>2021-02-20T11:47:08.000Z</time>
      </trkpt>
      <trkpt lat="43.9242" lon="7.4786">
        <ele>922</ele>
        <time>2021-02-20T11:47:10.000Z</time>
      </trkpt>
      <trkpt lat="43.92416" lon="7.47884">
        <ele>923</ele>
        <time>2021-02-20T11:47:15.000Z</time>
      </trkpt>
      <trkpt lat="43.92412" lon="7.47911">
        <ele>923.20001220703</ele>
        <time>2021-02-20T11:47:21.000Z</time>
      </trkpt>
      <trkpt lat="43.92411" lon="7.4792">
        <ele>923.59997558594</ele>
        <time>2021-02-20T11:47:23.000Z</time>
      </trkpt>
      <trkpt lat="43.92409" lon="7.47933">
        <ele>924.20001220703</ele>
        <time>2021-02-20T11:47:26.000Z</time>
      </trkpt>
      <trkpt lat="43.92404" lon="7.47957">
        <ele>924.79998779297</ele>
        <time>2021-02-20T11:47:32.000Z</time>
      </trkpt>
      <trkpt lat="43.92403" lon="7.47964">
        <ele>925.20001220703</ele>
        <time>2021-02-20T11:47:34.000Z</time>
      </trkpt>
      <trkpt lat="43.92401" lon="7.47981">
        <ele>926.40002441406</ele>
        <time>2021-02-20T11:47:39.000Z</time>
      </trkpt>
      <trkpt lat="43.924" lon="7.47985">
        <ele>926.59997558594</ele>
        <time>2021-02-20T11:47:40.000Z</time>
      </trkpt>
      <trkpt lat="43.924" lon="7.47996">
        <ele>927.59997558594</ele>
        <time>2021-02-20T11:47:43.000Z</time>
      </trkpt>
      <trkpt lat="43.92398" lon="7.48013">
        <ele>928.59997558594</ele>
        <time>2021-02-20T11:47:48.000Z</time>
      </trkpt>
      <trkpt lat="43.92397" lon="7.48019">
        <ele>929</ele>
        <time>2021-02-20T11:47:50.000Z</time>
      </trkpt>
      <trkpt lat="43.92391" lon="7.48033">
        <ele>929.79998779297</ele>
        <time>2021-02-20T11:47:55.000Z</time>
      </trkpt>
      <trkpt lat="43.92388" lon="7.48039">
        <ele>930.40002441406</ele>
        <time>2021-02-20T11:47:57.000Z</time>
      </trkpt>
      <trkpt lat="43.92381" lon="7.48046">
        <ele>931</ele>
        <time>2021-02-20T11:48:00.000Z</time>
      </trkpt>
      <trkpt lat="43.92376" lon="7.48049">
        <ele>931.40002441406</ele>
        <time>2021-02-20T11:48:02.000Z</time>
      </trkpt>
      <trkpt lat="43.92369" lon="7.48053">
        <ele>932.20001220703</ele>
        <time>2021-02-20T11:48:05.000Z</time>
      </trkpt>
      <trkpt lat="43.92358" lon="7.48061">
        <ele>933.20001220703</ele>
        <time>2021-02-20T11:48:10.000Z</time>
      </trkpt>
      <trkpt lat="43.9235" lon="7.48071">
        <ele>934.59997558594</ele>
        <time>2021-02-20T11:48:15.000Z</time>
      </trkpt>
      <trkpt lat="43.92343" lon="7.48082">
        <ele>935.40002441406</ele>
        <time>2021-02-20T11:48:19.000Z</time>
      </trkpt>
      <trkpt lat="43.92337" lon="7.48087">
        <ele>935.59997558594</ele>
        <time>2021-02-20T11:48:22.000Z</time>
      </trkpt>
      <trkpt lat="43.92328" lon="7.48091">
        <ele>936.40002441406</ele>
        <time>2021-02-20T11:48:26.000Z</time>
      </trkpt>
      <trkpt lat="43.92321" lon="7.48092">
        <ele>936.79998779297</ele>
        <time>2021-02-20T11:48:29.000Z</time>
      </trkpt>
      <trkpt lat="43.92311" lon="7.48092">
        <ele>938</ele>
        <time>2021-02-20T11:48:33.000Z</time>
      </trkpt>
      <trkpt lat="43.92308" lon="7.48093">
        <ele>938.20001220703</ele>
        <time>2021-02-20T11:48:34.000Z</time>
      </trkpt>
      <trkpt lat="43.92299" lon="7.48093">
        <ele>939</ele>
        <time>2021-02-20T11:48:38.000Z</time>
      </trkpt>
      <trkpt lat="43.92291" lon="7.48093">
        <ele>939.59997558594</ele>
        <time>2021-02-20T11:48:41.000Z</time>
      </trkpt>
      <trkpt lat="43.92286" lon="7.48094">
        <ele>940.20001220703</ele>
        <time>2021-02-20T11:48:43.000Z</time>
      </trkpt>
      <trkpt lat="43.92276" lon="7.48095">
        <ele>941</ele>
        <time>2021-02-20T11:48:47.000Z</time>
      </trkpt>
      <trkpt lat="43.92268" lon="7.48097">
        <ele>941.59997558594</ele>
        <time>2021-02-20T11:48:50.000Z</time>
      </trkpt>
      <trkpt lat="43.92257" lon="7.48099">
        <ele>942.79998779297</ele>
        <time>2021-02-20T11:48:54.000Z</time>
      </trkpt>
      <trkpt lat="43.92252" lon="7.48101">
        <ele>943.40002441406</ele>
        <time>2021-02-20T11:48:56.000Z</time>
      </trkpt>
      <trkpt lat="43.92247" lon="7.48103">
        <ele>943.79998779297</ele>
        <time>2021-02-20T11:48:58.000Z</time>
      </trkpt>
      <trkpt lat="43.9223" lon="7.48105">
        <ele>945</ele>
        <time>2021-02-20T11:49:04.000Z</time>
      </trkpt>
      <trkpt lat="43.92228" lon="7.48105">
        <ele>945.20001220703</ele>
        <time>2021-02-20T11:49:05.000Z</time>
      </trkpt>
      <trkpt lat="43.92213" lon="7.48106">
        <ele>946.40002441406</ele>
        <time>2021-02-20T11:49:10.000Z</time>
      </trkpt>
      <trkpt lat="43.92205" lon="7.48106">
        <ele>947.59997558594</ele>
        <time>2021-02-20T11:49:13.000Z</time>
      </trkpt>
      <trkpt lat="43.92199" lon="7.48106">
        <ele>948.20001220703</ele>
        <time>2021-02-20T11:49:15.000Z</time>
      </trkpt>
      <trkpt lat="43.92191" lon="7.48107">
        <ele>948.79998779297</ele>
        <time>2021-02-20T11:49:18.000Z</time>
      </trkpt>
      <trkpt lat="43.92174" lon="7.48107">
        <ele>949.79998779297</ele>
        <time>2021-02-20T11:49:24.000Z</time>
      </trkpt>
      <trkpt lat="43.92171" lon="7.48107">
        <ele>950</ele>
        <time>2021-02-20T11:49:25.000Z</time>
      </trkpt>
      <trkpt lat="43.92166" lon="7.48106">
        <ele>950.79998779297</ele>
        <time>2021-02-20T11:49:27.000Z</time>
      </trkpt>
      <trkpt lat="43.92158" lon="7.48104">
        <ele>951.79998779297</ele>
        <time>2021-02-20T11:49:30.000Z</time>
      </trkpt>
      <trkpt lat="43.92154" lon="7.48105">
        <ele>952.20001220703</ele>
        <time>2021-02-20T11:49:32.000Z</time>
      </trkpt>
      <trkpt lat="43.92146" lon="7.48114">
        <ele>953</ele>
        <time>2021-02-20T11:49:37.000Z</time>
      </trkpt>
      <trkpt lat="43.92148" lon="7.4812">
        <ele>953.20001220703</ele>
        <time>2021-02-20T11:49:42.000Z</time>
      </trkpt>
      <trkpt lat="43.92151" lon="7.4812">
        <ele>954</ele>
        <time>2021-02-20T11:49:47.000Z</time>
      </trkpt>
      <trkpt lat="43.92153" lon="7.48119">
        <ele>954</ele>
        <time>2021-02-20T11:49:48.000Z</time>
      </trkpt>
      <trkpt lat="43.92168" lon="7.48118">
        <ele>954.20001220703</ele>
        <time>2021-02-20T11:49:55.000Z</time>
      </trkpt>
      <trkpt lat="43.92171" lon="7.48119">
        <ele>955</ele>
        <time>2021-02-20T11:50:00.000Z</time>
      </trkpt>
      <trkpt lat="43.92173" lon="7.48119">
        <ele>955.40002441406</ele>
        <time>2021-02-20T11:50:04.000Z</time>
      </trkpt>
      <trkpt lat="43.92175" lon="7.4812">
        <ele>955.40002441406</ele>
        <time>2021-02-20T11:50:06.000Z</time>
      </trkpt>
      <trkpt lat="43.92187" lon="7.48124">
        <ele>955.59997558594</ele>
        <time>2021-02-20T11:50:13.000Z</time>
      </trkpt>
      <trkpt lat="43.92201" lon="7.4813">
        <ele>956.20001220703</ele>
        <time>2021-02-20T11:50:19.000Z</time>
      </trkpt>
      <trkpt lat="43.92206" lon="7.48133">
        <ele>956.40002441406</ele>
        <time>2021-02-20T11:50:21.000Z</time>
      </trkpt>
      <trkpt lat="43.92219" lon="7.48137">
        <ele>957.20001220703</ele>
        <time>2021-02-20T11:50:27.000Z</time>
      </trkpt>
      <trkpt lat="43.92219" lon="7.48138">
        <ele>957.40002441406</ele>
        <time>2021-02-20T11:50:28.000Z</time>
      </trkpt>
      <trkpt lat="43.92219" lon="7.48138">
        <ele>957.79998779297</ele>
        <time>2021-02-20T11:50:33.000Z</time>
      </trkpt>
      <trkpt lat="43.92226" lon="7.4814">
        <ele>958</ele>
        <time>2021-02-20T11:50:37.000Z</time>
      </trkpt>
      <trkpt lat="43.92231" lon="7.48146">
        <ele>958.20001220703</ele>
        <time>2021-02-20T11:50:40.000Z</time>
      </trkpt>
      <trkpt lat="43.92233" lon="7.48148">
        <ele>958.40002441406</ele>
        <time>2021-02-20T11:50:41.000Z</time>
      </trkpt>
      <trkpt lat="43.92236" lon="7.48149">
        <ele>958.59997558594</ele>
        <time>2021-02-20T11:50:42.000Z</time>
      </trkpt>
      <trkpt lat="43.92253" lon="7.48155">
        <ele>959.40002441406</ele>
        <time>2021-02-20T11:50:47.000Z</time>
      </trkpt>
      <trkpt lat="43.9226" lon="7.48158">
        <ele>959.79998779297</ele>
        <time>2021-02-20T11:50:49.000Z</time>
      </trkpt>
      <trkpt lat="43.92269" lon="7.48161">
        <ele>960.59997558594</ele>
        <time>2021-02-20T11:50:52.000Z</time>
      </trkpt>
      <trkpt lat="43.92281" lon="7.48167">
        <ele>962</ele>
        <time>2021-02-20T11:50:56.000Z</time>
      </trkpt>
      <trkpt lat="43.92284" lon="7.48167">
        <ele>962.40002441406</ele>
        <time>2021-02-20T11:50:57.000Z</time>
      </trkpt>
      <trkpt lat="43.92288" lon="7.4817">
        <ele>963.20001220703</ele>
        <time>2021-02-20T11:50:59.000Z</time>
      </trkpt>
      <trkpt lat="43.92297" lon="7.48174">
        <ele>964.20001220703</ele>
        <time>2021-02-20T11:51:03.000Z</time>
      </trkpt>
      <trkpt lat="43.923" lon="7.48176">
        <ele>964.40002441406</ele>
        <time>2021-02-20T11:51:04.000Z</time>
      </trkpt>
      <trkpt lat="43.92313" lon="7.48181">
        <ele>965</ele>
        <time>2021-02-20T11:51:09.000Z</time>
      </trkpt>
      <trkpt lat="43.92318" lon="7.48182">
        <ele>965.40002441406</ele>
        <time>2021-02-20T11:51:11.000Z</time>
      </trkpt>
      <trkpt lat="43.92327" lon="7.48185">
        <ele>966.79998779297</ele>
        <time>2021-02-20T11:51:15.000Z</time>
      </trkpt>
      <trkpt lat="43.92341" lon="7.48186">
        <ele>967.79998779297</ele>
        <time>2021-02-20T11:51:20.000Z</time>
      </trkpt>
      <trkpt lat="43.92346" lon="7.48185">
        <ele>968.40002441406</ele>
        <time>2021-02-20T11:51:22.000Z</time>
      </trkpt>
      <trkpt lat="43.92354" lon="7.48185">
        <ele>968.79998779297</ele>
        <time>2021-02-20T11:51:25.000Z</time>
      </trkpt>
      <trkpt lat="43.92365" lon="7.48183">
        <ele>969.59997558594</ele>
        <time>2021-02-20T11:51:29.000Z</time>
      </trkpt>
      <trkpt lat="43.92371" lon="7.48184">
        <ele>970.20001220703</ele>
        <time>2021-02-20T11:51:31.000Z</time>
      </trkpt>
      <trkpt lat="43.92379" lon="7.48186">
        <ele>971.40002441406</ele>
        <time>2021-02-20T11:51:34.000Z</time>
      </trkpt>
      <trkpt lat="43.92382" lon="7.48187">
        <ele>971.59997558594</ele>
        <time>2021-02-20T11:51:35.000Z</time>
      </trkpt>
      <trkpt lat="43.92393" lon="7.4819">
        <ele>972.40002441406</ele>
        <time>2021-02-20T11:51:39.000Z</time>
      </trkpt>
      <trkpt lat="43.92401" lon="7.48193">
        <ele>973</ele>
        <time>2021-02-20T11:51:42.000Z</time>
      </trkpt>
      <trkpt lat="43.92412" lon="7.48194">
        <ele>973.79998779297</ele>
        <time>2021-02-20T11:51:46.000Z</time>
      </trkpt>
      <trkpt lat="43.92418" lon="7.48195">
        <ele>974.40002441406</ele>
        <time>2021-02-20T11:51:48.000Z</time>
      </trkpt>
      <trkpt lat="43.92423" lon="7.48194">
        <ele>975</ele>
        <time>2021-02-20T11:51:50.000Z</time>
      </trkpt>
      <trkpt lat="43.92434" lon="7.48195">
        <ele>976.20001220703</ele>
        <time>2021-02-20T11:51:54.000Z</time>
      </trkpt>
      <trkpt lat="43.92444" lon="7.48197">
        <ele>977.20001220703</ele>
        <time>2021-02-20T11:51:58.000Z</time>
      </trkpt>
      <trkpt lat="43.92452" lon="7.48201">
        <ele>977.79998779297</ele>
        <time>2021-02-20T11:52:01.000Z</time>
      </trkpt>
      <trkpt lat="43.92459" lon="7.48206">
        <ele>978.40002441406</ele>
        <time>2021-02-20T11:52:04.000Z</time>
      </trkpt>
      <trkpt lat="43.92466" lon="7.48214">
        <ele>979.20001220703</ele>
        <time>2021-02-20T11:52:07.000Z</time>
      </trkpt>
      <trkpt lat="43.92468" lon="7.48216">
        <ele>979.59997558594</ele>
        <time>2021-02-20T11:52:08.000Z</time>
      </trkpt>
      <trkpt lat="43.92474" lon="7.48228">
        <ele>980.59997558594</ele>
        <time>2021-02-20T11:52:12.000Z</time>
      </trkpt>
      <trkpt lat="43.92475" lon="7.48232">
        <ele>980.79998779297</ele>
        <time>2021-02-20T11:52:13.000Z</time>
      </trkpt>
      <trkpt lat="43.9248" lon="7.48242">
        <ele>981.59997558594</ele>
        <time>2021-02-20T11:52:16.000Z</time>
      </trkpt>
      <trkpt lat="43.92481" lon="7.48249">
        <ele>981.79998779297</ele>
        <time>2021-02-20T11:52:18.000Z</time>
      </trkpt>
      <trkpt lat="43.92483" lon="7.48266">
        <ele>982.79998779297</ele>
        <time>2021-02-20T11:52:22.000Z</time>
      </trkpt>
      <trkpt lat="43.92485" lon="7.48277">
        <ele>983.59997558594</ele>
        <time>2021-02-20T11:52:25.000Z</time>
      </trkpt>
      <trkpt lat="43.92485" lon="7.48281">
        <ele>984</ele>
        <time>2021-02-20T11:52:26.000Z</time>
      </trkpt>
      <trkpt lat="43.92487" lon="7.48301">
        <ele>985.20001220703</ele>
        <time>2021-02-20T11:52:31.000Z</time>
      </trkpt>
      <trkpt lat="43.92489" lon="7.48304">
        <ele>985.20001220703</ele>
        <time>2021-02-20T11:52:32.000Z</time>
      </trkpt>
      <trkpt lat="43.92495" lon="7.48317">
        <ele>986.40002441406</ele>
        <time>2021-02-20T11:52:36.000Z</time>
      </trkpt>
      <trkpt lat="43.925" lon="7.48326">
        <ele>986.79998779297</ele>
        <time>2021-02-20T11:52:39.000Z</time>
      </trkpt>
      <trkpt lat="43.92502" lon="7.48332">
        <ele>987.40002441406</ele>
        <time>2021-02-20T11:52:41.000Z</time>
      </trkpt>
      <trkpt lat="43.92498" lon="7.48337">
        <ele>988</ele>
        <time>2021-02-20T11:52:43.000Z</time>
      </trkpt>
      <trkpt lat="43.92493" lon="7.48336">
        <ele>988.59997558594</ele>
        <time>2021-02-20T11:52:45.000Z</time>
      </trkpt>
      <trkpt lat="43.92491" lon="7.48333">
        <ele>988.79998779297</ele>
        <time>2021-02-20T11:52:46.000Z</time>
      </trkpt>
      <trkpt lat="43.92488" lon="7.48326">
        <ele>989.20001220703</ele>
        <time>2021-02-20T11:52:48.000Z</time>
      </trkpt>
      <trkpt lat="43.92485" lon="7.48321">
        <ele>989.59997558594</ele>
        <time>2021-02-20T11:52:50.000Z</time>
      </trkpt>
      <trkpt lat="43.92473" lon="7.48306">
        <ele>990.79998779297</ele>
        <time>2021-02-20T11:52:56.000Z</time>
      </trkpt>
      <trkpt lat="43.92471" lon="7.48304">
        <ele>990.79998779297</ele>
        <time>2021-02-20T11:52:57.000Z</time>
      </trkpt>
      <trkpt lat="43.92462" lon="7.48297">
        <ele>991.79998779297</ele>
        <time>2021-02-20T11:53:01.000Z</time>
      </trkpt>
      <trkpt lat="43.92455" lon="7.48293">
        <ele>992.79998779297</ele>
        <time>2021-02-20T11:53:04.000Z</time>
      </trkpt>
      <trkpt lat="43.92453" lon="7.48291">
        <ele>993</ele>
        <time>2021-02-20T11:53:05.000Z</time>
      </trkpt>
      <trkpt lat="43.92442" lon="7.48287">
        <ele>994.20001220703</ele>
        <time>2021-02-20T11:53:09.000Z</time>
      </trkpt>
      <trkpt lat="43.92438" lon="7.48284">
        <ele>994.59997558594</ele>
        <time>2021-02-20T11:53:11.000Z</time>
      </trkpt>
      <trkpt lat="43.92427" lon="7.48278">
        <ele>995.40002441406</ele>
        <time>2021-02-20T11:53:15.000Z</time>
      </trkpt>
      <trkpt lat="43.92421" lon="7.48273">
        <ele>996.59997558594</ele>
        <time>2021-02-20T11:53:18.000Z</time>
      </trkpt>
      <trkpt lat="43.92411" lon="7.4827">
        <ele>997.79998779297</ele>
        <time>2021-02-20T11:53:22.000Z</time>
      </trkpt>
      <trkpt lat="43.92406" lon="7.4827">
        <ele>998.20001220703</ele>
        <time>2021-02-20T11:53:24.000Z</time>
      </trkpt>
      <trkpt lat="43.92393" lon="7.4827">
        <ele>998.79998779297</ele>
        <time>2021-02-20T11:53:29.000Z</time>
      </trkpt>
      <trkpt lat="43.92387" lon="7.48269">
        <ele>999</ele>
        <time>2021-02-20T11:53:31.000Z</time>
      </trkpt>
      <trkpt lat="43.92378" lon="7.48269">
        <ele>999.79998779297</ele>
        <time>2021-02-20T11:53:35.000Z</time>
      </trkpt>
      <trkpt lat="43.92372" lon="7.48271">
        <ele>1000.4000244141</ele>
        <time>2021-02-20T11:53:37.000Z</time>
      </trkpt>
      <trkpt lat="43.92366" lon="7.48274">
        <ele>1001</ele>
        <time>2021-02-20T11:53:40.000Z</time>
      </trkpt>
      <trkpt lat="43.92355" lon="7.48285">
        <ele>1001.5999755859</ele>
        <time>2021-02-20T11:53:45.000Z</time>
      </trkpt>
      <trkpt lat="43.92342" lon="7.483">
        <ele>1002</ele>
        <time>2021-02-20T11:53:52.000Z</time>
      </trkpt>
      <trkpt lat="43.9234" lon="7.48301">
        <ele>1002.200012207</ele>
        <time>2021-02-20T11:53:53.000Z</time>
      </trkpt>
      <trkpt lat="43.92335" lon="7.48316">
        <ele>1003.200012207</ele>
        <time>2021-02-20T11:53:59.000Z</time>
      </trkpt>
      <trkpt lat="43.92338" lon="7.48319">
        <ele>1003.4000244141</ele>
        <time>2021-02-20T11:54:01.000Z</time>
      </trkpt>
      <trkpt lat="43.92343" lon="7.48319">
        <ele>1003.799987793</ele>
        <time>2021-02-20T11:54:03.000Z</time>
      </trkpt>
      <trkpt lat="43.9235" lon="7.48315">
        <ele>1004.200012207</ele>
        <time>2021-02-20T11:54:06.000Z</time>
      </trkpt>
      <trkpt lat="43.92355" lon="7.48313">
        <ele>1004.4000244141</ele>
        <time>2021-02-20T11:54:08.000Z</time>
      </trkpt>
      <trkpt lat="43.92359" lon="7.4831">
        <ele>1004.799987793</ele>
        <time>2021-02-20T11:54:10.000Z</time>
      </trkpt>
      <trkpt lat="43.92364" lon="7.48307">
        <ele>1005.4000244141</ele>
        <time>2021-02-20T11:54:12.000Z</time>
      </trkpt>
      <trkpt lat="43.92372" lon="7.48302">
        <ele>1006</ele>
        <time>2021-02-20T11:54:15.000Z</time>
      </trkpt>
      <trkpt lat="43.92378" lon="7.483">
        <ele>1006.5999755859</ele>
        <time>2021-02-20T11:54:17.000Z</time>
      </trkpt>
      <trkpt lat="43.92389" lon="7.483">
        <ele>1007.5999755859</ele>
        <time>2021-02-20T11:54:21.000Z</time>
      </trkpt>
      <trkpt lat="43.92392" lon="7.48301">
        <ele>1007.5999755859</ele>
        <time>2021-02-20T11:54:22.000Z</time>
      </trkpt>
      <trkpt lat="43.92405" lon="7.48308">
        <ele>1008.5999755859</ele>
        <time>2021-02-20T11:54:27.000Z</time>
      </trkpt>
      <trkpt lat="43.92407" lon="7.4831">
        <ele>1008.799987793</ele>
        <time>2021-02-20T11:54:28.000Z</time>
      </trkpt>
      <trkpt lat="43.92416" lon="7.4832">
        <ele>1010</ele>
        <time>2021-02-20T11:54:32.000Z</time>
      </trkpt>
      <trkpt lat="43.92418" lon="7.48322">
        <ele>1010.200012207</ele>
        <time>2021-02-20T11:54:33.000Z</time>
      </trkpt>
      <trkpt lat="43.92427" lon="7.48333">
        <ele>1011.200012207</ele>
        <time>2021-02-20T11:54:37.000Z</time>
      </trkpt>
      <trkpt lat="43.92432" lon="7.48339">
        <ele>1011.5999755859</ele>
        <time>2021-02-20T11:54:39.000Z</time>
      </trkpt>
      <trkpt lat="43.92444" lon="7.48351">
        <ele>1012.200012207</ele>
        <time>2021-02-20T11:54:44.000Z</time>
      </trkpt>
      <trkpt lat="43.92451" lon="7.48358">
        <ele>1013.200012207</ele>
        <time>2021-02-20T11:54:47.000Z</time>
      </trkpt>
      <trkpt lat="43.92459" lon="7.48368">
        <ele>1014.4000244141</ele>
        <time>2021-02-20T11:54:51.000Z</time>
      </trkpt>
      <trkpt lat="43.92463" lon="7.48372">
        <ele>1014.799987793</ele>
        <time>2021-02-20T11:54:53.000Z</time>
      </trkpt>
      <trkpt lat="43.92469" lon="7.48381">
        <ele>1015.5999755859</ele>
        <time>2021-02-20T11:54:56.000Z</time>
      </trkpt>
      <trkpt lat="43.92473" lon="7.48387">
        <ele>1015.799987793</ele>
        <time>2021-02-20T11:54:58.000Z</time>
      </trkpt>
      <trkpt lat="43.92475" lon="7.48389">
        <ele>1016</ele>
        <time>2021-02-20T11:54:59.000Z</time>
      </trkpt>
      <trkpt lat="43.92483" lon="7.48401">
        <ele>1016.799987793</ele>
        <time>2021-02-20T11:55:03.000Z</time>
      </trkpt>
      <trkpt lat="43.92486" lon="7.48407">
        <ele>1017.4000244141</ele>
        <time>2021-02-20T11:55:05.000Z</time>
      </trkpt>
      <trkpt lat="43.92489" lon="7.48414">
        <ele>1018</ele>
        <time>2021-02-20T11:55:07.000Z</time>
      </trkpt>
      <trkpt lat="43.92497" lon="7.48433">
        <ele>1019.200012207</ele>
        <time>2021-02-20T11:55:12.000Z</time>
      </trkpt>
      <trkpt lat="43.92503" lon="7.48451">
        <ele>1020.200012207</ele>
        <time>2021-02-20T11:55:17.000Z</time>
      </trkpt>
      <trkpt lat="43.92508" lon="7.4846">
        <ele>1021</ele>
        <time>2021-02-20T11:55:20.000Z</time>
      </trkpt>
      <trkpt lat="43.9251" lon="7.48463">
        <ele>1021.4000244141</ele>
        <time>2021-02-20T11:55:21.000Z</time>
      </trkpt>
      <trkpt lat="43.92516" lon="7.48472">
        <ele>1022.4000244141</ele>
        <time>2021-02-20T11:55:24.000Z</time>
      </trkpt>
      <trkpt lat="43.92518" lon="7.48475">
        <ele>1022.799987793</ele>
        <time>2021-02-20T11:55:25.000Z</time>
      </trkpt>
      <trkpt lat="43.92525" lon="7.48486">
        <ele>1023.5999755859</ele>
        <time>2021-02-20T11:55:28.000Z</time>
      </trkpt>
      <trkpt lat="43.92532" lon="7.48497">
        <ele>1024.8000488281</ele>
        <time>2021-02-20T11:55:32.000Z</time>
      </trkpt>
      <trkpt lat="43.92534" lon="7.485">
        <ele>1024.8000488281</ele>
        <time>2021-02-20T11:55:33.000Z</time>
      </trkpt>
      <trkpt lat="43.92544" lon="7.48514">
        <ele>1025.8000488281</ele>
        <time>2021-02-20T11:55:38.000Z</time>
      </trkpt>
      <trkpt lat="43.92546" lon="7.48516">
        <ele>1026</ele>
        <time>2021-02-20T11:55:39.000Z</time>
      </trkpt>
      <trkpt lat="43.92552" lon="7.48524">
        <ele>1027</ele>
        <time>2021-02-20T11:55:42.000Z</time>
      </trkpt>
      <trkpt lat="43.92559" lon="7.48535">
        <ele>1028</ele>
        <time>2021-02-20T11:55:46.000Z</time>
      </trkpt>
      <trkpt lat="43.92568" lon="7.48553">
        <ele>1029.1999511719</ele>
        <time>2021-02-20T11:55:52.000Z</time>
      </trkpt>
      <trkpt lat="43.92569" lon="7.48557">
        <ele>1029.5999755859</ele>
        <time>2021-02-20T11:55:53.000Z</time>
      </trkpt>
      <trkpt lat="43.92573" lon="7.4857">
        <ele>1030.4000244141</ele>
        <time>2021-02-20T11:55:57.000Z</time>
      </trkpt>
      <trkpt lat="43.92576" lon="7.48577">
        <ele>1030.8000488281</ele>
        <time>2021-02-20T11:55:59.000Z</time>
      </trkpt>
      <trkpt lat="43.9258" lon="7.48587">
        <ele>1031.4000244141</ele>
        <time>2021-02-20T11:56:02.000Z</time>
      </trkpt>
      <trkpt lat="43.92584" lon="7.486">
        <ele>1032.4000244141</ele>
        <time>2021-02-20T11:56:06.000Z</time>
      </trkpt>
      <trkpt lat="43.92585" lon="7.48603">
        <ele>1032.5999755859</ele>
        <time>2021-02-20T11:56:07.000Z</time>
      </trkpt>
      <trkpt lat="43.92592" lon="7.48619">
        <ele>1033.5999755859</ele>
        <time>2021-02-20T11:56:12.000Z</time>
      </trkpt>
      <trkpt lat="43.92593" lon="7.48622">
        <ele>1033.8000488281</ele>
        <time>2021-02-20T11:56:13.000Z</time>
      </trkpt>
      <trkpt lat="43.92601" lon="7.48636">
        <ele>1034.5999755859</ele>
        <time>2021-02-20T11:56:18.000Z</time>
      </trkpt>
      <trkpt lat="43.92603" lon="7.48639">
        <ele>1034.8000488281</ele>
        <time>2021-02-20T11:56:19.000Z</time>
      </trkpt>
      <trkpt lat="43.92612" lon="7.48649">
        <ele>1035.8000488281</ele>
        <time>2021-02-20T11:56:23.000Z</time>
      </trkpt>
      <trkpt lat="43.92619" lon="7.48655">
        <ele>1036.8000488281</ele>
        <time>2021-02-20T11:56:26.000Z</time>
      </trkpt>
      <trkpt lat="43.92621" lon="7.48657">
        <ele>1037</ele>
        <time>2021-02-20T11:56:27.000Z</time>
      </trkpt>
      <trkpt lat="43.92635" lon="7.48669">
        <ele>1038.1999511719</ele>
        <time>2021-02-20T11:56:33.000Z</time>
      </trkpt>
      <trkpt lat="43.92644" lon="7.48676">
        <ele>1039.4000244141</ele>
        <time>2021-02-20T11:56:37.000Z</time>
      </trkpt>
      <trkpt lat="43.92646" lon="7.48678">
        <ele>1039.5999755859</ele>
        <time>2021-02-20T11:56:38.000Z</time>
      </trkpt>
      <trkpt lat="43.92649" lon="7.48683">
        <ele>1040.4000244141</ele>
        <time>2021-02-20T11:56:40.000Z</time>
      </trkpt>
      <trkpt lat="43.92651" lon="7.48685">
        <ele>1040.8000488281</ele>
        <time>2021-02-20T11:56:41.000Z</time>
      </trkpt>
      <trkpt lat="43.92654" lon="7.48688">
        <ele>1041.4000244141</ele>
        <time>2021-02-20T11:56:43.000Z</time>
      </trkpt>
      <trkpt lat="43.92657" lon="7.4869">
        <ele>1041.8000488281</ele>
        <time>2021-02-20T11:56:44.000Z</time>
      </trkpt>
      <trkpt lat="43.92663" lon="7.48694">
        <ele>1042.8000488281</ele>
        <time>2021-02-20T11:56:47.000Z</time>
      </trkpt>
      <trkpt lat="43.92672" lon="7.487">
        <ele>1043.5999755859</ele>
        <time>2021-02-20T11:56:51.000Z</time>
      </trkpt>
      <trkpt lat="43.92674" lon="7.48701">
        <ele>1043.8000488281</ele>
        <time>2021-02-20T11:56:52.000Z</time>
      </trkpt>
      <trkpt lat="43.92684" lon="7.4871">
        <ele>1045</ele>
        <time>2021-02-20T11:56:57.000Z</time>
      </trkpt>
      <trkpt lat="43.92692" lon="7.4872">
        <ele>1046</ele>
        <time>2021-02-20T11:57:02.000Z</time>
      </trkpt>
      <trkpt lat="43.92696" lon="7.48726">
        <ele>1046.4000244141</ele>
        <time>2021-02-20T11:57:04.000Z</time>
      </trkpt>
      <trkpt lat="43.92699" lon="7.48731">
        <ele>1047.1999511719</ele>
        <time>2021-02-20T11:57:06.000Z</time>
      </trkpt>
      <trkpt lat="43.92704" lon="7.48744">
        <ele>1048.1999511719</ele>
        <time>2021-02-20T11:57:11.000Z</time>
      </trkpt>
      <trkpt lat="43.92706" lon="7.4875">
        <ele>1048.5999755859</ele>
        <time>2021-02-20T11:57:13.000Z</time>
      </trkpt>
      <trkpt lat="43.92708" lon="7.48762">
        <ele>1049.4000244141</ele>
        <time>2021-02-20T11:57:17.000Z</time>
      </trkpt>
      <trkpt lat="43.92708" lon="7.48775">
        <ele>1050.4000244141</ele>
        <time>2021-02-20T11:57:21.000Z</time>
      </trkpt>
      <trkpt lat="43.92708" lon="7.48778">
        <ele>1050.4000244141</ele>
        <time>2021-02-20T11:57:22.000Z</time>
      </trkpt>
      <trkpt lat="43.92709" lon="7.48795">
        <ele>1051.4000244141</ele>
        <time>2021-02-20T11:57:27.000Z</time>
      </trkpt>
      <trkpt lat="43.92708" lon="7.48798">
        <ele>1051.8000488281</ele>
        <time>2021-02-20T11:57:28.000Z</time>
      </trkpt>
      <trkpt lat="43.92709" lon="7.48811">
        <ele>1052.5999755859</ele>
        <time>2021-02-20T11:57:32.000Z</time>
      </trkpt>
      <trkpt lat="43.92709" lon="7.48818">
        <ele>1053</ele>
        <time>2021-02-20T11:57:34.000Z</time>
      </trkpt>
      <trkpt lat="43.9271" lon="7.48827">
        <ele>1053.8000488281</ele>
        <time>2021-02-20T11:57:37.000Z</time>
      </trkpt>
      <trkpt lat="43.92709" lon="7.48836">
        <ele>1054.1999511719</ele>
        <time>2021-02-20T11:57:40.000Z</time>
      </trkpt>
      <trkpt lat="43.92709" lon="7.48846">
        <ele>1055</ele>
        <time>2021-02-20T11:57:43.000Z</time>
      </trkpt>
      <trkpt lat="43.92708" lon="7.48856">
        <ele>1055.4000244141</ele>
        <time>2021-02-20T11:57:46.000Z</time>
      </trkpt>
      <trkpt lat="43.92708" lon="7.48866">
        <ele>1056</ele>
        <time>2021-02-20T11:57:49.000Z</time>
      </trkpt>
      <trkpt lat="43.92707" lon="7.48882">
        <ele>1057.1999511719</ele>
        <time>2021-02-20T11:57:54.000Z</time>
      </trkpt>
      <trkpt lat="43.92705" lon="7.48902">
        <ele>1058.5999755859</ele>
        <time>2021-02-20T11:58:00.000Z</time>
      </trkpt>
      <trkpt lat="43.92705" lon="7.48906">
        <ele>1058.8000488281</ele>
        <time>2021-02-20T11:58:01.000Z</time>
      </trkpt>
      <trkpt lat="43.92704" lon="7.48918">
        <ele>1059.5999755859</ele>
        <time>2021-02-20T11:58:05.000Z</time>
      </trkpt>
      <trkpt lat="43.92701" lon="7.48931">
        <ele>1060.5999755859</ele>
        <time>2021-02-20T11:58:09.000Z</time>
      </trkpt>
      <trkpt lat="43.92699" lon="7.48947">
        <ele>1061.8000488281</ele>
        <time>2021-02-20T11:58:14.000Z</time>
      </trkpt>
      <trkpt lat="43.92698" lon="7.48967">
        <ele>1062.8000488281</ele>
        <time>2021-02-20T11:58:20.000Z</time>
      </trkpt>
      <trkpt lat="43.92698" lon="7.4897">
        <ele>1063</ele>
        <time>2021-02-20T11:58:21.000Z</time>
      </trkpt>
      <trkpt lat="43.92697" lon="7.48982">
        <ele>1064</ele>
        <time>2021-02-20T11:58:25.000Z</time>
      </trkpt>
      <trkpt lat="43.92697" lon="7.48985">
        <ele>1064.1999511719</ele>
        <time>2021-02-20T11:58:26.000Z</time>
      </trkpt>
      <trkpt lat="43.92697" lon="7.49001">
        <ele>1065.4000244141</ele>
        <time>2021-02-20T11:58:31.000Z</time>
      </trkpt>
      <trkpt lat="43.92695" lon="7.49007">
        <ele>1066</ele>
        <time>2021-02-20T11:58:33.000Z</time>
      </trkpt>
      <trkpt lat="43.92696" lon="7.49013">
        <ele>1066.4000244141</ele>
        <time>2021-02-20T11:58:35.000Z</time>
      </trkpt>
      <trkpt lat="43.92696" lon="7.49015">
        <ele>1066.4000244141</ele>
        <time>2021-02-20T11:58:36.000Z</time>
      </trkpt>
      <trkpt lat="43.92696" lon="7.49019">
        <ele>1066.5999755859</ele>
        <time>2021-02-20T11:58:37.000Z</time>
      </trkpt>
      <trkpt lat="43.92696" lon="7.49025">
        <ele>1067</ele>
        <time>2021-02-20T11:58:39.000Z</time>
      </trkpt>
      <trkpt lat="43.92697" lon="7.49036">
        <ele>1067.5999755859</ele>
        <time>2021-02-20T11:58:42.000Z</time>
      </trkpt>
      <trkpt lat="43.92696" lon="7.49039">
        <ele>1067.8000488281</ele>
        <time>2021-02-20T11:58:43.000Z</time>
      </trkpt>
      <trkpt lat="43.92698" lon="7.4905">
        <ele>1068.4000244141</ele>
        <time>2021-02-20T11:58:46.000Z</time>
      </trkpt>
      <trkpt lat="43.927" lon="7.49057">
        <ele>1068.8000488281</ele>
        <time>2021-02-20T11:58:48.000Z</time>
      </trkpt>
      <trkpt lat="43.92704" lon="7.49072">
        <ele>1070</ele>
        <time>2021-02-20T11:58:53.000Z</time>
      </trkpt>
      <trkpt lat="43.9271" lon="7.49082">
        <ele>1070.5999755859</ele>
        <time>2021-02-20T11:58:57.000Z</time>
      </trkpt>
      <trkpt lat="43.92714" lon="7.4909">
        <ele>1071</ele>
        <time>2021-02-20T11:59:00.000Z</time>
      </trkpt>
      <trkpt lat="43.92716" lon="7.491">
        <ele>1071.8000488281</ele>
        <time>2021-02-20T11:59:04.000Z</time>
      </trkpt>
      <trkpt lat="43.92715" lon="7.49101">
        <ele>1072</ele>
        <time>2021-02-20T11:59:05.000Z</time>
      </trkpt>
      <trkpt lat="43.92713" lon="7.49103">
        <ele>1072.4000244141</ele>
        <time>2021-02-20T11:59:08.000Z</time>
      </trkpt>
      <trkpt lat="43.92713" lon="7.49103">
        <ele>1072.5999755859</ele>
        <time>2021-02-20T11:59:09.000Z</time>
      </trkpt>
      <trkpt lat="43.92712" lon="7.491">
        <ele>1073</ele>
        <time>2021-02-20T11:59:13.000Z</time>
      </trkpt>
      <trkpt lat="43.92715" lon="7.49099">
        <ele>1073</ele>
        <time>2021-02-20T11:59:15.000Z</time>
      </trkpt>
      <trkpt lat="43.92717" lon="7.49101">
        <ele>1073</ele>
        <time>2021-02-20T11:59:17.000Z</time>
      </trkpt>
      <trkpt lat="43.92721" lon="7.4911">
        <ele>1072.8000488281</ele>
        <time>2021-02-20T11:59:23.000Z</time>
      </trkpt>
      <trkpt lat="43.92722" lon="7.49111">
        <ele>1073</ele>
        <time>2021-02-20T11:59:24.000Z</time>
      </trkpt>
      <trkpt lat="43.92724" lon="7.49115">
        <ele>1073</ele>
        <time>2021-02-20T11:59:27.000Z</time>
      </trkpt>
      <trkpt lat="43.92727" lon="7.49121">
        <ele>1073.5999755859</ele>
        <time>2021-02-20T11:59:33.000Z</time>
      </trkpt>
      <trkpt lat="43.92729" lon="7.49122">
        <ele>1073.5999755859</ele>
        <time>2021-02-20T11:59:43.000Z</time>
      </trkpt>
      <trkpt lat="43.92729" lon="7.49122">
        <ele>1073.8000488281</ele>
        <time>2021-02-20T11:59:53.000Z</time>
      </trkpt>
      <trkpt lat="43.92728" lon="7.49122">
        <ele>1073.8000488281</ele>
        <time>2021-02-20T12:00:08.000Z</time>
      </trkpt>
      <trkpt lat="43.92728" lon="7.49123">
        <ele>1073.8000488281</ele>
        <time>2021-02-20T12:00:25.000Z</time>
      </trkpt>
      <trkpt lat="43.92727" lon="7.49124">
        <ele>1073.8000488281</ele>
        <time>2021-02-20T12:00:40.000Z</time>
      </trkpt>
      <trkpt lat="43.92732" lon="7.49121">
        <ele>1074</ele>
        <time>2021-02-20T12:00:50.000Z</time>
      </trkpt>
      <trkpt lat="43.92735" lon="7.4912">
        <ele>1074</ele>
        <time>2021-02-20T12:00:57.000Z</time>
      </trkpt>
      <trkpt lat="43.92734" lon="7.49121">
        <ele>1074</ele>
        <time>2021-02-20T12:01:01.000Z</time>
      </trkpt>
      <trkpt lat="43.92731" lon="7.49123">
        <ele>1074</ele>
        <time>2021-02-20T12:01:12.000Z</time>
      </trkpt>
      <trkpt lat="43.92728" lon="7.49126">
        <ele>1074</ele>
        <time>2021-02-20T12:01:29.000Z</time>
      </trkpt>
      <trkpt lat="43.92727" lon="7.49129">
        <ele>1074.1999511719</ele>
        <time>2021-02-20T12:01:37.000Z</time>
      </trkpt>
      <trkpt lat="43.92727" lon="7.4913">
        <ele>1074.1999511719</ele>
        <time>2021-02-20T12:01:38.000Z</time>
      </trkpt>
      <trkpt lat="43.9273" lon="7.49142">
        <ele>1074</ele>
        <time>2021-02-20T12:01:43.000Z</time>
      </trkpt>
      <trkpt lat="43.92734" lon="7.49163">
        <ele>1073.5999755859</ele>
        <time>2021-02-20T12:01:49.000Z</time>
      </trkpt>
      <trkpt lat="43.92738" lon="7.49189">
        <ele>1073.5999755859</ele>
        <time>2021-02-20T12:01:55.000Z</time>
      </trkpt>
      <trkpt lat="43.9274" lon="7.49213">
        <ele>1073.4000244141</ele>
        <time>2021-02-20T12:02:00.000Z</time>
      </trkpt>
      <trkpt lat="43.92741" lon="7.49224">
        <ele>1073</ele>
        <time>2021-02-20T12:02:02.000Z</time>
      </trkpt>
      <trkpt lat="43.92742" lon="7.49241">
        <ele>1072.4000244141</ele>
        <time>2021-02-20T12:02:05.000Z</time>
      </trkpt>
      <trkpt lat="43.92742" lon="7.49246">
        <ele>1072.4000244141</ele>
        <time>2021-02-20T12:02:06.000Z</time>
      </trkpt>
      <trkpt lat="43.92743" lon="7.49265">
        <ele>1072</ele>
        <time>2021-02-20T12:02:09.000Z</time>
      </trkpt>
      <trkpt lat="43.92744" lon="7.49271">
        <ele>1071.8000488281</ele>
        <time>2021-02-20T12:02:10.000Z</time>
      </trkpt>
      <trkpt lat="43.92743" lon="7.49291">
        <ele>1071.1999511719</ele>
        <time>2021-02-20T12:02:13.000Z</time>
      </trkpt>
      <trkpt lat="43.92742" lon="7.49309">
        <ele>1070.8000488281</ele>
        <time>2021-02-20T12:02:16.000Z</time>
      </trkpt>
      <trkpt lat="43.92742" lon="7.49314">
        <ele>1070.8000488281</ele>
        <time>2021-02-20T12:02:17.000Z</time>
      </trkpt>
      <trkpt lat="43.92741" lon="7.4932">
        <ele>1070.5999755859</ele>
        <time>2021-02-20T12:02:18.000Z</time>
      </trkpt>
      <trkpt lat="43.9274" lon="7.49337">
        <ele>1070.1999511719</ele>
        <time>2021-02-20T12:02:21.000Z</time>
      </trkpt>
      <trkpt lat="43.92738" lon="7.49354">
        <ele>1069.8000488281</ele>
        <time>2021-02-20T12:02:24.000Z</time>
      </trkpt>
      <trkpt lat="43.92735" lon="7.49366">
        <ele>1069.8000488281</ele>
        <time>2021-02-20T12:02:26.000Z</time>
      </trkpt>
      <trkpt lat="43.92732" lon="7.49382">
        <ele>1069.4000244141</ele>
        <time>2021-02-20T12:02:29.000Z</time>
      </trkpt>
      <trkpt lat="43.92729" lon="7.49395">
        <ele>1069</ele>
        <time>2021-02-20T12:02:31.000Z</time>
      </trkpt>
      <trkpt lat="43.92728" lon="7.49401">
        <ele>1068.8000488281</ele>
        <time>2021-02-20T12:02:32.000Z</time>
      </trkpt>
      <trkpt lat="43.92726" lon="7.49406">
        <ele>1068.5999755859</ele>
        <time>2021-02-20T12:02:33.000Z</time>
      </trkpt>
      <trkpt lat="43.92725" lon="7.49411">
        <ele>1068.4000244141</ele>
        <time>2021-02-20T12:02:34.000Z</time>
      </trkpt>
      <trkpt lat="43.92718" lon="7.49429">
        <ele>1068.1999511719</ele>
        <time>2021-02-20T12:02:37.000Z</time>
      </trkpt>
      <trkpt lat="43.92711" lon="7.49456">
        <ele>1067.4000244141</ele>
        <time>2021-02-20T12:02:41.000Z</time>
      </trkpt>
      <trkpt lat="43.92709" lon="7.49463">
        <ele>1067.1999511719</ele>
        <time>2021-02-20T12:02:42.000Z</time>
      </trkpt>
      <trkpt lat="43.92704" lon="7.49484">
        <ele>1066.4000244141</ele>
        <time>2021-02-20T12:02:45.000Z</time>
      </trkpt>
      <trkpt lat="43.92702" lon="7.49506">
        <ele>1066</ele>
        <time>2021-02-20T12:02:48.000Z</time>
      </trkpt>
      <trkpt lat="43.92701" lon="7.49538">
        <ele>1065</ele>
        <time>2021-02-20T12:02:52.000Z</time>
      </trkpt>
      <trkpt lat="43.927" lon="7.49547">
        <ele>1064.8000488281</ele>
        <time>2021-02-20T12:02:53.000Z</time>
      </trkpt>
      <trkpt lat="43.92699" lon="7.49555">
        <ele>1064.4000244141</ele>
        <time>2021-02-20T12:02:54.000Z</time>
      </trkpt>
      <trkpt lat="43.92698" lon="7.49565">
        <ele>1064</ele>
        <time>2021-02-20T12:02:55.000Z</time>
      </trkpt>
      <trkpt lat="43.92695" lon="7.4959">
        <ele>1062.5999755859</ele>
        <time>2021-02-20T12:02:58.000Z</time>
      </trkpt>
      <trkpt lat="43.92694" lon="7.49598">
        <ele>1062.4000244141</ele>
        <time>2021-02-20T12:02:59.000Z</time>
      </trkpt>
      <trkpt lat="43.92693" lon="7.49607">
        <ele>1062.1999511719</ele>
        <time>2021-02-20T12:03:00.000Z</time>
      </trkpt>
      <trkpt lat="43.92687" lon="7.49635">
        <ele>1061.8000488281</ele>
        <time>2021-02-20T12:03:04.000Z</time>
      </trkpt>
      <trkpt lat="43.92685" lon="7.4964">
        <ele>1061.5999755859</ele>
        <time>2021-02-20T12:03:05.000Z</time>
      </trkpt>
      <trkpt lat="43.92682" lon="7.49655">
        <ele>1061.4000244141</ele>
        <time>2021-02-20T12:03:08.000Z</time>
      </trkpt>
      <trkpt lat="43.92679" lon="7.49684">
        <ele>1060.4000244141</ele>
        <time>2021-02-20T12:03:13.000Z</time>
      </trkpt>
      <trkpt lat="43.92674" lon="7.4971">
        <ele>1059.4000244141</ele>
        <time>2021-02-20T12:03:19.000Z</time>
      </trkpt>
      <trkpt lat="43.92673" lon="7.49714">
        <ele>1059.4000244141</ele>
        <time>2021-02-20T12:03:20.000Z</time>
      </trkpt>
      <trkpt lat="43.9267" lon="7.49729">
        <ele>1059</ele>
        <time>2021-02-20T12:03:25.000Z</time>
      </trkpt>
      <trkpt lat="43.92669" lon="7.49735">
        <ele>1059.1999511719</ele>
        <time>2021-02-20T12:03:31.000Z</time>
      </trkpt>
      <trkpt lat="43.92669" lon="7.49745">
        <ele>1059.4000244141</ele>
        <time>2021-02-20T12:03:44.000Z</time>
      </trkpt>
      <trkpt lat="43.92668" lon="7.49754">
        <ele>1059.4000244141</ele>
        <time>2021-02-20T12:03:49.000Z</time>
      </trkpt>
      <trkpt lat="43.92666" lon="7.49772">
        <ele>1059.1999511719</ele>
        <time>2021-02-20T12:03:53.000Z</time>
      </trkpt>
      <trkpt lat="43.92664" lon="7.49807">
        <ele>1058.4000244141</ele>
        <time>2021-02-20T12:03:59.000Z</time>
      </trkpt>
      <trkpt lat="43.92663" lon="7.49813">
        <ele>1058.1999511719</ele>
        <time>2021-02-20T12:04:00.000Z</time>
      </trkpt>
      <trkpt lat="43.9266" lon="7.49829">
        <ele>1057.1999511719</ele>
        <time>2021-02-20T12:04:03.000Z</time>
      </trkpt>
      <trkpt lat="43.92658" lon="7.49833">
        <ele>1057.1999511719</ele>
        <time>2021-02-20T12:04:04.000Z</time>
      </trkpt>
      <trkpt lat="43.92657" lon="7.49838">
        <ele>1057</ele>
        <time>2021-02-20T12:04:05.000Z</time>
      </trkpt>
      <trkpt lat="43.92655" lon="7.49846">
        <ele>1057</ele>
        <time>2021-02-20T12:04:06.000Z</time>
      </trkpt>
      <trkpt lat="43.92654" lon="7.49859">
        <ele>1056.4000244141</ele>
        <time>2021-02-20T12:04:08.000Z</time>
      </trkpt>
      <trkpt lat="43.92654" lon="7.49865">
        <ele>1056.1999511719</ele>
        <time>2021-02-20T12:04:09.000Z</time>
      </trkpt>
      <trkpt lat="43.92654" lon="7.49877">
        <ele>1055.5999755859</ele>
        <time>2021-02-20T12:04:11.000Z</time>
      </trkpt>
      <trkpt lat="43.92653" lon="7.49892">
        <ele>1056</ele>
        <time>2021-02-20T12:04:14.000Z</time>
      </trkpt>
      <trkpt lat="43.92653" lon="7.49907">
        <ele>1057.1999511719</ele>
        <time>2021-02-20T12:04:19.000Z</time>
      </trkpt>
      <trkpt lat="43.9265" lon="7.49933">
        <ele>1057.8000488281</ele>
        <time>2021-02-20T12:04:25.000Z</time>
      </trkpt>
      <trkpt lat="43.92645" lon="7.49952">
        <ele>1057.1999511719</ele>
        <time>2021-02-20T12:04:28.000Z</time>
      </trkpt>
      <trkpt lat="43.92644" lon="7.49965">
        <ele>1056.5999755859</ele>
        <time>2021-02-20T12:04:30.000Z</time>
      </trkpt>
      <trkpt lat="43.92644" lon="7.4997">
        <ele>1056.1999511719</ele>
        <time>2021-02-20T12:04:31.000Z</time>
      </trkpt>
      <trkpt lat="43.92644" lon="7.49979">
        <ele>1055.4000244141</ele>
        <time>2021-02-20T12:04:34.000Z</time>
      </trkpt>
      <trkpt lat="43.92643" lon="7.49979">
        <ele>1055</ele>
        <time>2021-02-20T12:04:38.000Z</time>
      </trkpt>
      <trkpt lat="43.92644" lon="7.49981">
        <ele>1055.4000244141</ele>
        <time>2021-02-20T12:04:43.000Z</time>
      </trkpt>
      <trkpt lat="43.92645" lon="7.49981">
        <ele>1055.5999755859</ele>
        <time>2021-02-20T12:04:54.000Z</time>
      </trkpt>
      <trkpt lat="43.92647" lon="7.49979">
        <ele>1055.5999755859</ele>
        <time>2021-02-20T12:05:01.000Z</time>
      </trkpt>
      <trkpt lat="43.92647" lon="7.4998">
        <ele>1055.1999511719</ele>
        <time>2021-02-20T12:05:05.000Z</time>
      </trkpt>
      <trkpt lat="43.92647" lon="7.4998">
        <ele>1055.5999755859</ele>
        <time>2021-02-20T12:05:11.000Z</time>
      </trkpt>
      <trkpt lat="43.92648" lon="7.49981">
        <ele>1055.5999755859</ele>
        <time>2021-02-20T12:05:17.000Z</time>
      </trkpt>
      <trkpt lat="43.92647" lon="7.49979">
        <ele>1055.5999755859</ele>
        <time>2021-02-20T12:05:24.000Z</time>
      </trkpt>
      <trkpt lat="43.92648" lon="7.4998">
        <ele>1055.1999511719</ele>
        <time>2021-02-20T12:05:39.000Z</time>
      </trkpt>
      <trkpt lat="43.9265" lon="7.49979">
        <ele>1056</ele>
        <time>2021-02-20T12:05:49.000Z</time>
      </trkpt>
      <trkpt lat="43.9265" lon="7.49979">
        <ele>1056</ele>
        <time>2021-02-20T12:05:50.000Z</time>
      </trkpt>
      <trkpt lat="43.92652" lon="7.49985">
        <ele>1055.5999755859</ele>
        <time>2021-02-20T12:05:54.000Z</time>
      </trkpt>
      <trkpt lat="43.92652" lon="7.49988">
        <ele>1055.5999755859</ele>
        <time>2021-02-20T12:05:56.000Z</time>
      </trkpt>
      <trkpt lat="43.92652" lon="7.49991">
        <ele>1055.5999755859</ele>
        <time>2021-02-20T12:05:58.000Z</time>
      </trkpt>
      <trkpt lat="43.92652" lon="7.49991">
        <ele>1056</ele>
        <time>2021-02-20T12:06:00.000Z</time>
      </trkpt>
      <trkpt lat="43.92652" lon="7.49991">
        <ele>1056.1999511719</ele>
        <time>2021-02-20T12:06:01.000Z</time>
      </trkpt>
      <trkpt lat="43.92652" lon="7.49992">
        <ele>1057</ele>
        <time>2021-02-20T12:06:07.000Z</time>
      </trkpt>
      <trkpt lat="43.92652" lon="7.49992">
        <ele>1057.1999511719</ele>
        <time>2021-02-20T12:06:09.000Z</time>
      </trkpt>
      <trkpt lat="43.92652" lon="7.49992">
        <ele>1057.1999511719</ele>
        <time>2021-02-20T12:06:11.000Z</time>
      </trkpt>
      <trkpt lat="43.92651" lon="7.49991">
        <ele>1057.4000244141</ele>
        <time>2021-02-20T12:06:20.000Z</time>
      </trkpt>
      <trkpt lat="43.92652" lon="7.49988">
        <ele>1056.8000488281</ele>
        <time>2021-02-20T12:06:26.000Z</time>
      </trkpt>
      <trkpt lat="43.92651" lon="7.49986">
        <ele>1056.5999755859</ele>
        <time>2021-02-20T12:06:31.000Z</time>
      </trkpt>
      <trkpt lat="43.92651" lon="7.49986">
        <ele>1056</ele>
        <time>2021-02-20T12:06:33.000Z</time>
      </trkpt>
      <trkpt lat="43.92652" lon="7.49986">
        <ele>1055.8000488281</ele>
        <time>2021-02-20T12:06:37.000Z</time>
      </trkpt>
      <trkpt lat="43.92652" lon="7.49986">
        <ele>1055.5999755859</ele>
        <time>2021-02-20T12:06:44.000Z</time>
      </trkpt>
      <trkpt lat="43.92653" lon="7.49984">
        <ele>1055.5999755859</ele>
        <time>2021-02-20T12:06:53.000Z</time>
      </trkpt>
      <trkpt lat="43.92657" lon="7.49982">
        <ele>1055.5999755859</ele>
        <time>2021-02-20T12:06:59.000Z</time>
      </trkpt>
      <trkpt lat="43.92658" lon="7.49981">
        <ele>1055.5999755859</ele>
        <time>2021-02-20T12:07:05.000Z</time>
      </trkpt>
      <trkpt lat="43.92657" lon="7.49983">
        <ele>1055.4000244141</ele>
        <time>2021-02-20T12:07:10.000Z</time>
      </trkpt>
      <trkpt lat="43.92656" lon="7.49982">
        <ele>1055.5999755859</ele>
        <time>2021-02-20T12:07:12.000Z</time>
      </trkpt>
      <trkpt lat="43.92655" lon="7.49983">
        <ele>1055.4000244141</ele>
        <time>2021-02-20T12:07:14.000Z</time>
      </trkpt>
      <trkpt lat="43.92655" lon="7.49984">
        <ele>1055.5999755859</ele>
        <time>2021-02-20T12:07:17.000Z</time>
      </trkpt>
      <trkpt lat="43.92654" lon="7.49985">
        <ele>1056</ele>
        <time>2021-02-20T12:07:22.000Z</time>
      </trkpt>
      <trkpt lat="43.92655" lon="7.49984">
        <ele>1055.5999755859</ele>
        <time>2021-02-20T12:07:29.000Z</time>
      </trkpt>
      <trkpt lat="43.92656" lon="7.49984">
        <ele>1055.4000244141</ele>
        <time>2021-02-20T12:07:34.000Z</time>
      </trkpt>
      <trkpt lat="43.92654" lon="7.49981">
        <ele>1055.1999511719</ele>
        <time>2021-02-20T12:07:42.000Z</time>
      </trkpt>
      <trkpt lat="43.92655" lon="7.49974">
        <ele>1055</ele>
        <time>2021-02-20T12:07:46.000Z</time>
      </trkpt>
      <trkpt lat="43.92656" lon="7.49971">
        <ele>1055.1999511719</ele>
        <time>2021-02-20T12:07:48.000Z</time>
      </trkpt>
      <trkpt lat="43.92657" lon="7.49964">
        <ele>1055.4000244141</ele>
        <time>2021-02-20T12:07:55.000Z</time>
      </trkpt>
      <trkpt lat="43.92656" lon="7.4997">
        <ele>1055.4000244141</ele>
        <time>2021-02-20T12:08:03.000Z</time>
      </trkpt>
      <trkpt lat="43.92653" lon="7.49978">
        <ele>1055.5999755859</ele>
        <time>2021-02-20T12:08:09.000Z</time>
      </trkpt>
      <trkpt lat="43.92652" lon="7.4998">
        <ele>1055.5999755859</ele>
        <time>2021-02-20T12:08:11.000Z</time>
      </trkpt>
      <trkpt lat="43.9265" lon="7.49983">
        <ele>1055.4000244141</ele>
        <time>2021-02-20T12:08:14.000Z</time>
      </trkpt>
      <trkpt lat="43.9265" lon="7.49984">
        <ele>1055.1999511719</ele>
        <time>2021-02-20T12:08:18.000Z</time>
      </trkpt>
      <trkpt lat="43.92649" lon="7.49983">
        <ele>1055.1999511719</ele>
        <time>2021-02-20T12:08:20.000Z</time>
      </trkpt>
      <trkpt lat="43.92647" lon="7.49978">
        <ele>1055</ele>
        <time>2021-02-20T12:08:24.000Z</time>
      </trkpt>
      <trkpt lat="43.92644" lon="7.49974">
        <ele>1055.4000244141</ele>
        <time>2021-02-20T12:08:27.000Z</time>
      </trkpt>
      <trkpt lat="43.92643" lon="7.49967">
        <ele>1055.5999755859</ele>
        <time>2021-02-20T12:08:31.000Z</time>
      </trkpt>
      <trkpt lat="43.92641" lon="7.49958">
        <ele>1056</ele>
        <time>2021-02-20T12:08:37.000Z</time>
      </trkpt>
      <trkpt lat="43.92641" lon="7.49956">
        <ele>1056.1999511719</ele>
        <time>2021-02-20T12:08:38.000Z</time>
      </trkpt>
      <trkpt lat="43.92639" lon="7.49952">
        <ele>1056.5999755859</ele>
        <time>2021-02-20T12:08:44.000Z</time>
      </trkpt>
      <trkpt lat="43.9264" lon="7.4995">
        <ele>1057</ele>
        <time>2021-02-20T12:08:51.000Z</time>
      </trkpt>
      <trkpt lat="43.92641" lon="7.49949">
        <ele>1057.1999511719</ele>
        <time>2021-02-20T12:08:53.000Z</time>
      </trkpt>
      <trkpt lat="43.92642" lon="7.49948">
        <ele>1057.1999511719</ele>
        <time>2021-02-20T12:08:57.000Z</time>
      </trkpt>
      <trkpt lat="43.92638" lon="7.49953">
        <ele>1057.4000244141</ele>
        <time>2021-02-20T12:09:04.000Z</time>
      </trkpt>
      <trkpt lat="43.92634" lon="7.49956">
        <ele>1056.5999755859</ele>
        <time>2021-02-20T12:09:13.000Z</time>
      </trkpt>
      <trkpt lat="43.92634" lon="7.49955">
        <ele>1056.8000488281</ele>
        <time>2021-02-20T12:09:29.000Z</time>
      </trkpt>
      <trkpt lat="43.92634" lon="7.49955">
        <ele>1056.1999511719</ele>
        <time>2021-02-20T12:09:37.000Z</time>
      </trkpt>
      <trkpt lat="43.92634" lon="7.49955">
        <ele>1056</ele>
        <time>2021-02-20T12:09:39.000Z</time>
      </trkpt>
      <trkpt lat="43.92634" lon="7.49955">
        <ele>1056.5999755859</ele>
        <time>2021-02-20T12:09:49.000Z</time>
      </trkpt>
      <trkpt lat="43.92634" lon="7.49955">
        <ele>1057.1999511719</ele>
        <time>2021-02-20T12:09:53.000Z</time>
      </trkpt>
      <trkpt lat="43.92634" lon="7.49956">
        <ele>1057.1999511719</ele>
        <time>2021-02-20T12:09:56.000Z</time>
      </trkpt>
      <trkpt lat="43.92635" lon="7.49955">
        <ele>1057.4000244141</ele>
        <time>2021-02-20T12:10:01.000Z</time>
      </trkpt>
      <trkpt lat="43.92635" lon="7.49955">
        <ele>1057.1999511719</ele>
        <time>2021-02-20T12:10:10.000Z</time>
      </trkpt>
      <trkpt lat="43.92633" lon="7.49955">
        <ele>1057.1999511719</ele>
        <time>2021-02-20T12:10:19.000Z</time>
      </trkpt>
      <trkpt lat="43.92634" lon="7.49954">
        <ele>1056.4000244141</ele>
        <time>2021-02-20T12:10:26.000Z</time>
      </trkpt>
      <trkpt lat="43.92633" lon="7.49954">
        <ele>1056.1999511719</ele>
        <time>2021-02-20T12:10:36.000Z</time>
      </trkpt>
      <trkpt lat="43.92634" lon="7.49954">
        <ele>1056.5999755859</ele>
        <time>2021-02-20T12:10:46.000Z</time>
      </trkpt>
      <trkpt lat="43.92634" lon="7.49954">
        <ele>1056.8000488281</ele>
        <time>2021-02-20T12:10:55.000Z</time>
      </trkpt>
      <trkpt lat="43.92635" lon="7.49954">
        <ele>1056.1999511719</ele>
        <time>2021-02-20T12:11:08.000Z</time>
      </trkpt>
      <trkpt lat="43.92635" lon="7.49954">
        <ele>1056.4000244141</ele>
        <time>2021-02-20T12:11:19.000Z</time>
      </trkpt>
      <trkpt lat="43.92635" lon="7.49954">
        <ele>1056.1999511719</ele>
        <time>2021-02-20T12:11:31.000Z</time>
      </trkpt>
      <trkpt lat="43.92635" lon="7.49954">
        <ele>1056.8000488281</ele>
        <time>2021-02-20T12:11:38.000Z</time>
      </trkpt>
      <trkpt lat="43.92634" lon="7.49954">
        <ele>1056.5999755859</ele>
        <time>2021-02-20T12:11:46.000Z</time>
      </trkpt>
      <trkpt lat="43.92634" lon="7.49954">
        <ele>1056.5999755859</ele>
        <time>2021-02-20T12:11:54.000Z</time>
      </trkpt>
      <trkpt lat="43.92634" lon="7.49954">
        <ele>1056.5999755859</ele>
        <time>2021-02-20T12:12:01.000Z</time>
      </trkpt>
      <trkpt lat="43.92635" lon="7.49953">
        <ele>1056.8000488281</ele>
        <time>2021-02-20T12:12:19.000Z</time>
      </trkpt>
      <trkpt lat="43.92635" lon="7.49953">
        <ele>1056.4000244141</ele>
        <time>2021-02-20T12:12:42.000Z</time>
      </trkpt>
      <trkpt lat="43.92635" lon="7.49952">
        <ele>1056.4000244141</ele>
        <time>2021-02-20T12:13:04.000Z</time>
      </trkpt>
      <trkpt lat="43.92635" lon="7.49952">
        <ele>1056.1999511719</ele>
        <time>2021-02-20T12:13:09.000Z</time>
      </trkpt>
      <trkpt lat="43.92635" lon="7.49952">
        <ele>1056.4000244141</ele>
        <time>2021-02-20T12:13:27.000Z</time>
      </trkpt>
      <trkpt lat="43.92635" lon="7.49952">
        <ele>1056.8000488281</ele>
        <time>2021-02-20T12:13:51.000Z</time>
      </trkpt>
      <trkpt lat="43.92635" lon="7.49952">
        <ele>1057.1999511719</ele>
        <time>2021-02-20T12:14:17.000Z</time>
      </trkpt>
      <trkpt lat="43.92635" lon="7.49952">
        <ele>1057.1999511719</ele>
        <time>2021-02-20T12:14:18.000Z</time>
      </trkpt>
      <trkpt lat="43.92635" lon="7.49952">
        <ele>1057.4000244141</ele>
        <time>2021-02-20T12:14:28.000Z</time>
      </trkpt>
      <trkpt lat="43.92635" lon="7.49952">
        <ele>1057.4000244141</ele>
        <time>2021-02-20T12:14:41.000Z</time>
      </trkpt>
      <trkpt lat="43.92635" lon="7.49952">
        <ele>1057.8000488281</ele>
        <time>2021-02-20T12:14:56.000Z</time>
      </trkpt>
      <trkpt lat="43.92635" lon="7.49951">
        <ele>1058</ele>
        <time>2021-02-20T12:15:01.000Z</time>
      </trkpt>
      <trkpt lat="43.92635" lon="7.49952">
        <ele>1057.8000488281</ele>
        <time>2021-02-20T12:15:11.000Z</time>
      </trkpt>
      <trkpt lat="43.92635" lon="7.49952">
        <ele>1057.8000488281</ele>
        <time>2021-02-20T12:15:15.000Z</time>
      </trkpt>
      <trkpt lat="43.92635" lon="7.49952">
        <ele>1057.1999511719</ele>
        <time>2021-02-20T12:15:29.000Z</time>
      </trkpt>
      <trkpt lat="43.92635" lon="7.49953">
        <ele>1057.5999755859</ele>
        <time>2021-02-20T12:15:48.000Z</time>
      </trkpt>
      <trkpt lat="43.92635" lon="7.49953">
        <ele>1057.5999755859</ele>
        <time>2021-02-20T12:16:12.000Z</time>
      </trkpt>
      <trkpt lat="43.92635" lon="7.49953">
        <ele>1058.1999511719</ele>
        <time>2021-02-20T12:16:20.000Z</time>
      </trkpt>
      <trkpt lat="43.92635" lon="7.49953">
        <ele>1058</ele>
        <time>2021-02-20T12:16:32.000Z</time>
      </trkpt>
      <trkpt lat="43.92634" lon="7.49953">
        <ele>1058</ele>
        <time>2021-02-20T12:16:43.000Z</time>
      </trkpt>
      <trkpt lat="43.92635" lon="7.49953">
        <ele>1058.1999511719</ele>
        <time>2021-02-20T12:16:52.000Z</time>
      </trkpt>
      <trkpt lat="43.92635" lon="7.49953">
        <ele>1058</ele>
        <time>2021-02-20T12:16:58.000Z</time>
      </trkpt>
      <trkpt lat="43.92635" lon="7.49954">
        <ele>1058</ele>
        <time>2021-02-20T12:17:08.000Z</time>
      </trkpt>
      <trkpt lat="43.92634" lon="7.49955">
        <ele>1058</ele>
        <time>2021-02-20T12:17:26.000Z</time>
      </trkpt>
      <trkpt lat="43.92635" lon="7.49955">
        <ele>1058.1999511719</ele>
        <time>2021-02-20T12:17:35.000Z</time>
      </trkpt>
      <trkpt lat="43.92635" lon="7.49954">
        <ele>1058.5999755859</ele>
        <time>2021-02-20T12:17:41.000Z</time>
      </trkpt>
      <trkpt lat="43.92634" lon="7.49955">
        <ele>1058.4000244141</ele>
        <time>2021-02-20T12:17:55.000Z</time>
      </trkpt>
      <trkpt lat="43.92635" lon="7.49955">
        <ele>1058.4000244141</ele>
        <time>2021-02-20T12:18:08.000Z</time>
      </trkpt>
      <trkpt lat="43.92635" lon="7.49954">
        <ele>1058.1999511719</ele>
        <time>2021-02-20T12:18:28.000Z</time>
      </trkpt>
      <trkpt lat="43.92635" lon="7.49953">
        <ele>1058.4000244141</ele>
        <time>2021-02-20T12:18:47.000Z</time>
      </trkpt>
      <trkpt lat="43.92635" lon="7.49953">
        <ele>1058.5999755859</ele>
        <time>2021-02-20T12:19:01.000Z</time>
      </trkpt>
      <trkpt lat="43.92635" lon="7.49953">
        <ele>1058.5999755859</ele>
        <time>2021-02-20T12:19:18.000Z</time>
      </trkpt>
      <trkpt lat="43.92635" lon="7.49954">
        <ele>1058.4000244141</ele>
        <time>2021-02-20T12:19:25.000Z</time>
      </trkpt>
      <trkpt lat="43.92635" lon="7.49953">
        <ele>1058.1999511719</ele>
        <time>2021-02-20T12:19:43.000Z</time>
      </trkpt>
      <trkpt lat="43.92635" lon="7.49954">
        <ele>1058.1999511719</ele>
        <time>2021-02-20T12:20:06.000Z</time>
      </trkpt>
      <trkpt lat="43.92634" lon="7.49954">
        <ele>1058.4000244141</ele>
        <time>2021-02-20T12:20:18.000Z</time>
      </trkpt>
      <trkpt lat="43.92635" lon="7.49954">
        <ele>1058.4000244141</ele>
        <time>2021-02-20T12:20:35.000Z</time>
      </trkpt>
      <trkpt lat="43.92636" lon="7.49954">
        <ele>1058.1999511719</ele>
        <time>2021-02-20T12:20:55.000Z</time>
      </trkpt>
      <trkpt lat="43.92636" lon="7.49954">
        <ele>1058.1999511719</ele>
        <time>2021-02-20T12:21:11.000Z</time>
      </trkpt>
      <trkpt lat="43.92636" lon="7.49954">
        <ele>1059</ele>
        <time>2021-02-20T12:21:19.000Z</time>
      </trkpt>
      <trkpt lat="43.92636" lon="7.49954">
        <ele>1059.1999511719</ele>
        <time>2021-02-20T12:21:31.000Z</time>
      </trkpt>
      <trkpt lat="43.92636" lon="7.49954">
        <ele>1059.4000244141</ele>
        <time>2021-02-20T12:21:33.000Z</time>
      </trkpt>
      <trkpt lat="43.92636" lon="7.49954">
        <ele>1059.8000488281</ele>
        <time>2021-02-20T12:21:43.000Z</time>
      </trkpt>
      <trkpt lat="43.92636" lon="7.49954">
        <ele>1059.1999511719</ele>
        <time>2021-02-20T12:21:56.000Z</time>
      </trkpt>
      <trkpt lat="43.92636" lon="7.49953">
        <ele>1059.5999755859</ele>
        <time>2021-02-20T12:22:11.000Z</time>
      </trkpt>
      <trkpt lat="43.92636" lon="7.49953">
        <ele>1059.4000244141</ele>
        <time>2021-02-20T12:22:38.000Z</time>
      </trkpt>
      <trkpt lat="43.92636" lon="7.49953">
        <ele>1059.5999755859</ele>
        <time>2021-02-20T12:22:47.000Z</time>
      </trkpt>
      <trkpt lat="43.92636" lon="7.49953">
        <ele>1059.1999511719</ele>
        <time>2021-02-20T12:22:59.000Z</time>
      </trkpt>
      <trkpt lat="43.92635" lon="7.49953">
        <ele>1059.1999511719</ele>
        <time>2021-02-20T12:23:15.000Z</time>
      </trkpt>
      <trkpt lat="43.92636" lon="7.49953">
        <ele>1059.1999511719</ele>
        <time>2021-02-20T12:23:28.000Z</time>
      </trkpt>
      <trkpt lat="43.92636" lon="7.49953">
        <ele>1059.4000244141</ele>
        <time>2021-02-20T12:23:45.000Z</time>
      </trkpt>
      <trkpt lat="43.92636" lon="7.49953">
        <ele>1060</ele>
        <time>2021-02-20T12:23:50.000Z</time>
      </trkpt>
      <trkpt lat="43.92636" lon="7.49953">
        <ele>1059.5999755859</ele>
        <time>2021-02-20T12:23:57.000Z</time>
      </trkpt>
      <trkpt lat="43.92636" lon="7.49953">
        <ele>1059.5999755859</ele>
        <time>2021-02-20T12:24:07.000Z</time>
      </trkpt>
      <trkpt lat="43.92636" lon="7.49952">
        <ele>1060</ele>
        <time>2021-02-20T12:24:36.000Z</time>
      </trkpt>
      <trkpt lat="43.92636" lon="7.49952">
        <ele>1060</ele>
        <time>2021-02-20T12:24:48.000Z</time>
      </trkpt>
      <trkpt lat="43.92636" lon="7.49952">
        <ele>1059.8000488281</ele>
        <time>2021-02-20T12:25:16.000Z</time>
      </trkpt>
      <trkpt lat="43.92636" lon="7.49952">
        <ele>1059.8000488281</ele>
        <time>2021-02-20T12:25:25.000Z</time>
      </trkpt>
      <trkpt lat="43.92636" lon="7.49952">
        <ele>1059.5999755859</ele>
        <time>2021-02-20T12:25:44.000Z</time>
      </trkpt>
      <trkpt lat="43.92636" lon="7.49953">
        <ele>1060</ele>
        <time>2021-02-20T12:26:00.000Z</time>
      </trkpt>
      <trkpt lat="43.92635" lon="7.49953">
        <ele>1059.5999755859</ele>
        <time>2021-02-20T12:26:18.000Z</time>
      </trkpt>
      <trkpt lat="43.92635" lon="7.49954">
        <ele>1059.4000244141</ele>
        <time>2021-02-20T12:26:31.000Z</time>
      </trkpt>
      <trkpt lat="43.92635" lon="7.49954">
        <ele>1059</ele>
        <time>2021-02-20T12:26:44.000Z</time>
      </trkpt>
      <trkpt lat="43.92635" lon="7.49954">
        <ele>1059.1999511719</ele>
        <time>2021-02-20T12:26:57.000Z</time>
      </trkpt>
      <trkpt lat="43.92634" lon="7.49954">
        <ele>1059.1999511719</ele>
        <time>2021-02-20T12:27:15.000Z</time>
      </trkpt>
      <trkpt lat="43.92634" lon="7.49954">
        <ele>1059.1999511719</ele>
        <time>2021-02-20T12:27:26.000Z</time>
      </trkpt>
      <trkpt lat="43.92634" lon="7.49954">
        <ele>1059</ele>
        <time>2021-02-20T12:27:38.000Z</time>
      </trkpt>
      <trkpt lat="43.92635" lon="7.49953">
        <ele>1059.5999755859</ele>
        <time>2021-02-20T12:27:55.000Z</time>
      </trkpt>
      <trkpt lat="43.92635" lon="7.49953">
        <ele>1059.5999755859</ele>
        <time>2021-02-20T12:28:14.000Z</time>
      </trkpt>
      <trkpt lat="43.92636" lon="7.49952">
        <ele>1059.1999511719</ele>
        <time>2021-02-20T12:28:26.000Z</time>
      </trkpt>
      <trkpt lat="43.92635" lon="7.49953">
        <ele>1059.5999755859</ele>
        <time>2021-02-20T12:28:35.000Z</time>
      </trkpt>
      <trkpt lat="43.92635" lon="7.49953">
        <ele>1059.4000244141</ele>
        <time>2021-02-20T12:28:44.000Z</time>
      </trkpt>
      <trkpt lat="43.92635" lon="7.49953">
        <ele>1059.5999755859</ele>
        <time>2021-02-20T12:28:55.000Z</time>
      </trkpt>
      <trkpt lat="43.92635" lon="7.49953">
        <ele>1059.8000488281</ele>
        <time>2021-02-20T12:29:04.000Z</time>
      </trkpt>
      <trkpt lat="43.92636" lon="7.49952">
        <ele>1060</ele>
        <time>2021-02-20T12:29:28.000Z</time>
      </trkpt>
      <trkpt lat="43.92636" lon="7.49952">
        <ele>1059.5999755859</ele>
        <time>2021-02-20T12:29:38.000Z</time>
      </trkpt>
      <trkpt lat="43.92636" lon="7.49952">
        <ele>1060.1999511719</ele>
        <time>2021-02-20T12:29:53.000Z</time>
      </trkpt>
      <trkpt lat="43.92636" lon="7.49951">
        <ele>1060.4000244141</ele>
        <time>2021-02-20T12:29:55.000Z</time>
      </trkpt>
      <trkpt lat="43.92637" lon="7.49951">
        <ele>1060.1999511719</ele>
        <time>2021-02-20T12:30:21.000Z</time>
      </trkpt>
      <trkpt lat="43.92637" lon="7.49951">
        <ele>1060.1999511719</ele>
        <time>2021-02-20T12:30:42.000Z</time>
      </trkpt>
      <trkpt lat="43.92637" lon="7.49951">
        <ele>1060</ele>
        <time>2021-02-20T12:31:15.000Z</time>
      </trkpt>
      <trkpt lat="43.92637" lon="7.49951">
        <ele>1060</ele>
        <time>2021-02-20T12:31:26.000Z</time>
      </trkpt>
      <trkpt lat="43.92637" lon="7.49952">
        <ele>1060</ele>
        <time>2021-02-20T12:31:55.000Z</time>
      </trkpt>
      <trkpt lat="43.92637" lon="7.49952">
        <ele>1060.1999511719</ele>
        <time>2021-02-20T12:32:25.000Z</time>
      </trkpt>
      <trkpt lat="43.92637" lon="7.49952">
        <ele>1059.8000488281</ele>
        <time>2021-02-20T12:32:40.000Z</time>
      </trkpt>
      <trkpt lat="43.92637" lon="7.49952">
        <ele>1060.4000244141</ele>
        <time>2021-02-20T12:32:50.000Z</time>
      </trkpt>
      <trkpt lat="43.92636" lon="7.49953">
        <ele>1060.4000244141</ele>
        <time>2021-02-20T12:33:00.000Z</time>
      </trkpt>
      <trkpt lat="43.92637" lon="7.49953">
        <ele>1060.1999511719</ele>
        <time>2021-02-20T12:33:09.000Z</time>
      </trkpt>
      <trkpt lat="43.92637" lon="7.49953">
        <ele>1060.1999511719</ele>
        <time>2021-02-20T12:33:29.000Z</time>
      </trkpt>
      <trkpt lat="43.92637" lon="7.49952">
        <ele>1060.4000244141</ele>
        <time>2021-02-20T12:33:35.000Z</time>
      </trkpt>
      <trkpt lat="43.92641" lon="7.4995">
        <ele>1060.8000488281</ele>
        <time>2021-02-20T12:33:42.000Z</time>
      </trkpt>
      <trkpt lat="43.92643" lon="7.49944">
        <ele>1060.8000488281</ele>
        <time>2021-02-20T12:33:48.000Z</time>
      </trkpt>
      <trkpt lat="43.92643" lon="7.4994">
        <ele>1061.1999511719</ele>
        <time>2021-02-20T12:33:55.000Z</time>
      </trkpt>
      <trkpt lat="43.92643" lon="7.4994">
        <ele>1061.4000244141</ele>
        <time>2021-02-20T12:33:56.000Z</time>
      </trkpt>
      <trkpt lat="43.92643" lon="7.49939">
        <ele>1061.5999755859</ele>
        <time>2021-02-20T12:34:05.000Z</time>
      </trkpt>
      <trkpt lat="43.92643" lon="7.49938">
        <ele>1061.8000488281</ele>
        <time>2021-02-20T12:34:16.000Z</time>
      </trkpt>
      <trkpt lat="43.92643" lon="7.49939">
        <ele>1061.8000488281</ele>
        <time>2021-02-20T12:34:19.000Z</time>
      </trkpt>
      <trkpt lat="43.92642" lon="7.49944">
        <ele>1061.8000488281</ele>
        <time>2021-02-20T12:34:24.000Z</time>
      </trkpt>
      <trkpt lat="43.92639" lon="7.4995">
        <ele>1061.8000488281</ele>
        <time>2021-02-20T12:34:30.000Z</time>
      </trkpt>
      <trkpt lat="43.92637" lon="7.49953">
        <ele>1061.1999511719</ele>
        <time>2021-02-20T12:34:36.000Z</time>
      </trkpt>
      <trkpt lat="43.92636" lon="7.49953">
        <ele>1061.1999511719</ele>
        <time>2021-02-20T12:34:42.000Z</time>
      </trkpt>
      <trkpt lat="43.92637" lon="7.49952">
        <ele>1061.8000488281</ele>
        <time>2021-02-20T12:34:54.000Z</time>
      </trkpt>
      <trkpt lat="43.92637" lon="7.49953">
        <ele>1061.1999511719</ele>
        <time>2021-02-20T12:35:01.000Z</time>
      </trkpt>
      <trkpt lat="43.92636" lon="7.49953">
        <ele>1061.1999511719</ele>
        <time>2021-02-20T12:35:10.000Z</time>
      </trkpt>
      <trkpt lat="43.92636" lon="7.49953">
        <ele>1061.4000244141</ele>
        <time>2021-02-20T12:35:19.000Z</time>
      </trkpt>
      <trkpt lat="43.92636" lon="7.49952">
        <ele>1061.5999755859</ele>
        <time>2021-02-20T12:35:29.000Z</time>
      </trkpt>
      <trkpt lat="43.92637" lon="7.49952">
        <ele>1061.8000488281</ele>
        <time>2021-02-20T12:35:36.000Z</time>
      </trkpt>
      <trkpt lat="43.92637" lon="7.49951">
        <ele>1061.4000244141</ele>
        <time>2021-02-20T12:35:46.000Z</time>
      </trkpt>
      <trkpt lat="43.92636" lon="7.4995">
        <ele>1060.8000488281</ele>
        <time>2021-02-20T12:35:57.000Z</time>
      </trkpt>
      <trkpt lat="43.92637" lon="7.4995">
        <ele>1061</ele>
        <time>2021-02-20T12:36:07.000Z</time>
      </trkpt>
      <trkpt lat="43.92637" lon="7.4995">
        <ele>1062</ele>
        <time>2021-02-20T12:36:14.000Z</time>
      </trkpt>
      <trkpt lat="43.92637" lon="7.4995">
        <ele>1062.4000244141</ele>
        <time>2021-02-20T12:36:23.000Z</time>
      </trkpt>
      <trkpt lat="43.92637" lon="7.4995">
        <ele>1062.5999755859</ele>
        <time>2021-02-20T12:36:24.000Z</time>
      </trkpt>
      <trkpt lat="43.92637" lon="7.4995">
        <ele>1062.4000244141</ele>
        <time>2021-02-20T12:36:36.000Z</time>
      </trkpt>
      <trkpt lat="43.92637" lon="7.49951">
        <ele>1062.1999511719</ele>
        <time>2021-02-20T12:36:44.000Z</time>
      </trkpt>
      <trkpt lat="43.92636" lon="7.49951">
        <ele>1062.4000244141</ele>
        <time>2021-02-20T12:37:01.000Z</time>
      </trkpt>
      <trkpt lat="43.92637" lon="7.4995">
        <ele>1062.1999511719</ele>
        <time>2021-02-20T12:37:10.000Z</time>
      </trkpt>
      <trkpt lat="43.92638" lon="7.49951">
        <ele>1061.8000488281</ele>
        <time>2021-02-20T12:37:25.000Z</time>
      </trkpt>
      <trkpt lat="43.92638" lon="7.49951">
        <ele>1062.1999511719</ele>
        <time>2021-02-20T12:37:39.000Z</time>
      </trkpt>
      <trkpt lat="43.92638" lon="7.49951">
        <ele>1062</ele>
        <time>2021-02-20T12:37:49.000Z</time>
      </trkpt>
      <trkpt lat="43.92638" lon="7.49951">
        <ele>1062.4000244141</ele>
        <time>2021-02-20T12:38:00.000Z</time>
      </trkpt>
      <trkpt lat="43.92637" lon="7.49952">
        <ele>1062.4000244141</ele>
        <time>2021-02-20T12:38:13.000Z</time>
      </trkpt>
      <trkpt lat="43.92636" lon="7.49952">
        <ele>1062.5999755859</ele>
        <time>2021-02-20T12:38:28.000Z</time>
      </trkpt>
      <trkpt lat="43.92636" lon="7.49952">
        <ele>1063</ele>
        <time>2021-02-20T12:38:43.000Z</time>
      </trkpt>
      <trkpt lat="43.92636" lon="7.49953">
        <ele>1063</ele>
        <time>2021-02-20T12:38:55.000Z</time>
      </trkpt>
      <trkpt lat="43.92636" lon="7.49953">
        <ele>1063</ele>
        <time>2021-02-20T12:39:08.000Z</time>
      </trkpt>
      <trkpt lat="43.92637" lon="7.49953">
        <ele>1062.1999511719</ele>
        <time>2021-02-20T12:39:17.000Z</time>
      </trkpt>
      <trkpt lat="43.92638" lon="7.49952">
        <ele>1061.8000488281</ele>
        <time>2021-02-20T12:39:32.000Z</time>
      </trkpt>
      <trkpt lat="43.92638" lon="7.49952">
        <ele>1061.4000244141</ele>
        <time>2021-02-20T12:39:36.000Z</time>
      </trkpt>
      <trkpt lat="43.92638" lon="7.49952">
        <ele>1061.5999755859</ele>
        <time>2021-02-20T12:39:41.000Z</time>
      </trkpt>
      <trkpt lat="43.92638" lon="7.49951">
        <ele>1062.5999755859</ele>
        <time>2021-02-20T12:39:45.000Z</time>
      </trkpt>
      <trkpt lat="43.92638" lon="7.49952">
        <ele>1062.1999511719</ele>
        <time>2021-02-20T12:39:51.000Z</time>
      </trkpt>
      <trkpt lat="43.92638" lon="7.49952">
        <ele>1062.4000244141</ele>
        <time>2021-02-20T12:40:00.000Z</time>
      </trkpt>
      <trkpt lat="43.92639" lon="7.49952">
        <ele>1062.4000244141</ele>
        <time>2021-02-20T12:40:06.000Z</time>
      </trkpt>
      <trkpt lat="43.92639" lon="7.49953">
        <ele>1062.5999755859</ele>
        <time>2021-02-20T12:40:14.000Z</time>
      </trkpt>
      <trkpt lat="43.92639" lon="7.49953">
        <ele>1062.5999755859</ele>
        <time>2021-02-20T12:40:21.000Z</time>
      </trkpt>
      <trkpt lat="43.92639" lon="7.49953">
        <ele>1062.5999755859</ele>
        <time>2021-02-20T12:40:30.000Z</time>
      </trkpt>
      <trkpt lat="43.92639" lon="7.49953">
        <ele>1062.8000488281</ele>
        <time>2021-02-20T12:40:40.000Z</time>
      </trkpt>
      <trkpt lat="43.92639" lon="7.49955">
        <ele>1062.8000488281</ele>
        <time>2021-02-20T12:40:48.000Z</time>
      </trkpt>
      <trkpt lat="43.92639" lon="7.49956">
        <ele>1062.5999755859</ele>
        <time>2021-02-20T12:40:55.000Z</time>
      </trkpt>
      <trkpt lat="43.9264" lon="7.49956">
        <ele>1062.8000488281</ele>
        <time>2021-02-20T12:41:05.000Z</time>
      </trkpt>
      <trkpt lat="43.92641" lon="7.4995">
        <ele>1062</ele>
        <time>2021-02-20T12:41:10.000Z</time>
      </trkpt>
      <trkpt lat="43.92644" lon="7.49946">
        <ele>1062.1999511719</ele>
        <time>2021-02-20T12:41:15.000Z</time>
      </trkpt>
      <trkpt lat="43.92644" lon="7.49942">
        <ele>1062</ele>
        <time>2021-02-20T12:41:19.000Z</time>
      </trkpt>
      <trkpt lat="43.92644" lon="7.49939">
        <ele>1061.8000488281</ele>
        <time>2021-02-20T12:41:21.000Z</time>
      </trkpt>
      <trkpt lat="43.92644" lon="7.49937">
        <ele>1061.8000488281</ele>
        <time>2021-02-20T12:41:23.000Z</time>
      </trkpt>
      <trkpt lat="43.92642" lon="7.49931">
        <ele>1062.1999511719</ele>
        <time>2021-02-20T12:41:27.000Z</time>
      </trkpt>
      <trkpt lat="43.9264" lon="7.49928">
        <ele>1062.1999511719</ele>
        <time>2021-02-20T12:41:31.000Z</time>
      </trkpt>
      <trkpt lat="43.92639" lon="7.49924">
        <ele>1062.1999511719</ele>
        <time>2021-02-20T12:41:33.000Z</time>
      </trkpt>
      <trkpt lat="43.9264" lon="7.49918">
        <ele>1062.4000244141</ele>
        <time>2021-02-20T12:41:37.000Z</time>
      </trkpt>
      <trkpt lat="43.9264" lon="7.49916">
        <ele>1062.4000244141</ele>
        <time>2021-02-20T12:41:39.000Z</time>
      </trkpt>
      <trkpt lat="43.92641" lon="7.49908">
        <ele>1063.4000244141</ele>
        <time>2021-02-20T12:41:45.000Z</time>
      </trkpt>
      <trkpt lat="43.92641" lon="7.49906">
        <ele>1063.5999755859</ele>
        <time>2021-02-20T12:41:46.000Z</time>
      </trkpt>
      <trkpt lat="43.9264" lon="7.499">
        <ele>1063.8000488281</ele>
        <time>2021-02-20T12:41:51.000Z</time>
      </trkpt>
      <trkpt lat="43.9264" lon="7.49895">
        <ele>1064.1999511719</ele>
        <time>2021-02-20T12:41:56.000Z</time>
      </trkpt>
      <trkpt lat="43.9264" lon="7.49895">
        <ele>1064.4000244141</ele>
        <time>2021-02-20T12:41:57.000Z</time>
      </trkpt>
      <trkpt lat="43.92641" lon="7.49894">
        <ele>1064.8000488281</ele>
        <time>2021-02-20T12:42:00.000Z</time>
      </trkpt>
      <trkpt lat="43.9264" lon="7.49894">
        <ele>1065.1999511719</ele>
        <time>2021-02-20T12:42:05.000Z</time>
      </trkpt>
      <trkpt lat="43.92639" lon="7.49893">
        <ele>1065.1999511719</ele>
        <time>2021-02-20T12:42:20.000Z</time>
      </trkpt>
      <trkpt lat="43.92637" lon="7.49892">
        <ele>1065.4000244141</ele>
        <time>2021-02-20T12:42:37.000Z</time>
      </trkpt>
      <trkpt lat="43.92637" lon="7.49892">
        <ele>1065.1999511719</ele>
        <time>2021-02-20T12:42:43.000Z</time>
      </trkpt>
      <trkpt lat="43.92638" lon="7.49891">
        <ele>1065</ele>
        <time>2021-02-20T12:42:54.000Z</time>
      </trkpt>
      <trkpt lat="43.92638" lon="7.49891">
        <ele>1065</ele>
        <time>2021-02-20T12:43:03.000Z</time>
      </trkpt>
      <trkpt lat="43.92638" lon="7.49891">
        <ele>1064.5999755859</ele>
        <time>2021-02-20T12:43:21.000Z</time>
      </trkpt>
      <trkpt lat="43.92637" lon="7.49893">
        <ele>1064.5999755859</ele>
        <time>2021-02-20T12:43:30.000Z</time>
      </trkpt>
      <trkpt lat="43.92637" lon="7.49895">
        <ele>1064.8000488281</ele>
        <time>2021-02-20T12:43:31.000Z</time>
      </trkpt>
      <trkpt lat="43.92637" lon="7.49898">
        <ele>1065</ele>
        <time>2021-02-20T12:43:34.000Z</time>
      </trkpt>
      <trkpt lat="43.92639" lon="7.49903">
        <ele>1064.5999755859</ele>
        <time>2021-02-20T12:43:37.000Z</time>
      </trkpt>
      <trkpt lat="43.92639" lon="7.49906">
        <ele>1064</ele>
        <time>2021-02-20T12:43:39.000Z</time>
      </trkpt>
      <trkpt lat="43.92638" lon="7.49907">
        <ele>1063.8000488281</ele>
        <time>2021-02-20T12:43:40.000Z</time>
      </trkpt>
      <trkpt lat="43.92638" lon="7.4991">
        <ele>1063.5999755859</ele>
        <time>2021-02-20T12:43:43.000Z</time>
      </trkpt>
      <trkpt lat="43.92638" lon="7.49919">
        <ele>1063.4000244141</ele>
        <time>2021-02-20T12:43:50.000Z</time>
      </trkpt>
      <trkpt lat="43.92638" lon="7.49924">
        <ele>1062.5999755859</ele>
        <time>2021-02-20T12:43:53.000Z</time>
      </trkpt>
      <trkpt lat="43.92639" lon="7.49928">
        <ele>1062.1999511719</ele>
        <time>2021-02-20T12:43:56.000Z</time>
      </trkpt>
      <trkpt lat="43.92641" lon="7.49934">
        <ele>1062</ele>
        <time>2021-02-20T12:44:01.000Z</time>
      </trkpt>
      <trkpt lat="43.92642" lon="7.49935">
        <ele>1061.8000488281</ele>
        <time>2021-02-20T12:44:02.000Z</time>
      </trkpt>
      <trkpt lat="43.92642" lon="7.49939">
        <ele>1061.8000488281</ele>
        <time>2021-02-20T12:44:05.000Z</time>
      </trkpt>
      <trkpt lat="43.92642" lon="7.49942">
        <ele>1062</ele>
        <time>2021-02-20T12:44:07.000Z</time>
      </trkpt>
      <trkpt lat="43.92643" lon="7.49954">
        <ele>1061.8000488281</ele>
        <time>2021-02-20T12:44:15.000Z</time>
      </trkpt>
      <trkpt lat="43.92643" lon="7.49957">
        <ele>1061.5999755859</ele>
        <time>2021-02-20T12:44:17.000Z</time>
      </trkpt>
      <trkpt lat="43.92643" lon="7.49965">
        <ele>1061.1999511719</ele>
        <time>2021-02-20T12:44:23.000Z</time>
      </trkpt>
      <trkpt lat="43.92644" lon="7.49968">
        <ele>1061.1999511719</ele>
        <time>2021-02-20T12:44:32.000Z</time>
      </trkpt>
      <trkpt lat="43.92646" lon="7.49978">
        <ele>1061.1999511719</ele>
        <time>2021-02-20T12:44:38.000Z</time>
      </trkpt>
      <trkpt lat="43.92647" lon="7.49979">
        <ele>1061.1999511719</ele>
        <time>2021-02-20T12:44:39.000Z</time>
      </trkpt>
      <trkpt lat="43.92647" lon="7.49983">
        <ele>1061.1999511719</ele>
        <time>2021-02-20T12:44:45.000Z</time>
      </trkpt>
      <trkpt lat="43.92648" lon="7.49981">
        <ele>1061.1999511719</ele>
        <time>2021-02-20T12:44:51.000Z</time>
      </trkpt>
      <trkpt lat="43.92646" lon="7.49979">
        <ele>1061.1999511719</ele>
        <time>2021-02-20T12:44:56.000Z</time>
      </trkpt>
      <trkpt lat="43.92644" lon="7.49968">
        <ele>1061.8000488281</ele>
        <time>2021-02-20T12:45:05.000Z</time>
      </trkpt>
      <trkpt lat="43.92644" lon="7.49967">
        <ele>1061.5999755859</ele>
        <time>2021-02-20T12:45:11.000Z</time>
      </trkpt>
      <trkpt lat="43.92643" lon="7.49966">
        <ele>1062</ele>
        <time>2021-02-20T12:45:22.000Z</time>
      </trkpt>
      <trkpt lat="43.92643" lon="7.49967">
        <ele>1061.5999755859</ele>
        <time>2021-02-20T12:45:32.000Z</time>
      </trkpt>
      <trkpt lat="43.92643" lon="7.49967">
        <ele>1061.8000488281</ele>
        <time>2021-02-20T12:45:42.000Z</time>
      </trkpt>
      <trkpt lat="43.92644" lon="7.49967">
        <ele>1061.5999755859</ele>
        <time>2021-02-20T12:45:49.000Z</time>
      </trkpt>
      <trkpt lat="43.92643" lon="7.49967">
        <ele>1061.4000244141</ele>
        <time>2021-02-20T12:45:56.000Z</time>
      </trkpt>
      <trkpt lat="43.92643" lon="7.49967">
        <ele>1061.8000488281</ele>
        <time>2021-02-20T12:46:03.000Z</time>
      </trkpt>
      <trkpt lat="43.92643" lon="7.49967">
        <ele>1062</ele>
        <time>2021-02-20T12:46:11.000Z</time>
      </trkpt>
      <trkpt lat="43.92643" lon="7.49967">
        <ele>1061.8000488281</ele>
        <time>2021-02-20T12:46:19.000Z</time>
      </trkpt>
      <trkpt lat="43.92643" lon="7.49967">
        <ele>1061.4000244141</ele>
        <time>2021-02-20T12:46:26.000Z</time>
      </trkpt>
      <trkpt lat="43.92643" lon="7.49966">
        <ele>1062</ele>
        <time>2021-02-20T12:46:38.000Z</time>
      </trkpt>
      <trkpt lat="43.92642" lon="7.49966">
        <ele>1061.8000488281</ele>
        <time>2021-02-20T12:46:56.000Z</time>
      </trkpt>
      <trkpt lat="43.92642" lon="7.49966">
        <ele>1061.8000488281</ele>
        <time>2021-02-20T12:47:11.000Z</time>
      </trkpt>
      <trkpt lat="43.92643" lon="7.49966">
        <ele>1062</ele>
        <time>2021-02-20T12:47:32.000Z</time>
      </trkpt>
      <trkpt lat="43.92643" lon="7.49966">
        <ele>1062</ele>
        <time>2021-02-20T12:47:51.000Z</time>
      </trkpt>
      <trkpt lat="43.92643" lon="7.49965">
        <ele>1061.8000488281</ele>
        <time>2021-02-20T12:47:58.000Z</time>
      </trkpt>
      <trkpt lat="43.92643" lon="7.49963">
        <ele>1061.8000488281</ele>
        <time>2021-02-20T12:48:00.000Z</time>
      </trkpt>
      <trkpt lat="43.92643" lon="7.49957">
        <ele>1061.8000488281</ele>
        <time>2021-02-20T12:48:04.000Z</time>
      </trkpt>
      <trkpt lat="43.92643" lon="7.49944">
        <ele>1062.1999511719</ele>
        <time>2021-02-20T12:48:11.000Z</time>
      </trkpt>
      <trkpt lat="43.92643" lon="7.49938">
        <ele>1062.4000244141</ele>
        <time>2021-02-20T12:48:14.000Z</time>
      </trkpt>
      <trkpt lat="43.92642" lon="7.49935">
        <ele>1062.4000244141</ele>
        <time>2021-02-20T12:48:16.000Z</time>
      </trkpt>
      <trkpt lat="43.9264" lon="7.49928">
        <ele>1062.4000244141</ele>
        <time>2021-02-20T12:48:19.000Z</time>
      </trkpt>
      <trkpt lat="43.9264" lon="7.49922">
        <ele>1062.4000244141</ele>
        <time>2021-02-20T12:48:21.000Z</time>
      </trkpt>
      <trkpt lat="43.92641" lon="7.49908">
        <ele>1062.8000488281</ele>
        <time>2021-02-20T12:48:25.000Z</time>
      </trkpt>
      <trkpt lat="43.92643" lon="7.49902">
        <ele>1063.4000244141</ele>
        <time>2021-02-20T12:48:27.000Z</time>
      </trkpt>
      <trkpt lat="43.92644" lon="7.49899">
        <ele>1064</ele>
        <time>2021-02-20T12:48:29.000Z</time>
      </trkpt>
      <trkpt lat="43.92644" lon="7.49899">
        <ele>1064.4000244141</ele>
        <time>2021-02-20T12:48:31.000Z</time>
      </trkpt>
      <trkpt lat="43.92644" lon="7.49899">
        <ele>1065</ele>
        <time>2021-02-20T12:48:33.000Z</time>
      </trkpt>
      <trkpt lat="43.92645" lon="7.49895">
        <ele>1065.1999511719</ele>
        <time>2021-02-20T12:48:37.000Z</time>
      </trkpt>
      <trkpt lat="43.92646" lon="7.49881">
        <ele>1064.8000488281</ele>
        <time>2021-02-20T12:48:42.000Z</time>
      </trkpt>
      <trkpt lat="43.92646" lon="7.49876">
        <ele>1064.1999511719</ele>
        <time>2021-02-20T12:48:46.000Z</time>
      </trkpt>
      <trkpt lat="43.92647" lon="7.49871">
        <ele>1064.1999511719</ele>
        <time>2021-02-20T12:48:52.000Z</time>
      </trkpt>
      <trkpt lat="43.92647" lon="7.4987">
        <ele>1064.1999511719</ele>
        <time>2021-02-20T12:48:53.000Z</time>
      </trkpt>
      <trkpt lat="43.92646" lon="7.49866">
        <ele>1064</ele>
        <time>2021-02-20T12:48:55.000Z</time>
      </trkpt>
      <trkpt lat="43.92645" lon="7.49865">
        <ele>1063</ele>
        <time>2021-02-20T12:48:58.000Z</time>
      </trkpt>
      <trkpt lat="43.92645" lon="7.49864">
        <ele>1062.8000488281</ele>
        <time>2021-02-20T12:48:59.000Z</time>
      </trkpt>
      <trkpt lat="43.92645" lon="7.49863">
        <ele>1062.5999755859</ele>
        <time>2021-02-20T12:49:05.000Z</time>
      </trkpt>
      <trkpt lat="43.92645" lon="7.49863">
        <ele>1062.5999755859</ele>
        <time>2021-02-20T12:49:09.000Z</time>
      </trkpt>
      <trkpt lat="43.92643" lon="7.49862">
        <ele>1062.8000488281</ele>
        <time>2021-02-20T12:49:18.000Z</time>
      </trkpt>
      <trkpt lat="43.92642" lon="7.4986">
        <ele>1063</ele>
        <time>2021-02-20T12:49:24.000Z</time>
      </trkpt>
      <trkpt lat="43.9264" lon="7.49858">
        <ele>1062.8000488281</ele>
        <time>2021-02-20T12:49:26.000Z</time>
      </trkpt>
      <trkpt lat="43.92633" lon="7.49847">
        <ele>1061.5999755859</ele>
        <time>2021-02-20T12:49:30.000Z</time>
      </trkpt>
      <trkpt lat="43.92629" lon="7.49843">
        <ele>1059.8000488281</ele>
        <time>2021-02-20T12:49:32.000Z</time>
      </trkpt>
      <trkpt lat="43.92627" lon="7.49844">
        <ele>1058.5999755859</ele>
        <time>2021-02-20T12:49:33.000Z</time>
      </trkpt>
      <trkpt lat="43.92626" lon="7.49847">
        <ele>1057.8000488281</ele>
        <time>2021-02-20T12:49:34.000Z</time>
      </trkpt>
      <trkpt lat="43.92625" lon="7.49852">
        <ele>1057</ele>
        <time>2021-02-20T12:49:35.000Z</time>
      </trkpt>
      <trkpt lat="43.92625" lon="7.49863">
        <ele>1055.8000488281</ele>
        <time>2021-02-20T12:49:37.000Z</time>
      </trkpt>
      <trkpt lat="43.92625" lon="7.49869">
        <ele>1055.4000244141</ele>
        <time>2021-02-20T12:49:38.000Z</time>
      </trkpt>
      <trkpt lat="43.92626" lon="7.49874">
        <ele>1054.8000488281</ele>
        <time>2021-02-20T12:49:39.000Z</time>
      </trkpt>
      <trkpt lat="43.92625" lon="7.49878">
        <ele>1053.5999755859</ele>
        <time>2021-02-20T12:49:40.000Z</time>
      </trkpt>
      <trkpt lat="43.92622" lon="7.49886">
        <ele>1052.5999755859</ele>
        <time>2021-02-20T12:49:42.000Z</time>
      </trkpt>
      <trkpt lat="43.92619" lon="7.49891">
        <ele>1051</ele>
        <time>2021-02-20T12:49:44.000Z</time>
      </trkpt>
      <trkpt lat="43.92615" lon="7.49894">
        <ele>1049.8000488281</ele>
        <time>2021-02-20T12:49:46.000Z</time>
      </trkpt>
      <trkpt lat="43.92615" lon="7.49895">
        <ele>1048.8000488281</ele>
        <time>2021-02-20T12:49:47.000Z</time>
      </trkpt>
      <trkpt lat="43.92615" lon="7.49896">
        <ele>1048.4000244141</ele>
        <time>2021-02-20T12:49:48.000Z</time>
      </trkpt>
      <trkpt lat="43.92614" lon="7.49899">
        <ele>1047.1999511719</ele>
        <time>2021-02-20T12:49:50.000Z</time>
      </trkpt>
      <trkpt lat="43.92611" lon="7.49909">
        <ele>1046.1999511719</ele>
        <time>2021-02-20T12:49:54.000Z</time>
      </trkpt>
      <trkpt lat="43.92608" lon="7.49916">
        <ele>1045.5999755859</ele>
        <time>2021-02-20T12:49:56.000Z</time>
      </trkpt>
      <trkpt lat="43.92607" lon="7.49919">
        <ele>1045.1999511719</ele>
        <time>2021-02-20T12:49:57.000Z</time>
      </trkpt>
      <trkpt lat="43.92603" lon="7.49931">
        <ele>1043.8000488281</ele>
        <time>2021-02-20T12:50:00.000Z</time>
      </trkpt>
      <trkpt lat="43.92601" lon="7.49938">
        <ele>1042</ele>
        <time>2021-02-20T12:50:02.000Z</time>
      </trkpt>
      <trkpt lat="43.92602" lon="7.49943">
        <ele>1040.4000244141</ele>
        <time>2021-02-20T12:50:04.000Z</time>
      </trkpt>
      <trkpt lat="43.92602" lon="7.49946">
        <ele>1039.4000244141</ele>
        <time>2021-02-20T12:50:06.000Z</time>
      </trkpt>
      <trkpt lat="43.92602" lon="7.4995">
        <ele>1039</ele>
        <time>2021-02-20T12:50:08.000Z</time>
      </trkpt>
      <trkpt lat="43.92602" lon="7.49954">
        <ele>1039</ele>
        <time>2021-02-20T12:50:09.000Z</time>
      </trkpt>
      <trkpt lat="43.92602" lon="7.49964">
        <ele>1038.4000244141</ele>
        <time>2021-02-20T12:50:11.000Z</time>
      </trkpt>
      <trkpt lat="43.92602" lon="7.4997">
        <ele>1038</ele>
        <time>2021-02-20T12:50:12.000Z</time>
      </trkpt>
      <trkpt lat="43.926" lon="7.49975">
        <ele>1037.1999511719</ele>
        <time>2021-02-20T12:50:13.000Z</time>
      </trkpt>
      <trkpt lat="43.92599" lon="7.49985">
        <ele>1036</ele>
        <time>2021-02-20T12:50:15.000Z</time>
      </trkpt>
      <trkpt lat="43.92598" lon="7.49994">
        <ele>1035.1999511719</ele>
        <time>2021-02-20T12:50:17.000Z</time>
      </trkpt>
      <trkpt lat="43.92595" lon="7.50004">
        <ele>1034.5999755859</ele>
        <time>2021-02-20T12:50:19.000Z</time>
      </trkpt>
      <trkpt lat="43.92593" lon="7.50013">
        <ele>1033.5999755859</ele>
        <time>2021-02-20T12:50:21.000Z</time>
      </trkpt>
      <trkpt lat="43.92593" lon="7.50017">
        <ele>1032.4000244141</ele>
        <time>2021-02-20T12:50:22.000Z</time>
      </trkpt>
      <trkpt lat="43.92592" lon="7.50024">
        <ele>1031</ele>
        <time>2021-02-20T12:50:24.000Z</time>
      </trkpt>
      <trkpt lat="43.92592" lon="7.50032">
        <ele>1030</ele>
        <time>2021-02-20T12:50:26.000Z</time>
      </trkpt>
      <trkpt lat="43.9259" lon="7.50037">
        <ele>1029</ele>
        <time>2021-02-20T12:50:27.000Z</time>
      </trkpt>
      <trkpt lat="43.92587" lon="7.50045">
        <ele>1027.4000244141</ele>
        <time>2021-02-20T12:50:29.000Z</time>
      </trkpt>
      <trkpt lat="43.92586" lon="7.5005">
        <ele>1026</ele>
        <time>2021-02-20T12:50:30.000Z</time>
      </trkpt>
      <trkpt lat="43.92584" lon="7.50055">
        <ele>1024.8000488281</ele>
        <time>2021-02-20T12:50:31.000Z</time>
      </trkpt>
      <trkpt lat="43.92582" lon="7.50059">
        <ele>1023.5999755859</ele>
        <time>2021-02-20T12:50:32.000Z</time>
      </trkpt>
      <trkpt lat="43.92581" lon="7.50064">
        <ele>1022.4000244141</ele>
        <time>2021-02-20T12:50:33.000Z</time>
      </trkpt>
      <trkpt lat="43.9258" lon="7.50067">
        <ele>1021.200012207</ele>
        <time>2021-02-20T12:50:34.000Z</time>
      </trkpt>
      <trkpt lat="43.92579" lon="7.5007">
        <ele>1020.200012207</ele>
        <time>2021-02-20T12:50:35.000Z</time>
      </trkpt>
      <trkpt lat="43.92579" lon="7.50073">
        <ele>1019.5999755859</ele>
        <time>2021-02-20T12:50:36.000Z</time>
      </trkpt>
      <trkpt lat="43.92578" lon="7.50076">
        <ele>1017.4000244141</ele>
        <time>2021-02-20T12:50:38.000Z</time>
      </trkpt>
      <trkpt lat="43.92578" lon="7.50079">
        <ele>1016.4000244141</ele>
        <time>2021-02-20T12:50:39.000Z</time>
      </trkpt>
      <trkpt lat="43.92577" lon="7.50082">
        <ele>1015.5999755859</ele>
        <time>2021-02-20T12:50:40.000Z</time>
      </trkpt>
      <trkpt lat="43.92573" lon="7.5009">
        <ele>1013.799987793</ele>
        <time>2021-02-20T12:50:42.000Z</time>
      </trkpt>
      <trkpt lat="43.92572" lon="7.50095">
        <ele>1013</ele>
        <time>2021-02-20T12:50:43.000Z</time>
      </trkpt>
      <trkpt lat="43.92571" lon="7.50101">
        <ele>1011.799987793</ele>
        <time>2021-02-20T12:50:44.000Z</time>
      </trkpt>
      <trkpt lat="43.9257" lon="7.50107">
        <ele>1010.5999755859</ele>
        <time>2021-02-20T12:50:45.000Z</time>
      </trkpt>
      <trkpt lat="43.92568" lon="7.50113">
        <ele>1009.4000244141</ele>
        <time>2021-02-20T12:50:46.000Z</time>
      </trkpt>
      <trkpt lat="43.92568" lon="7.50119">
        <ele>1008.200012207</ele>
        <time>2021-02-20T12:50:47.000Z</time>
      </trkpt>
      <trkpt lat="43.92568" lon="7.50125">
        <ele>1007.200012207</ele>
        <time>2021-02-20T12:50:48.000Z</time>
      </trkpt>
      <trkpt lat="43.92567" lon="7.50131">
        <ele>1006</ele>
        <time>2021-02-20T12:50:49.000Z</time>
      </trkpt>
      <trkpt lat="43.92564" lon="7.50141">
        <ele>1004.799987793</ele>
        <time>2021-02-20T12:50:51.000Z</time>
      </trkpt>
      <trkpt lat="43.92562" lon="7.50151">
        <ele>1004</ele>
        <time>2021-02-20T12:50:53.000Z</time>
      </trkpt>
      <trkpt lat="43.9256" lon="7.50156">
        <ele>1003.4000244141</ele>
        <time>2021-02-20T12:50:54.000Z</time>
      </trkpt>
      <trkpt lat="43.92559" lon="7.50159">
        <ele>1002</ele>
        <time>2021-02-20T12:50:55.000Z</time>
      </trkpt>
      <trkpt lat="43.92555" lon="7.50164">
        <ele>1001.200012207</ele>
        <time>2021-02-20T12:50:56.000Z</time>
      </trkpt>
      <trkpt lat="43.92551" lon="7.50168">
        <ele>999.79998779297</ele>
        <time>2021-02-20T12:50:57.000Z</time>
      </trkpt>
      <trkpt lat="43.92547" lon="7.50172">
        <ele>997.79998779297</ele>
        <time>2021-02-20T12:50:58.000Z</time>
      </trkpt>
      <trkpt lat="43.92545" lon="7.50176">
        <ele>996.40002441406</ele>
        <time>2021-02-20T12:50:59.000Z</time>
      </trkpt>
      <trkpt lat="43.92543" lon="7.50182">
        <ele>995.40002441406</ele>
        <time>2021-02-20T12:51:00.000Z</time>
      </trkpt>
      <trkpt lat="43.92542" lon="7.5019">
        <ele>993.40002441406</ele>
        <time>2021-02-20T12:51:01.000Z</time>
      </trkpt>
      <trkpt lat="43.9254" lon="7.50196">
        <ele>992.40002441406</ele>
        <time>2021-02-20T12:51:02.000Z</time>
      </trkpt>
      <trkpt lat="43.92538" lon="7.50201">
        <ele>991.79998779297</ele>
        <time>2021-02-20T12:51:03.000Z</time>
      </trkpt>
      <trkpt lat="43.92535" lon="7.50204">
        <ele>990.79998779297</ele>
        <time>2021-02-20T12:51:04.000Z</time>
      </trkpt>
      <trkpt lat="43.92532" lon="7.50212">
        <ele>989.20001220703</ele>
        <time>2021-02-20T12:51:06.000Z</time>
      </trkpt>
      <trkpt lat="43.92532" lon="7.50217">
        <ele>988.59997558594</ele>
        <time>2021-02-20T12:51:07.000Z</time>
      </trkpt>
      <trkpt lat="43.9253" lon="7.50222">
        <ele>987.20001220703</ele>
        <time>2021-02-20T12:51:08.000Z</time>
      </trkpt>
      <trkpt lat="43.92527" lon="7.50228">
        <ele>986.79998779297</ele>
        <time>2021-02-20T12:51:09.000Z</time>
      </trkpt>
      <trkpt lat="43.92523" lon="7.50232">
        <ele>986.20001220703</ele>
        <time>2021-02-20T12:51:10.000Z</time>
      </trkpt>
      <trkpt lat="43.92518" lon="7.50235">
        <ele>985.20001220703</ele>
        <time>2021-02-20T12:51:11.000Z</time>
      </trkpt>
      <trkpt lat="43.92513" lon="7.5024">
        <ele>984.79998779297</ele>
        <time>2021-02-20T12:51:12.000Z</time>
      </trkpt>
      <trkpt lat="43.92509" lon="7.50245">
        <ele>983.20001220703</ele>
        <time>2021-02-20T12:51:13.000Z</time>
      </trkpt>
      <trkpt lat="43.92506" lon="7.50251">
        <ele>982.20001220703</ele>
        <time>2021-02-20T12:51:14.000Z</time>
      </trkpt>
      <trkpt lat="43.92503" lon="7.50256">
        <ele>980.79998779297</ele>
        <time>2021-02-20T12:51:15.000Z</time>
      </trkpt>
      <trkpt lat="43.92499" lon="7.50262">
        <ele>979.20001220703</ele>
        <time>2021-02-20T12:51:16.000Z</time>
      </trkpt>
      <trkpt lat="43.92496" lon="7.50266">
        <ele>978.40002441406</ele>
        <time>2021-02-20T12:51:17.000Z</time>
      </trkpt>
      <trkpt lat="43.92492" lon="7.50269">
        <ele>977.59997558594</ele>
        <time>2021-02-20T12:51:18.000Z</time>
      </trkpt>
      <trkpt lat="43.92489" lon="7.50272">
        <ele>976.59997558594</ele>
        <time>2021-02-20T12:51:19.000Z</time>
      </trkpt>
      <trkpt lat="43.92487" lon="7.50276">
        <ele>976</ele>
        <time>2021-02-20T12:51:20.000Z</time>
      </trkpt>
      <trkpt lat="43.92482" lon="7.50287">
        <ele>974.40002441406</ele>
        <time>2021-02-20T12:51:22.000Z</time>
      </trkpt>
      <trkpt lat="43.92482" lon="7.50291">
        <ele>973.40002441406</ele>
        <time>2021-02-20T12:51:23.000Z</time>
      </trkpt>
      <trkpt lat="43.92482" lon="7.50295">
        <ele>972.40002441406</ele>
        <time>2021-02-20T12:51:24.000Z</time>
      </trkpt>
      <trkpt lat="43.9248" lon="7.50302">
        <ele>970.40002441406</ele>
        <time>2021-02-20T12:51:26.000Z</time>
      </trkpt>
      <trkpt lat="43.92478" lon="7.50306">
        <ele>969.59997558594</ele>
        <time>2021-02-20T12:51:27.000Z</time>
      </trkpt>
      <trkpt lat="43.92475" lon="7.5031">
        <ele>969.40002441406</ele>
        <time>2021-02-20T12:51:28.000Z</time>
      </trkpt>
      <trkpt lat="43.92474" lon="7.50312">
        <ele>968.59997558594</ele>
        <time>2021-02-20T12:51:29.000Z</time>
      </trkpt>
      <trkpt lat="43.92473" lon="7.50314">
        <ele>968</ele>
        <time>2021-02-20T12:51:30.000Z</time>
      </trkpt>
      <trkpt lat="43.92472" lon="7.50316">
        <ele>966.79998779297</ele>
        <time>2021-02-20T12:51:31.000Z</time>
      </trkpt>
      <trkpt lat="43.92469" lon="7.50322">
        <ele>965.59997558594</ele>
        <time>2021-02-20T12:51:33.000Z</time>
      </trkpt>
      <trkpt lat="43.92467" lon="7.50326">
        <ele>964.59997558594</ele>
        <time>2021-02-20T12:51:34.000Z</time>
      </trkpt>
      <trkpt lat="43.92465" lon="7.5033">
        <ele>963.59997558594</ele>
        <time>2021-02-20T12:51:35.000Z</time>
      </trkpt>
      <trkpt lat="43.92461" lon="7.50338">
        <ele>961.79998779297</ele>
        <time>2021-02-20T12:51:37.000Z</time>
      </trkpt>
      <trkpt lat="43.92459" lon="7.50346">
        <ele>959.59997558594</ele>
        <time>2021-02-20T12:51:39.000Z</time>
      </trkpt>
      <trkpt lat="43.92455" lon="7.50355">
        <ele>957.59997558594</ele>
        <time>2021-02-20T12:51:41.000Z</time>
      </trkpt>
      <trkpt lat="43.92452" lon="7.50359">
        <ele>958.20001220703</ele>
        <time>2021-02-20T12:51:42.000Z</time>
      </trkpt>
      <trkpt lat="43.92447" lon="7.50367">
        <ele>956.20001220703</ele>
        <time>2021-02-20T12:51:44.000Z</time>
      </trkpt>
      <trkpt lat="43.92442" lon="7.50379">
        <ele>954.20001220703</ele>
        <time>2021-02-20T12:51:46.000Z</time>
      </trkpt>
      <trkpt lat="43.9244" lon="7.50384">
        <ele>952.20001220703</ele>
        <time>2021-02-20T12:51:47.000Z</time>
      </trkpt>
      <trkpt lat="43.92437" lon="7.5039">
        <ele>951</ele>
        <time>2021-02-20T12:51:48.000Z</time>
      </trkpt>
      <trkpt lat="43.92434" lon="7.50396">
        <ele>948.59997558594</ele>
        <time>2021-02-20T12:51:49.000Z</time>
      </trkpt>
      <trkpt lat="43.9243" lon="7.50399">
        <ele>947</ele>
        <time>2021-02-20T12:51:50.000Z</time>
      </trkpt>
      <trkpt lat="43.92425" lon="7.50403">
        <ele>945.40002441406</ele>
        <time>2021-02-20T12:51:51.000Z</time>
      </trkpt>
      <trkpt lat="43.9242" lon="7.50406">
        <ele>944.59997558594</ele>
        <time>2021-02-20T12:51:52.000Z</time>
      </trkpt>
      <trkpt lat="43.92416" lon="7.50409">
        <ele>943</ele>
        <time>2021-02-20T12:51:53.000Z</time>
      </trkpt>
      <trkpt lat="43.92412" lon="7.50412">
        <ele>941.40002441406</ele>
        <time>2021-02-20T12:51:54.000Z</time>
      </trkpt>
      <trkpt lat="43.92409" lon="7.50416">
        <ele>939.59997558594</ele>
        <time>2021-02-20T12:51:55.000Z</time>
      </trkpt>
      <trkpt lat="43.92405" lon="7.50418">
        <ele>938.20001220703</ele>
        <time>2021-02-20T12:51:56.000Z</time>
      </trkpt>
      <trkpt lat="43.92402" lon="7.5042">
        <ele>936.79998779297</ele>
        <time>2021-02-20T12:51:57.000Z</time>
      </trkpt>
      <trkpt lat="43.92399" lon="7.50422">
        <ele>935.40002441406</ele>
        <time>2021-02-20T12:51:58.000Z</time>
      </trkpt>
      <trkpt lat="43.92398" lon="7.50429">
        <ele>934.20001220703</ele>
        <time>2021-02-20T12:52:00.000Z</time>
      </trkpt>
      <trkpt lat="43.92396" lon="7.50433">
        <ele>933.40002441406</ele>
        <time>2021-02-20T12:52:01.000Z</time>
      </trkpt>
      <trkpt lat="43.92389" lon="7.50439">
        <ele>932.59997558594</ele>
        <time>2021-02-20T12:52:03.000Z</time>
      </trkpt>
      <trkpt lat="43.92386" lon="7.50443">
        <ele>931.40002441406</ele>
        <time>2021-02-20T12:52:04.000Z</time>
      </trkpt>
      <trkpt lat="43.92383" lon="7.50445">
        <ele>930.40002441406</ele>
        <time>2021-02-20T12:52:05.000Z</time>
      </trkpt>
      <trkpt lat="43.92379" lon="7.50447">
        <ele>928.20001220703</ele>
        <time>2021-02-20T12:52:06.000Z</time>
      </trkpt>
      <trkpt lat="43.92376" lon="7.5045">
        <ele>926</ele>
        <time>2021-02-20T12:52:07.000Z</time>
      </trkpt>
      <trkpt lat="43.92372" lon="7.50459">
        <ele>924.59997558594</ele>
        <time>2021-02-20T12:52:09.000Z</time>
      </trkpt>
      <trkpt lat="43.92367" lon="7.50467">
        <ele>922.79998779297</ele>
        <time>2021-02-20T12:52:11.000Z</time>
      </trkpt>
      <trkpt lat="43.9236" lon="7.50475">
        <ele>921</ele>
        <time>2021-02-20T12:52:13.000Z</time>
      </trkpt>
      <trkpt lat="43.92356" lon="7.50478">
        <ele>919.20001220703</ele>
        <time>2021-02-20T12:52:14.000Z</time>
      </trkpt>
      <trkpt lat="43.92352" lon="7.50479">
        <ele>917.40002441406</ele>
        <time>2021-02-20T12:52:15.000Z</time>
      </trkpt>
      <trkpt lat="43.92348" lon="7.50479">
        <ele>915.59997558594</ele>
        <time>2021-02-20T12:52:16.000Z</time>
      </trkpt>
      <trkpt lat="43.92341" lon="7.50481">
        <ele>913.40002441406</ele>
        <time>2021-02-20T12:52:18.000Z</time>
      </trkpt>
      <trkpt lat="43.92336" lon="7.50484">
        <ele>912</ele>
        <time>2021-02-20T12:52:19.000Z</time>
      </trkpt>
      <trkpt lat="43.92332" lon="7.50488">
        <ele>910.79998779297</ele>
        <time>2021-02-20T12:52:20.000Z</time>
      </trkpt>
      <trkpt lat="43.92328" lon="7.50493">
        <ele>909.59997558594</ele>
        <time>2021-02-20T12:52:21.000Z</time>
      </trkpt>
      <trkpt lat="43.92326" lon="7.50498">
        <ele>909.20001220703</ele>
        <time>2021-02-20T12:52:22.000Z</time>
      </trkpt>
      <trkpt lat="43.92323" lon="7.505">
        <ele>908</ele>
        <time>2021-02-20T12:52:23.000Z</time>
      </trkpt>
      <trkpt lat="43.92321" lon="7.50501">
        <ele>905.79998779297</ele>
        <time>2021-02-20T12:52:24.000Z</time>
      </trkpt>
      <trkpt lat="43.92319" lon="7.50501">
        <ele>904</ele>
        <time>2021-02-20T12:52:25.000Z</time>
      </trkpt>
      <trkpt lat="43.92316" lon="7.50502">
        <ele>902.40002441406</ele>
        <time>2021-02-20T12:52:27.000Z</time>
      </trkpt>
      <trkpt lat="43.92314" lon="7.50506">
        <ele>901.20001220703</ele>
        <time>2021-02-20T12:52:29.000Z</time>
      </trkpt>
      <trkpt lat="43.92314" lon="7.50508">
        <ele>900.20001220703</ele>
        <time>2021-02-20T12:52:30.000Z</time>
      </trkpt>
      <trkpt lat="43.92314" lon="7.50514">
        <ele>898.59997558594</ele>
        <time>2021-02-20T12:52:32.000Z</time>
      </trkpt>
      <trkpt lat="43.92316" lon="7.50519">
        <ele>898.79998779297</ele>
        <time>2021-02-20T12:52:35.000Z</time>
      </trkpt>
      <trkpt lat="43.92314" lon="7.50524">
        <ele>899.59997558594</ele>
        <time>2021-02-20T12:52:38.000Z</time>
      </trkpt>
      <trkpt lat="43.9231" lon="7.50529">
        <ele>899.20001220703</ele>
        <time>2021-02-20T12:52:40.000Z</time>
      </trkpt>
      <trkpt lat="43.92308" lon="7.50531">
        <ele>898</ele>
        <time>2021-02-20T12:52:42.000Z</time>
      </trkpt>
      <trkpt lat="43.92305" lon="7.50533">
        <ele>897.20001220703</ele>
        <time>2021-02-20T12:52:44.000Z</time>
      </trkpt>
      <trkpt lat="43.92303" lon="7.50534">
        <ele>897.20001220703</ele>
        <time>2021-02-20T12:52:45.000Z</time>
      </trkpt>
      <trkpt lat="43.92301" lon="7.50536">
        <ele>897</ele>
        <time>2021-02-20T12:52:46.000Z</time>
      </trkpt>
      <trkpt lat="43.92295" lon="7.50544">
        <ele>895.40002441406</ele>
        <time>2021-02-20T12:52:49.000Z</time>
      </trkpt>
      <trkpt lat="43.9229" lon="7.50546">
        <ele>894</ele>
        <time>2021-02-20T12:52:51.000Z</time>
      </trkpt>
      <trkpt lat="43.92285" lon="7.5055">
        <ele>892.20001220703</ele>
        <time>2021-02-20T12:52:53.000Z</time>
      </trkpt>
      <trkpt lat="43.92283" lon="7.50556">
        <ele>890.79998779297</ele>
        <time>2021-02-20T12:52:54.000Z</time>
      </trkpt>
      <trkpt lat="43.9228" lon="7.5056">
        <ele>890.20001220703</ele>
        <time>2021-02-20T12:52:55.000Z</time>
      </trkpt>
      <trkpt lat="43.92278" lon="7.50564">
        <ele>889.20001220703</ele>
        <time>2021-02-20T12:52:56.000Z</time>
      </trkpt>
      <trkpt lat="43.92275" lon="7.50567">
        <ele>888</ele>
        <time>2021-02-20T12:52:57.000Z</time>
      </trkpt>
      <trkpt lat="43.9227" lon="7.50573">
        <ele>886.59997558594</ele>
        <time>2021-02-20T12:52:59.000Z</time>
      </trkpt>
      <trkpt lat="43.92266" lon="7.50578">
        <ele>884.59997558594</ele>
        <time>2021-02-20T12:53:01.000Z</time>
      </trkpt>
      <trkpt lat="43.92263" lon="7.50582">
        <ele>883.40002441406</ele>
        <time>2021-02-20T12:53:02.000Z</time>
      </trkpt>
      <trkpt lat="43.92257" lon="7.50587">
        <ele>880.59997558594</ele>
        <time>2021-02-20T12:53:04.000Z</time>
      </trkpt>
      <trkpt lat="43.92255" lon="7.50587">
        <ele>879.40002441406</ele>
        <time>2021-02-20T12:53:05.000Z</time>
      </trkpt>
      <trkpt lat="43.92253" lon="7.50589">
        <ele>878</ele>
        <time>2021-02-20T12:53:06.000Z</time>
      </trkpt>
      <trkpt lat="43.92251" lon="7.5059">
        <ele>876.40002441406</ele>
        <time>2021-02-20T12:53:07.000Z</time>
      </trkpt>
      <trkpt lat="43.9225" lon="7.50591">
        <ele>875</ele>
        <time>2021-02-20T12:53:08.000Z</time>
      </trkpt>
      <trkpt lat="43.92248" lon="7.50593">
        <ele>874</ele>
        <time>2021-02-20T12:53:09.000Z</time>
      </trkpt>
      <trkpt lat="43.92244" lon="7.50597">
        <ele>872.20001220703</ele>
        <time>2021-02-20T12:53:11.000Z</time>
      </trkpt>
      <trkpt lat="43.92239" lon="7.50597">
        <ele>871</ele>
        <time>2021-02-20T12:53:13.000Z</time>
      </trkpt>
      <trkpt lat="43.92236" lon="7.50597">
        <ele>869.79998779297</ele>
        <time>2021-02-20T12:53:15.000Z</time>
      </trkpt>
      <trkpt lat="43.92232" lon="7.50598">
        <ele>868</ele>
        <time>2021-02-20T12:53:17.000Z</time>
      </trkpt>
      <trkpt lat="43.9223" lon="7.50598">
        <ele>867</ele>
        <time>2021-02-20T12:53:18.000Z</time>
      </trkpt>
      <trkpt lat="43.92228" lon="7.50597">
        <ele>866.20001220703</ele>
        <time>2021-02-20T12:53:19.000Z</time>
      </trkpt>
      <trkpt lat="43.92225" lon="7.50598">
        <ele>865</ele>
        <time>2021-02-20T12:53:20.000Z</time>
      </trkpt>
      <trkpt lat="43.92222" lon="7.50599">
        <ele>864</ele>
        <time>2021-02-20T12:53:21.000Z</time>
      </trkpt>
      <trkpt lat="43.9222" lon="7.50602">
        <ele>862.79998779297</ele>
        <time>2021-02-20T12:53:22.000Z</time>
      </trkpt>
      <trkpt lat="43.92218" lon="7.50606">
        <ele>861.40002441406</ele>
        <time>2021-02-20T12:53:23.000Z</time>
      </trkpt>
      <trkpt lat="43.92216" lon="7.50609">
        <ele>860</ele>
        <time>2021-02-20T12:53:24.000Z</time>
      </trkpt>
      <trkpt lat="43.92214" lon="7.50609">
        <ele>858.59997558594</ele>
        <time>2021-02-20T12:53:25.000Z</time>
      </trkpt>
      <trkpt lat="43.92211" lon="7.50609">
        <ele>857.40002441406</ele>
        <time>2021-02-20T12:53:26.000Z</time>
      </trkpt>
      <trkpt lat="43.92208" lon="7.50608">
        <ele>856.20001220703</ele>
        <time>2021-02-20T12:53:27.000Z</time>
      </trkpt>
      <trkpt lat="43.92203" lon="7.50608">
        <ele>854</ele>
        <time>2021-02-20T12:53:29.000Z</time>
      </trkpt>
      <trkpt lat="43.92199" lon="7.50612">
        <ele>852.20001220703</ele>
        <time>2021-02-20T12:53:31.000Z</time>
      </trkpt>
      <trkpt lat="43.92195" lon="7.50614">
        <ele>850.59997558594</ele>
        <time>2021-02-20T12:53:33.000Z</time>
      </trkpt>
      <trkpt lat="43.9219" lon="7.50619">
        <ele>848.79998779297</ele>
        <time>2021-02-20T12:53:35.000Z</time>
      </trkpt>
      <trkpt lat="43.92188" lon="7.50622">
        <ele>847.59997558594</ele>
        <time>2021-02-20T12:53:36.000Z</time>
      </trkpt>
      <trkpt lat="43.92185" lon="7.50624">
        <ele>846.59997558594</ele>
        <time>2021-02-20T12:53:37.000Z</time>
      </trkpt>
      <trkpt lat="43.92183" lon="7.50625">
        <ele>845</ele>
        <time>2021-02-20T12:53:38.000Z</time>
      </trkpt>
      <trkpt lat="43.92181" lon="7.50627">
        <ele>843.59997558594</ele>
        <time>2021-02-20T12:53:39.000Z</time>
      </trkpt>
      <trkpt lat="43.9218" lon="7.5063">
        <ele>842.40002441406</ele>
        <time>2021-02-20T12:53:40.000Z</time>
      </trkpt>
      <trkpt lat="43.92178" lon="7.50632">
        <ele>841.20001220703</ele>
        <time>2021-02-20T12:53:41.000Z</time>
      </trkpt>
      <trkpt lat="43.92176" lon="7.50635">
        <ele>840</ele>
        <time>2021-02-20T12:53:42.000Z</time>
      </trkpt>
      <trkpt lat="43.92172" lon="7.5064">
        <ele>838</ele>
        <time>2021-02-20T12:53:44.000Z</time>
      </trkpt>
      <trkpt lat="43.92169" lon="7.50642">
        <ele>837.40002441406</ele>
        <time>2021-02-20T12:53:45.000Z</time>
      </trkpt>
      <trkpt lat="43.92166" lon="7.50644">
        <ele>836.59997558594</ele>
        <time>2021-02-20T12:53:46.000Z</time>
      </trkpt>
      <trkpt lat="43.92161" lon="7.50648">
        <ele>834.59997558594</ele>
        <time>2021-02-20T12:53:48.000Z</time>
      </trkpt>
      <trkpt lat="43.92159" lon="7.5065">
        <ele>833.59997558594</ele>
        <time>2021-02-20T12:53:49.000Z</time>
      </trkpt>
      <trkpt lat="43.92157" lon="7.50652">
        <ele>834</ele>
        <time>2021-02-20T12:53:50.000Z</time>
      </trkpt>
      <trkpt lat="43.92154" lon="7.50652">
        <ele>833.79998779297</ele>
        <time>2021-02-20T12:53:52.000Z</time>
      </trkpt>
      <trkpt lat="43.92151" lon="7.50651">
        <ele>831.40002441406</ele>
        <time>2021-02-20T12:53:54.000Z</time>
      </trkpt>
      <trkpt lat="43.92145" lon="7.50654">
        <ele>830.40002441406</ele>
        <time>2021-02-20T12:53:57.000Z</time>
      </trkpt>
      <trkpt lat="43.92142" lon="7.50657">
        <ele>828.59997558594</ele>
        <time>2021-02-20T12:53:59.000Z</time>
      </trkpt>
      <trkpt lat="43.92139" lon="7.50663">
        <ele>827</ele>
        <time>2021-02-20T12:54:01.000Z</time>
      </trkpt>
      <trkpt lat="43.92138" lon="7.50667">
        <ele>826</ele>
        <time>2021-02-20T12:54:02.000Z</time>
      </trkpt>
      <trkpt lat="43.92138" lon="7.50671">
        <ele>825.40002441406</ele>
        <time>2021-02-20T12:54:03.000Z</time>
      </trkpt>
      <trkpt lat="43.92137" lon="7.50676">
        <ele>824.59997558594</ele>
        <time>2021-02-20T12:54:04.000Z</time>
      </trkpt>
      <trkpt lat="43.92134" lon="7.50686">
        <ele>822.40002441406</ele>
        <time>2021-02-20T12:54:06.000Z</time>
      </trkpt>
      <trkpt lat="43.92131" lon="7.5069">
        <ele>821.79998779297</ele>
        <time>2021-02-20T12:54:07.000Z</time>
      </trkpt>
      <trkpt lat="43.92128" lon="7.50691">
        <ele>820.20001220703</ele>
        <time>2021-02-20T12:54:08.000Z</time>
      </trkpt>
      <trkpt lat="43.92124" lon="7.50692">
        <ele>818.40002441406</ele>
        <time>2021-02-20T12:54:10.000Z</time>
      </trkpt>
      <trkpt lat="43.92119" lon="7.50694">
        <ele>816.79998779297</ele>
        <time>2021-02-20T12:54:12.000Z</time>
      </trkpt>
      <trkpt lat="43.92117" lon="7.50695">
        <ele>815.59997558594</ele>
        <time>2021-02-20T12:54:13.000Z</time>
      </trkpt>
      <trkpt lat="43.92116" lon="7.50696">
        <ele>814.59997558594</ele>
        <time>2021-02-20T12:54:14.000Z</time>
      </trkpt>
      <trkpt lat="43.92114" lon="7.50697">
        <ele>813.40002441406</ele>
        <time>2021-02-20T12:54:15.000Z</time>
      </trkpt>
      <trkpt lat="43.92111" lon="7.50702">
        <ele>812</ele>
        <time>2021-02-20T12:54:17.000Z</time>
      </trkpt>
      <trkpt lat="43.92107" lon="7.50707">
        <ele>810.40002441406</ele>
        <time>2021-02-20T12:54:19.000Z</time>
      </trkpt>
      <trkpt lat="43.92103" lon="7.50711">
        <ele>808.79998779297</ele>
        <time>2021-02-20T12:54:21.000Z</time>
      </trkpt>
      <trkpt lat="43.92101" lon="7.50714">
        <ele>807.79998779297</ele>
        <time>2021-02-20T12:54:23.000Z</time>
      </trkpt>
      <trkpt lat="43.92099" lon="7.50716">
        <ele>807.20001220703</ele>
        <time>2021-02-20T12:54:24.000Z</time>
      </trkpt>
      <trkpt lat="43.92092" lon="7.5072">
        <ele>805.79998779297</ele>
        <time>2021-02-20T12:54:27.000Z</time>
      </trkpt>
      <trkpt lat="43.9209" lon="7.50721">
        <ele>805.59997558594</ele>
        <time>2021-02-20T12:54:28.000Z</time>
      </trkpt>
      <trkpt lat="43.92089" lon="7.50723">
        <ele>803.59997558594</ele>
        <time>2021-02-20T12:54:30.000Z</time>
      </trkpt>
      <trkpt lat="43.92088" lon="7.50727">
        <ele>802.59997558594</ele>
        <time>2021-02-20T12:54:32.000Z</time>
      </trkpt>
      <trkpt lat="43.92081" lon="7.50734">
        <ele>801.40002441406</ele>
        <time>2021-02-20T12:54:35.000Z</time>
      </trkpt>
      <trkpt lat="43.92077" lon="7.50738">
        <ele>799.79998779297</ele>
        <time>2021-02-20T12:54:37.000Z</time>
      </trkpt>
      <trkpt lat="43.92074" lon="7.50738">
        <ele>798.59997558594</ele>
        <time>2021-02-20T12:54:38.000Z</time>
      </trkpt>
      <trkpt lat="43.92073" lon="7.50736">
        <ele>797.40002441406</ele>
        <time>2021-02-20T12:54:39.000Z</time>
      </trkpt>
      <trkpt lat="43.92071" lon="7.50735">
        <ele>797</ele>
        <time>2021-02-20T12:54:40.000Z</time>
      </trkpt>
      <trkpt lat="43.9207" lon="7.50733">
        <ele>796.40002441406</ele>
        <time>2021-02-20T12:54:41.000Z</time>
      </trkpt>
      <trkpt lat="43.92065" lon="7.50734">
        <ele>795.20001220703</ele>
        <time>2021-02-20T12:54:43.000Z</time>
      </trkpt>
      <trkpt lat="43.92062" lon="7.50735">
        <ele>794.20001220703</ele>
        <time>2021-02-20T12:54:44.000Z</time>
      </trkpt>
      <trkpt lat="43.92057" lon="7.50738">
        <ele>792</ele>
        <time>2021-02-20T12:54:46.000Z</time>
      </trkpt>
      <trkpt lat="43.92056" lon="7.5074">
        <ele>790.20001220703</ele>
        <time>2021-02-20T12:54:47.000Z</time>
      </trkpt>
      <trkpt lat="43.92055" lon="7.50741">
        <ele>789</ele>
        <time>2021-02-20T12:54:48.000Z</time>
      </trkpt>
      <trkpt lat="43.92047" lon="7.5075">
        <ele>787.59997558594</ele>
        <time>2021-02-20T12:54:52.000Z</time>
      </trkpt>
      <trkpt lat="43.92047" lon="7.50752">
        <ele>786.40002441406</ele>
        <time>2021-02-20T12:54:53.000Z</time>
      </trkpt>
      <trkpt lat="43.92044" lon="7.50759">
        <ele>785</ele>
        <time>2021-02-20T12:54:55.000Z</time>
      </trkpt>
      <trkpt lat="43.92044" lon="7.50764">
        <ele>783.40002441406</ele>
        <time>2021-02-20T12:54:57.000Z</time>
      </trkpt>
      <trkpt lat="43.92046" lon="7.50768">
        <ele>782.20001220703</ele>
        <time>2021-02-20T12:55:00.000Z</time>
      </trkpt>
      <trkpt lat="43.92048" lon="7.5077">
        <ele>782</ele>
        <time>2021-02-20T12:55:01.000Z</time>
      </trkpt>
      <trkpt lat="43.92049" lon="7.50777">
        <ele>780.79998779297</ele>
        <time>2021-02-20T12:55:03.000Z</time>
      </trkpt>
      <trkpt lat="43.92045" lon="7.50779">
        <ele>779.20001220703</ele>
        <time>2021-02-20T12:55:05.000Z</time>
      </trkpt>
      <trkpt lat="43.92039" lon="7.50783">
        <ele>777.79998779297</ele>
        <time>2021-02-20T12:55:07.000Z</time>
      </trkpt>
      <trkpt lat="43.92033" lon="7.50785">
        <ele>776</ele>
        <time>2021-02-20T12:55:09.000Z</time>
      </trkpt>
      <trkpt lat="43.92025" lon="7.50788">
        <ele>774.79998779297</ele>
        <time>2021-02-20T12:55:11.000Z</time>
      </trkpt>
      <trkpt lat="43.92021" lon="7.5079">
        <ele>773.59997558594</ele>
        <time>2021-02-20T12:55:12.000Z</time>
      </trkpt>
      <trkpt lat="43.92016" lon="7.50792">
        <ele>772.59997558594</ele>
        <time>2021-02-20T12:55:13.000Z</time>
      </trkpt>
      <trkpt lat="43.9201" lon="7.50794">
        <ele>771.40002441406</ele>
        <time>2021-02-20T12:55:14.000Z</time>
      </trkpt>
      <trkpt lat="43.92005" lon="7.50796">
        <ele>769.79998779297</ele>
        <time>2021-02-20T12:55:15.000Z</time>
      </trkpt>
      <trkpt lat="43.91999" lon="7.50798">
        <ele>768.59997558594</ele>
        <time>2021-02-20T12:55:16.000Z</time>
      </trkpt>
      <trkpt lat="43.91995" lon="7.508">
        <ele>767.40002441406</ele>
        <time>2021-02-20T12:55:17.000Z</time>
      </trkpt>
      <trkpt lat="43.91988" lon="7.50803">
        <ele>765.79998779297</ele>
        <time>2021-02-20T12:55:18.000Z</time>
      </trkpt>
      <trkpt lat="43.91982" lon="7.50805">
        <ele>764.79998779297</ele>
        <time>2021-02-20T12:55:19.000Z</time>
      </trkpt>
      <trkpt lat="43.9197" lon="7.50809">
        <ele>763.20001220703</ele>
        <time>2021-02-20T12:55:21.000Z</time>
      </trkpt>
      <trkpt lat="43.91965" lon="7.50811">
        <ele>762.20001220703</ele>
        <time>2021-02-20T12:55:22.000Z</time>
      </trkpt>
      <trkpt lat="43.91961" lon="7.50813">
        <ele>761.40002441406</ele>
        <time>2021-02-20T12:55:23.000Z</time>
      </trkpt>
      <trkpt lat="43.91955" lon="7.50814">
        <ele>760.59997558594</ele>
        <time>2021-02-20T12:55:24.000Z</time>
      </trkpt>
      <trkpt lat="43.9195" lon="7.50815">
        <ele>759.79998779297</ele>
        <time>2021-02-20T12:55:25.000Z</time>
      </trkpt>
      <trkpt lat="43.91946" lon="7.50818">
        <ele>759</ele>
        <time>2021-02-20T12:55:26.000Z</time>
      </trkpt>
      <trkpt lat="43.91941" lon="7.5082">
        <ele>758.40002441406</ele>
        <time>2021-02-20T12:55:27.000Z</time>
      </trkpt>
      <trkpt lat="43.91937" lon="7.5082">
        <ele>758</ele>
        <time>2021-02-20T12:55:28.000Z</time>
      </trkpt>
      <trkpt lat="43.91933" lon="7.50822">
        <ele>756.59997558594</ele>
        <time>2021-02-20T12:55:29.000Z</time>
      </trkpt>
      <trkpt lat="43.91926" lon="7.50828">
        <ele>755.40002441406</ele>
        <time>2021-02-20T12:55:31.000Z</time>
      </trkpt>
      <trkpt lat="43.91922" lon="7.50831">
        <ele>754.40002441406</ele>
        <time>2021-02-20T12:55:32.000Z</time>
      </trkpt>
      <trkpt lat="43.91918" lon="7.50833">
        <ele>753.20001220703</ele>
        <time>2021-02-20T12:55:33.000Z</time>
      </trkpt>
      <trkpt lat="43.91912" lon="7.50835">
        <ele>751.59997558594</ele>
        <time>2021-02-20T12:55:35.000Z</time>
      </trkpt>
      <trkpt lat="43.91909" lon="7.50838">
        <ele>749.79998779297</ele>
        <time>2021-02-20T12:55:36.000Z</time>
      </trkpt>
      <trkpt lat="43.91904" lon="7.50844">
        <ele>747.59997558594</ele>
        <time>2021-02-20T12:55:38.000Z</time>
      </trkpt>
      <trkpt lat="43.919" lon="7.50846">
        <ele>746.40002441406</ele>
        <time>2021-02-20T12:55:39.000Z</time>
      </trkpt>
      <trkpt lat="43.91896" lon="7.50848">
        <ele>745.79998779297</ele>
        <time>2021-02-20T12:55:40.000Z</time>
      </trkpt>
      <trkpt lat="43.91893" lon="7.50851">
        <ele>745.20001220703</ele>
        <time>2021-02-20T12:55:41.000Z</time>
      </trkpt>
      <trkpt lat="43.91889" lon="7.50854">
        <ele>743.79998779297</ele>
        <time>2021-02-20T12:55:42.000Z</time>
      </trkpt>
      <trkpt lat="43.91884" lon="7.50856">
        <ele>742.40002441406</ele>
        <time>2021-02-20T12:55:43.000Z</time>
      </trkpt>
      <trkpt lat="43.9188" lon="7.50857">
        <ele>741.40002441406</ele>
        <time>2021-02-20T12:55:44.000Z</time>
      </trkpt>
      <trkpt lat="43.91876" lon="7.50858">
        <ele>740</ele>
        <time>2021-02-20T12:55:45.000Z</time>
      </trkpt>
      <trkpt lat="43.91872" lon="7.50859">
        <ele>738.79998779297</ele>
        <time>2021-02-20T12:55:46.000Z</time>
      </trkpt>
      <trkpt lat="43.91867" lon="7.50862">
        <ele>737</ele>
        <time>2021-02-20T12:55:48.000Z</time>
      </trkpt>
      <trkpt lat="43.91864" lon="7.50863">
        <ele>735.79998779297</ele>
        <time>2021-02-20T12:55:49.000Z</time>
      </trkpt>
      <trkpt lat="43.9186" lon="7.50865">
        <ele>735.20001220703</ele>
        <time>2021-02-20T12:55:50.000Z</time>
      </trkpt>
      <trkpt lat="43.91857" lon="7.50867">
        <ele>734</ele>
        <time>2021-02-20T12:55:51.000Z</time>
      </trkpt>
      <trkpt lat="43.91854" lon="7.50868">
        <ele>732.20001220703</ele>
        <time>2021-02-20T12:55:52.000Z</time>
      </trkpt>
      <trkpt lat="43.91851" lon="7.50871">
        <ele>731.40002441406</ele>
        <time>2021-02-20T12:55:53.000Z</time>
      </trkpt>
      <trkpt lat="43.91848" lon="7.50874">
        <ele>730.59997558594</ele>
        <time>2021-02-20T12:55:54.000Z</time>
      </trkpt>
      <trkpt lat="43.91844" lon="7.50879">
        <ele>728.59997558594</ele>
        <time>2021-02-20T12:55:56.000Z</time>
      </trkpt>
      <trkpt lat="43.91841" lon="7.50879">
        <ele>728.20001220703</ele>
        <time>2021-02-20T12:55:57.000Z</time>
      </trkpt>
      <trkpt lat="43.91837" lon="7.50878">
        <ele>727.40002441406</ele>
        <time>2021-02-20T12:55:58.000Z</time>
      </trkpt>
      <trkpt lat="43.91832" lon="7.50878">
        <ele>726</ele>
        <time>2021-02-20T12:56:00.000Z</time>
      </trkpt>
      <trkpt lat="43.91829" lon="7.50884">
        <ele>724.40002441406</ele>
        <time>2021-02-20T12:56:02.000Z</time>
      </trkpt>
      <trkpt lat="43.91828" lon="7.50888">
        <ele>723.40002441406</ele>
        <time>2021-02-20T12:56:03.000Z</time>
      </trkpt>
      <trkpt lat="43.91827" lon="7.5089">
        <ele>722.40002441406</ele>
        <time>2021-02-20T12:56:04.000Z</time>
      </trkpt>
      <trkpt lat="43.91825" lon="7.50892">
        <ele>721.59997558594</ele>
        <time>2021-02-20T12:56:05.000Z</time>
      </trkpt>
      <trkpt lat="43.91817" lon="7.50896">
        <ele>720.20001220703</ele>
        <time>2021-02-20T12:56:07.000Z</time>
      </trkpt>
      <trkpt lat="43.91812" lon="7.50898">
        <ele>719.40002441406</ele>
        <time>2021-02-20T12:56:08.000Z</time>
      </trkpt>
      <trkpt lat="43.91807" lon="7.50901">
        <ele>718.40002441406</ele>
        <time>2021-02-20T12:56:09.000Z</time>
      </trkpt>
      <trkpt lat="43.91802" lon="7.50902">
        <ele>717.40002441406</ele>
        <time>2021-02-20T12:56:10.000Z</time>
      </trkpt>
      <trkpt lat="43.91798" lon="7.50905">
        <ele>716</ele>
        <time>2021-02-20T12:56:11.000Z</time>
      </trkpt>
      <trkpt lat="43.91795" lon="7.50906">
        <ele>714.59997558594</ele>
        <time>2021-02-20T12:56:12.000Z</time>
      </trkpt>
      <trkpt lat="43.91793" lon="7.50908">
        <ele>713.20001220703</ele>
        <time>2021-02-20T12:56:13.000Z</time>
      </trkpt>
      <trkpt lat="43.91791" lon="7.50909">
        <ele>712</ele>
        <time>2021-02-20T12:56:14.000Z</time>
      </trkpt>
      <trkpt lat="43.91784" lon="7.50911">
        <ele>710.59997558594</ele>
        <time>2021-02-20T12:56:16.000Z</time>
      </trkpt>
      <trkpt lat="43.91779" lon="7.50911">
        <ele>710</ele>
        <time>2021-02-20T12:56:17.000Z</time>
      </trkpt>
      <trkpt lat="43.91775" lon="7.5091">
        <ele>708.59997558594</ele>
        <time>2021-02-20T12:56:18.000Z</time>
      </trkpt>
      <trkpt lat="43.91771" lon="7.50911">
        <ele>707.59997558594</ele>
        <time>2021-02-20T12:56:19.000Z</time>
      </trkpt>
      <trkpt lat="43.91768" lon="7.50911">
        <ele>706.40002441406</ele>
        <time>2021-02-20T12:56:20.000Z</time>
      </trkpt>
      <trkpt lat="43.91765" lon="7.50909">
        <ele>704.59997558594</ele>
        <time>2021-02-20T12:56:21.000Z</time>
      </trkpt>
      <trkpt lat="43.91763" lon="7.50906">
        <ele>703</ele>
        <time>2021-02-20T12:56:22.000Z</time>
      </trkpt>
      <trkpt lat="43.9176" lon="7.50907">
        <ele>701.40002441406</ele>
        <time>2021-02-20T12:56:24.000Z</time>
      </trkpt>
      <trkpt lat="43.91758" lon="7.50909">
        <ele>700.59997558594</ele>
        <time>2021-02-20T12:56:25.000Z</time>
      </trkpt>
      <trkpt lat="43.91751" lon="7.50912">
        <ele>700</ele>
        <time>2021-02-20T12:56:27.000Z</time>
      </trkpt>
      <trkpt lat="43.91747" lon="7.50911">
        <ele>699.40002441406</ele>
        <time>2021-02-20T12:56:28.000Z</time>
      </trkpt>
      <trkpt lat="43.91743" lon="7.50911">
        <ele>698.79998779297</ele>
        <time>2021-02-20T12:56:29.000Z</time>
      </trkpt>
      <trkpt lat="43.91736" lon="7.50913">
        <ele>697.20001220703</ele>
        <time>2021-02-20T12:56:31.000Z</time>
      </trkpt>
      <trkpt lat="43.91733" lon="7.50915">
        <ele>695.79998779297</ele>
        <time>2021-02-20T12:56:32.000Z</time>
      </trkpt>
      <trkpt lat="43.9173" lon="7.50915">
        <ele>694.59997558594</ele>
        <time>2021-02-20T12:56:33.000Z</time>
      </trkpt>
      <trkpt lat="43.91725" lon="7.50916">
        <ele>692.59997558594</ele>
        <time>2021-02-20T12:56:35.000Z</time>
      </trkpt>
      <trkpt lat="43.91722" lon="7.50919">
        <ele>691.40002441406</ele>
        <time>2021-02-20T12:56:36.000Z</time>
      </trkpt>
      <trkpt lat="43.91721" lon="7.50922">
        <ele>690.59997558594</ele>
        <time>2021-02-20T12:56:37.000Z</time>
      </trkpt>
      <trkpt lat="43.91719" lon="7.50926">
        <ele>689.79998779297</ele>
        <time>2021-02-20T12:56:38.000Z</time>
      </trkpt>
      <trkpt lat="43.91711" lon="7.50932">
        <ele>688</ele>
        <time>2021-02-20T12:56:40.000Z</time>
      </trkpt>
      <trkpt lat="43.91706" lon="7.50936">
        <ele>687.59997558594</ele>
        <time>2021-02-20T12:56:41.000Z</time>
      </trkpt>
      <trkpt lat="43.91697" lon="7.50945">
        <ele>686.40002441406</ele>
        <time>2021-02-20T12:56:43.000Z</time>
      </trkpt>
      <trkpt lat="43.91691" lon="7.50949">
        <ele>685.59997558594</ele>
        <time>2021-02-20T12:56:44.000Z</time>
      </trkpt>
      <trkpt lat="43.91687" lon="7.50953">
        <ele>684.40002441406</ele>
        <time>2021-02-20T12:56:45.000Z</time>
      </trkpt>
      <trkpt lat="43.91683" lon="7.50957">
        <ele>683.40002441406</ele>
        <time>2021-02-20T12:56:46.000Z</time>
      </trkpt>
      <trkpt lat="43.91675" lon="7.50961">
        <ele>682.59997558594</ele>
        <time>2021-02-20T12:56:48.000Z</time>
      </trkpt>
      <trkpt lat="43.91671" lon="7.50961">
        <ele>681.59997558594</ele>
        <time>2021-02-20T12:56:49.000Z</time>
      </trkpt>
      <trkpt lat="43.91663" lon="7.50961">
        <ele>680.40002441406</ele>
        <time>2021-02-20T12:56:51.000Z</time>
      </trkpt>
      <trkpt lat="43.91659" lon="7.5096">
        <ele>679.40002441406</ele>
        <time>2021-02-20T12:56:52.000Z</time>
      </trkpt>
      <trkpt lat="43.91657" lon="7.50961">
        <ele>678.40002441406</ele>
        <time>2021-02-20T12:56:53.000Z</time>
      </trkpt>
      <trkpt lat="43.91655" lon="7.50964">
        <ele>677.79998779297</ele>
        <time>2021-02-20T12:56:54.000Z</time>
      </trkpt>
      <trkpt lat="43.91649" lon="7.50968">
        <ele>676.59997558594</ele>
        <time>2021-02-20T12:56:56.000Z</time>
      </trkpt>
      <trkpt lat="43.91638" lon="7.50972">
        <ele>675.40002441406</ele>
        <time>2021-02-20T12:56:59.000Z</time>
      </trkpt>
      <trkpt lat="43.91634" lon="7.50975">
        <ele>675</ele>
        <time>2021-02-20T12:57:00.000Z</time>
      </trkpt>
      <trkpt lat="43.91629" lon="7.50977">
        <ele>674.20001220703</ele>
        <time>2021-02-20T12:57:01.000Z</time>
      </trkpt>
      <trkpt lat="43.91621" lon="7.5098">
        <ele>673</ele>
        <time>2021-02-20T12:57:03.000Z</time>
      </trkpt>
      <trkpt lat="43.91617" lon="7.50983">
        <ele>672</ele>
        <time>2021-02-20T12:57:04.000Z</time>
      </trkpt>
      <trkpt lat="43.91614" lon="7.50985">
        <ele>671.59997558594</ele>
        <time>2021-02-20T12:57:05.000Z</time>
      </trkpt>
      <trkpt lat="43.91607" lon="7.50989">
        <ele>670</ele>
        <time>2021-02-20T12:57:07.000Z</time>
      </trkpt>
      <trkpt lat="43.91602" lon="7.5099">
        <ele>668</ele>
        <time>2021-02-20T12:57:09.000Z</time>
      </trkpt>
      <trkpt lat="43.91598" lon="7.50995">
        <ele>666.59997558594</ele>
        <time>2021-02-20T12:57:11.000Z</time>
      </trkpt>
      <trkpt lat="43.91595" lon="7.50995">
        <ele>665.20001220703</ele>
        <time>2021-02-20T12:57:12.000Z</time>
      </trkpt>
      <trkpt lat="43.91592" lon="7.50995">
        <ele>664.40002441406</ele>
        <time>2021-02-20T12:57:13.000Z</time>
      </trkpt>
      <trkpt lat="43.91589" lon="7.50993">
        <ele>663.40002441406</ele>
        <time>2021-02-20T12:57:14.000Z</time>
      </trkpt>
      <trkpt lat="43.91588" lon="7.50991">
        <ele>662.40002441406</ele>
        <time>2021-02-20T12:57:15.000Z</time>
      </trkpt>
      <trkpt lat="43.91586" lon="7.5099">
        <ele>660.79998779297</ele>
        <time>2021-02-20T12:57:16.000Z</time>
      </trkpt>
      <trkpt lat="43.91585" lon="7.50991">
        <ele>659.59997558594</ele>
        <time>2021-02-20T12:57:17.000Z</time>
      </trkpt>
      <trkpt lat="43.91579" lon="7.50993">
        <ele>657.79998779297</ele>
        <time>2021-02-20T12:57:19.000Z</time>
      </trkpt>
      <trkpt lat="43.91576" lon="7.50993">
        <ele>656.79998779297</ele>
        <time>2021-02-20T12:57:20.000Z</time>
      </trkpt>
      <trkpt lat="43.91573" lon="7.50994">
        <ele>655.79998779297</ele>
        <time>2021-02-20T12:57:21.000Z</time>
      </trkpt>
      <trkpt lat="43.91568" lon="7.50997">
        <ele>654</ele>
        <time>2021-02-20T12:57:23.000Z</time>
      </trkpt>
      <trkpt lat="43.91565" lon="7.51">
        <ele>652.79998779297</ele>
        <time>2021-02-20T12:57:24.000Z</time>
      </trkpt>
      <trkpt lat="43.91562" lon="7.51003">
        <ele>652</ele>
        <time>2021-02-20T12:57:25.000Z</time>
      </trkpt>
      <trkpt lat="43.91558" lon="7.51007">
        <ele>651.20001220703</ele>
        <time>2021-02-20T12:57:26.000Z</time>
      </trkpt>
      <trkpt lat="43.91554" lon="7.51013">
        <ele>649.79998779297</ele>
        <time>2021-02-20T12:57:28.000Z</time>
      </trkpt>
      <trkpt lat="43.91551" lon="7.51013">
        <ele>649</ele>
        <time>2021-02-20T12:57:29.000Z</time>
      </trkpt>
      <trkpt lat="43.91549" lon="7.51012">
        <ele>648.20001220703</ele>
        <time>2021-02-20T12:57:30.000Z</time>
      </trkpt>
      <trkpt lat="43.91544" lon="7.51007">
        <ele>646.40002441406</ele>
        <time>2021-02-20T12:57:32.000Z</time>
      </trkpt>
      <trkpt lat="43.91543" lon="7.51003">
        <ele>645</ele>
        <time>2021-02-20T12:57:33.000Z</time>
      </trkpt>
      <trkpt lat="43.91542" lon="7.51">
        <ele>643.59997558594</ele>
        <time>2021-02-20T12:57:34.000Z</time>
      </trkpt>
      <trkpt lat="43.91542" lon="7.50995">
        <ele>642.40002441406</ele>
        <time>2021-02-20T12:57:35.000Z</time>
      </trkpt>
      <trkpt lat="43.91542" lon="7.50989">
        <ele>641.40002441406</ele>
        <time>2021-02-20T12:57:36.000Z</time>
      </trkpt>
      <trkpt lat="43.91543" lon="7.50985">
        <ele>640.20001220703</ele>
        <time>2021-02-20T12:57:37.000Z</time>
      </trkpt>
      <trkpt lat="43.91544" lon="7.50981">
        <ele>639.20001220703</ele>
        <time>2021-02-20T12:57:38.000Z</time>
      </trkpt>
      <trkpt lat="43.91548" lon="7.50971">
        <ele>637.59997558594</ele>
        <time>2021-02-20T12:57:40.000Z</time>
      </trkpt>
      <trkpt lat="43.9155" lon="7.50968">
        <ele>637</ele>
        <time>2021-02-20T12:57:41.000Z</time>
      </trkpt>
      <trkpt lat="43.91553" lon="7.50961">
        <ele>636.59997558594</ele>
        <time>2021-02-20T12:57:43.000Z</time>
      </trkpt>
      <trkpt lat="43.91552" lon="7.50957">
        <ele>636.59997558594</ele>
        <time>2021-02-20T12:57:44.000Z</time>
      </trkpt>
      <trkpt lat="43.91545" lon="7.50956">
        <ele>636</ele>
        <time>2021-02-20T12:57:47.000Z</time>
      </trkpt>
      <trkpt lat="43.91542" lon="7.50956">
        <ele>635.40002441406</ele>
        <time>2021-02-20T12:57:48.000Z</time>
      </trkpt>
      <trkpt lat="43.91539" lon="7.50954">
        <ele>633.59997558594</ele>
        <time>2021-02-20T12:57:50.000Z</time>
      </trkpt>
      <trkpt lat="43.91537" lon="7.50952">
        <ele>632.40002441406</ele>
        <time>2021-02-20T12:57:51.000Z</time>
      </trkpt>
      <trkpt lat="43.91536" lon="7.50949">
        <ele>631.20001220703</ele>
        <time>2021-02-20T12:57:52.000Z</time>
      </trkpt>
      <trkpt lat="43.91537" lon="7.50943">
        <ele>629.79998779297</ele>
        <time>2021-02-20T12:57:54.000Z</time>
      </trkpt>
      <trkpt lat="43.91537" lon="7.5094">
        <ele>629.20001220703</ele>
        <time>2021-02-20T12:57:55.000Z</time>
      </trkpt>
      <trkpt lat="43.91537" lon="7.50938">
        <ele>628.59997558594</ele>
        <time>2021-02-20T12:57:56.000Z</time>
      </trkpt>
      <trkpt lat="43.91535" lon="7.50938">
        <ele>628</ele>
        <time>2021-02-20T12:57:58.000Z</time>
      </trkpt>
      <trkpt lat="43.91534" lon="7.50938">
        <ele>627.79998779297</ele>
        <time>2021-02-20T12:57:59.000Z</time>
      </trkpt>
      <trkpt lat="43.91533" lon="7.50939">
        <ele>627.40002441406</ele>
        <time>2021-02-20T12:58:00.000Z</time>
      </trkpt>
      <trkpt lat="43.91526" lon="7.50943">
        <ele>626.20001220703</ele>
        <time>2021-02-20T12:58:03.000Z</time>
      </trkpt>
      <trkpt lat="43.91524" lon="7.50945">
        <ele>625.59997558594</ele>
        <time>2021-02-20T12:58:04.000Z</time>
      </trkpt>
      <trkpt lat="43.91522" lon="7.50946">
        <ele>625</ele>
        <time>2021-02-20T12:58:05.000Z</time>
      </trkpt>
      <trkpt lat="43.91516" lon="7.50949">
        <ele>623.59997558594</ele>
        <time>2021-02-20T12:58:07.000Z</time>
      </trkpt>
      <trkpt lat="43.91513" lon="7.5095">
        <ele>622.79998779297</ele>
        <time>2021-02-20T12:58:08.000Z</time>
      </trkpt>
      <trkpt lat="43.9151" lon="7.50951">
        <ele>621.79998779297</ele>
        <time>2021-02-20T12:58:09.000Z</time>
      </trkpt>
      <trkpt lat="43.91503" lon="7.50952">
        <ele>620</ele>
        <time>2021-02-20T12:58:11.000Z</time>
      </trkpt>
      <trkpt lat="43.91498" lon="7.50954">
        <ele>618</ele>
        <time>2021-02-20T12:58:13.000Z</time>
      </trkpt>
      <trkpt lat="43.91495" lon="7.50953">
        <ele>616.79998779297</ele>
        <time>2021-02-20T12:58:14.000Z</time>
      </trkpt>
      <trkpt lat="43.9149" lon="7.50944">
        <ele>615.20001220703</ele>
        <time>2021-02-20T12:58:16.000Z</time>
      </trkpt>
      <trkpt lat="43.91486" lon="7.50936">
        <ele>613.20001220703</ele>
        <time>2021-02-20T12:58:18.000Z</time>
      </trkpt>
      <trkpt lat="43.91485" lon="7.50933">
        <ele>612</ele>
        <time>2021-02-20T12:58:19.000Z</time>
      </trkpt>
      <trkpt lat="43.91483" lon="7.50932">
        <ele>610.79998779297</ele>
        <time>2021-02-20T12:58:20.000Z</time>
      </trkpt>
      <trkpt lat="43.91481" lon="7.5093">
        <ele>609.59997558594</ele>
        <time>2021-02-20T12:58:21.000Z</time>
      </trkpt>
      <trkpt lat="43.91479" lon="7.50927">
        <ele>608.59997558594</ele>
        <time>2021-02-20T12:58:22.000Z</time>
      </trkpt>
      <trkpt lat="43.91481" lon="7.50922">
        <ele>607.20001220703</ele>
        <time>2021-02-20T12:58:24.000Z</time>
      </trkpt>
      <trkpt lat="43.91484" lon="7.50919">
        <ele>606</ele>
        <time>2021-02-20T12:58:26.000Z</time>
      </trkpt>
      <trkpt lat="43.91484" lon="7.50919">
        <ele>604.40002441406</ele>
        <time>2021-02-20T12:58:28.000Z</time>
      </trkpt>
      <trkpt lat="43.91484" lon="7.50919">
        <ele>604</ele>
        <time>2021-02-20T12:58:29.000Z</time>
      </trkpt>
      <trkpt lat="43.91485" lon="7.50919">
        <ele>603.79998779297</ele>
        <time>2021-02-20T12:58:36.000Z</time>
      </trkpt>
      <trkpt lat="43.91485" lon="7.50919">
        <ele>603.40002441406</ele>
        <time>2021-02-20T12:58:41.000Z</time>
      </trkpt>
      <trkpt lat="43.91485" lon="7.50919">
        <ele>603.59997558594</ele>
        <time>2021-02-20T12:58:43.000Z</time>
      </trkpt>
      <trkpt lat="43.91486" lon="7.50918">
        <ele>603.59997558594</ele>
        <time>2021-02-20T12:58:49.000Z</time>
      </trkpt>
      <trkpt lat="43.91485" lon="7.50918">
        <ele>603.20001220703</ele>
        <time>2021-02-20T12:58:51.000Z</time>
      </trkpt>
      <trkpt lat="43.91485" lon="7.50918">
        <ele>603</ele>
        <time>2021-02-20T12:58:53.000Z</time>
      </trkpt>
      <trkpt lat="43.91486" lon="7.50919">
        <ele>603.79998779297</ele>
        <time>2021-02-20T12:59:01.000Z</time>
      </trkpt>
      <trkpt lat="43.91486" lon="7.5092">
        <ele>603.59997558594</ele>
        <time>2021-02-20T12:59:11.000Z</time>
      </trkpt>
      <trkpt lat="43.91487" lon="7.50919">
        <ele>603.40002441406</ele>
        <time>2021-02-20T12:59:13.000Z</time>
      </trkpt>
      <trkpt lat="43.91487" lon="7.5092">
        <ele>603.20001220703</ele>
        <time>2021-02-20T12:59:16.000Z</time>
      </trkpt>
      <trkpt lat="43.91486" lon="7.50919">
        <ele>603</ele>
        <time>2021-02-20T12:59:26.000Z</time>
      </trkpt>
      <trkpt lat="43.91486" lon="7.50919">
        <ele>603.20001220703</ele>
        <time>2021-02-20T12:59:33.000Z</time>
      </trkpt>
      <trkpt lat="43.91487" lon="7.50918">
        <ele>603.20001220703</ele>
        <time>2021-02-20T12:59:43.000Z</time>
      </trkpt>
      <trkpt lat="43.91488" lon="7.50918">
        <ele>602.79998779297</ele>
        <time>2021-02-20T12:59:54.000Z</time>
      </trkpt>
      <trkpt lat="43.91487" lon="7.50918">
        <ele>602.59997558594</ele>
        <time>2021-02-20T13:00:02.000Z</time>
      </trkpt>
      <trkpt lat="43.91487" lon="7.50918">
        <ele>602.40002441406</ele>
        <time>2021-02-20T13:00:13.000Z</time>
      </trkpt>
      <trkpt lat="43.91487" lon="7.50918">
        <ele>602.20001220703</ele>
        <time>2021-02-20T13:00:14.000Z</time>
      </trkpt>
      <trkpt lat="43.91486" lon="7.50919">
        <ele>602</ele>
        <time>2021-02-20T13:00:20.000Z</time>
      </trkpt>
      <trkpt lat="43.91486" lon="7.50919">
        <ele>601.59997558594</ele>
        <time>2021-02-20T13:00:28.000Z</time>
      </trkpt>
      <trkpt lat="43.91486" lon="7.50919">
        <ele>602.40002441406</ele>
        <time>2021-02-20T13:00:36.000Z</time>
      </trkpt>
      <trkpt lat="43.91486" lon="7.50918">
        <ele>602</ele>
        <time>2021-02-20T13:00:47.000Z</time>
      </trkpt>
      <trkpt lat="43.91486" lon="7.50919">
        <ele>602.40002441406</ele>
        <time>2021-02-20T13:00:57.000Z</time>
      </trkpt>
      <trkpt lat="43.91486" lon="7.50919">
        <ele>602.59997558594</ele>
        <time>2021-02-20T13:01:04.000Z</time>
      </trkpt>
      <trkpt lat="43.91487" lon="7.5092">
        <ele>602.20001220703</ele>
        <time>2021-02-20T13:01:19.000Z</time>
      </trkpt>
      <trkpt lat="43.91487" lon="7.50919">
        <ele>602.40002441406</ele>
        <time>2021-02-20T13:01:31.000Z</time>
      </trkpt>
      <trkpt lat="43.91487" lon="7.5092">
        <ele>602.59997558594</ele>
        <time>2021-02-20T13:01:43.000Z</time>
      </trkpt>
      <trkpt lat="43.91487" lon="7.5092">
        <ele>602.40002441406</ele>
        <time>2021-02-20T13:01:55.000Z</time>
      </trkpt>
      <trkpt lat="43.91487" lon="7.5092">
        <ele>602.59997558594</ele>
        <time>2021-02-20T13:02:05.000Z</time>
      </trkpt>
      <trkpt lat="43.91486" lon="7.50919">
        <ele>602.40002441406</ele>
        <time>2021-02-20T13:02:12.000Z</time>
      </trkpt>
      <trkpt lat="43.91486" lon="7.5092">
        <ele>602.59997558594</ele>
        <time>2021-02-20T13:02:21.000Z</time>
      </trkpt>
      <trkpt lat="43.91485" lon="7.5092">
        <ele>602.59997558594</ele>
        <time>2021-02-20T13:02:32.000Z</time>
      </trkpt>
      <trkpt lat="43.91485" lon="7.50922">
        <ele>602.40002441406</ele>
        <time>2021-02-20T13:02:45.000Z</time>
      </trkpt>
      <trkpt lat="43.91485" lon="7.50921">
        <ele>602.40002441406</ele>
        <time>2021-02-20T13:02:56.000Z</time>
      </trkpt>
      <trkpt lat="43.91484" lon="7.50922">
        <ele>602.40002441406</ele>
        <time>2021-02-20T13:03:11.000Z</time>
      </trkpt>
      <trkpt lat="43.91484" lon="7.50923">
        <ele>602.40002441406</ele>
        <time>2021-02-20T13:03:18.000Z</time>
      </trkpt>
      <trkpt lat="43.91484" lon="7.50922">
        <ele>602.59997558594</ele>
        <time>2021-02-20T13:03:29.000Z</time>
      </trkpt>
      <trkpt lat="43.91484" lon="7.50924">
        <ele>602.40002441406</ele>
        <time>2021-02-20T13:03:35.000Z</time>
      </trkpt>
      <trkpt lat="43.91484" lon="7.50923">
        <ele>602.59997558594</ele>
        <time>2021-02-20T13:03:47.000Z</time>
      </trkpt>
      <trkpt lat="43.91485" lon="7.50922">
        <ele>602.59997558594</ele>
        <time>2021-02-20T13:04:05.000Z</time>
      </trkpt>
      <trkpt lat="43.91485" lon="7.50923">
        <ele>603</ele>
        <time>2021-02-20T13:04:22.000Z</time>
      </trkpt>
      <trkpt lat="43.91485" lon="7.50923">
        <ele>602.59997558594</ele>
        <time>2021-02-20T13:04:38.000Z</time>
      </trkpt>
      <trkpt lat="43.91485" lon="7.50922">
        <ele>602.59997558594</ele>
        <time>2021-02-20T13:04:49.000Z</time>
      </trkpt>
      <trkpt lat="43.91483" lon="7.50924">
        <ele>602.79998779297</ele>
        <time>2021-02-20T13:04:56.000Z</time>
      </trkpt>
      <trkpt lat="43.91483" lon="7.50923">
        <ele>603</ele>
        <time>2021-02-20T13:05:00.000Z</time>
      </trkpt>
      <trkpt lat="43.91484" lon="7.50923">
        <ele>603.20001220703</ele>
        <time>2021-02-20T13:05:01.000Z</time>
      </trkpt>
      <trkpt lat="43.91484" lon="7.50922">
        <ele>603.20001220703</ele>
        <time>2021-02-20T13:05:02.000Z</time>
      </trkpt>
      <trkpt lat="43.91485" lon="7.50921">
        <ele>603</ele>
        <time>2021-02-20T13:05:06.000Z</time>
      </trkpt>
      <trkpt lat="43.91485" lon="7.5092">
        <ele>602.59997558594</ele>
        <time>2021-02-20T13:05:20.000Z</time>
      </trkpt>
      <trkpt lat="43.91485" lon="7.50919">
        <ele>602.79998779297</ele>
        <time>2021-02-20T13:05:30.000Z</time>
      </trkpt>
      <trkpt lat="43.91485" lon="7.50919">
        <ele>602.20001220703</ele>
        <time>2021-02-20T13:05:39.000Z</time>
      </trkpt>
      <trkpt lat="43.91486" lon="7.50918">
        <ele>602</ele>
        <time>2021-02-20T13:05:52.000Z</time>
      </trkpt>
      <trkpt lat="43.91486" lon="7.50917">
        <ele>601.20001220703</ele>
        <time>2021-02-20T13:06:04.000Z</time>
      </trkpt>
      <trkpt lat="43.91485" lon="7.50917">
        <ele>601.40002441406</ele>
        <time>2021-02-20T13:06:09.000Z</time>
      </trkpt>
      <trkpt lat="43.91486" lon="7.50917">
        <ele>601.40002441406</ele>
        <time>2021-02-20T13:06:18.000Z</time>
      </trkpt>
      <trkpt lat="43.91484" lon="7.50915">
        <ele>601.40002441406</ele>
        <time>2021-02-20T13:06:30.000Z</time>
      </trkpt>
      <trkpt lat="43.91485" lon="7.50916">
        <ele>601.20001220703</ele>
        <time>2021-02-20T13:06:41.000Z</time>
      </trkpt>
      <trkpt lat="43.91484" lon="7.50916">
        <ele>601.20001220703</ele>
        <time>2021-02-20T13:06:55.000Z</time>
      </trkpt>
      <trkpt lat="43.91484" lon="7.50915">
        <ele>601</ele>
        <time>2021-02-20T13:07:10.000Z</time>
      </trkpt>
      <trkpt lat="43.91483" lon="7.50914">
        <ele>600.79998779297</ele>
        <time>2021-02-20T13:07:23.000Z</time>
      </trkpt>
      <trkpt lat="43.91484" lon="7.50914">
        <ele>601</ele>
        <time>2021-02-20T13:07:37.000Z</time>
      </trkpt>
      <trkpt lat="43.91484" lon="7.50914">
        <ele>600.59997558594</ele>
        <time>2021-02-20T13:07:51.000Z</time>
      </trkpt>
      <trkpt lat="43.91485" lon="7.50915">
        <ele>600.59997558594</ele>
        <time>2021-02-20T13:08:05.000Z</time>
      </trkpt>
      <trkpt lat="43.91485" lon="7.50915">
        <ele>600.59997558594</ele>
        <time>2021-02-20T13:08:20.000Z</time>
      </trkpt>
      <trkpt lat="43.91485" lon="7.50915">
        <ele>600.59997558594</ele>
        <time>2021-02-20T13:08:36.000Z</time>
      </trkpt>
      <trkpt lat="43.91485" lon="7.50914">
        <ele>600.59997558594</ele>
        <time>2021-02-20T13:08:46.000Z</time>
      </trkpt>
      <trkpt lat="43.91486" lon="7.50917">
        <ele>600.40002441406</ele>
        <time>2021-02-20T13:08:56.000Z</time>
      </trkpt>
      <trkpt lat="43.91486" lon="7.50917">
        <ele>600.59997558594</ele>
        <time>2021-02-20T13:09:07.000Z</time>
      </trkpt>
      <trkpt lat="43.91486" lon="7.50917">
        <ele>600.40002441406</ele>
        <time>2021-02-20T13:09:19.000Z</time>
      </trkpt>
      <trkpt lat="43.91486" lon="7.50917">
        <ele>600.40002441406</ele>
        <time>2021-02-20T13:09:32.000Z</time>
      </trkpt>
      <trkpt lat="43.91485" lon="7.50916">
        <ele>600.59997558594</ele>
        <time>2021-02-20T13:09:42.000Z</time>
      </trkpt>
      <trkpt lat="43.91485" lon="7.50916">
        <ele>600.79998779297</ele>
        <time>2021-02-20T13:09:48.000Z</time>
      </trkpt>
      <trkpt lat="43.91484" lon="7.50916">
        <ele>600.59997558594</ele>
        <time>2021-02-20T13:10:03.000Z</time>
      </trkpt>
      <trkpt lat="43.91483" lon="7.50917">
        <ele>600.59997558594</ele>
        <time>2021-02-20T13:10:15.000Z</time>
      </trkpt>
      <trkpt lat="43.91482" lon="7.50916">
        <ele>600.40002441406</ele>
        <time>2021-02-20T13:10:22.000Z</time>
      </trkpt>
      <trkpt lat="43.91482" lon="7.50915">
        <ele>600.20001220703</ele>
        <time>2021-02-20T13:10:23.000Z</time>
      </trkpt>
      <trkpt lat="43.91481" lon="7.50915">
        <ele>600.40002441406</ele>
        <time>2021-02-20T13:10:30.000Z</time>
      </trkpt>
      <trkpt lat="43.91475" lon="7.50913">
        <ele>600.59997558594</ele>
        <time>2021-02-20T13:10:33.000Z</time>
      </trkpt>
      <trkpt lat="43.91473" lon="7.50914">
        <ele>600.40002441406</ele>
        <time>2021-02-20T13:10:34.000Z</time>
      </trkpt>
      <trkpt lat="43.91466" lon="7.50919">
        <ele>599.40002441406</ele>
        <time>2021-02-20T13:10:38.000Z</time>
      </trkpt>
      <trkpt lat="43.91464" lon="7.50922">
        <ele>599</ele>
        <time>2021-02-20T13:10:39.000Z</time>
      </trkpt>
      <trkpt lat="43.9146" lon="7.50927">
        <ele>597.79998779297</ele>
        <time>2021-02-20T13:10:41.000Z</time>
      </trkpt>
      <trkpt lat="43.91457" lon="7.50929">
        <ele>597</ele>
        <time>2021-02-20T13:10:42.000Z</time>
      </trkpt>
      <trkpt lat="43.91455" lon="7.50932">
        <ele>596</ele>
        <time>2021-02-20T13:10:43.000Z</time>
      </trkpt>
      <trkpt lat="43.91452" lon="7.50939">
        <ele>593.79998779297</ele>
        <time>2021-02-20T13:10:45.000Z</time>
      </trkpt>
      <trkpt lat="43.91448" lon="7.50945">
        <ele>592</ele>
        <time>2021-02-20T13:10:47.000Z</time>
      </trkpt>
      <trkpt lat="43.91444" lon="7.50949">
        <ele>590.40002441406</ele>
        <time>2021-02-20T13:10:49.000Z</time>
      </trkpt>
      <trkpt lat="43.9144" lon="7.50954">
        <ele>589</ele>
        <time>2021-02-20T13:10:51.000Z</time>
      </trkpt>
      <trkpt lat="43.91438" lon="7.5095">
        <ele>587.59997558594</ele>
        <time>2021-02-20T13:10:53.000Z</time>
      </trkpt>
      <trkpt lat="43.91436" lon="7.50948">
        <ele>587</ele>
        <time>2021-02-20T13:10:54.000Z</time>
      </trkpt>
      <trkpt lat="43.91432" lon="7.50948">
        <ele>586.40002441406</ele>
        <time>2021-02-20T13:10:55.000Z</time>
      </trkpt>
      <trkpt lat="43.91425" lon="7.50949">
        <ele>585.40002441406</ele>
        <time>2021-02-20T13:10:57.000Z</time>
      </trkpt>
      <trkpt lat="43.91417" lon="7.50951">
        <ele>583.40002441406</ele>
        <time>2021-02-20T13:10:59.000Z</time>
      </trkpt>
      <trkpt lat="43.91415" lon="7.50949">
        <ele>582</ele>
        <time>2021-02-20T13:11:00.000Z</time>
      </trkpt>
      <trkpt lat="43.91414" lon="7.50947">
        <ele>580.59997558594</ele>
        <time>2021-02-20T13:11:01.000Z</time>
      </trkpt>
      <trkpt lat="43.91413" lon="7.50945">
        <ele>579.20001220703</ele>
        <time>2021-02-20T13:11:02.000Z</time>
      </trkpt>
      <trkpt lat="43.91411" lon="7.50943">
        <ele>577.59997558594</ele>
        <time>2021-02-20T13:11:03.000Z</time>
      </trkpt>
      <trkpt lat="43.91409" lon="7.50943">
        <ele>576.40002441406</ele>
        <time>2021-02-20T13:11:04.000Z</time>
      </trkpt>
      <trkpt lat="43.91407" lon="7.50942">
        <ele>575.79998779297</ele>
        <time>2021-02-20T13:11:05.000Z</time>
      </trkpt>
      <trkpt lat="43.91404" lon="7.50941">
        <ele>575</ele>
        <time>2021-02-20T13:11:06.000Z</time>
      </trkpt>
      <trkpt lat="43.91398" lon="7.50941">
        <ele>573.79998779297</ele>
        <time>2021-02-20T13:11:08.000Z</time>
      </trkpt>
      <trkpt lat="43.91392" lon="7.5094">
        <ele>572</ele>
        <time>2021-02-20T13:11:10.000Z</time>
      </trkpt>
      <trkpt lat="43.91391" lon="7.50941">
        <ele>571.20001220703</ele>
        <time>2021-02-20T13:11:11.000Z</time>
      </trkpt>
      <trkpt lat="43.9139" lon="7.50942">
        <ele>570.40002441406</ele>
        <time>2021-02-20T13:11:12.000Z</time>
      </trkpt>
      <trkpt lat="43.9139" lon="7.50944">
        <ele>569.40002441406</ele>
        <time>2021-02-20T13:11:13.000Z</time>
      </trkpt>
      <trkpt lat="43.91389" lon="7.50947">
        <ele>568.59997558594</ele>
        <time>2021-02-20T13:11:14.000Z</time>
      </trkpt>
      <trkpt lat="43.91388" lon="7.50951">
        <ele>567.40002441406</ele>
        <time>2021-02-20T13:11:15.000Z</time>
      </trkpt>
      <trkpt lat="43.91388" lon="7.50955">
        <ele>566.20001220703</ele>
        <time>2021-02-20T13:11:16.000Z</time>
      </trkpt>
      <trkpt lat="43.91389" lon="7.5096">
        <ele>565</ele>
        <time>2021-02-20T13:11:17.000Z</time>
      </trkpt>
      <trkpt lat="43.9139" lon="7.50965">
        <ele>563.79998779297</ele>
        <time>2021-02-20T13:11:18.000Z</time>
      </trkpt>
      <trkpt lat="43.91392" lon="7.50969">
        <ele>562.79998779297</ele>
        <time>2021-02-20T13:11:19.000Z</time>
      </trkpt>
      <trkpt lat="43.91395" lon="7.50975">
        <ele>560.59997558594</ele>
        <time>2021-02-20T13:11:21.000Z</time>
      </trkpt>
      <trkpt lat="43.91403" lon="7.50985">
        <ele>559.79998779297</ele>
        <time>2021-02-20T13:11:24.000Z</time>
      </trkpt>
      <trkpt lat="43.91405" lon="7.5099">
        <ele>559.79998779297</ele>
        <time>2021-02-20T13:11:25.000Z</time>
      </trkpt>
      <trkpt lat="43.91407" lon="7.50994">
        <ele>559.40002441406</ele>
        <time>2021-02-20T13:11:26.000Z</time>
      </trkpt>
      <trkpt lat="43.91411" lon="7.51">
        <ele>558.79998779297</ele>
        <time>2021-02-20T13:11:28.000Z</time>
      </trkpt>
      <trkpt lat="43.91411" lon="7.51003">
        <ele>558.40002441406</ele>
        <time>2021-02-20T13:11:29.000Z</time>
      </trkpt>
      <trkpt lat="43.91407" lon="7.51007">
        <ele>557.20001220703</ele>
        <time>2021-02-20T13:11:31.000Z</time>
      </trkpt>
      <trkpt lat="43.91405" lon="7.51012">
        <ele>556.20001220703</ele>
        <time>2021-02-20T13:11:33.000Z</time>
      </trkpt>
      <trkpt lat="43.91404" lon="7.51016">
        <ele>555.59997558594</ele>
        <time>2021-02-20T13:11:34.000Z</time>
      </trkpt>
      <trkpt lat="43.91403" lon="7.51019">
        <ele>554.79998779297</ele>
        <time>2021-02-20T13:11:35.000Z</time>
      </trkpt>
      <trkpt lat="43.91401" lon="7.51023">
        <ele>553.59997558594</ele>
        <time>2021-02-20T13:11:37.000Z</time>
      </trkpt>
      <trkpt lat="43.91401" lon="7.51024">
        <ele>553</ele>
        <time>2021-02-20T13:11:38.000Z</time>
      </trkpt>
      <trkpt lat="43.914" lon="7.51027">
        <ele>552.40002441406</ele>
        <time>2021-02-20T13:11:39.000Z</time>
      </trkpt>
      <trkpt lat="43.91395" lon="7.51037">
        <ele>551.79998779297</ele>
        <time>2021-02-20T13:11:41.000Z</time>
      </trkpt>
      <trkpt lat="43.91392" lon="7.51044">
        <ele>551.20001220703</ele>
        <time>2021-02-20T13:11:42.000Z</time>
      </trkpt>
      <trkpt lat="43.9139" lon="7.51055">
        <ele>549.59997558594</ele>
        <time>2021-02-20T13:11:44.000Z</time>
      </trkpt>
      <trkpt lat="43.91388" lon="7.51059">
        <ele>549</ele>
        <time>2021-02-20T13:11:45.000Z</time>
      </trkpt>
      <trkpt lat="43.91385" lon="7.51062">
        <ele>548.40002441406</ele>
        <time>2021-02-20T13:11:46.000Z</time>
      </trkpt>
      <trkpt lat="43.91378" lon="7.51066">
        <ele>547.59997558594</ele>
        <time>2021-02-20T13:11:48.000Z</time>
      </trkpt>
      <trkpt lat="43.91374" lon="7.51069">
        <ele>547.20001220703</ele>
        <time>2021-02-20T13:11:49.000Z</time>
      </trkpt>
      <trkpt lat="43.91366" lon="7.51076">
        <ele>546</ele>
        <time>2021-02-20T13:11:51.000Z</time>
      </trkpt>
      <trkpt lat="43.91362" lon="7.51079">
        <ele>544.79998779297</ele>
        <time>2021-02-20T13:11:52.000Z</time>
      </trkpt>
      <trkpt lat="43.91358" lon="7.51082">
        <ele>543.40002441406</ele>
        <time>2021-02-20T13:11:53.000Z</time>
      </trkpt>
      <trkpt lat="43.91355" lon="7.51086">
        <ele>542.20001220703</ele>
        <time>2021-02-20T13:11:54.000Z</time>
      </trkpt>
      <trkpt lat="43.91352" lon="7.51089">
        <ele>541.40002441406</ele>
        <time>2021-02-20T13:11:55.000Z</time>
      </trkpt>
      <trkpt lat="43.91348" lon="7.51091">
        <ele>540.59997558594</ele>
        <time>2021-02-20T13:11:56.000Z</time>
      </trkpt>
      <trkpt lat="43.91335" lon="7.51099">
        <ele>539.40002441406</ele>
        <time>2021-02-20T13:12:00.000Z</time>
      </trkpt>
      <trkpt lat="43.91322" lon="7.51107">
        <ele>538.40002441406</ele>
        <time>2021-02-20T13:12:03.000Z</time>
      </trkpt>
      <trkpt lat="43.91319" lon="7.51109">
        <ele>537.59997558594</ele>
        <time>2021-02-20T13:12:04.000Z</time>
      </trkpt>
      <trkpt lat="43.91315" lon="7.51109">
        <ele>537.20001220703</ele>
        <time>2021-02-20T13:12:05.000Z</time>
      </trkpt>
      <trkpt lat="43.91307" lon="7.51111">
        <ele>535.79998779297</ele>
        <time>2021-02-20T13:12:07.000Z</time>
      </trkpt>
      <trkpt lat="43.91303" lon="7.51113">
        <ele>534.40002441406</ele>
        <time>2021-02-20T13:12:09.000Z</time>
      </trkpt>
      <trkpt lat="43.91302" lon="7.51115">
        <ele>533.20001220703</ele>
        <time>2021-02-20T13:12:10.000Z</time>
      </trkpt>
      <trkpt lat="43.91295" lon="7.51121">
        <ele>531.40002441406</ele>
        <time>2021-02-20T13:12:12.000Z</time>
      </trkpt>
      <trkpt lat="43.91292" lon="7.51123">
        <ele>530.79998779297</ele>
        <time>2021-02-20T13:12:13.000Z</time>
      </trkpt>
      <trkpt lat="43.91289" lon="7.51124">
        <ele>529.79998779297</ele>
        <time>2021-02-20T13:12:14.000Z</time>
      </trkpt>
      <trkpt lat="43.9128" lon="7.51127">
        <ele>529</ele>
        <time>2021-02-20T13:12:17.000Z</time>
      </trkpt>
      <trkpt lat="43.91278" lon="7.51128">
        <ele>528.40002441406</ele>
        <time>2021-02-20T13:12:18.000Z</time>
      </trkpt>
      <trkpt lat="43.91277" lon="7.51129">
        <ele>528</ele>
        <time>2021-02-20T13:12:19.000Z</time>
      </trkpt>
      <trkpt lat="43.91277" lon="7.51131">
        <ele>527.40002441406</ele>
        <time>2021-02-20T13:12:20.000Z</time>
      </trkpt>
      <trkpt lat="43.91275" lon="7.51134">
        <ele>527</ele>
        <time>2021-02-20T13:12:21.000Z</time>
      </trkpt>
      <trkpt lat="43.91274" lon="7.51135">
        <ele>526.40002441406</ele>
        <time>2021-02-20T13:12:22.000Z</time>
      </trkpt>
      <trkpt lat="43.91275" lon="7.51136">
        <ele>526</ele>
        <time>2021-02-20T13:12:25.000Z</time>
      </trkpt>
      <trkpt lat="43.91274" lon="7.51142">
        <ele>525.79998779297</ele>
        <time>2021-02-20T13:12:36.000Z</time>
      </trkpt>
      <trkpt lat="43.91272" lon="7.51146">
        <ele>525.79998779297</ele>
        <time>2021-02-20T13:12:38.000Z</time>
      </trkpt>
      <trkpt lat="43.9127" lon="7.51156">
        <ele>525.79998779297</ele>
        <time>2021-02-20T13:12:41.000Z</time>
      </trkpt>
      <trkpt lat="43.91271" lon="7.51166">
        <ele>525.40002441406</ele>
        <time>2021-02-20T13:12:45.000Z</time>
      </trkpt>
      <trkpt lat="43.91272" lon="7.51169">
        <ele>524.79998779297</ele>
        <time>2021-02-20T13:12:54.000Z</time>
      </trkpt>
      <trkpt lat="43.91273" lon="7.51179">
        <ele>524.20001220703</ele>
        <time>2021-02-20T13:12:58.000Z</time>
      </trkpt>
      <trkpt lat="43.91273" lon="7.5118">
        <ele>523.79998779297</ele>
        <time>2021-02-20T13:12:59.000Z</time>
      </trkpt>
      <trkpt lat="43.91275" lon="7.51186">
        <ele>522.59997558594</ele>
        <time>2021-02-20T13:13:02.000Z</time>
      </trkpt>
      <trkpt lat="43.91273" lon="7.51188">
        <ele>521.40002441406</ele>
        <time>2021-02-20T13:13:04.000Z</time>
      </trkpt>
      <trkpt lat="43.91267" lon="7.51186">
        <ele>520.20001220703</ele>
        <time>2021-02-20T13:13:06.000Z</time>
      </trkpt>
      <trkpt lat="43.9126" lon="7.51185">
        <ele>518.59997558594</ele>
        <time>2021-02-20T13:13:08.000Z</time>
      </trkpt>
      <trkpt lat="43.91256" lon="7.51186">
        <ele>517.79998779297</ele>
        <time>2021-02-20T13:13:09.000Z</time>
      </trkpt>
      <trkpt lat="43.91252" lon="7.51185">
        <ele>517.20001220703</ele>
        <time>2021-02-20T13:13:10.000Z</time>
      </trkpt>
      <trkpt lat="43.91246" lon="7.51186">
        <ele>515.40002441406</ele>
        <time>2021-02-20T13:13:12.000Z</time>
      </trkpt>
      <trkpt lat="43.91242" lon="7.51189">
        <ele>513.79998779297</ele>
        <time>2021-02-20T13:13:14.000Z</time>
      </trkpt>
      <trkpt lat="43.91239" lon="7.51189">
        <ele>512</ele>
        <time>2021-02-20T13:13:16.000Z</time>
      </trkpt>
      <trkpt lat="43.91236" lon="7.51192">
        <ele>510.39999389648</ele>
        <time>2021-02-20T13:13:18.000Z</time>
      </trkpt>
      <trkpt lat="43.91233" lon="7.51198">
        <ele>508.79998779297</ele>
        <time>2021-02-20T13:13:20.000Z</time>
      </trkpt>
      <trkpt lat="43.91232" lon="7.51202">
        <ele>507.20001220703</ele>
        <time>2021-02-20T13:13:22.000Z</time>
      </trkpt>
      <trkpt lat="43.91232" lon="7.51202">
        <ele>506.39999389648</ele>
        <time>2021-02-20T13:13:23.000Z</time>
      </trkpt>
      <trkpt lat="43.91232" lon="7.51202">
        <ele>505.39999389648</ele>
        <time>2021-02-20T13:13:24.000Z</time>
      </trkpt>
      <trkpt lat="43.91235" lon="7.51205">
        <ele>504.20001220703</ele>
        <time>2021-02-20T13:13:26.000Z</time>
      </trkpt>
      <trkpt lat="43.91238" lon="7.51209">
        <ele>503.60000610352</ele>
        <time>2021-02-20T13:13:28.000Z</time>
      </trkpt>
      <trkpt lat="43.91236" lon="7.51211">
        <ele>503.20001220703</ele>
        <time>2021-02-20T13:13:30.000Z</time>
      </trkpt>
      <trkpt lat="43.91235" lon="7.51212">
        <ele>502.39999389648</ele>
        <time>2021-02-20T13:13:31.000Z</time>
      </trkpt>
      <trkpt lat="43.91234" lon="7.51215">
        <ele>501.60000610352</ele>
        <time>2021-02-20T13:13:32.000Z</time>
      </trkpt>
      <trkpt lat="43.91232" lon="7.51219">
        <ele>500.60000610352</ele>
        <time>2021-02-20T13:13:34.000Z</time>
      </trkpt>
      <trkpt lat="43.9123" lon="7.51221">
        <ele>499.79998779297</ele>
        <time>2021-02-20T13:13:35.000Z</time>
      </trkpt>
      <trkpt lat="43.91223" lon="7.51225">
        <ele>499.39999389648</ele>
        <time>2021-02-20T13:13:37.000Z</time>
      </trkpt>
      <trkpt lat="43.91217" lon="7.51225">
        <ele>498</ele>
        <time>2021-02-20T13:13:39.000Z</time>
      </trkpt>
      <trkpt lat="43.91216" lon="7.51226">
        <ele>497.20001220703</ele>
        <time>2021-02-20T13:13:40.000Z</time>
      </trkpt>
      <trkpt lat="43.91214" lon="7.51228">
        <ele>497</ele>
        <time>2021-02-20T13:13:41.000Z</time>
      </trkpt>
      <trkpt lat="43.91208" lon="7.51237">
        <ele>496.60000610352</ele>
        <time>2021-02-20T13:13:43.000Z</time>
      </trkpt>
      <trkpt lat="43.91193" lon="7.51252">
        <ele>495.60000610352</ele>
        <time>2021-02-20T13:13:47.000Z</time>
      </trkpt>
      <trkpt lat="43.91191" lon="7.51255">
        <ele>495</ele>
        <time>2021-02-20T13:13:48.000Z</time>
      </trkpt>
      <trkpt lat="43.91191" lon="7.51259">
        <ele>494.60000610352</ele>
        <time>2021-02-20T13:13:49.000Z</time>
      </trkpt>
      <trkpt lat="43.91186" lon="7.51263">
        <ele>494</ele>
        <time>2021-02-20T13:13:51.000Z</time>
      </trkpt>
      <trkpt lat="43.91184" lon="7.51263">
        <ele>493.39999389648</ele>
        <time>2021-02-20T13:13:52.000Z</time>
      </trkpt>
      <trkpt lat="43.91182" lon="7.51265">
        <ele>493.20001220703</ele>
        <time>2021-02-20T13:13:53.000Z</time>
      </trkpt>
      <trkpt lat="43.91181" lon="7.51271">
        <ele>493.20001220703</ele>
        <time>2021-02-20T13:13:55.000Z</time>
      </trkpt>
      <trkpt lat="43.9118" lon="7.51283">
        <ele>492.20001220703</ele>
        <time>2021-02-20T13:13:59.000Z</time>
      </trkpt>
      <trkpt lat="43.9118" lon="7.51285">
        <ele>491.79998779297</ele>
        <time>2021-02-20T13:14:00.000Z</time>
      </trkpt>
      <trkpt lat="43.9118" lon="7.51287">
        <ele>491.60000610352</ele>
        <time>2021-02-20T13:14:01.000Z</time>
      </trkpt>
      <trkpt lat="43.9118" lon="7.51286">
        <ele>491.20001220703</ele>
        <time>2021-02-20T13:14:02.000Z</time>
      </trkpt>
      <trkpt lat="43.91179" lon="7.51287">
        <ele>490.60000610352</ele>
        <time>2021-02-20T13:14:04.000Z</time>
      </trkpt>
      <trkpt lat="43.91178" lon="7.51288">
        <ele>490.20001220703</ele>
        <time>2021-02-20T13:14:06.000Z</time>
      </trkpt>
      <trkpt lat="43.91177" lon="7.51289">
        <ele>490</ele>
        <time>2021-02-20T13:14:08.000Z</time>
      </trkpt>
      <trkpt lat="43.91175" lon="7.5129">
        <ele>490</ele>
        <time>2021-02-20T13:14:09.000Z</time>
      </trkpt>
      <trkpt lat="43.91171" lon="7.5129">
        <ele>490.20001220703</ele>
        <time>2021-02-20T13:14:14.000Z</time>
      </trkpt>
      <trkpt lat="43.91173" lon="7.51293">
        <ele>488.79998779297</ele>
        <time>2021-02-20T13:14:19.000Z</time>
      </trkpt>
      <trkpt lat="43.91174" lon="7.51293">
        <ele>487.79998779297</ele>
        <time>2021-02-20T13:14:22.000Z</time>
      </trkpt>
      <trkpt lat="43.91175" lon="7.51293">
        <ele>487.60000610352</ele>
        <time>2021-02-20T13:14:23.000Z</time>
      </trkpt>
      <trkpt lat="43.91176" lon="7.51293">
        <ele>487.79998779297</ele>
        <time>2021-02-20T13:14:24.000Z</time>
      </trkpt>
      <trkpt lat="43.91186" lon="7.5129">
        <ele>488.20001220703</ele>
        <time>2021-02-20T13:14:28.000Z</time>
      </trkpt>
      <trkpt lat="43.91195" lon="7.51285">
        <ele>487.60000610352</ele>
        <time>2021-02-20T13:14:30.000Z</time>
      </trkpt>
      <trkpt lat="43.912" lon="7.51282">
        <ele>486.79998779297</ele>
        <time>2021-02-20T13:14:31.000Z</time>
      </trkpt>
      <trkpt lat="43.91204" lon="7.5128">
        <ele>485.79998779297</ele>
        <time>2021-02-20T13:14:32.000Z</time>
      </trkpt>
      <trkpt lat="43.91213" lon="7.51275">
        <ele>484</ele>
        <time>2021-02-20T13:14:34.000Z</time>
      </trkpt>
      <trkpt lat="43.91215" lon="7.51274">
        <ele>482.79998779297</ele>
        <time>2021-02-20T13:14:35.000Z</time>
      </trkpt>
      <trkpt lat="43.9122" lon="7.51277">
        <ele>481.39999389648</ele>
        <time>2021-02-20T13:14:37.000Z</time>
      </trkpt>
      <trkpt lat="43.91222" lon="7.51276">
        <ele>481</ele>
        <time>2021-02-20T13:14:38.000Z</time>
      </trkpt>
      <trkpt lat="43.91226" lon="7.51271">
        <ele>480.20001220703</ele>
        <time>2021-02-20T13:14:40.000Z</time>
      </trkpt>
      <trkpt lat="43.9123" lon="7.5127">
        <ele>479.79998779297</ele>
        <time>2021-02-20T13:14:41.000Z</time>
      </trkpt>
      <trkpt lat="43.91235" lon="7.51269">
        <ele>478.79998779297</ele>
        <time>2021-02-20T13:14:42.000Z</time>
      </trkpt>
      <trkpt lat="43.9124" lon="7.51268">
        <ele>477.39999389648</ele>
        <time>2021-02-20T13:14:44.000Z</time>
      </trkpt>
      <trkpt lat="43.91241" lon="7.51267">
        <ele>476.60000610352</ele>
        <time>2021-02-20T13:14:45.000Z</time>
      </trkpt>
      <trkpt lat="43.91242" lon="7.51268">
        <ele>475.79998779297</ele>
        <time>2021-02-20T13:14:46.000Z</time>
      </trkpt>
      <trkpt lat="43.91241" lon="7.5127">
        <ele>474.60000610352</ele>
        <time>2021-02-20T13:14:48.000Z</time>
      </trkpt>
      <trkpt lat="43.91239" lon="7.51273">
        <ele>473.60000610352</ele>
        <time>2021-02-20T13:14:51.000Z</time>
      </trkpt>
      <trkpt lat="43.9124" lon="7.51274">
        <ele>473.39999389648</ele>
        <time>2021-02-20T13:14:52.000Z</time>
      </trkpt>
      <trkpt lat="43.91245" lon="7.51272">
        <ele>472.39999389648</ele>
        <time>2021-02-20T13:14:57.000Z</time>
      </trkpt>
      <trkpt lat="43.91249" lon="7.51271">
        <ele>471.79998779297</ele>
        <time>2021-02-20T13:15:00.000Z</time>
      </trkpt>
      <trkpt lat="43.9125" lon="7.51274">
        <ele>471.39999389648</ele>
        <time>2021-02-20T13:15:02.000Z</time>
      </trkpt>
      <trkpt lat="43.91249" lon="7.51275">
        <ele>471.20001220703</ele>
        <time>2021-02-20T13:15:03.000Z</time>
      </trkpt>
      <trkpt lat="43.91244" lon="7.51281">
        <ele>470</ele>
        <time>2021-02-20T13:15:06.000Z</time>
      </trkpt>
      <trkpt lat="43.91241" lon="7.51289">
        <ele>469</ele>
        <time>2021-02-20T13:15:08.000Z</time>
      </trkpt>
      <trkpt lat="43.9124" lon="7.51293">
        <ele>468.39999389648</ele>
        <time>2021-02-20T13:15:09.000Z</time>
      </trkpt>
      <trkpt lat="43.91238" lon="7.51296">
        <ele>467.79998779297</ele>
        <time>2021-02-20T13:15:10.000Z</time>
      </trkpt>
      <trkpt lat="43.91235" lon="7.51303">
        <ele>466.60000610352</ele>
        <time>2021-02-20T13:15:12.000Z</time>
      </trkpt>
      <trkpt lat="43.91232" lon="7.51309">
        <ele>465.20001220703</ele>
        <time>2021-02-20T13:15:14.000Z</time>
      </trkpt>
      <trkpt lat="43.9123" lon="7.51312">
        <ele>464.20001220703</ele>
        <time>2021-02-20T13:15:15.000Z</time>
      </trkpt>
      <trkpt lat="43.91227" lon="7.51314">
        <ele>463.60000610352</ele>
        <time>2021-02-20T13:15:16.000Z</time>
      </trkpt>
      <trkpt lat="43.91217" lon="7.51321">
        <ele>462.60000610352</ele>
        <time>2021-02-20T13:15:19.000Z</time>
      </trkpt>
      <trkpt lat="43.91214" lon="7.51323">
        <ele>462</ele>
        <time>2021-02-20T13:15:22.000Z</time>
      </trkpt>
      <trkpt lat="43.91213" lon="7.51323">
        <ele>461.60000610352</ele>
        <time>2021-02-20T13:15:25.000Z</time>
      </trkpt>
      <trkpt lat="43.91209" lon="7.51327">
        <ele>461.60000610352</ele>
        <time>2021-02-20T13:15:27.000Z</time>
      </trkpt>
      <trkpt lat="43.91198" lon="7.5134">
        <ele>461.20001220703</ele>
        <time>2021-02-20T13:15:31.000Z</time>
      </trkpt>
      <trkpt lat="43.91189" lon="7.5135">
        <ele>460.39999389648</ele>
        <time>2021-02-20T13:15:34.000Z</time>
      </trkpt>
      <trkpt lat="43.9118" lon="7.51358">
        <ele>460.20001220703</ele>
        <time>2021-02-20T13:15:37.000Z</time>
      </trkpt>
      <trkpt lat="43.91173" lon="7.51362">
        <ele>459.39999389648</ele>
        <time>2021-02-20T13:15:40.000Z</time>
      </trkpt>
      <trkpt lat="43.91173" lon="7.51363">
        <ele>459.39999389648</ele>
        <time>2021-02-20T13:15:41.000Z</time>
      </trkpt>
      <trkpt lat="43.91172" lon="7.51363">
        <ele>459.79998779297</ele>
        <time>2021-02-20T13:15:48.000Z</time>
      </trkpt>
      <trkpt lat="43.91171" lon="7.51364">
        <ele>459.60000610352</ele>
        <time>2021-02-20T13:15:52.000Z</time>
      </trkpt>
      <trkpt lat="43.91166" lon="7.51367">
        <ele>459.60000610352</ele>
        <time>2021-02-20T13:15:55.000Z</time>
      </trkpt>
      <trkpt lat="43.91158" lon="7.51369">
        <ele>459.39999389648</ele>
        <time>2021-02-20T13:15:58.000Z</time>
      </trkpt>
      <trkpt lat="43.91153" lon="7.5137">
        <ele>459.39999389648</ele>
        <time>2021-02-20T13:16:00.000Z</time>
      </trkpt>
      <trkpt lat="43.91143" lon="7.51372">
        <ele>458.60000610352</ele>
        <time>2021-02-20T13:16:05.000Z</time>
      </trkpt>
      <trkpt lat="43.91143" lon="7.51373">
        <ele>458.20001220703</ele>
        <time>2021-02-20T13:16:06.000Z</time>
      </trkpt>
      <trkpt lat="43.9114" lon="7.51376">
        <ele>457</ele>
        <time>2021-02-20T13:16:08.000Z</time>
      </trkpt>
      <trkpt lat="43.91138" lon="7.51376">
        <ele>456.39999389648</ele>
        <time>2021-02-20T13:16:09.000Z</time>
      </trkpt>
      <trkpt lat="43.91136" lon="7.51376">
        <ele>456</ele>
        <time>2021-02-20T13:16:10.000Z</time>
      </trkpt>
      <trkpt lat="43.91132" lon="7.5137">
        <ele>454.39999389648</ele>
        <time>2021-02-20T13:16:13.000Z</time>
      </trkpt>
      <trkpt lat="43.9113" lon="7.5136">
        <ele>453.20001220703</ele>
        <time>2021-02-20T13:16:15.000Z</time>
      </trkpt>
      <trkpt lat="43.91128" lon="7.51347">
        <ele>451.60000610352</ele>
        <time>2021-02-20T13:16:17.000Z</time>
      </trkpt>
      <trkpt lat="43.91125" lon="7.51334">
        <ele>450.20001220703</ele>
        <time>2021-02-20T13:16:19.000Z</time>
      </trkpt>
      <trkpt lat="43.91119" lon="7.5132">
        <ele>449</ele>
        <time>2021-02-20T13:16:22.000Z</time>
      </trkpt>
      <trkpt lat="43.91117" lon="7.51316">
        <ele>448.79998779297</ele>
        <time>2021-02-20T13:16:23.000Z</time>
      </trkpt>
      <trkpt lat="43.91116" lon="7.51303">
        <ele>449.39999389648</ele>
        <time>2021-02-20T13:16:26.000Z</time>
      </trkpt>
      <trkpt lat="43.91118" lon="7.51302">
        <ele>450.20001220703</ele>
        <time>2021-02-20T13:16:27.000Z</time>
      </trkpt>
      <trkpt lat="43.9112" lon="7.513">
        <ele>451.20001220703</ele>
        <time>2021-02-20T13:16:29.000Z</time>
      </trkpt>
      <trkpt lat="43.9112" lon="7.51299">
        <ele>452.20001220703</ele>
        <time>2021-02-20T13:16:32.000Z</time>
      </trkpt>
      <trkpt lat="43.91121" lon="7.51297">
        <ele>452.60000610352</ele>
        <time>2021-02-20T13:16:34.000Z</time>
      </trkpt>
      <trkpt lat="43.91125" lon="7.51289">
        <ele>452.60000610352</ele>
        <time>2021-02-20T13:16:38.000Z</time>
      </trkpt>
      <trkpt lat="43.91125" lon="7.51286">
        <ele>452.60000610352</ele>
        <time>2021-02-20T13:16:39.000Z</time>
      </trkpt>
      <trkpt lat="43.91125" lon="7.51273">
        <ele>452.79998779297</ele>
        <time>2021-02-20T13:16:43.000Z</time>
      </trkpt>
      <trkpt lat="43.9112" lon="7.51256">
        <ele>452.20001220703</ele>
        <time>2021-02-20T13:16:47.000Z</time>
      </trkpt>
      <trkpt lat="43.91116" lon="7.51253">
        <ele>451</ele>
        <time>2021-02-20T13:16:49.000Z</time>
      </trkpt>
      <trkpt lat="43.91113" lon="7.51252">
        <ele>450.20001220703</ele>
        <time>2021-02-20T13:16:50.000Z</time>
      </trkpt>
      <trkpt lat="43.91109" lon="7.5125">
        <ele>450</ele>
        <time>2021-02-20T13:16:51.000Z</time>
      </trkpt>
      <trkpt lat="43.91105" lon="7.51248">
        <ele>449.60000610352</ele>
        <time>2021-02-20T13:16:52.000Z</time>
      </trkpt>
      <trkpt lat="43.91098" lon="7.51243">
        <ele>449</ele>
        <time>2021-02-20T13:16:54.000Z</time>
      </trkpt>
      <trkpt lat="43.91096" lon="7.5124">
        <ele>448.39999389648</ele>
        <time>2021-02-20T13:16:55.000Z</time>
      </trkpt>
      <trkpt lat="43.91092" lon="7.51237">
        <ele>446.79998779297</ele>
        <time>2021-02-20T13:16:57.000Z</time>
      </trkpt>
      <trkpt lat="43.91091" lon="7.51239">
        <ele>445.20001220703</ele>
        <time>2021-02-20T13:16:59.000Z</time>
      </trkpt>
      <trkpt lat="43.91093" lon="7.51244">
        <ele>443.79998779297</ele>
        <time>2021-02-20T13:17:01.000Z</time>
      </trkpt>
      <trkpt lat="43.91097" lon="7.51251">
        <ele>443.60000610352</ele>
        <time>2021-02-20T13:17:03.000Z</time>
      </trkpt>
      <trkpt lat="43.91099" lon="7.51256">
        <ele>442.39999389648</ele>
        <time>2021-02-20T13:17:05.000Z</time>
      </trkpt>
      <trkpt lat="43.91101" lon="7.51258">
        <ele>441.79998779297</ele>
        <time>2021-02-20T13:17:06.000Z</time>
      </trkpt>
      <trkpt lat="43.91103" lon="7.51261">
        <ele>441</ele>
        <time>2021-02-20T13:17:07.000Z</time>
      </trkpt>
      <trkpt lat="43.91105" lon="7.51265">
        <ele>440.39999389648</ele>
        <time>2021-02-20T13:17:08.000Z</time>
      </trkpt>
      <trkpt lat="43.91106" lon="7.51269">
        <ele>439.79998779297</ele>
        <time>2021-02-20T13:17:09.000Z</time>
      </trkpt>
      <trkpt lat="43.91106" lon="7.51273">
        <ele>439.20001220703</ele>
        <time>2021-02-20T13:17:10.000Z</time>
      </trkpt>
      <trkpt lat="43.91103" lon="7.51274">
        <ele>438.79998779297</ele>
        <time>2021-02-20T13:17:11.000Z</time>
      </trkpt>
      <trkpt lat="43.91098" lon="7.5127">
        <ele>437.60000610352</ele>
        <time>2021-02-20T13:17:13.000Z</time>
      </trkpt>
      <trkpt lat="43.91095" lon="7.51268">
        <ele>437</ele>
        <time>2021-02-20T13:17:14.000Z</time>
      </trkpt>
      <trkpt lat="43.91092" lon="7.51267">
        <ele>436.39999389648</ele>
        <time>2021-02-20T13:17:15.000Z</time>
      </trkpt>
      <trkpt lat="43.91086" lon="7.51261">
        <ele>435</ele>
        <time>2021-02-20T13:17:17.000Z</time>
      </trkpt>
      <trkpt lat="43.91083" lon="7.51258">
        <ele>434</ele>
        <time>2021-02-20T13:17:18.000Z</time>
      </trkpt>
      <trkpt lat="43.91081" lon="7.51255">
        <ele>433.20001220703</ele>
        <time>2021-02-20T13:17:19.000Z</time>
      </trkpt>
      <trkpt lat="43.91076" lon="7.51254">
        <ele>432.39999389648</ele>
        <time>2021-02-20T13:17:20.000Z</time>
      </trkpt>
      <trkpt lat="43.91071" lon="7.51252">
        <ele>432.20001220703</ele>
        <time>2021-02-20T13:17:21.000Z</time>
      </trkpt>
      <trkpt lat="43.91065" lon="7.5125">
        <ele>430.79998779297</ele>
        <time>2021-02-20T13:17:23.000Z</time>
      </trkpt>
      <trkpt lat="43.91058" lon="7.51247">
        <ele>428.79998779297</ele>
        <time>2021-02-20T13:17:25.000Z</time>
      </trkpt>
      <trkpt lat="43.91054" lon="7.51244">
        <ele>427.79998779297</ele>
        <time>2021-02-20T13:17:26.000Z</time>
      </trkpt>
      <trkpt lat="43.91052" lon="7.51241">
        <ele>426.79998779297</ele>
        <time>2021-02-20T13:17:27.000Z</time>
      </trkpt>
      <trkpt lat="43.91052" lon="7.51236">
        <ele>425.60000610352</ele>
        <time>2021-02-20T13:17:28.000Z</time>
      </trkpt>
      <trkpt lat="43.91052" lon="7.51226">
        <ele>424.60000610352</ele>
        <time>2021-02-20T13:17:30.000Z</time>
      </trkpt>
      <trkpt lat="43.91054" lon="7.51223">
        <ele>424.39999389648</ele>
        <time>2021-02-20T13:17:31.000Z</time>
      </trkpt>
      <trkpt lat="43.91056" lon="7.5122">
        <ele>423.79998779297</ele>
        <time>2021-02-20T13:17:32.000Z</time>
      </trkpt>
      <trkpt lat="43.9106" lon="7.51216">
        <ele>423.39999389648</ele>
        <time>2021-02-20T13:17:34.000Z</time>
      </trkpt>
      <trkpt lat="43.91062" lon="7.51213">
        <ele>423</ele>
        <time>2021-02-20T13:17:35.000Z</time>
      </trkpt>
      <trkpt lat="43.91063" lon="7.51208">
        <ele>422</ele>
        <time>2021-02-20T13:17:36.000Z</time>
      </trkpt>
      <trkpt lat="43.91065" lon="7.51204">
        <ele>421.20001220703</ele>
        <time>2021-02-20T13:17:37.000Z</time>
      </trkpt>
      <trkpt lat="43.91068" lon="7.512">
        <ele>420</ele>
        <time>2021-02-20T13:17:38.000Z</time>
      </trkpt>
      <trkpt lat="43.9107" lon="7.51194">
        <ele>417.79998779297</ele>
        <time>2021-02-20T13:17:40.000Z</time>
      </trkpt>
      <trkpt lat="43.9107" lon="7.51188">
        <ele>416.79998779297</ele>
        <time>2021-02-20T13:17:41.000Z</time>
      </trkpt>
      <trkpt lat="43.91074" lon="7.51179">
        <ele>415.39999389648</ele>
        <time>2021-02-20T13:17:43.000Z</time>
      </trkpt>
      <trkpt lat="43.91077" lon="7.51171">
        <ele>414.39999389648</ele>
        <time>2021-02-20T13:17:45.000Z</time>
      </trkpt>
      <trkpt lat="43.91078" lon="7.51168">
        <ele>414</ele>
        <time>2021-02-20T13:17:46.000Z</time>
      </trkpt>
      <trkpt lat="43.9108" lon="7.51164">
        <ele>413.39999389648</ele>
        <time>2021-02-20T13:17:47.000Z</time>
      </trkpt>
      <trkpt lat="43.91081" lon="7.5116">
        <ele>413</ele>
        <time>2021-02-20T13:17:48.000Z</time>
      </trkpt>
      <trkpt lat="43.91083" lon="7.51155">
        <ele>412</ele>
        <time>2021-02-20T13:17:49.000Z</time>
      </trkpt>
      <trkpt lat="43.91085" lon="7.51151">
        <ele>411.60000610352</ele>
        <time>2021-02-20T13:17:50.000Z</time>
      </trkpt>
      <trkpt lat="43.91087" lon="7.51142">
        <ele>409.60000610352</ele>
        <time>2021-02-20T13:17:52.000Z</time>
      </trkpt>
      <trkpt lat="43.91087" lon="7.51137">
        <ele>408</ele>
        <time>2021-02-20T13:17:53.000Z</time>
      </trkpt>
      <trkpt lat="43.91086" lon="7.51132">
        <ele>408.79998779297</ele>
        <time>2021-02-20T13:17:54.000Z</time>
      </trkpt>
      <trkpt lat="43.91082" lon="7.51117">
        <ele>408.20001220703</ele>
        <time>2021-02-20T13:17:58.000Z</time>
      </trkpt>
      <trkpt lat="43.91075" lon="7.51105">
        <ele>407.60000610352</ele>
        <time>2021-02-20T13:18:02.000Z</time>
      </trkpt>
      <trkpt lat="43.91073" lon="7.51105">
        <ele>407.60000610352</ele>
        <time>2021-02-20T13:18:03.000Z</time>
      </trkpt>
      <trkpt lat="43.91064" lon="7.5111">
        <ele>407.39999389648</ele>
        <time>2021-02-20T13:18:07.000Z</time>
      </trkpt>
      <trkpt lat="43.91061" lon="7.51112">
        <ele>407.20001220703</ele>
        <time>2021-02-20T13:18:08.000Z</time>
      </trkpt>
      <trkpt lat="43.91055" lon="7.51116">
        <ele>407</ele>
        <time>2021-02-20T13:18:10.000Z</time>
      </trkpt>
      <trkpt lat="43.91051" lon="7.51116">
        <ele>406.79998779297</ele>
        <time>2021-02-20T13:18:11.000Z</time>
      </trkpt>
      <trkpt lat="43.91029" lon="7.51114">
        <ele>406</ele>
        <time>2021-02-20T13:18:17.000Z</time>
      </trkpt>
      <trkpt lat="43.91025" lon="7.51115">
        <ele>406</ele>
        <time>2021-02-20T13:18:18.000Z</time>
      </trkpt>
      <trkpt lat="43.91017" lon="7.51118">
        <ele>405.60000610352</ele>
        <time>2021-02-20T13:18:20.000Z</time>
      </trkpt>
      <trkpt lat="43.91014" lon="7.5112">
        <ele>405.39999389648</ele>
        <time>2021-02-20T13:18:21.000Z</time>
      </trkpt>
      <trkpt lat="43.91003" lon="7.51127">
        <ele>404.60000610352</ele>
        <time>2021-02-20T13:18:24.000Z</time>
      </trkpt>
      <trkpt lat="43.90997" lon="7.51128">
        <ele>404.39999389648</ele>
        <time>2021-02-20T13:18:26.000Z</time>
      </trkpt>
      <trkpt lat="43.90984" lon="7.51127">
        <ele>403.79998779297</ele>
        <time>2021-02-20T13:18:29.000Z</time>
      </trkpt>
      <trkpt lat="43.90978" lon="7.51127">
        <ele>403.39999389648</ele>
        <time>2021-02-20T13:18:30.000Z</time>
      </trkpt>
      <trkpt lat="43.90968" lon="7.51129">
        <ele>402.20001220703</ele>
        <time>2021-02-20T13:18:32.000Z</time>
      </trkpt>
      <trkpt lat="43.90958" lon="7.51124">
        <ele>401.60000610352</ele>
        <time>2021-02-20T13:18:34.000Z</time>
      </trkpt>
      <trkpt lat="43.9095" lon="7.51121">
        <ele>400.60000610352</ele>
        <time>2021-02-20T13:18:36.000Z</time>
      </trkpt>
      <trkpt lat="43.90944" lon="7.5112">
        <ele>399.79998779297</ele>
        <time>2021-02-20T13:18:37.000Z</time>
      </trkpt>
      <trkpt lat="43.90938" lon="7.5112">
        <ele>399.39999389648</ele>
        <time>2021-02-20T13:18:38.000Z</time>
      </trkpt>
      <trkpt lat="43.90932" lon="7.5112">
        <ele>398.39999389648</ele>
        <time>2021-02-20T13:18:39.000Z</time>
      </trkpt>
      <trkpt lat="43.90926" lon="7.51121">
        <ele>397</ele>
        <time>2021-02-20T13:18:40.000Z</time>
      </trkpt>
      <trkpt lat="43.90913" lon="7.51125">
        <ele>394.39999389648</ele>
        <time>2021-02-20T13:18:42.000Z</time>
      </trkpt>
      <trkpt lat="43.9091" lon="7.51128">
        <ele>393</ele>
        <time>2021-02-20T13:18:43.000Z</time>
      </trkpt>
      <trkpt lat="43.90906" lon="7.51132">
        <ele>391.79998779297</ele>
        <time>2021-02-20T13:18:44.000Z</time>
      </trkpt>
      <trkpt lat="43.90902" lon="7.51137">
        <ele>391</ele>
        <time>2021-02-20T13:18:45.000Z</time>
      </trkpt>
      <trkpt lat="43.90896" lon="7.51143">
        <ele>390</ele>
        <time>2021-02-20T13:18:46.000Z</time>
      </trkpt>
      <trkpt lat="43.90891" lon="7.51149">
        <ele>388.20001220703</ele>
        <time>2021-02-20T13:18:47.000Z</time>
      </trkpt>
      <trkpt lat="43.90885" lon="7.51155">
        <ele>386.60000610352</ele>
        <time>2021-02-20T13:18:48.000Z</time>
      </trkpt>
      <trkpt lat="43.90881" lon="7.51159">
        <ele>385</ele>
        <time>2021-02-20T13:18:49.000Z</time>
      </trkpt>
      <trkpt lat="43.90877" lon="7.51161">
        <ele>383.39999389648</ele>
        <time>2021-02-20T13:18:50.000Z</time>
      </trkpt>
      <trkpt lat="43.90872" lon="7.51162">
        <ele>381.79998779297</ele>
        <time>2021-02-20T13:18:52.000Z</time>
      </trkpt>
      <trkpt lat="43.90872" lon="7.51166">
        <ele>380.39999389648</ele>
        <time>2021-02-20T13:18:54.000Z</time>
      </trkpt>
      <trkpt lat="43.90874" lon="7.51168">
        <ele>379.79998779297</ele>
        <time>2021-02-20T13:18:55.000Z</time>
      </trkpt>
      <trkpt lat="43.90876" lon="7.5117">
        <ele>379</ele>
        <time>2021-02-20T13:18:56.000Z</time>
      </trkpt>
      <trkpt lat="43.90878" lon="7.5117">
        <ele>377.39999389648</ele>
        <time>2021-02-20T13:18:58.000Z</time>
      </trkpt>
      <trkpt lat="43.90879" lon="7.51172">
        <ele>376.60000610352</ele>
        <time>2021-02-20T13:18:59.000Z</time>
      </trkpt>
      <trkpt lat="43.90879" lon="7.51173">
        <ele>375.60000610352</ele>
        <time>2021-02-20T13:19:00.000Z</time>
      </trkpt>
      <trkpt lat="43.90875" lon="7.51174">
        <ele>374.20001220703</ele>
        <time>2021-02-20T13:19:02.000Z</time>
      </trkpt>
      <trkpt lat="43.90873" lon="7.51174">
        <ele>373.60000610352</ele>
        <time>2021-02-20T13:19:03.000Z</time>
      </trkpt>
      <trkpt lat="43.9087" lon="7.51173">
        <ele>373.20001220703</ele>
        <time>2021-02-20T13:19:04.000Z</time>
      </trkpt>
      <trkpt lat="43.90869" lon="7.51174">
        <ele>372.60000610352</ele>
        <time>2021-02-20T13:19:05.000Z</time>
      </trkpt>
      <trkpt lat="43.90868" lon="7.51176">
        <ele>371.79998779297</ele>
        <time>2021-02-20T13:19:06.000Z</time>
      </trkpt>
      <trkpt lat="43.90869" lon="7.51179">
        <ele>371.20001220703</ele>
        <time>2021-02-20T13:19:07.000Z</time>
      </trkpt>
      <trkpt lat="43.90871" lon="7.51181">
        <ele>370.60000610352</ele>
        <time>2021-02-20T13:19:08.000Z</time>
      </trkpt>
      <trkpt lat="43.90874" lon="7.51187">
        <ele>369.39999389648</ele>
        <time>2021-02-20T13:19:10.000Z</time>
      </trkpt>
      <trkpt lat="43.90869" lon="7.51191">
        <ele>368</ele>
        <time>2021-02-20T13:19:12.000Z</time>
      </trkpt>
      <trkpt lat="43.90866" lon="7.51188">
        <ele>367.39999389648</ele>
        <time>2021-02-20T13:19:13.000Z</time>
      </trkpt>
      <trkpt lat="43.90863" lon="7.51186">
        <ele>366.60000610352</ele>
        <time>2021-02-20T13:19:14.000Z</time>
      </trkpt>
      <trkpt lat="43.9086" lon="7.51181">
        <ele>365.20001220703</ele>
        <time>2021-02-20T13:19:16.000Z</time>
      </trkpt>
      <trkpt lat="43.90859" lon="7.51179">
        <ele>364.39999389648</ele>
        <time>2021-02-20T13:19:17.000Z</time>
      </trkpt>
      <trkpt lat="43.90859" lon="7.5118">
        <ele>363.60000610352</ele>
        <time>2021-02-20T13:19:18.000Z</time>
      </trkpt>
      <trkpt lat="43.90856" lon="7.5118">
        <ele>363.20001220703</ele>
        <time>2021-02-20T13:19:20.000Z</time>
      </trkpt>
      <trkpt lat="43.90854" lon="7.5118">
        <ele>363</ele>
        <time>2021-02-20T13:19:21.000Z</time>
      </trkpt>
      <trkpt lat="43.90853" lon="7.5118">
        <ele>362.60000610352</ele>
        <time>2021-02-20T13:19:22.000Z</time>
      </trkpt>
      <trkpt lat="43.90851" lon="7.51181">
        <ele>361.79998779297</ele>
        <time>2021-02-20T13:19:27.000Z</time>
      </trkpt>
      <trkpt lat="43.90851" lon="7.51181">
        <ele>361.39999389648</ele>
        <time>2021-02-20T13:19:29.000Z</time>
      </trkpt>
      <trkpt lat="43.9085" lon="7.51182">
        <ele>361.20001220703</ele>
        <time>2021-02-20T13:19:33.000Z</time>
      </trkpt>
      <trkpt lat="43.90848" lon="7.51178">
        <ele>361.20001220703</ele>
        <time>2021-02-20T13:19:40.000Z</time>
      </trkpt>
      <trkpt lat="43.90845" lon="7.51175">
        <ele>361.39999389648</ele>
        <time>2021-02-20T13:19:46.000Z</time>
      </trkpt>
      <trkpt lat="43.90842" lon="7.51173">
        <ele>361.60000610352</ele>
        <time>2021-02-20T13:19:52.000Z</time>
      </trkpt>
      <trkpt lat="43.90841" lon="7.51173">
        <ele>361.39999389648</ele>
        <time>2021-02-20T13:19:58.000Z</time>
      </trkpt>
      <trkpt lat="43.90837" lon="7.51167">
        <ele>361.20001220703</ele>
        <time>2021-02-20T13:20:05.000Z</time>
      </trkpt>
      <trkpt lat="43.90834" lon="7.51164">
        <ele>361.79998779297</ele>
        <time>2021-02-20T13:20:09.000Z</time>
      </trkpt>
      <trkpt lat="43.90834" lon="7.51164">
        <ele>362</ele>
        <time>2021-02-20T13:20:10.000Z</time>
      </trkpt>
      <trkpt lat="43.90833" lon="7.51164">
        <ele>362.39999389648</ele>
        <time>2021-02-20T13:20:12.000Z</time>
      </trkpt>
      <trkpt lat="43.90833" lon="7.51165">
        <ele>362.79998779297</ele>
        <time>2021-02-20T13:20:15.000Z</time>
      </trkpt>
      <trkpt lat="43.90832" lon="7.51168">
        <ele>363.20001220703</ele>
        <time>2021-02-20T13:20:18.000Z</time>
      </trkpt>
      <trkpt lat="43.90832" lon="7.51169">
        <ele>363.60000610352</ele>
        <time>2021-02-20T13:20:20.000Z</time>
      </trkpt>
      <trkpt lat="43.90831" lon="7.5117">
        <ele>364</ele>
        <time>2021-02-20T13:20:22.000Z</time>
      </trkpt>
      <trkpt lat="43.90831" lon="7.51172">
        <ele>364.60000610352</ele>
        <time>2021-02-20T13:20:25.000Z</time>
      </trkpt>
      <trkpt lat="43.90831" lon="7.51174">
        <ele>365</ele>
        <time>2021-02-20T13:20:29.000Z</time>
      </trkpt>
      <trkpt lat="43.9083" lon="7.51177">
        <ele>365.60000610352</ele>
        <time>2021-02-20T13:20:36.000Z</time>
      </trkpt>
      <trkpt lat="43.90829" lon="7.51177">
        <ele>365.60000610352</ele>
        <time>2021-02-20T13:20:38.000Z</time>
      </trkpt>
      <trkpt lat="43.90828" lon="7.51175">
        <ele>366</ele>
        <time>2021-02-20T13:20:42.000Z</time>
      </trkpt>
      <trkpt lat="43.90827" lon="7.51173">
        <ele>366.20001220703</ele>
        <time>2021-02-20T13:20:50.000Z</time>
      </trkpt>
      <trkpt lat="43.90824" lon="7.51169">
        <ele>366</ele>
        <time>2021-02-20T13:20:59.000Z</time>
      </trkpt>
      <trkpt lat="43.90823" lon="7.51163">
        <ele>366.79998779297</ele>
        <time>2021-02-20T13:21:03.000Z</time>
      </trkpt>
      <trkpt lat="43.90823" lon="7.51163">
        <ele>367.20001220703</ele>
        <time>2021-02-20T13:21:04.000Z</time>
      </trkpt>
      <trkpt lat="43.90823" lon="7.51162">
        <ele>368</ele>
        <time>2021-02-20T13:21:07.000Z</time>
      </trkpt>
      <trkpt lat="43.90824" lon="7.51162">
        <ele>368.20001220703</ele>
        <time>2021-02-20T13:21:10.000Z</time>
      </trkpt>
      <trkpt lat="43.90824" lon="7.5116">
        <ele>368.20001220703</ele>
        <time>2021-02-20T13:21:25.000Z</time>
      </trkpt>
      <trkpt lat="43.90822" lon="7.51156">
        <ele>368.20001220703</ele>
        <time>2021-02-20T13:21:27.000Z</time>
      </trkpt>
      <trkpt lat="43.90819" lon="7.51151">
        <ele>368.39999389648</ele>
        <time>2021-02-20T13:21:30.000Z</time>
      </trkpt>
      <trkpt lat="43.90816" lon="7.5115">
        <ele>368.79998779297</ele>
        <time>2021-02-20T13:21:32.000Z</time>
      </trkpt>
      <trkpt lat="43.90816" lon="7.51151">
        <ele>369.20001220703</ele>
        <time>2021-02-20T13:21:33.000Z</time>
      </trkpt>
      <trkpt lat="43.90816" lon="7.5115">
        <ele>370.20001220703</ele>
        <time>2021-02-20T13:21:35.000Z</time>
      </trkpt>
      <trkpt lat="43.90816" lon="7.51151">
        <ele>370.60000610352</ele>
        <time>2021-02-20T13:21:36.000Z</time>
      </trkpt>
      <trkpt lat="43.90814" lon="7.51157">
        <ele>371.20001220703</ele>
        <time>2021-02-20T13:21:41.000Z</time>
      </trkpt>
      <trkpt lat="43.90811" lon="7.51156">
        <ele>371.79998779297</ele>
        <time>2021-02-20T13:21:45.000Z</time>
      </trkpt>
      <trkpt lat="43.9081" lon="7.51154">
        <ele>372.79998779297</ele>
        <time>2021-02-20T13:21:50.000Z</time>
      </trkpt>
      <trkpt lat="43.90809" lon="7.51149">
        <ele>373</ele>
        <time>2021-02-20T13:21:53.000Z</time>
      </trkpt>
      <trkpt lat="43.90809" lon="7.51148">
        <ele>373.20001220703</ele>
        <time>2021-02-20T13:21:55.000Z</time>
      </trkpt>
      <trkpt lat="43.90806" lon="7.51145">
        <ele>374</ele>
        <time>2021-02-20T13:21:58.000Z</time>
      </trkpt>
      <trkpt lat="43.90806" lon="7.51144">
        <ele>374.39999389648</ele>
        <time>2021-02-20T13:22:00.000Z</time>
      </trkpt>
      <trkpt lat="43.90805" lon="7.51142">
        <ele>374.79998779297</ele>
        <time>2021-02-20T13:22:06.000Z</time>
      </trkpt>
      <trkpt lat="43.90805" lon="7.51142">
        <ele>375</ele>
        <time>2021-02-20T13:22:07.000Z</time>
      </trkpt>
      <trkpt lat="43.90802" lon="7.51135">
        <ele>375.39999389648</ele>
        <time>2021-02-20T13:22:11.000Z</time>
      </trkpt>
      <trkpt lat="43.90798" lon="7.5113">
        <ele>376</ele>
        <time>2021-02-20T13:22:14.000Z</time>
      </trkpt>
      <trkpt lat="43.90798" lon="7.51127">
        <ele>376.60000610352</ele>
        <time>2021-02-20T13:22:16.000Z</time>
      </trkpt>
      <trkpt lat="43.90797" lon="7.51122">
        <ele>377.20001220703</ele>
        <time>2021-02-20T13:22:18.000Z</time>
      </trkpt>
      <trkpt lat="43.90793" lon="7.51115">
        <ele>377.79998779297</ele>
        <time>2021-02-20T13:22:21.000Z</time>
      </trkpt>
      <trkpt lat="43.90789" lon="7.5111">
        <ele>378.60000610352</ele>
        <time>2021-02-20T13:22:24.000Z</time>
      </trkpt>
      <trkpt lat="43.90785" lon="7.51104">
        <ele>380</ele>
        <time>2021-02-20T13:22:27.000Z</time>
      </trkpt>
      <trkpt lat="43.9078" lon="7.511">
        <ele>381.60000610352</ele>
        <time>2021-02-20T13:22:30.000Z</time>
      </trkpt>
      <trkpt lat="43.90777" lon="7.511">
        <ele>382.39999389648</ele>
        <time>2021-02-20T13:22:32.000Z</time>
      </trkpt>
      <trkpt lat="43.90776" lon="7.51099">
        <ele>383</ele>
        <time>2021-02-20T13:22:33.000Z</time>
      </trkpt>
      <trkpt lat="43.90772" lon="7.51099">
        <ele>384.20001220703</ele>
        <time>2021-02-20T13:22:35.000Z</time>
      </trkpt>
      <trkpt lat="43.90769" lon="7.511">
        <ele>385.20001220703</ele>
        <time>2021-02-20T13:22:37.000Z</time>
      </trkpt>
      <trkpt lat="43.90767" lon="7.511">
        <ele>385.79998779297</ele>
        <time>2021-02-20T13:22:38.000Z</time>
      </trkpt>
      <trkpt lat="43.90765" lon="7.51101">
        <ele>386.39999389648</ele>
        <time>2021-02-20T13:22:40.000Z</time>
      </trkpt>
      <trkpt lat="43.90764" lon="7.511">
        <ele>387.39999389648</ele>
        <time>2021-02-20T13:22:43.000Z</time>
      </trkpt>
      <trkpt lat="43.90764" lon="7.511">
        <ele>387.60000610352</ele>
        <time>2021-02-20T13:22:44.000Z</time>
      </trkpt>
      <trkpt lat="43.90764" lon="7.51101">
        <ele>388</ele>
        <time>2021-02-20T13:22:45.000Z</time>
      </trkpt>
      <trkpt lat="43.90763" lon="7.51102">
        <ele>388.20001220703</ele>
        <time>2021-02-20T13:22:47.000Z</time>
      </trkpt>
      <trkpt lat="43.90762" lon="7.51103">
        <ele>388.60000610352</ele>
        <time>2021-02-20T13:22:49.000Z</time>
      </trkpt>
      <trkpt lat="43.90763" lon="7.51104">
        <ele>388.79998779297</ele>
        <time>2021-02-20T13:22:51.000Z</time>
      </trkpt>
      <trkpt lat="43.90763" lon="7.51105">
        <ele>388.79998779297</ele>
        <time>2021-02-20T13:22:52.000Z</time>
      </trkpt>
      <trkpt lat="43.90765" lon="7.51105">
        <ele>389.60000610352</ele>
        <time>2021-02-20T13:22:57.000Z</time>
      </trkpt>
      <trkpt lat="43.90768" lon="7.51107">
        <ele>389.79998779297</ele>
        <time>2021-02-20T13:23:00.000Z</time>
      </trkpt>
      <trkpt lat="43.90768" lon="7.51107">
        <ele>389.79998779297</ele>
        <time>2021-02-20T13:23:01.000Z</time>
      </trkpt>
      <trkpt lat="43.90774" lon="7.51111">
        <ele>391</ele>
        <time>2021-02-20T13:23:05.000Z</time>
      </trkpt>
      <trkpt lat="43.90777" lon="7.51121">
        <ele>391.79998779297</ele>
        <time>2021-02-20T13:23:10.000Z</time>
      </trkpt>
      <trkpt lat="43.90777" lon="7.51124">
        <ele>392</ele>
        <time>2021-02-20T13:23:11.000Z</time>
      </trkpt>
      <trkpt lat="43.90778" lon="7.51131">
        <ele>392.60000610352</ele>
        <time>2021-02-20T13:23:14.000Z</time>
      </trkpt>
      <trkpt lat="43.90778" lon="7.51135">
        <ele>393.39999389648</ele>
        <time>2021-02-20T13:23:16.000Z</time>
      </trkpt>
      <trkpt lat="43.90778" lon="7.51138">
        <ele>393.60000610352</ele>
        <time>2021-02-20T13:23:17.000Z</time>
      </trkpt>
      <trkpt lat="43.90778" lon="7.51147">
        <ele>394.60000610352</ele>
        <time>2021-02-20T13:23:21.000Z</time>
      </trkpt>
      <trkpt lat="43.90777" lon="7.51147">
        <ele>394.79998779297</ele>
        <time>2021-02-20T13:23:22.000Z</time>
      </trkpt>
      <trkpt lat="43.90777" lon="7.51146">
        <ele>395.79998779297</ele>
        <time>2021-02-20T13:23:24.000Z</time>
      </trkpt>
      <trkpt lat="43.90777" lon="7.51146">
        <ele>396.60000610352</ele>
        <time>2021-02-20T13:23:28.000Z</time>
      </trkpt>
      <trkpt lat="43.90776" lon="7.51144">
        <ele>396.79998779297</ele>
        <time>2021-02-20T13:23:33.000Z</time>
      </trkpt>
      <trkpt lat="43.90776" lon="7.51144">
        <ele>396.79998779297</ele>
        <time>2021-02-20T13:23:34.000Z</time>
      </trkpt>
      <trkpt lat="43.90775" lon="7.51141">
        <ele>397.20001220703</ele>
        <time>2021-02-20T13:23:39.000Z</time>
      </trkpt>
      <trkpt lat="43.90774" lon="7.5114">
        <ele>397.39999389648</ele>
        <time>2021-02-20T13:23:40.000Z</time>
      </trkpt>
      <trkpt lat="43.90772" lon="7.51134">
        <ele>398</ele>
        <time>2021-02-20T13:23:43.000Z</time>
      </trkpt>
      <trkpt lat="43.9077" lon="7.51131">
        <ele>398.79998779297</ele>
        <time>2021-02-20T13:23:45.000Z</time>
      </trkpt>
      <trkpt lat="43.90768" lon="7.5113">
        <ele>399</ele>
        <time>2021-02-20T13:23:46.000Z</time>
      </trkpt>
      <trkpt lat="43.90765" lon="7.51125">
        <ele>400.60000610352</ele>
        <time>2021-02-20T13:23:49.000Z</time>
      </trkpt>
      <trkpt lat="43.90763" lon="7.51125">
        <ele>401</ele>
        <time>2021-02-20T13:23:50.000Z</time>
      </trkpt>
      <trkpt lat="43.90761" lon="7.51125">
        <ele>401.60000610352</ele>
        <time>2021-02-20T13:23:51.000Z</time>
      </trkpt>
      <trkpt lat="43.90754" lon="7.51125">
        <ele>403</ele>
        <time>2021-02-20T13:23:55.000Z</time>
      </trkpt>
      <trkpt lat="43.90749" lon="7.51126">
        <ele>404.39999389648</ele>
        <time>2021-02-20T13:23:58.000Z</time>
      </trkpt>
      <trkpt lat="43.90747" lon="7.51127">
        <ele>405.20001220703</ele>
        <time>2021-02-20T13:24:00.000Z</time>
      </trkpt>
      <trkpt lat="43.90748" lon="7.51127">
        <ele>405.39999389648</ele>
        <time>2021-02-20T13:24:01.000Z</time>
      </trkpt>
      <trkpt lat="43.90749" lon="7.51129">
        <ele>405.79998779297</ele>
        <time>2021-02-20T13:24:07.000Z</time>
      </trkpt>
      <trkpt lat="43.90754" lon="7.51132">
        <ele>406.39999389648</ele>
        <time>2021-02-20T13:24:11.000Z</time>
      </trkpt>
      <trkpt lat="43.90756" lon="7.51134">
        <ele>406.79998779297</ele>
        <time>2021-02-20T13:24:12.000Z</time>
      </trkpt>
      <trkpt lat="43.90758" lon="7.5114">
        <ele>408</ele>
        <time>2021-02-20T13:24:15.000Z</time>
      </trkpt>
      <trkpt lat="43.9076" lon="7.51147">
        <ele>408.79998779297</ele>
        <time>2021-02-20T13:24:18.000Z</time>
      </trkpt>
      <trkpt lat="43.9076" lon="7.51151">
        <ele>409.20001220703</ele>
        <time>2021-02-20T13:24:20.000Z</time>
      </trkpt>
      <trkpt lat="43.90758" lon="7.51152">
        <ele>409.39999389648</ele>
        <time>2021-02-20T13:24:22.000Z</time>
      </trkpt>
      <trkpt lat="43.90755" lon="7.51148">
        <ele>409.79998779297</ele>
        <time>2021-02-20T13:24:24.000Z</time>
      </trkpt>
      <trkpt lat="43.90754" lon="7.51146">
        <ele>410.20001220703</ele>
        <time>2021-02-20T13:24:25.000Z</time>
      </trkpt>
      <trkpt lat="43.90752" lon="7.51145">
        <ele>410.60000610352</ele>
        <time>2021-02-20T13:24:26.000Z</time>
      </trkpt>
      <trkpt lat="43.90749" lon="7.51143">
        <ele>411.39999389648</ele>
        <time>2021-02-20T13:24:28.000Z</time>
      </trkpt>
      <trkpt lat="43.90748" lon="7.51143">
        <ele>411.79998779297</ele>
        <time>2021-02-20T13:24:29.000Z</time>
      </trkpt>
      <trkpt lat="43.90744" lon="7.51145">
        <ele>412.39999389648</ele>
        <time>2021-02-20T13:24:31.000Z</time>
      </trkpt>
      <trkpt lat="43.90743" lon="7.51147">
        <ele>413.60000610352</ele>
        <time>2021-02-20T13:24:34.000Z</time>
      </trkpt>
      <trkpt lat="43.90743" lon="7.51148">
        <ele>414</ele>
        <time>2021-02-20T13:24:35.000Z</time>
      </trkpt>
      <trkpt lat="43.90747" lon="7.5115">
        <ele>414.79998779297</ele>
        <time>2021-02-20T13:24:37.000Z</time>
      </trkpt>
      <trkpt lat="43.90749" lon="7.51154">
        <ele>415.20001220703</ele>
        <time>2021-02-20T13:24:39.000Z</time>
      </trkpt>
      <trkpt lat="43.90752" lon="7.51161">
        <ele>415.79998779297</ele>
        <time>2021-02-20T13:24:42.000Z</time>
      </trkpt>
      <trkpt lat="43.90752" lon="7.51167">
        <ele>416</ele>
        <time>2021-02-20T13:24:44.000Z</time>
      </trkpt>
      <trkpt lat="43.9075" lon="7.51178">
        <ele>417</ele>
        <time>2021-02-20T13:24:48.000Z</time>
      </trkpt>
      <trkpt lat="43.9075" lon="7.5118">
        <ele>417.39999389648</ele>
        <time>2021-02-20T13:24:49.000Z</time>
      </trkpt>
      <trkpt lat="43.90748" lon="7.51182">
        <ele>418</ele>
        <time>2021-02-20T13:24:51.000Z</time>
      </trkpt>
      <trkpt lat="43.90747" lon="7.5118">
        <ele>419.20001220703</ele>
        <time>2021-02-20T13:24:53.000Z</time>
      </trkpt>
      <trkpt lat="43.90745" lon="7.51175">
        <ele>420.20001220703</ele>
        <time>2021-02-20T13:24:56.000Z</time>
      </trkpt>
      <trkpt lat="43.90744" lon="7.51174">
        <ele>420.60000610352</ele>
        <time>2021-02-20T13:24:57.000Z</time>
      </trkpt>
      <trkpt lat="43.90739" lon="7.51171">
        <ele>421.60000610352</ele>
        <time>2021-02-20T13:25:00.000Z</time>
      </trkpt>
      <trkpt lat="43.90734" lon="7.51168">
        <ele>422.79998779297</ele>
        <time>2021-02-20T13:25:03.000Z</time>
      </trkpt>
      <trkpt lat="43.90729" lon="7.51169">
        <ele>424</ele>
        <time>2021-02-20T13:25:07.000Z</time>
      </trkpt>
      <trkpt lat="43.90728" lon="7.51169">
        <ele>424.39999389648</ele>
        <time>2021-02-20T13:25:08.000Z</time>
      </trkpt>
      <trkpt lat="43.90726" lon="7.5117">
        <ele>425.20001220703</ele>
        <time>2021-02-20T13:25:10.000Z</time>
      </trkpt>
      <trkpt lat="43.90727" lon="7.51171">
        <ele>425.39999389648</ele>
        <time>2021-02-20T13:25:11.000Z</time>
      </trkpt>
      <trkpt lat="43.90729" lon="7.51171">
        <ele>425.79998779297</ele>
        <time>2021-02-20T13:25:13.000Z</time>
      </trkpt>
      <trkpt lat="43.90731" lon="7.51173">
        <ele>426.20001220703</ele>
        <time>2021-02-20T13:25:15.000Z</time>
      </trkpt>
      <trkpt lat="43.90732" lon="7.51178">
        <ele>426.79998779297</ele>
        <time>2021-02-20T13:25:17.000Z</time>
      </trkpt>
      <trkpt lat="43.90732" lon="7.51183">
        <ele>427.20001220703</ele>
        <time>2021-02-20T13:25:20.000Z</time>
      </trkpt>
      <trkpt lat="43.90732" lon="7.51182">
        <ele>427.39999389648</ele>
        <time>2021-02-20T13:25:21.000Z</time>
      </trkpt>
      <trkpt lat="43.90731" lon="7.51183">
        <ele>428.60000610352</ele>
        <time>2021-02-20T13:25:25.000Z</time>
      </trkpt>
      <trkpt lat="43.90729" lon="7.51183">
        <ele>429.39999389648</ele>
        <time>2021-02-20T13:25:30.000Z</time>
      </trkpt>
      <trkpt lat="43.90727" lon="7.51182">
        <ele>429.39999389648</ele>
        <time>2021-02-20T13:25:31.000Z</time>
      </trkpt>
      <trkpt lat="43.90725" lon="7.51181">
        <ele>429.60000610352</ele>
        <time>2021-02-20T13:25:33.000Z</time>
      </trkpt>
      <trkpt lat="43.90722" lon="7.51183">
        <ele>430.20001220703</ele>
        <time>2021-02-20T13:25:35.000Z</time>
      </trkpt>
      <trkpt lat="43.90718" lon="7.51184">
        <ele>430.79998779297</ele>
        <time>2021-02-20T13:25:37.000Z</time>
      </trkpt>
      <trkpt lat="43.90713" lon="7.51186">
        <ele>432</ele>
        <time>2021-02-20T13:25:40.000Z</time>
      </trkpt>
      <trkpt lat="43.90711" lon="7.51186">
        <ele>432.20001220703</ele>
        <time>2021-02-20T13:25:41.000Z</time>
      </trkpt>
      <trkpt lat="43.90703" lon="7.51182">
        <ele>433</ele>
        <time>2021-02-20T13:25:45.000Z</time>
      </trkpt>
      <trkpt lat="43.90701" lon="7.51181">
        <ele>433.39999389648</ele>
        <time>2021-02-20T13:25:46.000Z</time>
      </trkpt>
      <trkpt lat="43.90698" lon="7.5118">
        <ele>434.20001220703</ele>
        <time>2021-02-20T13:25:48.000Z</time>
      </trkpt>
      <trkpt lat="43.90695" lon="7.51181">
        <ele>435.20001220703</ele>
        <time>2021-02-20T13:25:51.000Z</time>
      </trkpt>
      <trkpt lat="43.90694" lon="7.51181">
        <ele>435.60000610352</ele>
        <time>2021-02-20T13:25:52.000Z</time>
      </trkpt>
      <trkpt lat="43.90693" lon="7.51183">
        <ele>436.60000610352</ele>
        <time>2021-02-20T13:25:55.000Z</time>
      </trkpt>
      <trkpt lat="43.90694" lon="7.51184">
        <ele>437.20001220703</ele>
        <time>2021-02-20T13:25:57.000Z</time>
      </trkpt>
      <trkpt lat="43.90695" lon="7.51184">
        <ele>437.39999389648</ele>
        <time>2021-02-20T13:25:59.000Z</time>
      </trkpt>
      <trkpt lat="43.90697" lon="7.51186">
        <ele>437.60000610352</ele>
        <time>2021-02-20T13:26:01.000Z</time>
      </trkpt>
      <trkpt lat="43.90699" lon="7.51191">
        <ele>437.60000610352</ele>
        <time>2021-02-20T13:26:03.000Z</time>
      </trkpt>
      <trkpt lat="43.907" lon="7.51193">
        <ele>437.60000610352</ele>
        <time>2021-02-20T13:26:04.000Z</time>
      </trkpt>
      <trkpt lat="43.90701" lon="7.51196">
        <ele>438</ele>
        <time>2021-02-20T13:26:06.000Z</time>
      </trkpt>
      <trkpt lat="43.90697" lon="7.51198">
        <ele>438.79998779297</ele>
        <time>2021-02-20T13:26:09.000Z</time>
      </trkpt>
      <trkpt lat="43.90691" lon="7.51197">
        <ele>439.79998779297</ele>
        <time>2021-02-20T13:26:12.000Z</time>
      </trkpt>
      <trkpt lat="43.90687" lon="7.51197">
        <ele>440.39999389648</ele>
        <time>2021-02-20T13:26:14.000Z</time>
      </trkpt>
      <trkpt lat="43.90686" lon="7.51198">
        <ele>440.79998779297</ele>
        <time>2021-02-20T13:26:15.000Z</time>
      </trkpt>
      <trkpt lat="43.90684" lon="7.51199">
        <ele>441</ele>
        <time>2021-02-20T13:26:16.000Z</time>
      </trkpt>
      <trkpt lat="43.90683" lon="7.51202">
        <ele>442</ele>
        <time>2021-02-20T13:26:19.000Z</time>
      </trkpt>
      <trkpt lat="43.90683" lon="7.51202">
        <ele>442.39999389648</ele>
        <time>2021-02-20T13:26:20.000Z</time>
      </trkpt>
      <trkpt lat="43.90685" lon="7.51204">
        <ele>443</ele>
        <time>2021-02-20T13:26:25.000Z</time>
      </trkpt>
      <trkpt lat="43.90686" lon="7.51204">
        <ele>442.79998779297</ele>
        <time>2021-02-20T13:26:26.000Z</time>
      </trkpt>
      <trkpt lat="43.9069" lon="7.51207">
        <ele>443.20001220703</ele>
        <time>2021-02-20T13:26:29.000Z</time>
      </trkpt>
      <trkpt lat="43.90692" lon="7.51211">
        <ele>443.60000610352</ele>
        <time>2021-02-20T13:26:31.000Z</time>
      </trkpt>
      <trkpt lat="43.9069" lon="7.51214">
        <ele>444</ele>
        <time>2021-02-20T13:26:33.000Z</time>
      </trkpt>
      <trkpt lat="43.9069" lon="7.51214">
        <ele>444.79998779297</ele>
        <time>2021-02-20T13:26:37.000Z</time>
      </trkpt>
      <trkpt lat="43.90688" lon="7.51214">
        <ele>445</ele>
        <time>2021-02-20T13:26:38.000Z</time>
      </trkpt>
      <trkpt lat="43.90684" lon="7.51214">
        <ele>445.60000610352</ele>
        <time>2021-02-20T13:26:42.000Z</time>
      </trkpt>
      <trkpt lat="43.90683" lon="7.51214">
        <ele>446</ele>
        <time>2021-02-20T13:26:43.000Z</time>
      </trkpt>
      <trkpt lat="43.90683" lon="7.51216">
        <ele>446.60000610352</ele>
        <time>2021-02-20T13:26:45.000Z</time>
      </trkpt>
      <trkpt lat="43.90685" lon="7.51217">
        <ele>446.79998779297</ele>
        <time>2021-02-20T13:26:46.000Z</time>
      </trkpt>
      <trkpt lat="43.90689" lon="7.5122">
        <ele>447.20001220703</ele>
        <time>2021-02-20T13:26:49.000Z</time>
      </trkpt>
      <trkpt lat="43.90692" lon="7.51222">
        <ele>447.60000610352</ele>
        <time>2021-02-20T13:26:51.000Z</time>
      </trkpt>
      <trkpt lat="43.90691" lon="7.51228">
        <ele>448.20001220703</ele>
        <time>2021-02-20T13:26:54.000Z</time>
      </trkpt>
      <trkpt lat="43.90692" lon="7.51227">
        <ele>448.39999389648</ele>
        <time>2021-02-20T13:26:55.000Z</time>
      </trkpt>
      <trkpt lat="43.90687" lon="7.51227">
        <ele>449.39999389648</ele>
        <time>2021-02-20T13:26:59.000Z</time>
      </trkpt>
      <trkpt lat="43.90685" lon="7.51227">
        <ele>449.39999389648</ele>
        <time>2021-02-20T13:27:00.000Z</time>
      </trkpt>
      <trkpt lat="43.90676" lon="7.5123">
        <ele>450.79998779297</ele>
        <time>2021-02-20T13:27:05.000Z</time>
      </trkpt>
      <trkpt lat="43.90674" lon="7.51232">
        <ele>452.39999389648</ele>
        <time>2021-02-20T13:27:08.000Z</time>
      </trkpt>
      <trkpt lat="43.90674" lon="7.51232">
        <ele>452.79998779297</ele>
        <time>2021-02-20T13:27:09.000Z</time>
      </trkpt>
      <trkpt lat="43.90675" lon="7.51232">
        <ele>453.20001220703</ele>
        <time>2021-02-20T13:27:13.000Z</time>
      </trkpt>
      <trkpt lat="43.90678" lon="7.51234">
        <ele>453.39999389648</ele>
        <time>2021-02-20T13:27:16.000Z</time>
      </trkpt>
      <trkpt lat="43.90679" lon="7.51235">
        <ele>453.79998779297</ele>
        <time>2021-02-20T13:27:18.000Z</time>
      </trkpt>
      <trkpt lat="43.90685" lon="7.51241">
        <ele>454.60000610352</ele>
        <time>2021-02-20T13:27:22.000Z</time>
      </trkpt>
      <trkpt lat="43.9069" lon="7.51248">
        <ele>456</ele>
        <time>2021-02-20T13:27:26.000Z</time>
      </trkpt>
      <trkpt lat="43.90691" lon="7.5125">
        <ele>456.20001220703</ele>
        <time>2021-02-20T13:27:27.000Z</time>
      </trkpt>
      <trkpt lat="43.90692" lon="7.51255">
        <ele>456.79998779297</ele>
        <time>2021-02-20T13:27:29.000Z</time>
      </trkpt>
      <trkpt lat="43.90692" lon="7.51255">
        <ele>457</ele>
        <time>2021-02-20T13:27:30.000Z</time>
      </trkpt>
      <trkpt lat="43.90692" lon="7.51255">
        <ele>457.20001220703</ele>
        <time>2021-02-20T13:27:31.000Z</time>
      </trkpt>
      <trkpt lat="43.90691" lon="7.51256">
        <ele>458.20001220703</ele>
        <time>2021-02-20T13:27:33.000Z</time>
      </trkpt>
      <trkpt lat="43.90687" lon="7.51254">
        <ele>458.79998779297</ele>
        <time>2021-02-20T13:27:37.000Z</time>
      </trkpt>
      <trkpt lat="43.90683" lon="7.51253">
        <ele>459.39999389648</ele>
        <time>2021-02-20T13:27:40.000Z</time>
      </trkpt>
      <trkpt lat="43.90682" lon="7.51255">
        <ele>460</ele>
        <time>2021-02-20T13:27:43.000Z</time>
      </trkpt>
      <trkpt lat="43.90682" lon="7.51255">
        <ele>460.39999389648</ele>
        <time>2021-02-20T13:27:45.000Z</time>
      </trkpt>
      <trkpt lat="43.90682" lon="7.51255">
        <ele>460.79998779297</ele>
        <time>2021-02-20T13:27:48.000Z</time>
      </trkpt>
      <trkpt lat="43.90686" lon="7.51259">
        <ele>461.39999389648</ele>
        <time>2021-02-20T13:27:53.000Z</time>
      </trkpt>
      <trkpt lat="43.90688" lon="7.51262">
        <ele>461.60000610352</ele>
        <time>2021-02-20T13:27:55.000Z</time>
      </trkpt>
      <trkpt lat="43.90691" lon="7.51268">
        <ele>461.79998779297</ele>
        <time>2021-02-20T13:27:58.000Z</time>
      </trkpt>
      <trkpt lat="43.90693" lon="7.51278">
        <ele>462.79998779297</ele>
        <time>2021-02-20T13:28:02.000Z</time>
      </trkpt>
      <trkpt lat="43.90693" lon="7.5128">
        <ele>463.20001220703</ele>
        <time>2021-02-20T13:28:03.000Z</time>
      </trkpt>
      <trkpt lat="43.90693" lon="7.51281">
        <ele>463.60000610352</ele>
        <time>2021-02-20T13:28:04.000Z</time>
      </trkpt>
      <trkpt lat="43.90692" lon="7.51281">
        <ele>464</ele>
        <time>2021-02-20T13:28:05.000Z</time>
      </trkpt>
      <trkpt lat="43.9069" lon="7.5128">
        <ele>464.60000610352</ele>
        <time>2021-02-20T13:28:07.000Z</time>
      </trkpt>
      <trkpt lat="43.90689" lon="7.51277">
        <ele>465.20001220703</ele>
        <time>2021-02-20T13:28:09.000Z</time>
      </trkpt>
      <trkpt lat="43.90685" lon="7.51275">
        <ele>466</ele>
        <time>2021-02-20T13:28:13.000Z</time>
      </trkpt>
      <trkpt lat="43.90684" lon="7.51274">
        <ele>466.20001220703</ele>
        <time>2021-02-20T13:28:14.000Z</time>
      </trkpt>
      <trkpt lat="43.90676" lon="7.51273">
        <ele>467.39999389648</ele>
        <time>2021-02-20T13:28:19.000Z</time>
      </trkpt>
      <trkpt lat="43.90675" lon="7.51273">
        <ele>467.79998779297</ele>
        <time>2021-02-20T13:28:20.000Z</time>
      </trkpt>
      <trkpt lat="43.90671" lon="7.51273">
        <ele>468.39999389648</ele>
        <time>2021-02-20T13:28:22.000Z</time>
      </trkpt>
      <trkpt lat="43.90665" lon="7.51273">
        <ele>469.39999389648</ele>
        <time>2021-02-20T13:28:25.000Z</time>
      </trkpt>
      <trkpt lat="43.90663" lon="7.51274">
        <ele>470</ele>
        <time>2021-02-20T13:28:26.000Z</time>
      </trkpt>
      <trkpt lat="43.90659" lon="7.51277">
        <ele>471.20001220703</ele>
        <time>2021-02-20T13:28:29.000Z</time>
      </trkpt>
      <trkpt lat="43.90657" lon="7.51278">
        <ele>471.60000610352</ele>
        <time>2021-02-20T13:28:30.000Z</time>
      </trkpt>
      <trkpt lat="43.90654" lon="7.51281">
        <ele>472.60000610352</ele>
        <time>2021-02-20T13:28:32.000Z</time>
      </trkpt>
      <trkpt lat="43.90649" lon="7.51283">
        <ele>473.79998779297</ele>
        <time>2021-02-20T13:28:35.000Z</time>
      </trkpt>
      <trkpt lat="43.90647" lon="7.51284">
        <ele>474.20001220703</ele>
        <time>2021-02-20T13:28:36.000Z</time>
      </trkpt>
      <trkpt lat="43.90644" lon="7.51285">
        <ele>475.20001220703</ele>
        <time>2021-02-20T13:28:38.000Z</time>
      </trkpt>
      <trkpt lat="43.90643" lon="7.51284">
        <ele>475.39999389648</ele>
        <time>2021-02-20T13:28:39.000Z</time>
      </trkpt>
      <trkpt lat="43.9064" lon="7.5128">
        <ele>476.20001220703</ele>
        <time>2021-02-20T13:28:41.000Z</time>
      </trkpt>
      <trkpt lat="43.90638" lon="7.51273">
        <ele>477.60000610352</ele>
        <time>2021-02-20T13:28:44.000Z</time>
      </trkpt>
      <trkpt lat="43.90637" lon="7.51271">
        <ele>477.79998779297</ele>
        <time>2021-02-20T13:28:45.000Z</time>
      </trkpt>
      <trkpt lat="43.90636" lon="7.51269">
        <ele>478</ele>
        <time>2021-02-20T13:28:46.000Z</time>
      </trkpt>
      <trkpt lat="43.90629" lon="7.51263">
        <ele>478.60000610352</ele>
        <time>2021-02-20T13:28:51.000Z</time>
      </trkpt>
      <trkpt lat="43.90627" lon="7.51262">
        <ele>478.79998779297</ele>
        <time>2021-02-20T13:28:52.000Z</time>
      </trkpt>
      <trkpt lat="43.90621" lon="7.51257">
        <ele>479.60000610352</ele>
        <time>2021-02-20T13:28:55.000Z</time>
      </trkpt>
      <trkpt lat="43.90618" lon="7.51255">
        <ele>480</ele>
        <time>2021-02-20T13:28:57.000Z</time>
      </trkpt>
      <trkpt lat="43.90612" lon="7.51253">
        <ele>480.60000610352</ele>
        <time>2021-02-20T13:29:00.000Z</time>
      </trkpt>
      <trkpt lat="43.9061" lon="7.51253">
        <ele>481</ele>
        <time>2021-02-20T13:29:01.000Z</time>
      </trkpt>
      <trkpt lat="43.90607" lon="7.51253">
        <ele>481.60000610352</ele>
        <time>2021-02-20T13:29:03.000Z</time>
      </trkpt>
      <trkpt lat="43.90605" lon="7.51253">
        <ele>482.20001220703</ele>
        <time>2021-02-20T13:29:04.000Z</time>
      </trkpt>
      <trkpt lat="43.906" lon="7.51255">
        <ele>483.60000610352</ele>
        <time>2021-02-20T13:29:07.000Z</time>
      </trkpt>
      <trkpt lat="43.90597" lon="7.51256">
        <ele>484.60000610352</ele>
        <time>2021-02-20T13:29:09.000Z</time>
      </trkpt>
      <trkpt lat="43.90594" lon="7.51255">
        <ele>485.79998779297</ele>
        <time>2021-02-20T13:29:11.000Z</time>
      </trkpt>
      <trkpt lat="43.90589" lon="7.51257">
        <ele>486.79998779297</ele>
        <time>2021-02-20T13:29:14.000Z</time>
      </trkpt>
      <trkpt lat="43.90589" lon="7.51259">
        <ele>487.20001220703</ele>
        <time>2021-02-20T13:29:15.000Z</time>
      </trkpt>
      <trkpt lat="43.90589" lon="7.51264">
        <ele>488</ele>
        <time>2021-02-20T13:29:18.000Z</time>
      </trkpt>
      <trkpt lat="43.90592" lon="7.51264">
        <ele>489</ele>
        <time>2021-02-20T13:29:21.000Z</time>
      </trkpt>
      <trkpt lat="43.90595" lon="7.51265">
        <ele>489.79998779297</ele>
        <time>2021-02-20T13:29:23.000Z</time>
      </trkpt>
      <trkpt lat="43.90596" lon="7.51267">
        <ele>490.20001220703</ele>
        <time>2021-02-20T13:29:24.000Z</time>
      </trkpt>
      <trkpt lat="43.90603" lon="7.51274">
        <ele>491.39999389648</ele>
        <time>2021-02-20T13:29:28.000Z</time>
      </trkpt>
      <trkpt lat="43.90604" lon="7.51275">
        <ele>491.60000610352</ele>
        <time>2021-02-20T13:29:29.000Z</time>
      </trkpt>
      <trkpt lat="43.90608" lon="7.5128">
        <ele>492.60000610352</ele>
        <time>2021-02-20T13:29:32.000Z</time>
      </trkpt>
      <trkpt lat="43.90609" lon="7.51282">
        <ele>493</ele>
        <time>2021-02-20T13:29:33.000Z</time>
      </trkpt>
      <trkpt lat="43.90611" lon="7.51285">
        <ele>493.60000610352</ele>
        <time>2021-02-20T13:29:35.000Z</time>
      </trkpt>
      <trkpt lat="43.90614" lon="7.51291">
        <ele>494.60000610352</ele>
        <time>2021-02-20T13:29:38.000Z</time>
      </trkpt>
      <trkpt lat="43.90613" lon="7.51293">
        <ele>494.79998779297</ele>
        <time>2021-02-20T13:29:39.000Z</time>
      </trkpt>
      <trkpt lat="43.90608" lon="7.51292">
        <ele>496</ele>
        <time>2021-02-20T13:29:43.000Z</time>
      </trkpt>
      <trkpt lat="43.90603" lon="7.51291">
        <ele>497.20001220703</ele>
        <time>2021-02-20T13:29:46.000Z</time>
      </trkpt>
      <trkpt lat="43.90599" lon="7.51294">
        <ele>498.20001220703</ele>
        <time>2021-02-20T13:29:49.000Z</time>
      </trkpt>
      <trkpt lat="43.90597" lon="7.51295">
        <ele>498.39999389648</ele>
        <time>2021-02-20T13:29:50.000Z</time>
      </trkpt>
      <trkpt lat="43.90593" lon="7.51299">
        <ele>499.60000610352</ele>
        <time>2021-02-20T13:29:53.000Z</time>
      </trkpt>
      <trkpt lat="43.9059" lon="7.51301">
        <ele>500.79998779297</ele>
        <time>2021-02-20T13:29:55.000Z</time>
      </trkpt>
      <trkpt lat="43.90587" lon="7.51304">
        <ele>501.39999389648</ele>
        <time>2021-02-20T13:29:57.000Z</time>
      </trkpt>
      <trkpt lat="43.90586" lon="7.51309">
        <ele>501.60000610352</ele>
        <time>2021-02-20T13:29:59.000Z</time>
      </trkpt>
      <trkpt lat="43.90585" lon="7.51312">
        <ele>501.79998779297</ele>
        <time>2021-02-20T13:30:00.000Z</time>
      </trkpt>
      <trkpt lat="43.90586" lon="7.51317">
        <ele>503</ele>
        <time>2021-02-20T13:30:03.000Z</time>
      </trkpt>
      <trkpt lat="43.90586" lon="7.51317">
        <ele>503.60000610352</ele>
        <time>2021-02-20T13:30:04.000Z</time>
      </trkpt>
      <trkpt lat="43.90588" lon="7.51316">
        <ele>504.39999389648</ele>
        <time>2021-02-20T13:30:06.000Z</time>
      </trkpt>
      <trkpt lat="43.90591" lon="7.51314">
        <ele>505</ele>
        <time>2021-02-20T13:30:08.000Z</time>
      </trkpt>
      <trkpt lat="43.90593" lon="7.51313">
        <ele>505.39999389648</ele>
        <time>2021-02-20T13:30:10.000Z</time>
      </trkpt>
      <trkpt lat="43.90597" lon="7.51313">
        <ele>506.20001220703</ele>
        <time>2021-02-20T13:30:12.000Z</time>
      </trkpt>
      <trkpt lat="43.90598" lon="7.51313">
        <ele>506.60000610352</ele>
        <time>2021-02-20T13:30:13.000Z</time>
      </trkpt>
      <trkpt lat="43.90605" lon="7.5132">
        <ele>507.60000610352</ele>
        <time>2021-02-20T13:30:18.000Z</time>
      </trkpt>
      <trkpt lat="43.90606" lon="7.51322">
        <ele>507.60000610352</ele>
        <time>2021-02-20T13:30:19.000Z</time>
      </trkpt>
      <trkpt lat="43.90611" lon="7.51332">
        <ele>509</ele>
        <time>2021-02-20T13:30:23.000Z</time>
      </trkpt>
      <trkpt lat="43.9061" lon="7.51333">
        <ele>509.39999389648</ele>
        <time>2021-02-20T13:30:24.000Z</time>
      </trkpt>
      <trkpt lat="43.90607" lon="7.51333">
        <ele>510.20001220703</ele>
        <time>2021-02-20T13:30:26.000Z</time>
      </trkpt>
      <trkpt lat="43.90605" lon="7.51333">
        <ele>511</ele>
        <time>2021-02-20T13:30:28.000Z</time>
      </trkpt>
      <trkpt lat="43.90605" lon="7.51333">
        <ele>511.20001220703</ele>
        <time>2021-02-20T13:30:29.000Z</time>
      </trkpt>
      <trkpt lat="43.90604" lon="7.51333">
        <ele>512.20001220703</ele>
        <time>2021-02-20T13:30:31.000Z</time>
      </trkpt>
      <trkpt lat="43.90602" lon="7.51333">
        <ele>512.79998779297</ele>
        <time>2021-02-20T13:30:33.000Z</time>
      </trkpt>
      <trkpt lat="43.90601" lon="7.51334">
        <ele>513</ele>
        <time>2021-02-20T13:30:37.000Z</time>
      </trkpt>
      <trkpt lat="43.90601" lon="7.51334">
        <ele>513.40002441406</ele>
        <time>2021-02-20T13:30:40.000Z</time>
      </trkpt>
      <trkpt lat="43.90599" lon="7.51333">
        <ele>513.59997558594</ele>
        <time>2021-02-20T13:30:43.000Z</time>
      </trkpt>
      <trkpt lat="43.90596" lon="7.51332">
        <ele>514.20001220703</ele>
        <time>2021-02-20T13:30:48.000Z</time>
      </trkpt>
      <trkpt lat="43.90596" lon="7.51333">
        <ele>514.79998779297</ele>
        <time>2021-02-20T13:30:49.000Z</time>
      </trkpt>
      <trkpt lat="43.90598" lon="7.51335">
        <ele>515.20001220703</ele>
        <time>2021-02-20T13:30:55.000Z</time>
      </trkpt>
      <trkpt lat="43.90604" lon="7.51337">
        <ele>515.79998779297</ele>
        <time>2021-02-20T13:31:01.000Z</time>
      </trkpt>
      <trkpt lat="43.90605" lon="7.51338">
        <ele>516</ele>
        <time>2021-02-20T13:31:02.000Z</time>
      </trkpt>
      <trkpt lat="43.90608" lon="7.51339">
        <ele>516.79998779297</ele>
        <time>2021-02-20T13:31:05.000Z</time>
      </trkpt>
      <trkpt lat="43.90608" lon="7.5134">
        <ele>516.79998779297</ele>
        <time>2021-02-20T13:31:06.000Z</time>
      </trkpt>
      <trkpt lat="43.9061" lon="7.51342">
        <ele>517.40002441406</ele>
        <time>2021-02-20T13:31:09.000Z</time>
      </trkpt>
      <trkpt lat="43.90611" lon="7.51343">
        <ele>517.59997558594</ele>
        <time>2021-02-20T13:31:14.000Z</time>
      </trkpt>
      <trkpt lat="43.90612" lon="7.51344">
        <ele>517.59997558594</ele>
        <time>2021-02-20T13:31:29.000Z</time>
      </trkpt>
      <trkpt lat="43.90611" lon="7.51343">
        <ele>517.59997558594</ele>
        <time>2021-02-20T13:31:42.000Z</time>
      </trkpt>
      <trkpt lat="43.9061" lon="7.51343">
        <ele>517.59997558594</ele>
        <time>2021-02-20T13:31:55.000Z</time>
      </trkpt>
      <trkpt lat="43.90612" lon="7.51341">
        <ele>517.40002441406</ele>
        <time>2021-02-20T13:32:07.000Z</time>
      </trkpt>
      <trkpt lat="43.90614" lon="7.5134">
        <ele>517.40002441406</ele>
        <time>2021-02-20T13:32:17.000Z</time>
      </trkpt>
      <trkpt lat="43.90614" lon="7.51339">
        <ele>517.40002441406</ele>
        <time>2021-02-20T13:32:28.000Z</time>
      </trkpt>
      <trkpt lat="43.90614" lon="7.5134">
        <ele>517.59997558594</ele>
        <time>2021-02-20T13:32:36.000Z</time>
      </trkpt>
      <trkpt lat="43.90613" lon="7.51342">
        <ele>517.40002441406</ele>
        <time>2021-02-20T13:32:44.000Z</time>
      </trkpt>
      <trkpt lat="43.90614" lon="7.51344">
        <ele>518</ele>
        <time>2021-02-20T13:32:48.000Z</time>
      </trkpt>
      <trkpt lat="43.90614" lon="7.51344">
        <ele>518.40002441406</ele>
        <time>2021-02-20T13:32:51.000Z</time>
      </trkpt>
      <trkpt lat="43.90613" lon="7.51345">
        <ele>518.59997558594</ele>
        <time>2021-02-20T13:33:07.000Z</time>
      </trkpt>
      <trkpt lat="43.90614" lon="7.51347">
        <ele>518.40002441406</ele>
        <time>2021-02-20T13:33:13.000Z</time>
      </trkpt>
      <trkpt lat="43.90613" lon="7.51348">
        <ele>518.59997558594</ele>
        <time>2021-02-20T13:33:18.000Z</time>
      </trkpt>
      <trkpt lat="43.90609" lon="7.5135">
        <ele>518.59997558594</ele>
        <time>2021-02-20T13:33:22.000Z</time>
      </trkpt>
      <trkpt lat="43.90606" lon="7.51351">
        <ele>519.20001220703</ele>
        <time>2021-02-20T13:33:24.000Z</time>
      </trkpt>
      <trkpt lat="43.90601" lon="7.51351">
        <ele>520.59997558594</ele>
        <time>2021-02-20T13:33:27.000Z</time>
      </trkpt>
      <trkpt lat="43.90597" lon="7.51353">
        <ele>521.79998779297</ele>
        <time>2021-02-20T13:33:29.000Z</time>
      </trkpt>
      <trkpt lat="43.90592" lon="7.51356">
        <ele>523.20001220703</ele>
        <time>2021-02-20T13:33:32.000Z</time>
      </trkpt>
      <trkpt lat="43.90587" lon="7.51358">
        <ele>524.40002441406</ele>
        <time>2021-02-20T13:33:34.000Z</time>
      </trkpt>
      <trkpt lat="43.90583" lon="7.51364">
        <ele>525.20001220703</ele>
        <time>2021-02-20T13:33:36.000Z</time>
      </trkpt>
      <trkpt lat="43.90581" lon="7.51367">
        <ele>525.59997558594</ele>
        <time>2021-02-20T13:33:37.000Z</time>
      </trkpt>
      <trkpt lat="43.90573" lon="7.51375">
        <ele>525.59997558594</ele>
        <time>2021-02-20T13:33:41.000Z</time>
      </trkpt>
      <trkpt lat="43.90563" lon="7.5138">
        <ele>526.20001220703</ele>
        <time>2021-02-20T13:33:45.000Z</time>
      </trkpt>
      <trkpt lat="43.9056" lon="7.51381">
        <ele>526.20001220703</ele>
        <time>2021-02-20T13:33:46.000Z</time>
      </trkpt>
      <trkpt lat="43.90556" lon="7.51382">
        <ele>526.59997558594</ele>
        <time>2021-02-20T13:33:48.000Z</time>
      </trkpt>
      <trkpt lat="43.90549" lon="7.51384">
        <ele>527.40002441406</ele>
        <time>2021-02-20T13:33:51.000Z</time>
      </trkpt>
      <trkpt lat="43.90545" lon="7.51386">
        <ele>528</ele>
        <time>2021-02-20T13:33:53.000Z</time>
      </trkpt>
      <trkpt lat="43.90538" lon="7.51388">
        <ele>528.79998779297</ele>
        <time>2021-02-20T13:33:56.000Z</time>
      </trkpt>
      <trkpt lat="43.90535" lon="7.51389">
        <ele>529.40002441406</ele>
        <time>2021-02-20T13:33:57.000Z</time>
      </trkpt>
      <trkpt lat="43.90524" lon="7.51392">
        <ele>530.59997558594</ele>
        <time>2021-02-20T13:34:01.000Z</time>
      </trkpt>
      <trkpt lat="43.90518" lon="7.51394">
        <ele>531</ele>
        <time>2021-02-20T13:34:03.000Z</time>
      </trkpt>
      <trkpt lat="43.9051" lon="7.51399">
        <ele>531.59997558594</ele>
        <time>2021-02-20T13:34:06.000Z</time>
      </trkpt>
      <trkpt lat="43.90503" lon="7.51408">
        <ele>532</ele>
        <time>2021-02-20T13:34:09.000Z</time>
      </trkpt>
      <trkpt lat="43.90491" lon="7.51422">
        <ele>532.59997558594</ele>
        <time>2021-02-20T13:34:15.000Z</time>
      </trkpt>
      <trkpt lat="43.90482" lon="7.51429">
        <ele>532.79998779297</ele>
        <time>2021-02-20T13:34:19.000Z</time>
      </trkpt>
      <trkpt lat="43.90476" lon="7.51431">
        <ele>533.79998779297</ele>
        <time>2021-02-20T13:34:22.000Z</time>
      </trkpt>
      <trkpt lat="43.90474" lon="7.51432">
        <ele>534.40002441406</ele>
        <time>2021-02-20T13:34:23.000Z</time>
      </trkpt>
      <trkpt lat="43.90472" lon="7.51432">
        <ele>535</ele>
        <time>2021-02-20T13:34:24.000Z</time>
      </trkpt>
      <trkpt lat="43.90471" lon="7.51432">
        <ele>535.40002441406</ele>
        <time>2021-02-20T13:34:25.000Z</time>
      </trkpt>
      <trkpt lat="43.90469" lon="7.51432">
        <ele>536</ele>
        <time>2021-02-20T13:34:26.000Z</time>
      </trkpt>
      <trkpt lat="43.90463" lon="7.51432">
        <ele>537.40002441406</ele>
        <time>2021-02-20T13:34:29.000Z</time>
      </trkpt>
      <trkpt lat="43.90461" lon="7.51432">
        <ele>537.79998779297</ele>
        <time>2021-02-20T13:34:30.000Z</time>
      </trkpt>
      <trkpt lat="43.90454" lon="7.51431">
        <ele>538.79998779297</ele>
        <time>2021-02-20T13:34:33.000Z</time>
      </trkpt>
      <trkpt lat="43.90448" lon="7.51431">
        <ele>540.20001220703</ele>
        <time>2021-02-20T13:34:36.000Z</time>
      </trkpt>
      <trkpt lat="43.90444" lon="7.51432">
        <ele>541.20001220703</ele>
        <time>2021-02-20T13:34:38.000Z</time>
      </trkpt>
      <trkpt lat="43.90443" lon="7.51433">
        <ele>542</ele>
        <time>2021-02-20T13:34:39.000Z</time>
      </trkpt>
      <trkpt lat="43.90438" lon="7.51436">
        <ele>543.20001220703</ele>
        <time>2021-02-20T13:34:42.000Z</time>
      </trkpt>
      <trkpt lat="43.90433" lon="7.51439">
        <ele>544</ele>
        <time>2021-02-20T13:34:45.000Z</time>
      </trkpt>
      <trkpt lat="43.90431" lon="7.5144">
        <ele>544.40002441406</ele>
        <time>2021-02-20T13:34:47.000Z</time>
      </trkpt>
      <trkpt lat="43.90427" lon="7.51442">
        <ele>545.79998779297</ele>
        <time>2021-02-20T13:34:50.000Z</time>
      </trkpt>
      <trkpt lat="43.90425" lon="7.51443">
        <ele>546.40002441406</ele>
        <time>2021-02-20T13:34:51.000Z</time>
      </trkpt>
      <trkpt lat="43.90423" lon="7.51444">
        <ele>547</ele>
        <time>2021-02-20T13:34:52.000Z</time>
      </trkpt>
      <trkpt lat="43.90421" lon="7.51444">
        <ele>547.59997558594</ele>
        <time>2021-02-20T13:34:53.000Z</time>
      </trkpt>
      <trkpt lat="43.9042" lon="7.51444">
        <ele>548</ele>
        <time>2021-02-20T13:34:54.000Z</time>
      </trkpt>
      <trkpt lat="43.90418" lon="7.51445">
        <ele>548.79998779297</ele>
        <time>2021-02-20T13:34:55.000Z</time>
      </trkpt>
      <trkpt lat="43.90416" lon="7.51446">
        <ele>549.20001220703</ele>
        <time>2021-02-20T13:34:56.000Z</time>
      </trkpt>
      <trkpt lat="43.90415" lon="7.51447">
        <ele>549.79998779297</ele>
        <time>2021-02-20T13:34:57.000Z</time>
      </trkpt>
      <trkpt lat="43.90412" lon="7.51448">
        <ele>550.40002441406</ele>
        <time>2021-02-20T13:34:58.000Z</time>
      </trkpt>
      <trkpt lat="43.90406" lon="7.51456">
        <ele>551.20001220703</ele>
        <time>2021-02-20T13:35:02.000Z</time>
      </trkpt>
      <trkpt lat="43.90402" lon="7.51461">
        <ele>551.40002441406</ele>
        <time>2021-02-20T13:35:05.000Z</time>
      </trkpt>
      <trkpt lat="43.90396" lon="7.51469">
        <ele>552.20001220703</ele>
        <time>2021-02-20T13:35:09.000Z</time>
      </trkpt>
      <trkpt lat="43.90393" lon="7.51472">
        <ele>552.59997558594</ele>
        <time>2021-02-20T13:35:11.000Z</time>
      </trkpt>
      <trkpt lat="43.90389" lon="7.51473">
        <ele>553</ele>
        <time>2021-02-20T13:35:13.000Z</time>
      </trkpt>
      <trkpt lat="43.90386" lon="7.51474">
        <ele>553.59997558594</ele>
        <time>2021-02-20T13:35:15.000Z</time>
      </trkpt>
      <trkpt lat="43.90377" lon="7.51475">
        <ele>554.79998779297</ele>
        <time>2021-02-20T13:35:20.000Z</time>
      </trkpt>
      <trkpt lat="43.90375" lon="7.51476">
        <ele>555</ele>
        <time>2021-02-20T13:35:21.000Z</time>
      </trkpt>
      <trkpt lat="43.9037" lon="7.51477">
        <ele>556</ele>
        <time>2021-02-20T13:35:24.000Z</time>
      </trkpt>
      <trkpt lat="43.90365" lon="7.51481">
        <ele>557</ele>
        <time>2021-02-20T13:35:27.000Z</time>
      </trkpt>
      <trkpt lat="43.90363" lon="7.51483">
        <ele>557.20001220703</ele>
        <time>2021-02-20T13:35:28.000Z</time>
      </trkpt>
      <trkpt lat="43.90356" lon="7.51487">
        <ele>558.59997558594</ele>
        <time>2021-02-20T13:35:32.000Z</time>
      </trkpt>
      <trkpt lat="43.90354" lon="7.51488">
        <ele>559.20001220703</ele>
        <time>2021-02-20T13:35:33.000Z</time>
      </trkpt>
      <trkpt lat="43.90353" lon="7.51488">
        <ele>560</ele>
        <time>2021-02-20T13:35:34.000Z</time>
      </trkpt>
      <trkpt lat="43.90348" lon="7.51491">
        <ele>561.40002441406</ele>
        <time>2021-02-20T13:35:37.000Z</time>
      </trkpt>
      <trkpt lat="43.90345" lon="7.51492">
        <ele>562.59997558594</ele>
        <time>2021-02-20T13:35:39.000Z</time>
      </trkpt>
      <trkpt lat="43.90342" lon="7.51494">
        <ele>563.79998779297</ele>
        <time>2021-02-20T13:35:41.000Z</time>
      </trkpt>
      <trkpt lat="43.9034" lon="7.51495">
        <ele>564.79998779297</ele>
        <time>2021-02-20T13:35:43.000Z</time>
      </trkpt>
      <trkpt lat="43.9034" lon="7.51495">
        <ele>565.20001220703</ele>
        <time>2021-02-20T13:35:44.000Z</time>
      </trkpt>
      <trkpt lat="43.90339" lon="7.51495">
        <ele>566</ele>
        <time>2021-02-20T13:35:46.000Z</time>
      </trkpt>
      <trkpt lat="43.90336" lon="7.51498">
        <ele>566.59997558594</ele>
        <time>2021-02-20T13:35:50.000Z</time>
      </trkpt>
      <trkpt lat="43.90333" lon="7.51499">
        <ele>567.20001220703</ele>
        <time>2021-02-20T13:35:52.000Z</time>
      </trkpt>
      <trkpt lat="43.90328" lon="7.51498">
        <ele>568</ele>
        <time>2021-02-20T13:35:55.000Z</time>
      </trkpt>
      <trkpt lat="43.90327" lon="7.51499">
        <ele>568.40002441406</ele>
        <time>2021-02-20T13:35:56.000Z</time>
      </trkpt>
      <trkpt lat="43.90325" lon="7.51499">
        <ele>568.59997558594</ele>
        <time>2021-02-20T13:35:57.000Z</time>
      </trkpt>
      <trkpt lat="43.90321" lon="7.51499">
        <ele>569.59997558594</ele>
        <time>2021-02-20T13:35:59.000Z</time>
      </trkpt>
      <trkpt lat="43.90318" lon="7.51498">
        <ele>570.59997558594</ele>
        <time>2021-02-20T13:36:01.000Z</time>
      </trkpt>
      <trkpt lat="43.90316" lon="7.51497">
        <ele>571.40002441406</ele>
        <time>2021-02-20T13:36:02.000Z</time>
      </trkpt>
      <trkpt lat="43.90315" lon="7.51496">
        <ele>571.79998779297</ele>
        <time>2021-02-20T13:36:03.000Z</time>
      </trkpt>
      <trkpt lat="43.90309" lon="7.51495">
        <ele>573.20001220703</ele>
        <time>2021-02-20T13:36:06.000Z</time>
      </trkpt>
      <trkpt lat="43.90308" lon="7.51494">
        <ele>573.40002441406</ele>
        <time>2021-02-20T13:36:07.000Z</time>
      </trkpt>
      <trkpt lat="43.90304" lon="7.51491">
        <ele>574.40002441406</ele>
        <time>2021-02-20T13:36:10.000Z</time>
      </trkpt>
      <trkpt lat="43.90302" lon="7.51492">
        <ele>575</ele>
        <time>2021-02-20T13:36:11.000Z</time>
      </trkpt>
      <trkpt lat="43.90302" lon="7.51494">
        <ele>575.40002441406</ele>
        <time>2021-02-20T13:36:13.000Z</time>
      </trkpt>
      <trkpt lat="43.90304" lon="7.51499">
        <ele>576.79998779297</ele>
        <time>2021-02-20T13:36:16.000Z</time>
      </trkpt>
      <trkpt lat="43.90304" lon="7.515">
        <ele>577.20001220703</ele>
        <time>2021-02-20T13:36:17.000Z</time>
      </trkpt>
      <trkpt lat="43.90304" lon="7.515">
        <ele>578</ele>
        <time>2021-02-20T13:36:19.000Z</time>
      </trkpt>
      <trkpt lat="43.90304" lon="7.515">
        <ele>578.59997558594</ele>
        <time>2021-02-20T13:36:22.000Z</time>
      </trkpt>
      <trkpt lat="43.90304" lon="7.515">
        <ele>578.40002441406</ele>
        <time>2021-02-20T13:36:25.000Z</time>
      </trkpt>
      <trkpt lat="43.90304" lon="7.515">
        <ele>578.40002441406</ele>
        <time>2021-02-20T13:36:27.000Z</time>
      </trkpt>
      <trkpt lat="43.90303" lon="7.51501">
        <ele>578.59997558594</ele>
        <time>2021-02-20T13:36:33.000Z</time>
      </trkpt>
      <trkpt lat="43.90302" lon="7.515">
        <ele>578.40002441406</ele>
        <time>2021-02-20T13:36:42.000Z</time>
      </trkpt>
      <trkpt lat="43.90301" lon="7.515">
        <ele>579</ele>
        <time>2021-02-20T13:36:48.000Z</time>
      </trkpt>
      <trkpt lat="43.903" lon="7.51499">
        <ele>579.20001220703</ele>
        <time>2021-02-20T13:36:50.000Z</time>
      </trkpt>
      <trkpt lat="43.90296" lon="7.51494">
        <ele>580</ele>
        <time>2021-02-20T13:36:56.000Z</time>
      </trkpt>
      <trkpt lat="43.90295" lon="7.51493">
        <ele>580.59997558594</ele>
        <time>2021-02-20T13:36:59.000Z</time>
      </trkpt>
      <trkpt lat="43.90294" lon="7.51493">
        <ele>581.20001220703</ele>
        <time>2021-02-20T13:37:02.000Z</time>
      </trkpt>
      <trkpt lat="43.90293" lon="7.51494">
        <ele>581.59997558594</ele>
        <time>2021-02-20T13:37:05.000Z</time>
      </trkpt>
      <trkpt lat="43.90294" lon="7.51497">
        <ele>582</ele>
        <time>2021-02-20T13:37:11.000Z</time>
      </trkpt>
      <trkpt lat="43.90296" lon="7.51502">
        <ele>582.20001220703</ele>
        <time>2021-02-20T13:37:14.000Z</time>
      </trkpt>
      <trkpt lat="43.90295" lon="7.51505">
        <ele>582.40002441406</ele>
        <time>2021-02-20T13:37:16.000Z</time>
      </trkpt>
      <trkpt lat="43.90294" lon="7.51505">
        <ele>583.40002441406</ele>
        <time>2021-02-20T13:37:21.000Z</time>
      </trkpt>
      <trkpt lat="43.90293" lon="7.51503">
        <ele>583.40002441406</ele>
        <time>2021-02-20T13:37:23.000Z</time>
      </trkpt>
      <trkpt lat="43.90292" lon="7.51502">
        <ele>583.79998779297</ele>
        <time>2021-02-20T13:37:26.000Z</time>
      </trkpt>
      <trkpt lat="43.90289" lon="7.515">
        <ele>584.20001220703</ele>
        <time>2021-02-20T13:37:30.000Z</time>
      </trkpt>
      <trkpt lat="43.90289" lon="7.51501">
        <ele>584.40002441406</ele>
        <time>2021-02-20T13:37:31.000Z</time>
      </trkpt>
      <trkpt lat="43.90288" lon="7.51501">
        <ele>585.20001220703</ele>
        <time>2021-02-20T13:37:35.000Z</time>
      </trkpt>
      <trkpt lat="43.90288" lon="7.51501">
        <ele>585.40002441406</ele>
        <time>2021-02-20T13:37:37.000Z</time>
      </trkpt>
      <trkpt lat="43.90289" lon="7.51501">
        <ele>585.40002441406</ele>
        <time>2021-02-20T13:37:39.000Z</time>
      </trkpt>
      <trkpt lat="43.90289" lon="7.51502">
        <ele>585.40002441406</ele>
        <time>2021-02-20T13:37:41.000Z</time>
      </trkpt>
      <trkpt lat="43.90287" lon="7.51503">
        <ele>585.20001220703</ele>
        <time>2021-02-20T13:37:43.000Z</time>
      </trkpt>
      <trkpt lat="43.90287" lon="7.51502">
        <ele>585.20001220703</ele>
        <time>2021-02-20T13:37:45.000Z</time>
      </trkpt>
      <trkpt lat="43.90285" lon="7.51501">
        <ele>586.59997558594</ele>
        <time>2021-02-20T13:37:50.000Z</time>
      </trkpt>
      <trkpt lat="43.90284" lon="7.515">
        <ele>586.59997558594</ele>
        <time>2021-02-20T13:37:58.000Z</time>
      </trkpt>
      <trkpt lat="43.90285" lon="7.51499">
        <ele>586.79998779297</ele>
        <time>2021-02-20T13:38:06.000Z</time>
      </trkpt>
      <trkpt lat="43.90282" lon="7.51495">
        <ele>586.79998779297</ele>
        <time>2021-02-20T13:38:12.000Z</time>
      </trkpt>
      <trkpt lat="43.90279" lon="7.51491">
        <ele>587</ele>
        <time>2021-02-20T13:38:15.000Z</time>
      </trkpt>
      <trkpt lat="43.90274" lon="7.51489">
        <ele>587.40002441406</ele>
        <time>2021-02-20T13:38:17.000Z</time>
      </trkpt>
      <trkpt lat="43.90272" lon="7.51487">
        <ele>587.59997558594</ele>
        <time>2021-02-20T13:38:18.000Z</time>
      </trkpt>
      <trkpt lat="43.90267" lon="7.51476">
        <ele>588</ele>
        <time>2021-02-20T13:38:22.000Z</time>
      </trkpt>
      <trkpt lat="43.90266" lon="7.51465">
        <ele>588.79998779297</ele>
        <time>2021-02-20T13:38:25.000Z</time>
      </trkpt>
      <trkpt lat="43.90264" lon="7.51458">
        <ele>589.79998779297</ele>
        <time>2021-02-20T13:38:28.000Z</time>
      </trkpt>
      <trkpt lat="43.90262" lon="7.51457">
        <ele>590.20001220703</ele>
        <time>2021-02-20T13:38:29.000Z</time>
      </trkpt>
      <trkpt lat="43.90259" lon="7.51455">
        <ele>591.59997558594</ele>
        <time>2021-02-20T13:38:31.000Z</time>
      </trkpt>
      <trkpt lat="43.90257" lon="7.51455">
        <ele>592.40002441406</ele>
        <time>2021-02-20T13:38:33.000Z</time>
      </trkpt>
      <trkpt lat="43.90256" lon="7.51456">
        <ele>592.79998779297</ele>
        <time>2021-02-20T13:38:34.000Z</time>
      </trkpt>
      <trkpt lat="43.90256" lon="7.51461">
        <ele>593.79998779297</ele>
        <time>2021-02-20T13:38:37.000Z</time>
      </trkpt>
      <trkpt lat="43.90256" lon="7.51463">
        <ele>594.20001220703</ele>
        <time>2021-02-20T13:38:38.000Z</time>
      </trkpt>
      <trkpt lat="43.90255" lon="7.51462">
        <ele>594.79998779297</ele>
        <time>2021-02-20T13:38:41.000Z</time>
      </trkpt>
      <trkpt lat="43.90254" lon="7.51462">
        <ele>595</ele>
        <time>2021-02-20T13:38:42.000Z</time>
      </trkpt>
      <trkpt lat="43.90252" lon="7.51459">
        <ele>595.40002441406</ele>
        <time>2021-02-20T13:38:47.000Z</time>
      </trkpt>
      <trkpt lat="43.90251" lon="7.51457">
        <ele>595.40002441406</ele>
        <time>2021-02-20T13:38:48.000Z</time>
      </trkpt>
      <trkpt lat="43.90249" lon="7.51451">
        <ele>595.40002441406</ele>
        <time>2021-02-20T13:38:51.000Z</time>
      </trkpt>
      <trkpt lat="43.90248" lon="7.51451">
        <ele>596</ele>
        <time>2021-02-20T13:38:52.000Z</time>
      </trkpt>
      <trkpt lat="43.90247" lon="7.51452">
        <ele>596.20001220703</ele>
        <time>2021-02-20T13:38:53.000Z</time>
      </trkpt>
      <trkpt lat="43.90247" lon="7.51452">
        <ele>597.20001220703</ele>
        <time>2021-02-20T13:38:56.000Z</time>
      </trkpt>
      <trkpt lat="43.90246" lon="7.51454">
        <ele>598</ele>
        <time>2021-02-20T13:39:00.000Z</time>
      </trkpt>
      <trkpt lat="43.90247" lon="7.51461">
        <ele>598.20001220703</ele>
        <time>2021-02-20T13:39:03.000Z</time>
      </trkpt>
      <trkpt lat="43.90247" lon="7.51466">
        <ele>598.79998779297</ele>
        <time>2021-02-20T13:39:05.000Z</time>
      </trkpt>
      <trkpt lat="43.90247" lon="7.51466">
        <ele>599.59997558594</ele>
        <time>2021-02-20T13:39:07.000Z</time>
      </trkpt>
      <trkpt lat="43.90247" lon="7.51467">
        <ele>600.40002441406</ele>
        <time>2021-02-20T13:39:09.000Z</time>
      </trkpt>
      <trkpt lat="43.90247" lon="7.51467">
        <ele>600.79998779297</ele>
        <time>2021-02-20T13:39:10.000Z</time>
      </trkpt>
      <trkpt lat="43.90248" lon="7.51472">
        <ele>601.20001220703</ele>
        <time>2021-02-20T13:39:16.000Z</time>
      </trkpt>
      <trkpt lat="43.90248" lon="7.51476">
        <ele>601.79998779297</ele>
        <time>2021-02-20T13:39:22.000Z</time>
      </trkpt>
      <trkpt lat="43.90247" lon="7.51474">
        <ele>602.20001220703</ele>
        <time>2021-02-20T13:39:27.000Z</time>
      </trkpt>
      <trkpt lat="43.90248" lon="7.51472">
        <ele>603</ele>
        <time>2021-02-20T13:39:31.000Z</time>
      </trkpt>
      <trkpt lat="43.90248" lon="7.5147">
        <ele>603.20001220703</ele>
        <time>2021-02-20T13:39:33.000Z</time>
      </trkpt>
      <trkpt lat="43.90247" lon="7.51467">
        <ele>604</ele>
        <time>2021-02-20T13:39:39.000Z</time>
      </trkpt>
      <trkpt lat="43.90247" lon="7.51467">
        <ele>604</ele>
        <time>2021-02-20T13:39:40.000Z</time>
      </trkpt>
      <trkpt lat="43.90248" lon="7.51464">
        <ele>604</ele>
        <time>2021-02-20T13:39:45.000Z</time>
      </trkpt>
      <trkpt lat="43.90248" lon="7.51456">
        <ele>603.20001220703</ele>
        <time>2021-02-20T13:39:50.000Z</time>
      </trkpt>
      <trkpt lat="43.90244" lon="7.5145">
        <ele>603</ele>
        <time>2021-02-20T13:39:53.000Z</time>
      </trkpt>
      <trkpt lat="43.90241" lon="7.51445">
        <ele>603.20001220703</ele>
        <time>2021-02-20T13:39:55.000Z</time>
      </trkpt>
      <trkpt lat="43.9024" lon="7.51442">
        <ele>603.20001220703</ele>
        <time>2021-02-20T13:39:59.000Z</time>
      </trkpt>
      <trkpt lat="43.90244" lon="7.5144">
        <ele>603.40002441406</ele>
        <time>2021-02-20T13:40:06.000Z</time>
      </trkpt>
      <trkpt lat="43.90243" lon="7.5144">
        <ele>603.59997558594</ele>
        <time>2021-02-20T13:40:13.000Z</time>
      </trkpt>
      <trkpt lat="43.90242" lon="7.51443">
        <ele>603.59997558594</ele>
        <time>2021-02-20T13:40:17.000Z</time>
      </trkpt>
      <trkpt lat="43.90241" lon="7.51443">
        <ele>603.59997558594</ele>
        <time>2021-02-20T13:40:19.000Z</time>
      </trkpt>
      <trkpt lat="43.90242" lon="7.51442">
        <ele>603.40002441406</ele>
        <time>2021-02-20T13:40:23.000Z</time>
      </trkpt>
      <trkpt lat="43.90242" lon="7.51442">
        <ele>603.40002441406</ele>
        <time>2021-02-20T13:40:24.000Z</time>
      </trkpt>
      <trkpt lat="43.90243" lon="7.51445">
        <ele>603</ele>
        <time>2021-02-20T13:40:30.000Z</time>
      </trkpt>
      <trkpt lat="43.90247" lon="7.51453">
        <ele>603</ele>
        <time>2021-02-20T13:40:36.000Z</time>
      </trkpt>
      <trkpt lat="43.90249" lon="7.5146">
        <ele>603.20001220703</ele>
        <time>2021-02-20T13:40:39.000Z</time>
      </trkpt>
      <trkpt lat="43.90248" lon="7.51463">
        <ele>603.20001220703</ele>
        <time>2021-02-20T13:40:41.000Z</time>
      </trkpt>
      <trkpt lat="43.90246" lon="7.51464">
        <ele>603.59997558594</ele>
        <time>2021-02-20T13:40:48.000Z</time>
      </trkpt>
      <trkpt lat="43.90246" lon="7.51468">
        <ele>603.20001220703</ele>
        <time>2021-02-20T13:40:54.000Z</time>
      </trkpt>
      <trkpt lat="43.90244" lon="7.51469">
        <ele>603.59997558594</ele>
        <time>2021-02-20T13:41:00.000Z</time>
      </trkpt>
      <trkpt lat="43.90242" lon="7.5147">
        <ele>604</ele>
        <time>2021-02-20T13:41:03.000Z</time>
      </trkpt>
      <trkpt lat="43.9024" lon="7.51468">
        <ele>604.59997558594</ele>
        <time>2021-02-20T13:41:06.000Z</time>
      </trkpt>
      <trkpt lat="43.90237" lon="7.51467">
        <ele>605.20001220703</ele>
        <time>2021-02-20T13:41:09.000Z</time>
      </trkpt>
      <trkpt lat="43.90234" lon="7.51465">
        <ele>605.79998779297</ele>
        <time>2021-02-20T13:41:12.000Z</time>
      </trkpt>
      <trkpt lat="43.90234" lon="7.51464">
        <ele>606.40002441406</ele>
        <time>2021-02-20T13:41:14.000Z</time>
      </trkpt>
      <trkpt lat="43.90233" lon="7.51463">
        <ele>606.79998779297</ele>
        <time>2021-02-20T13:41:17.000Z</time>
      </trkpt>
      <trkpt lat="43.90232" lon="7.51463">
        <ele>607.40002441406</ele>
        <time>2021-02-20T13:41:21.000Z</time>
      </trkpt>
      <trkpt lat="43.90231" lon="7.51461">
        <ele>607.40002441406</ele>
        <time>2021-02-20T13:41:22.000Z</time>
      </trkpt>
      <trkpt lat="43.90226" lon="7.51461">
        <ele>607.79998779297</ele>
        <time>2021-02-20T13:41:26.000Z</time>
      </trkpt>
      <trkpt lat="43.90222" lon="7.51462">
        <ele>608.40002441406</ele>
        <time>2021-02-20T13:41:28.000Z</time>
      </trkpt>
      <trkpt lat="43.90216" lon="7.51462">
        <ele>610</ele>
        <time>2021-02-20T13:41:31.000Z</time>
      </trkpt>
      <trkpt lat="43.90214" lon="7.51461">
        <ele>610.40002441406</ele>
        <time>2021-02-20T13:41:32.000Z</time>
      </trkpt>
      <trkpt lat="43.90213" lon="7.51456">
        <ele>611.20001220703</ele>
        <time>2021-02-20T13:41:34.000Z</time>
      </trkpt>
      <trkpt lat="43.90212" lon="7.51454">
        <ele>611.59997558594</ele>
        <time>2021-02-20T13:41:36.000Z</time>
      </trkpt>
      <trkpt lat="43.90214" lon="7.51445">
        <ele>612.40002441406</ele>
        <time>2021-02-20T13:41:40.000Z</time>
      </trkpt>
      <trkpt lat="43.90211" lon="7.51435">
        <ele>613.40002441406</ele>
        <time>2021-02-20T13:41:45.000Z</time>
      </trkpt>
      <trkpt lat="43.90202" lon="7.51428">
        <ele>614.59997558594</ele>
        <time>2021-02-20T13:41:49.000Z</time>
      </trkpt>
      <trkpt lat="43.90201" lon="7.51427">
        <ele>615</ele>
        <time>2021-02-20T13:41:50.000Z</time>
      </trkpt>
      <trkpt lat="43.90199" lon="7.51423">
        <ele>615.79998779297</ele>
        <time>2021-02-20T13:41:52.000Z</time>
      </trkpt>
      <trkpt lat="43.90198" lon="7.51421">
        <ele>616.20001220703</ele>
        <time>2021-02-20T13:41:54.000Z</time>
      </trkpt>
      <trkpt lat="43.90195" lon="7.51416">
        <ele>616.79998779297</ele>
        <time>2021-02-20T13:41:57.000Z</time>
      </trkpt>
      <trkpt lat="43.90193" lon="7.51413">
        <ele>617.40002441406</ele>
        <time>2021-02-20T13:41:59.000Z</time>
      </trkpt>
      <trkpt lat="43.90191" lon="7.51409">
        <ele>617.79998779297</ele>
        <time>2021-02-20T13:42:02.000Z</time>
      </trkpt>
      <trkpt lat="43.90189" lon="7.51407">
        <ele>618.20001220703</ele>
        <time>2021-02-20T13:42:03.000Z</time>
      </trkpt>
      <trkpt lat="43.90188" lon="7.51406">
        <ele>618.59997558594</ele>
        <time>2021-02-20T13:42:04.000Z</time>
      </trkpt>
      <trkpt lat="43.90186" lon="7.51404">
        <ele>619</ele>
        <time>2021-02-20T13:42:05.000Z</time>
      </trkpt>
      <trkpt lat="43.9018" lon="7.51401">
        <ele>620</ele>
        <time>2021-02-20T13:42:08.000Z</time>
      </trkpt>
      <trkpt lat="43.90177" lon="7.51399">
        <ele>620.79998779297</ele>
        <time>2021-02-20T13:42:10.000Z</time>
      </trkpt>
      <trkpt lat="43.90175" lon="7.51399">
        <ele>621</ele>
        <time>2021-02-20T13:42:11.000Z</time>
      </trkpt>
      <trkpt lat="43.90166" lon="7.51395">
        <ele>622.40002441406</ele>
        <time>2021-02-20T13:42:15.000Z</time>
      </trkpt>
      <trkpt lat="43.90161" lon="7.51389">
        <ele>623.79998779297</ele>
        <time>2021-02-20T13:42:18.000Z</time>
      </trkpt>
      <trkpt lat="43.90159" lon="7.51384">
        <ele>625</ele>
        <time>2021-02-20T13:42:20.000Z</time>
      </trkpt>
      <trkpt lat="43.90157" lon="7.51379">
        <ele>626.20001220703</ele>
        <time>2021-02-20T13:42:22.000Z</time>
      </trkpt>
      <trkpt lat="43.90154" lon="7.51373">
        <ele>627.40002441406</ele>
        <time>2021-02-20T13:42:24.000Z</time>
      </trkpt>
      <trkpt lat="43.90153" lon="7.51367">
        <ele>628.20001220703</ele>
        <time>2021-02-20T13:42:26.000Z</time>
      </trkpt>
      <trkpt lat="43.90152" lon="7.51363">
        <ele>628.20001220703</ele>
        <time>2021-02-20T13:42:28.000Z</time>
      </trkpt>
      <trkpt lat="43.90149" lon="7.51358">
        <ele>628.20001220703</ele>
        <time>2021-02-20T13:42:30.000Z</time>
      </trkpt>
      <trkpt lat="43.90136" lon="7.51339">
        <ele>628.40002441406</ele>
        <time>2021-02-20T13:42:38.000Z</time>
      </trkpt>
      <trkpt lat="43.90134" lon="7.51336">
        <ele>628.59997558594</ele>
        <time>2021-02-20T13:42:39.000Z</time>
      </trkpt>
      <trkpt lat="43.90125" lon="7.51318">
        <ele>629.40002441406</ele>
        <time>2021-02-20T13:42:46.000Z</time>
      </trkpt>
      <trkpt lat="43.90119" lon="7.51297">
        <ele>630.40002441406</ele>
        <time>2021-02-20T13:42:53.000Z</time>
      </trkpt>
      <trkpt lat="43.90112" lon="7.51279">
        <ele>630.40002441406</ele>
        <time>2021-02-20T13:42:59.000Z</time>
      </trkpt>
      <trkpt lat="43.90109" lon="7.51266">
        <ele>630.59997558594</ele>
        <time>2021-02-20T13:43:03.000Z</time>
      </trkpt>
      <trkpt lat="43.90107" lon="7.51255">
        <ele>630.79998779297</ele>
        <time>2021-02-20T13:43:06.000Z</time>
      </trkpt>
      <trkpt lat="43.90103" lon="7.51231">
        <ele>630</ele>
        <time>2021-02-20T13:43:13.000Z</time>
      </trkpt>
      <trkpt lat="43.90102" lon="7.51229">
        <ele>629.59997558594</ele>
        <time>2021-02-20T13:43:14.000Z</time>
      </trkpt>
      <trkpt lat="43.90101" lon="7.51228">
        <ele>629.40002441406</ele>
        <time>2021-02-20T13:43:15.000Z</time>
      </trkpt>
      <trkpt lat="43.90095" lon="7.5123">
        <ele>629.40002441406</ele>
        <time>2021-02-20T13:43:18.000Z</time>
      </trkpt>
      <trkpt lat="43.90086" lon="7.51245">
        <ele>628.40002441406</ele>
        <time>2021-02-20T13:43:21.000Z</time>
      </trkpt>
      <trkpt lat="43.90076" lon="7.51246">
        <ele>626.79998779297</ele>
        <time>2021-02-20T13:43:23.000Z</time>
      </trkpt>
      <trkpt lat="43.90069" lon="7.51242">
        <ele>625.59997558594</ele>
        <time>2021-02-20T13:43:25.000Z</time>
      </trkpt>
      <trkpt lat="43.90064" lon="7.51241">
        <ele>625.59997558594</ele>
        <time>2021-02-20T13:43:27.000Z</time>
      </trkpt>
      <trkpt lat="43.90058" lon="7.51247">
        <ele>626.20001220703</ele>
        <time>2021-02-20T13:43:30.000Z</time>
      </trkpt>
      <trkpt lat="43.90056" lon="7.51249">
        <ele>626.59997558594</ele>
        <time>2021-02-20T13:43:31.000Z</time>
      </trkpt>
      <trkpt lat="43.90055" lon="7.5125">
        <ele>626.79998779297</ele>
        <time>2021-02-20T13:43:32.000Z</time>
      </trkpt>
      <trkpt lat="43.90053" lon="7.51253">
        <ele>628</ele>
        <time>2021-02-20T13:43:34.000Z</time>
      </trkpt>
      <trkpt lat="43.90053" lon="7.51253">
        <ele>629.59997558594</ele>
        <time>2021-02-20T13:43:36.000Z</time>
      </trkpt>
      <trkpt lat="43.90053" lon="7.51253">
        <ele>630.59997558594</ele>
        <time>2021-02-20T13:43:39.000Z</time>
      </trkpt>
      <trkpt lat="43.90052" lon="7.51255">
        <ele>631</ele>
        <time>2021-02-20T13:43:43.000Z</time>
      </trkpt>
      <trkpt lat="43.90048" lon="7.51258">
        <ele>631.79998779297</ele>
        <time>2021-02-20T13:43:48.000Z</time>
      </trkpt>
      <trkpt lat="43.90046" lon="7.51259">
        <ele>632.40002441406</ele>
        <time>2021-02-20T13:43:51.000Z</time>
      </trkpt>
      <trkpt lat="43.90045" lon="7.51259">
        <ele>633</ele>
        <time>2021-02-20T13:43:53.000Z</time>
      </trkpt>
      <trkpt lat="43.90042" lon="7.51259">
        <ele>633.59997558594</ele>
        <time>2021-02-20T13:43:56.000Z</time>
      </trkpt>
      <trkpt lat="43.90031" lon="7.51263">
        <ele>634</ele>
        <time>2021-02-20T13:44:01.000Z</time>
      </trkpt>
      <trkpt lat="43.90027" lon="7.51265">
        <ele>634.59997558594</ele>
        <time>2021-02-20T13:44:03.000Z</time>
      </trkpt>
      <trkpt lat="43.90023" lon="7.51267">
        <ele>635.20001220703</ele>
        <time>2021-02-20T13:44:05.000Z</time>
      </trkpt>
      <trkpt lat="43.90014" lon="7.51271">
        <ele>636.59997558594</ele>
        <time>2021-02-20T13:44:09.000Z</time>
      </trkpt>
      <trkpt lat="43.90009" lon="7.51273">
        <ele>637.20001220703</ele>
        <time>2021-02-20T13:44:11.000Z</time>
      </trkpt>
      <trkpt lat="43.90005" lon="7.51275">
        <ele>637.79998779297</ele>
        <time>2021-02-20T13:44:13.000Z</time>
      </trkpt>
      <trkpt lat="43.90001" lon="7.51276">
        <ele>638.79998779297</ele>
        <time>2021-02-20T13:44:15.000Z</time>
      </trkpt>
      <trkpt lat="43.89996" lon="7.51276">
        <ele>639.79998779297</ele>
        <time>2021-02-20T13:44:17.000Z</time>
      </trkpt>
      <trkpt lat="43.89993" lon="7.51276">
        <ele>640</ele>
        <time>2021-02-20T13:44:18.000Z</time>
      </trkpt>
      <trkpt lat="43.89983" lon="7.51275">
        <ele>640.59997558594</ele>
        <time>2021-02-20T13:44:23.000Z</time>
      </trkpt>
      <trkpt lat="43.89981" lon="7.51275">
        <ele>641</ele>
        <time>2021-02-20T13:44:27.000Z</time>
      </trkpt>
      <trkpt lat="43.89981" lon="7.51276">
        <ele>641</ele>
        <time>2021-02-20T13:44:35.000Z</time>
      </trkpt>
      <trkpt lat="43.8998" lon="7.51276">
        <ele>640.79998779297</ele>
        <time>2021-02-20T13:44:42.000Z</time>
      </trkpt>
      <trkpt lat="43.8998" lon="7.51276">
        <ele>641.59997558594</ele>
        <time>2021-02-20T13:44:49.000Z</time>
      </trkpt>
      <trkpt lat="43.89979" lon="7.51274">
        <ele>641.40002441406</ele>
        <time>2021-02-20T13:44:57.000Z</time>
      </trkpt>
      <trkpt lat="43.89978" lon="7.51273">
        <ele>641.40002441406</ele>
        <time>2021-02-20T13:45:05.000Z</time>
      </trkpt>
      <trkpt lat="43.89978" lon="7.51273">
        <ele>641.40002441406</ele>
        <time>2021-02-20T13:45:19.000Z</time>
      </trkpt>
      <trkpt lat="43.89978" lon="7.51273">
        <ele>641.40002441406</ele>
        <time>2021-02-20T13:45:26.000Z</time>
      </trkpt>
      <trkpt lat="43.89978" lon="7.51273">
        <ele>641.59997558594</ele>
        <time>2021-02-20T13:45:33.000Z</time>
      </trkpt>
      <trkpt lat="43.89978" lon="7.51273">
        <ele>641</ele>
        <time>2021-02-20T13:45:40.000Z</time>
      </trkpt>
      <trkpt lat="43.89977" lon="7.51274">
        <ele>641</ele>
        <time>2021-02-20T13:45:41.000Z</time>
      </trkpt>
      <trkpt lat="43.89977" lon="7.51274">
        <ele>641</ele>
        <time>2021-02-20T13:45:43.000Z</time>
      </trkpt>
      <trkpt lat="43.89977" lon="7.51272">
        <ele>641</ele>
        <time>2021-02-20T13:45:52.000Z</time>
      </trkpt>
      <trkpt lat="43.89976" lon="7.51272">
        <ele>641.40002441406</ele>
        <time>2021-02-20T13:45:59.000Z</time>
      </trkpt>
      <trkpt lat="43.89976" lon="7.51273">
        <ele>641</ele>
        <time>2021-02-20T13:46:06.000Z</time>
      </trkpt>
      <trkpt lat="43.89976" lon="7.51273">
        <ele>641.20001220703</ele>
        <time>2021-02-20T13:46:14.000Z</time>
      </trkpt>
      <trkpt lat="43.89977" lon="7.51273">
        <ele>641.79998779297</ele>
        <time>2021-02-20T13:46:27.000Z</time>
      </trkpt>
      <trkpt lat="43.89978" lon="7.51273">
        <ele>641.40002441406</ele>
        <time>2021-02-20T13:46:33.000Z</time>
      </trkpt>
      <trkpt lat="43.89978" lon="7.51273">
        <ele>641.59997558594</ele>
        <time>2021-02-20T13:46:39.000Z</time>
      </trkpt>
      <trkpt lat="43.89978" lon="7.51273">
        <ele>641.79998779297</ele>
        <time>2021-02-20T13:46:46.000Z</time>
      </trkpt>
      <trkpt lat="43.89979" lon="7.51273">
        <ele>641.59997558594</ele>
        <time>2021-02-20T13:46:53.000Z</time>
      </trkpt>
      <trkpt lat="43.89979" lon="7.51274">
        <ele>641.40002441406</ele>
        <time>2021-02-20T13:47:03.000Z</time>
      </trkpt>
      <trkpt lat="43.8998" lon="7.51274">
        <ele>641.59997558594</ele>
        <time>2021-02-20T13:47:10.000Z</time>
      </trkpt>
      <trkpt lat="43.8998" lon="7.51274">
        <ele>641.40002441406</ele>
        <time>2021-02-20T13:47:22.000Z</time>
      </trkpt>
      <trkpt lat="43.89981" lon="7.51275">
        <ele>641.40002441406</ele>
        <time>2021-02-20T13:47:31.000Z</time>
      </trkpt>
      <trkpt lat="43.89981" lon="7.51275">
        <ele>641.59997558594</ele>
        <time>2021-02-20T13:47:35.000Z</time>
      </trkpt>
      <trkpt lat="43.89981" lon="7.51275">
        <ele>641.40002441406</ele>
        <time>2021-02-20T13:47:43.000Z</time>
      </trkpt>
      <trkpt lat="43.8998" lon="7.51274">
        <ele>641.40002441406</ele>
        <time>2021-02-20T13:47:52.000Z</time>
      </trkpt>
      <trkpt lat="43.8998" lon="7.51274">
        <ele>641.40002441406</ele>
        <time>2021-02-20T13:48:02.000Z</time>
      </trkpt>
      <trkpt lat="43.8998" lon="7.51274">
        <ele>641.40002441406</ele>
        <time>2021-02-20T13:48:16.000Z</time>
      </trkpt>
      <trkpt lat="43.8998" lon="7.51274">
        <ele>641.40002441406</ele>
        <time>2021-02-20T13:48:27.000Z</time>
      </trkpt>
      <trkpt lat="43.8998" lon="7.51274">
        <ele>641.79998779297</ele>
        <time>2021-02-20T13:48:35.000Z</time>
      </trkpt>
      <trkpt lat="43.89979" lon="7.51274">
        <ele>641.59997558594</ele>
        <time>2021-02-20T13:48:41.000Z</time>
      </trkpt>
      <trkpt lat="43.8998" lon="7.51276">
        <ele>641.40002441406</ele>
        <time>2021-02-20T13:48:48.000Z</time>
      </trkpt>
      <trkpt lat="43.89978" lon="7.51278">
        <ele>641.59997558594</ele>
        <time>2021-02-20T13:48:53.000Z</time>
      </trkpt>
      <trkpt lat="43.89978" lon="7.51277">
        <ele>641.79998779297</ele>
        <time>2021-02-20T13:48:59.000Z</time>
      </trkpt>
      <trkpt lat="43.89978" lon="7.51277">
        <ele>642.20001220703</ele>
        <time>2021-02-20T13:49:03.000Z</time>
      </trkpt>
      <trkpt lat="43.89977" lon="7.51276">
        <ele>642</ele>
        <time>2021-02-20T13:49:21.000Z</time>
      </trkpt>
      <trkpt lat="43.89979" lon="7.51277">
        <ele>641.79998779297</ele>
        <time>2021-02-20T13:49:46.000Z</time>
      </trkpt>
      <trkpt lat="43.89979" lon="7.51277">
        <ele>641.79998779297</ele>
        <time>2021-02-20T13:50:05.000Z</time>
      </trkpt>
      <trkpt lat="43.89979" lon="7.51277">
        <ele>641.79998779297</ele>
        <time>2021-02-20T13:50:18.000Z</time>
      </trkpt>
      <trkpt lat="43.89979" lon="7.51275">
        <ele>641.20001220703</ele>
        <time>2021-02-20T13:50:24.000Z</time>
      </trkpt>
      <trkpt lat="43.8998" lon="7.51275">
        <ele>641</ele>
        <time>2021-02-20T13:50:26.000Z</time>
      </trkpt>
      <trkpt lat="43.89979" lon="7.51277">
        <ele>641</ele>
        <time>2021-02-20T13:50:27.000Z</time>
      </trkpt>
      <trkpt lat="43.89979" lon="7.51277">
        <ele>641.20001220703</ele>
        <time>2021-02-20T13:50:29.000Z</time>
      </trkpt>
      <trkpt lat="43.89979" lon="7.51276">
        <ele>641</ele>
        <time>2021-02-20T13:50:34.000Z</time>
      </trkpt>
      <trkpt lat="43.8998" lon="7.51278">
        <ele>641</ele>
        <time>2021-02-20T13:50:40.000Z</time>
      </trkpt>
      <trkpt lat="43.8998" lon="7.51278">
        <ele>641</ele>
        <time>2021-02-20T13:50:41.000Z</time>
      </trkpt>
      <trkpt lat="43.8998" lon="7.51278">
        <ele>641.20001220703</ele>
        <time>2021-02-20T13:50:47.000Z</time>
      </trkpt>
      <trkpt lat="43.89978" lon="7.51276">
        <ele>641.59997558594</ele>
        <time>2021-02-20T13:51:02.000Z</time>
      </trkpt>
      <trkpt lat="43.89976" lon="7.51275">
        <ele>641.59997558594</ele>
        <time>2021-02-20T13:51:26.000Z</time>
      </trkpt>
      <trkpt lat="43.89974" lon="7.51274">
        <ele>641.40002441406</ele>
        <time>2021-02-20T13:51:38.000Z</time>
      </trkpt>
      <trkpt lat="43.89973" lon="7.51271">
        <ele>641.40002441406</ele>
        <time>2021-02-20T13:51:47.000Z</time>
      </trkpt>
      <trkpt lat="43.89972" lon="7.5127">
        <ele>641.40002441406</ele>
        <time>2021-02-20T13:52:06.000Z</time>
      </trkpt>
      <trkpt lat="43.89973" lon="7.51271">
        <ele>641.20001220703</ele>
        <time>2021-02-20T13:52:26.000Z</time>
      </trkpt>
      <trkpt lat="43.89974" lon="7.51272">
        <ele>641</ele>
        <time>2021-02-20T13:52:42.000Z</time>
      </trkpt>
      <trkpt lat="43.89974" lon="7.51272">
        <ele>641.20001220703</ele>
        <time>2021-02-20T13:53:05.000Z</time>
      </trkpt>
      <trkpt lat="43.89974" lon="7.51272">
        <ele>641.20001220703</ele>
        <time>2021-02-20T13:53:29.000Z</time>
      </trkpt>
      <trkpt lat="43.89975" lon="7.51272">
        <ele>641</ele>
        <time>2021-02-20T13:53:54.000Z</time>
      </trkpt>
      <trkpt lat="43.89974" lon="7.51272">
        <ele>641</ele>
        <time>2021-02-20T13:54:19.000Z</time>
      </trkpt>
      <trkpt lat="43.89975" lon="7.51273">
        <ele>641</ele>
        <time>2021-02-20T13:54:32.000Z</time>
      </trkpt>
      <trkpt lat="43.89976" lon="7.51274">
        <ele>640.79998779297</ele>
        <time>2021-02-20T13:54:46.000Z</time>
      </trkpt>
      <trkpt lat="43.89974" lon="7.51272">
        <ele>640.40002441406</ele>
        <time>2021-02-20T13:54:51.000Z</time>
      </trkpt>
      <trkpt lat="43.89974" lon="7.51272">
        <ele>640.59997558594</ele>
        <time>2021-02-20T13:54:53.000Z</time>
      </trkpt>
      <trkpt lat="43.89972" lon="7.51273">
        <ele>640.59997558594</ele>
        <time>2021-02-20T13:54:54.000Z</time>
      </trkpt>
      <trkpt lat="43.89967" lon="7.51277">
        <ele>640.59997558594</ele>
        <time>2021-02-20T13:54:56.000Z</time>
      </trkpt>
      <trkpt lat="43.89956" lon="7.5128">
        <ele>640</ele>
        <time>2021-02-20T13:54:59.000Z</time>
      </trkpt>
      <trkpt lat="43.89952" lon="7.51282">
        <ele>639.40002441406</ele>
        <time>2021-02-20T13:55:00.000Z</time>
      </trkpt>
      <trkpt lat="43.89947" lon="7.51283">
        <ele>638.59997558594</ele>
        <time>2021-02-20T13:55:01.000Z</time>
      </trkpt>
      <trkpt lat="43.89943" lon="7.51287">
        <ele>637.79998779297</ele>
        <time>2021-02-20T13:55:02.000Z</time>
      </trkpt>
      <trkpt lat="43.89939" lon="7.51291">
        <ele>636.79998779297</ele>
        <time>2021-02-20T13:55:03.000Z</time>
      </trkpt>
      <trkpt lat="43.89936" lon="7.51292">
        <ele>635.20001220703</ele>
        <time>2021-02-20T13:55:04.000Z</time>
      </trkpt>
      <trkpt lat="43.89934" lon="7.51293">
        <ele>634.20001220703</ele>
        <time>2021-02-20T13:55:05.000Z</time>
      </trkpt>
      <trkpt lat="43.89927" lon="7.51296">
        <ele>632.20001220703</ele>
        <time>2021-02-20T13:55:07.000Z</time>
      </trkpt>
      <trkpt lat="43.89919" lon="7.513">
        <ele>631.20001220703</ele>
        <time>2021-02-20T13:55:09.000Z</time>
      </trkpt>
      <trkpt lat="43.89914" lon="7.51303">
        <ele>630</ele>
        <time>2021-02-20T13:55:10.000Z</time>
      </trkpt>
      <trkpt lat="43.89911" lon="7.51306">
        <ele>628.79998779297</ele>
        <time>2021-02-20T13:55:11.000Z</time>
      </trkpt>
      <trkpt lat="43.89906" lon="7.5131">
        <ele>627.59997558594</ele>
        <time>2021-02-20T13:55:12.000Z</time>
      </trkpt>
      <trkpt lat="43.89902" lon="7.51312">
        <ele>625.79998779297</ele>
        <time>2021-02-20T13:55:13.000Z</time>
      </trkpt>
      <trkpt lat="43.89893" lon="7.51318">
        <ele>624.20001220703</ele>
        <time>2021-02-20T13:55:15.000Z</time>
      </trkpt>
      <trkpt lat="43.89889" lon="7.51322">
        <ele>623.20001220703</ele>
        <time>2021-02-20T13:55:16.000Z</time>
      </trkpt>
      <trkpt lat="43.89883" lon="7.51325">
        <ele>621.79998779297</ele>
        <time>2021-02-20T13:55:18.000Z</time>
      </trkpt>
      <trkpt lat="43.89879" lon="7.51326">
        <ele>621</ele>
        <time>2021-02-20T13:55:19.000Z</time>
      </trkpt>
      <trkpt lat="43.89874" lon="7.5133">
        <ele>620.59997558594</ele>
        <time>2021-02-20T13:55:20.000Z</time>
      </trkpt>
      <trkpt lat="43.89864" lon="7.51341">
        <ele>619.40002441406</ele>
        <time>2021-02-20T13:55:22.000Z</time>
      </trkpt>
      <trkpt lat="43.89861" lon="7.51345">
        <ele>618.79998779297</ele>
        <time>2021-02-20T13:55:23.000Z</time>
      </trkpt>
      <trkpt lat="43.89859" lon="7.51348">
        <ele>618</ele>
        <time>2021-02-20T13:55:24.000Z</time>
      </trkpt>
      <trkpt lat="43.89858" lon="7.51347">
        <ele>616.79998779297</ele>
        <time>2021-02-20T13:55:25.000Z</time>
      </trkpt>
      <trkpt lat="43.89856" lon="7.51349">
        <ele>616.20001220703</ele>
        <time>2021-02-20T13:55:26.000Z</time>
      </trkpt>
      <trkpt lat="43.89854" lon="7.51351">
        <ele>615.79998779297</ele>
        <time>2021-02-20T13:55:27.000Z</time>
      </trkpt>
      <trkpt lat="43.89847" lon="7.5136">
        <ele>614.59997558594</ele>
        <time>2021-02-20T13:55:29.000Z</time>
      </trkpt>
      <trkpt lat="43.89835" lon="7.51366">
        <ele>613.20001220703</ele>
        <time>2021-02-20T13:55:31.000Z</time>
      </trkpt>
      <trkpt lat="43.8983" lon="7.51367">
        <ele>612.20001220703</ele>
        <time>2021-02-20T13:55:32.000Z</time>
      </trkpt>
      <trkpt lat="43.89825" lon="7.51367">
        <ele>610.79998779297</ele>
        <time>2021-02-20T13:55:33.000Z</time>
      </trkpt>
      <trkpt lat="43.89821" lon="7.51368">
        <ele>609.40002441406</ele>
        <time>2021-02-20T13:55:34.000Z</time>
      </trkpt>
      <trkpt lat="43.8981" lon="7.5137">
        <ele>607.40002441406</ele>
        <time>2021-02-20T13:55:36.000Z</time>
      </trkpt>
      <trkpt lat="43.89802" lon="7.51374">
        <ele>605.79998779297</ele>
        <time>2021-02-20T13:55:38.000Z</time>
      </trkpt>
      <trkpt lat="43.89799" lon="7.51378">
        <ele>605.40002441406</ele>
        <time>2021-02-20T13:55:39.000Z</time>
      </trkpt>
      <trkpt lat="43.89795" lon="7.51383">
        <ele>604</ele>
        <time>2021-02-20T13:55:40.000Z</time>
      </trkpt>
      <trkpt lat="43.89788" lon="7.51393">
        <ele>602.40002441406</ele>
        <time>2021-02-20T13:55:42.000Z</time>
      </trkpt>
      <trkpt lat="43.89781" lon="7.514">
        <ele>600.40002441406</ele>
        <time>2021-02-20T13:55:44.000Z</time>
      </trkpt>
      <trkpt lat="43.89778" lon="7.51407">
        <ele>599</ele>
        <time>2021-02-20T13:55:45.000Z</time>
      </trkpt>
      <trkpt lat="43.8977" lon="7.51416">
        <ele>597.20001220703</ele>
        <time>2021-02-20T13:55:47.000Z</time>
      </trkpt>
      <trkpt lat="43.89766" lon="7.51421">
        <ele>595.59997558594</ele>
        <time>2021-02-20T13:55:48.000Z</time>
      </trkpt>
      <trkpt lat="43.89761" lon="7.51431">
        <ele>593.59997558594</ele>
        <time>2021-02-20T13:55:50.000Z</time>
      </trkpt>
      <trkpt lat="43.89755" lon="7.51435">
        <ele>592</ele>
        <time>2021-02-20T13:55:51.000Z</time>
      </trkpt>
      <trkpt lat="43.89749" lon="7.51437">
        <ele>590.20001220703</ele>
        <time>2021-02-20T13:55:52.000Z</time>
      </trkpt>
      <trkpt lat="43.89737" lon="7.51442">
        <ele>588.20001220703</ele>
        <time>2021-02-20T13:55:54.000Z</time>
      </trkpt>
      <trkpt lat="43.89732" lon="7.51444">
        <ele>587.20001220703</ele>
        <time>2021-02-20T13:55:55.000Z</time>
      </trkpt>
      <trkpt lat="43.89726" lon="7.51445">
        <ele>586.59997558594</ele>
        <time>2021-02-20T13:55:56.000Z</time>
      </trkpt>
      <trkpt lat="43.89717" lon="7.51446">
        <ele>585.40002441406</ele>
        <time>2021-02-20T13:55:58.000Z</time>
      </trkpt>
      <trkpt lat="43.8971" lon="7.51452">
        <ele>584</ele>
        <time>2021-02-20T13:56:00.000Z</time>
      </trkpt>
      <trkpt lat="43.89704" lon="7.51458">
        <ele>583.20001220703</ele>
        <time>2021-02-20T13:56:01.000Z</time>
      </trkpt>
      <trkpt lat="43.89699" lon="7.51463">
        <ele>582.40002441406</ele>
        <time>2021-02-20T13:56:02.000Z</time>
      </trkpt>
      <trkpt lat="43.89694" lon="7.51469">
        <ele>581</ele>
        <time>2021-02-20T13:56:03.000Z</time>
      </trkpt>
      <trkpt lat="43.89686" lon="7.51482">
        <ele>579</ele>
        <time>2021-02-20T13:56:05.000Z</time>
      </trkpt>
      <trkpt lat="43.89682" lon="7.51491">
        <ele>578</ele>
        <time>2021-02-20T13:56:06.000Z</time>
      </trkpt>
      <trkpt lat="43.8968" lon="7.51504">
        <ele>577</ele>
        <time>2021-02-20T13:56:08.000Z</time>
      </trkpt>
      <trkpt lat="43.89677" lon="7.51511">
        <ele>577</ele>
        <time>2021-02-20T13:56:09.000Z</time>
      </trkpt>
      <trkpt lat="43.89662" lon="7.51532">
        <ele>577</ele>
        <time>2021-02-20T13:56:12.000Z</time>
      </trkpt>
      <trkpt lat="43.8965" lon="7.51539">
        <ele>575.59997558594</ele>
        <time>2021-02-20T13:56:14.000Z</time>
      </trkpt>
      <trkpt lat="43.89638" lon="7.51545">
        <ele>573.79998779297</ele>
        <time>2021-02-20T13:56:16.000Z</time>
      </trkpt>
      <trkpt lat="43.89626" lon="7.51556">
        <ele>572.79998779297</ele>
        <time>2021-02-20T13:56:18.000Z</time>
      </trkpt>
      <trkpt lat="43.8962" lon="7.51559">
        <ele>572</ele>
        <time>2021-02-20T13:56:19.000Z</time>
      </trkpt>
      <trkpt lat="43.89613" lon="7.51561">
        <ele>571.59997558594</ele>
        <time>2021-02-20T13:56:20.000Z</time>
      </trkpt>
      <trkpt lat="43.89599" lon="7.51562">
        <ele>570.79998779297</ele>
        <time>2021-02-20T13:56:22.000Z</time>
      </trkpt>
      <trkpt lat="43.89592" lon="7.51562">
        <ele>570.20001220703</ele>
        <time>2021-02-20T13:56:23.000Z</time>
      </trkpt>
      <trkpt lat="43.89583" lon="7.51572">
        <ele>569</ele>
        <time>2021-02-20T13:56:25.000Z</time>
      </trkpt>
      <trkpt lat="43.89577" lon="7.51578">
        <ele>568.40002441406</ele>
        <time>2021-02-20T13:56:26.000Z</time>
      </trkpt>
      <trkpt lat="43.89572" lon="7.51582">
        <ele>568</ele>
        <time>2021-02-20T13:56:27.000Z</time>
      </trkpt>
      <trkpt lat="43.89567" lon="7.51585">
        <ele>567.59997558594</ele>
        <time>2021-02-20T13:56:28.000Z</time>
      </trkpt>
      <trkpt lat="43.89563" lon="7.51587">
        <ele>567.40002441406</ele>
        <time>2021-02-20T13:56:29.000Z</time>
      </trkpt>
      <trkpt lat="43.8955" lon="7.51593">
        <ele>567.40002441406</ele>
        <time>2021-02-20T13:56:32.000Z</time>
      </trkpt>
      <trkpt lat="43.89548" lon="7.51597">
        <ele>567.20001220703</ele>
        <time>2021-02-20T13:56:34.000Z</time>
      </trkpt>
      <trkpt lat="43.89548" lon="7.51598">
        <ele>566.40002441406</ele>
        <time>2021-02-20T13:56:35.000Z</time>
      </trkpt>
      <trkpt lat="43.89548" lon="7.51598">
        <ele>565.40002441406</ele>
        <time>2021-02-20T13:56:37.000Z</time>
      </trkpt>
      <trkpt lat="43.89548" lon="7.51598">
        <ele>565</ele>
        <time>2021-02-20T13:56:38.000Z</time>
      </trkpt>
      <trkpt lat="43.89546" lon="7.51598">
        <ele>564.79998779297</ele>
        <time>2021-02-20T13:56:51.000Z</time>
      </trkpt>
      <trkpt lat="43.89544" lon="7.51599">
        <ele>564.79998779297</ele>
        <time>2021-02-20T13:56:52.000Z</time>
      </trkpt>
      <trkpt lat="43.89534" lon="7.51604">
        <ele>564.20001220703</ele>
        <time>2021-02-20T13:56:56.000Z</time>
      </trkpt>
      <trkpt lat="43.89523" lon="7.51607">
        <ele>563.40002441406</ele>
        <time>2021-02-20T13:57:01.000Z</time>
      </trkpt>
      <trkpt lat="43.8952" lon="7.51607">
        <ele>564</ele>
        <time>2021-02-20T13:57:03.000Z</time>
      </trkpt>
      <trkpt lat="43.89514" lon="7.51606">
        <ele>564.59997558594</ele>
        <time>2021-02-20T13:57:06.000Z</time>
      </trkpt>
      <trkpt lat="43.89503" lon="7.51614">
        <ele>564.20001220703</ele>
        <time>2021-02-20T13:57:10.000Z</time>
      </trkpt>
      <trkpt lat="43.89492" lon="7.51622">
        <ele>563.79998779297</ele>
        <time>2021-02-20T13:57:14.000Z</time>
      </trkpt>
      <trkpt lat="43.8948" lon="7.51631">
        <ele>564.20001220703</ele>
        <time>2021-02-20T13:57:20.000Z</time>
      </trkpt>
      <trkpt lat="43.89474" lon="7.51641">
        <ele>564.40002441406</ele>
        <time>2021-02-20T13:57:22.000Z</time>
      </trkpt>
      <trkpt lat="43.8947" lon="7.5165">
        <ele>564.40002441406</ele>
        <time>2021-02-20T13:57:24.000Z</time>
      </trkpt>
      <trkpt lat="43.89464" lon="7.5166">
        <ele>563.79998779297</ele>
        <time>2021-02-20T13:57:26.000Z</time>
      </trkpt>
      <trkpt lat="43.89461" lon="7.51661">
        <ele>563.40002441406</ele>
        <time>2021-02-20T13:57:27.000Z</time>
      </trkpt>
      <trkpt lat="43.89459" lon="7.51659">
        <ele>563</ele>
        <time>2021-02-20T13:57:28.000Z</time>
      </trkpt>
      <trkpt lat="43.89458" lon="7.5166">
        <ele>563</ele>
        <time>2021-02-20T13:57:30.000Z</time>
      </trkpt>
      <trkpt lat="43.89454" lon="7.51663">
        <ele>564.20001220703</ele>
        <time>2021-02-20T13:57:34.000Z</time>
      </trkpt>
      <trkpt lat="43.89453" lon="7.51663">
        <ele>565</ele>
        <time>2021-02-20T13:57:37.000Z</time>
      </trkpt>
      <trkpt lat="43.89453" lon="7.51663">
        <ele>565.20001220703</ele>
        <time>2021-02-20T13:57:38.000Z</time>
      </trkpt>
      <trkpt lat="43.89453" lon="7.51662">
        <ele>565.79998779297</ele>
        <time>2021-02-20T13:57:47.000Z</time>
      </trkpt>
      <trkpt lat="43.89452" lon="7.51664">
        <ele>566.20001220703</ele>
        <time>2021-02-20T13:57:51.000Z</time>
      </trkpt>
      <trkpt lat="43.89452" lon="7.51664">
        <ele>566.59997558594</ele>
        <time>2021-02-20T13:57:53.000Z</time>
      </trkpt>
      <trkpt lat="43.89451" lon="7.51664">
        <ele>567</ele>
        <time>2021-02-20T13:57:58.000Z</time>
      </trkpt>
      <trkpt lat="43.89449" lon="7.51665">
        <ele>567.40002441406</ele>
        <time>2021-02-20T13:58:01.000Z</time>
      </trkpt>
      <trkpt lat="43.89446" lon="7.51667">
        <ele>568.20001220703</ele>
        <time>2021-02-20T13:58:06.000Z</time>
      </trkpt>
      <trkpt lat="43.89446" lon="7.51667">
        <ele>568.40002441406</ele>
        <time>2021-02-20T13:58:08.000Z</time>
      </trkpt>
      <trkpt lat="43.89444" lon="7.51668">
        <ele>568.59997558594</ele>
        <time>2021-02-20T13:58:10.000Z</time>
      </trkpt>
      <trkpt lat="43.89441" lon="7.5167">
        <ele>568.59997558594</ele>
        <time>2021-02-20T13:58:11.000Z</time>
      </trkpt>
      <trkpt lat="43.89434" lon="7.51671">
        <ele>569</ele>
        <time>2021-02-20T13:58:14.000Z</time>
      </trkpt>
      <trkpt lat="43.8943" lon="7.51665">
        <ele>569.59997558594</ele>
        <time>2021-02-20T13:58:16.000Z</time>
      </trkpt>
      <trkpt lat="43.89428" lon="7.51659">
        <ele>570</ele>
        <time>2021-02-20T13:58:18.000Z</time>
      </trkpt>
      <trkpt lat="43.89427" lon="7.51658">
        <ele>570.20001220703</ele>
        <time>2021-02-20T13:58:19.000Z</time>
      </trkpt>
      <trkpt lat="43.89425" lon="7.51659">
        <ele>570.40002441406</ele>
        <time>2021-02-20T13:58:20.000Z</time>
      </trkpt>
      <trkpt lat="43.89422" lon="7.5166">
        <ele>570.79998779297</ele>
        <time>2021-02-20T13:58:21.000Z</time>
      </trkpt>
      <trkpt lat="43.89416" lon="7.5166">
        <ele>572</ele>
        <time>2021-02-20T13:58:24.000Z</time>
      </trkpt>
      <trkpt lat="43.89412" lon="7.51661">
        <ele>573.20001220703</ele>
        <time>2021-02-20T13:58:26.000Z</time>
      </trkpt>
      <trkpt lat="43.89409" lon="7.51664">
        <ele>574.59997558594</ele>
        <time>2021-02-20T13:58:28.000Z</time>
      </trkpt>
      <trkpt lat="43.89406" lon="7.51664">
        <ele>575</ele>
        <time>2021-02-20T13:58:29.000Z</time>
      </trkpt>
      <trkpt lat="43.89401" lon="7.51661">
        <ele>575.79998779297</ele>
        <time>2021-02-20T13:58:31.000Z</time>
      </trkpt>
      <trkpt lat="43.894" lon="7.51659">
        <ele>576</ele>
        <time>2021-02-20T13:58:32.000Z</time>
      </trkpt>
      <trkpt lat="43.89394" lon="7.51654">
        <ele>576.20001220703</ele>
        <time>2021-02-20T13:58:36.000Z</time>
      </trkpt>
      <trkpt lat="43.89392" lon="7.51645">
        <ele>576.40002441406</ele>
        <time>2021-02-20T13:58:39.000Z</time>
      </trkpt>
      <trkpt lat="43.89385" lon="7.51635">
        <ele>576.79998779297</ele>
        <time>2021-02-20T13:58:42.000Z</time>
      </trkpt>
      <trkpt lat="43.89378" lon="7.51627">
        <ele>577.40002441406</ele>
        <time>2021-02-20T13:58:45.000Z</time>
      </trkpt>
      <trkpt lat="43.89374" lon="7.51624">
        <ele>577.79998779297</ele>
        <time>2021-02-20T13:58:47.000Z</time>
      </trkpt>
      <trkpt lat="43.89372" lon="7.5162">
        <ele>578</ele>
        <time>2021-02-20T13:58:48.000Z</time>
      </trkpt>
      <trkpt lat="43.89369" lon="7.51609">
        <ele>578.40002441406</ele>
        <time>2021-02-20T13:58:51.000Z</time>
      </trkpt>
      <trkpt lat="43.89367" lon="7.51608">
        <ele>578.79998779297</ele>
        <time>2021-02-20T13:58:52.000Z</time>
      </trkpt>
      <trkpt lat="43.89363" lon="7.51608">
        <ele>579.40002441406</ele>
        <time>2021-02-20T13:58:54.000Z</time>
      </trkpt>
      <trkpt lat="43.89361" lon="7.51608">
        <ele>580.40002441406</ele>
        <time>2021-02-20T13:58:55.000Z</time>
      </trkpt>
      <trkpt lat="43.89359" lon="7.51609">
        <ele>581</ele>
        <time>2021-02-20T13:58:56.000Z</time>
      </trkpt>
      <trkpt lat="43.89356" lon="7.51608">
        <ele>581.59997558594</ele>
        <time>2021-02-20T13:58:57.000Z</time>
      </trkpt>
      <trkpt lat="43.89354" lon="7.51607">
        <ele>582.20001220703</ele>
        <time>2021-02-20T13:58:58.000Z</time>
      </trkpt>
      <trkpt lat="43.89353" lon="7.51605">
        <ele>582.59997558594</ele>
        <time>2021-02-20T13:58:59.000Z</time>
      </trkpt>
      <trkpt lat="43.89352" lon="7.51602">
        <ele>583.20001220703</ele>
        <time>2021-02-20T13:59:00.000Z</time>
      </trkpt>
      <trkpt lat="43.89347" lon="7.51599">
        <ele>584.20001220703</ele>
        <time>2021-02-20T13:59:03.000Z</time>
      </trkpt>
      <trkpt lat="43.8934" lon="7.51601">
        <ele>584.79998779297</ele>
        <time>2021-02-20T13:59:06.000Z</time>
      </trkpt>
      <trkpt lat="43.89333" lon="7.51604">
        <ele>585.20001220703</ele>
        <time>2021-02-20T13:59:09.000Z</time>
      </trkpt>
      <trkpt lat="43.89323" lon="7.51607">
        <ele>585.79998779297</ele>
        <time>2021-02-20T13:59:12.000Z</time>
      </trkpt>
      <trkpt lat="43.89318" lon="7.51608">
        <ele>585.79998779297</ele>
        <time>2021-02-20T13:59:14.000Z</time>
      </trkpt>
      <trkpt lat="43.8931" lon="7.51611">
        <ele>586.20001220703</ele>
        <time>2021-02-20T13:59:19.000Z</time>
      </trkpt>
      <trkpt lat="43.89308" lon="7.51612">
        <ele>586.79998779297</ele>
        <time>2021-02-20T13:59:25.000Z</time>
      </trkpt>
      <trkpt lat="43.89301" lon="7.51616">
        <ele>586.40002441406</ele>
        <time>2021-02-20T13:59:35.000Z</time>
      </trkpt>
      <trkpt lat="43.89288" lon="7.51624">
        <ele>586.40002441406</ele>
        <time>2021-02-20T13:59:40.000Z</time>
      </trkpt>
      <trkpt lat="43.89269" lon="7.51631">
        <ele>586.59997558594</ele>
        <time>2021-02-20T13:59:44.000Z</time>
      </trkpt>
      <trkpt lat="43.89262" lon="7.5164">
        <ele>586.20001220703</ele>
        <time>2021-02-20T13:59:47.000Z</time>
      </trkpt>
      <trkpt lat="43.89259" lon="7.51641">
        <ele>585.79998779297</ele>
        <time>2021-02-20T13:59:48.000Z</time>
      </trkpt>
      <trkpt lat="43.89252" lon="7.51642">
        <ele>585.79998779297</ele>
        <time>2021-02-20T13:59:50.000Z</time>
      </trkpt>
      <trkpt lat="43.89246" lon="7.51651">
        <ele>586.20001220703</ele>
        <time>2021-02-20T13:59:53.000Z</time>
      </trkpt>
      <trkpt lat="43.89242" lon="7.51653">
        <ele>586.40002441406</ele>
        <time>2021-02-20T13:59:54.000Z</time>
      </trkpt>
      <trkpt lat="43.89232" lon="7.51658">
        <ele>587.20001220703</ele>
        <time>2021-02-20T13:59:57.000Z</time>
      </trkpt>
      <trkpt lat="43.89229" lon="7.51661">
        <ele>587.40002441406</ele>
        <time>2021-02-20T13:59:58.000Z</time>
      </trkpt>
      <trkpt lat="43.89214" lon="7.51666">
        <ele>588</ele>
        <time>2021-02-20T14:00:02.000Z</time>
      </trkpt>
      <trkpt lat="43.89206" lon="7.51665">
        <ele>588</ele>
        <time>2021-02-20T14:00:04.000Z</time>
      </trkpt>
      <trkpt lat="43.89202" lon="7.51668">
        <ele>587.79998779297</ele>
        <time>2021-02-20T14:00:05.000Z</time>
      </trkpt>
      <trkpt lat="43.89197" lon="7.51671">
        <ele>587.40002441406</ele>
        <time>2021-02-20T14:00:06.000Z</time>
      </trkpt>
      <trkpt lat="43.89187" lon="7.51679">
        <ele>585.59997558594</ele>
        <time>2021-02-20T14:00:08.000Z</time>
      </trkpt>
      <trkpt lat="43.89182" lon="7.51687">
        <ele>583.79998779297</ele>
        <time>2021-02-20T14:00:10.000Z</time>
      </trkpt>
      <trkpt lat="43.89177" lon="7.51693">
        <ele>583.20001220703</ele>
        <time>2021-02-20T14:00:11.000Z</time>
      </trkpt>
      <trkpt lat="43.89172" lon="7.51705">
        <ele>582.20001220703</ele>
        <time>2021-02-20T14:00:13.000Z</time>
      </trkpt>
      <trkpt lat="43.89168" lon="7.51713">
        <ele>581.20001220703</ele>
        <time>2021-02-20T14:00:15.000Z</time>
      </trkpt>
      <trkpt lat="43.89167" lon="7.51718">
        <ele>580.40002441406</ele>
        <time>2021-02-20T14:00:16.000Z</time>
      </trkpt>
      <trkpt lat="43.89166" lon="7.51721">
        <ele>579.40002441406</ele>
        <time>2021-02-20T14:00:17.000Z</time>
      </trkpt>
      <trkpt lat="43.89161" lon="7.51731">
        <ele>578.59997558594</ele>
        <time>2021-02-20T14:00:19.000Z</time>
      </trkpt>
      <trkpt lat="43.89161" lon="7.51735">
        <ele>578</ele>
        <time>2021-02-20T14:00:20.000Z</time>
      </trkpt>
      <trkpt lat="43.89155" lon="7.51745">
        <ele>576.79998779297</ele>
        <time>2021-02-20T14:00:22.000Z</time>
      </trkpt>
      <trkpt lat="43.89153" lon="7.51748">
        <ele>575.79998779297</ele>
        <time>2021-02-20T14:00:23.000Z</time>
      </trkpt>
      <trkpt lat="43.89151" lon="7.51751">
        <ele>575.20001220703</ele>
        <time>2021-02-20T14:00:24.000Z</time>
      </trkpt>
      <trkpt lat="43.89144" lon="7.51757">
        <ele>573.59997558594</ele>
        <time>2021-02-20T14:00:26.000Z</time>
      </trkpt>
      <trkpt lat="43.89137" lon="7.51761">
        <ele>572.59997558594</ele>
        <time>2021-02-20T14:00:28.000Z</time>
      </trkpt>
      <trkpt lat="43.89135" lon="7.51763">
        <ele>571.59997558594</ele>
        <time>2021-02-20T14:00:29.000Z</time>
      </trkpt>
      <trkpt lat="43.8913" lon="7.51768">
        <ele>570.79998779297</ele>
        <time>2021-02-20T14:00:31.000Z</time>
      </trkpt>
      <trkpt lat="43.89126" lon="7.51773">
        <ele>569.79998779297</ele>
        <time>2021-02-20T14:00:32.000Z</time>
      </trkpt>
      <trkpt lat="43.89117" lon="7.51783">
        <ele>569</ele>
        <time>2021-02-20T14:00:34.000Z</time>
      </trkpt>
      <trkpt lat="43.89106" lon="7.51786">
        <ele>567.79998779297</ele>
        <time>2021-02-20T14:00:36.000Z</time>
      </trkpt>
      <trkpt lat="43.89095" lon="7.51792">
        <ele>566.20001220703</ele>
        <time>2021-02-20T14:00:38.000Z</time>
      </trkpt>
      <trkpt lat="43.89089" lon="7.51794">
        <ele>565.20001220703</ele>
        <time>2021-02-20T14:00:39.000Z</time>
      </trkpt>
      <trkpt lat="43.89084" lon="7.51796">
        <ele>564</ele>
        <time>2021-02-20T14:00:40.000Z</time>
      </trkpt>
      <trkpt lat="43.89078" lon="7.51796">
        <ele>563.59997558594</ele>
        <time>2021-02-20T14:00:41.000Z</time>
      </trkpt>
      <trkpt lat="43.89068" lon="7.51799">
        <ele>563.59997558594</ele>
        <time>2021-02-20T14:00:43.000Z</time>
      </trkpt>
      <trkpt lat="43.89065" lon="7.51798">
        <ele>562.40002441406</ele>
        <time>2021-02-20T14:00:44.000Z</time>
      </trkpt>
      <trkpt lat="43.8906" lon="7.51798">
        <ele>561</ele>
        <time>2021-02-20T14:00:46.000Z</time>
      </trkpt>
      <trkpt lat="43.89058" lon="7.51796">
        <ele>559.20001220703</ele>
        <time>2021-02-20T14:00:47.000Z</time>
      </trkpt>
      <trkpt lat="43.89055" lon="7.51797">
        <ele>558.20001220703</ele>
        <time>2021-02-20T14:00:48.000Z</time>
      </trkpt>
      <trkpt lat="43.89047" lon="7.51799">
        <ele>556.79998779297</ele>
        <time>2021-02-20T14:00:50.000Z</time>
      </trkpt>
      <trkpt lat="43.89042" lon="7.51798">
        <ele>556.40002441406</ele>
        <time>2021-02-20T14:00:52.000Z</time>
      </trkpt>
      <trkpt lat="43.89036" lon="7.51801">
        <ele>555.40002441406</ele>
        <time>2021-02-20T14:00:54.000Z</time>
      </trkpt>
      <trkpt lat="43.89031" lon="7.51803">
        <ele>554.79998779297</ele>
        <time>2021-02-20T14:00:56.000Z</time>
      </trkpt>
      <trkpt lat="43.89027" lon="7.51806">
        <ele>554.20001220703</ele>
        <time>2021-02-20T14:00:57.000Z</time>
      </trkpt>
      <trkpt lat="43.89023" lon="7.51808">
        <ele>553.20001220703</ele>
        <time>2021-02-20T14:00:59.000Z</time>
      </trkpt>
      <trkpt lat="43.89019" lon="7.51811">
        <ele>552.59997558594</ele>
        <time>2021-02-20T14:01:00.000Z</time>
      </trkpt>
      <trkpt lat="43.89011" lon="7.51817">
        <ele>551.79998779297</ele>
        <time>2021-02-20T14:01:02.000Z</time>
      </trkpt>
      <trkpt lat="43.89007" lon="7.51818">
        <ele>551.20001220703</ele>
        <time>2021-02-20T14:01:03.000Z</time>
      </trkpt>
      <trkpt lat="43.88996" lon="7.51825">
        <ele>550.20001220703</ele>
        <time>2021-02-20T14:01:06.000Z</time>
      </trkpt>
      <trkpt lat="43.88991" lon="7.5183">
        <ele>549.59997558594</ele>
        <time>2021-02-20T14:01:08.000Z</time>
      </trkpt>
      <trkpt lat="43.88989" lon="7.51833">
        <ele>549</ele>
        <time>2021-02-20T14:01:09.000Z</time>
      </trkpt>
      <trkpt lat="43.88988" lon="7.51836">
        <ele>548.40002441406</ele>
        <time>2021-02-20T14:01:10.000Z</time>
      </trkpt>
      <trkpt lat="43.88988" lon="7.51841">
        <ele>547.59997558594</ele>
        <time>2021-02-20T14:01:11.000Z</time>
      </trkpt>
      <trkpt lat="43.88986" lon="7.51846">
        <ele>546.20001220703</ele>
        <time>2021-02-20T14:01:12.000Z</time>
      </trkpt>
      <trkpt lat="43.88972" lon="7.51851">
        <ele>545</ele>
        <time>2021-02-20T14:01:15.000Z</time>
      </trkpt>
      <trkpt lat="43.88963" lon="7.51857">
        <ele>545</ele>
        <time>2021-02-20T14:01:17.000Z</time>
      </trkpt>
      <trkpt lat="43.8895" lon="7.51872">
        <ele>544.40002441406</ele>
        <time>2021-02-20T14:01:20.000Z</time>
      </trkpt>
      <trkpt lat="43.88935" lon="7.51892">
        <ele>544.20001220703</ele>
        <time>2021-02-20T14:01:24.000Z</time>
      </trkpt>
      <trkpt lat="43.88932" lon="7.51896">
        <ele>543.40002441406</ele>
        <time>2021-02-20T14:01:25.000Z</time>
      </trkpt>
      <trkpt lat="43.88927" lon="7.51894">
        <ele>541.59997558594</ele>
        <time>2021-02-20T14:01:27.000Z</time>
      </trkpt>
      <trkpt lat="43.88922" lon="7.51899">
        <ele>540.20001220703</ele>
        <time>2021-02-20T14:01:29.000Z</time>
      </trkpt>
      <trkpt lat="43.88919" lon="7.51904">
        <ele>539.59997558594</ele>
        <time>2021-02-20T14:01:30.000Z</time>
      </trkpt>
      <trkpt lat="43.88917" lon="7.51908">
        <ele>539</ele>
        <time>2021-02-20T14:01:31.000Z</time>
      </trkpt>
      <trkpt lat="43.88913" lon="7.51913">
        <ele>538.20001220703</ele>
        <time>2021-02-20T14:01:32.000Z</time>
      </trkpt>
      <trkpt lat="43.88908" lon="7.51915">
        <ele>537.59997558594</ele>
        <time>2021-02-20T14:01:33.000Z</time>
      </trkpt>
      <trkpt lat="43.88906" lon="7.51919">
        <ele>536.59997558594</ele>
        <time>2021-02-20T14:01:34.000Z</time>
      </trkpt>
      <trkpt lat="43.88905" lon="7.51922">
        <ele>536.40002441406</ele>
        <time>2021-02-20T14:01:35.000Z</time>
      </trkpt>
      <trkpt lat="43.88901" lon="7.51932">
        <ele>534.79998779297</ele>
        <time>2021-02-20T14:01:37.000Z</time>
      </trkpt>
      <trkpt lat="43.889" lon="7.51937">
        <ele>533.40002441406</ele>
        <time>2021-02-20T14:01:38.000Z</time>
      </trkpt>
      <trkpt lat="43.88898" lon="7.51942">
        <ele>532.20001220703</ele>
        <time>2021-02-20T14:01:39.000Z</time>
      </trkpt>
      <trkpt lat="43.88896" lon="7.51949">
        <ele>531</ele>
        <time>2021-02-20T14:01:40.000Z</time>
      </trkpt>
      <trkpt lat="43.88895" lon="7.51958">
        <ele>529.79998779297</ele>
        <time>2021-02-20T14:01:41.000Z</time>
      </trkpt>
      <trkpt lat="43.88888" lon="7.51966">
        <ele>528.79998779297</ele>
        <time>2021-02-20T14:01:43.000Z</time>
      </trkpt>
      <trkpt lat="43.88886" lon="7.51969">
        <ele>528.79998779297</ele>
        <time>2021-02-20T14:01:44.000Z</time>
      </trkpt>
      <trkpt lat="43.88884" lon="7.51972">
        <ele>528.59997558594</ele>
        <time>2021-02-20T14:01:45.000Z</time>
      </trkpt>
      <trkpt lat="43.88881" lon="7.51972">
        <ele>528.59997558594</ele>
        <time>2021-02-20T14:01:46.000Z</time>
      </trkpt>
      <trkpt lat="43.88876" lon="7.5197">
        <ele>529</ele>
        <time>2021-02-20T14:01:48.000Z</time>
      </trkpt>
      <trkpt lat="43.88862" lon="7.51969">
        <ele>529.79998779297</ele>
        <time>2021-02-20T14:01:52.000Z</time>
      </trkpt>
      <trkpt lat="43.88861" lon="7.51965">
        <ele>530</ele>
        <time>2021-02-20T14:01:53.000Z</time>
      </trkpt>
      <trkpt lat="43.88848" lon="7.51961">
        <ele>529</ele>
        <time>2021-02-20T14:01:57.000Z</time>
      </trkpt>
      <trkpt lat="43.88843" lon="7.5196">
        <ele>528.79998779297</ele>
        <time>2021-02-20T14:01:58.000Z</time>
      </trkpt>
      <trkpt lat="43.88831" lon="7.51961">
        <ele>528.59997558594</ele>
        <time>2021-02-20T14:02:01.000Z</time>
      </trkpt>
      <trkpt lat="43.88828" lon="7.51965">
        <ele>528.40002441406</ele>
        <time>2021-02-20T14:02:02.000Z</time>
      </trkpt>
      <trkpt lat="43.88822" lon="7.51978">
        <ele>528</ele>
        <time>2021-02-20T14:02:04.000Z</time>
      </trkpt>
      <trkpt lat="43.8882" lon="7.51983">
        <ele>527.59997558594</ele>
        <time>2021-02-20T14:02:05.000Z</time>
      </trkpt>
      <trkpt lat="43.88813" lon="7.51986">
        <ele>526.59997558594</ele>
        <time>2021-02-20T14:02:07.000Z</time>
      </trkpt>
      <trkpt lat="43.88801" lon="7.51985">
        <ele>526.20001220703</ele>
        <time>2021-02-20T14:02:10.000Z</time>
      </trkpt>
      <trkpt lat="43.88796" lon="7.51986">
        <ele>526.20001220703</ele>
        <time>2021-02-20T14:02:11.000Z</time>
      </trkpt>
      <trkpt lat="43.88787" lon="7.5199">
        <ele>526.20001220703</ele>
        <time>2021-02-20T14:02:13.000Z</time>
      </trkpt>
      <trkpt lat="43.88784" lon="7.51994">
        <ele>525.79998779297</ele>
        <time>2021-02-20T14:02:14.000Z</time>
      </trkpt>
      <trkpt lat="43.88781" lon="7.51998">
        <ele>525</ele>
        <time>2021-02-20T14:02:15.000Z</time>
      </trkpt>
      <trkpt lat="43.88775" lon="7.52011">
        <ele>523.59997558594</ele>
        <time>2021-02-20T14:02:18.000Z</time>
      </trkpt>
      <trkpt lat="43.88761" lon="7.5202">
        <ele>523</ele>
        <time>2021-02-20T14:02:21.000Z</time>
      </trkpt>
      <trkpt lat="43.88753" lon="7.52023">
        <ele>522.40002441406</ele>
        <time>2021-02-20T14:02:23.000Z</time>
      </trkpt>
      <trkpt lat="43.88748" lon="7.52026">
        <ele>522.20001220703</ele>
        <time>2021-02-20T14:02:24.000Z</time>
      </trkpt>
      <trkpt lat="43.88736" lon="7.52035">
        <ele>521.79998779297</ele>
        <time>2021-02-20T14:02:27.000Z</time>
      </trkpt>
      <trkpt lat="43.88728" lon="7.52043">
        <ele>521.20001220703</ele>
        <time>2021-02-20T14:02:29.000Z</time>
      </trkpt>
      <trkpt lat="43.88725" lon="7.52046">
        <ele>521</ele>
        <time>2021-02-20T14:02:30.000Z</time>
      </trkpt>
      <trkpt lat="43.88714" lon="7.52053">
        <ele>520.40002441406</ele>
        <time>2021-02-20T14:02:33.000Z</time>
      </trkpt>
      <trkpt lat="43.88711" lon="7.52053">
        <ele>520</ele>
        <time>2021-02-20T14:02:34.000Z</time>
      </trkpt>
      <trkpt lat="43.88703" lon="7.52061">
        <ele>519.79998779297</ele>
        <time>2021-02-20T14:02:36.000Z</time>
      </trkpt>
      <trkpt lat="43.887" lon="7.52065">
        <ele>520</ele>
        <time>2021-02-20T14:02:37.000Z</time>
      </trkpt>
      <trkpt lat="43.88691" lon="7.52079">
        <ele>518.79998779297</ele>
        <time>2021-02-20T14:02:40.000Z</time>
      </trkpt>
      <trkpt lat="43.88679" lon="7.52079">
        <ele>518.79998779297</ele>
        <time>2021-02-20T14:02:43.000Z</time>
      </trkpt>
      <trkpt lat="43.88669" lon="7.52089">
        <ele>518.20001220703</ele>
        <time>2021-02-20T14:02:46.000Z</time>
      </trkpt>
      <trkpt lat="43.88665" lon="7.52093">
        <ele>517.79998779297</ele>
        <time>2021-02-20T14:02:47.000Z</time>
      </trkpt>
      <trkpt lat="43.88663" lon="7.52089">
        <ele>517.59997558594</ele>
        <time>2021-02-20T14:02:48.000Z</time>
      </trkpt>
      <trkpt lat="43.8866" lon="7.52087">
        <ele>517.59997558594</ele>
        <time>2021-02-20T14:02:49.000Z</time>
      </trkpt>
      <trkpt lat="43.88656" lon="7.52087">
        <ele>517.20001220703</ele>
        <time>2021-02-20T14:02:50.000Z</time>
      </trkpt>
      <trkpt lat="43.88651" lon="7.52087">
        <ele>516.79998779297</ele>
        <time>2021-02-20T14:02:51.000Z</time>
      </trkpt>
      <trkpt lat="43.88643" lon="7.52088">
        <ele>514.79998779297</ele>
        <time>2021-02-20T14:02:53.000Z</time>
      </trkpt>
      <trkpt lat="43.88639" lon="7.52091">
        <ele>513.40002441406</ele>
        <time>2021-02-20T14:02:54.000Z</time>
      </trkpt>
      <trkpt lat="43.88631" lon="7.5209">
        <ele>511.60000610352</ele>
        <time>2021-02-20T14:02:56.000Z</time>
      </trkpt>
      <trkpt lat="43.88628" lon="7.52093">
        <ele>510.60000610352</ele>
        <time>2021-02-20T14:02:57.000Z</time>
      </trkpt>
      <trkpt lat="43.88623" lon="7.52094">
        <ele>510.20001220703</ele>
        <time>2021-02-20T14:02:58.000Z</time>
      </trkpt>
      <trkpt lat="43.88614" lon="7.52095">
        <ele>508.79998779297</ele>
        <time>2021-02-20T14:03:00.000Z</time>
      </trkpt>
      <trkpt lat="43.8861" lon="7.52096">
        <ele>508.20001220703</ele>
        <time>2021-02-20T14:03:01.000Z</time>
      </trkpt>
      <trkpt lat="43.88602" lon="7.52099">
        <ele>507.60000610352</ele>
        <time>2021-02-20T14:03:03.000Z</time>
      </trkpt>
      <trkpt lat="43.88597" lon="7.52102">
        <ele>507.39999389648</ele>
        <time>2021-02-20T14:03:04.000Z</time>
      </trkpt>
      <trkpt lat="43.88581" lon="7.52114">
        <ele>506</ele>
        <time>2021-02-20T14:03:07.000Z</time>
      </trkpt>
      <trkpt lat="43.88578" lon="7.52117">
        <ele>505.20001220703</ele>
        <time>2021-02-20T14:03:08.000Z</time>
      </trkpt>
      <trkpt lat="43.88575" lon="7.52117">
        <ele>504.39999389648</ele>
        <time>2021-02-20T14:03:09.000Z</time>
      </trkpt>
      <trkpt lat="43.88574" lon="7.52113">
        <ele>503.39999389648</ele>
        <time>2021-02-20T14:03:10.000Z</time>
      </trkpt>
      <trkpt lat="43.88573" lon="7.52108">
        <ele>502.60000610352</ele>
        <time>2021-02-20T14:03:11.000Z</time>
      </trkpt>
      <trkpt lat="43.88575" lon="7.52097">
        <ele>500.39999389648</ele>
        <time>2021-02-20T14:03:13.000Z</time>
      </trkpt>
      <trkpt lat="43.88574" lon="7.52096">
        <ele>499.20001220703</ele>
        <time>2021-02-20T14:03:14.000Z</time>
      </trkpt>
      <trkpt lat="43.88572" lon="7.52095">
        <ele>498.20001220703</ele>
        <time>2021-02-20T14:03:15.000Z</time>
      </trkpt>
      <trkpt lat="43.88569" lon="7.52095">
        <ele>497.39999389648</ele>
        <time>2021-02-20T14:03:16.000Z</time>
      </trkpt>
      <trkpt lat="43.88567" lon="7.52096">
        <ele>496.20001220703</ele>
        <time>2021-02-20T14:03:17.000Z</time>
      </trkpt>
      <trkpt lat="43.88564" lon="7.52095">
        <ele>495.39999389648</ele>
        <time>2021-02-20T14:03:18.000Z</time>
      </trkpt>
      <trkpt lat="43.88562" lon="7.52092">
        <ele>494.39999389648</ele>
        <time>2021-02-20T14:03:19.000Z</time>
      </trkpt>
      <trkpt lat="43.8856" lon="7.52088">
        <ele>492.39999389648</ele>
        <time>2021-02-20T14:03:21.000Z</time>
      </trkpt>
      <trkpt lat="43.88558" lon="7.52087">
        <ele>491.39999389648</ele>
        <time>2021-02-20T14:03:22.000Z</time>
      </trkpt>
      <trkpt lat="43.88557" lon="7.52087">
        <ele>490.20001220703</ele>
        <time>2021-02-20T14:03:23.000Z</time>
      </trkpt>
      <trkpt lat="43.88553" lon="7.52087">
        <ele>489.20001220703</ele>
        <time>2021-02-20T14:03:24.000Z</time>
      </trkpt>
      <trkpt lat="43.88551" lon="7.52087">
        <ele>487.79998779297</ele>
        <time>2021-02-20T14:03:25.000Z</time>
      </trkpt>
      <trkpt lat="43.88546" lon="7.5208">
        <ele>485.60000610352</ele>
        <time>2021-02-20T14:03:27.000Z</time>
      </trkpt>
      <trkpt lat="43.88545" lon="7.52075">
        <ele>484.39999389648</ele>
        <time>2021-02-20T14:03:28.000Z</time>
      </trkpt>
      <trkpt lat="43.88544" lon="7.52071">
        <ele>483.60000610352</ele>
        <time>2021-02-20T14:03:29.000Z</time>
      </trkpt>
      <trkpt lat="43.88542" lon="7.52068">
        <ele>483</ele>
        <time>2021-02-20T14:03:30.000Z</time>
      </trkpt>
      <trkpt lat="43.8854" lon="7.52065">
        <ele>482</ele>
        <time>2021-02-20T14:03:31.000Z</time>
      </trkpt>
      <trkpt lat="43.88533" lon="7.52058">
        <ele>480.39999389648</ele>
        <time>2021-02-20T14:03:33.000Z</time>
      </trkpt>
      <trkpt lat="43.88528" lon="7.52048">
        <ele>478</ele>
        <time>2021-02-20T14:03:35.000Z</time>
      </trkpt>
      <trkpt lat="43.88528" lon="7.52045">
        <ele>477</ele>
        <time>2021-02-20T14:03:36.000Z</time>
      </trkpt>
      <trkpt lat="43.88528" lon="7.5204">
        <ele>475.79998779297</ele>
        <time>2021-02-20T14:03:37.000Z</time>
      </trkpt>
      <trkpt lat="43.88526" lon="7.52036">
        <ele>474.60000610352</ele>
        <time>2021-02-20T14:03:38.000Z</time>
      </trkpt>
      <trkpt lat="43.88525" lon="7.52035">
        <ele>473</ele>
        <time>2021-02-20T14:03:39.000Z</time>
      </trkpt>
      <trkpt lat="43.88522" lon="7.52036">
        <ele>471.79998779297</ele>
        <time>2021-02-20T14:03:40.000Z</time>
      </trkpt>
      <trkpt lat="43.8852" lon="7.52038">
        <ele>470.79998779297</ele>
        <time>2021-02-20T14:03:41.000Z</time>
      </trkpt>
      <trkpt lat="43.88513" lon="7.52045">
        <ele>469.20001220703</ele>
        <time>2021-02-20T14:03:43.000Z</time>
      </trkpt>
      <trkpt lat="43.88506" lon="7.52053">
        <ele>468.79998779297</ele>
        <time>2021-02-20T14:03:45.000Z</time>
      </trkpt>
      <trkpt lat="43.88496" lon="7.52067">
        <ele>468.79998779297</ele>
        <time>2021-02-20T14:03:48.000Z</time>
      </trkpt>
      <trkpt lat="43.88488" lon="7.52072">
        <ele>467.60000610352</ele>
        <time>2021-02-20T14:03:51.000Z</time>
      </trkpt>
      <trkpt lat="43.88484" lon="7.52068">
        <ele>466.20001220703</ele>
        <time>2021-02-20T14:03:53.000Z</time>
      </trkpt>
      <trkpt lat="43.88483" lon="7.52065">
        <ele>465.60000610352</ele>
        <time>2021-02-20T14:03:54.000Z</time>
      </trkpt>
      <trkpt lat="43.8848" lon="7.52064">
        <ele>464.79998779297</ele>
        <time>2021-02-20T14:03:55.000Z</time>
      </trkpt>
      <trkpt lat="43.88471" lon="7.52061">
        <ele>463.39999389648</ele>
        <time>2021-02-20T14:03:57.000Z</time>
      </trkpt>
      <trkpt lat="43.88466" lon="7.52059">
        <ele>462.20001220703</ele>
        <time>2021-02-20T14:03:58.000Z</time>
      </trkpt>
      <trkpt lat="43.8846" lon="7.5206">
        <ele>460.60000610352</ele>
        <time>2021-02-20T14:04:00.000Z</time>
      </trkpt>
      <trkpt lat="43.88456" lon="7.5206">
        <ele>460.20001220703</ele>
        <time>2021-02-20T14:04:01.000Z</time>
      </trkpt>
      <trkpt lat="43.88453" lon="7.52058">
        <ele>459.60000610352</ele>
        <time>2021-02-20T14:04:02.000Z</time>
      </trkpt>
      <trkpt lat="43.88449" lon="7.52049">
        <ele>458.20001220703</ele>
        <time>2021-02-20T14:04:04.000Z</time>
      </trkpt>
      <trkpt lat="43.88446" lon="7.52048">
        <ele>457.60000610352</ele>
        <time>2021-02-20T14:04:05.000Z</time>
      </trkpt>
      <trkpt lat="43.88443" lon="7.52046">
        <ele>456.60000610352</ele>
        <time>2021-02-20T14:04:06.000Z</time>
      </trkpt>
      <trkpt lat="43.88438" lon="7.52043">
        <ele>455.20001220703</ele>
        <time>2021-02-20T14:04:08.000Z</time>
      </trkpt>
      <trkpt lat="43.88433" lon="7.52036">
        <ele>453.79998779297</ele>
        <time>2021-02-20T14:04:10.000Z</time>
      </trkpt>
      <trkpt lat="43.88431" lon="7.52034">
        <ele>453.20001220703</ele>
        <time>2021-02-20T14:04:11.000Z</time>
      </trkpt>
      <trkpt lat="43.88429" lon="7.52033">
        <ele>452.20001220703</ele>
        <time>2021-02-20T14:04:12.000Z</time>
      </trkpt>
      <trkpt lat="43.88427" lon="7.52033">
        <ele>451.20001220703</ele>
        <time>2021-02-20T14:04:13.000Z</time>
      </trkpt>
      <trkpt lat="43.88424" lon="7.52031">
        <ele>450.20001220703</ele>
        <time>2021-02-20T14:04:14.000Z</time>
      </trkpt>
      <trkpt lat="43.88422" lon="7.5203">
        <ele>449.20001220703</ele>
        <time>2021-02-20T14:04:15.000Z</time>
      </trkpt>
      <trkpt lat="43.88419" lon="7.52031">
        <ele>447.79998779297</ele>
        <time>2021-02-20T14:04:16.000Z</time>
      </trkpt>
      <trkpt lat="43.88409" lon="7.52034">
        <ele>445.79998779297</ele>
        <time>2021-02-20T14:04:18.000Z</time>
      </trkpt>
      <trkpt lat="43.88405" lon="7.52034">
        <ele>444.60000610352</ele>
        <time>2021-02-20T14:04:19.000Z</time>
      </trkpt>
      <trkpt lat="43.88402" lon="7.52033">
        <ele>443.39999389648</ele>
        <time>2021-02-20T14:04:20.000Z</time>
      </trkpt>
      <trkpt lat="43.884" lon="7.52032">
        <ele>442.20001220703</ele>
        <time>2021-02-20T14:04:21.000Z</time>
      </trkpt>
      <trkpt lat="43.88398" lon="7.52032">
        <ele>441.20001220703</ele>
        <time>2021-02-20T14:04:22.000Z</time>
      </trkpt>
      <trkpt lat="43.88391" lon="7.52031">
        <ele>439.60000610352</ele>
        <time>2021-02-20T14:04:24.000Z</time>
      </trkpt>
      <trkpt lat="43.88388" lon="7.52028">
        <ele>438.79998779297</ele>
        <time>2021-02-20T14:04:25.000Z</time>
      </trkpt>
      <trkpt lat="43.88385" lon="7.52025">
        <ele>437.60000610352</ele>
        <time>2021-02-20T14:04:26.000Z</time>
      </trkpt>
      <trkpt lat="43.88381" lon="7.52025">
        <ele>435.20001220703</ele>
        <time>2021-02-20T14:04:28.000Z</time>
      </trkpt>
      <trkpt lat="43.88378" lon="7.52027">
        <ele>434</ele>
        <time>2021-02-20T14:04:29.000Z</time>
      </trkpt>
      <trkpt lat="43.88374" lon="7.52028">
        <ele>432.79998779297</ele>
        <time>2021-02-20T14:04:30.000Z</time>
      </trkpt>
      <trkpt lat="43.88373" lon="7.52027">
        <ele>431.79998779297</ele>
        <time>2021-02-20T14:04:31.000Z</time>
      </trkpt>
      <trkpt lat="43.8837" lon="7.52027">
        <ele>430.39999389648</ele>
        <time>2021-02-20T14:04:32.000Z</time>
      </trkpt>
      <trkpt lat="43.88365" lon="7.52026">
        <ele>429</ele>
        <time>2021-02-20T14:04:34.000Z</time>
      </trkpt>
      <trkpt lat="43.8836" lon="7.52025">
        <ele>427.20001220703</ele>
        <time>2021-02-20T14:04:36.000Z</time>
      </trkpt>
      <trkpt lat="43.88358" lon="7.52027">
        <ele>426.39999389648</ele>
        <time>2021-02-20T14:04:37.000Z</time>
      </trkpt>
      <trkpt lat="43.88357" lon="7.52031">
        <ele>425.20001220703</ele>
        <time>2021-02-20T14:04:38.000Z</time>
      </trkpt>
      <trkpt lat="43.88357" lon="7.52033">
        <ele>424.39999389648</ele>
        <time>2021-02-20T14:04:39.000Z</time>
      </trkpt>
      <trkpt lat="43.88356" lon="7.52035">
        <ele>423.39999389648</ele>
        <time>2021-02-20T14:04:40.000Z</time>
      </trkpt>
      <trkpt lat="43.8835" lon="7.52043">
        <ele>421.79998779297</ele>
        <time>2021-02-20T14:04:42.000Z</time>
      </trkpt>
      <trkpt lat="43.88344" lon="7.52045">
        <ele>420.20001220703</ele>
        <time>2021-02-20T14:04:44.000Z</time>
      </trkpt>
      <trkpt lat="43.88343" lon="7.52048">
        <ele>419.20001220703</ele>
        <time>2021-02-20T14:04:45.000Z</time>
      </trkpt>
      <trkpt lat="43.8834" lon="7.52051">
        <ele>418.20001220703</ele>
        <time>2021-02-20T14:04:46.000Z</time>
      </trkpt>
      <trkpt lat="43.88335" lon="7.52045">
        <ele>416.39999389648</ele>
        <time>2021-02-20T14:04:48.000Z</time>
      </trkpt>
      <trkpt lat="43.88334" lon="7.52036">
        <ele>414.60000610352</ele>
        <time>2021-02-20T14:04:50.000Z</time>
      </trkpt>
      <trkpt lat="43.88332" lon="7.52035">
        <ele>413.79998779297</ele>
        <time>2021-02-20T14:04:51.000Z</time>
      </trkpt>
      <trkpt lat="43.88329" lon="7.52035">
        <ele>412.39999389648</ele>
        <time>2021-02-20T14:04:52.000Z</time>
      </trkpt>
      <trkpt lat="43.88325" lon="7.52032">
        <ele>411.20001220703</ele>
        <time>2021-02-20T14:04:54.000Z</time>
      </trkpt>
      <trkpt lat="43.88323" lon="7.5203">
        <ele>410.60000610352</ele>
        <time>2021-02-20T14:04:55.000Z</time>
      </trkpt>
      <trkpt lat="43.88321" lon="7.52028">
        <ele>410</ele>
        <time>2021-02-20T14:04:56.000Z</time>
      </trkpt>
      <trkpt lat="43.88317" lon="7.52025">
        <ele>408.60000610352</ele>
        <time>2021-02-20T14:04:58.000Z</time>
      </trkpt>
      <trkpt lat="43.88315" lon="7.52025">
        <ele>407.79998779297</ele>
        <time>2021-02-20T14:04:59.000Z</time>
      </trkpt>
      <trkpt lat="43.88312" lon="7.52025">
        <ele>406.79998779297</ele>
        <time>2021-02-20T14:05:00.000Z</time>
      </trkpt>
      <trkpt lat="43.88309" lon="7.52022">
        <ele>406</ele>
        <time>2021-02-20T14:05:01.000Z</time>
      </trkpt>
      <trkpt lat="43.88307" lon="7.52019">
        <ele>404.79998779297</ele>
        <time>2021-02-20T14:05:02.000Z</time>
      </trkpt>
      <trkpt lat="43.88303" lon="7.52017">
        <ele>403</ele>
        <time>2021-02-20T14:05:04.000Z</time>
      </trkpt>
      <trkpt lat="43.88302" lon="7.52016">
        <ele>402</ele>
        <time>2021-02-20T14:05:05.000Z</time>
      </trkpt>
      <trkpt lat="43.883" lon="7.52016">
        <ele>400.79998779297</ele>
        <time>2021-02-20T14:05:06.000Z</time>
      </trkpt>
      <trkpt lat="43.88297" lon="7.52014">
        <ele>398.79998779297</ele>
        <time>2021-02-20T14:05:08.000Z</time>
      </trkpt>
      <trkpt lat="43.88296" lon="7.52009">
        <ele>397.20001220703</ele>
        <time>2021-02-20T14:05:10.000Z</time>
      </trkpt>
      <trkpt lat="43.88289" lon="7.5201">
        <ele>395.60000610352</ele>
        <time>2021-02-20T14:05:13.000Z</time>
      </trkpt>
      <trkpt lat="43.88284" lon="7.52019">
        <ele>394.39999389648</ele>
        <time>2021-02-20T14:05:15.000Z</time>
      </trkpt>
      <trkpt lat="43.8828" lon="7.5202">
        <ele>393.39999389648</ele>
        <time>2021-02-20T14:05:16.000Z</time>
      </trkpt>
      <trkpt lat="43.88277" lon="7.52011">
        <ele>391.60000610352</ele>
        <time>2021-02-20T14:05:18.000Z</time>
      </trkpt>
      <trkpt lat="43.88275" lon="7.52006">
        <ele>390.60000610352</ele>
        <time>2021-02-20T14:05:19.000Z</time>
      </trkpt>
      <trkpt lat="43.88275" lon="7.52">
        <ele>390</ele>
        <time>2021-02-20T14:05:20.000Z</time>
      </trkpt>
      <trkpt lat="43.88272" lon="7.51994">
        <ele>388.60000610352</ele>
        <time>2021-02-20T14:05:22.000Z</time>
      </trkpt>
      <trkpt lat="43.8827" lon="7.51996">
        <ele>387.60000610352</ele>
        <time>2021-02-20T14:05:23.000Z</time>
      </trkpt>
      <trkpt lat="43.88262" lon="7.52">
        <ele>386</ele>
        <time>2021-02-20T14:05:25.000Z</time>
      </trkpt>
      <trkpt lat="43.88256" lon="7.52004">
        <ele>384.79998779297</ele>
        <time>2021-02-20T14:05:26.000Z</time>
      </trkpt>
      <trkpt lat="43.88251" lon="7.52006">
        <ele>383</ele>
        <time>2021-02-20T14:05:27.000Z</time>
      </trkpt>
      <trkpt lat="43.88247" lon="7.52007">
        <ele>381.39999389648</ele>
        <time>2021-02-20T14:05:28.000Z</time>
      </trkpt>
      <trkpt lat="43.88241" lon="7.52011">
        <ele>379.39999389648</ele>
        <time>2021-02-20T14:05:30.000Z</time>
      </trkpt>
      <trkpt lat="43.88236" lon="7.5201">
        <ele>378.20001220703</ele>
        <time>2021-02-20T14:05:31.000Z</time>
      </trkpt>
      <trkpt lat="43.88231" lon="7.52009">
        <ele>377.20001220703</ele>
        <time>2021-02-20T14:05:32.000Z</time>
      </trkpt>
      <trkpt lat="43.88226" lon="7.52008">
        <ele>376.79998779297</ele>
        <time>2021-02-20T14:05:33.000Z</time>
      </trkpt>
      <trkpt lat="43.88222" lon="7.52008">
        <ele>375.60000610352</ele>
        <time>2021-02-20T14:05:34.000Z</time>
      </trkpt>
      <trkpt lat="43.88221" lon="7.52004">
        <ele>374</ele>
        <time>2021-02-20T14:05:35.000Z</time>
      </trkpt>
      <trkpt lat="43.88222" lon="7.52">
        <ele>372.60000610352</ele>
        <time>2021-02-20T14:05:36.000Z</time>
      </trkpt>
      <trkpt lat="43.88222" lon="7.51997">
        <ele>371.20001220703</ele>
        <time>2021-02-20T14:05:37.000Z</time>
      </trkpt>
      <trkpt lat="43.8822" lon="7.51997">
        <ele>370.20001220703</ele>
        <time>2021-02-20T14:05:38.000Z</time>
      </trkpt>
      <trkpt lat="43.88217" lon="7.51999">
        <ele>369.20001220703</ele>
        <time>2021-02-20T14:05:39.000Z</time>
      </trkpt>
      <trkpt lat="43.88213" lon="7.52">
        <ele>368.60000610352</ele>
        <time>2021-02-20T14:05:40.000Z</time>
      </trkpt>
      <trkpt lat="43.88201" lon="7.52005">
        <ele>367</ele>
        <time>2021-02-20T14:05:43.000Z</time>
      </trkpt>
      <trkpt lat="43.88201" lon="7.52013">
        <ele>365</ele>
        <time>2021-02-20T14:05:45.000Z</time>
      </trkpt>
      <trkpt lat="43.882" lon="7.52016">
        <ele>364</ele>
        <time>2021-02-20T14:05:46.000Z</time>
      </trkpt>
      <trkpt lat="43.88197" lon="7.52018">
        <ele>363</ele>
        <time>2021-02-20T14:05:47.000Z</time>
      </trkpt>
      <trkpt lat="43.88193" lon="7.52016">
        <ele>361.79998779297</ele>
        <time>2021-02-20T14:05:48.000Z</time>
      </trkpt>
      <trkpt lat="43.88189" lon="7.52014">
        <ele>361.20001220703</ele>
        <time>2021-02-20T14:05:49.000Z</time>
      </trkpt>
      <trkpt lat="43.88186" lon="7.52014">
        <ele>360.39999389648</ele>
        <time>2021-02-20T14:05:50.000Z</time>
      </trkpt>
      <trkpt lat="43.88182" lon="7.52019">
        <ele>358.79998779297</ele>
        <time>2021-02-20T14:05:52.000Z</time>
      </trkpt>
      <trkpt lat="43.88178" lon="7.52026">
        <ele>357.60000610352</ele>
        <time>2021-02-20T14:05:54.000Z</time>
      </trkpt>
      <trkpt lat="43.88173" lon="7.52026">
        <ele>356.60000610352</ele>
        <time>2021-02-20T14:05:55.000Z</time>
      </trkpt>
      <trkpt lat="43.88168" lon="7.52026">
        <ele>355.60000610352</ele>
        <time>2021-02-20T14:05:56.000Z</time>
      </trkpt>
      <trkpt lat="43.88157" lon="7.52023">
        <ele>353.39999389648</ele>
        <time>2021-02-20T14:05:58.000Z</time>
      </trkpt>
      <trkpt lat="43.88153" lon="7.52021">
        <ele>352.60000610352</ele>
        <time>2021-02-20T14:05:59.000Z</time>
      </trkpt>
      <trkpt lat="43.88147" lon="7.52019">
        <ele>351.39999389648</ele>
        <time>2021-02-20T14:06:00.000Z</time>
      </trkpt>
      <trkpt lat="43.88144" lon="7.52014">
        <ele>349.79998779297</ele>
        <time>2021-02-20T14:06:01.000Z</time>
      </trkpt>
      <trkpt lat="43.88143" lon="7.52008">
        <ele>349</ele>
        <time>2021-02-20T14:06:02.000Z</time>
      </trkpt>
      <trkpt lat="43.88142" lon="7.52003">
        <ele>347.79998779297</ele>
        <time>2021-02-20T14:06:03.000Z</time>
      </trkpt>
      <trkpt lat="43.88142" lon="7.51989">
        <ele>346.39999389648</ele>
        <time>2021-02-20T14:06:05.000Z</time>
      </trkpt>
      <trkpt lat="43.88145" lon="7.51983">
        <ele>346</ele>
        <time>2021-02-20T14:06:06.000Z</time>
      </trkpt>
      <trkpt lat="43.88154" lon="7.51975">
        <ele>344.79998779297</ele>
        <time>2021-02-20T14:06:08.000Z</time>
      </trkpt>
      <trkpt lat="43.88159" lon="7.51969">
        <ele>344.20001220703</ele>
        <time>2021-02-20T14:06:09.000Z</time>
      </trkpt>
      <trkpt lat="43.88164" lon="7.51966">
        <ele>343.79998779297</ele>
        <time>2021-02-20T14:06:10.000Z</time>
      </trkpt>
      <trkpt lat="43.88168" lon="7.51956">
        <ele>342.39999389648</ele>
        <time>2021-02-20T14:06:12.000Z</time>
      </trkpt>
      <trkpt lat="43.88173" lon="7.51946">
        <ele>341.39999389648</ele>
        <time>2021-02-20T14:06:14.000Z</time>
      </trkpt>
      <trkpt lat="43.88174" lon="7.51942">
        <ele>341</ele>
        <time>2021-02-20T14:06:15.000Z</time>
      </trkpt>
      <trkpt lat="43.88174" lon="7.51936">
        <ele>340.39999389648</ele>
        <time>2021-02-20T14:06:16.000Z</time>
      </trkpt>
      <trkpt lat="43.88175" lon="7.51933">
        <ele>338.79998779297</ele>
        <time>2021-02-20T14:06:18.000Z</time>
      </trkpt>
      <trkpt lat="43.88175" lon="7.51933">
        <ele>337.79998779297</ele>
        <time>2021-02-20T14:06:21.000Z</time>
      </trkpt>
      <trkpt lat="43.88175" lon="7.51933">
        <ele>337.60000610352</ele>
        <time>2021-02-20T14:06:23.000Z</time>
      </trkpt>
      <trkpt lat="43.88173" lon="7.51931">
        <ele>337.60000610352</ele>
        <time>2021-02-20T14:06:24.000Z</time>
      </trkpt>
      <trkpt lat="43.88168" lon="7.51926">
        <ele>337.39999389648</ele>
        <time>2021-02-20T14:06:26.000Z</time>
      </trkpt>
      <trkpt lat="43.88165" lon="7.51919">
        <ele>336.39999389648</ele>
        <time>2021-02-20T14:06:28.000Z</time>
      </trkpt>
      <trkpt lat="43.88165" lon="7.51915">
        <ele>335.60000610352</ele>
        <time>2021-02-20T14:06:29.000Z</time>
      </trkpt>
      <trkpt lat="43.88165" lon="7.5191">
        <ele>334.79998779297</ele>
        <time>2021-02-20T14:06:30.000Z</time>
      </trkpt>
      <trkpt lat="43.88159" lon="7.51897">
        <ele>333.20001220703</ele>
        <time>2021-02-20T14:06:32.000Z</time>
      </trkpt>
      <trkpt lat="43.88156" lon="7.51892">
        <ele>332.20001220703</ele>
        <time>2021-02-20T14:06:33.000Z</time>
      </trkpt>
      <trkpt lat="43.88152" lon="7.51886">
        <ele>331</ele>
        <time>2021-02-20T14:06:34.000Z</time>
      </trkpt>
      <trkpt lat="43.8815" lon="7.51881">
        <ele>330.20001220703</ele>
        <time>2021-02-20T14:06:35.000Z</time>
      </trkpt>
      <trkpt lat="43.88147" lon="7.51876">
        <ele>329.20001220703</ele>
        <time>2021-02-20T14:06:36.000Z</time>
      </trkpt>
      <trkpt lat="43.88141" lon="7.51862">
        <ele>327.39999389648</ele>
        <time>2021-02-20T14:06:38.000Z</time>
      </trkpt>
      <trkpt lat="43.88139" lon="7.51854">
        <ele>326.79998779297</ele>
        <time>2021-02-20T14:06:39.000Z</time>
      </trkpt>
      <trkpt lat="43.88138" lon="7.51846">
        <ele>326</ele>
        <time>2021-02-20T14:06:40.000Z</time>
      </trkpt>
      <trkpt lat="43.88137" lon="7.51831">
        <ele>324.20001220703</ele>
        <time>2021-02-20T14:06:42.000Z</time>
      </trkpt>
      <trkpt lat="43.88138" lon="7.51821">
        <ele>323.20001220703</ele>
        <time>2021-02-20T14:06:44.000Z</time>
      </trkpt>
      <trkpt lat="43.8814" lon="7.51811">
        <ele>322</ele>
        <time>2021-02-20T14:06:46.000Z</time>
      </trkpt>
      <trkpt lat="43.88141" lon="7.51803">
        <ele>319.79998779297</ele>
        <time>2021-02-20T14:06:48.000Z</time>
      </trkpt>
      <trkpt lat="43.8814" lon="7.51803">
        <ele>318.39999389648</ele>
        <time>2021-02-20T14:06:49.000Z</time>
      </trkpt>
      <trkpt lat="43.8814" lon="7.51803">
        <ele>316.79998779297</ele>
        <time>2021-02-20T14:06:50.000Z</time>
      </trkpt>
      <trkpt lat="43.8814" lon="7.51804">
        <ele>316.39999389648</ele>
        <time>2021-02-20T14:06:51.000Z</time>
      </trkpt>
      <trkpt lat="43.8814" lon="7.51805">
        <ele>315.60000610352</ele>
        <time>2021-02-20T14:06:52.000Z</time>
      </trkpt>
      <trkpt lat="43.88135" lon="7.51811">
        <ele>314.79998779297</ele>
        <time>2021-02-20T14:06:56.000Z</time>
      </trkpt>
      <trkpt lat="43.88135" lon="7.5181">
        <ele>314.60000610352</ele>
        <time>2021-02-20T14:06:57.000Z</time>
      </trkpt>
      <trkpt lat="43.88135" lon="7.5181">
        <ele>314</ele>
        <time>2021-02-20T14:07:00.000Z</time>
      </trkpt>
      <trkpt lat="43.88135" lon="7.51809">
        <ele>313.60000610352</ele>
        <time>2021-02-20T14:07:01.000Z</time>
      </trkpt>
      <trkpt lat="43.88135" lon="7.51808">
        <ele>312.39999389648</ele>
        <time>2021-02-20T14:07:04.000Z</time>
      </trkpt>
      <trkpt lat="43.88135" lon="7.51808">
        <ele>312.39999389648</ele>
        <time>2021-02-20T14:07:07.000Z</time>
      </trkpt>
      <trkpt lat="43.88137" lon="7.51802">
        <ele>312.20001220703</ele>
        <time>2021-02-20T14:07:14.000Z</time>
      </trkpt>
      <trkpt lat="43.88132" lon="7.51802">
        <ele>311.60000610352</ele>
        <time>2021-02-20T14:07:18.000Z</time>
      </trkpt>
      <trkpt lat="43.8813" lon="7.518">
        <ele>311.20001220703</ele>
        <time>2021-02-20T14:07:19.000Z</time>
      </trkpt>
      <trkpt lat="43.88128" lon="7.5179">
        <ele>310.60000610352</ele>
        <time>2021-02-20T14:07:21.000Z</time>
      </trkpt>
      <trkpt lat="43.88127" lon="7.51784">
        <ele>310</ele>
        <time>2021-02-20T14:07:22.000Z</time>
      </trkpt>
      <trkpt lat="43.88125" lon="7.5177">
        <ele>308</ele>
        <time>2021-02-20T14:07:24.000Z</time>
      </trkpt>
      <trkpt lat="43.88127" lon="7.51762">
        <ele>307.20001220703</ele>
        <time>2021-02-20T14:07:25.000Z</time>
      </trkpt>
      <trkpt lat="43.88132" lon="7.51755">
        <ele>306.20001220703</ele>
        <time>2021-02-20T14:07:26.000Z</time>
      </trkpt>
      <trkpt lat="43.88137" lon="7.51749">
        <ele>305</ele>
        <time>2021-02-20T14:07:27.000Z</time>
      </trkpt>
      <trkpt lat="43.88142" lon="7.51744">
        <ele>303.79998779297</ele>
        <time>2021-02-20T14:07:28.000Z</time>
      </trkpt>
      <trkpt lat="43.88148" lon="7.51735">
        <ele>302</ele>
        <time>2021-02-20T14:07:30.000Z</time>
      </trkpt>
      <trkpt lat="43.88153" lon="7.51722">
        <ele>301</ele>
        <time>2021-02-20T14:07:32.000Z</time>
      </trkpt>
      <trkpt lat="43.88158" lon="7.51707">
        <ele>299.79998779297</ele>
        <time>2021-02-20T14:07:34.000Z</time>
      </trkpt>
      <trkpt lat="43.8816" lon="7.51699">
        <ele>299.39999389648</ele>
        <time>2021-02-20T14:07:35.000Z</time>
      </trkpt>
      <trkpt lat="43.88163" lon="7.51689">
        <ele>298.79998779297</ele>
        <time>2021-02-20T14:07:36.000Z</time>
      </trkpt>
      <trkpt lat="43.8817" lon="7.51669">
        <ele>297</ele>
        <time>2021-02-20T14:07:38.000Z</time>
      </trkpt>
      <trkpt lat="43.88176" lon="7.51664">
        <ele>296</ele>
        <time>2021-02-20T14:07:39.000Z</time>
      </trkpt>
      <trkpt lat="43.88181" lon="7.51661">
        <ele>295</ele>
        <time>2021-02-20T14:07:40.000Z</time>
      </trkpt>
      <trkpt lat="43.88191" lon="7.51659">
        <ele>294</ele>
        <time>2021-02-20T14:07:42.000Z</time>
      </trkpt>
      <trkpt lat="43.88204" lon="7.51658">
        <ele>296</ele>
        <time>2021-02-20T14:07:46.000Z</time>
      </trkpt>
      <trkpt lat="43.88216" lon="7.51658">
        <ele>297.20001220703</ele>
        <time>2021-02-20T14:07:50.000Z</time>
      </trkpt>
      <trkpt lat="43.88232" lon="7.51656">
        <ele>298.20001220703</ele>
        <time>2021-02-20T14:07:55.000Z</time>
      </trkpt>
      <trkpt lat="43.88235" lon="7.51655">
        <ele>298.20001220703</ele>
        <time>2021-02-20T14:07:56.000Z</time>
      </trkpt>
      <trkpt lat="43.88249" lon="7.51649">
        <ele>299.39999389648</ele>
        <time>2021-02-20T14:08:01.000Z</time>
      </trkpt>
      <trkpt lat="43.8825" lon="7.51646">
        <ele>299.60000610352</ele>
        <time>2021-02-20T14:08:02.000Z</time>
      </trkpt>
      <trkpt lat="43.88251" lon="7.51638">
        <ele>300</ele>
        <time>2021-02-20T14:08:04.000Z</time>
      </trkpt>
      <trkpt lat="43.8825" lon="7.5163">
        <ele>300.39999389648</ele>
        <time>2021-02-20T14:08:06.000Z</time>
      </trkpt>
      <trkpt lat="43.88249" lon="7.51627">
        <ele>300.39999389648</ele>
        <time>2021-02-20T14:08:07.000Z</time>
      </trkpt>
      <trkpt lat="43.88238" lon="7.51611">
        <ele>301.20001220703</ele>
        <time>2021-02-20T14:08:13.000Z</time>
      </trkpt>
      <trkpt lat="43.8823" lon="7.51608">
        <ele>301.60000610352</ele>
        <time>2021-02-20T14:08:16.000Z</time>
      </trkpt>
      <trkpt lat="43.88222" lon="7.51609">
        <ele>302</ele>
        <time>2021-02-20T14:08:19.000Z</time>
      </trkpt>
      <trkpt lat="43.88216" lon="7.51611">
        <ele>302.60000610352</ele>
        <time>2021-02-20T14:08:22.000Z</time>
      </trkpt>
      <trkpt lat="43.88212" lon="7.51611">
        <ele>303</ele>
        <time>2021-02-20T14:08:25.000Z</time>
      </trkpt>
      <trkpt lat="43.88203" lon="7.51609">
        <ele>303.79998779297</ele>
        <time>2021-02-20T14:08:30.000Z</time>
      </trkpt>
      <trkpt lat="43.88199" lon="7.51608">
        <ele>304</ele>
        <time>2021-02-20T14:08:32.000Z</time>
      </trkpt>
      <trkpt lat="43.88185" lon="7.51606">
        <ele>304.79998779297</ele>
        <time>2021-02-20T14:08:40.000Z</time>
      </trkpt>
      <trkpt lat="43.88183" lon="7.51605">
        <ele>304.79998779297</ele>
        <time>2021-02-20T14:08:41.000Z</time>
      </trkpt>
      <trkpt lat="43.8817" lon="7.51605">
        <ele>305.79998779297</ele>
        <time>2021-02-20T14:08:47.000Z</time>
      </trkpt>
      <trkpt lat="43.88168" lon="7.51606">
        <ele>306</ele>
        <time>2021-02-20T14:08:48.000Z</time>
      </trkpt>
      <trkpt lat="43.88153" lon="7.51614">
        <ele>306.79998779297</ele>
        <time>2021-02-20T14:08:55.000Z</time>
      </trkpt>
      <trkpt lat="43.8815" lon="7.51616">
        <ele>306.79998779297</ele>
        <time>2021-02-20T14:08:56.000Z</time>
      </trkpt>
      <trkpt lat="43.88134" lon="7.51625">
        <ele>307.39999389648</ele>
        <time>2021-02-20T14:09:03.000Z</time>
      </trkpt>
      <trkpt lat="43.88123" lon="7.5163">
        <ele>307.79998779297</ele>
        <time>2021-02-20T14:09:08.000Z</time>
      </trkpt>
      <trkpt lat="43.88117" lon="7.51631">
        <ele>308.39999389648</ele>
        <time>2021-02-20T14:09:11.000Z</time>
      </trkpt>
      <trkpt lat="43.88111" lon="7.51632">
        <ele>308.79998779297</ele>
        <time>2021-02-20T14:09:14.000Z</time>
      </trkpt>
      <trkpt lat="43.88104" lon="7.51632">
        <ele>309.39999389648</ele>
        <time>2021-02-20T14:09:17.000Z</time>
      </trkpt>
      <trkpt lat="43.88095" lon="7.51632">
        <ele>310</ele>
        <time>2021-02-20T14:09:21.000Z</time>
      </trkpt>
      <trkpt lat="43.88089" lon="7.51632">
        <ele>310.39999389648</ele>
        <time>2021-02-20T14:09:24.000Z</time>
      </trkpt>
      <trkpt lat="43.88082" lon="7.51633">
        <ele>311</ele>
        <time>2021-02-20T14:09:27.000Z</time>
      </trkpt>
      <trkpt lat="43.88075" lon="7.51636">
        <ele>311.39999389648</ele>
        <time>2021-02-20T14:09:31.000Z</time>
      </trkpt>
      <trkpt lat="43.88066" lon="7.5164">
        <ele>312.20001220703</ele>
        <time>2021-02-20T14:09:35.000Z</time>
      </trkpt>
      <trkpt lat="43.88056" lon="7.51645">
        <ele>313.20001220703</ele>
        <time>2021-02-20T14:09:40.000Z</time>
      </trkpt>
      <trkpt lat="43.88053" lon="7.51646">
        <ele>313.20001220703</ele>
        <time>2021-02-20T14:09:41.000Z</time>
      </trkpt>
      <trkpt lat="43.88043" lon="7.51648">
        <ele>314.39999389648</ele>
        <time>2021-02-20T14:09:46.000Z</time>
      </trkpt>
      <trkpt lat="43.88041" lon="7.51649">
        <ele>314.60000610352</ele>
        <time>2021-02-20T14:09:47.000Z</time>
      </trkpt>
      <trkpt lat="43.8803" lon="7.51653">
        <ele>315.39999389648</ele>
        <time>2021-02-20T14:09:52.000Z</time>
      </trkpt>
      <trkpt lat="43.88023" lon="7.51657">
        <ele>316</ele>
        <time>2021-02-20T14:09:55.000Z</time>
      </trkpt>
      <trkpt lat="43.88017" lon="7.51661">
        <ele>316.39999389648</ele>
        <time>2021-02-20T14:09:58.000Z</time>
      </trkpt>
      <trkpt lat="43.88008" lon="7.51668">
        <ele>317.20001220703</ele>
        <time>2021-02-20T14:10:02.000Z</time>
      </trkpt>
      <trkpt lat="43.88004" lon="7.51673">
        <ele>317.60000610352</ele>
        <time>2021-02-20T14:10:04.000Z</time>
      </trkpt>
      <trkpt lat="43.87996" lon="7.51689">
        <ele>318.39999389648</ele>
        <time>2021-02-20T14:10:09.000Z</time>
      </trkpt>
      <trkpt lat="43.87993" lon="7.51695">
        <ele>318.79998779297</ele>
        <time>2021-02-20T14:10:11.000Z</time>
      </trkpt>
      <trkpt lat="43.87987" lon="7.51711">
        <ele>319.79998779297</ele>
        <time>2021-02-20T14:10:16.000Z</time>
      </trkpt>
      <trkpt lat="43.87986" lon="7.51714">
        <ele>320</ele>
        <time>2021-02-20T14:10:17.000Z</time>
      </trkpt>
      <trkpt lat="43.87982" lon="7.5173">
        <ele>321</ele>
        <time>2021-02-20T14:10:22.000Z</time>
      </trkpt>
      <trkpt lat="43.87981" lon="7.51737">
        <ele>321.39999389648</ele>
        <time>2021-02-20T14:10:24.000Z</time>
      </trkpt>
      <trkpt lat="43.87979" lon="7.5175">
        <ele>322</ele>
        <time>2021-02-20T14:10:28.000Z</time>
      </trkpt>
      <trkpt lat="43.87977" lon="7.51768">
        <ele>322.79998779297</ele>
        <time>2021-02-20T14:10:33.000Z</time>
      </trkpt>
      <trkpt lat="43.87977" lon="7.51771">
        <ele>323</ele>
        <time>2021-02-20T14:10:34.000Z</time>
      </trkpt>
      <trkpt lat="43.87976" lon="7.51791">
        <ele>324.20001220703</ele>
        <time>2021-02-20T14:10:40.000Z</time>
      </trkpt>
      <trkpt lat="43.87972" lon="7.518">
        <ele>324.79998779297</ele>
        <time>2021-02-20T14:10:43.000Z</time>
      </trkpt>
      <trkpt lat="43.87969" lon="7.518">
        <ele>325</ele>
        <time>2021-02-20T14:10:44.000Z</time>
      </trkpt>
      <trkpt lat="43.87965" lon="7.51796">
        <ele>325.39999389648</ele>
        <time>2021-02-20T14:10:46.000Z</time>
      </trkpt>
      <trkpt lat="43.87965" lon="7.51792">
        <ele>325.39999389648</ele>
        <time>2021-02-20T14:10:47.000Z</time>
      </trkpt>
      <trkpt lat="43.87969" lon="7.51775">
        <ele>326.39999389648</ele>
        <time>2021-02-20T14:10:52.000Z</time>
      </trkpt>
      <trkpt lat="43.87973" lon="7.51753">
        <ele>327.39999389648</ele>
        <time>2021-02-20T14:10:58.000Z</time>
      </trkpt>
      <trkpt lat="43.87973" lon="7.5175">
        <ele>327.39999389648</ele>
        <time>2021-02-20T14:10:59.000Z</time>
      </trkpt>
      <trkpt lat="43.87975" lon="7.51732">
        <ele>328</ele>
        <time>2021-02-20T14:11:04.000Z</time>
      </trkpt>
      <trkpt lat="43.87976" lon="7.51725">
        <ele>328.39999389648</ele>
        <time>2021-02-20T14:11:06.000Z</time>
      </trkpt>
      <trkpt lat="43.87979" lon="7.5171">
        <ele>329.20001220703</ele>
        <time>2021-02-20T14:11:11.000Z</time>
      </trkpt>
      <trkpt lat="43.87981" lon="7.51699">
        <ele>329.60000610352</ele>
        <time>2021-02-20T14:11:14.000Z</time>
      </trkpt>
      <trkpt lat="43.87984" lon="7.5169">
        <ele>330</ele>
        <time>2021-02-20T14:11:17.000Z</time>
      </trkpt>
      <trkpt lat="43.87986" lon="7.51678">
        <ele>330.39999389648</ele>
        <time>2021-02-20T14:11:21.000Z</time>
      </trkpt>
      <trkpt lat="43.87987" lon="7.51675">
        <ele>330.60000610352</ele>
        <time>2021-02-20T14:11:22.000Z</time>
      </trkpt>
      <trkpt lat="43.87989" lon="7.51666">
        <ele>331</ele>
        <time>2021-02-20T14:11:25.000Z</time>
      </trkpt>
      <trkpt lat="43.87991" lon="7.51659">
        <ele>331.39999389648</ele>
        <time>2021-02-20T14:11:28.000Z</time>
      </trkpt>
      <trkpt lat="43.87991" lon="7.51657">
        <ele>331.39999389648</ele>
        <time>2021-02-20T14:11:29.000Z</time>
      </trkpt>
      <trkpt lat="43.87991" lon="7.51655">
        <ele>331.60000610352</ele>
        <time>2021-02-20T14:11:31.000Z</time>
      </trkpt>
      <trkpt lat="43.87989" lon="7.51653">
        <ele>331.79998779297</ele>
        <time>2021-02-20T14:11:33.000Z</time>
      </trkpt>
      <trkpt lat="43.87984" lon="7.51653">
        <ele>332</ele>
        <time>2021-02-20T14:11:38.000Z</time>
      </trkpt>
      <trkpt lat="43.87983" lon="7.51653">
        <ele>332</ele>
        <time>2021-02-20T14:11:40.000Z</time>
      </trkpt>
      <trkpt lat="43.87981" lon="7.5165">
        <ele>332</ele>
        <time>2021-02-20T14:11:42.000Z</time>
      </trkpt>
      <trkpt lat="43.87986" lon="7.51651">
        <ele>332</ele>
        <time>2021-02-20T14:11:45.000Z</time>
      </trkpt>
      <trkpt lat="43.87989" lon="7.51655">
        <ele>332</ele>
        <time>2021-02-20T14:11:47.000Z</time>
      </trkpt>
      <trkpt lat="43.87993" lon="7.51665">
        <ele>331.79998779297</ele>
        <time>2021-02-20T14:11:51.000Z</time>
      </trkpt>
      <trkpt lat="43.87992" lon="7.51666">
        <ele>331.60000610352</ele>
        <time>2021-02-20T14:11:55.000Z</time>
      </trkpt>
      <trkpt lat="43.87992" lon="7.51665">
        <ele>332</ele>
        <time>2021-02-20T14:12:09.000Z</time>
      </trkpt>
      <trkpt lat="43.87991" lon="7.51665">
        <ele>332.20001220703</ele>
        <time>2021-02-20T14:12:35.000Z</time>
      </trkpt>
      <trkpt lat="43.8799" lon="7.51665">
        <ele>332</ele>
        <time>2021-02-20T14:12:50.000Z</time>
      </trkpt>
      <trkpt lat="43.87992" lon="7.51664">
        <ele>332.20001220703</ele>
        <time>2021-02-20T14:13:05.000Z</time>
      </trkpt>
      <trkpt lat="43.87994" lon="7.51664">
        <ele>332.20001220703</ele>
        <time>2021-02-20T14:13:13.000Z</time>
      </trkpt>
      <trkpt lat="43.87996" lon="7.51663">
        <ele>332</ele>
        <time>2021-02-20T14:13:22.000Z</time>
      </trkpt>
      <trkpt lat="43.87996" lon="7.51661">
        <ele>332</ele>
        <time>2021-02-20T14:13:41.000Z</time>
      </trkpt>
      <trkpt lat="43.87994" lon="7.51662">
        <ele>331.39999389648</ele>
        <time>2021-02-20T14:14:08.000Z</time>
      </trkpt>
      <trkpt lat="43.87994" lon="7.51663">
        <ele>331.60000610352</ele>
        <time>2021-02-20T14:14:19.000Z</time>
      </trkpt>
      <trkpt lat="43.87994" lon="7.51663">
        <ele>331.79998779297</ele>
        <time>2021-02-20T14:14:33.000Z</time>
      </trkpt>
      <trkpt lat="43.87993" lon="7.51663">
        <ele>331.39999389648</ele>
        <time>2021-02-20T14:14:42.000Z</time>
      </trkpt>
      <trkpt lat="43.87991" lon="7.51659">
        <ele>331.39999389648</ele>
        <time>2021-02-20T14:14:45.000Z</time>
      </trkpt>
      <trkpt lat="43.87993" lon="7.51655">
        <ele>331.39999389648</ele>
        <time>2021-02-20T14:14:47.000Z</time>
      </trkpt>
      <trkpt lat="43.88001" lon="7.51648">
        <ele>331.79998779297</ele>
        <time>2021-02-20T14:14:53.000Z</time>
      </trkpt>
      <trkpt lat="43.8801" lon="7.51641">
        <ele>332.60000610352</ele>
        <time>2021-02-20T14:14:58.000Z</time>
      </trkpt>
      <trkpt lat="43.88013" lon="7.51638">
        <ele>332.79998779297</ele>
        <time>2021-02-20T14:15:00.000Z</time>
      </trkpt>
      <trkpt lat="43.8802" lon="7.51633">
        <ele>333.39999389648</ele>
        <time>2021-02-20T14:15:04.000Z</time>
      </trkpt>
      <trkpt lat="43.88024" lon="7.5163">
        <ele>334</ele>
        <time>2021-02-20T14:15:06.000Z</time>
      </trkpt>
      <trkpt lat="43.88033" lon="7.51623">
        <ele>335.20001220703</ele>
        <time>2021-02-20T14:15:11.000Z</time>
      </trkpt>
      <trkpt lat="43.88041" lon="7.51617">
        <ele>336.20001220703</ele>
        <time>2021-02-20T14:15:15.000Z</time>
      </trkpt>
      <trkpt lat="43.88049" lon="7.5161">
        <ele>337.20001220703</ele>
        <time>2021-02-20T14:15:19.000Z</time>
      </trkpt>
      <trkpt lat="43.8805" lon="7.51608">
        <ele>337.39999389648</ele>
        <time>2021-02-20T14:15:20.000Z</time>
      </trkpt>
      <trkpt lat="43.88055" lon="7.516">
        <ele>338.60000610352</ele>
        <time>2021-02-20T14:15:24.000Z</time>
      </trkpt>
      <trkpt lat="43.88056" lon="7.51599">
        <ele>338.79998779297</ele>
        <time>2021-02-20T14:15:25.000Z</time>
      </trkpt>
      <trkpt lat="43.8806" lon="7.51594">
        <ele>339.79998779297</ele>
        <time>2021-02-20T14:15:28.000Z</time>
      </trkpt>
      <trkpt lat="43.88061" lon="7.51593">
        <ele>340</ele>
        <time>2021-02-20T14:15:29.000Z</time>
      </trkpt>
      <trkpt lat="43.88065" lon="7.51588">
        <ele>340.79998779297</ele>
        <time>2021-02-20T14:15:32.000Z</time>
      </trkpt>
      <trkpt lat="43.8807" lon="7.51583">
        <ele>341.79998779297</ele>
        <time>2021-02-20T14:15:36.000Z</time>
      </trkpt>
      <trkpt lat="43.88076" lon="7.51575">
        <ele>343.20001220703</ele>
        <time>2021-02-20T14:15:41.000Z</time>
      </trkpt>
      <trkpt lat="43.8808" lon="7.5157">
        <ele>343.79998779297</ele>
        <time>2021-02-20T14:15:44.000Z</time>
      </trkpt>
      <trkpt lat="43.88083" lon="7.51568">
        <ele>344.39999389648</ele>
        <time>2021-02-20T14:15:46.000Z</time>
      </trkpt>
      <trkpt lat="43.88089" lon="7.51563">
        <ele>345.60000610352</ele>
        <time>2021-02-20T14:15:50.000Z</time>
      </trkpt>
      <trkpt lat="43.8809" lon="7.51561">
        <ele>345.79998779297</ele>
        <time>2021-02-20T14:15:51.000Z</time>
      </trkpt>
      <trkpt lat="43.88096" lon="7.51554">
        <ele>346.79998779297</ele>
        <time>2021-02-20T14:15:55.000Z</time>
      </trkpt>
      <trkpt lat="43.88099" lon="7.51551">
        <ele>347.20001220703</ele>
        <time>2021-02-20T14:15:57.000Z</time>
      </trkpt>
      <trkpt lat="43.88102" lon="7.51548">
        <ele>347.79998779297</ele>
        <time>2021-02-20T14:15:59.000Z</time>
      </trkpt>
      <trkpt lat="43.88107" lon="7.5154">
        <ele>349</ele>
        <time>2021-02-20T14:16:03.000Z</time>
      </trkpt>
      <trkpt lat="43.88112" lon="7.51533">
        <ele>350</ele>
        <time>2021-02-20T14:16:07.000Z</time>
      </trkpt>
      <trkpt lat="43.88114" lon="7.51532">
        <ele>350.20001220703</ele>
        <time>2021-02-20T14:16:08.000Z</time>
      </trkpt>
      <trkpt lat="43.8812" lon="7.51527">
        <ele>351.39999389648</ele>
        <time>2021-02-20T14:16:12.000Z</time>
      </trkpt>
      <trkpt lat="43.88121" lon="7.51525">
        <ele>351.60000610352</ele>
        <time>2021-02-20T14:16:13.000Z</time>
      </trkpt>
      <trkpt lat="43.88128" lon="7.51521">
        <ele>352.60000610352</ele>
        <time>2021-02-20T14:16:17.000Z</time>
      </trkpt>
      <trkpt lat="43.88135" lon="7.51517">
        <ele>353.60000610352</ele>
        <time>2021-02-20T14:16:21.000Z</time>
      </trkpt>
      <trkpt lat="43.88137" lon="7.51516">
        <ele>353.79998779297</ele>
        <time>2021-02-20T14:16:22.000Z</time>
      </trkpt>
      <trkpt lat="43.88145" lon="7.51509">
        <ele>355</ele>
        <time>2021-02-20T14:16:27.000Z</time>
      </trkpt>
      <trkpt lat="43.88148" lon="7.51506">
        <ele>355.39999389648</ele>
        <time>2021-02-20T14:16:29.000Z</time>
      </trkpt>
      <trkpt lat="43.88152" lon="7.51501">
        <ele>356.20001220703</ele>
        <time>2021-02-20T14:16:32.000Z</time>
      </trkpt>
      <trkpt lat="43.88157" lon="7.51492">
        <ele>357</ele>
        <time>2021-02-20T14:16:36.000Z</time>
      </trkpt>
      <trkpt lat="43.88158" lon="7.5149">
        <ele>357.20001220703</ele>
        <time>2021-02-20T14:16:37.000Z</time>
      </trkpt>
      <trkpt lat="43.88162" lon="7.5148">
        <ele>358.20001220703</ele>
        <time>2021-02-20T14:16:42.000Z</time>
      </trkpt>
      <trkpt lat="43.88163" lon="7.51478">
        <ele>358.60000610352</ele>
        <time>2021-02-20T14:16:43.000Z</time>
      </trkpt>
      <trkpt lat="43.88166" lon="7.5147">
        <ele>359.39999389648</ele>
        <time>2021-02-20T14:16:48.000Z</time>
      </trkpt>
      <trkpt lat="43.88166" lon="7.51469">
        <ele>359.60000610352</ele>
        <time>2021-02-20T14:16:49.000Z</time>
      </trkpt>
      <trkpt lat="43.88159" lon="7.51473">
        <ele>360</ele>
        <time>2021-02-20T14:16:53.000Z</time>
      </trkpt>
      <trkpt lat="43.88154" lon="7.51479">
        <ele>360.39999389648</ele>
        <time>2021-02-20T14:16:56.000Z</time>
      </trkpt>
      <trkpt lat="43.88152" lon="7.51481">
        <ele>360.60000610352</ele>
        <time>2021-02-20T14:16:57.000Z</time>
      </trkpt>
      <trkpt lat="43.88147" lon="7.51486">
        <ele>361.79998779297</ele>
        <time>2021-02-20T14:17:00.000Z</time>
      </trkpt>
      <trkpt lat="43.88144" lon="7.51488">
        <ele>363</ele>
        <time>2021-02-20T14:17:02.000Z</time>
      </trkpt>
      <trkpt lat="43.88141" lon="7.5149">
        <ele>364.20001220703</ele>
        <time>2021-02-20T14:17:04.000Z</time>
      </trkpt>
      <trkpt lat="43.88138" lon="7.5149">
        <ele>365.20001220703</ele>
        <time>2021-02-20T14:17:06.000Z</time>
      </trkpt>
      <trkpt lat="43.88138" lon="7.5149">
        <ele>365.60000610352</ele>
        <time>2021-02-20T14:17:07.000Z</time>
      </trkpt>
      <trkpt lat="43.88138" lon="7.5149">
        <ele>366.20001220703</ele>
        <time>2021-02-20T14:17:13.000Z</time>
      </trkpt>
      <trkpt lat="43.88135" lon="7.51492">
        <ele>366</ele>
        <time>2021-02-20T14:17:29.000Z</time>
      </trkpt>
      <trkpt lat="43.88132" lon="7.51493">
        <ele>366.20001220703</ele>
        <time>2021-02-20T14:17:35.000Z</time>
      </trkpt>
      <trkpt lat="43.88132" lon="7.51493">
        <ele>366.20001220703</ele>
        <time>2021-02-20T14:17:44.000Z</time>
      </trkpt>
      <trkpt lat="43.88132" lon="7.51494">
        <ele>366.20001220703</ele>
        <time>2021-02-20T14:17:51.000Z</time>
      </trkpt>
      <trkpt lat="43.88136" lon="7.51492">
        <ele>366.39999389648</ele>
        <time>2021-02-20T14:17:59.000Z</time>
      </trkpt>
      <trkpt lat="43.88137" lon="7.51492">
        <ele>366</ele>
        <time>2021-02-20T14:18:06.000Z</time>
      </trkpt>
      <trkpt lat="43.88132" lon="7.51493">
        <ele>366.20001220703</ele>
        <time>2021-02-20T14:18:15.000Z</time>
      </trkpt>
      <trkpt lat="43.88132" lon="7.51494">
        <ele>366.39999389648</ele>
        <time>2021-02-20T14:18:21.000Z</time>
      </trkpt>
      <trkpt lat="43.88132" lon="7.51494">
        <ele>366.20001220703</ele>
        <time>2021-02-20T14:18:29.000Z</time>
      </trkpt>
      <trkpt lat="43.88132" lon="7.51494">
        <ele>366.20001220703</ele>
        <time>2021-02-20T14:18:44.000Z</time>
      </trkpt>
      <trkpt lat="43.88133" lon="7.51493">
        <ele>366.20001220703</ele>
        <time>2021-02-20T14:18:51.000Z</time>
      </trkpt>
      <trkpt lat="43.88137" lon="7.51492">
        <ele>366</ele>
        <time>2021-02-20T14:18:57.000Z</time>
      </trkpt>
      <trkpt lat="43.88137" lon="7.51492">
        <ele>366.20001220703</ele>
        <time>2021-02-20T14:19:06.000Z</time>
      </trkpt>
      <trkpt lat="43.88138" lon="7.51492">
        <ele>366.39999389648</ele>
        <time>2021-02-20T14:19:20.000Z</time>
      </trkpt>
      <trkpt lat="43.88138" lon="7.51492">
        <ele>366.39999389648</ele>
        <time>2021-02-20T14:19:46.000Z</time>
      </trkpt>
      <trkpt lat="43.88138" lon="7.51492">
        <ele>366.39999389648</ele>
        <time>2021-02-20T14:19:52.000Z</time>
      </trkpt>
      <trkpt lat="43.88139" lon="7.51492">
        <ele>366</ele>
        <time>2021-02-20T14:20:03.000Z</time>
      </trkpt>
      <trkpt lat="43.88139" lon="7.51491">
        <ele>365.79998779297</ele>
        <time>2021-02-20T14:20:16.000Z</time>
      </trkpt>
      <trkpt lat="43.88139" lon="7.5149">
        <ele>365.79998779297</ele>
        <time>2021-02-20T14:20:32.000Z</time>
      </trkpt>
      <trkpt lat="43.88137" lon="7.51489">
        <ele>365.79998779297</ele>
        <time>2021-02-20T14:20:49.000Z</time>
      </trkpt>
      <trkpt lat="43.88136" lon="7.51489">
        <ele>365.79998779297</ele>
        <time>2021-02-20T14:21:02.000Z</time>
      </trkpt>
      <trkpt lat="43.88136" lon="7.51489">
        <ele>365.79998779297</ele>
        <time>2021-02-20T14:21:08.000Z</time>
      </trkpt>
      <trkpt lat="43.88134" lon="7.51489">
        <ele>366</ele>
        <time>2021-02-20T14:21:20.000Z</time>
      </trkpt>
      <trkpt lat="43.88131" lon="7.5149">
        <ele>366</ele>
        <time>2021-02-20T14:21:26.000Z</time>
      </trkpt>
      <trkpt lat="43.88131" lon="7.51491">
        <ele>366.39999389648</ele>
        <time>2021-02-20T14:21:33.000Z</time>
      </trkpt>
      <trkpt lat="43.88129" lon="7.51492">
        <ele>366.39999389648</ele>
        <time>2021-02-20T14:21:35.000Z</time>
      </trkpt>
      <trkpt lat="43.88126" lon="7.51493">
        <ele>366.60000610352</ele>
        <time>2021-02-20T14:21:38.000Z</time>
      </trkpt>
      <trkpt lat="43.88114" lon="7.51494">
        <ele>366.79998779297</ele>
        <time>2021-02-20T14:21:44.000Z</time>
      </trkpt>
      <trkpt lat="43.88112" lon="7.51492">
        <ele>366.79998779297</ele>
        <time>2021-02-20T14:21:45.000Z</time>
      </trkpt>
      <trkpt lat="43.88108" lon="7.51488">
        <ele>367.39999389648</ele>
        <time>2021-02-20T14:21:47.000Z</time>
      </trkpt>
      <trkpt lat="43.88106" lon="7.51487">
        <ele>367.60000610352</ele>
        <time>2021-02-20T14:21:48.000Z</time>
      </trkpt>
      <trkpt lat="43.88101" lon="7.51487">
        <ele>369</ele>
        <time>2021-02-20T14:21:50.000Z</time>
      </trkpt>
      <trkpt lat="43.88099" lon="7.51487">
        <ele>369.60000610352</ele>
        <time>2021-02-20T14:21:51.000Z</time>
      </trkpt>
      <trkpt lat="43.88097" lon="7.51488">
        <ele>370.39999389648</ele>
        <time>2021-02-20T14:21:52.000Z</time>
      </trkpt>
      <trkpt lat="43.88096" lon="7.51488">
        <ele>371</ele>
        <time>2021-02-20T14:21:53.000Z</time>
      </trkpt>
      <trkpt lat="43.88094" lon="7.51488">
        <ele>371.60000610352</ele>
        <time>2021-02-20T14:21:54.000Z</time>
      </trkpt>
      <trkpt lat="43.88091" lon="7.51489">
        <ele>372.60000610352</ele>
        <time>2021-02-20T14:21:56.000Z</time>
      </trkpt>
      <trkpt lat="43.88091" lon="7.51489">
        <ele>373.39999389648</ele>
        <time>2021-02-20T14:21:59.000Z</time>
      </trkpt>
      <trkpt lat="43.88091" lon="7.51489">
        <ele>373.79998779297</ele>
        <time>2021-02-20T14:22:01.000Z</time>
      </trkpt>
      <trkpt lat="43.8809" lon="7.51489">
        <ele>373.79998779297</ele>
        <time>2021-02-20T14:22:11.000Z</time>
      </trkpt>
      <trkpt lat="43.88089" lon="7.51485">
        <ele>373.79998779297</ele>
        <time>2021-02-20T14:22:15.000Z</time>
      </trkpt>
      <trkpt lat="43.88088" lon="7.51483">
        <ele>374</ele>
        <time>2021-02-20T14:22:16.000Z</time>
      </trkpt>
      <trkpt lat="43.88092" lon="7.51468">
        <ele>375</ele>
        <time>2021-02-20T14:22:21.000Z</time>
      </trkpt>
      <trkpt lat="43.88093" lon="7.51462">
        <ele>376</ele>
        <time>2021-02-20T14:22:23.000Z</time>
      </trkpt>
      <trkpt lat="43.88093" lon="7.5146">
        <ele>376.39999389648</ele>
        <time>2021-02-20T14:22:24.000Z</time>
      </trkpt>
      <trkpt lat="43.88095" lon="7.51451">
        <ele>377.60000610352</ele>
        <time>2021-02-20T14:22:27.000Z</time>
      </trkpt>
      <trkpt lat="43.88096" lon="7.51449">
        <ele>377.79998779297</ele>
        <time>2021-02-20T14:22:28.000Z</time>
      </trkpt>
      <trkpt lat="43.88099" lon="7.51446">
        <ele>378.60000610352</ele>
        <time>2021-02-20T14:22:30.000Z</time>
      </trkpt>
      <trkpt lat="43.88103" lon="7.51444">
        <ele>380</ele>
        <time>2021-02-20T14:22:32.000Z</time>
      </trkpt>
      <trkpt lat="43.88105" lon="7.51444">
        <ele>380.39999389648</ele>
        <time>2021-02-20T14:22:33.000Z</time>
      </trkpt>
      <trkpt lat="43.88108" lon="7.51443">
        <ele>381.20001220703</ele>
        <time>2021-02-20T14:22:35.000Z</time>
      </trkpt>
      <trkpt lat="43.88113" lon="7.51438">
        <ele>382.39999389648</ele>
        <time>2021-02-20T14:22:38.000Z</time>
      </trkpt>
      <trkpt lat="43.88114" lon="7.51436">
        <ele>382.79998779297</ele>
        <time>2021-02-20T14:22:39.000Z</time>
      </trkpt>
      <trkpt lat="43.88116" lon="7.51432">
        <ele>383.60000610352</ele>
        <time>2021-02-20T14:22:41.000Z</time>
      </trkpt>
      <trkpt lat="43.8812" lon="7.51428">
        <ele>385.20001220703</ele>
        <time>2021-02-20T14:22:44.000Z</time>
      </trkpt>
      <trkpt lat="43.88122" lon="7.51426">
        <ele>386.20001220703</ele>
        <time>2021-02-20T14:22:46.000Z</time>
      </trkpt>
      <trkpt lat="43.88125" lon="7.51421">
        <ele>387.60000610352</ele>
        <time>2021-02-20T14:22:49.000Z</time>
      </trkpt>
      <trkpt lat="43.88126" lon="7.51419">
        <ele>388</ele>
        <time>2021-02-20T14:22:50.000Z</time>
      </trkpt>
      <trkpt lat="43.88128" lon="7.51415">
        <ele>388.79998779297</ele>
        <time>2021-02-20T14:22:52.000Z</time>
      </trkpt>
      <trkpt lat="43.88131" lon="7.5141">
        <ele>390.20001220703</ele>
        <time>2021-02-20T14:22:55.000Z</time>
      </trkpt>
      <trkpt lat="43.88133" lon="7.51408">
        <ele>390.39999389648</ele>
        <time>2021-02-20T14:22:56.000Z</time>
      </trkpt>
      <trkpt lat="43.88135" lon="7.51405">
        <ele>391.39999389648</ele>
        <time>2021-02-20T14:22:58.000Z</time>
      </trkpt>
      <trkpt lat="43.88139" lon="7.51402">
        <ele>392.79998779297</ele>
        <time>2021-02-20T14:23:01.000Z</time>
      </trkpt>
      <trkpt lat="43.88142" lon="7.51397">
        <ele>394</ele>
        <time>2021-02-20T14:23:04.000Z</time>
      </trkpt>
      <trkpt lat="43.88145" lon="7.51394">
        <ele>395.20001220703</ele>
        <time>2021-02-20T14:23:06.000Z</time>
      </trkpt>
      <trkpt lat="43.88144" lon="7.51395">
        <ele>396.39999389648</ele>
        <time>2021-02-20T14:23:08.000Z</time>
      </trkpt>
      <trkpt lat="43.88144" lon="7.51395">
        <ele>397</ele>
        <time>2021-02-20T14:23:10.000Z</time>
      </trkpt>
      <trkpt lat="43.88144" lon="7.51395">
        <ele>396.60000610352</ele>
        <time>2021-02-20T14:23:15.000Z</time>
      </trkpt>
      <trkpt lat="43.88144" lon="7.51393">
        <ele>397.20001220703</ele>
        <time>2021-02-20T14:23:22.000Z</time>
      </trkpt>
      <trkpt lat="43.88145" lon="7.51392">
        <ele>397.60000610352</ele>
        <time>2021-02-20T14:23:24.000Z</time>
      </trkpt>
      <trkpt lat="43.88146" lon="7.5139">
        <ele>398.60000610352</ele>
        <time>2021-02-20T14:23:29.000Z</time>
      </trkpt>
      <trkpt lat="43.88146" lon="7.5139">
        <ele>398.79998779297</ele>
        <time>2021-02-20T14:23:31.000Z</time>
      </trkpt>
      <trkpt lat="43.88151" lon="7.51387">
        <ele>398.79998779297</ele>
        <time>2021-02-20T14:23:39.000Z</time>
      </trkpt>
      <trkpt lat="43.88154" lon="7.51382">
        <ele>399.79998779297</ele>
        <time>2021-02-20T14:23:42.000Z</time>
      </trkpt>
      <trkpt lat="43.88155" lon="7.51377">
        <ele>401.20001220703</ele>
        <time>2021-02-20T14:23:44.000Z</time>
      </trkpt>
      <trkpt lat="43.88157" lon="7.51374">
        <ele>401.79998779297</ele>
        <time>2021-02-20T14:23:45.000Z</time>
      </trkpt>
      <trkpt lat="43.88158" lon="7.51372">
        <ele>402.39999389648</ele>
        <time>2021-02-20T14:23:46.000Z</time>
      </trkpt>
      <trkpt lat="43.88162" lon="7.51366">
        <ele>403.60000610352</ele>
        <time>2021-02-20T14:23:49.000Z</time>
      </trkpt>
      <trkpt lat="43.88167" lon="7.51363">
        <ele>404</ele>
        <time>2021-02-20T14:23:51.000Z</time>
      </trkpt>
      <trkpt lat="43.88179" lon="7.51356">
        <ele>404.39999389648</ele>
        <time>2021-02-20T14:23:56.000Z</time>
      </trkpt>
      <trkpt lat="43.88199" lon="7.51348">
        <ele>403.60000610352</ele>
        <time>2021-02-20T14:24:02.000Z</time>
      </trkpt>
      <trkpt lat="43.88203" lon="7.51345">
        <ele>403.20001220703</ele>
        <time>2021-02-20T14:24:03.000Z</time>
      </trkpt>
      <trkpt lat="43.88214" lon="7.51331">
        <ele>402.39999389648</ele>
        <time>2021-02-20T14:24:06.000Z</time>
      </trkpt>
      <trkpt lat="43.88217" lon="7.5132">
        <ele>402</ele>
        <time>2021-02-20T14:24:09.000Z</time>
      </trkpt>
      <trkpt lat="43.88218" lon="7.51316">
        <ele>402.39999389648</ele>
        <time>2021-02-20T14:24:10.000Z</time>
      </trkpt>
      <trkpt lat="43.88224" lon="7.51308">
        <ele>403.60000610352</ele>
        <time>2021-02-20T14:24:14.000Z</time>
      </trkpt>
      <trkpt lat="43.8823" lon="7.51297">
        <ele>404.60000610352</ele>
        <time>2021-02-20T14:24:16.000Z</time>
      </trkpt>
      <trkpt lat="43.88233" lon="7.51293">
        <ele>405</ele>
        <time>2021-02-20T14:24:17.000Z</time>
      </trkpt>
      <trkpt lat="43.88245" lon="7.51277">
        <ele>405</ele>
        <time>2021-02-20T14:24:21.000Z</time>
      </trkpt>
      <trkpt lat="43.88249" lon="7.51274">
        <ele>405</ele>
        <time>2021-02-20T14:24:22.000Z</time>
      </trkpt>
      <trkpt lat="43.88262" lon="7.51267">
        <ele>404</ele>
        <time>2021-02-20T14:24:25.000Z</time>
      </trkpt>
      <trkpt lat="43.88266" lon="7.51263">
        <ele>403.39999389648</ele>
        <time>2021-02-20T14:24:26.000Z</time>
      </trkpt>
      <trkpt lat="43.88268" lon="7.51257">
        <ele>402.60000610352</ele>
        <time>2021-02-20T14:24:27.000Z</time>
      </trkpt>
      <trkpt lat="43.88268" lon="7.51251">
        <ele>401.60000610352</ele>
        <time>2021-02-20T14:24:28.000Z</time>
      </trkpt>
      <trkpt lat="43.88267" lon="7.51242">
        <ele>401</ele>
        <time>2021-02-20T14:24:29.000Z</time>
      </trkpt>
      <trkpt lat="43.88266" lon="7.51223">
        <ele>398.79998779297</ele>
        <time>2021-02-20T14:24:31.000Z</time>
      </trkpt>
      <trkpt lat="43.88264" lon="7.51213">
        <ele>397.60000610352</ele>
        <time>2021-02-20T14:24:32.000Z</time>
      </trkpt>
      <trkpt lat="43.88264" lon="7.51203">
        <ele>396.39999389648</ele>
        <time>2021-02-20T14:24:33.000Z</time>
      </trkpt>
      <trkpt lat="43.88266" lon="7.51196">
        <ele>395.20001220703</ele>
        <time>2021-02-20T14:24:34.000Z</time>
      </trkpt>
      <trkpt lat="43.88272" lon="7.51185">
        <ele>393.79998779297</ele>
        <time>2021-02-20T14:24:36.000Z</time>
      </trkpt>
      <trkpt lat="43.88274" lon="7.51184">
        <ele>393.60000610352</ele>
        <time>2021-02-20T14:24:37.000Z</time>
      </trkpt>
      <trkpt lat="43.88275" lon="7.51183">
        <ele>394</ele>
        <time>2021-02-20T14:24:38.000Z</time>
      </trkpt>
      <trkpt lat="43.88278" lon="7.5118">
        <ele>394.20001220703</ele>
        <time>2021-02-20T14:24:40.000Z</time>
      </trkpt>
      <trkpt lat="43.88286" lon="7.51166">
        <ele>394.39999389648</ele>
        <time>2021-02-20T14:24:44.000Z</time>
      </trkpt>
      <trkpt lat="43.88288" lon="7.5115">
        <ele>394.60000610352</ele>
        <time>2021-02-20T14:24:48.000Z</time>
      </trkpt>
      <trkpt lat="43.88284" lon="7.51135">
        <ele>394.39999389648</ele>
        <time>2021-02-20T14:24:54.000Z</time>
      </trkpt>
      <trkpt lat="43.88284" lon="7.51133">
        <ele>394.39999389648</ele>
        <time>2021-02-20T14:24:55.000Z</time>
      </trkpt>
      <trkpt lat="43.88284" lon="7.51133">
        <ele>395</ele>
        <time>2021-02-20T14:24:57.000Z</time>
      </trkpt>
      <trkpt lat="43.88285" lon="7.51133">
        <ele>395.20001220703</ele>
        <time>2021-02-20T14:24:58.000Z</time>
      </trkpt>
      <trkpt lat="43.88285" lon="7.5113">
        <ele>395.60000610352</ele>
        <time>2021-02-20T14:25:01.000Z</time>
      </trkpt>
      <trkpt lat="43.88286" lon="7.51127">
        <ele>396</ele>
        <time>2021-02-20T14:25:03.000Z</time>
      </trkpt>
      <trkpt lat="43.88288" lon="7.51123">
        <ele>396.79998779297</ele>
        <time>2021-02-20T14:25:07.000Z</time>
      </trkpt>
      <trkpt lat="43.88288" lon="7.51121">
        <ele>397</ele>
        <time>2021-02-20T14:25:08.000Z</time>
      </trkpt>
      <trkpt lat="43.88287" lon="7.51114">
        <ele>398</ele>
        <time>2021-02-20T14:25:12.000Z</time>
      </trkpt>
      <trkpt lat="43.88278" lon="7.51116">
        <ele>399</ele>
        <time>2021-02-20T14:25:16.000Z</time>
      </trkpt>
      <trkpt lat="43.8827" lon="7.51118">
        <ele>399.79998779297</ele>
        <time>2021-02-20T14:25:19.000Z</time>
      </trkpt>
      <trkpt lat="43.88267" lon="7.51119">
        <ele>400</ele>
        <time>2021-02-20T14:25:20.000Z</time>
      </trkpt>
      <trkpt lat="43.88258" lon="7.51121">
        <ele>399.79998779297</ele>
        <time>2021-02-20T14:25:22.000Z</time>
      </trkpt>
      <trkpt lat="43.88254" lon="7.51121">
        <ele>399.60000610352</ele>
        <time>2021-02-20T14:25:23.000Z</time>
      </trkpt>
      <trkpt lat="43.88241" lon="7.5112">
        <ele>398.79998779297</ele>
        <time>2021-02-20T14:25:26.000Z</time>
      </trkpt>
      <trkpt lat="43.88233" lon="7.51119">
        <ele>398</ele>
        <time>2021-02-20T14:25:28.000Z</time>
      </trkpt>
      <trkpt lat="43.88229" lon="7.51119">
        <ele>397.79998779297</ele>
        <time>2021-02-20T14:25:29.000Z</time>
      </trkpt>
      <trkpt lat="43.88225" lon="7.51118">
        <ele>397.79998779297</ele>
        <time>2021-02-20T14:25:30.000Z</time>
      </trkpt>
      <trkpt lat="43.88216" lon="7.51116">
        <ele>397.79998779297</ele>
        <time>2021-02-20T14:25:32.000Z</time>
      </trkpt>
      <trkpt lat="43.882" lon="7.51106">
        <ele>398.60000610352</ele>
        <time>2021-02-20T14:25:37.000Z</time>
      </trkpt>
      <trkpt lat="43.882" lon="7.51103">
        <ele>399.20001220703</ele>
        <time>2021-02-20T14:25:38.000Z</time>
      </trkpt>
      <trkpt lat="43.88199" lon="7.51098">
        <ele>400.20001220703</ele>
        <time>2021-02-20T14:25:40.000Z</time>
      </trkpt>
      <trkpt lat="43.88199" lon="7.51094">
        <ele>401</ele>
        <time>2021-02-20T14:25:41.000Z</time>
      </trkpt>
      <trkpt lat="43.88198" lon="7.5109">
        <ele>401.60000610352</ele>
        <time>2021-02-20T14:25:42.000Z</time>
      </trkpt>
      <trkpt lat="43.88199" lon="7.51082">
        <ele>402.60000610352</ele>
        <time>2021-02-20T14:25:44.000Z</time>
      </trkpt>
      <trkpt lat="43.88201" lon="7.51078">
        <ele>403.20001220703</ele>
        <time>2021-02-20T14:25:45.000Z</time>
      </trkpt>
      <trkpt lat="43.88208" lon="7.51059">
        <ele>404.20001220703</ele>
        <time>2021-02-20T14:25:49.000Z</time>
      </trkpt>
      <trkpt lat="43.8821" lon="7.51055">
        <ele>404.20001220703</ele>
        <time>2021-02-20T14:25:50.000Z</time>
      </trkpt>
      <trkpt lat="43.88214" lon="7.51044">
        <ele>404.20001220703</ele>
        <time>2021-02-20T14:25:52.000Z</time>
      </trkpt>
      <trkpt lat="43.88214" lon="7.51038">
        <ele>404.20001220703</ele>
        <time>2021-02-20T14:25:53.000Z</time>
      </trkpt>
      <trkpt lat="43.88213" lon="7.51028">
        <ele>404.39999389648</ele>
        <time>2021-02-20T14:25:55.000Z</time>
      </trkpt>
      <trkpt lat="43.88208" lon="7.51021">
        <ele>405.20001220703</ele>
        <time>2021-02-20T14:25:58.000Z</time>
      </trkpt>
      <trkpt lat="43.88207" lon="7.5102">
        <ele>405.60000610352</ele>
        <time>2021-02-20T14:25:59.000Z</time>
      </trkpt>
      <trkpt lat="43.88206" lon="7.51013">
        <ele>407</ele>
        <time>2021-02-20T14:26:02.000Z</time>
      </trkpt>
      <trkpt lat="43.88209" lon="7.51011">
        <ele>408.20001220703</ele>
        <time>2021-02-20T14:26:04.000Z</time>
      </trkpt>
      <trkpt lat="43.88209" lon="7.5101">
        <ele>409.20001220703</ele>
        <time>2021-02-20T14:26:06.000Z</time>
      </trkpt>
      <trkpt lat="43.88209" lon="7.5101">
        <ele>410.39999389648</ele>
        <time>2021-02-20T14:26:09.000Z</time>
      </trkpt>
      <trkpt lat="43.88209" lon="7.5101">
        <ele>410.79998779297</ele>
        <time>2021-02-20T14:26:15.000Z</time>
      </trkpt>
      <trkpt lat="43.8821" lon="7.51008">
        <ele>411.60000610352</ele>
        <time>2021-02-20T14:26:24.000Z</time>
      </trkpt>
      <trkpt lat="43.88209" lon="7.51006">
        <ele>412</ele>
        <time>2021-02-20T14:26:30.000Z</time>
      </trkpt>
      <trkpt lat="43.88207" lon="7.51005">
        <ele>412.60000610352</ele>
        <time>2021-02-20T14:26:34.000Z</time>
      </trkpt>
      <trkpt lat="43.88206" lon="7.51004">
        <ele>413.20001220703</ele>
        <time>2021-02-20T14:26:38.000Z</time>
      </trkpt>
      <trkpt lat="43.88206" lon="7.51006">
        <ele>412.79998779297</ele>
        <time>2021-02-20T14:26:47.000Z</time>
      </trkpt>
      <trkpt lat="43.88204" lon="7.51004">
        <ele>412.39999389648</ele>
        <time>2021-02-20T14:26:54.000Z</time>
      </trkpt>
      <trkpt lat="43.88201" lon="7.51001">
        <ele>412.60000610352</ele>
        <time>2021-02-20T14:27:00.000Z</time>
      </trkpt>
      <trkpt lat="43.88201" lon="7.51">
        <ele>413</ele>
        <time>2021-02-20T14:27:05.000Z</time>
      </trkpt>
      <trkpt lat="43.88199" lon="7.51001">
        <ele>413.39999389648</ele>
        <time>2021-02-20T14:27:10.000Z</time>
      </trkpt>
      <trkpt lat="43.882" lon="7.51">
        <ele>413</ele>
        <time>2021-02-20T14:27:14.000Z</time>
      </trkpt>
      <trkpt lat="43.882" lon="7.51">
        <ele>412.60000610352</ele>
        <time>2021-02-20T14:27:25.000Z</time>
      </trkpt>
      <trkpt lat="43.88202" lon="7.51002">
        <ele>412.60000610352</ele>
        <time>2021-02-20T14:27:36.000Z</time>
      </trkpt>
      <trkpt lat="43.88204" lon="7.51002">
        <ele>412.60000610352</ele>
        <time>2021-02-20T14:27:43.000Z</time>
      </trkpt>
      <trkpt lat="43.88206" lon="7.51003">
        <ele>412.39999389648</ele>
        <time>2021-02-20T14:27:51.000Z</time>
      </trkpt>
      <trkpt lat="43.88208" lon="7.51003">
        <ele>412.60000610352</ele>
        <time>2021-02-20T14:27:59.000Z</time>
      </trkpt>
      <trkpt lat="43.8821" lon="7.51005">
        <ele>412.79998779297</ele>
        <time>2021-02-20T14:28:11.000Z</time>
      </trkpt>
      <trkpt lat="43.8821" lon="7.51006">
        <ele>413.20001220703</ele>
        <time>2021-02-20T14:28:20.000Z</time>
      </trkpt>
      <trkpt lat="43.8821" lon="7.51007">
        <ele>413.39999389648</ele>
        <time>2021-02-20T14:28:39.000Z</time>
      </trkpt>
      <trkpt lat="43.88209" lon="7.51007">
        <ele>412.79998779297</ele>
        <time>2021-02-20T14:28:49.000Z</time>
      </trkpt>
      <trkpt lat="43.88209" lon="7.51008">
        <ele>412.79998779297</ele>
        <time>2021-02-20T14:28:50.000Z</time>
      </trkpt>
      <trkpt lat="43.88209" lon="7.51008">
        <ele>412.79998779297</ele>
        <time>2021-02-20T14:28:53.000Z</time>
      </trkpt>
      <trkpt lat="43.8821" lon="7.51009">
        <ele>413</ele>
        <time>2021-02-20T14:28:59.000Z</time>
      </trkpt>
      <trkpt lat="43.8821" lon="7.51009">
        <ele>412.79998779297</ele>
        <time>2021-02-20T14:29:04.000Z</time>
      </trkpt>
      <trkpt lat="43.8821" lon="7.51008">
        <ele>412.60000610352</ele>
        <time>2021-02-20T14:29:10.000Z</time>
      </trkpt>
      <trkpt lat="43.88209" lon="7.51008">
        <ele>412.79998779297</ele>
        <time>2021-02-20T14:29:21.000Z</time>
      </trkpt>
      <trkpt lat="43.88207" lon="7.51007">
        <ele>412.79998779297</ele>
        <time>2021-02-20T14:29:36.000Z</time>
      </trkpt>
      <trkpt lat="43.88206" lon="7.51006">
        <ele>412.60000610352</ele>
        <time>2021-02-20T14:29:42.000Z</time>
      </trkpt>
      <trkpt lat="43.88206" lon="7.51006">
        <ele>412.60000610352</ele>
        <time>2021-02-20T14:29:53.000Z</time>
      </trkpt>
      <trkpt lat="43.88206" lon="7.51005">
        <ele>412.60000610352</ele>
        <time>2021-02-20T14:29:59.000Z</time>
      </trkpt>
      <trkpt lat="43.88206" lon="7.51005">
        <ele>412.20001220703</ele>
        <time>2021-02-20T14:30:11.000Z</time>
      </trkpt>
      <trkpt lat="43.88206" lon="7.51006">
        <ele>412.39999389648</ele>
        <time>2021-02-20T14:30:17.000Z</time>
      </trkpt>
      <trkpt lat="43.88206" lon="7.51007">
        <ele>412.39999389648</ele>
        <time>2021-02-20T14:30:29.000Z</time>
      </trkpt>
      <trkpt lat="43.88205" lon="7.51007">
        <ele>412.20001220703</ele>
        <time>2021-02-20T14:30:35.000Z</time>
      </trkpt>
      <trkpt lat="43.88205" lon="7.51005">
        <ele>412.60000610352</ele>
        <time>2021-02-20T14:30:46.000Z</time>
      </trkpt>
      <trkpt lat="43.88202" lon="7.51006">
        <ele>412.60000610352</ele>
        <time>2021-02-20T14:30:56.000Z</time>
      </trkpt>
      <trkpt lat="43.88201" lon="7.51004">
        <ele>412.39999389648</ele>
        <time>2021-02-20T14:30:58.000Z</time>
      </trkpt>
      <trkpt lat="43.88202" lon="7.51003">
        <ele>412.39999389648</ele>
        <time>2021-02-20T14:31:02.000Z</time>
      </trkpt>
      <trkpt lat="43.88201" lon="7.51003">
        <ele>412.39999389648</ele>
        <time>2021-02-20T14:31:09.000Z</time>
      </trkpt>
      <trkpt lat="43.88202" lon="7.51003">
        <ele>412.60000610352</ele>
        <time>2021-02-20T14:31:17.000Z</time>
      </trkpt>
      <trkpt lat="43.88202" lon="7.51003">
        <ele>412.60000610352</ele>
        <time>2021-02-20T14:31:24.000Z</time>
      </trkpt>
      <trkpt lat="43.88202" lon="7.51002">
        <ele>412.79998779297</ele>
        <time>2021-02-20T14:31:33.000Z</time>
      </trkpt>
      <trkpt lat="43.88202" lon="7.51002">
        <ele>412.20001220703</ele>
        <time>2021-02-20T14:31:43.000Z</time>
      </trkpt>
      <trkpt lat="43.88204" lon="7.51004">
        <ele>412.39999389648</ele>
        <time>2021-02-20T14:31:57.000Z</time>
      </trkpt>
      <trkpt lat="43.88205" lon="7.51007">
        <ele>412.39999389648</ele>
        <time>2021-02-20T14:32:03.000Z</time>
      </trkpt>
      <trkpt lat="43.88206" lon="7.51007">
        <ele>413</ele>
        <time>2021-02-20T14:32:20.000Z</time>
      </trkpt>
      <trkpt lat="43.88209" lon="7.51006">
        <ele>413</ele>
        <time>2021-02-20T14:32:28.000Z</time>
      </trkpt>
      <trkpt lat="43.8821" lon="7.51007">
        <ele>412.79998779297</ele>
        <time>2021-02-20T14:32:35.000Z</time>
      </trkpt>
      <trkpt lat="43.88209" lon="7.51007">
        <ele>412.79998779297</ele>
        <time>2021-02-20T14:32:48.000Z</time>
      </trkpt>
      <trkpt lat="43.88209" lon="7.51007">
        <ele>413</ele>
        <time>2021-02-20T14:32:54.000Z</time>
      </trkpt>
      <trkpt lat="43.88208" lon="7.51007">
        <ele>413</ele>
        <time>2021-02-20T14:33:09.000Z</time>
      </trkpt>
      <trkpt lat="43.88208" lon="7.51007">
        <ele>413</ele>
        <time>2021-02-20T14:33:22.000Z</time>
      </trkpt>
      <trkpt lat="43.88209" lon="7.51007">
        <ele>412.79998779297</ele>
        <time>2021-02-20T14:33:27.000Z</time>
      </trkpt>
      <trkpt lat="43.88208" lon="7.5101">
        <ele>413</ele>
        <time>2021-02-20T14:33:45.000Z</time>
      </trkpt>
      <trkpt lat="43.88207" lon="7.5101">
        <ele>413</ele>
        <time>2021-02-20T14:34:10.000Z</time>
      </trkpt>
      <trkpt lat="43.88206" lon="7.51013">
        <ele>413</ele>
        <time>2021-02-20T14:34:25.000Z</time>
      </trkpt>
      <trkpt lat="43.88206" lon="7.51013">
        <ele>412.79998779297</ele>
        <time>2021-02-20T14:34:37.000Z</time>
      </trkpt>
      <trkpt lat="43.88206" lon="7.51013">
        <ele>412.79998779297</ele>
        <time>2021-02-20T14:34:49.000Z</time>
      </trkpt>
      <trkpt lat="43.88207" lon="7.51012">
        <ele>413</ele>
        <time>2021-02-20T14:35:01.000Z</time>
      </trkpt>
      <trkpt lat="43.88208" lon="7.51011">
        <ele>413</ele>
        <time>2021-02-20T14:35:21.000Z</time>
      </trkpt>
      <trkpt lat="43.88208" lon="7.5101">
        <ele>412.79998779297</ele>
        <time>2021-02-20T14:35:40.000Z</time>
      </trkpt>
      <trkpt lat="43.88209" lon="7.51011">
        <ele>412.79998779297</ele>
        <time>2021-02-20T14:35:55.000Z</time>
      </trkpt>
      <trkpt lat="43.88211" lon="7.51014">
        <ele>412.79998779297</ele>
        <time>2021-02-20T14:36:02.000Z</time>
      </trkpt>
      <trkpt lat="43.88213" lon="7.51015">
        <ele>413</ele>
        <time>2021-02-20T14:36:10.000Z</time>
      </trkpt>
      <trkpt lat="43.88213" lon="7.51015">
        <ele>413</ele>
        <time>2021-02-20T14:36:31.000Z</time>
      </trkpt>
      <trkpt lat="43.88213" lon="7.51015">
        <ele>412.60000610352</ele>
        <time>2021-02-20T14:36:43.000Z</time>
      </trkpt>
      <trkpt lat="43.88213" lon="7.51015">
        <ele>412.79998779297</ele>
        <time>2021-02-20T14:36:54.000Z</time>
      </trkpt>
      <trkpt lat="43.88213" lon="7.51014">
        <ele>413</ele>
        <time>2021-02-20T14:37:12.000Z</time>
      </trkpt>
      <trkpt lat="43.88214" lon="7.51013">
        <ele>413</ele>
        <time>2021-02-20T14:37:21.000Z</time>
      </trkpt>
      <trkpt lat="43.88213" lon="7.51013">
        <ele>413</ele>
        <time>2021-02-20T14:37:42.000Z</time>
      </trkpt>
      <trkpt lat="43.88213" lon="7.51013">
        <ele>413</ele>
        <time>2021-02-20T14:37:57.000Z</time>
      </trkpt>
      <trkpt lat="43.88213" lon="7.51014">
        <ele>412.79998779297</ele>
        <time>2021-02-20T14:38:18.000Z</time>
      </trkpt>
      <trkpt lat="43.88212" lon="7.51013">
        <ele>413</ele>
        <time>2021-02-20T14:38:25.000Z</time>
      </trkpt>
      <trkpt lat="43.88212" lon="7.51013">
        <ele>412.79998779297</ele>
        <time>2021-02-20T14:38:42.000Z</time>
      </trkpt>
      <trkpt lat="43.88211" lon="7.51011">
        <ele>412.79998779297</ele>
        <time>2021-02-20T14:38:50.000Z</time>
      </trkpt>
      <trkpt lat="43.8821" lon="7.5101">
        <ele>412.79998779297</ele>
        <time>2021-02-20T14:38:51.000Z</time>
      </trkpt>
      <trkpt lat="43.88208" lon="7.51007">
        <ele>412.60000610352</ele>
        <time>2021-02-20T14:38:57.000Z</time>
      </trkpt>
      <trkpt lat="43.88208" lon="7.51007">
        <ele>412.79998779297</ele>
        <time>2021-02-20T14:39:06.000Z</time>
      </trkpt>
      <trkpt lat="43.88208" lon="7.51007">
        <ele>412.20001220703</ele>
        <time>2021-02-20T14:39:14.000Z</time>
      </trkpt>
      <trkpt lat="43.88207" lon="7.51007">
        <ele>412.20001220703</ele>
        <time>2021-02-20T14:39:22.000Z</time>
      </trkpt>
      <trkpt lat="43.88205" lon="7.51008">
        <ele>412.20001220703</ele>
        <time>2021-02-20T14:39:28.000Z</time>
      </trkpt>
      <trkpt lat="43.88204" lon="7.51007">
        <ele>412.20001220703</ele>
        <time>2021-02-20T14:39:35.000Z</time>
      </trkpt>
      <trkpt lat="43.88204" lon="7.51007">
        <ele>412.20001220703</ele>
        <time>2021-02-20T14:39:42.000Z</time>
      </trkpt>
      <trkpt lat="43.88204" lon="7.51007">
        <ele>412.39999389648</ele>
        <time>2021-02-20T14:39:54.000Z</time>
      </trkpt>
      <trkpt lat="43.88204" lon="7.51008">
        <ele>412.60000610352</ele>
        <time>2021-02-20T14:40:06.000Z</time>
      </trkpt>
      <trkpt lat="43.88205" lon="7.51008">
        <ele>412.79998779297</ele>
        <time>2021-02-20T14:40:14.000Z</time>
      </trkpt>
      <trkpt lat="43.88205" lon="7.51008">
        <ele>412.39999389648</ele>
        <time>2021-02-20T14:40:24.000Z</time>
      </trkpt>
      <trkpt lat="43.88204" lon="7.51007">
        <ele>412.39999389648</ele>
        <time>2021-02-20T14:40:35.000Z</time>
      </trkpt>
      <trkpt lat="43.88204" lon="7.51007">
        <ele>412.20001220703</ele>
        <time>2021-02-20T14:40:43.000Z</time>
      </trkpt>
      <trkpt lat="43.88205" lon="7.51006">
        <ele>412</ele>
        <time>2021-02-20T14:40:53.000Z</time>
      </trkpt>
      <trkpt lat="43.88206" lon="7.51007">
        <ele>412</ele>
        <time>2021-02-20T14:41:05.000Z</time>
      </trkpt>
      <trkpt lat="43.88206" lon="7.51007">
        <ele>412.20001220703</ele>
        <time>2021-02-20T14:41:14.000Z</time>
      </trkpt>
      <trkpt lat="43.88206" lon="7.51006">
        <ele>412</ele>
        <time>2021-02-20T14:41:27.000Z</time>
      </trkpt>
      <trkpt lat="43.88205" lon="7.51006">
        <ele>412.20001220703</ele>
        <time>2021-02-20T14:41:32.000Z</time>
      </trkpt>
      <trkpt lat="43.88205" lon="7.51005">
        <ele>412.60000610352</ele>
        <time>2021-02-20T14:41:37.000Z</time>
      </trkpt>
      <trkpt lat="43.88205" lon="7.51004">
        <ele>412.79998779297</ele>
        <time>2021-02-20T14:41:38.000Z</time>
      </trkpt>
      <trkpt lat="43.88205" lon="7.50997">
        <ele>412.79998779297</ele>
        <time>2021-02-20T14:41:41.000Z</time>
      </trkpt>
      <trkpt lat="43.88208" lon="7.50982">
        <ele>412</ele>
        <time>2021-02-20T14:41:47.000Z</time>
      </trkpt>
      <trkpt lat="43.88209" lon="7.5098">
        <ele>411.79998779297</ele>
        <time>2021-02-20T14:41:48.000Z</time>
      </trkpt>
      <trkpt lat="43.88212" lon="7.50972">
        <ele>411.39999389648</ele>
        <time>2021-02-20T14:41:50.000Z</time>
      </trkpt>
      <trkpt lat="43.88215" lon="7.50967">
        <ele>411</ele>
        <time>2021-02-20T14:41:52.000Z</time>
      </trkpt>
      <trkpt lat="43.88215" lon="7.50967">
        <ele>411.20001220703</ele>
        <time>2021-02-20T14:41:56.000Z</time>
      </trkpt>
      <trkpt lat="43.88222" lon="7.50963">
        <ele>411.60000610352</ele>
        <time>2021-02-20T14:42:02.000Z</time>
      </trkpt>
      <trkpt lat="43.88232" lon="7.5096">
        <ele>412.20001220703</ele>
        <time>2021-02-20T14:42:07.000Z</time>
      </trkpt>
      <trkpt lat="43.88233" lon="7.5096">
        <ele>412.60000610352</ele>
        <time>2021-02-20T14:42:08.000Z</time>
      </trkpt>
      <trkpt lat="43.88235" lon="7.50958">
        <ele>413.20001220703</ele>
        <time>2021-02-20T14:42:09.000Z</time>
      </trkpt>
      <trkpt lat="43.88238" lon="7.50955">
        <ele>414</ele>
        <time>2021-02-20T14:42:10.000Z</time>
      </trkpt>
      <trkpt lat="43.8824" lon="7.50953">
        <ele>414.39999389648</ele>
        <time>2021-02-20T14:42:11.000Z</time>
      </trkpt>
      <trkpt lat="43.8825" lon="7.50942">
        <ele>413.60000610352</ele>
        <time>2021-02-20T14:42:15.000Z</time>
      </trkpt>
      <trkpt lat="43.88253" lon="7.5094">
        <ele>413.20001220703</ele>
        <time>2021-02-20T14:42:16.000Z</time>
      </trkpt>
      <trkpt lat="43.88256" lon="7.50936">
        <ele>412.79998779297</ele>
        <time>2021-02-20T14:42:18.000Z</time>
      </trkpt>
      <trkpt lat="43.88256" lon="7.50932">
        <ele>412.20001220703</ele>
        <time>2021-02-20T14:42:20.000Z</time>
      </trkpt>
      <trkpt lat="43.88255" lon="7.50928">
        <ele>411.60000610352</ele>
        <time>2021-02-20T14:42:21.000Z</time>
      </trkpt>
      <trkpt lat="43.88255" lon="7.50925">
        <ele>409.79998779297</ele>
        <time>2021-02-20T14:42:23.000Z</time>
      </trkpt>
      <trkpt lat="43.88255" lon="7.50921">
        <ele>408.79998779297</ele>
        <time>2021-02-20T14:42:24.000Z</time>
      </trkpt>
      <trkpt lat="43.88255" lon="7.50919">
        <ele>407.79998779297</ele>
        <time>2021-02-20T14:42:25.000Z</time>
      </trkpt>
      <trkpt lat="43.88256" lon="7.50915">
        <ele>406.79998779297</ele>
        <time>2021-02-20T14:42:26.000Z</time>
      </trkpt>
      <trkpt lat="43.88256" lon="7.5091">
        <ele>405.60000610352</ele>
        <time>2021-02-20T14:42:27.000Z</time>
      </trkpt>
      <trkpt lat="43.88255" lon="7.50907">
        <ele>404.60000610352</ele>
        <time>2021-02-20T14:42:28.000Z</time>
      </trkpt>
      <trkpt lat="43.88255" lon="7.50905">
        <ele>403.20001220703</ele>
        <time>2021-02-20T14:42:29.000Z</time>
      </trkpt>
      <trkpt lat="43.88253" lon="7.50902">
        <ele>401.60000610352</ele>
        <time>2021-02-20T14:42:31.000Z</time>
      </trkpt>
      <trkpt lat="43.88252" lon="7.50902">
        <ele>401.20001220703</ele>
        <time>2021-02-20T14:42:32.000Z</time>
      </trkpt>
      <trkpt lat="43.88251" lon="7.50902">
        <ele>400.39999389648</ele>
        <time>2021-02-20T14:42:33.000Z</time>
      </trkpt>
      <trkpt lat="43.88246" lon="7.50898">
        <ele>399.60000610352</ele>
        <time>2021-02-20T14:42:36.000Z</time>
      </trkpt>
      <trkpt lat="43.88247" lon="7.50894">
        <ele>399.20001220703</ele>
        <time>2021-02-20T14:42:37.000Z</time>
      </trkpt>
      <trkpt lat="43.8825" lon="7.50889">
        <ele>398.20001220703</ele>
        <time>2021-02-20T14:42:39.000Z</time>
      </trkpt>
      <trkpt lat="43.8825" lon="7.50885">
        <ele>397.60000610352</ele>
        <time>2021-02-20T14:42:40.000Z</time>
      </trkpt>
      <trkpt lat="43.8825" lon="7.50876">
        <ele>396.20001220703</ele>
        <time>2021-02-20T14:42:42.000Z</time>
      </trkpt>
      <trkpt lat="43.88249" lon="7.50873">
        <ele>395.60000610352</ele>
        <time>2021-02-20T14:42:43.000Z</time>
      </trkpt>
      <trkpt lat="43.88249" lon="7.50871">
        <ele>395</ele>
        <time>2021-02-20T14:42:44.000Z</time>
      </trkpt>
      <trkpt lat="43.88244" lon="7.50858">
        <ele>394.20001220703</ele>
        <time>2021-02-20T14:42:48.000Z</time>
      </trkpt>
      <trkpt lat="43.8823" lon="7.50838">
        <ele>395.60000610352</ele>
        <time>2021-02-20T14:42:55.000Z</time>
      </trkpt>
      <trkpt lat="43.88227" lon="7.5083">
        <ele>396.20001220703</ele>
        <time>2021-02-20T14:42:57.000Z</time>
      </trkpt>
      <trkpt lat="43.88227" lon="7.50819">
        <ele>397.39999389648</ele>
        <time>2021-02-20T14:43:00.000Z</time>
      </trkpt>
      <trkpt lat="43.88227" lon="7.50809">
        <ele>398.79998779297</ele>
        <time>2021-02-20T14:43:03.000Z</time>
      </trkpt>
      <trkpt lat="43.88229" lon="7.50801">
        <ele>399.60000610352</ele>
        <time>2021-02-20T14:43:06.000Z</time>
      </trkpt>
      <trkpt lat="43.8823" lon="7.50797">
        <ele>399.79998779297</ele>
        <time>2021-02-20T14:43:07.000Z</time>
      </trkpt>
      <trkpt lat="43.88233" lon="7.50782">
        <ele>399.79998779297</ele>
        <time>2021-02-20T14:43:10.000Z</time>
      </trkpt>
      <trkpt lat="43.88235" lon="7.50776">
        <ele>399.39999389648</ele>
        <time>2021-02-20T14:43:11.000Z</time>
      </trkpt>
      <trkpt lat="43.88238" lon="7.50765">
        <ele>398.39999389648</ele>
        <time>2021-02-20T14:43:13.000Z</time>
      </trkpt>
      <trkpt lat="43.88239" lon="7.50759">
        <ele>398.20001220703</ele>
        <time>2021-02-20T14:43:14.000Z</time>
      </trkpt>
      <trkpt lat="43.88239" lon="7.50753">
        <ele>397.79998779297</ele>
        <time>2021-02-20T14:43:15.000Z</time>
      </trkpt>
      <trkpt lat="43.8824" lon="7.50747">
        <ele>397.20001220703</ele>
        <time>2021-02-20T14:43:16.000Z</time>
      </trkpt>
      <trkpt lat="43.88245" lon="7.50739">
        <ele>396.20001220703</ele>
        <time>2021-02-20T14:43:18.000Z</time>
      </trkpt>
      <trkpt lat="43.88248" lon="7.50728">
        <ele>394.20001220703</ele>
        <time>2021-02-20T14:43:20.000Z</time>
      </trkpt>
      <trkpt lat="43.88251" lon="7.50721">
        <ele>393.20001220703</ele>
        <time>2021-02-20T14:43:21.000Z</time>
      </trkpt>
      <trkpt lat="43.88253" lon="7.50715">
        <ele>392.79998779297</ele>
        <time>2021-02-20T14:43:22.000Z</time>
      </trkpt>
      <trkpt lat="43.88258" lon="7.50704">
        <ele>391.39999389648</ele>
        <time>2021-02-20T14:43:24.000Z</time>
      </trkpt>
      <trkpt lat="43.88261" lon="7.50699">
        <ele>391.20001220703</ele>
        <time>2021-02-20T14:43:25.000Z</time>
      </trkpt>
      <trkpt lat="43.88268" lon="7.50692">
        <ele>391</ele>
        <time>2021-02-20T14:43:27.000Z</time>
      </trkpt>
      <trkpt lat="43.8828" lon="7.50681">
        <ele>390.39999389648</ele>
        <time>2021-02-20T14:43:30.000Z</time>
      </trkpt>
      <trkpt lat="43.88284" lon="7.50671">
        <ele>390</ele>
        <time>2021-02-20T14:43:32.000Z</time>
      </trkpt>
      <trkpt lat="43.88283" lon="7.50662">
        <ele>389.20001220703</ele>
        <time>2021-02-20T14:43:34.000Z</time>
      </trkpt>
      <trkpt lat="43.88283" lon="7.50658">
        <ele>389.20001220703</ele>
        <time>2021-02-20T14:43:35.000Z</time>
      </trkpt>
      <trkpt lat="43.88281" lon="7.50644">
        <ele>389.20001220703</ele>
        <time>2021-02-20T14:43:39.000Z</time>
      </trkpt>
      <trkpt lat="43.88279" lon="7.50642">
        <ele>389.20001220703</ele>
        <time>2021-02-20T14:43:40.000Z</time>
      </trkpt>
      <trkpt lat="43.88275" lon="7.50639">
        <ele>390.39999389648</ele>
        <time>2021-02-20T14:43:42.000Z</time>
      </trkpt>
      <trkpt lat="43.88263" lon="7.50629">
        <ele>391.39999389648</ele>
        <time>2021-02-20T14:43:47.000Z</time>
      </trkpt>
      <trkpt lat="43.88257" lon="7.50615">
        <ele>390.39999389648</ele>
        <time>2021-02-20T14:43:50.000Z</time>
      </trkpt>
      <trkpt lat="43.88257" lon="7.5061">
        <ele>390</ele>
        <time>2021-02-20T14:43:51.000Z</time>
      </trkpt>
      <trkpt lat="43.88256" lon="7.50598">
        <ele>389.20001220703</ele>
        <time>2021-02-20T14:43:53.000Z</time>
      </trkpt>
      <trkpt lat="43.88256" lon="7.5059">
        <ele>388.60000610352</ele>
        <time>2021-02-20T14:43:54.000Z</time>
      </trkpt>
      <trkpt lat="43.88257" lon="7.50582">
        <ele>387.39999389648</ele>
        <time>2021-02-20T14:43:55.000Z</time>
      </trkpt>
      <trkpt lat="43.88259" lon="7.50568">
        <ele>385.60000610352</ele>
        <time>2021-02-20T14:43:57.000Z</time>
      </trkpt>
      <trkpt lat="43.88262" lon="7.50564">
        <ele>385</ele>
        <time>2021-02-20T14:43:58.000Z</time>
      </trkpt>
      <trkpt lat="43.88265" lon="7.50561">
        <ele>384</ele>
        <time>2021-02-20T14:43:59.000Z</time>
      </trkpt>
      <trkpt lat="43.88273" lon="7.50557">
        <ele>383.60000610352</ele>
        <time>2021-02-20T14:44:01.000Z</time>
      </trkpt>
      <trkpt lat="43.88288" lon="7.50555">
        <ele>382.20001220703</ele>
        <time>2021-02-20T14:44:05.000Z</time>
      </trkpt>
      <trkpt lat="43.88298" lon="7.50547">
        <ele>381.20001220703</ele>
        <time>2021-02-20T14:44:07.000Z</time>
      </trkpt>
      <trkpt lat="43.88302" lon="7.50543">
        <ele>381</ele>
        <time>2021-02-20T14:44:08.000Z</time>
      </trkpt>
      <trkpt lat="43.88313" lon="7.50529">
        <ele>380</ele>
        <time>2021-02-20T14:44:11.000Z</time>
      </trkpt>
      <trkpt lat="43.88317" lon="7.50524">
        <ele>379.79998779297</ele>
        <time>2021-02-20T14:44:12.000Z</time>
      </trkpt>
      <trkpt lat="43.88321" lon="7.50521">
        <ele>379.39999389648</ele>
        <time>2021-02-20T14:44:13.000Z</time>
      </trkpt>
      <trkpt lat="43.88325" lon="7.50517">
        <ele>379.20001220703</ele>
        <time>2021-02-20T14:44:15.000Z</time>
      </trkpt>
      <trkpt lat="43.8834" lon="7.50502">
        <ele>379.20001220703</ele>
        <time>2021-02-20T14:44:21.000Z</time>
      </trkpt>
      <trkpt lat="43.88349" lon="7.50497">
        <ele>378.79998779297</ele>
        <time>2021-02-20T14:44:24.000Z</time>
      </trkpt>
      <trkpt lat="43.88352" lon="7.50497">
        <ele>378.60000610352</ele>
        <time>2021-02-20T14:44:25.000Z</time>
      </trkpt>
      <trkpt lat="43.88357" lon="7.50493">
        <ele>378.60000610352</ele>
        <time>2021-02-20T14:44:27.000Z</time>
      </trkpt>
      <trkpt lat="43.88362" lon="7.50489">
        <ele>378.39999389648</ele>
        <time>2021-02-20T14:44:29.000Z</time>
      </trkpt>
      <trkpt lat="43.88363" lon="7.50485">
        <ele>378.20001220703</ele>
        <time>2021-02-20T14:44:32.000Z</time>
      </trkpt>
      <trkpt lat="43.88363" lon="7.50482">
        <ele>378</ele>
        <time>2021-02-20T14:44:33.000Z</time>
      </trkpt>
      <trkpt lat="43.8836" lon="7.50479">
        <ele>378.60000610352</ele>
        <time>2021-02-20T14:44:38.000Z</time>
      </trkpt>
      <trkpt lat="43.88357" lon="7.5048">
        <ele>379</ele>
        <time>2021-02-20T14:44:40.000Z</time>
      </trkpt>
      <trkpt lat="43.88353" lon="7.50478">
        <ele>379</ele>
        <time>2021-02-20T14:44:42.000Z</time>
      </trkpt>
      <trkpt lat="43.88342" lon="7.50471">
        <ele>378.79998779297</ele>
        <time>2021-02-20T14:44:47.000Z</time>
      </trkpt>
      <trkpt lat="43.88324" lon="7.50462">
        <ele>378.39999389648</ele>
        <time>2021-02-20T14:44:52.000Z</time>
      </trkpt>
      <trkpt lat="43.8832" lon="7.5046">
        <ele>378</ele>
        <time>2021-02-20T14:44:53.000Z</time>
      </trkpt>
      <trkpt lat="43.88308" lon="7.50454">
        <ele>377.60000610352</ele>
        <time>2021-02-20T14:44:56.000Z</time>
      </trkpt>
      <trkpt lat="43.88304" lon="7.50449">
        <ele>377.20001220703</ele>
        <time>2021-02-20T14:44:58.000Z</time>
      </trkpt>
      <trkpt lat="43.88296" lon="7.50444">
        <ele>376.60000610352</ele>
        <time>2021-02-20T14:45:02.000Z</time>
      </trkpt>
      <trkpt lat="43.88287" lon="7.50435">
        <ele>376.60000610352</ele>
        <time>2021-02-20T14:45:06.000Z</time>
      </trkpt>
      <trkpt lat="43.88274" lon="7.50422">
        <ele>377</ele>
        <time>2021-02-20T14:45:12.000Z</time>
      </trkpt>
      <trkpt lat="43.8827" lon="7.5042">
        <ele>377.79998779297</ele>
        <time>2021-02-20T14:45:14.000Z</time>
      </trkpt>
      <trkpt lat="43.88266" lon="7.50415">
        <ele>379.20001220703</ele>
        <time>2021-02-20T14:45:17.000Z</time>
      </trkpt>
      <trkpt lat="43.88264" lon="7.50414">
        <ele>379.60000610352</ele>
        <time>2021-02-20T14:45:18.000Z</time>
      </trkpt>
      <trkpt lat="43.88261" lon="7.50412">
        <ele>380.39999389648</ele>
        <time>2021-02-20T14:45:20.000Z</time>
      </trkpt>
      <trkpt lat="43.88256" lon="7.50412">
        <ele>381.39999389648</ele>
        <time>2021-02-20T14:45:23.000Z</time>
      </trkpt>
      <trkpt lat="43.88254" lon="7.50412">
        <ele>382</ele>
        <time>2021-02-20T14:45:24.000Z</time>
      </trkpt>
      <trkpt lat="43.88253" lon="7.5041">
        <ele>382.79998779297</ele>
        <time>2021-02-20T14:45:25.000Z</time>
      </trkpt>
      <trkpt lat="43.88253" lon="7.5041">
        <ele>384</ele>
        <time>2021-02-20T14:45:27.000Z</time>
      </trkpt>
      <trkpt lat="43.88253" lon="7.5041">
        <ele>384.60000610352</ele>
        <time>2021-02-20T14:45:28.000Z</time>
      </trkpt>
      <trkpt lat="43.88254" lon="7.50408">
        <ele>384.79998779297</ele>
        <time>2021-02-20T14:45:29.000Z</time>
      </trkpt>
      <trkpt lat="43.88257" lon="7.50405">
        <ele>385.20001220703</ele>
        <time>2021-02-20T14:45:34.000Z</time>
      </trkpt>
      <trkpt lat="43.88259" lon="7.50401">
        <ele>386.39999389648</ele>
        <time>2021-02-20T14:45:39.000Z</time>
      </trkpt>
      <trkpt lat="43.88259" lon="7.50401">
        <ele>386.60000610352</ele>
        <time>2021-02-20T14:45:40.000Z</time>
      </trkpt>
      <trkpt lat="43.88265" lon="7.50397">
        <ele>387</ele>
        <time>2021-02-20T14:45:45.000Z</time>
      </trkpt>
      <trkpt lat="43.88265" lon="7.50395">
        <ele>387.39999389648</ele>
        <time>2021-02-20T14:45:47.000Z</time>
      </trkpt>
      <trkpt lat="43.88263" lon="7.50393">
        <ele>388</ele>
        <time>2021-02-20T14:45:49.000Z</time>
      </trkpt>
      <trkpt lat="43.8826" lon="7.50392">
        <ele>388.60000610352</ele>
        <time>2021-02-20T14:45:51.000Z</time>
      </trkpt>
      <trkpt lat="43.88256" lon="7.50395">
        <ele>389.60000610352</ele>
        <time>2021-02-20T14:45:54.000Z</time>
      </trkpt>
      <trkpt lat="43.88255" lon="7.50395">
        <ele>390.20001220703</ele>
        <time>2021-02-20T14:45:55.000Z</time>
      </trkpt>
      <trkpt lat="43.88256" lon="7.50395">
        <ele>391</ele>
        <time>2021-02-20T14:45:57.000Z</time>
      </trkpt>
      <trkpt lat="43.88255" lon="7.50396">
        <ele>391.79998779297</ele>
        <time>2021-02-20T14:45:59.000Z</time>
      </trkpt>
      <trkpt lat="43.88256" lon="7.50396">
        <ele>392</ele>
        <time>2021-02-20T14:46:00.000Z</time>
      </trkpt>
      <trkpt lat="43.88256" lon="7.50398">
        <ele>392</ele>
        <time>2021-02-20T14:46:02.000Z</time>
      </trkpt>
      <trkpt lat="43.88255" lon="7.50397">
        <ele>392</ele>
        <time>2021-02-20T14:46:04.000Z</time>
      </trkpt>
      <trkpt lat="43.88256" lon="7.50396">
        <ele>391.79998779297</ele>
        <time>2021-02-20T14:46:05.000Z</time>
      </trkpt>
      <trkpt lat="43.88257" lon="7.50393">
        <ele>391.79998779297</ele>
        <time>2021-02-20T14:46:08.000Z</time>
      </trkpt>
      <trkpt lat="43.88258" lon="7.50391">
        <ele>393.20001220703</ele>
        <time>2021-02-20T14:46:14.000Z</time>
      </trkpt>
      <trkpt lat="43.8826" lon="7.50389">
        <ele>393.79998779297</ele>
        <time>2021-02-20T14:46:19.000Z</time>
      </trkpt>
      <trkpt lat="43.88262" lon="7.50386">
        <ele>394.20001220703</ele>
        <time>2021-02-20T14:46:23.000Z</time>
      </trkpt>
      <trkpt lat="43.88262" lon="7.50386">
        <ele>394.39999389648</ele>
        <time>2021-02-20T14:46:24.000Z</time>
      </trkpt>
      <trkpt lat="43.88261" lon="7.50386">
        <ele>395</ele>
        <time>2021-02-20T14:46:28.000Z</time>
      </trkpt>
      <trkpt lat="43.88259" lon="7.50386">
        <ele>395.20001220703</ele>
        <time>2021-02-20T14:46:31.000Z</time>
      </trkpt>
      <trkpt lat="43.88259" lon="7.50386">
        <ele>395.20001220703</ele>
        <time>2021-02-20T14:46:33.000Z</time>
      </trkpt>
      <trkpt lat="43.88258" lon="7.50387">
        <ele>395.39999389648</ele>
        <time>2021-02-20T14:46:39.000Z</time>
      </trkpt>
      <trkpt lat="43.88256" lon="7.50387">
        <ele>395.39999389648</ele>
        <time>2021-02-20T14:46:40.000Z</time>
      </trkpt>
      <trkpt lat="43.88254" lon="7.50391">
        <ele>395.79998779297</ele>
        <time>2021-02-20T14:46:43.000Z</time>
      </trkpt>
      <trkpt lat="43.88252" lon="7.50391">
        <ele>396.39999389648</ele>
        <time>2021-02-20T14:46:46.000Z</time>
      </trkpt>
      <trkpt lat="43.88251" lon="7.50391">
        <ele>397</ele>
        <time>2021-02-20T14:46:47.000Z</time>
      </trkpt>
      <trkpt lat="43.88251" lon="7.50391">
        <ele>397.60000610352</ele>
        <time>2021-02-20T14:46:49.000Z</time>
      </trkpt>
      <trkpt lat="43.88253" lon="7.50387">
        <ele>398</ele>
        <time>2021-02-20T14:46:52.000Z</time>
      </trkpt>
      <trkpt lat="43.88253" lon="7.50385">
        <ele>398.20001220703</ele>
        <time>2021-02-20T14:46:58.000Z</time>
      </trkpt>
      <trkpt lat="43.88251" lon="7.50387">
        <ele>398.60000610352</ele>
        <time>2021-02-20T14:47:03.000Z</time>
      </trkpt>
      <trkpt lat="43.88249" lon="7.50387">
        <ele>398.79998779297</ele>
        <time>2021-02-20T14:47:04.000Z</time>
      </trkpt>
      <trkpt lat="43.88242" lon="7.50387">
        <ele>399.79998779297</ele>
        <time>2021-02-20T14:47:08.000Z</time>
      </trkpt>
      <trkpt lat="43.8824" lon="7.50385">
        <ele>400.20001220703</ele>
        <time>2021-02-20T14:47:09.000Z</time>
      </trkpt>
      <trkpt lat="43.88236" lon="7.50382">
        <ele>401</ele>
        <time>2021-02-20T14:47:11.000Z</time>
      </trkpt>
      <trkpt lat="43.88228" lon="7.50372">
        <ele>401.79998779297</ele>
        <time>2021-02-20T14:47:16.000Z</time>
      </trkpt>
      <trkpt lat="43.88226" lon="7.50367">
        <ele>402</ele>
        <time>2021-02-20T14:47:18.000Z</time>
      </trkpt>
      <trkpt lat="43.88223" lon="7.50364">
        <ele>402.60000610352</ele>
        <time>2021-02-20T14:47:22.000Z</time>
      </trkpt>
      <trkpt lat="43.88222" lon="7.50363">
        <ele>403.20001220703</ele>
        <time>2021-02-20T14:47:24.000Z</time>
      </trkpt>
      <trkpt lat="43.88221" lon="7.50363">
        <ele>403.79998779297</ele>
        <time>2021-02-20T14:47:27.000Z</time>
      </trkpt>
      <trkpt lat="43.8822" lon="7.50361">
        <ele>404</ele>
        <time>2021-02-20T14:47:36.000Z</time>
      </trkpt>
      <trkpt lat="43.8822" lon="7.50361">
        <ele>403.39999389648</ele>
        <time>2021-02-20T14:47:50.000Z</time>
      </trkpt>
      <trkpt lat="43.8822" lon="7.50361">
        <ele>403.39999389648</ele>
        <time>2021-02-20T14:48:04.000Z</time>
      </trkpt>
      <trkpt lat="43.88219" lon="7.50361">
        <ele>403.39999389648</ele>
        <time>2021-02-20T14:48:22.000Z</time>
      </trkpt>
      <trkpt lat="43.88219" lon="7.50361">
        <ele>403.39999389648</ele>
        <time>2021-02-20T14:48:37.000Z</time>
      </trkpt>
      <trkpt lat="43.88216" lon="7.50353">
        <ele>403.39999389648</ele>
        <time>2021-02-20T14:48:46.000Z</time>
      </trkpt>
      <trkpt lat="43.88216" lon="7.50345">
        <ele>401.79998779297</ele>
        <time>2021-02-20T14:48:50.000Z</time>
      </trkpt>
      <trkpt lat="43.88212" lon="7.50339">
        <ele>400.60000610352</ele>
        <time>2021-02-20T14:48:52.000Z</time>
      </trkpt>
      <trkpt lat="43.88211" lon="7.50336">
        <ele>400.20001220703</ele>
        <time>2021-02-20T14:48:53.000Z</time>
      </trkpt>
      <trkpt lat="43.88212" lon="7.50334">
        <ele>399.39999389648</ele>
        <time>2021-02-20T14:48:54.000Z</time>
      </trkpt>
      <trkpt lat="43.88215" lon="7.50327">
        <ele>398.60000610352</ele>
        <time>2021-02-20T14:48:56.000Z</time>
      </trkpt>
      <trkpt lat="43.88216" lon="7.50322">
        <ele>398</ele>
        <time>2021-02-20T14:48:57.000Z</time>
      </trkpt>
      <trkpt lat="43.88217" lon="7.50309">
        <ele>397</ele>
        <time>2021-02-20T14:48:59.000Z</time>
      </trkpt>
      <trkpt lat="43.88217" lon="7.50302">
        <ele>396.60000610352</ele>
        <time>2021-02-20T14:49:00.000Z</time>
      </trkpt>
      <trkpt lat="43.88218" lon="7.50295">
        <ele>395.79998779297</ele>
        <time>2021-02-20T14:49:01.000Z</time>
      </trkpt>
      <trkpt lat="43.88219" lon="7.50289">
        <ele>395</ele>
        <time>2021-02-20T14:49:02.000Z</time>
      </trkpt>
      <trkpt lat="43.88221" lon="7.50278">
        <ele>394.39999389648</ele>
        <time>2021-02-20T14:49:04.000Z</time>
      </trkpt>
      <trkpt lat="43.88221" lon="7.50275">
        <ele>394</ele>
        <time>2021-02-20T14:49:05.000Z</time>
      </trkpt>
      <trkpt lat="43.88223" lon="7.5026">
        <ele>394</ele>
        <time>2021-02-20T14:49:08.000Z</time>
      </trkpt>
      <trkpt lat="43.88225" lon="7.50257">
        <ele>393.39999389648</ele>
        <time>2021-02-20T14:49:09.000Z</time>
      </trkpt>
      <trkpt lat="43.88228" lon="7.50255">
        <ele>393</ele>
        <time>2021-02-20T14:49:10.000Z</time>
      </trkpt>
      <trkpt lat="43.8823" lon="7.50252">
        <ele>392.79998779297</ele>
        <time>2021-02-20T14:49:11.000Z</time>
      </trkpt>
      <trkpt lat="43.88233" lon="7.50242">
        <ele>391.79998779297</ele>
        <time>2021-02-20T14:49:13.000Z</time>
      </trkpt>
      <trkpt lat="43.8823" lon="7.50231">
        <ele>391.39999389648</ele>
        <time>2021-02-20T14:49:15.000Z</time>
      </trkpt>
      <trkpt lat="43.88229" lon="7.50224">
        <ele>391.39999389648</ele>
        <time>2021-02-20T14:49:16.000Z</time>
      </trkpt>
      <trkpt lat="43.8823" lon="7.50218">
        <ele>391</ele>
        <time>2021-02-20T14:49:17.000Z</time>
      </trkpt>
      <trkpt lat="43.8823" lon="7.50211">
        <ele>390.60000610352</ele>
        <time>2021-02-20T14:49:18.000Z</time>
      </trkpt>
      <trkpt lat="43.88229" lon="7.50206">
        <ele>389.79998779297</ele>
        <time>2021-02-20T14:49:19.000Z</time>
      </trkpt>
      <trkpt lat="43.88228" lon="7.50201">
        <ele>389.39999389648</ele>
        <time>2021-02-20T14:49:20.000Z</time>
      </trkpt>
      <trkpt lat="43.88227" lon="7.5019">
        <ele>388.20001220703</ele>
        <time>2021-02-20T14:49:22.000Z</time>
      </trkpt>
      <trkpt lat="43.88227" lon="7.50171">
        <ele>387.20001220703</ele>
        <time>2021-02-20T14:49:25.000Z</time>
      </trkpt>
      <trkpt lat="43.88232" lon="7.50152">
        <ele>385.39999389648</ele>
        <time>2021-02-20T14:49:28.000Z</time>
      </trkpt>
      <trkpt lat="43.88236" lon="7.50144">
        <ele>384.20001220703</ele>
        <time>2021-02-20T14:49:30.000Z</time>
      </trkpt>
      <trkpt lat="43.8824" lon="7.50137">
        <ele>384.20001220703</ele>
        <time>2021-02-20T14:49:32.000Z</time>
      </trkpt>
      <trkpt lat="43.8825" lon="7.50118">
        <ele>383.60000610352</ele>
        <time>2021-02-20T14:49:36.000Z</time>
      </trkpt>
      <trkpt lat="43.88253" lon="7.50114">
        <ele>382.60000610352</ele>
        <time>2021-02-20T14:49:37.000Z</time>
      </trkpt>
      <trkpt lat="43.88259" lon="7.50106">
        <ele>381.20001220703</ele>
        <time>2021-02-20T14:49:39.000Z</time>
      </trkpt>
      <trkpt lat="43.88266" lon="7.50104">
        <ele>380.20001220703</ele>
        <time>2021-02-20T14:49:41.000Z</time>
      </trkpt>
      <trkpt lat="43.88279" lon="7.50102">
        <ele>379</ele>
        <time>2021-02-20T14:49:44.000Z</time>
      </trkpt>
      <trkpt lat="43.88282" lon="7.50099">
        <ele>378.39999389648</ele>
        <time>2021-02-20T14:49:45.000Z</time>
      </trkpt>
      <trkpt lat="43.88289" lon="7.5008">
        <ele>379</ele>
        <time>2021-02-20T14:49:49.000Z</time>
      </trkpt>
      <trkpt lat="43.88291" lon="7.50075">
        <ele>379.20001220703</ele>
        <time>2021-02-20T14:49:50.000Z</time>
      </trkpt>
      <trkpt lat="43.88294" lon="7.50066">
        <ele>378.39999389648</ele>
        <time>2021-02-20T14:49:54.000Z</time>
      </trkpt>
      <trkpt lat="43.88296" lon="7.50059">
        <ele>378.60000610352</ele>
        <time>2021-02-20T14:50:04.000Z</time>
      </trkpt>
      <trkpt lat="43.88298" lon="7.50053">
        <ele>379.60000610352</ele>
        <time>2021-02-20T14:50:09.000Z</time>
      </trkpt>
      <trkpt lat="43.883" lon="7.50056">
        <ele>380</ele>
        <time>2021-02-20T14:50:15.000Z</time>
      </trkpt>
      <trkpt lat="43.883" lon="7.50056">
        <ele>380</ele>
        <time>2021-02-20T14:50:17.000Z</time>
      </trkpt>
      <trkpt lat="43.88301" lon="7.50058">
        <ele>380.60000610352</ele>
        <time>2021-02-20T14:50:21.000Z</time>
      </trkpt>
      <trkpt lat="43.88302" lon="7.50056">
        <ele>381.20001220703</ele>
        <time>2021-02-20T14:50:25.000Z</time>
      </trkpt>
      <trkpt lat="43.88302" lon="7.50055">
        <ele>381.39999389648</ele>
        <time>2021-02-20T14:50:26.000Z</time>
      </trkpt>
      <trkpt lat="43.88303" lon="7.50049">
        <ele>381.60000610352</ele>
        <time>2021-02-20T14:50:31.000Z</time>
      </trkpt>
      <trkpt lat="43.88305" lon="7.50032">
        <ele>382</ele>
        <time>2021-02-20T14:50:36.000Z</time>
      </trkpt>
      <trkpt lat="43.88312" lon="7.50011">
        <ele>381.20001220703</ele>
        <time>2021-02-20T14:50:41.000Z</time>
      </trkpt>
      <trkpt lat="43.88318" lon="7.5">
        <ele>381.79998779297</ele>
        <time>2021-02-20T14:50:45.000Z</time>
      </trkpt>
      <trkpt lat="43.8832" lon="7.49994">
        <ele>382.60000610352</ele>
        <time>2021-02-20T14:50:47.000Z</time>
      </trkpt>
      <trkpt lat="43.88324" lon="7.49981">
        <ele>383</ele>
        <time>2021-02-20T14:50:50.000Z</time>
      </trkpt>
      <trkpt lat="43.8833" lon="7.49962">
        <ele>382.20001220703</ele>
        <time>2021-02-20T14:50:55.000Z</time>
      </trkpt>
      <trkpt lat="43.88331" lon="7.49957">
        <ele>381.60000610352</ele>
        <time>2021-02-20T14:50:58.000Z</time>
      </trkpt>
      <trkpt lat="43.88332" lon="7.49954">
        <ele>381.39999389648</ele>
        <time>2021-02-20T14:50:59.000Z</time>
      </trkpt>
      <trkpt lat="43.88336" lon="7.49937">
        <ele>380</ele>
        <time>2021-02-20T14:51:02.000Z</time>
      </trkpt>
      <trkpt lat="43.88337" lon="7.49932">
        <ele>379.39999389648</ele>
        <time>2021-02-20T14:51:03.000Z</time>
      </trkpt>
      <trkpt lat="43.88339" lon="7.49926">
        <ele>378.39999389648</ele>
        <time>2021-02-20T14:51:04.000Z</time>
      </trkpt>
      <trkpt lat="43.88346" lon="7.49914">
        <ele>377.20001220703</ele>
        <time>2021-02-20T14:51:07.000Z</time>
      </trkpt>
      <trkpt lat="43.88347" lon="7.49911">
        <ele>377.20001220703</ele>
        <time>2021-02-20T14:51:08.000Z</time>
      </trkpt>
      <trkpt lat="43.88348" lon="7.49897">
        <ele>376.20001220703</ele>
        <time>2021-02-20T14:51:12.000Z</time>
      </trkpt>
      <trkpt lat="43.88354" lon="7.49885">
        <ele>375</ele>
        <time>2021-02-20T14:51:15.000Z</time>
      </trkpt>
      <trkpt lat="43.88357" lon="7.49879">
        <ele>374.20001220703</ele>
        <time>2021-02-20T14:51:16.000Z</time>
      </trkpt>
      <trkpt lat="43.8836" lon="7.49874">
        <ele>373.60000610352</ele>
        <time>2021-02-20T14:51:17.000Z</time>
      </trkpt>
      <trkpt lat="43.88363" lon="7.49868">
        <ele>372.79998779297</ele>
        <time>2021-02-20T14:51:18.000Z</time>
      </trkpt>
      <trkpt lat="43.88365" lon="7.49862">
        <ele>372.60000610352</ele>
        <time>2021-02-20T14:51:19.000Z</time>
      </trkpt>
      <trkpt lat="43.88369" lon="7.49853">
        <ele>370.79998779297</ele>
        <time>2021-02-20T14:51:21.000Z</time>
      </trkpt>
      <trkpt lat="43.88373" lon="7.49847">
        <ele>369.60000610352</ele>
        <time>2021-02-20T14:51:23.000Z</time>
      </trkpt>
      <trkpt lat="43.88379" lon="7.49842">
        <ele>367.79998779297</ele>
        <time>2021-02-20T14:51:25.000Z</time>
      </trkpt>
      <trkpt lat="43.88384" lon="7.49836">
        <ele>366.79998779297</ele>
        <time>2021-02-20T14:51:27.000Z</time>
      </trkpt>
      <trkpt lat="43.88391" lon="7.49826">
        <ele>365.60000610352</ele>
        <time>2021-02-20T14:51:30.000Z</time>
      </trkpt>
      <trkpt lat="43.884" lon="7.49817">
        <ele>363.60000610352</ele>
        <time>2021-02-20T14:51:33.000Z</time>
      </trkpt>
      <trkpt lat="43.88404" lon="7.49814">
        <ele>362.79998779297</ele>
        <time>2021-02-20T14:51:34.000Z</time>
      </trkpt>
      <trkpt lat="43.88408" lon="7.49811">
        <ele>361.60000610352</ele>
        <time>2021-02-20T14:51:35.000Z</time>
      </trkpt>
      <trkpt lat="43.88412" lon="7.49807">
        <ele>360.39999389648</ele>
        <time>2021-02-20T14:51:36.000Z</time>
      </trkpt>
      <trkpt lat="43.88413" lon="7.49802">
        <ele>358.79998779297</ele>
        <time>2021-02-20T14:51:37.000Z</time>
      </trkpt>
      <trkpt lat="43.88415" lon="7.49801">
        <ele>357.39999389648</ele>
        <time>2021-02-20T14:51:39.000Z</time>
      </trkpt>
      <trkpt lat="43.88415" lon="7.49801">
        <ele>356.20001220703</ele>
        <time>2021-02-20T14:51:42.000Z</time>
      </trkpt>
      <trkpt lat="43.88415" lon="7.498">
        <ele>356.20001220703</ele>
        <time>2021-02-20T14:51:45.000Z</time>
      </trkpt>
      <trkpt lat="43.88416" lon="7.49798">
        <ele>356</ele>
        <time>2021-02-20T14:51:52.000Z</time>
      </trkpt>
      <trkpt lat="43.88417" lon="7.49795">
        <ele>355.79998779297</ele>
        <time>2021-02-20T14:51:55.000Z</time>
      </trkpt>
      <trkpt lat="43.88418" lon="7.4979">
        <ele>355.20001220703</ele>
        <time>2021-02-20T14:51:59.000Z</time>
      </trkpt>
      <trkpt lat="43.88419" lon="7.49785">
        <ele>354.39999389648</ele>
        <time>2021-02-20T14:52:01.000Z</time>
      </trkpt>
      <trkpt lat="43.88421" lon="7.49783">
        <ele>354.20001220703</ele>
        <time>2021-02-20T14:52:02.000Z</time>
      </trkpt>
      <trkpt lat="43.88426" lon="7.49778">
        <ele>353</ele>
        <time>2021-02-20T14:52:05.000Z</time>
      </trkpt>
      <trkpt lat="43.88431" lon="7.49775">
        <ele>352.60000610352</ele>
        <time>2021-02-20T14:52:07.000Z</time>
      </trkpt>
      <trkpt lat="43.88434" lon="7.4977">
        <ele>352.20001220703</ele>
        <time>2021-02-20T14:52:09.000Z</time>
      </trkpt>
      <trkpt lat="43.88439" lon="7.49768">
        <ele>351.79998779297</ele>
        <time>2021-02-20T14:52:11.000Z</time>
      </trkpt>
      <trkpt lat="43.88447" lon="7.49763">
        <ele>350.39999389648</ele>
        <time>2021-02-20T14:52:14.000Z</time>
      </trkpt>
      <trkpt lat="43.88448" lon="7.49761">
        <ele>350</ele>
        <time>2021-02-20T14:52:15.000Z</time>
      </trkpt>
      <trkpt lat="43.88452" lon="7.49752">
        <ele>349</ele>
        <time>2021-02-20T14:52:19.000Z</time>
      </trkpt>
      <trkpt lat="43.88454" lon="7.4975">
        <ele>348.60000610352</ele>
        <time>2021-02-20T14:52:20.000Z</time>
      </trkpt>
      <trkpt lat="43.88455" lon="7.49747">
        <ele>347.79998779297</ele>
        <time>2021-02-20T14:52:21.000Z</time>
      </trkpt>
      <trkpt lat="43.88461" lon="7.4974">
        <ele>346.39999389648</ele>
        <time>2021-02-20T14:52:23.000Z</time>
      </trkpt>
      <trkpt lat="43.88464" lon="7.49737">
        <ele>346.20001220703</ele>
        <time>2021-02-20T14:52:24.000Z</time>
      </trkpt>
      <trkpt lat="43.88473" lon="7.49731">
        <ele>346</ele>
        <time>2021-02-20T14:52:28.000Z</time>
      </trkpt>
      <trkpt lat="43.88481" lon="7.49725">
        <ele>346.79998779297</ele>
        <time>2021-02-20T14:52:32.000Z</time>
      </trkpt>
      <trkpt lat="43.88489" lon="7.49707">
        <ele>347</ele>
        <time>2021-02-20T14:52:36.000Z</time>
      </trkpt>
      <trkpt lat="43.88506" lon="7.49666">
        <ele>346.20001220703</ele>
        <time>2021-02-20T14:52:44.000Z</time>
      </trkpt>
      <trkpt lat="43.88511" lon="7.49655">
        <ele>346.20001220703</ele>
        <time>2021-02-20T14:52:46.000Z</time>
      </trkpt>
      <trkpt lat="43.88518" lon="7.49641">
        <ele>345.60000610352</ele>
        <time>2021-02-20T14:52:48.000Z</time>
      </trkpt>
      <trkpt lat="43.88521" lon="7.49634">
        <ele>345</ele>
        <time>2021-02-20T14:52:49.000Z</time>
      </trkpt>
      <trkpt lat="43.88526" lon="7.49622">
        <ele>344.20001220703</ele>
        <time>2021-02-20T14:52:51.000Z</time>
      </trkpt>
      <trkpt lat="43.88527" lon="7.49616">
        <ele>344</ele>
        <time>2021-02-20T14:52:52.000Z</time>
      </trkpt>
      <trkpt lat="43.88529" lon="7.49611">
        <ele>344</ele>
        <time>2021-02-20T14:52:53.000Z</time>
      </trkpt>
      <trkpt lat="43.88533" lon="7.49601">
        <ele>343.39999389648</ele>
        <time>2021-02-20T14:52:55.000Z</time>
      </trkpt>
      <trkpt lat="43.88535" lon="7.49596">
        <ele>342.60000610352</ele>
        <time>2021-02-20T14:52:56.000Z</time>
      </trkpt>
      <trkpt lat="43.88538" lon="7.49591">
        <ele>342</ele>
        <time>2021-02-20T14:52:57.000Z</time>
      </trkpt>
      <trkpt lat="43.88541" lon="7.49586">
        <ele>341</ele>
        <time>2021-02-20T14:52:58.000Z</time>
      </trkpt>
      <trkpt lat="43.88546" lon="7.49573">
        <ele>340.39999389648</ele>
        <time>2021-02-20T14:53:00.000Z</time>
      </trkpt>
      <trkpt lat="43.88549" lon="7.49565">
        <ele>340.20001220703</ele>
        <time>2021-02-20T14:53:01.000Z</time>
      </trkpt>
      <trkpt lat="43.88552" lon="7.49559">
        <ele>339.20001220703</ele>
        <time>2021-02-20T14:53:02.000Z</time>
      </trkpt>
      <trkpt lat="43.88561" lon="7.4955">
        <ele>337.20001220703</ele>
        <time>2021-02-20T14:53:04.000Z</time>
      </trkpt>
      <trkpt lat="43.88564" lon="7.49547">
        <ele>336</ele>
        <time>2021-02-20T14:53:05.000Z</time>
      </trkpt>
      <trkpt lat="43.88574" lon="7.49546">
        <ele>334.20001220703</ele>
        <time>2021-02-20T14:53:07.000Z</time>
      </trkpt>
      <trkpt lat="43.8858" lon="7.49545">
        <ele>333.39999389648</ele>
        <time>2021-02-20T14:53:08.000Z</time>
      </trkpt>
      <trkpt lat="43.88584" lon="7.49542">
        <ele>332.60000610352</ele>
        <time>2021-02-20T14:53:09.000Z</time>
      </trkpt>
      <trkpt lat="43.88592" lon="7.49536">
        <ele>331.79998779297</ele>
        <time>2021-02-20T14:53:11.000Z</time>
      </trkpt>
      <trkpt lat="43.88595" lon="7.49534">
        <ele>330.79998779297</ele>
        <time>2021-02-20T14:53:12.000Z</time>
      </trkpt>
      <trkpt lat="43.88596" lon="7.4953">
        <ele>329.39999389648</ele>
        <time>2021-02-20T14:53:14.000Z</time>
      </trkpt>
      <trkpt lat="43.88596" lon="7.49528">
        <ele>328.39999389648</ele>
        <time>2021-02-20T14:53:15.000Z</time>
      </trkpt>
      <trkpt lat="43.88604" lon="7.49521">
        <ele>327.20001220703</ele>
        <time>2021-02-20T14:53:19.000Z</time>
      </trkpt>
      <trkpt lat="43.88607" lon="7.49511">
        <ele>327</ele>
        <time>2021-02-20T14:53:24.000Z</time>
      </trkpt>
      <trkpt lat="43.88608" lon="7.49506">
        <ele>327.20001220703</ele>
        <time>2021-02-20T14:53:27.000Z</time>
      </trkpt>
      <trkpt lat="43.88609" lon="7.49505">
        <ele>327.39999389648</ele>
        <time>2021-02-20T14:53:28.000Z</time>
      </trkpt>
      <trkpt lat="43.88612" lon="7.49491">
        <ele>327.60000610352</ele>
        <time>2021-02-20T14:53:32.000Z</time>
      </trkpt>
      <trkpt lat="43.88614" lon="7.49477">
        <ele>328.39999389648</ele>
        <time>2021-02-20T14:53:36.000Z</time>
      </trkpt>
      <trkpt lat="43.88615" lon="7.49473">
        <ele>328.79998779297</ele>
        <time>2021-02-20T14:53:37.000Z</time>
      </trkpt>
      <trkpt lat="43.88616" lon="7.49462">
        <ele>329.39999389648</ele>
        <time>2021-02-20T14:53:40.000Z</time>
      </trkpt>
      <trkpt lat="43.88618" lon="7.49454">
        <ele>329.79998779297</ele>
        <time>2021-02-20T14:53:42.000Z</time>
      </trkpt>
      <trkpt lat="43.88624" lon="7.49438">
        <ele>329.79998779297</ele>
        <time>2021-02-20T14:53:46.000Z</time>
      </trkpt>
      <trkpt lat="43.88632" lon="7.49428">
        <ele>330</ele>
        <time>2021-02-20T14:53:50.000Z</time>
      </trkpt>
      <trkpt lat="43.88643" lon="7.49413">
        <ele>330.20001220703</ele>
        <time>2021-02-20T14:53:55.000Z</time>
      </trkpt>
      <trkpt lat="43.8865" lon="7.494">
        <ele>330.39999389648</ele>
        <time>2021-02-20T14:53:58.000Z</time>
      </trkpt>
      <trkpt lat="43.88653" lon="7.49398">
        <ele>330.60000610352</ele>
        <time>2021-02-20T14:53:59.000Z</time>
      </trkpt>
      <trkpt lat="43.88668" lon="7.49378">
        <ele>330.60000610352</ele>
        <time>2021-02-20T14:54:04.000Z</time>
      </trkpt>
      <trkpt lat="43.88677" lon="7.49374">
        <ele>330.60000610352</ele>
        <time>2021-02-20T14:54:07.000Z</time>
      </trkpt>
      <trkpt lat="43.88685" lon="7.49368">
        <ele>330.39999389648</ele>
        <time>2021-02-20T14:54:11.000Z</time>
      </trkpt>
      <trkpt lat="43.88697" lon="7.49352">
        <ele>330.79998779297</ele>
        <time>2021-02-20T14:54:16.000Z</time>
      </trkpt>
      <trkpt lat="43.88709" lon="7.4933">
        <ele>331.39999389648</ele>
        <time>2021-02-20T14:54:23.000Z</time>
      </trkpt>
      <trkpt lat="43.8871" lon="7.49326">
        <ele>331.79998779297</ele>
        <time>2021-02-20T14:54:24.000Z</time>
      </trkpt>
      <trkpt lat="43.88712" lon="7.49323">
        <ele>333.20001220703</ele>
        <time>2021-02-20T14:54:27.000Z</time>
      </trkpt>
      <trkpt lat="43.88714" lon="7.49317">
        <ele>334</ele>
        <time>2021-02-20T14:54:32.000Z</time>
      </trkpt>
      <trkpt lat="43.88716" lon="7.49315">
        <ele>334.39999389648</ele>
        <time>2021-02-20T14:54:34.000Z</time>
      </trkpt>
      <trkpt lat="43.88717" lon="7.49314">
        <ele>334.60000610352</ele>
        <time>2021-02-20T14:54:35.000Z</time>
      </trkpt>
      <trkpt lat="43.88722" lon="7.49305">
        <ele>335.39999389648</ele>
        <time>2021-02-20T14:54:39.000Z</time>
      </trkpt>
      <trkpt lat="43.8873" lon="7.49294">
        <ele>336.79998779297</ele>
        <time>2021-02-20T14:54:44.000Z</time>
      </trkpt>
      <trkpt lat="43.88732" lon="7.49292">
        <ele>337.20001220703</ele>
        <time>2021-02-20T14:54:45.000Z</time>
      </trkpt>
      <trkpt lat="43.88735" lon="7.49288">
        <ele>337.79998779297</ele>
        <time>2021-02-20T14:54:47.000Z</time>
      </trkpt>
      <trkpt lat="43.88737" lon="7.49283">
        <ele>339</ele>
        <time>2021-02-20T14:54:49.000Z</time>
      </trkpt>
      <trkpt lat="43.88738" lon="7.4928">
        <ele>339.39999389648</ele>
        <time>2021-02-20T14:54:50.000Z</time>
      </trkpt>
      <trkpt lat="43.88742" lon="7.49273">
        <ele>340.20001220703</ele>
        <time>2021-02-20T14:54:52.000Z</time>
      </trkpt>
      <trkpt lat="43.88743" lon="7.49268">
        <ele>340.60000610352</ele>
        <time>2021-02-20T14:54:54.000Z</time>
      </trkpt>
      <trkpt lat="43.88744" lon="7.49263">
        <ele>340.79998779297</ele>
        <time>2021-02-20T14:54:55.000Z</time>
      </trkpt>
      <trkpt lat="43.8875" lon="7.49249">
        <ele>341.20001220703</ele>
        <time>2021-02-20T14:54:59.000Z</time>
      </trkpt>
      <trkpt lat="43.88753" lon="7.49242">
        <ele>341.20001220703</ele>
        <time>2021-02-20T14:55:02.000Z</time>
      </trkpt>
      <trkpt lat="43.88756" lon="7.49233">
        <ele>341.79998779297</ele>
        <time>2021-02-20T14:55:04.000Z</time>
      </trkpt>
      <trkpt lat="43.88758" lon="7.49227">
        <ele>342.20001220703</ele>
        <time>2021-02-20T14:55:06.000Z</time>
      </trkpt>
      <trkpt lat="43.88758" lon="7.49216">
        <ele>343</ele>
        <time>2021-02-20T14:55:09.000Z</time>
      </trkpt>
      <trkpt lat="43.8876" lon="7.49206">
        <ele>343.39999389648</ele>
        <time>2021-02-20T14:55:12.000Z</time>
      </trkpt>
      <trkpt lat="43.88762" lon="7.492">
        <ele>343.79998779297</ele>
        <time>2021-02-20T14:55:15.000Z</time>
      </trkpt>
      <trkpt lat="43.88762" lon="7.49199">
        <ele>344.39999389648</ele>
        <time>2021-02-20T14:55:17.000Z</time>
      </trkpt>
      <trkpt lat="43.88762" lon="7.49198">
        <ele>344.79998779297</ele>
        <time>2021-02-20T14:55:20.000Z</time>
      </trkpt>
      <trkpt lat="43.88761" lon="7.49195">
        <ele>344</ele>
        <time>2021-02-20T14:55:27.000Z</time>
      </trkpt>
      <trkpt lat="43.88759" lon="7.49192">
        <ele>344.39999389648</ele>
        <time>2021-02-20T14:55:33.000Z</time>
      </trkpt>
      <trkpt lat="43.88758" lon="7.49188">
        <ele>344.79998779297</ele>
        <time>2021-02-20T14:55:40.000Z</time>
      </trkpt>
      <trkpt lat="43.88758" lon="7.49182">
        <ele>344.79998779297</ele>
        <time>2021-02-20T14:55:47.000Z</time>
      </trkpt>
      <trkpt lat="43.88757" lon="7.4918">
        <ele>345.39999389648</ele>
        <time>2021-02-20T14:55:51.000Z</time>
      </trkpt>
      <trkpt lat="43.88757" lon="7.49179">
        <ele>345.60000610352</ele>
        <time>2021-02-20T14:55:55.000Z</time>
      </trkpt>
      <trkpt lat="43.88758" lon="7.4917">
        <ele>345.60000610352</ele>
        <time>2021-02-20T14:56:01.000Z</time>
      </trkpt>
      <trkpt lat="43.88758" lon="7.49158">
        <ele>346.39999389648</ele>
        <time>2021-02-20T14:56:05.000Z</time>
      </trkpt>
      <trkpt lat="43.88757" lon="7.49152">
        <ele>347.20001220703</ele>
        <time>2021-02-20T14:56:07.000Z</time>
      </trkpt>
      <trkpt lat="43.88755" lon="7.49146">
        <ele>347.60000610352</ele>
        <time>2021-02-20T14:56:09.000Z</time>
      </trkpt>
      <trkpt lat="43.88755" lon="7.49136">
        <ele>348.39999389648</ele>
        <time>2021-02-20T14:56:12.000Z</time>
      </trkpt>
      <trkpt lat="43.88754" lon="7.49133">
        <ele>348.79998779297</ele>
        <time>2021-02-20T14:56:13.000Z</time>
      </trkpt>
      <trkpt lat="43.88753" lon="7.49122">
        <ele>350.20001220703</ele>
        <time>2021-02-20T14:56:16.000Z</time>
      </trkpt>
      <trkpt lat="43.88753" lon="7.49114">
        <ele>350.39999389648</ele>
        <time>2021-02-20T14:56:18.000Z</time>
      </trkpt>
      <trkpt lat="43.88749" lon="7.49087">
        <ele>351</ele>
        <time>2021-02-20T14:56:24.000Z</time>
      </trkpt>
      <trkpt lat="43.88747" lon="7.49082">
        <ele>351.20001220703</ele>
        <time>2021-02-20T14:56:25.000Z</time>
      </trkpt>
      <trkpt lat="43.88734" lon="7.49058">
        <ele>350.39999389648</ele>
        <time>2021-02-20T14:56:29.000Z</time>
      </trkpt>
      <trkpt lat="43.88729" lon="7.49046">
        <ele>349.20001220703</ele>
        <time>2021-02-20T14:56:31.000Z</time>
      </trkpt>
      <trkpt lat="43.88727" lon="7.49041">
        <ele>348.79998779297</ele>
        <time>2021-02-20T14:56:32.000Z</time>
      </trkpt>
      <trkpt lat="43.88725" lon="7.49031">
        <ele>348.20001220703</ele>
        <time>2021-02-20T14:56:34.000Z</time>
      </trkpt>
      <trkpt lat="43.88721" lon="7.49009">
        <ele>348.79998779297</ele>
        <time>2021-02-20T14:56:38.000Z</time>
      </trkpt>
      <trkpt lat="43.88718" lon="7.48992">
        <ele>349.60000610352</ele>
        <time>2021-02-20T14:56:42.000Z</time>
      </trkpt>
      <trkpt lat="43.88717" lon="7.48989">
        <ele>349.79998779297</ele>
        <time>2021-02-20T14:56:43.000Z</time>
      </trkpt>
      <trkpt lat="43.88718" lon="7.48982">
        <ele>350.20001220703</ele>
        <time>2021-02-20T14:56:45.000Z</time>
      </trkpt>
      <trkpt lat="43.8872" lon="7.48977">
        <ele>351.20001220703</ele>
        <time>2021-02-20T14:56:47.000Z</time>
      </trkpt>
      <trkpt lat="43.88719" lon="7.48976">
        <ele>352.60000610352</ele>
        <time>2021-02-20T14:56:49.000Z</time>
      </trkpt>
      <trkpt lat="43.88718" lon="7.48966">
        <ele>353.79998779297</ele>
        <time>2021-02-20T14:56:53.000Z</time>
      </trkpt>
      <trkpt lat="43.88718" lon="7.48963">
        <ele>354</ele>
        <time>2021-02-20T14:56:54.000Z</time>
      </trkpt>
      <trkpt lat="43.88717" lon="7.48949">
        <ele>354.79998779297</ele>
        <time>2021-02-20T14:56:58.000Z</time>
      </trkpt>
      <trkpt lat="43.88717" lon="7.48939">
        <ele>355.60000610352</ele>
        <time>2021-02-20T14:57:01.000Z</time>
      </trkpt>
      <trkpt lat="43.88718" lon="7.48935">
        <ele>356</ele>
        <time>2021-02-20T14:57:02.000Z</time>
      </trkpt>
      <trkpt lat="43.88719" lon="7.48925">
        <ele>357</ele>
        <time>2021-02-20T14:57:05.000Z</time>
      </trkpt>
      <trkpt lat="43.8872" lon="7.48915">
        <ele>358.20001220703</ele>
        <time>2021-02-20T14:57:08.000Z</time>
      </trkpt>
      <trkpt lat="43.88721" lon="7.48906">
        <ele>359.39999389648</ele>
        <time>2021-02-20T14:57:11.000Z</time>
      </trkpt>
      <trkpt lat="43.88721" lon="7.48902">
        <ele>359.60000610352</ele>
        <time>2021-02-20T14:57:12.000Z</time>
      </trkpt>
      <trkpt lat="43.88723" lon="7.48892">
        <ele>360.39999389648</ele>
        <time>2021-02-20T14:57:15.000Z</time>
      </trkpt>
      <trkpt lat="43.88725" lon="7.48883">
        <ele>361.20001220703</ele>
        <time>2021-02-20T14:57:18.000Z</time>
      </trkpt>
      <trkpt lat="43.88725" lon="7.48881">
        <ele>361.60000610352</ele>
        <time>2021-02-20T14:57:19.000Z</time>
      </trkpt>
      <trkpt lat="43.88725" lon="7.48873">
        <ele>362.60000610352</ele>
        <time>2021-02-20T14:57:22.000Z</time>
      </trkpt>
      <trkpt lat="43.88727" lon="7.48868">
        <ele>363.20001220703</ele>
        <time>2021-02-20T14:57:24.000Z</time>
      </trkpt>
      <trkpt lat="43.88732" lon="7.48861">
        <ele>363.20001220703</ele>
        <time>2021-02-20T14:57:30.000Z</time>
      </trkpt>
      <trkpt lat="43.88733" lon="7.48861">
        <ele>363.20001220703</ele>
        <time>2021-02-20T14:57:31.000Z</time>
      </trkpt>
      <trkpt lat="43.88733" lon="7.48861">
        <ele>363.20001220703</ele>
        <time>2021-02-20T14:57:34.000Z</time>
      </trkpt>
      <trkpt lat="43.8874" lon="7.48857">
        <ele>363.20001220703</ele>
        <time>2021-02-20T14:57:42.000Z</time>
      </trkpt>
      <trkpt lat="43.88754" lon="7.48845">
        <ele>363.20001220703</ele>
        <time>2021-02-20T14:57:47.000Z</time>
      </trkpt>
      <trkpt lat="43.88757" lon="7.48842">
        <ele>363.20001220703</ele>
        <time>2021-02-20T14:57:48.000Z</time>
      </trkpt>
      <trkpt lat="43.88764" lon="7.48837">
        <ele>361.60000610352</ele>
        <time>2021-02-20T14:57:51.000Z</time>
      </trkpt>
      <trkpt lat="43.88766" lon="7.48838">
        <ele>361.60000610352</ele>
        <time>2021-02-20T14:57:52.000Z</time>
      </trkpt>
      <trkpt lat="43.8877" lon="7.48837">
        <ele>361</ele>
        <time>2021-02-20T14:57:53.000Z</time>
      </trkpt>
      <trkpt lat="43.88773" lon="7.48835">
        <ele>360.39999389648</ele>
        <time>2021-02-20T14:57:54.000Z</time>
      </trkpt>
      <trkpt lat="43.8878" lon="7.48831">
        <ele>359.39999389648</ele>
        <time>2021-02-20T14:57:56.000Z</time>
      </trkpt>
      <trkpt lat="43.88783" lon="7.48829">
        <ele>357.79998779297</ele>
        <time>2021-02-20T14:57:57.000Z</time>
      </trkpt>
      <trkpt lat="43.88789" lon="7.48824">
        <ele>356.20001220703</ele>
        <time>2021-02-20T14:57:59.000Z</time>
      </trkpt>
      <trkpt lat="43.88794" lon="7.48817">
        <ele>355.60000610352</ele>
        <time>2021-02-20T14:58:02.000Z</time>
      </trkpt>
      <trkpt lat="43.88795" lon="7.48815">
        <ele>355.20001220703</ele>
        <time>2021-02-20T14:58:03.000Z</time>
      </trkpt>
      <trkpt lat="43.88796" lon="7.48814">
        <ele>354</ele>
        <time>2021-02-20T14:58:06.000Z</time>
      </trkpt>
      <trkpt lat="43.88796" lon="7.4881">
        <ele>353</ele>
        <time>2021-02-20T14:58:17.000Z</time>
      </trkpt>
      <trkpt lat="43.88796" lon="7.48809">
        <ele>353</ele>
        <time>2021-02-20T14:58:21.000Z</time>
      </trkpt>
      <trkpt lat="43.88797" lon="7.48805">
        <ele>352.79998779297</ele>
        <time>2021-02-20T14:58:33.000Z</time>
      </trkpt>
      <trkpt lat="43.88799" lon="7.48801">
        <ele>353</ele>
        <time>2021-02-20T14:58:45.000Z</time>
      </trkpt>
      <trkpt lat="43.88801" lon="7.488">
        <ele>352.20001220703</ele>
        <time>2021-02-20T14:58:52.000Z</time>
      </trkpt>
      <trkpt lat="43.88801" lon="7.488">
        <ele>351.79998779297</ele>
        <time>2021-02-20T14:58:54.000Z</time>
      </trkpt>
      <trkpt lat="43.88802" lon="7.48801">
        <ele>351.20001220703</ele>
        <time>2021-02-20T14:59:00.000Z</time>
      </trkpt>
      <trkpt lat="43.88802" lon="7.48802">
        <ele>351.20001220703</ele>
        <time>2021-02-20T14:59:07.000Z</time>
      </trkpt>
      <trkpt lat="43.88802" lon="7.48802">
        <ele>350.79998779297</ele>
        <time>2021-02-20T14:59:12.000Z</time>
      </trkpt>
      <trkpt lat="43.88803" lon="7.48801">
        <ele>350.79998779297</ele>
        <time>2021-02-20T14:59:14.000Z</time>
      </trkpt>
      <trkpt lat="43.88805" lon="7.48796">
        <ele>350.20001220703</ele>
        <time>2021-02-20T14:59:21.000Z</time>
      </trkpt>
      <trkpt lat="43.88809" lon="7.48791">
        <ele>350.20001220703</ele>
        <time>2021-02-20T14:59:27.000Z</time>
      </trkpt>
      <trkpt lat="43.88809" lon="7.4879">
        <ele>350.39999389648</ele>
        <time>2021-02-20T14:59:32.000Z</time>
      </trkpt>
      <trkpt lat="43.8881" lon="7.48788">
        <ele>351.39999389648</ele>
        <time>2021-02-20T14:59:40.000Z</time>
      </trkpt>
      <trkpt lat="43.88807" lon="7.48788">
        <ele>351.79998779297</ele>
        <time>2021-02-20T14:59:46.000Z</time>
      </trkpt>
      <trkpt lat="43.88804" lon="7.48786">
        <ele>352.39999389648</ele>
        <time>2021-02-20T14:59:51.000Z</time>
      </trkpt>
      <trkpt lat="43.88795" lon="7.48781">
        <ele>352.60000610352</ele>
        <time>2021-02-20T14:59:57.000Z</time>
      </trkpt>
      <trkpt lat="43.8879" lon="7.48781">
        <ele>353</ele>
        <time>2021-02-20T14:59:59.000Z</time>
      </trkpt>
      <trkpt lat="43.88785" lon="7.4878">
        <ele>353.39999389648</ele>
        <time>2021-02-20T15:00:01.000Z</time>
      </trkpt>
      <trkpt lat="43.88781" lon="7.48777">
        <ele>354.39999389648</ele>
        <time>2021-02-20T15:00:03.000Z</time>
      </trkpt>
      <trkpt lat="43.88777" lon="7.48775">
        <ele>355.60000610352</ele>
        <time>2021-02-20T15:00:05.000Z</time>
      </trkpt>
      <trkpt lat="43.88773" lon="7.48772">
        <ele>357</ele>
        <time>2021-02-20T15:00:07.000Z</time>
      </trkpt>
      <trkpt lat="43.88769" lon="7.48765">
        <ele>358.39999389648</ele>
        <time>2021-02-20T15:00:10.000Z</time>
      </trkpt>
      <trkpt lat="43.88767" lon="7.4876">
        <ele>359.20001220703</ele>
        <time>2021-02-20T15:00:12.000Z</time>
      </trkpt>
      <trkpt lat="43.88765" lon="7.48758">
        <ele>359.60000610352</ele>
        <time>2021-02-20T15:00:13.000Z</time>
      </trkpt>
      <trkpt lat="43.88762" lon="7.48754">
        <ele>360.79998779297</ele>
        <time>2021-02-20T15:00:15.000Z</time>
      </trkpt>
      <trkpt lat="43.8876" lon="7.4875">
        <ele>361.79998779297</ele>
        <time>2021-02-20T15:00:17.000Z</time>
      </trkpt>
      <trkpt lat="43.88756" lon="7.48748">
        <ele>363.20001220703</ele>
        <time>2021-02-20T15:00:19.000Z</time>
      </trkpt>
      <trkpt lat="43.8875" lon="7.48744">
        <ele>364.39999389648</ele>
        <time>2021-02-20T15:00:22.000Z</time>
      </trkpt>
      <trkpt lat="43.88744" lon="7.48739">
        <ele>365.39999389648</ele>
        <time>2021-02-20T15:00:25.000Z</time>
      </trkpt>
      <trkpt lat="43.88741" lon="7.48738">
        <ele>366</ele>
        <time>2021-02-20T15:00:26.000Z</time>
      </trkpt>
      <trkpt lat="43.88737" lon="7.48736">
        <ele>367.20001220703</ele>
        <time>2021-02-20T15:00:28.000Z</time>
      </trkpt>
      <trkpt lat="43.88731" lon="7.48733">
        <ele>368.20001220703</ele>
        <time>2021-02-20T15:00:31.000Z</time>
      </trkpt>
      <trkpt lat="43.88729" lon="7.48733">
        <ele>368.39999389648</ele>
        <time>2021-02-20T15:00:32.000Z</time>
      </trkpt>
      <trkpt lat="43.88721" lon="7.48733">
        <ele>369.20001220703</ele>
        <time>2021-02-20T15:00:35.000Z</time>
      </trkpt>
      <trkpt lat="43.88719" lon="7.48732">
        <ele>369.60000610352</ele>
        <time>2021-02-20T15:00:36.000Z</time>
      </trkpt>
      <trkpt lat="43.88712" lon="7.48728">
        <ele>370.60000610352</ele>
        <time>2021-02-20T15:00:39.000Z</time>
      </trkpt>
      <trkpt lat="43.88706" lon="7.4872">
        <ele>371.60000610352</ele>
        <time>2021-02-20T15:00:42.000Z</time>
      </trkpt>
      <trkpt lat="43.88705" lon="7.48717">
        <ele>371.79998779297</ele>
        <time>2021-02-20T15:00:43.000Z</time>
      </trkpt>
      <trkpt lat="43.88702" lon="7.48704">
        <ele>373</ele>
        <time>2021-02-20T15:00:47.000Z</time>
      </trkpt>
      <trkpt lat="43.88698" lon="7.48695">
        <ele>373.79998779297</ele>
        <time>2021-02-20T15:00:50.000Z</time>
      </trkpt>
      <trkpt lat="43.88697" lon="7.48692">
        <ele>374</ele>
        <time>2021-02-20T15:00:51.000Z</time>
      </trkpt>
      <trkpt lat="43.88692" lon="7.4868">
        <ele>375.20001220703</ele>
        <time>2021-02-20T15:00:55.000Z</time>
      </trkpt>
      <trkpt lat="43.88689" lon="7.4867">
        <ele>376.39999389648</ele>
        <time>2021-02-20T15:00:58.000Z</time>
      </trkpt>
      <trkpt lat="43.88687" lon="7.48657">
        <ele>377.79998779297</ele>
        <time>2021-02-20T15:01:02.000Z</time>
      </trkpt>
      <trkpt lat="43.88687" lon="7.48648">
        <ele>379</ele>
        <time>2021-02-20T15:01:05.000Z</time>
      </trkpt>
      <trkpt lat="43.88687" lon="7.48646">
        <ele>379.39999389648</ele>
        <time>2021-02-20T15:01:06.000Z</time>
      </trkpt>
      <trkpt lat="43.88688" lon="7.4864">
        <ele>380</ele>
        <time>2021-02-20T15:01:08.000Z</time>
      </trkpt>
      <trkpt lat="43.88691" lon="7.48627">
        <ele>381.20001220703</ele>
        <time>2021-02-20T15:01:12.000Z</time>
      </trkpt>
      <trkpt lat="43.88691" lon="7.48618">
        <ele>382.20001220703</ele>
        <time>2021-02-20T15:01:15.000Z</time>
      </trkpt>
      <trkpt lat="43.88689" lon="7.48611">
        <ele>383</ele>
        <time>2021-02-20T15:01:17.000Z</time>
      </trkpt>
      <trkpt lat="43.88687" lon="7.48605">
        <ele>383.39999389648</ele>
        <time>2021-02-20T15:01:19.000Z</time>
      </trkpt>
      <trkpt lat="43.88682" lon="7.48597">
        <ele>384.79998779297</ele>
        <time>2021-02-20T15:01:22.000Z</time>
      </trkpt>
      <trkpt lat="43.8868" lon="7.48591">
        <ele>385.79998779297</ele>
        <time>2021-02-20T15:01:24.000Z</time>
      </trkpt>
      <trkpt lat="43.88676" lon="7.48583">
        <ele>387.39999389648</ele>
        <time>2021-02-20T15:01:27.000Z</time>
      </trkpt>
      <trkpt lat="43.88674" lon="7.48578">
        <ele>388.39999389648</ele>
        <time>2021-02-20T15:01:29.000Z</time>
      </trkpt>
      <trkpt lat="43.88675" lon="7.48572">
        <ele>389.60000610352</ele>
        <time>2021-02-20T15:01:31.000Z</time>
      </trkpt>
      <trkpt lat="43.88675" lon="7.48566">
        <ele>390.60000610352</ele>
        <time>2021-02-20T15:01:33.000Z</time>
      </trkpt>
      <trkpt lat="43.88674" lon="7.48555">
        <ele>391.79998779297</ele>
        <time>2021-02-20T15:01:36.000Z</time>
      </trkpt>
      <trkpt lat="43.88672" lon="7.48549">
        <ele>391.79998779297</ele>
        <time>2021-02-20T15:01:38.000Z</time>
      </trkpt>
      <trkpt lat="43.8867" lon="7.48528">
        <ele>392</ele>
        <time>2021-02-20T15:01:43.000Z</time>
      </trkpt>
      <trkpt lat="43.88671" lon="7.48516">
        <ele>391.79998779297</ele>
        <time>2021-02-20T15:01:45.000Z</time>
      </trkpt>
      <trkpt lat="43.88675" lon="7.48495">
        <ele>391.20001220703</ele>
        <time>2021-02-20T15:01:48.000Z</time>
      </trkpt>
      <trkpt lat="43.88678" lon="7.48478">
        <ele>390.60000610352</ele>
        <time>2021-02-20T15:01:50.000Z</time>
      </trkpt>
      <trkpt lat="43.88677" lon="7.48468">
        <ele>390.20001220703</ele>
        <time>2021-02-20T15:01:51.000Z</time>
      </trkpt>
      <trkpt lat="43.88673" lon="7.48459">
        <ele>389.79998779297</ele>
        <time>2021-02-20T15:01:52.000Z</time>
      </trkpt>
      <trkpt lat="43.88669" lon="7.48451">
        <ele>389.39999389648</ele>
        <time>2021-02-20T15:01:53.000Z</time>
      </trkpt>
      <trkpt lat="43.88665" lon="7.48431">
        <ele>388.39999389648</ele>
        <time>2021-02-20T15:01:55.000Z</time>
      </trkpt>
      <trkpt lat="43.88663" lon="7.48409">
        <ele>387.20001220703</ele>
        <time>2021-02-20T15:01:57.000Z</time>
      </trkpt>
      <trkpt lat="43.88655" lon="7.48378">
        <ele>386</ele>
        <time>2021-02-20T15:02:00.000Z</time>
      </trkpt>
      <trkpt lat="43.88641" lon="7.48349">
        <ele>384.60000610352</ele>
        <time>2021-02-20T15:02:03.000Z</time>
      </trkpt>
      <trkpt lat="43.88636" lon="7.4834">
        <ele>384.20001220703</ele>
        <time>2021-02-20T15:02:04.000Z</time>
      </trkpt>
      <trkpt lat="43.88621" lon="7.48313">
        <ele>383.20001220703</ele>
        <time>2021-02-20T15:02:07.000Z</time>
      </trkpt>
      <trkpt lat="43.88608" lon="7.48298">
        <ele>382.39999389648</ele>
        <time>2021-02-20T15:02:09.000Z</time>
      </trkpt>
      <trkpt lat="43.88602" lon="7.48291">
        <ele>382</ele>
        <time>2021-02-20T15:02:10.000Z</time>
      </trkpt>
      <trkpt lat="43.88588" lon="7.48275">
        <ele>381</ele>
        <time>2021-02-20T15:02:12.000Z</time>
      </trkpt>
      <trkpt lat="43.88574" lon="7.48259">
        <ele>379.79998779297</ele>
        <time>2021-02-20T15:02:14.000Z</time>
      </trkpt>
      <trkpt lat="43.88562" lon="7.48241">
        <ele>379</ele>
        <time>2021-02-20T15:02:16.000Z</time>
      </trkpt>
      <trkpt lat="43.88558" lon="7.48234">
        <ele>378.60000610352</ele>
        <time>2021-02-20T15:02:17.000Z</time>
      </trkpt>
      <trkpt lat="43.88538" lon="7.4821">
        <ele>378</ele>
        <time>2021-02-20T15:02:20.000Z</time>
      </trkpt>
      <trkpt lat="43.88523" lon="7.48197">
        <ele>377.60000610352</ele>
        <time>2021-02-20T15:02:22.000Z</time>
      </trkpt>
      <trkpt lat="43.88504" lon="7.48177">
        <ele>377</ele>
        <time>2021-02-20T15:02:25.000Z</time>
      </trkpt>
      <trkpt lat="43.88496" lon="7.48149">
        <ele>377</ele>
        <time>2021-02-20T15:02:28.000Z</time>
      </trkpt>
      <trkpt lat="43.88489" lon="7.48132">
        <ele>377</ele>
        <time>2021-02-20T15:02:30.000Z</time>
      </trkpt>
      <trkpt lat="43.88482" lon="7.48116">
        <ele>376.79998779297</ele>
        <time>2021-02-20T15:02:32.000Z</time>
      </trkpt>
      <trkpt lat="43.88479" lon="7.48109">
        <ele>376.60000610352</ele>
        <time>2021-02-20T15:02:33.000Z</time>
      </trkpt>
      <trkpt lat="43.88459" lon="7.48071">
        <ele>377.20001220703</ele>
        <time>2021-02-20T15:02:39.000Z</time>
      </trkpt>
      <trkpt lat="43.88439" lon="7.48031">
        <ele>376.79998779297</ele>
        <time>2021-02-20T15:02:45.000Z</time>
      </trkpt>
      <trkpt lat="43.88436" lon="7.48023">
        <ele>376.60000610352</ele>
        <time>2021-02-20T15:02:46.000Z</time>
      </trkpt>
      <trkpt lat="43.88419" lon="7.47986">
        <ele>375.39999389648</ele>
        <time>2021-02-20T15:02:51.000Z</time>
      </trkpt>
      <trkpt lat="43.8841" lon="7.47963">
        <ele>374.60000610352</ele>
        <time>2021-02-20T15:02:54.000Z</time>
      </trkpt>
      <trkpt lat="43.88405" lon="7.47947">
        <ele>374.20001220703</ele>
        <time>2021-02-20T15:02:56.000Z</time>
      </trkpt>
      <trkpt lat="43.88395" lon="7.47911">
        <ele>373.20001220703</ele>
        <time>2021-02-20T15:03:00.000Z</time>
      </trkpt>
      <trkpt lat="43.88392" lon="7.47901">
        <ele>373</ele>
        <time>2021-02-20T15:03:01.000Z</time>
      </trkpt>
      <trkpt lat="43.88381" lon="7.47861">
        <ele>371.60000610352</ele>
        <time>2021-02-20T15:03:05.000Z</time>
      </trkpt>
      <trkpt lat="43.88377" lon="7.47851">
        <ele>371.39999389648</ele>
        <time>2021-02-20T15:03:06.000Z</time>
      </trkpt>
      <trkpt lat="43.88368" lon="7.47834">
        <ele>370.39999389648</ele>
        <time>2021-02-20T15:03:08.000Z</time>
      </trkpt>
      <trkpt lat="43.88358" lon="7.4782">
        <ele>370</ele>
        <time>2021-02-20T15:03:10.000Z</time>
      </trkpt>
      <trkpt lat="43.88351" lon="7.47815">
        <ele>369.79998779297</ele>
        <time>2021-02-20T15:03:11.000Z</time>
      </trkpt>
      <trkpt lat="43.88325" lon="7.47805">
        <ele>369.20001220703</ele>
        <time>2021-02-20T15:03:15.000Z</time>
      </trkpt>
      <trkpt lat="43.88312" lon="7.47815">
        <ele>369.20001220703</ele>
        <time>2021-02-20T15:03:18.000Z</time>
      </trkpt>
      <trkpt lat="43.88309" lon="7.4782">
        <ele>369.20001220703</ele>
        <time>2021-02-20T15:03:19.000Z</time>
      </trkpt>
      <trkpt lat="43.88306" lon="7.47825">
        <ele>369.39999389648</ele>
        <time>2021-02-20T15:03:20.000Z</time>
      </trkpt>
      <trkpt lat="43.88299" lon="7.4784">
        <ele>370.60000610352</ele>
        <time>2021-02-20T15:03:23.000Z</time>
      </trkpt>
      <trkpt lat="43.88296" lon="7.47846">
        <ele>371</ele>
        <time>2021-02-20T15:03:24.000Z</time>
      </trkpt>
      <trkpt lat="43.88289" lon="7.47868">
        <ele>371.60000610352</ele>
        <time>2021-02-20T15:03:28.000Z</time>
      </trkpt>
      <trkpt lat="43.88284" lon="7.47878">
        <ele>372</ele>
        <time>2021-02-20T15:03:30.000Z</time>
      </trkpt>
      <trkpt lat="43.88279" lon="7.47881">
        <ele>372.20001220703</ele>
        <time>2021-02-20T15:03:31.000Z</time>
      </trkpt>
      <trkpt lat="43.88271" lon="7.47883">
        <ele>372.79998779297</ele>
        <time>2021-02-20T15:03:33.000Z</time>
      </trkpt>
      <trkpt lat="43.88267" lon="7.4788">
        <ele>373</ele>
        <time>2021-02-20T15:03:34.000Z</time>
      </trkpt>
      <trkpt lat="43.8826" lon="7.47865">
        <ele>373.79998779297</ele>
        <time>2021-02-20T15:03:37.000Z</time>
      </trkpt>
      <trkpt lat="43.88259" lon="7.47848">
        <ele>374.79998779297</ele>
        <time>2021-02-20T15:03:40.000Z</time>
      </trkpt>
      <trkpt lat="43.88259" lon="7.47843">
        <ele>375</ele>
        <time>2021-02-20T15:03:41.000Z</time>
      </trkpt>
      <trkpt lat="43.88259" lon="7.47837">
        <ele>375.39999389648</ele>
        <time>2021-02-20T15:03:42.000Z</time>
      </trkpt>
      <trkpt lat="43.88258" lon="7.47827">
        <ele>376.20001220703</ele>
        <time>2021-02-20T15:03:44.000Z</time>
      </trkpt>
      <trkpt lat="43.88257" lon="7.47812">
        <ele>377.39999389648</ele>
        <time>2021-02-20T15:03:47.000Z</time>
      </trkpt>
      <trkpt lat="43.88254" lon="7.47791">
        <ele>378.20001220703</ele>
        <time>2021-02-20T15:03:51.000Z</time>
      </trkpt>
      <trkpt lat="43.88254" lon="7.47786">
        <ele>378.39999389648</ele>
        <time>2021-02-20T15:03:52.000Z</time>
      </trkpt>
      <trkpt lat="43.88252" lon="7.4776">
        <ele>379.39999389648</ele>
        <time>2021-02-20T15:03:57.000Z</time>
      </trkpt>
      <trkpt lat="43.8825" lon="7.47745">
        <ele>380.20001220703</ele>
        <time>2021-02-20T15:04:00.000Z</time>
      </trkpt>
      <trkpt lat="43.8825" lon="7.4774">
        <ele>380.39999389648</ele>
        <time>2021-02-20T15:04:01.000Z</time>
      </trkpt>
      <trkpt lat="43.88248" lon="7.47719">
        <ele>381.39999389648</ele>
        <time>2021-02-20T15:04:05.000Z</time>
      </trkpt>
      <trkpt lat="43.88245" lon="7.47699">
        <ele>382.60000610352</ele>
        <time>2021-02-20T15:04:09.000Z</time>
      </trkpt>
      <trkpt lat="43.88243" lon="7.4768">
        <ele>383.79998779297</ele>
        <time>2021-02-20T15:04:13.000Z</time>
      </trkpt>
      <trkpt lat="43.88243" lon="7.47664">
        <ele>384.79998779297</ele>
        <time>2021-02-20T15:04:17.000Z</time>
      </trkpt>
      <trkpt lat="43.88242" lon="7.47654">
        <ele>386</ele>
        <time>2021-02-20T15:04:22.000Z</time>
      </trkpt>
      <trkpt lat="43.8824" lon="7.47652">
        <ele>386.20001220703</ele>
        <time>2021-02-20T15:04:24.000Z</time>
      </trkpt>
      <trkpt lat="43.88239" lon="7.47645">
        <ele>386.39999389648</ele>
        <time>2021-02-20T15:04:26.000Z</time>
      </trkpt>
      <trkpt lat="43.88237" lon="7.47623">
        <ele>386</ele>
        <time>2021-02-20T15:04:30.000Z</time>
      </trkpt>
      <trkpt lat="43.88235" lon="7.47605">
        <ele>385.79998779297</ele>
        <time>2021-02-20T15:04:33.000Z</time>
      </trkpt>
      <trkpt lat="43.88237" lon="7.47593">
        <ele>385.79998779297</ele>
        <time>2021-02-20T15:04:35.000Z</time>
      </trkpt>
      <trkpt lat="43.88239" lon="7.47569">
        <ele>385.60000610352</ele>
        <time>2021-02-20T15:04:39.000Z</time>
      </trkpt>
      <trkpt lat="43.8824" lon="7.47563">
        <ele>385.60000610352</ele>
        <time>2021-02-20T15:04:40.000Z</time>
      </trkpt>
      <trkpt lat="43.88243" lon="7.47558">
        <ele>385.60000610352</ele>
        <time>2021-02-20T15:04:41.000Z</time>
      </trkpt>
      <trkpt lat="43.88249" lon="7.47549">
        <ele>385.79998779297</ele>
        <time>2021-02-20T15:04:43.000Z</time>
      </trkpt>
      <trkpt lat="43.88253" lon="7.47537">
        <ele>385.39999389648</ele>
        <time>2021-02-20T15:04:45.000Z</time>
      </trkpt>
      <trkpt lat="43.88251" lon="7.47526">
        <ele>384.79998779297</ele>
        <time>2021-02-20T15:04:47.000Z</time>
      </trkpt>
      <trkpt lat="43.88241" lon="7.47512">
        <ele>383.60000610352</ele>
        <time>2021-02-20T15:04:50.000Z</time>
      </trkpt>
      <trkpt lat="43.88239" lon="7.47505">
        <ele>383</ele>
        <time>2021-02-20T15:04:51.000Z</time>
      </trkpt>
      <trkpt lat="43.88238" lon="7.47498">
        <ele>382</ele>
        <time>2021-02-20T15:04:52.000Z</time>
      </trkpt>
      <trkpt lat="43.88235" lon="7.47494">
        <ele>381.20001220703</ele>
        <time>2021-02-20T15:04:53.000Z</time>
      </trkpt>
      <trkpt lat="43.88233" lon="7.47488">
        <ele>379.79998779297</ele>
        <time>2021-02-20T15:04:54.000Z</time>
      </trkpt>
      <trkpt lat="43.8823" lon="7.47484">
        <ele>378.60000610352</ele>
        <time>2021-02-20T15:04:55.000Z</time>
      </trkpt>
      <trkpt lat="43.88221" lon="7.47476">
        <ele>376.20001220703</ele>
        <time>2021-02-20T15:04:57.000Z</time>
      </trkpt>
      <trkpt lat="43.88218" lon="7.47471">
        <ele>375</ele>
        <time>2021-02-20T15:04:58.000Z</time>
      </trkpt>
      <trkpt lat="43.8821" lon="7.47458">
        <ele>373.79998779297</ele>
        <time>2021-02-20T15:05:00.000Z</time>
      </trkpt>
      <trkpt lat="43.88209" lon="7.47452">
        <ele>372.79998779297</ele>
        <time>2021-02-20T15:05:01.000Z</time>
      </trkpt>
      <trkpt lat="43.88203" lon="7.47435">
        <ele>371.20001220703</ele>
        <time>2021-02-20T15:05:04.000Z</time>
      </trkpt>
      <trkpt lat="43.88201" lon="7.4743">
        <ele>370</ele>
        <time>2021-02-20T15:05:05.000Z</time>
      </trkpt>
      <trkpt lat="43.88197" lon="7.47425">
        <ele>369.60000610352</ele>
        <time>2021-02-20T15:05:06.000Z</time>
      </trkpt>
      <trkpt lat="43.88192" lon="7.47413">
        <ele>369.20001220703</ele>
        <time>2021-02-20T15:05:08.000Z</time>
      </trkpt>
      <trkpt lat="43.88188" lon="7.47407">
        <ele>368.79998779297</ele>
        <time>2021-02-20T15:05:09.000Z</time>
      </trkpt>
      <trkpt lat="43.8818" lon="7.47394">
        <ele>368.39999389648</ele>
        <time>2021-02-20T15:05:11.000Z</time>
      </trkpt>
      <trkpt lat="43.88173" lon="7.47382">
        <ele>367.60000610352</ele>
        <time>2021-02-20T15:05:13.000Z</time>
      </trkpt>
      <trkpt lat="43.8817" lon="7.47366">
        <ele>367.20001220703</ele>
        <time>2021-02-20T15:05:15.000Z</time>
      </trkpt>
      <trkpt lat="43.88167" lon="7.47358">
        <ele>366.39999389648</ele>
        <time>2021-02-20T15:05:16.000Z</time>
      </trkpt>
      <trkpt lat="43.88164" lon="7.47344">
        <ele>365.20001220703</ele>
        <time>2021-02-20T15:05:18.000Z</time>
      </trkpt>
      <trkpt lat="43.88163" lon="7.47337">
        <ele>364.79998779297</ele>
        <time>2021-02-20T15:05:19.000Z</time>
      </trkpt>
      <trkpt lat="43.88161" lon="7.47331">
        <ele>364.39999389648</ele>
        <time>2021-02-20T15:05:20.000Z</time>
      </trkpt>
      <trkpt lat="43.88157" lon="7.47312">
        <ele>364.79998779297</ele>
        <time>2021-02-20T15:05:23.000Z</time>
      </trkpt>
      <trkpt lat="43.88158" lon="7.47306">
        <ele>365.20001220703</ele>
        <time>2021-02-20T15:05:24.000Z</time>
      </trkpt>
      <trkpt lat="43.8816" lon="7.47299">
        <ele>366.39999389648</ele>
        <time>2021-02-20T15:05:26.000Z</time>
      </trkpt>
      <trkpt lat="43.88162" lon="7.47296">
        <ele>366.79998779297</ele>
        <time>2021-02-20T15:05:27.000Z</time>
      </trkpt>
      <trkpt lat="43.88163" lon="7.47292">
        <ele>367.60000610352</ele>
        <time>2021-02-20T15:05:28.000Z</time>
      </trkpt>
      <trkpt lat="43.88164" lon="7.47282">
        <ele>368.39999389648</ele>
        <time>2021-02-20T15:05:30.000Z</time>
      </trkpt>
      <trkpt lat="43.88163" lon="7.47274">
        <ele>368.39999389648</ele>
        <time>2021-02-20T15:05:31.000Z</time>
      </trkpt>
      <trkpt lat="43.88162" lon="7.47269">
        <ele>368.60000610352</ele>
        <time>2021-02-20T15:05:32.000Z</time>
      </trkpt>
      <trkpt lat="43.88155" lon="7.47246">
        <ele>367.79998779297</ele>
        <time>2021-02-20T15:05:36.000Z</time>
      </trkpt>
      <trkpt lat="43.88153" lon="7.47239">
        <ele>367.39999389648</ele>
        <time>2021-02-20T15:05:37.000Z</time>
      </trkpt>
      <trkpt lat="43.88151" lon="7.47225">
        <ele>367.20001220703</ele>
        <time>2021-02-20T15:05:39.000Z</time>
      </trkpt>
      <trkpt lat="43.88148" lon="7.47209">
        <ele>367.60000610352</ele>
        <time>2021-02-20T15:05:42.000Z</time>
      </trkpt>
      <trkpt lat="43.88148" lon="7.47193">
        <ele>368.39999389648</ele>
        <time>2021-02-20T15:05:45.000Z</time>
      </trkpt>
      <trkpt lat="43.88148" lon="7.47187">
        <ele>368.60000610352</ele>
        <time>2021-02-20T15:05:46.000Z</time>
      </trkpt>
      <trkpt lat="43.88146" lon="7.47164">
        <ele>369.79998779297</ele>
        <time>2021-02-20T15:05:51.000Z</time>
      </trkpt>
      <trkpt lat="43.88137" lon="7.47151">
        <ele>371</ele>
        <time>2021-02-20T15:05:55.000Z</time>
      </trkpt>
      <trkpt lat="43.88117" lon="7.47129">
        <ele>371.20001220703</ele>
        <time>2021-02-20T15:06:02.000Z</time>
      </trkpt>
      <trkpt lat="43.88102" lon="7.47109">
        <ele>372</ele>
        <time>2021-02-20T15:06:08.000Z</time>
      </trkpt>
      <trkpt lat="43.88099" lon="7.47103">
        <ele>372.60000610352</ele>
        <time>2021-02-20T15:06:10.000Z</time>
      </trkpt>
      <trkpt lat="43.88095" lon="7.47096">
        <ele>373.20001220703</ele>
        <time>2021-02-20T15:06:12.000Z</time>
      </trkpt>
      <trkpt lat="43.8809" lon="7.47078">
        <ele>374.39999389648</ele>
        <time>2021-02-20T15:06:16.000Z</time>
      </trkpt>
      <trkpt lat="43.88083" lon="7.4705">
        <ele>374.79998779297</ele>
        <time>2021-02-20T15:06:21.000Z</time>
      </trkpt>
      <trkpt lat="43.88082" lon="7.47044">
        <ele>374.79998779297</ele>
        <time>2021-02-20T15:06:22.000Z</time>
      </trkpt>
      <trkpt lat="43.88078" lon="7.47002">
        <ele>375.20001220703</ele>
        <time>2021-02-20T15:06:28.000Z</time>
      </trkpt>
      <trkpt lat="43.88072" lon="7.46987">
        <ele>375.20001220703</ele>
        <time>2021-02-20T15:06:30.000Z</time>
      </trkpt>
      <trkpt lat="43.88064" lon="7.46972">
        <ele>374.79998779297</ele>
        <time>2021-02-20T15:06:32.000Z</time>
      </trkpt>
      <trkpt lat="43.88035" lon="7.46918">
        <ele>373.79998779297</ele>
        <time>2021-02-20T15:06:40.000Z</time>
      </trkpt>
      <trkpt lat="43.8802" lon="7.46874">
        <ele>374</ele>
        <time>2021-02-20T15:06:46.000Z</time>
      </trkpt>
      <trkpt lat="43.88021" lon="7.46867">
        <ele>373.79998779297</ele>
        <time>2021-02-20T15:06:47.000Z</time>
      </trkpt>
      <trkpt lat="43.88028" lon="7.46845">
        <ele>373.60000610352</ele>
        <time>2021-02-20T15:06:50.000Z</time>
      </trkpt>
      <trkpt lat="43.88031" lon="7.46838">
        <ele>373.60000610352</ele>
        <time>2021-02-20T15:06:51.000Z</time>
      </trkpt>
      <trkpt lat="43.88038" lon="7.46802">
        <ele>373.60000610352</ele>
        <time>2021-02-20T15:06:56.000Z</time>
      </trkpt>
      <trkpt lat="43.88038" lon="7.46795">
        <ele>373.60000610352</ele>
        <time>2021-02-20T15:06:57.000Z</time>
      </trkpt>
      <trkpt lat="43.88034" lon="7.46748">
        <ele>373.39999389648</ele>
        <time>2021-02-20T15:07:03.000Z</time>
      </trkpt>
      <trkpt lat="43.88033" lon="7.46734">
        <ele>373.20001220703</ele>
        <time>2021-02-20T15:07:05.000Z</time>
      </trkpt>
      <trkpt lat="43.88027" lon="7.46701">
        <ele>372.79998779297</ele>
        <time>2021-02-20T15:07:09.000Z</time>
      </trkpt>
      <trkpt lat="43.88026" lon="7.46693">
        <ele>372.60000610352</ele>
        <time>2021-02-20T15:07:10.000Z</time>
      </trkpt>
      <trkpt lat="43.88026" lon="7.46678">
        <ele>372</ele>
        <time>2021-02-20T15:07:12.000Z</time>
      </trkpt>
      <trkpt lat="43.88028" lon="7.46673">
        <ele>371.79998779297</ele>
        <time>2021-02-20T15:07:13.000Z</time>
      </trkpt>
      <trkpt lat="43.88035" lon="7.46652">
        <ele>371.79998779297</ele>
        <time>2021-02-20T15:07:17.000Z</time>
      </trkpt>
      <trkpt lat="43.88039" lon="7.46641">
        <ele>371.79998779297</ele>
        <time>2021-02-20T15:07:19.000Z</time>
      </trkpt>
      <trkpt lat="43.88043" lon="7.46619">
        <ele>372.20001220703</ele>
        <time>2021-02-20T15:07:23.000Z</time>
      </trkpt>
      <trkpt lat="43.88045" lon="7.46605">
        <ele>372.39999389648</ele>
        <time>2021-02-20T15:07:25.000Z</time>
      </trkpt>
      <trkpt lat="43.8805" lon="7.46584">
        <ele>372.20001220703</ele>
        <time>2021-02-20T15:07:28.000Z</time>
      </trkpt>
      <trkpt lat="43.8805" lon="7.46566">
        <ele>372</ele>
        <time>2021-02-20T15:07:31.000Z</time>
      </trkpt>
      <trkpt lat="43.88048" lon="7.46554">
        <ele>372.20001220703</ele>
        <time>2021-02-20T15:07:33.000Z</time>
      </trkpt>
      <trkpt lat="43.88049" lon="7.46547">
        <ele>372.20001220703</ele>
        <time>2021-02-20T15:07:34.000Z</time>
      </trkpt>
      <trkpt lat="43.88049" lon="7.46541">
        <ele>372.39999389648</ele>
        <time>2021-02-20T15:07:35.000Z</time>
      </trkpt>
      <trkpt lat="43.88044" lon="7.46516">
        <ele>372.60000610352</ele>
        <time>2021-02-20T15:07:40.000Z</time>
      </trkpt>
      <trkpt lat="43.88045" lon="7.46497">
        <ele>373</ele>
        <time>2021-02-20T15:07:43.000Z</time>
      </trkpt>
      <trkpt lat="43.88043" lon="7.46488">
        <ele>373</ele>
        <time>2021-02-20T15:07:45.000Z</time>
      </trkpt>
      <trkpt lat="43.88043" lon="7.46483">
        <ele>373</ele>
        <time>2021-02-20T15:07:46.000Z</time>
      </trkpt>
      <trkpt lat="43.88042" lon="7.46473">
        <ele>373</ele>
        <time>2021-02-20T15:07:49.000Z</time>
      </trkpt>
      <trkpt lat="43.88042" lon="7.46469">
        <ele>373.20001220703</ele>
        <time>2021-02-20T15:07:50.000Z</time>
      </trkpt>
      <trkpt lat="43.88041" lon="7.46459">
        <ele>374.20001220703</ele>
        <time>2021-02-20T15:07:52.000Z</time>
      </trkpt>
      <trkpt lat="43.88039" lon="7.4645">
        <ele>375.20001220703</ele>
        <time>2021-02-20T15:07:54.000Z</time>
      </trkpt>
      <trkpt lat="43.88039" lon="7.46446">
        <ele>375.60000610352</ele>
        <time>2021-02-20T15:07:55.000Z</time>
      </trkpt>
      <trkpt lat="43.8804" lon="7.4644">
        <ele>376.60000610352</ele>
        <time>2021-02-20T15:07:57.000Z</time>
      </trkpt>
      <trkpt lat="43.88038" lon="7.46434">
        <ele>377.60000610352</ele>
        <time>2021-02-20T15:07:59.000Z</time>
      </trkpt>
      <trkpt lat="43.88031" lon="7.46413">
        <ele>378.39999389648</ele>
        <time>2021-02-20T15:08:04.000Z</time>
      </trkpt>
      <trkpt lat="43.88019" lon="7.46385">
        <ele>378</ele>
        <time>2021-02-20T15:08:09.000Z</time>
      </trkpt>
      <trkpt lat="43.88011" lon="7.4636">
        <ele>377</ele>
        <time>2021-02-20T15:08:13.000Z</time>
      </trkpt>
      <trkpt lat="43.88007" lon="7.46337">
        <ele>378</ele>
        <time>2021-02-20T15:08:18.000Z</time>
      </trkpt>
      <trkpt lat="43.88004" lon="7.46323">
        <ele>378.79998779297</ele>
        <time>2021-02-20T15:08:21.000Z</time>
      </trkpt>
      <trkpt lat="43.87997" lon="7.46301">
        <ele>379.20001220703</ele>
        <time>2021-02-20T15:08:25.000Z</time>
      </trkpt>
      <trkpt lat="43.87984" lon="7.46255">
        <ele>378.60000610352</ele>
        <time>2021-02-20T15:08:32.000Z</time>
      </trkpt>
      <trkpt lat="43.87982" lon="7.46249">
        <ele>378.39999389648</ele>
        <time>2021-02-20T15:08:33.000Z</time>
      </trkpt>
      <trkpt lat="43.87978" lon="7.46224">
        <ele>378.20001220703</ele>
        <time>2021-02-20T15:08:37.000Z</time>
      </trkpt>
      <trkpt lat="43.87978" lon="7.46185">
        <ele>379.39999389648</ele>
        <time>2021-02-20T15:08:44.000Z</time>
      </trkpt>
      <trkpt lat="43.87979" lon="7.46175">
        <ele>380</ele>
        <time>2021-02-20T15:08:46.000Z</time>
      </trkpt>
      <trkpt lat="43.87981" lon="7.46153">
        <ele>381.20001220703</ele>
        <time>2021-02-20T15:08:50.000Z</time>
      </trkpt>
      <trkpt lat="43.87982" lon="7.46141">
        <ele>381.79998779297</ele>
        <time>2021-02-20T15:08:52.000Z</time>
      </trkpt>
      <trkpt lat="43.87982" lon="7.46129">
        <ele>382.60000610352</ele>
        <time>2021-02-20T15:08:54.000Z</time>
      </trkpt>
      <trkpt lat="43.87982" lon="7.46112">
        <ele>383.79998779297</ele>
        <time>2021-02-20T15:08:57.000Z</time>
      </trkpt>
      <trkpt lat="43.87981" lon="7.46101">
        <ele>384.79998779297</ele>
        <time>2021-02-20T15:08:59.000Z</time>
      </trkpt>
      <trkpt lat="43.87982" lon="7.46096">
        <ele>385.39999389648</ele>
        <time>2021-02-20T15:09:00.000Z</time>
      </trkpt>
      <trkpt lat="43.87981" lon="7.46086">
        <ele>386.39999389648</ele>
        <time>2021-02-20T15:09:02.000Z</time>
      </trkpt>
      <trkpt lat="43.87981" lon="7.46078">
        <ele>387.60000610352</ele>
        <time>2021-02-20T15:09:04.000Z</time>
      </trkpt>
      <trkpt lat="43.87983" lon="7.46067">
        <ele>389</ele>
        <time>2021-02-20T15:09:07.000Z</time>
      </trkpt>
      <trkpt lat="43.87986" lon="7.46054">
        <ele>390.20001220703</ele>
        <time>2021-02-20T15:09:10.000Z</time>
      </trkpt>
      <trkpt lat="43.87987" lon="7.46042">
        <ele>390.39999389648</ele>
        <time>2021-02-20T15:09:12.000Z</time>
      </trkpt>
      <trkpt lat="43.87982" lon="7.45998">
        <ele>389.79998779297</ele>
        <time>2021-02-20T15:09:19.000Z</time>
      </trkpt>
      <trkpt lat="43.87974" lon="7.45958">
        <ele>389</ele>
        <time>2021-02-20T15:09:25.000Z</time>
      </trkpt>
      <trkpt lat="43.87971" lon="7.45944">
        <ele>388.79998779297</ele>
        <time>2021-02-20T15:09:27.000Z</time>
      </trkpt>
      <trkpt lat="43.87966" lon="7.45923">
        <ele>388.60000610352</ele>
        <time>2021-02-20T15:09:30.000Z</time>
      </trkpt>
      <trkpt lat="43.87961" lon="7.45892">
        <ele>388</ele>
        <time>2021-02-20T15:09:34.000Z</time>
      </trkpt>
      <trkpt lat="43.87957" lon="7.45846">
        <ele>386.79998779297</ele>
        <time>2021-02-20T15:09:40.000Z</time>
      </trkpt>
      <trkpt lat="43.87956" lon="7.45838">
        <ele>386.79998779297</ele>
        <time>2021-02-20T15:09:41.000Z</time>
      </trkpt>
      <trkpt lat="43.87948" lon="7.45773">
        <ele>385.79998779297</ele>
        <time>2021-02-20T15:09:49.000Z</time>
      </trkpt>
      <trkpt lat="43.87939" lon="7.45711">
        <ele>385.60000610352</ele>
        <time>2021-02-20T15:09:57.000Z</time>
      </trkpt>
      <trkpt lat="43.87926" lon="7.45648">
        <ele>385.60000610352</ele>
        <time>2021-02-20T15:10:05.000Z</time>
      </trkpt>
      <trkpt lat="43.87909" lon="7.45585">
        <ele>385.79998779297</ele>
        <time>2021-02-20T15:10:13.000Z</time>
      </trkpt>
      <trkpt lat="43.87895" lon="7.45541">
        <ele>385.39999389648</ele>
        <time>2021-02-20T15:10:19.000Z</time>
      </trkpt>
      <trkpt lat="43.87876" lon="7.45474">
        <ele>385.20001220703</ele>
        <time>2021-02-20T15:10:28.000Z</time>
      </trkpt>
      <trkpt lat="43.87872" lon="7.45459">
        <ele>385.20001220703</ele>
        <time>2021-02-20T15:10:30.000Z</time>
      </trkpt>
      <trkpt lat="43.87866" lon="7.45436">
        <ele>385</ele>
        <time>2021-02-20T15:10:33.000Z</time>
      </trkpt>
      <trkpt lat="43.87853" lon="7.45374">
        <ele>385.39999389648</ele>
        <time>2021-02-20T15:10:41.000Z</time>
      </trkpt>
      <trkpt lat="43.87837" lon="7.45303">
        <ele>386</ele>
        <time>2021-02-20T15:10:50.000Z</time>
      </trkpt>
      <trkpt lat="43.87836" lon="7.45294">
        <ele>386.20001220703</ele>
        <time>2021-02-20T15:10:51.000Z</time>
      </trkpt>
      <trkpt lat="43.87833" lon="7.45268">
        <ele>386.39999389648</ele>
        <time>2021-02-20T15:10:54.000Z</time>
      </trkpt>
      <trkpt lat="43.87831" lon="7.45261">
        <ele>386.60000610352</ele>
        <time>2021-02-20T15:10:55.000Z</time>
      </trkpt>
      <trkpt lat="43.87824" lon="7.45231">
        <ele>386.79998779297</ele>
        <time>2021-02-20T15:10:59.000Z</time>
      </trkpt>
      <trkpt lat="43.87816" lon="7.45203">
        <ele>388</ele>
        <time>2021-02-20T15:11:03.000Z</time>
      </trkpt>
      <trkpt lat="43.87812" lon="7.45183">
        <ele>388.60000610352</ele>
        <time>2021-02-20T15:11:06.000Z</time>
      </trkpt>
      <trkpt lat="43.87808" lon="7.4517">
        <ele>389</ele>
        <time>2021-02-20T15:11:08.000Z</time>
      </trkpt>
      <trkpt lat="43.878" lon="7.45136">
        <ele>389.79998779297</ele>
        <time>2021-02-20T15:11:13.000Z</time>
      </trkpt>
      <trkpt lat="43.87794" lon="7.45126">
        <ele>390.20001220703</ele>
        <time>2021-02-20T15:11:15.000Z</time>
      </trkpt>
      <trkpt lat="43.87785" lon="7.45117">
        <ele>390.60000610352</ele>
        <time>2021-02-20T15:11:17.000Z</time>
      </trkpt>
      <trkpt lat="43.87781" lon="7.45112">
        <ele>390.79998779297</ele>
        <time>2021-02-20T15:11:18.000Z</time>
      </trkpt>
      <trkpt lat="43.87773" lon="7.45104">
        <ele>391.39999389648</ele>
        <time>2021-02-20T15:11:20.000Z</time>
      </trkpt>
      <trkpt lat="43.87757" lon="7.45086">
        <ele>391.79998779297</ele>
        <time>2021-02-20T15:11:24.000Z</time>
      </trkpt>
      <trkpt lat="43.87754" lon="7.45067">
        <ele>392</ele>
        <time>2021-02-20T15:11:27.000Z</time>
      </trkpt>
      <trkpt lat="43.87755" lon="7.4506">
        <ele>392</ele>
        <time>2021-02-20T15:11:28.000Z</time>
      </trkpt>
      <trkpt lat="43.87759" lon="7.45011">
        <ele>392</ele>
        <time>2021-02-20T15:11:35.000Z</time>
      </trkpt>
      <trkpt lat="43.8776" lon="7.45003">
        <ele>392</ele>
        <time>2021-02-20T15:11:36.000Z</time>
      </trkpt>
      <trkpt lat="43.87764" lon="7.44973">
        <ele>392.39999389648</ele>
        <time>2021-02-20T15:11:40.000Z</time>
      </trkpt>
      <trkpt lat="43.87765" lon="7.44957">
        <ele>392.39999389648</ele>
        <time>2021-02-20T15:11:42.000Z</time>
      </trkpt>
      <trkpt lat="43.87774" lon="7.44922">
        <ele>392.60000610352</ele>
        <time>2021-02-20T15:11:47.000Z</time>
      </trkpt>
      <trkpt lat="43.87778" lon="7.44909">
        <ele>392.39999389648</ele>
        <time>2021-02-20T15:11:49.000Z</time>
      </trkpt>
      <trkpt lat="43.87784" lon="7.4489">
        <ele>392.20001220703</ele>
        <time>2021-02-20T15:11:52.000Z</time>
      </trkpt>
      <trkpt lat="43.87784" lon="7.44878">
        <ele>392</ele>
        <time>2021-02-20T15:11:54.000Z</time>
      </trkpt>
      <trkpt lat="43.87783" lon="7.44868">
        <ele>392</ele>
        <time>2021-02-20T15:11:56.000Z</time>
      </trkpt>
      <trkpt lat="43.87785" lon="7.44856">
        <ele>391.60000610352</ele>
        <time>2021-02-20T15:11:58.000Z</time>
      </trkpt>
      <trkpt lat="43.87786" lon="7.44843">
        <ele>391.39999389648</ele>
        <time>2021-02-20T15:12:00.000Z</time>
      </trkpt>
      <trkpt lat="43.87784" lon="7.44836">
        <ele>390.79998779297</ele>
        <time>2021-02-20T15:12:03.000Z</time>
      </trkpt>
      <trkpt lat="43.87784" lon="7.44835">
        <ele>391</ele>
        <time>2021-02-20T15:12:08.000Z</time>
      </trkpt>
      <trkpt lat="43.87784" lon="7.44834">
        <ele>390.60000610352</ele>
        <time>2021-02-20T15:12:20.000Z</time>
      </trkpt>
      <trkpt lat="43.87786" lon="7.44835">
        <ele>390.39999389648</ele>
        <time>2021-02-20T15:12:31.000Z</time>
      </trkpt>
      <trkpt lat="43.87787" lon="7.44835">
        <ele>390</ele>
        <time>2021-02-20T15:12:41.000Z</time>
      </trkpt>
      <trkpt lat="43.87789" lon="7.44834">
        <ele>390</ele>
        <time>2021-02-20T15:12:48.000Z</time>
      </trkpt>
      <trkpt lat="43.87789" lon="7.44832">
        <ele>390.20001220703</ele>
        <time>2021-02-20T15:12:54.000Z</time>
      </trkpt>
      <trkpt lat="43.87788" lon="7.44831">
        <ele>389.79998779297</ele>
        <time>2021-02-20T15:13:02.000Z</time>
      </trkpt>
      <trkpt lat="43.87789" lon="7.44832">
        <ele>389.39999389648</ele>
        <time>2021-02-20T15:13:05.000Z</time>
      </trkpt>
      <trkpt lat="43.87789" lon="7.44834">
        <ele>389.39999389648</ele>
        <time>2021-02-20T15:13:07.000Z</time>
      </trkpt>
      <trkpt lat="43.87789" lon="7.44834">
        <ele>389.39999389648</ele>
        <time>2021-02-20T15:13:10.000Z</time>
      </trkpt>
      <trkpt lat="43.87789" lon="7.44835">
        <ele>389.20001220703</ele>
        <time>2021-02-20T15:13:13.000Z</time>
      </trkpt>
      <trkpt lat="43.87788" lon="7.44836">
        <ele>389.39999389648</ele>
        <time>2021-02-20T15:13:18.000Z</time>
      </trkpt>
      <trkpt lat="43.87789" lon="7.44837">
        <ele>389.60000610352</ele>
        <time>2021-02-20T15:13:32.000Z</time>
      </trkpt>
      <trkpt lat="43.87789" lon="7.44837">
        <ele>389.60000610352</ele>
        <time>2021-02-20T15:13:35.000Z</time>
      </trkpt>
      <trkpt lat="43.87984" lon="7.44396">
        <ele>391</ele>
        <time>2021-02-20T15:36:19.000Z</time>
      </trkpt>
      <trkpt lat="43.87988" lon="7.44396">
        <ele>391</ele>
        <time>2021-02-20T15:36:22.000Z</time>
      </trkpt>
      <trkpt lat="43.87991" lon="7.44397">
        <ele>391.20001220703</ele>
        <time>2021-02-20T15:36:24.000Z</time>
      </trkpt>
      <trkpt lat="43.88" lon="7.44401">
        <ele>391</ele>
        <time>2021-02-20T15:36:29.000Z</time>
      </trkpt>
      <trkpt lat="43.88009" lon="7.44413">
        <ele>391.39999389648</ele>
        <time>2021-02-20T15:36:35.000Z</time>
      </trkpt>
      <trkpt lat="43.88012" lon="7.44418">
        <ele>391.60000610352</ele>
        <time>2021-02-20T15:36:37.000Z</time>
      </trkpt>
    </trkseg>
  </trk>
</gpx>